<?xml version='1.0' encoding='UTF-8'?><gpx version="1.1" creator="JPX - https://github.com/jenetics/jpx" xmlns="http://www.topografix.com/GPX/1/1"><trk><trkseg><trkpt lat="43.60119053518638" lon="3.241957780283664"><ele>348.0</ele><time>2026-03-17T13:18:33Z</time></trkpt><trkpt lat="43.601135473857354" lon="3.2418884825169108"><ele>348.0</ele><time>2026-03-17T13:18:49Z</time></trkpt><trkpt lat="43.60118019283672" lon="3.241981372650246"><ele>348.0</ele><time>2026-03-17T13:22:17Z</time></trkpt><trkpt lat="43.601176563517186" lon="3.2421105633416065"><ele>348.0</ele><time>2026-03-17T13:22:19Z</time></trkpt><trkpt lat="43.601140585879406" lon="3.2422351094167237"><ele>348.0</ele><time>2026-03-17T13:22:21Z</time></trkpt><trkpt lat="43.601117557442485" lon="3.2423666454401263"><ele>348.0</ele><time>2026-03-17T13:22:24Z</time></trkpt><trkpt lat="43.601146651788866" lon="3.2424865739350643"><ele>347.2</ele><time>2026-03-17T13:22:26Z</time></trkpt><trkpt lat="43.601192970946315" lon="3.2426265575859494"><ele>346.4</ele><time>2026-03-17T13:22:28Z</time></trkpt><trkpt lat="43.60127051867106" lon="3.2426963035573633"><ele>345.59999999999997</ele><time>2026-03-17T13:22:30Z</time></trkpt><trkpt lat="43.601367918156974" lon="3.242760087743593"><ele>344.79999999999995</ele><time>2026-03-17T13:22:32Z</time></trkpt><trkpt lat="43.60147235619946" lon="3.242842780813117"><ele>344.0</ele><time>2026-03-17T13:22:34Z</time></trkpt><trkpt lat="43.60154318891312" lon="3.242887007188801"><ele>344.0</ele><time>2026-03-17T13:22:36Z</time></trkpt><trkpt lat="43.6016177158482" lon="3.242927573010169"><ele>344.0</ele><time>2026-03-17T13:22:39Z</time></trkpt><trkpt lat="43.60164724383564" lon="3.2427927603428226"><ele>344.0</ele><time>2026-03-17T13:22:40Z</time></trkpt><trkpt lat="43.601669624901774" lon="3.2427109984959674"><ele>344.0</ele><time>2026-03-17T13:22:42Z</time></trkpt><trkpt lat="43.60168791870086" lon="3.242619652044361"><ele>344.0</ele><time>2026-03-17T13:22:45Z</time></trkpt><trkpt lat="43.601709932612984" lon="3.2425301767510026"><ele>344.0</ele><time>2026-03-17T13:22:48Z</time></trkpt><trkpt lat="43.601729564152365" lon="3.2424262266583477"><ele>344.0</ele><time>2026-03-17T13:22:52Z</time></trkpt><trkpt lat="43.60174558642992" lon="3.2423200046064107"><ele>344.0</ele><time>2026-03-17T13:22:55Z</time></trkpt><trkpt lat="43.60175851790201" lon="3.242219931441408"><ele>344.0</ele><time>2026-03-17T13:22:57Z</time></trkpt><trkpt lat="43.60178748090738" lon="3.242138682506642"><ele>344.0</ele><time>2026-03-17T13:22:59Z</time></trkpt><trkpt lat="43.60183247073663" lon="3.242032970681911"><ele>344.0</ele><time>2026-03-17T13:23:01Z</time></trkpt><trkpt lat="43.6018671305876" lon="3.2419349002181397"><ele>344.0</ele><time>2026-03-17T13:23:02Z</time></trkpt><trkpt lat="43.60191101210908" lon="3.2418640246487493"><ele>344.6666666666667</ele><time>2026-03-17T13:23:03Z</time></trkpt><trkpt lat="43.60195604572899" lon="3.2417805065757763"><ele>345.33333333333337</ele><time>2026-03-17T13:23:04Z</time></trkpt><trkpt lat="43.60201014487538" lon="3.241687182706669"><ele>346.0</ele><time>2026-03-17T13:23:05Z</time></trkpt><trkpt lat="43.60207681365893" lon="3.2416113634488917"><ele>346.6666666666667</ele><time>2026-03-17T13:23:06Z</time></trkpt><trkpt lat="43.60211906413092" lon="3.2415145989813214"><ele>347.3333333333333</ele><time>2026-03-17T13:23:07Z</time></trkpt><trkpt lat="43.60217642806088" lon="3.2414296705204317"><ele>348.0</ele><time>2026-03-17T13:23:08Z</time></trkpt><trkpt lat="43.60223553574716" lon="3.2413314053422884"><ele>348.79999999999995</ele><time>2026-03-17T13:23:09Z</time></trkpt><trkpt lat="43.602292305725584" lon="3.2412420345796327"><ele>349.6</ele><time>2026-03-17T13:23:10Z</time></trkpt><trkpt lat="43.60236766521951" lon="3.2411751872589503"><ele>350.4</ele><time>2026-03-17T13:23:11Z</time></trkpt><trkpt lat="43.6024172211643" lon="3.241073261886094"><ele>351.20000000000005</ele><time>2026-03-17T13:23:12Z</time></trkpt><trkpt lat="43.602477063972884" lon="3.240980802316206"><ele>352.0</ele><time>2026-03-17T13:23:13Z</time></trkpt><trkpt lat="43.60254512871076" lon="3.2408776838052527"><ele>352.0</ele><time>2026-03-17T13:23:14Z</time></trkpt><trkpt lat="43.60260319350141" lon="3.2407462594278837"><ele>352.0</ele><time>2026-03-17T13:23:15Z</time></trkpt><trkpt lat="43.60266771060267" lon="3.2405898884837976"><ele>352.0</ele><time>2026-03-17T13:23:16Z</time></trkpt><trkpt lat="43.60272691248503" lon="3.2404255907314248"><ele>352.0</ele><time>2026-03-17T13:23:17Z</time></trkpt><trkpt lat="43.60279214354991" lon="3.2402628564897302"><ele>351.25</ele><time>2026-03-17T13:23:18Z</time></trkpt><trkpt lat="43.602865750526824" lon="3.2400943335738854"><ele>350.5</ele><time>2026-03-17T13:23:19Z</time></trkpt><trkpt lat="43.60292370125681" lon="3.239933352594116"><ele>349.75</ele><time>2026-03-17T13:23:20Z</time></trkpt><trkpt lat="43.60296692054715" lon="3.2397789161542754"><ele>349.0</ele><time>2026-03-17T13:23:21Z</time></trkpt><trkpt lat="43.60300609475389" lon="3.2396104032821267"><ele>349.0</ele><time>2026-03-17T13:23:22Z</time></trkpt><trkpt lat="43.60304938393119" lon="3.239416613753775"><ele>349.0</ele><time>2026-03-17T13:23:23Z</time></trkpt><trkpt lat="43.60308738718496" lon="3.239209378775816"><ele>349.0</ele><time>2026-03-17T13:23:24Z</time></trkpt><trkpt lat="43.60310960186978" lon="3.2389996479745893"><ele>351.25</ele><time>2026-03-17T13:23:25Z</time></trkpt><trkpt lat="43.60313818693538" lon="3.2388028159030413"><ele>353.5</ele><time>2026-03-17T13:23:26Z</time></trkpt><trkpt lat="43.60318524628622" lon="3.2386149103750625"><ele>355.75</ele><time>2026-03-17T13:23:27Z</time></trkpt><trkpt lat="43.60322404236697" lon="3.2384520582857235"><ele>358.0</ele><time>2026-03-17T13:23:28Z</time></trkpt><trkpt lat="43.60326991247002" lon="3.23831396265024"><ele>358.0</ele><time>2026-03-17T13:23:29Z</time></trkpt><trkpt lat="43.603335500689816" lon="3.2381635793709087"><ele>358.0</ele><time>2026-03-17T13:23:30Z</time></trkpt><trkpt lat="43.60341376577793" lon="3.2380172401720553"><ele>358.0</ele><time>2026-03-17T13:23:31Z</time></trkpt><trkpt lat="43.60350184737206" lon="3.237869948910788"><ele>358.0</ele><time>2026-03-17T13:23:32Z</time></trkpt><trkpt lat="43.60358035422948" lon="3.237747270025637"><ele>357.79999999999995</ele><time>2026-03-17T13:23:33Z</time></trkpt><trkpt lat="43.60365631376158" lon="3.2376426043421294"><ele>357.6</ele><time>2026-03-17T13:23:34Z</time></trkpt><trkpt lat="43.60373599663659" lon="3.237570562758163"><ele>357.4</ele><time>2026-03-17T13:23:35Z</time></trkpt><trkpt lat="43.60382080176234" lon="3.2375241868185696"><ele>357.20000000000005</ele><time>2026-03-17T13:23:36Z</time></trkpt><trkpt lat="43.60390822658569" lon="3.23751588137986"><ele>357.0</ele><time>2026-03-17T13:23:37Z</time></trkpt><trkpt lat="43.603988797451166" lon="3.2375460875293767"><ele>358.0</ele><time>2026-03-17T13:23:38Z</time></trkpt><trkpt lat="43.60408944846833" lon="3.237573221913034"><ele>359.0</ele><time>2026-03-17T13:23:39Z</time></trkpt><trkpt lat="43.60419285513291" lon="3.237601873817041"><ele>360.0</ele><time>2026-03-17T13:23:40Z</time></trkpt><trkpt lat="43.60429676452475" lon="3.2376144749850693"><ele>361.0</ele><time>2026-03-17T13:23:41Z</time></trkpt><trkpt lat="43.60439601361882" lon="3.2376253083109274"><ele>362.0</ele><time>2026-03-17T13:23:42Z</time></trkpt><trkpt lat="43.60448713445383" lon="3.237581566617426"><ele>360.6666666666667</ele><time>2026-03-17T13:23:43Z</time></trkpt><trkpt lat="43.60456339747728" lon="3.2375069562077154"><ele>359.33333333333337</ele><time>2026-03-17T13:23:44Z</time></trkpt><trkpt lat="43.60459872771247" lon="3.2373935017757045"><ele>358.0</ele><time>2026-03-17T13:23:45Z</time></trkpt><trkpt lat="43.60464799074769" lon="3.23731127200193"><ele>356.6666666666667</ele><time>2026-03-17T13:23:46Z</time></trkpt><trkpt lat="43.604717925003975" lon="3.2372324915938746"><ele>355.3333333333333</ele><time>2026-03-17T13:23:47Z</time></trkpt><trkpt lat="43.60481531227131" lon="3.2372256388438974"><ele>354.0</ele><time>2026-03-17T13:23:48Z</time></trkpt><trkpt lat="43.604914694159504" lon="3.2371947557496004"><ele>354.0</ele><time>2026-03-17T13:23:49Z</time></trkpt><trkpt lat="43.60502418421999" lon="3.237158489269518"><ele>354.0</ele><time>2026-03-17T13:23:50Z</time></trkpt><trkpt lat="43.60513106492714" lon="3.2371191359095057"><ele>354.0</ele><time>2026-03-17T13:23:51Z</time></trkpt><trkpt lat="43.60521068176677" lon="3.237063123890907"><ele>354.0</ele><time>2026-03-17T13:23:52Z</time></trkpt><trkpt lat="43.60529209323266" lon="3.2370449288207848"><ele>354.0</ele><time>2026-03-17T13:23:53Z</time></trkpt><trkpt lat="43.605369118661535" lon="3.2370659733931064"><ele>355.8333333333333</ele><time>2026-03-17T13:23:54Z</time></trkpt><trkpt lat="43.60544755725597" lon="3.2371025823135495"><ele>357.6666666666667</ele><time>2026-03-17T13:23:55Z</time></trkpt><trkpt lat="43.60552117327934" lon="3.2371333820526433"><ele>359.5</ele><time>2026-03-17T13:23:56Z</time></trkpt><trkpt lat="43.605584505577205" lon="3.237129580159214"><ele>361.33333333333337</ele><time>2026-03-17T13:23:57Z</time></trkpt><trkpt lat="43.605652927181346" lon="3.237097729190535"><ele>363.1666666666667</ele><time>2026-03-17T13:23:58Z</time></trkpt><trkpt lat="43.60572823593642" lon="3.237058798202837"><ele>365.0</ele><time>2026-03-17T13:23:59Z</time></trkpt><trkpt lat="43.60576726717474" lon="3.2369488289311916"><ele>365.0</ele><time>2026-03-17T13:24:00Z</time></trkpt><trkpt lat="43.60580801343245" lon="3.236846000780515"><ele>365.0</ele><time>2026-03-17T13:24:01Z</time></trkpt><trkpt lat="43.60585176200282" lon="3.236710880015062"><ele>365.0</ele><time>2026-03-17T13:24:02Z</time></trkpt><trkpt lat="43.605908878888016" lon="3.236588211218165"><ele>365.0</ele><time>2026-03-17T13:24:03Z</time></trkpt><trkpt lat="43.60597956696857" lon="3.2364699432599022"><ele>365.0</ele><time>2026-03-17T13:24:04Z</time></trkpt><trkpt lat="43.606061923033174" lon="3.2363683977401503"><ele>365.4</ele><time>2026-03-17T13:24:05Z</time></trkpt><trkpt lat="43.606140950668795" lon="3.2362881131542784"><ele>365.8</ele><time>2026-03-17T13:24:06Z</time></trkpt><trkpt lat="43.606224956358616" lon="3.2362282016542876"><ele>366.20000000000005</ele><time>2026-03-17T13:24:07Z</time></trkpt><trkpt lat="43.6063223384391" lon="3.23619283708839"><ele>366.6</ele><time>2026-03-17T13:24:08Z</time></trkpt><trkpt lat="43.60642027699397" lon="3.236155457990354"><ele>367.0</ele><time>2026-03-17T13:24:09Z</time></trkpt><trkpt lat="43.60651151667288" lon="3.2361072641664546"><ele>367.0</ele><time>2026-03-17T13:24:10Z</time></trkpt><trkpt lat="43.60660373703467" lon="3.236058114053047"><ele>367.0</ele><time>2026-03-17T13:24:11Z</time></trkpt><trkpt lat="43.60667823973863" lon="3.23596928695869"><ele>367.0</ele><time>2026-03-17T13:24:12Z</time></trkpt><trkpt lat="43.60674934107749" lon="3.2358809138865237"><ele>367.0</ele><time>2026-03-17T13:24:13Z</time></trkpt><trkpt lat="43.60681091313883" lon="3.2357922452956585"><ele>367.0</ele><time>2026-03-17T13:24:14Z</time></trkpt><trkpt lat="43.60683469852285" lon="3.2356886532622817"><ele>366.0</ele><time>2026-03-17T13:24:15Z</time></trkpt><trkpt lat="43.60686453475818" lon="3.235594467084899"><ele>365.0</ele><time>2026-03-17T13:24:16Z</time></trkpt><trkpt lat="43.60688177652889" lon="3.235494279411336"><ele>364.0</ele><time>2026-03-17T13:24:17Z</time></trkpt><trkpt lat="43.60689333906875" lon="3.235388441766851"><ele>363.0</ele><time>2026-03-17T13:24:18Z</time></trkpt><trkpt lat="43.60689837608898" lon="3.2352822836447426"><ele>362.0</ele><time>2026-03-17T13:24:19Z</time></trkpt><trkpt lat="43.60689617953845" lon="3.235172451461085"><ele>361.0</ele><time>2026-03-17T13:24:20Z</time></trkpt><trkpt lat="43.606891117797964" lon="3.2350637017808515"><ele>361.0</ele><time>2026-03-17T13:24:21Z</time></trkpt><trkpt lat="43.60690986552709" lon="3.234955310674802"><ele>361.0</ele><time>2026-03-17T13:24:22Z</time></trkpt><trkpt lat="43.60691650348327" lon="3.2348504095846486"><ele>361.0</ele><time>2026-03-17T13:24:23Z</time></trkpt><trkpt lat="43.60692802274209" lon="3.2347556529533428"><ele>361.0</ele><time>2026-03-17T13:24:24Z</time></trkpt><trkpt lat="43.606947680272725" lon="3.234660786234944"><ele>361.0</ele><time>2026-03-17T13:24:25Z</time></trkpt><trkpt lat="43.60697957756795" lon="3.2345740482183296"><ele>361.0</ele><time>2026-03-17T13:24:26Z</time></trkpt><trkpt lat="43.60701201049923" lon="3.2344882285486363"><ele>361.0</ele><time>2026-03-17T13:24:27Z</time></trkpt><trkpt lat="43.607036831271884" lon="3.23439931828021"><ele>360.8571428571429</ele><time>2026-03-17T13:24:28Z</time></trkpt><trkpt lat="43.60707965198944" lon="3.234327635013969"><ele>360.71428571428567</ele><time>2026-03-17T13:24:29Z</time></trkpt><trkpt lat="43.60713669899127" lon="3.2342801296000925"><ele>360.57142857142856</ele><time>2026-03-17T13:24:30Z</time></trkpt><trkpt lat="43.607168389764084" lon="3.2341961395481844"><ele>360.42857142857144</ele><time>2026-03-17T13:24:31Z</time></trkpt><trkpt lat="43.6072133096992" lon="3.234126952528035"><ele>360.28571428571433</ele><time>2026-03-17T13:24:32Z</time></trkpt><trkpt lat="43.60726664784029" lon="3.2340622754264787"><ele>360.1428571428571</ele><time>2026-03-17T13:24:33Z</time></trkpt><trkpt lat="43.60728907834533" lon="3.2339546568379345"><ele>360.0</ele><time>2026-03-17T13:24:34Z</time></trkpt><trkpt lat="43.60732235856226" lon="3.233855515736072"><ele>360.0</ele><time>2026-03-17T13:24:35Z</time></trkpt><trkpt lat="43.60735231762661" lon="3.2337396289285962"><ele>360.0</ele><time>2026-03-17T13:24:36Z</time></trkpt><trkpt lat="43.607395926362365" lon="3.233634156092966"><ele>360.0</ele><time>2026-03-17T13:24:37Z</time></trkpt><trkpt lat="43.60741949591916" lon="3.2335347109484593"><ele>360.0</ele><time>2026-03-17T13:24:38Z</time></trkpt><trkpt lat="43.60743774506735" lon="3.2334396047624487"><ele>360.0</ele><time>2026-03-17T13:24:39Z</time></trkpt><trkpt lat="43.607442388239754" lon="3.2333235863581042"><ele>360.0</ele><time>2026-03-17T13:24:40Z</time></trkpt><trkpt lat="43.60741290950742" lon="3.233220947703708"><ele>360.0</ele><time>2026-03-17T13:24:41Z</time></trkpt><trkpt lat="43.60739597734044" lon="3.2331147829985083"><ele>360.0</ele><time>2026-03-17T13:24:42Z</time></trkpt><trkpt lat="43.60737653490252" lon="3.233010490868718"><ele>360.0</ele><time>2026-03-17T13:24:43Z</time></trkpt><trkpt lat="43.60735526942202" lon="3.232907401164307"><ele>360.0</ele><time>2026-03-17T13:24:44Z</time></trkpt><trkpt lat="43.607335131424435" lon="3.2328014918603687"><ele>360.0</ele><time>2026-03-17T13:24:45Z</time></trkpt><trkpt lat="43.6073130611673" lon="3.232712024796845"><ele>360.0</ele><time>2026-03-17T13:24:46Z</time></trkpt><trkpt lat="43.60729121449116" lon="3.2325746431840128"><ele>360.0</ele><time>2026-03-17T13:24:48Z</time></trkpt><trkpt lat="43.60729359167035" lon="3.2324876025191482"><ele>360.0</ele><time>2026-03-17T13:24:55Z</time></trkpt><trkpt lat="43.60725910079883" lon="3.232356740865428"><ele>360.0</ele><time>2026-03-17T13:27:41Z</time></trkpt><trkpt lat="43.60727268412415" lon="3.232179858239492"><ele>360.0</ele><time>2026-03-17T13:27:43Z</time></trkpt><trkpt lat="43.60727116366102" lon="3.232067284324996"><ele>360.0</ele><time>2026-03-17T13:27:44Z</time></trkpt><trkpt lat="43.607282313043825" lon="3.2319465149863684"><ele>359.6666666666667</ele><time>2026-03-17T13:27:45Z</time></trkpt><trkpt lat="43.60726413525079" lon="3.231805771702812"><ele>359.3333333333333</ele><time>2026-03-17T13:27:47Z</time></trkpt><trkpt lat="43.60730477466014" lon="3.2317355813219537"><ele>359.0</ele><time>2026-03-17T13:27:49Z</time></trkpt><trkpt lat="43.60738379621144" lon="3.231666445400294"><ele>358.66666666666663</ele><time>2026-03-17T13:27:51Z</time></trkpt><trkpt lat="43.607446609760366" lon="3.231645609354772"><ele>358.3333333333333</ele><time>2026-03-17T13:27:52Z</time></trkpt><trkpt lat="43.607517841436035" lon="3.231606479019487"><ele>358.0</ele><time>2026-03-17T13:27:53Z</time></trkpt><trkpt lat="43.607585835574355" lon="3.2315958239369014"><ele>358.0</ele><time>2026-03-17T13:27:54Z</time></trkpt><trkpt lat="43.60765754993557" lon="3.2315126197008603"><ele>358.0</ele><time>2026-03-17T13:27:55Z</time></trkpt><trkpt lat="43.607734127363464" lon="3.2314790706785534"><ele>358.0</ele><time>2026-03-17T13:27:56Z</time></trkpt><trkpt lat="43.60777442964621" lon="3.231364607143662"><ele>358.0</ele><time>2026-03-17T13:27:57Z</time></trkpt><trkpt lat="43.60781293977212" lon="3.231266363766325"><ele>358.0</ele><time>2026-03-17T13:27:58Z</time></trkpt><trkpt lat="43.60787364252652" lon="3.231176762730137"><ele>358.0</ele><time>2026-03-17T13:27:59Z</time></trkpt><trkpt lat="43.60794244418536" lon="3.231076432943708"><ele>358.79999999999995</ele><time>2026-03-17T13:28:00Z</time></trkpt><trkpt lat="43.60801882419974" lon="3.2310067190541725"><ele>359.6</ele><time>2026-03-17T13:28:01Z</time></trkpt><trkpt lat="43.6080955051222" lon="3.2309098133386907"><ele>360.4</ele><time>2026-03-17T13:28:02Z</time></trkpt><trkpt lat="43.6081713196162" lon="3.2307856160856137"><ele>361.20000000000005</ele><time>2026-03-17T13:28:03Z</time></trkpt><trkpt lat="43.60823143247935" lon="3.230636862709435"><ele>362.0</ele><time>2026-03-17T13:28:04Z</time></trkpt><trkpt lat="43.608314960484954" lon="3.230492607139946"><ele>362.0</ele><time>2026-03-17T13:28:05Z</time></trkpt><trkpt lat="43.60841651752964" lon="3.2303565943359995"><ele>362.0</ele><time>2026-03-17T13:28:06Z</time></trkpt><trkpt lat="43.60850983732813" lon="3.2302198321850475"><ele>362.0</ele><time>2026-03-17T13:28:07Z</time></trkpt><trkpt lat="43.608601725293084" lon="3.230076816552451"><ele>362.0</ele><time>2026-03-17T13:28:08Z</time></trkpt><trkpt lat="43.60871221290736" lon="3.2299610547974735"><ele>364.0</ele><time>2026-03-17T13:28:09Z</time></trkpt><trkpt lat="43.60882680833234" lon="3.2298477495315723"><ele>366.0</ele><time>2026-03-17T13:28:10Z</time></trkpt><trkpt lat="43.608955583543306" lon="3.2297319021069044"><ele>368.0</ele><time>2026-03-17T13:28:11Z</time></trkpt><trkpt lat="43.60906089933336" lon="3.2296227864004026"><ele>370.0</ele><time>2026-03-17T13:28:12Z</time></trkpt><trkpt lat="43.60914209883739" lon="3.2295342734030132"><ele>370.0</ele><time>2026-03-17T13:28:13Z</time></trkpt><trkpt lat="43.60920160070202" lon="3.229403081975456"><ele>370.0</ele><time>2026-03-17T13:28:14Z</time></trkpt><trkpt lat="43.60926038454105" lon="3.2292497724848546"><ele>370.0</ele><time>2026-03-17T13:28:15Z</time></trkpt><trkpt lat="43.609321772453335" lon="3.2290927396166604"><ele>370.0</ele><time>2026-03-17T13:28:16Z</time></trkpt><trkpt lat="43.60939723950061" lon="3.228922123909552"><ele>368.75</ele><time>2026-03-17T13:28:16.999Z</time></trkpt><trkpt lat="43.60946624916592" lon="3.2287302458920824"><ele>367.5</ele><time>2026-03-17T13:28:17.999Z</time></trkpt><trkpt lat="43.60951459974721" lon="3.2285420733920023"><ele>366.25</ele><time>2026-03-17T13:28:18.999Z</time></trkpt><trkpt lat="43.60956899948245" lon="3.2283759952706346"><ele>365.0</ele><time>2026-03-17T13:28:19.999Z</time></trkpt><trkpt lat="43.60961130617196" lon="3.228234197027805"><ele>366.2</ele><time>2026-03-17T13:28:20.999Z</time></trkpt><trkpt lat="43.609651502515554" lon="3.2280881654804063"><ele>367.4</ele><time>2026-03-17T13:28:21.999Z</time></trkpt><trkpt lat="43.609688396518756" lon="3.2279808160404646"><ele>368.6</ele><time>2026-03-17T13:28:22.999Z</time></trkpt><trkpt lat="43.60973970743647" lon="3.227883837700528"><ele>369.8</ele><time>2026-03-17T13:28:23.999Z</time></trkpt><trkpt lat="43.60980273544541" lon="3.2278105076512182"><ele>371.0</ele><time>2026-03-17T13:28:24.999Z</time></trkpt><trkpt lat="43.60987468375113" lon="3.2277533314905416"><ele>371.0</ele><time>2026-03-17T13:28:25.999Z</time></trkpt><trkpt lat="43.60995600828187" lon="3.2277170458767506"><ele>371.0</ele><time>2026-03-17T13:28:26.999Z</time></trkpt><trkpt lat="43.610063809476735" lon="3.2276898590051806"><ele>371.0</ele><time>2026-03-17T13:28:27.999Z</time></trkpt><trkpt lat="43.610184875740444" lon="3.227665757576461"><ele>371.0</ele><time>2026-03-17T13:28:28.999Z</time></trkpt><trkpt lat="43.61036632847454" lon="3.2276335117996617"><ele>371.75</ele><time>2026-03-17T13:28:29.999Z</time></trkpt><trkpt lat="43.61048857275564" lon="3.2276336687743807"><ele>372.5</ele><time>2026-03-17T13:28:30.999Z</time></trkpt><trkpt lat="43.61063935759413" lon="3.227601330738581"><ele>373.25</ele><time>2026-03-17T13:28:32Z</time></trkpt><trkpt lat="43.6107886342082" lon="3.2275823953386276"><ele>374.0</ele><time>2026-03-17T13:28:33Z</time></trkpt><trkpt lat="43.61093942963273" lon="3.227570174254892"><ele>374.0</ele><time>2026-03-17T13:28:34Z</time></trkpt><trkpt lat="43.61107444759714" lon="3.227570780626053"><ele>374.0</ele><time>2026-03-17T13:28:35Z</time></trkpt><trkpt lat="43.61119760583534" lon="3.2275823866794076"><ele>374.0</ele><time>2026-03-17T13:28:36Z</time></trkpt><trkpt lat="43.61131493124869" lon="3.227601234744534"><ele>374.0</ele><time>2026-03-17T13:28:37Z</time></trkpt><trkpt lat="43.611431610743146" lon="3.227642294770148"><ele>374.25</ele><time>2026-03-17T13:28:38Z</time></trkpt><trkpt lat="43.611555628831674" lon="3.2277075389764796"><ele>374.5</ele><time>2026-03-17T13:28:39Z</time></trkpt><trkpt lat="43.61169124008382" lon="3.2277861729262267"><ele>374.75</ele><time>2026-03-17T13:28:40Z</time></trkpt><trkpt lat="43.61183812145799" lon="3.227873319851754"><ele>375.0</ele><time>2026-03-17T13:28:41Z</time></trkpt><trkpt lat="43.611998002455856" lon="3.2279676839321256"><ele>375.0</ele><time>2026-03-17T13:28:42Z</time></trkpt><trkpt lat="43.61215899303391" lon="3.228064771912752"><ele>375.0</ele><time>2026-03-17T13:28:43Z</time></trkpt><trkpt lat="43.61230613647571" lon="3.2281536397381387"><ele>375.0</ele><time>2026-03-17T13:28:44Z</time></trkpt><trkpt lat="43.6124373788452" lon="3.228236252786458"><ele>376.2</ele><time>2026-03-17T13:28:45Z</time></trkpt><trkpt lat="43.612562890797555" lon="3.2283117717754237"><ele>377.4</ele><time>2026-03-17T13:28:46Z</time></trkpt><trkpt lat="43.61266887327003" lon="3.2283778592779155"><ele>378.6</ele><time>2026-03-17T13:28:47Z</time></trkpt><trkpt lat="43.61275264126319" lon="3.2284409143572033"><ele>379.8</ele><time>2026-03-17T13:28:48Z</time></trkpt><trkpt lat="43.61283125947474" lon="3.2284943428524477"><ele>381.0</ele><time>2026-03-17T13:28:49Z</time></trkpt><trkpt lat="43.61289515199709" lon="3.2285295337702316"><ele>381.3333333333333</ele><time>2026-03-17T13:28:50Z</time></trkpt><trkpt lat="43.61301650923469" lon="3.228523955717759"><ele>381.6666666666667</ele><time>2026-03-17T13:28:52Z</time></trkpt><trkpt lat="43.6130804853949" lon="3.2285383792669955"><ele>382.0</ele><time>2026-03-17T13:28:53Z</time></trkpt><trkpt lat="43.613167484641416" lon="3.2285347279999246"><ele>382.33333333333337</ele><time>2026-03-17T13:28:54Z</time></trkpt><trkpt lat="43.61325155297635" lon="3.2285310874200275"><ele>382.6666666666667</ele><time>2026-03-17T13:28:55Z</time></trkpt><trkpt lat="43.613343023287705" lon="3.2285245871372035"><ele>383.0</ele><time>2026-03-17T13:28:56Z</time></trkpt><trkpt lat="43.613434212980856" lon="3.228518422147335"><ele>383.0</ele><time>2026-03-17T13:28:57Z</time></trkpt><trkpt lat="43.61353030517019" lon="3.228512234001437"><ele>383.0</ele><time>2026-03-17T13:28:58Z</time></trkpt><trkpt lat="43.61360766313877" lon="3.228501754960965"><ele>383.0</ele><time>2026-03-17T13:28:59Z</time></trkpt><trkpt lat="43.6136737087231" lon="3.228469263520264"><ele>383.0</ele><time>2026-03-17T13:29:00Z</time></trkpt><trkpt lat="43.61372759376628" lon="3.228408665075697"><ele>383.0</ele><time>2026-03-17T13:29:01Z</time></trkpt><trkpt lat="43.613787296234676" lon="3.2283525935178843"><ele>383.0</ele><time>2026-03-17T13:29:02Z</time></trkpt><trkpt lat="43.613842929197894" lon="3.228293536550556"><ele>383.6666666666667</ele><time>2026-03-17T13:29:03Z</time></trkpt><trkpt lat="43.61390436358122" lon="3.2282354551157266"><ele>384.33333333333337</ele><time>2026-03-17T13:29:04Z</time></trkpt><trkpt lat="43.61396811259432" lon="3.228149109850088"><ele>385.0</ele><time>2026-03-17T13:29:06Z</time></trkpt><trkpt lat="43.61402145169037" lon="3.228085375864666"><ele>385.6666666666667</ele><time>2026-03-17T13:29:09Z</time></trkpt><trkpt lat="43.61396996200727" lon="3.228010195535751"><ele>386.3333333333333</ele><time>2026-03-17T13:29:54Z</time></trkpt><trkpt lat="43.61407007469717" lon="3.227971351422226"><ele>387.0</ele><time>2026-03-17T13:30:27.999Z</time></trkpt><trkpt lat="43.61415206260255" lon="3.227967248168756"><ele>387.0</ele><time>2026-03-17T13:30:29.999Z</time></trkpt><trkpt lat="43.61422472055651" lon="3.228044030802141"><ele>387.0</ele><time>2026-03-17T13:30:31.999Z</time></trkpt><trkpt lat="43.61425179511873" lon="3.2281601978458587"><ele>387.0</ele><time>2026-03-17T13:30:33.999Z</time></trkpt><trkpt lat="43.61431318924013" lon="3.228304970610945"><ele>387.0</ele><time>2026-03-17T13:30:35.999Z</time></trkpt><trkpt lat="43.614356716247386" lon="3.228373060777823"><ele>387.0</ele><time>2026-03-17T13:30:36.999Z</time></trkpt><trkpt lat="43.614407788643" lon="3.228430626238899"><ele>387.0</ele><time>2026-03-17T13:30:38Z</time></trkpt><trkpt lat="43.61446499192406" lon="3.228489774629964"><ele>388.40000000000003</ele><time>2026-03-17T13:30:39Z</time></trkpt><trkpt lat="43.61452088009955" lon="3.228543687632391"><ele>389.8</ele><time>2026-03-17T13:30:40Z</time></trkpt><trkpt lat="43.614574605714346" lon="3.228620496317672"><ele>391.2</ele><time>2026-03-17T13:30:41Z</time></trkpt><trkpt lat="43.61465950954953" lon="3.2286658728972806"><ele>392.6</ele><time>2026-03-17T13:30:42Z</time></trkpt><trkpt lat="43.61475224363749" lon="3.2287345705688537"><ele>394.0</ele><time>2026-03-17T13:30:43Z</time></trkpt><trkpt lat="43.61484303745313" lon="3.2288300204960487"><ele>394.0</ele><time>2026-03-17T13:30:44Z</time></trkpt><trkpt lat="43.61492498513568" lon="3.228958561819468"><ele>394.0</ele><time>2026-03-17T13:30:45Z</time></trkpt><trkpt lat="43.61501022389346" lon="3.229055484314019"><ele>394.0</ele><time>2026-03-17T13:30:46Z</time></trkpt><trkpt lat="43.61508731065972" lon="3.2291355669802493"><ele>394.0</ele><time>2026-03-17T13:30:47Z</time></trkpt><trkpt lat="43.615163693755036" lon="3.2292080989721326"><ele>394.0</ele><time>2026-03-17T13:30:48Z</time></trkpt><trkpt lat="43.61523338682571" lon="3.2292874716540507"><ele>394.6</ele><time>2026-03-17T13:30:49Z</time></trkpt><trkpt lat="43.61531009197672" lon="3.229379721083318"><ele>395.2</ele><time>2026-03-17T13:30:50Z</time></trkpt><trkpt lat="43.61538487828469" lon="3.229473040276038"><ele>395.8</ele><time>2026-03-17T13:30:51Z</time></trkpt><trkpt lat="43.615461312380745" lon="3.229561364030342"><ele>396.40000000000003</ele><time>2026-03-17T13:30:52Z</time></trkpt><trkpt lat="43.61554634200626" lon="3.2296374005485937"><ele>397.0</ele><time>2026-03-17T13:30:53Z</time></trkpt><trkpt lat="43.61565297559135" lon="3.229696166323553"><ele>397.0</ele><time>2026-03-17T13:30:54Z</time></trkpt><trkpt lat="43.615755457532146" lon="3.229746736574541"><ele>397.0</ele><time>2026-03-17T13:30:55Z</time></trkpt><trkpt lat="43.61585104882713" lon="3.2298117545384426"><ele>397.0</ele><time>2026-03-17T13:30:56Z</time></trkpt><trkpt lat="43.61594366723209" lon="3.2298714528193915"><ele>397.0</ele><time>2026-03-17T13:30:57Z</time></trkpt><trkpt lat="43.616068600912904" lon="3.229931734724245"><ele>399.0</ele><time>2026-03-17T13:30:58Z</time></trkpt><trkpt lat="43.61617048848793" lon="3.230014615398689"><ele>401.0</ele><time>2026-03-17T13:30:59Z</time></trkpt><trkpt lat="43.616281242572875" lon="3.2300817020998953"><ele>403.0</ele><time>2026-03-17T13:31:00Z</time></trkpt><trkpt lat="43.61638062341707" lon="3.2301438685224912"><ele>405.0</ele><time>2026-03-17T13:31:01Z</time></trkpt><trkpt lat="43.616477462374846" lon="3.230209640340755"><ele>405.0</ele><time>2026-03-17T13:31:02Z</time></trkpt><trkpt lat="43.616580300547696" lon="3.230283425787366"><ele>405.0</ele><time>2026-03-17T13:31:03Z</time></trkpt><trkpt lat="43.61668083202891" lon="3.2303451341635396"><ele>405.0</ele><time>2026-03-17T13:31:04Z</time></trkpt><trkpt lat="43.61676794044158" lon="3.230405525908558"><ele>405.0</ele><time>2026-03-17T13:31:05Z</time></trkpt><trkpt lat="43.61685731163435" lon="3.2304529185820106"><ele>405.0</ele><time>2026-03-17T13:31:06Z</time></trkpt><trkpt lat="43.61694223689816" lon="3.230490925058725"><ele>407.2</ele><time>2026-03-17T13:31:07Z</time></trkpt><trkpt lat="43.617022738500474" lon="3.2305065482850432"><ele>409.4</ele><time>2026-03-17T13:31:08Z</time></trkpt><trkpt lat="43.6171043075323" lon="3.2305261606613462"><ele>411.6</ele><time>2026-03-17T13:31:09Z</time></trkpt><trkpt lat="43.61719395283126" lon="3.2305175842683345"><ele>413.8</ele><time>2026-03-17T13:31:10Z</time></trkpt><trkpt lat="43.61729852806764" lon="3.230511023171975"><ele>416.0</ele><time>2026-03-17T13:31:11Z</time></trkpt><trkpt lat="43.617401746870456" lon="3.2305253786922394"><ele>416.0</ele><time>2026-03-17T13:31:12Z</time></trkpt><trkpt lat="43.61749158999378" lon="3.2305229671508386"><ele>416.0</ele><time>2026-03-17T13:31:13Z</time></trkpt><trkpt lat="43.61758010423539" lon="3.230520747362821"><ele>416.0</ele><time>2026-03-17T13:31:14Z</time></trkpt><trkpt lat="43.61767023526596" lon="3.2305189447482316"><ele>416.0</ele><time>2026-03-17T13:31:15Z</time></trkpt><trkpt lat="43.617811256029924" lon="3.2305207603071353"><ele>416.0</ele><time>2026-03-17T13:31:16Z</time></trkpt><trkpt lat="43.617925875171196" lon="3.2305244040461885"><ele>418.0</ele><time>2026-03-17T13:31:17Z</time></trkpt><trkpt lat="43.61805087192618" lon="3.2305333248553745"><ele>420.0</ele><time>2026-03-17T13:31:18Z</time></trkpt><trkpt lat="43.61813564862326" lon="3.2305394820376967"><ele>422.0</ele><time>2026-03-17T13:31:19Z</time></trkpt><trkpt lat="43.61821195584528" lon="3.2305481807611183"><ele>424.0</ele><time>2026-03-17T13:31:20Z</time></trkpt><trkpt lat="43.61834286226828" lon="3.230570147275213"><ele>426.0</ele><time>2026-03-17T13:31:21Z</time></trkpt><trkpt lat="43.61847185401776" lon="3.2305962831421646"><ele>426.0</ele><time>2026-03-17T13:31:22Z</time></trkpt><trkpt lat="43.61857835679779" lon="3.230617862321216"><ele>426.0</ele><time>2026-03-17T13:31:23Z</time></trkpt><trkpt lat="43.6186779500424" lon="3.230614560807252"><ele>426.0</ele><time>2026-03-17T13:31:24Z</time></trkpt><trkpt lat="43.61876345717129" lon="3.2306382237897355"><ele>426.0</ele><time>2026-03-17T13:31:25Z</time></trkpt><trkpt lat="43.61886917115504" lon="3.2306526632499653"><ele>426.0</ele><time>2026-03-17T13:31:26Z</time></trkpt><trkpt lat="43.61895042839239" lon="3.230646123523262"><ele>428.0</ele><time>2026-03-17T13:31:27Z</time></trkpt><trkpt lat="43.61902546182529" lon="3.230635393068831"><ele>430.0</ele><time>2026-03-17T13:31:28Z</time></trkpt><trkpt lat="43.619115685864244" lon="3.230610385344261"><ele>432.0</ele><time>2026-03-17T13:31:29Z</time></trkpt><trkpt lat="43.61924644621474" lon="3.230602928672732"><ele>434.0</ele><time>2026-03-17T13:31:30Z</time></trkpt><trkpt lat="43.619353561154036" lon="3.23061198113805"><ele>436.0</ele><time>2026-03-17T13:31:31Z</time></trkpt><trkpt lat="43.61947230135733" lon="3.230615867599223"><ele>437.20000000000005</ele><time>2026-03-17T13:31:32Z</time></trkpt><trkpt lat="43.61957330750962" lon="3.2306046341744823"><ele>438.40000000000003</ele><time>2026-03-17T13:31:33Z</time></trkpt><trkpt lat="43.61966417550717" lon="3.2305873466957418"><ele>439.6</ele><time>2026-03-17T13:31:34Z</time></trkpt><trkpt lat="43.6197861337346" lon="3.2305733632255103"><ele>440.8</ele><time>2026-03-17T13:31:35Z</time></trkpt><trkpt lat="43.61987402490132" lon="3.2305493980933795"><ele>442.0</ele><time>2026-03-17T13:31:36Z</time></trkpt><trkpt lat="43.61997011516081" lon="3.2304764064064444"><ele>442.0</ele><time>2026-03-17T13:31:37Z</time></trkpt><trkpt lat="43.62008045227714" lon="3.2304347264678257"><ele>442.0</ele><time>2026-03-17T13:31:38Z</time></trkpt><trkpt lat="43.62018562590696" lon="3.230373215129749"><ele>442.0</ele><time>2026-03-17T13:31:39Z</time></trkpt><trkpt lat="43.620282508532185" lon="3.2302891887655787"><ele>442.0</ele><time>2026-03-17T13:31:40Z</time></trkpt><trkpt lat="43.620402863674364" lon="3.2302376420362853"><ele>442.8</ele><time>2026-03-17T13:31:41Z</time></trkpt><trkpt lat="43.62050818920458" lon="3.230216003100798"><ele>443.6</ele><time>2026-03-17T13:31:42Z</time></trkpt><trkpt lat="43.620614132191356" lon="3.230206687951752"><ele>444.40000000000003</ele><time>2026-03-17T13:31:43Z</time></trkpt><trkpt lat="43.62071093790097" lon="3.2302234964307956"><ele>445.20000000000005</ele><time>2026-03-17T13:31:44Z</time></trkpt><trkpt lat="43.62080574262936" lon="3.230259105351041"><ele>446.0</ele><time>2026-03-17T13:31:45Z</time></trkpt><trkpt lat="43.62089551433979" lon="3.2303324338165393"><ele>446.0</ele><time>2026-03-17T13:31:46Z</time></trkpt><trkpt lat="43.62097897624402" lon="3.230400616972227"><ele>446.0</ele><time>2026-03-17T13:31:47Z</time></trkpt><trkpt lat="43.6210746217574" lon="3.2304765321222173"><ele>446.0</ele><time>2026-03-17T13:31:48Z</time></trkpt><trkpt lat="43.62117873803841" lon="3.23055917075728"><ele>446.0</ele><time>2026-03-17T13:31:49Z</time></trkpt><trkpt lat="43.62127490292494" lon="3.230630112003019"><ele>446.0</ele><time>2026-03-17T13:31:50Z</time></trkpt><trkpt lat="43.62136850168088" lon="3.230727645725397"><ele>446.0</ele><time>2026-03-17T13:31:51Z</time></trkpt><trkpt lat="43.62147111381702" lon="3.2308285141861584"><ele>446.0</ele><time>2026-03-17T13:31:52Z</time></trkpt><trkpt lat="43.621577751495515" lon="3.2309168200846687"><ele>446.0</ele><time>2026-03-17T13:31:53Z</time></trkpt><trkpt lat="43.6217018968303" lon="3.2310180435898492"><ele>446.0</ele><time>2026-03-17T13:31:54Z</time></trkpt><trkpt lat="43.621820105330634" lon="3.2311253242569706"><ele>446.0</ele><time>2026-03-17T13:31:55Z</time></trkpt><trkpt lat="43.621920460818735" lon="3.231215997961622"><ele>446.0</ele><time>2026-03-17T13:31:56Z</time></trkpt><trkpt lat="43.622016328695096" lon="3.231297153055919"><ele>446.0</ele><time>2026-03-17T13:31:57Z</time></trkpt><trkpt lat="43.62209362966517" lon="3.2313785025126522"><ele>446.0</ele><time>2026-03-17T13:31:58Z</time></trkpt><trkpt lat="43.622170346293316" lon="3.231455643387736"><ele>446.0</ele><time>2026-03-17T13:31:59Z</time></trkpt><trkpt lat="43.622246504324465" lon="3.231534614754478"><ele>444.8333333333333</ele><time>2026-03-17T13:32:00Z</time></trkpt><trkpt lat="43.622315125143366" lon="3.231598494877323"><ele>443.66666666666663</ele><time>2026-03-17T13:32:01Z</time></trkpt><trkpt lat="43.62236913097673" lon="3.2316723241490477"><ele>442.5</ele><time>2026-03-17T13:32:02Z</time></trkpt><trkpt lat="43.62242130126046" lon="3.2317685243028884"><ele>441.33333333333337</ele><time>2026-03-17T13:32:03Z</time></trkpt><trkpt lat="43.622457801174995" lon="3.231865621800193"><ele>440.1666666666667</ele><time>2026-03-17T13:32:04Z</time></trkpt><trkpt lat="43.62249548754464" lon="3.2319794127491357"><ele>439.0</ele><time>2026-03-17T13:32:05Z</time></trkpt><trkpt lat="43.62253595009317" lon="3.2321080883116617"><ele>439.00000000000006</ele><time>2026-03-17T13:32:06Z</time></trkpt><trkpt lat="43.62256396270951" lon="3.23223836858475"><ele>439.0</ele><time>2026-03-17T13:32:07Z</time></trkpt><trkpt lat="43.6225805336971" lon="3.2323582545822696"><ele>439.0</ele><time>2026-03-17T13:32:08Z</time></trkpt><trkpt lat="43.622592871835145" lon="3.2324670836069536"><ele>439.0</ele><time>2026-03-17T13:32:09Z</time></trkpt><trkpt lat="43.62258132853166" lon="3.232583320010535"><ele>439.00000000000006</ele><time>2026-03-17T13:32:10Z</time></trkpt><trkpt lat="43.622559975919955" lon="3.232704966432354"><ele>439.0</ele><time>2026-03-17T13:32:11Z</time></trkpt><trkpt lat="43.62253053930926" lon="3.232836588266776"><ele>438.50000000000006</ele><time>2026-03-17T13:32:12Z</time></trkpt><trkpt lat="43.62250073503533" lon="3.232957979774578"><ele>438.0</ele><time>2026-03-17T13:32:13Z</time></trkpt><trkpt lat="43.62246390526868" lon="3.2330290650836613"><ele>437.5</ele><time>2026-03-17T13:32:13.999Z</time></trkpt><trkpt lat="43.622417946207726" lon="3.233126840637331"><ele>437.0</ele><time>2026-03-17T13:32:14.999Z</time></trkpt><trkpt lat="43.622356850534885" lon="3.233220869355539"><ele>436.50000000000006</ele><time>2026-03-17T13:32:15.999Z</time></trkpt><trkpt lat="43.622286584579435" lon="3.2333209562949072"><ele>436.0</ele><time>2026-03-17T13:32:16.999Z</time></trkpt><trkpt lat="43.622213697046035" lon="3.2334179367867146"><ele>434.6666666666667</ele><time>2026-03-17T13:32:17.999Z</time></trkpt><trkpt lat="43.622157178756225" lon="3.2334932666289076"><ele>433.33333333333337</ele><time>2026-03-17T13:32:18.999Z</time></trkpt><trkpt lat="43.62210257084618" lon="3.2335959645752417"><ele>432.0</ele><time>2026-03-17T13:32:20.999Z</time></trkpt><trkpt lat="43.622130155768616" lon="3.2337034490386443"><ele>430.66666666666663</ele><time>2026-03-17T13:32:22.999Z</time></trkpt><trkpt lat="43.62224072216132" lon="3.2337061523604094"><ele>429.3333333333333</ele><time>2026-03-17T13:32:24.999Z</time></trkpt><trkpt lat="43.622304365133715" lon="3.2336435634580107"><ele>428.0</ele><time>2026-03-17T13:32:25.999Z</time></trkpt><trkpt lat="43.62238193918033" lon="3.2335992735296997"><ele>428.0</ele><time>2026-03-17T13:32:26.999Z</time></trkpt><trkpt lat="43.622441989163306" lon="3.233542929007768"><ele>427.99999999999994</ele><time>2026-03-17T13:32:27.999Z</time></trkpt><trkpt lat="43.62256355602636" lon="3.23354311796974"><ele>427.99999999999994</ele><time>2026-03-17T13:32:29.999Z</time></trkpt><trkpt lat="43.622630959771584" lon="3.2336127807594606"><ele>428.0</ele><time>2026-03-17T13:32:30.999Z</time></trkpt><trkpt lat="43.62271415397828" lon="3.233660272071492"><ele>428.0</ele><time>2026-03-17T13:32:31.999Z</time></trkpt><trkpt lat="43.62280344536663" lon="3.233706675581378"><ele>425.79999999999995</ele><time>2026-03-17T13:32:32.999Z</time></trkpt><trkpt lat="43.622887919678035" lon="3.233758115988271"><ele>423.59999999999997</ele><time>2026-03-17T13:32:33.999Z</time></trkpt><trkpt lat="43.62298687789507" lon="3.233841465097866"><ele>421.4</ele><time>2026-03-17T13:32:35.999Z</time></trkpt><trkpt lat="43.623042165578894" lon="3.2338903447783465"><ele>419.20000000000005</ele><time>2026-03-17T13:32:37.999Z</time></trkpt><trkpt lat="43.62317224677862" lon="3.2338881455963984"><ele>417.0</ele><time>2026-03-17T13:32:44Z</time></trkpt><trkpt lat="43.6232400058247" lon="3.233813011258689"><ele>417.0</ele><time>2026-03-17T13:32:45Z</time></trkpt><trkpt lat="43.62330169197876" lon="3.2336979420017142"><ele>417.0</ele><time>2026-03-17T13:32:46Z</time></trkpt><trkpt lat="43.623370969251724" lon="3.2335296083884426"><ele>417.0</ele><time>2026-03-17T13:32:47Z</time></trkpt><trkpt lat="43.62344109061146" lon="3.2333701570368887"><ele>417.0</ele><time>2026-03-17T13:32:48Z</time></trkpt><trkpt lat="43.623532872500654" lon="3.2332049929929294"><ele>416.0</ele><time>2026-03-17T13:32:49Z</time></trkpt><trkpt lat="43.623651608251684" lon="3.233026951891586"><ele>415.0</ele><time>2026-03-17T13:32:50Z</time></trkpt><trkpt lat="43.62379206512402" lon="3.2328826931446146"><ele>414.0</ele><time>2026-03-17T13:32:51Z</time></trkpt><trkpt lat="43.623946235389035" lon="3.2327202718242654"><ele>414.0</ele><time>2026-03-17T13:32:52Z</time></trkpt><trkpt lat="43.62413343752852" lon="3.2325533564608873"><ele>414.0</ele><time>2026-03-17T13:32:53Z</time></trkpt><trkpt lat="43.62432265825238" lon="3.2323893886074386"><ele>414.0</ele><time>2026-03-17T13:32:54Z</time></trkpt><trkpt lat="43.6245089882418" lon="3.2322149634595396"><ele>409.5</ele><time>2026-03-17T13:32:55Z</time></trkpt><trkpt lat="43.62470600655552" lon="3.232034357908902"><ele>405.0</ele><time>2026-03-17T13:32:56Z</time></trkpt><trkpt lat="43.624903464534086" lon="3.231849957256107"><ele>405.0</ele><time>2026-03-17T13:32:57Z</time></trkpt><trkpt lat="43.625098987822625" lon="3.2316615081529334"><ele>405.0</ele><time>2026-03-17T13:32:58Z</time></trkpt><trkpt lat="43.62530480288316" lon="3.2315012050633802"><ele>403.0</ele><time>2026-03-17T13:32:59Z</time></trkpt><trkpt lat="43.62547736280932" lon="3.2313118721598935"><ele>401.0</ele><time>2026-03-17T13:33:00Z</time></trkpt><trkpt lat="43.62560917526013" lon="3.2310716489652402"><ele>399.0</ele><time>2026-03-17T13:33:01Z</time></trkpt><trkpt lat="43.62575327801142" lon="3.230808438198445"><ele>394.5</ele><time>2026-03-17T13:33:02Z</time></trkpt><trkpt lat="43.625880103737686" lon="3.2305348328438757"><ele>390.0</ele><time>2026-03-17T13:33:03Z</time></trkpt><trkpt lat="43.626000342514715" lon="3.2302284228115044"><ele>390.0</ele><time>2026-03-17T13:33:04Z</time></trkpt><trkpt lat="43.62609486583964" lon="3.2299075094858782"><ele>390.0</ele><time>2026-03-17T13:33:05Z</time></trkpt><trkpt lat="43.62620272456046" lon="3.2295798784896323"><ele>391.5</ele><time>2026-03-17T13:33:06Z</time></trkpt><trkpt lat="43.626320978738775" lon="3.229266849754039"><ele>393.0</ele><time>2026-03-17T13:33:07Z</time></trkpt><trkpt lat="43.626433733728945" lon="3.228942037097324"><ele>389.0</ele><time>2026-03-17T13:33:08Z</time></trkpt><trkpt lat="43.62653706586711" lon="3.228629482090842"><ele>385.0</ele><time>2026-03-17T13:33:09Z</time></trkpt><trkpt lat="43.626646611585514" lon="3.2283462795995876"><ele>381.33333333333337</ele><time>2026-03-17T13:33:10Z</time></trkpt><trkpt lat="43.6267427481406" lon="3.228061617971611"><ele>377.6666666666667</ele><time>2026-03-17T13:33:11Z</time></trkpt><trkpt lat="43.62684932143312" lon="3.227798551069306"><ele>374.0</ele><time>2026-03-17T13:33:12Z</time></trkpt><trkpt lat="43.62697395519143" lon="3.227554710646103"><ele>373.33333333333337</ele><time>2026-03-17T13:33:13Z</time></trkpt><trkpt lat="43.627114911973926" lon="3.227342766182211"><ele>372.6666666666667</ele><time>2026-03-17T13:33:14Z</time></trkpt><trkpt lat="43.62727431241414" lon="3.2271546362691703"><ele>372.0</ele><time>2026-03-17T13:33:15Z</time></trkpt><trkpt lat="43.62745706715094" lon="3.226975997093556"><ele>372.0</ele><time>2026-03-17T13:33:16Z</time></trkpt><trkpt lat="43.62765846013773" lon="3.226804125859182"><ele>372.0</ele><time>2026-03-17T13:33:17Z</time></trkpt><trkpt lat="43.627869358755554" lon="3.226638004827414"><ele>369.5</ele><time>2026-03-17T13:33:18Z</time></trkpt><trkpt lat="43.628065025722684" lon="3.226443510205193"><ele>367.0</ele><time>2026-03-17T13:33:19Z</time></trkpt><trkpt lat="43.62825449131422" lon="3.2261862989691075"><ele>367.0</ele><time>2026-03-17T13:33:20Z</time></trkpt><trkpt lat="43.628406657861994" lon="3.2259031869334667"><ele>367.0</ele><time>2026-03-17T13:33:21Z</time></trkpt><trkpt lat="43.62857340552791" lon="3.225608215817274"><ele>368.5</ele><time>2026-03-17T13:33:22Z</time></trkpt><trkpt lat="43.628733605714395" lon="3.225319004844767"><ele>370.0</ele><time>2026-03-17T13:33:23Z</time></trkpt><trkpt lat="43.628883056130654" lon="3.2250569110092195"><ele>363.5</ele><time>2026-03-17T13:33:24Z</time></trkpt><trkpt lat="43.62903167499907" lon="3.2248055473623842"><ele>357.0</ele><time>2026-03-17T13:33:25Z</time></trkpt><trkpt lat="43.62917695053603" lon="3.224561599803827"><ele>357.0</ele><time>2026-03-17T13:33:26Z</time></trkpt><trkpt lat="43.629313950691746" lon="3.2243230679090678"><ele>357.0</ele><time>2026-03-17T13:33:27Z</time></trkpt><trkpt lat="43.62944608212508" lon="3.2240826036901664"><ele>357.0</ele><time>2026-03-17T13:33:28Z</time></trkpt><trkpt lat="43.62957399631975" lon="3.2238404064576387"><ele>358.0</ele><time>2026-03-17T13:33:29Z</time></trkpt><trkpt lat="43.629693110871514" lon="3.223589931666867"><ele>359.0</ele><time>2026-03-17T13:33:30Z</time></trkpt><trkpt lat="43.629800528118494" lon="3.22332698753208"><ele>360.0</ele><time>2026-03-17T13:33:31Z</time></trkpt><trkpt lat="43.62988816455953" lon="3.223033828910723"><ele>357.6666666666667</ele><time>2026-03-17T13:33:32Z</time></trkpt><trkpt lat="43.629954762038544" lon="3.222741432614202"><ele>355.33333333333337</ele><time>2026-03-17T13:33:33Z</time></trkpt><trkpt lat="43.62999123923316" lon="3.2224381877426795"><ele>353.0</ele><time>2026-03-17T13:33:34Z</time></trkpt><trkpt lat="43.62999873609737" lon="3.2221370106971254"><ele>350.0</ele><time>2026-03-17T13:33:35Z</time></trkpt><trkpt lat="43.629979149769206" lon="3.221826210783079"><ele>347.0</ele><time>2026-03-17T13:33:36Z</time></trkpt><trkpt lat="43.629931846176156" lon="3.22151785304671"><ele>345.6666666666667</ele><time>2026-03-17T13:33:37Z</time></trkpt><trkpt lat="43.62985702579874" lon="3.221231995033654"><ele>344.3333333333333</ele><time>2026-03-17T13:33:38Z</time></trkpt><trkpt lat="43.629764745865366" lon="3.220957603474625"><ele>343.0</ele><time>2026-03-17T13:33:39Z</time></trkpt><trkpt lat="43.62964913376535" lon="3.2206909260758847"><ele>342.0</ele><time>2026-03-17T13:33:40Z</time></trkpt><trkpt lat="43.62951270373815" lon="3.220422749163349"><ele>341.0</ele><time>2026-03-17T13:33:41Z</time></trkpt><trkpt lat="43.62936729964059" lon="3.220149858983494"><ele>338.5</ele><time>2026-03-17T13:33:42Z</time></trkpt><trkpt lat="43.62921538040565" lon="3.219857562068226"><ele>336.0</ele><time>2026-03-17T13:33:43Z</time></trkpt><trkpt lat="43.62906526199045" lon="3.21956481657938"><ele>334.0</ele><time>2026-03-17T13:33:44Z</time></trkpt><trkpt lat="43.62891019880402" lon="3.219265077899232"><ele>332.0</ele><time>2026-03-17T13:33:45Z</time></trkpt><trkpt lat="43.62874789115619" lon="3.218954116613467"><ele>329.0</ele><time>2026-03-17T13:33:46Z</time></trkpt><trkpt lat="43.628596210987894" lon="3.218657216194062"><ele>326.0</ele><time>2026-03-17T13:33:47Z</time></trkpt><trkpt lat="43.6284507089385" lon="3.218375312715209"><ele>327.0</ele><time>2026-03-17T13:33:48Z</time></trkpt><trkpt lat="43.6283020079437" lon="3.218105117172408"><ele>328.0</ele><time>2026-03-17T13:33:49Z</time></trkpt><trkpt lat="43.62816182743867" lon="3.2178451100968886"><ele>328.0</ele><time>2026-03-17T13:33:50Z</time></trkpt><trkpt lat="43.62803065833049" lon="3.2175917214767815"><ele>328.0</ele><time>2026-03-17T13:33:51Z</time></trkpt><trkpt lat="43.627894566305116" lon="3.2173373113573858"><ele>327.66666666666663</ele><time>2026-03-17T13:33:52Z</time></trkpt><trkpt lat="43.62775603122536" lon="3.2170959486286934"><ele>327.3333333333333</ele><time>2026-03-17T13:33:53Z</time></trkpt><trkpt lat="43.62759934931012" lon="3.2168738264988317"><ele>327.0</ele><time>2026-03-17T13:33:54Z</time></trkpt><trkpt lat="43.6274183507676" lon="3.216678279298145"><ele>327.0</ele><time>2026-03-17T13:33:55Z</time></trkpt><trkpt lat="43.62722157083207" lon="3.216512721637889"><ele>327.0</ele><time>2026-03-17T13:33:56Z</time></trkpt><trkpt lat="43.62700949492052" lon="3.2163637385657067"><ele>327.0</ele><time>2026-03-17T13:33:57Z</time></trkpt><trkpt lat="43.626791500917044" lon="3.216243346767014"><ele>327.0</ele><time>2026-03-17T13:33:58Z</time></trkpt><trkpt lat="43.62657160474913" lon="3.2161076555591643"><ele>327.0</ele><time>2026-03-17T13:33:59Z</time></trkpt><trkpt lat="43.62636345314211" lon="3.215967264587934"><ele>327.0</ele><time>2026-03-17T13:34:00Z</time></trkpt><trkpt lat="43.626180731295335" lon="3.2158244631359123"><ele>327.0</ele><time>2026-03-17T13:34:01Z</time></trkpt><trkpt lat="43.626025079204176" lon="3.215652230496019"><ele>325.0</ele><time>2026-03-17T13:34:02Z</time></trkpt><trkpt lat="43.62586951016896" lon="3.215467201870479"><ele>323.0</ele><time>2026-03-17T13:34:03Z</time></trkpt><trkpt lat="43.62573142956696" lon="3.2152564100408676"><ele>321.0</ele><time>2026-03-17T13:34:04Z</time></trkpt><trkpt lat="43.62560430010411" lon="3.215020552588663"><ele>322.3333333333333</ele><time>2026-03-17T13:34:05Z</time></trkpt><trkpt lat="43.62548832222101" lon="3.2147603007640493"><ele>323.66666666666663</ele><time>2026-03-17T13:34:06Z</time></trkpt><trkpt lat="43.625372320367354" lon="3.214491341935042"><ele>325.0</ele><time>2026-03-17T13:34:07Z</time></trkpt><trkpt lat="43.625247673658365" lon="3.214216638183169"><ele>321.66666666666663</ele><time>2026-03-17T13:34:08Z</time></trkpt><trkpt lat="43.6251275710586" lon="3.213951419437591"><ele>318.3333333333333</ele><time>2026-03-17T13:34:09Z</time></trkpt><trkpt lat="43.625036661473764" lon="3.213686676401863"><ele>315.0</ele><time>2026-03-17T13:34:10Z</time></trkpt><trkpt lat="43.62497711736261" lon="3.2134059089432947"><ele>314.3333333333333</ele><time>2026-03-17T13:34:11Z</time></trkpt><trkpt lat="43.62494999180488" lon="3.2131175781315187"><ele>313.66666666666663</ele><time>2026-03-17T13:34:12Z</time></trkpt><trkpt lat="43.62492361817866" lon="3.2128114142478146"><ele>313.0</ele><time>2026-03-17T13:34:13Z</time></trkpt><trkpt lat="43.62490796038905" lon="3.2124831828443416"><ele>312.0</ele><time>2026-03-17T13:34:14Z</time></trkpt><trkpt lat="43.624891365133266" lon="3.212144960205273"><ele>311.0</ele><time>2026-03-17T13:34:15Z</time></trkpt><trkpt lat="43.62487392193204" lon="3.2118100253080772"><ele>310.0</ele><time>2026-03-17T13:34:16Z</time></trkpt><trkpt lat="43.624855739145914" lon="3.2114753813135617"><ele>309.0</ele><time>2026-03-17T13:34:16.999Z</time></trkpt><trkpt lat="43.62483388423225" lon="3.2111457365892497"><ele>309.0</ele><time>2026-03-17T13:34:17.999Z</time></trkpt><trkpt lat="43.624817031740974" lon="3.210823722295753"><ele>309.0</ele><time>2026-03-17T13:34:18.999Z</time></trkpt><trkpt lat="43.62479809248399" lon="3.2105053044292386"><ele>309.0</ele><time>2026-03-17T13:34:19.999Z</time></trkpt><trkpt lat="43.62477546951649" lon="3.2101916355511158"><ele>309.0</ele><time>2026-03-17T13:34:20.999Z</time></trkpt><trkpt lat="43.62474368759401" lon="3.2098891229468087"><ele>309.0</ele><time>2026-03-17T13:34:21.999Z</time></trkpt><trkpt lat="43.62468494812973" lon="3.20958906906137"><ele>309.0</ele><time>2026-03-17T13:34:22.999Z</time></trkpt><trkpt lat="43.624601142759865" lon="3.20930376294222"><ele>309.0</ele><time>2026-03-17T13:34:23.999Z</time></trkpt><trkpt lat="43.624500771809906" lon="3.2090347831582164"><ele>309.0</ele><time>2026-03-17T13:34:24.999Z</time></trkpt><trkpt lat="43.624369072739945" lon="3.208789662722282"><ele>309.0</ele><time>2026-03-17T13:34:25.999Z</time></trkpt><trkpt lat="43.62422165227243" lon="3.2085683960133915"><ele>309.0</ele><time>2026-03-17T13:34:26.999Z</time></trkpt><trkpt lat="43.624061987072" lon="3.208375971562136"><ele>309.0</ele><time>2026-03-17T13:34:27.999Z</time></trkpt><trkpt lat="43.62386977376969" lon="3.2081867608778643"><ele>308.5</ele><time>2026-03-17T13:34:28.999Z</time></trkpt><trkpt lat="43.62366543803122" lon="3.2080205732869507"><ele>308.0</ele><time>2026-03-17T13:34:29.999Z</time></trkpt><trkpt lat="43.62344966315452" lon="3.2078605599772003"><ele>308.0</ele><time>2026-03-17T13:34:30.999Z</time></trkpt><trkpt lat="43.623226565260275" lon="3.207698565509374"><ele>308.0</ele><time>2026-03-17T13:34:31.999Z</time></trkpt><trkpt lat="43.6230045957636" lon="3.2075240458350827"><ele>307.0</ele><time>2026-03-17T13:34:32.999Z</time></trkpt><trkpt lat="43.622773906922895" lon="3.207362579083479"><ele>306.0</ele><time>2026-03-17T13:34:33.999Z</time></trkpt><trkpt lat="43.62254790103016" lon="3.2071815216631174"><ele>306.0</ele><time>2026-03-17T13:34:34.999Z</time></trkpt><trkpt lat="43.62233374859932" lon="3.2070049824848312"><ele>306.0</ele><time>2026-03-17T13:34:35.999Z</time></trkpt><trkpt lat="43.62211542541619" lon="3.206839737403666"><ele>303.5</ele><time>2026-03-17T13:34:36.999Z</time></trkpt><trkpt lat="43.62190697767093" lon="3.206678680968125"><ele>301.0</ele><time>2026-03-17T13:34:37.999Z</time></trkpt><trkpt lat="43.62170314878955" lon="3.206520342753387"><ele>301.0</ele><time>2026-03-17T13:34:38.999Z</time></trkpt><trkpt lat="43.621504785311366" lon="3.206363093442787"><ele>301.0</ele><time>2026-03-17T13:34:39.999Z</time></trkpt><trkpt lat="43.62131596600144" lon="3.206209280264343"><ele>301.0</ele><time>2026-03-17T13:34:40.999Z</time></trkpt><trkpt lat="43.62114535306699" lon="3.2060524521961473"><ele>301.0</ele><time>2026-03-17T13:34:41.999Z</time></trkpt><trkpt lat="43.62098842567155" lon="3.205880264245107"><ele>301.0</ele><time>2026-03-17T13:34:42.999Z</time></trkpt><trkpt lat="43.620842019904806" lon="3.2056903773508565"><ele>301.0</ele><time>2026-03-17T13:34:43.999Z</time></trkpt><trkpt lat="43.62069582817205" lon="3.2054781750748678"><ele>301.0</ele><time>2026-03-17T13:34:44.999Z</time></trkpt><trkpt lat="43.62055933120457" lon="3.2052520382877034"><ele>301.0</ele><time>2026-03-17T13:34:45.999Z</time></trkpt><trkpt lat="43.62042919145836" lon="3.2049989873694726"><ele>301.0</ele><time>2026-03-17T13:34:46.999Z</time></trkpt><trkpt lat="43.620305057841804" lon="3.204727252743285"><ele>300.0</ele><time>2026-03-17T13:34:47.999Z</time></trkpt><trkpt lat="43.62017213281337" lon="3.204454729312611"><ele>299.0</ele><time>2026-03-17T13:34:49Z</time></trkpt><trkpt lat="43.62004131021241" lon="3.2041757940779467"><ele>298.5</ele><time>2026-03-17T13:34:50Z</time></trkpt><trkpt lat="43.61990980640329" lon="3.2038987023999264"><ele>298.0</ele><time>2026-03-17T13:34:51Z</time></trkpt><trkpt lat="43.61978326134062" lon="3.2036217451301625"><ele>298.0</ele><time>2026-03-17T13:34:52Z</time></trkpt><trkpt lat="43.619652893739925" lon="3.2033496212104318"><ele>298.0</ele><time>2026-03-17T13:34:53Z</time></trkpt><trkpt lat="43.61951740550001" lon="3.203072895667737"><ele>296.5</ele><time>2026-03-17T13:34:54Z</time></trkpt><trkpt lat="43.61938847284008" lon="3.202796128407172"><ele>295.0</ele><time>2026-03-17T13:34:55Z</time></trkpt><trkpt lat="43.619259240604755" lon="3.2025153301245943"><ele>295.0</ele><time>2026-03-17T13:34:56Z</time></trkpt><trkpt lat="43.61914508650695" lon="3.2022291657089124"><ele>295.0</ele><time>2026-03-17T13:34:57Z</time></trkpt><trkpt lat="43.619047292715464" lon="3.2019374223898804"><ele>295.0</ele><time>2026-03-17T13:34:58Z</time></trkpt><trkpt lat="43.618968516890845" lon="3.2016435985369194"><ele>295.0</ele><time>2026-03-17T13:34:59Z</time></trkpt><trkpt lat="43.618911361900516" lon="3.2013306405967263"><ele>294.5</ele><time>2026-03-17T13:35:00Z</time></trkpt><trkpt lat="43.618870486968376" lon="3.201003373466193"><ele>294.0</ele><time>2026-03-17T13:35:01Z</time></trkpt><trkpt lat="43.618835317552815" lon="3.200656751072765"><ele>294.0</ele><time>2026-03-17T13:35:02Z</time></trkpt><trkpt lat="43.61880448179552" lon="3.200304203006361"><ele>294.0</ele><time>2026-03-17T13:35:03Z</time></trkpt><trkpt lat="43.61876921980557" lon="3.199944007934864"><ele>292.0</ele><time>2026-03-17T13:35:04Z</time></trkpt><trkpt lat="43.61873178933775" lon="3.1995857648568267"><ele>290.0</ele><time>2026-03-17T13:35:05Z</time></trkpt><trkpt lat="43.618691211882215" lon="3.1992330735863286"><ele>290.0</ele><time>2026-03-17T13:35:06Z</time></trkpt><trkpt lat="43.61865790761194" lon="3.19888615211564"><ele>290.0</ele><time>2026-03-17T13:35:07Z</time></trkpt><trkpt lat="43.61862415872709" lon="3.198541980989417"><ele>290.0</ele><time>2026-03-17T13:35:08Z</time></trkpt><trkpt lat="43.61859558635556" lon="3.198205099543841"><ele>290.0</ele><time>2026-03-17T13:35:09Z</time></trkpt><trkpt lat="43.61856191692178" lon="3.1978660884158607"><ele>288.0</ele><time>2026-03-17T13:35:10Z</time></trkpt><trkpt lat="43.618527645515414" lon="3.197533265620653"><ele>286.0</ele><time>2026-03-17T13:35:11Z</time></trkpt><trkpt lat="43.618493850158934" lon="3.1972044387298366"><ele>286.0</ele><time>2026-03-17T13:35:12Z</time></trkpt><trkpt lat="43.6184612799237" lon="3.1968752067066384"><ele>286.0</ele><time>2026-03-17T13:35:13Z</time></trkpt><trkpt lat="43.618426062089554" lon="3.196548011247564"><ele>287.0</ele><time>2026-03-17T13:35:14Z</time></trkpt><trkpt lat="43.61838763844456" lon="3.1962220933381738"><ele>288.0</ele><time>2026-03-17T13:35:15Z</time></trkpt><trkpt lat="43.61833975863438" lon="3.1958989288493322"><ele>290.5</ele><time>2026-03-17T13:35:16Z</time></trkpt><trkpt lat="43.61826497486282" lon="3.195586492070417"><ele>293.0</ele><time>2026-03-17T13:35:17Z</time></trkpt><trkpt lat="43.61820204226867" lon="3.1952688420155266"><ele>293.0</ele><time>2026-03-17T13:35:18Z</time></trkpt><trkpt lat="43.618121746033175" lon="3.194955768060473"><ele>293.0</ele><time>2026-03-17T13:35:19Z</time></trkpt><trkpt lat="43.61803248881292" lon="3.194641808602446"><ele>293.0</ele><time>2026-03-17T13:35:20Z</time></trkpt><trkpt lat="43.61793809407932" lon="3.1943294965338014"><ele>293.0</ele><time>2026-03-17T13:35:21Z</time></trkpt><trkpt lat="43.61783306192115" lon="3.1940187688930552"><ele>290.5</ele><time>2026-03-17T13:35:22Z</time></trkpt><trkpt lat="43.61772524425365" lon="3.1937143018968803"><ele>288.0</ele><time>2026-03-17T13:35:23Z</time></trkpt><trkpt lat="43.61761527463078" lon="3.193403027224787"><ele>290.5</ele><time>2026-03-17T13:35:24Z</time></trkpt><trkpt lat="43.617504147981485" lon="3.1930907587927075"><ele>293.0</ele><time>2026-03-17T13:35:25Z</time></trkpt><trkpt lat="43.61739237349846" lon="3.1927774125894604"><ele>293.0</ele><time>2026-03-17T13:35:26Z</time></trkpt><trkpt lat="43.61728400286214" lon="3.192461144937035"><ele>293.0</ele><time>2026-03-17T13:35:27Z</time></trkpt><trkpt lat="43.61717354180029" lon="3.1921473680984707"><ele>293.5</ele><time>2026-03-17T13:35:28Z</time></trkpt><trkpt lat="43.61706218481217" lon="3.191835302902892"><ele>294.0</ele><time>2026-03-17T13:35:29Z</time></trkpt><trkpt lat="43.616952250921024" lon="3.1915219611787324"><ele>290.0</ele><time>2026-03-17T13:35:30Z</time></trkpt><trkpt lat="43.61683688882631" lon="3.191207189833458"><ele>286.0</ele><time>2026-03-17T13:35:31Z</time></trkpt><trkpt lat="43.61672371237807" lon="3.190897902571227"><ele>291.5</ele><time>2026-03-17T13:35:32Z</time></trkpt><trkpt lat="43.616604992951274" lon="3.190590332885051"><ele>297.0</ele><time>2026-03-17T13:35:33Z</time></trkpt><trkpt lat="43.61647712460597" lon="3.1902843154596723"><ele>297.0</ele><time>2026-03-17T13:35:34Z</time></trkpt><trkpt lat="43.616344677511584" lon="3.1899854672873493"><ele>297.0</ele><time>2026-03-17T13:35:35Z</time></trkpt><trkpt lat="43.61620823870093" lon="3.189691948553826"><ele>291.0</ele><time>2026-03-17T13:35:36Z</time></trkpt><trkpt lat="43.61606961817402" lon="3.1893985649963046"><ele>285.0</ele><time>2026-03-17T13:35:37Z</time></trkpt><trkpt lat="43.61594245856595" lon="3.189103684245708"><ele>287.0</ele><time>2026-03-17T13:35:38Z</time></trkpt><trkpt lat="43.61581944348883" lon="3.1888001090966895"><ele>289.0</ele><time>2026-03-17T13:35:39Z</time></trkpt><trkpt lat="43.61570457884048" lon="3.188494884219541"><ele>289.0</ele><time>2026-03-17T13:35:40Z</time></trkpt><trkpt lat="43.61559680668903" lon="3.1881788522295444"><ele>289.0</ele><time>2026-03-17T13:35:41Z</time></trkpt><trkpt lat="43.61550563812715" lon="3.187854259480754"><ele>286.0</ele><time>2026-03-17T13:35:42Z</time></trkpt><trkpt lat="43.61541528377516" lon="3.1875245957742755"><ele>283.0</ele><time>2026-03-17T13:35:43Z</time></trkpt><trkpt lat="43.61532405344087" lon="3.187190004581883"><ele>281.0</ele><time>2026-03-17T13:35:44Z</time></trkpt><trkpt lat="43.615229472403556" lon="3.186857891743946"><ele>279.0</ele><time>2026-03-17T13:35:45Z</time></trkpt><trkpt lat="43.61513290606827" lon="3.1865219535978095"><ele>278.5</ele><time>2026-03-17T13:35:46Z</time></trkpt><trkpt lat="43.61503218476361" lon="3.186194994644337"><ele>278.0</ele><time>2026-03-17T13:35:47Z</time></trkpt><trkpt lat="43.61492717805581" lon="3.185889173546936"><ele>276.5</ele><time>2026-03-17T13:35:48Z</time></trkpt><trkpt lat="43.61480532867659" lon="3.1855964374264487"><ele>275.0</ele><time>2026-03-17T13:35:49Z</time></trkpt><trkpt lat="43.61466609659743" lon="3.1853139328362583"><ele>275.0</ele><time>2026-03-17T13:35:50Z</time></trkpt><trkpt lat="43.61451413503617" lon="3.1850362126441256"><ele>275.0</ele><time>2026-03-17T13:35:51Z</time></trkpt><trkpt lat="43.61435843489701" lon="3.18476163804351"><ele>272.5</ele><time>2026-03-17T13:35:52Z</time></trkpt><trkpt lat="43.61419363348156" lon="3.184482936319848"><ele>270.0</ele><time>2026-03-17T13:35:53Z</time></trkpt><trkpt lat="43.61403001427004" lon="3.184205883068171"><ele>272.5</ele><time>2026-03-17T13:35:54Z</time></trkpt><trkpt lat="43.61386093307307" lon="3.1839263196281813"><ele>275.0</ele><time>2026-03-17T13:35:55Z</time></trkpt><trkpt lat="43.61370033925217" lon="3.183645092670709"><ele>264.5</ele><time>2026-03-17T13:35:56Z</time></trkpt><trkpt lat="43.61353959891675" lon="3.1833645015466154"><ele>254.0</ele><time>2026-03-17T13:35:57Z</time></trkpt><trkpt lat="43.61338354873694" lon="3.1831017015751177"><ele>253.0</ele><time>2026-03-17T13:35:58Z</time></trkpt><trkpt lat="43.61323491813242" lon="3.1828469396931296"><ele>252.0</ele><time>2026-03-17T13:35:59Z</time></trkpt><trkpt lat="43.61309348475864" lon="3.1825998500187347"><ele>252.0</ele><time>2026-03-17T13:36:00Z</time></trkpt><trkpt lat="43.61295630070668" lon="3.182359870416469"><ele>252.0</ele><time>2026-03-17T13:36:01Z</time></trkpt><trkpt lat="43.61281496372015" lon="3.1821173022459956"><ele>252.0</ele><time>2026-03-17T13:36:02Z</time></trkpt><trkpt lat="43.61267413723641" lon="3.181878966902021"><ele>252.5</ele><time>2026-03-17T13:36:03Z</time></trkpt><trkpt lat="43.6125338699091" lon="3.1816318636229965"><ele>253.0</ele><time>2026-03-17T13:36:04Z</time></trkpt><trkpt lat="43.61240496208109" lon="3.181373144854322"><ele>250.5</ele><time>2026-03-17T13:36:05Z</time></trkpt><trkpt lat="43.612297097608064" lon="3.1810969789681467"><ele>248.0</ele><time>2026-03-17T13:36:06Z</time></trkpt><trkpt lat="43.61220307168316" lon="3.1808037762977586"><ele>247.5</ele><time>2026-03-17T13:36:07Z</time></trkpt><trkpt lat="43.61212076693065" lon="3.180497190667405"><ele>247.0</ele><time>2026-03-17T13:36:08Z</time></trkpt><trkpt lat="43.61205444880907" lon="3.180177564392924"><ele>247.0</ele><time>2026-03-17T13:36:09Z</time></trkpt><trkpt lat="43.61203063372751" lon="3.1798535377915194"><ele>247.0</ele><time>2026-03-17T13:36:10Z</time></trkpt><trkpt lat="43.61201036443605" lon="3.1795084291486226"><ele>245.0</ele><time>2026-03-17T13:36:11Z</time></trkpt><trkpt lat="43.61200858749708" lon="3.179154670789138"><ele>243.0</ele><time>2026-03-17T13:36:12Z</time></trkpt><trkpt lat="43.612028870452804" lon="3.1787892778015703"><ele>243.0</ele><time>2026-03-17T13:36:13Z</time></trkpt><trkpt lat="43.61204724174271" lon="3.178416817928513"><ele>243.0</ele><time>2026-03-17T13:36:14Z</time></trkpt><trkpt lat="43.612065943511034" lon="3.1780533283045997"><ele>241.0</ele><time>2026-03-17T13:36:15Z</time></trkpt><trkpt lat="43.6120824582922" lon="3.1776925501138247"><ele>239.0</ele><time>2026-03-17T13:36:16Z</time></trkpt><trkpt lat="43.61210114165739" lon="3.1773426740334427"><ele>237.5</ele><time>2026-03-17T13:36:17Z</time></trkpt><trkpt lat="43.61211061880475" lon="3.176982904291142"><ele>236.0</ele><time>2026-03-17T13:36:18Z</time></trkpt><trkpt lat="43.612107640063144" lon="3.1766231424869895"><ele>235.0</ele><time>2026-03-17T13:36:19Z</time></trkpt><trkpt lat="43.612080260321754" lon="3.1762749107746218"><ele>234.0</ele><time>2026-03-17T13:36:20Z</time></trkpt><trkpt lat="43.61203168314889" lon="3.175941409313479"><ele>235.0</ele><time>2026-03-17T13:36:21Z</time></trkpt><trkpt lat="43.61195782534106" lon="3.175614569161861"><ele>236.0</ele><time>2026-03-17T13:36:22Z</time></trkpt><trkpt lat="43.61187234551219" lon="3.1753107511171774"><ele>236.0</ele><time>2026-03-17T13:36:23Z</time></trkpt><trkpt lat="43.611771773026724" lon="3.175026833827837"><ele>236.0</ele><time>2026-03-17T13:36:24Z</time></trkpt><trkpt lat="43.61167172986103" lon="3.1747638695321014"><ele>236.0</ele><time>2026-03-17T13:36:25Z</time></trkpt><trkpt lat="43.61156610378208" lon="3.1745098885575516"><ele>233.66666666666669</ele><time>2026-03-17T13:36:26Z</time></trkpt><trkpt lat="43.611458284602406" lon="3.1742677592668267"><ele>231.33333333333331</ele><time>2026-03-17T13:36:27Z</time></trkpt><trkpt lat="43.6113661639372" lon="3.1740402859590113"><ele>229.0</ele><time>2026-03-17T13:36:28Z</time></trkpt><trkpt lat="43.611277045706544" lon="3.1738183910095312"><ele>229.0</ele><time>2026-03-17T13:36:29Z</time></trkpt><trkpt lat="43.6111923521235" lon="3.1735985078075855"><ele>229.0</ele><time>2026-03-17T13:36:30Z</time></trkpt><trkpt lat="43.611100310746934" lon="3.1733727316451676"><ele>229.0</ele><time>2026-03-17T13:36:31Z</time></trkpt><trkpt lat="43.61101391082725" lon="3.1731688850382973"><ele>229.0</ele><time>2026-03-17T13:36:31.999Z</time></trkpt><trkpt lat="43.61093087684188" lon="3.1729722425015296"><ele>229.0</ele><time>2026-03-17T13:36:32.999Z</time></trkpt><trkpt lat="43.61085965960621" lon="3.172798054164758"><ele>229.0</ele><time>2026-03-17T13:36:33.999Z</time></trkpt><trkpt lat="43.61080008443916" lon="3.1726392845191875"><ele>229.0</ele><time>2026-03-17T13:36:34.999Z</time></trkpt><trkpt lat="43.61075192773722" lon="3.1724905980154787"><ele>228.99999999999997</ele><time>2026-03-17T13:36:35.999Z</time></trkpt><trkpt lat="43.610725364814684" lon="3.1723811169010108"><ele>229.0</ele><time>2026-03-17T13:36:36.999Z</time></trkpt><trkpt lat="43.610711425071294" lon="3.1722918076702906"><ele>229.0</ele><time>2026-03-17T13:36:37.999Z</time></trkpt><trkpt lat="43.6106888250234" lon="3.1721904392289177"><ele>229.0</ele><time>2026-03-17T13:36:38.999Z</time></trkpt><trkpt lat="43.610719740950785" lon="3.1720717498062303"><ele>228.99999999999997</ele><time>2026-03-17T13:36:39.999Z</time></trkpt><trkpt lat="43.61072033813176" lon="3.1719635983822188"><ele>229.0</ele><time>2026-03-17T13:36:40.999Z</time></trkpt><trkpt lat="43.61077864305004" lon="3.1718463181264487"><ele>228.75</ele><time>2026-03-17T13:36:41.999Z</time></trkpt><trkpt lat="43.610836982218224" lon="3.1717348196446946"><ele>228.5</ele><time>2026-03-17T13:36:42.999Z</time></trkpt><trkpt lat="43.61092633992787" lon="3.1716302626230193"><ele>228.25</ele><time>2026-03-17T13:36:43.999Z</time></trkpt><trkpt lat="43.611026723318446" lon="3.171510589711834"><ele>228.0</ele><time>2026-03-17T13:36:44.999Z</time></trkpt><trkpt lat="43.611127356176226" lon="3.1713897360517236"><ele>228.25</ele><time>2026-03-17T13:36:45.999Z</time></trkpt><trkpt lat="43.611225562634274" lon="3.1712820968989086"><ele>228.5</ele><time>2026-03-17T13:36:46.999Z</time></trkpt><trkpt lat="43.61132726440397" lon="3.171175427538545"><ele>228.75</ele><time>2026-03-17T13:36:47.999Z</time></trkpt><trkpt lat="43.6114205057466" lon="3.1710685232745113"><ele>229.0</ele><time>2026-03-17T13:36:48.999Z</time></trkpt><trkpt lat="43.611505601162044" lon="3.170977233990146"><ele>229.0</ele><time>2026-03-17T13:36:49.999Z</time></trkpt><trkpt lat="43.61158207854683" lon="3.1709129421344593"><ele>228.99999999999997</ele><time>2026-03-17T13:36:50.999Z</time></trkpt><trkpt lat="43.6116606274862" lon="3.1708456496327906"><ele>228.99999999999997</ele><time>2026-03-17T13:36:51.999Z</time></trkpt><trkpt lat="43.61173265205322" lon="3.170772255033874"><ele>229.0</ele><time>2026-03-17T13:36:52.999Z</time></trkpt><trkpt lat="43.61179630342002" lon="3.1706800335176974"><ele>229.0</ele><time>2026-03-17T13:36:53.999Z</time></trkpt><trkpt lat="43.611848218046184" lon="3.1705617372578048"><ele>228.79999999999998</ele><time>2026-03-17T13:36:55Z</time></trkpt><trkpt lat="43.61195012333498" lon="3.1704648729463383"><ele>228.59999999999997</ele><time>2026-03-17T13:36:56Z</time></trkpt><trkpt lat="43.61203390636845" lon="3.1703613747616615"><ele>228.4</ele><time>2026-03-17T13:36:57Z</time></trkpt><trkpt lat="43.61211468862032" lon="3.170266239672039"><ele>228.2</ele><time>2026-03-17T13:36:58Z</time></trkpt><trkpt lat="43.612193205918516" lon="3.1701819931491637"><ele>228.0</ele><time>2026-03-17T13:36:59Z</time></trkpt><trkpt lat="43.61225552978076" lon="3.1700900965294636"><ele>228.5</ele><time>2026-03-17T13:37:00Z</time></trkpt><trkpt lat="43.61233746930047" lon="3.1700446621556595"><ele>229.0</ele><time>2026-03-17T13:37:01Z</time></trkpt><trkpt lat="43.61238135935591" lon="3.1699756469051388"><ele>229.5</ele><time>2026-03-17T13:37:02Z</time></trkpt><trkpt lat="43.612413747779925" lon="3.1698954869363014"><ele>230.0</ele><time>2026-03-17T13:37:03Z</time></trkpt><trkpt lat="43.61237570185269" lon="3.1697875374883138"><ele>230.5</ele><time>2026-03-17T13:37:04Z</time></trkpt><trkpt lat="43.61238227093378" lon="3.1696613368968616"><ele>231.0</ele><time>2026-03-17T13:37:05Z</time></trkpt><trkpt lat="43.6123724779235" lon="3.1695262542845426"><ele>231.0</ele><time>2026-03-17T13:37:06Z</time></trkpt><trkpt lat="43.612363216611264" lon="3.169388149911003"><ele>231.00000000000003</ele><time>2026-03-17T13:37:07Z</time></trkpt><trkpt lat="43.612343940994286" lon="3.1692591452699244"><ele>231.00000000000003</ele><time>2026-03-17T13:37:08Z</time></trkpt><trkpt lat="43.612313181506316" lon="3.169146543734117"><ele>231.0</ele><time>2026-03-17T13:37:09Z</time></trkpt><trkpt lat="43.612280337806794" lon="3.169020275543375"><ele>231.0</ele><time>2026-03-17T13:37:10Z</time></trkpt><trkpt lat="43.61224893330665" lon="3.1688803300367976"><ele>231.0</ele><time>2026-03-17T13:37:11Z</time></trkpt><trkpt lat="43.61222381156611" lon="3.168730301937524"><ele>231.0</ele><time>2026-03-17T13:37:12Z</time></trkpt><trkpt lat="43.6122053839592" lon="3.1685794655334876"><ele>231.0</ele><time>2026-03-17T13:37:13Z</time></trkpt><trkpt lat="43.612199447033184" lon="3.1684283278603225"><ele>231.0</ele><time>2026-03-17T13:37:14Z</time></trkpt><trkpt lat="43.61220038033557" lon="3.1682653253513573"><ele>230.25</ele><time>2026-03-17T13:37:15Z</time></trkpt><trkpt lat="43.61220874211322" lon="3.1681016693625303"><ele>229.5</ele><time>2026-03-17T13:37:16Z</time></trkpt><trkpt lat="43.61220970190916" lon="3.167930180865249"><ele>228.75</ele><time>2026-03-17T13:37:17Z</time></trkpt><trkpt lat="43.612217305430676" lon="3.1677565925179665"><ele>228.0</ele><time>2026-03-17T13:37:18Z</time></trkpt><trkpt lat="43.61222504576756" lon="3.1675919809936826"><ele>228.0</ele><time>2026-03-17T13:37:19Z</time></trkpt><trkpt lat="43.6122340685498" lon="3.1674347503987885"><ele>228.0</ele><time>2026-03-17T13:37:20Z</time></trkpt><trkpt lat="43.612243920227634" lon="3.1672795492909267"><ele>228.0</ele><time>2026-03-17T13:37:21Z</time></trkpt><trkpt lat="43.61224431320796" lon="3.167120001549832"><ele>228.0</ele><time>2026-03-17T13:37:22Z</time></trkpt><trkpt lat="43.61224130084097" lon="3.16696682071223"><ele>227.66666666666666</ele><time>2026-03-17T13:37:23Z</time></trkpt><trkpt lat="43.612242924751996" lon="3.166833028499038"><ele>227.33333333333331</ele><time>2026-03-17T13:37:24Z</time></trkpt><trkpt lat="43.61226576181447" lon="3.166714555668422"><ele>227.0</ele><time>2026-03-17T13:37:25Z</time></trkpt><trkpt lat="43.612294780285524" lon="3.166615620411809"><ele>226.66666666666666</ele><time>2026-03-17T13:37:26Z</time></trkpt><trkpt lat="43.612315436468855" lon="3.1665298930724277"><ele>226.33333333333331</ele><time>2026-03-17T13:37:27Z</time></trkpt><trkpt lat="43.612281260416324" lon="3.166382192185475"><ele>226.0</ele><time>2026-03-17T13:37:29Z</time></trkpt><trkpt lat="43.61216110038225" lon="3.166338829747286"><ele>226.0</ele><time>2026-03-17T13:37:31Z</time></trkpt><trkpt lat="43.61210453927935" lon="3.166408071551312"><ele>226.00000000000003</ele><time>2026-03-17T13:37:32Z</time></trkpt><trkpt lat="43.611990243119656" lon="3.166367237814103"><ele>226.00000000000003</ele><time>2026-03-17T13:37:33Z</time></trkpt><trkpt lat="43.611892109535574" lon="3.1663413707259775"><ele>226.0</ele><time>2026-03-17T13:37:34Z</time></trkpt><trkpt lat="43.61177540597131" lon="3.166307185993092"><ele>226.0</ele><time>2026-03-17T13:37:35Z</time></trkpt><trkpt lat="43.611651106177256" lon="3.1662940148623027"><ele>226.0</ele><time>2026-03-17T13:37:36Z</time></trkpt><trkpt lat="43.61151743252465" lon="3.1662593470333467"><ele>226.0</ele><time>2026-03-17T13:37:37Z</time></trkpt><trkpt lat="43.611391476662185" lon="3.1662318113153356"><ele>226.0</ele><time>2026-03-17T13:37:38Z</time></trkpt><trkpt lat="43.611261397583405" lon="3.1662048294370684"><ele>226.0</ele><time>2026-03-17T13:37:39Z</time></trkpt><trkpt lat="43.61112677471929" lon="3.166178938301149"><ele>225.75</ele><time>2026-03-17T13:37:40Z</time></trkpt><trkpt lat="43.61098805725444" lon="3.166142329003647"><ele>225.5</ele><time>2026-03-17T13:37:41Z</time></trkpt><trkpt lat="43.610849680410006" lon="3.166105680891843"><ele>225.25</ele><time>2026-03-17T13:37:42Z</time></trkpt><trkpt lat="43.61070653935942" lon="3.1660715618686774"><ele>225.0</ele><time>2026-03-17T13:37:43Z</time></trkpt><trkpt lat="43.61056627637168" lon="3.1660268343521825"><ele>225.0</ele><time>2026-03-17T13:37:44Z</time></trkpt><trkpt lat="43.61042735363966" lon="3.1659728681132875"><ele>225.0</ele><time>2026-03-17T13:37:45Z</time></trkpt><trkpt lat="43.610292828778505" lon="3.1659038955574124"><ele>225.0</ele><time>2026-03-17T13:37:46Z</time></trkpt><trkpt lat="43.610160763691496" lon="3.1658310576020146"><ele>225.0</ele><time>2026-03-17T13:37:47Z</time></trkpt><trkpt lat="43.61003015804973" lon="3.1657466748601872"><ele>224.75</ele><time>2026-03-17T13:37:48Z</time></trkpt><trkpt lat="43.609901581285826" lon="3.1656398950392592"><ele>224.5</ele><time>2026-03-17T13:37:49Z</time></trkpt><trkpt lat="43.609776283737034" lon="3.1655305731865835"><ele>224.25</ele><time>2026-03-17T13:37:50Z</time></trkpt><trkpt lat="43.60965293863216" lon="3.165414936569074"><ele>224.0</ele><time>2026-03-17T13:37:51Z</time></trkpt><trkpt lat="43.60953788270406" lon="3.1652982528018554"><ele>222.75</ele><time>2026-03-17T13:37:52Z</time></trkpt><trkpt lat="43.60943358387404" lon="3.1651788359981223"><ele>221.5</ele><time>2026-03-17T13:37:53Z</time></trkpt><trkpt lat="43.60933608617592" lon="3.165073270489917"><ele>220.25</ele><time>2026-03-17T13:37:54Z</time></trkpt><trkpt lat="43.6092488131864" lon="3.1649712788769726"><ele>219.0</ele><time>2026-03-17T13:37:55Z</time></trkpt><trkpt lat="43.60917973747347" lon="3.1648624337368094"><ele>219.0</ele><time>2026-03-17T13:37:56Z</time></trkpt><trkpt lat="43.609134552283294" lon="3.1647584554386556"><ele>218.99999999999997</ele><time>2026-03-17T13:37:57Z</time></trkpt><trkpt lat="43.60911073420044" lon="3.1646637970843186"><ele>218.99999999999997</ele><time>2026-03-17T13:37:58Z</time></trkpt><trkpt lat="43.60906687900864" lon="3.1645622186484137"><ele>219.0</ele><time>2026-03-17T13:38:00Z</time></trkpt><trkpt lat="43.60893822084898" lon="3.16453360087161"><ele>219.0</ele><time>2026-03-17T13:38:02Z</time></trkpt><trkpt lat="43.608855365582976" lon="3.164556863270446"><ele>219.0</ele><time>2026-03-17T13:38:03Z</time></trkpt><trkpt lat="43.608768929014154" lon="3.164570464571204"><ele>218.99999999999997</ele><time>2026-03-17T13:38:04Z</time></trkpt><trkpt lat="43.608668295087504" lon="3.164577258065088"><ele>218.99999999999997</ele><time>2026-03-17T13:38:05Z</time></trkpt><trkpt lat="43.60855811360296" lon="3.1645851364871094"><ele>219.0</ele><time>2026-03-17T13:38:06Z</time></trkpt><trkpt lat="43.60843787970377" lon="3.164590063831328"><ele>219.0</ele><time>2026-03-17T13:38:07Z</time></trkpt><trkpt lat="43.60832960506891" lon="3.164593466554038"><ele>222.25</ele><time>2026-03-17T13:38:08Z</time></trkpt><trkpt lat="43.60821923700798" lon="3.1646015952280435"><ele>225.5</ele><time>2026-03-17T13:38:09Z</time></trkpt><trkpt lat="43.608102896757444" lon="3.164602987321268"><ele>228.75</ele><time>2026-03-17T13:38:10Z</time></trkpt><trkpt lat="43.60798783900873" lon="3.164599594940873"><ele>232.0</ele><time>2026-03-17T13:38:11Z</time></trkpt><trkpt lat="43.60787019875063" lon="3.1645983696484485"><ele>232.25</ele><time>2026-03-17T13:38:12Z</time></trkpt><trkpt lat="43.607750225159556" lon="3.164590652978157"><ele>232.5</ele><time>2026-03-17T13:38:13Z</time></trkpt><trkpt lat="43.60763096529773" lon="3.16457854955691"><ele>232.75</ele><time>2026-03-17T13:38:14Z</time></trkpt><trkpt lat="43.60751280330357" lon="3.1645668195764247"><ele>233.0</ele><time>2026-03-17T13:38:15Z</time></trkpt><trkpt lat="43.60739359200451" lon="3.164549484840514"><ele>233.0</ele><time>2026-03-17T13:38:16Z</time></trkpt><trkpt lat="43.607272375322545" lon="3.164535393220064"><ele>233.0</ele><time>2026-03-17T13:38:17Z</time></trkpt><trkpt lat="43.60715064254136" lon="3.164518154583272"><ele>233.0</ele><time>2026-03-17T13:38:18Z</time></trkpt><trkpt lat="43.607026753040664" lon="3.1645041271030974"><ele>233.0</ele><time>2026-03-17T13:38:19Z</time></trkpt><trkpt lat="43.606909316318614" lon="3.1644852340890792"><ele>233.25</ele><time>2026-03-17T13:38:20Z</time></trkpt><trkpt lat="43.60678488130778" lon="3.1644882315650276"><ele>233.5</ele><time>2026-03-17T13:38:21Z</time></trkpt><trkpt lat="43.60667470738161" lon="3.164483580213733"><ele>233.75</ele><time>2026-03-17T13:38:22Z</time></trkpt><trkpt lat="43.60656337599636" lon="3.164479728869264"><ele>234.0</ele><time>2026-03-17T13:38:23Z</time></trkpt><trkpt lat="43.60645153139375" lon="3.1644901195504715"><ele>234.0</ele><time>2026-03-17T13:38:24Z</time></trkpt><trkpt lat="43.60634013210781" lon="3.1645201741999105"><ele>233.99999999999997</ele><time>2026-03-17T13:38:25Z</time></trkpt><trkpt lat="43.60623215151804" lon="3.1645616366869245"><ele>233.99999999999997</ele><time>2026-03-17T13:38:26Z</time></trkpt><trkpt lat="43.606128622078735" lon="3.164614260547525"><ele>234.0</ele><time>2026-03-17T13:38:27Z</time></trkpt><trkpt lat="43.60602691773312" lon="3.164661703784644"><ele>234.0</ele><time>2026-03-17T13:38:28Z</time></trkpt><trkpt lat="43.60593383192342" lon="3.164712906102089"><ele>235.0</ele><time>2026-03-17T13:38:29Z</time></trkpt><trkpt lat="43.60585079692033" lon="3.16475743160828"><ele>235.99999999999997</ele><time>2026-03-17T13:38:30Z</time></trkpt><trkpt lat="43.60575402602964" lon="3.1647990887712103"><ele>236.99999999999997</ele><time>2026-03-17T13:38:31Z</time></trkpt><trkpt lat="43.605643126547015" lon="3.164837579692907"><ele>238.0</ele><time>2026-03-17T13:38:32Z</time></trkpt><trkpt lat="43.60553104640993" lon="3.1648628653893276"><ele>239.0</ele><time>2026-03-17T13:38:32.999Z</time></trkpt><trkpt lat="43.60540854183012" lon="3.164886366670461"><ele>238.5</ele><time>2026-03-17T13:38:33.999Z</time></trkpt><trkpt lat="43.60528254507865" lon="3.1649251732747894"><ele>238.0</ele><time>2026-03-17T13:38:34.999Z</time></trkpt><trkpt lat="43.60515997897885" lon="3.164963692610596"><ele>237.5</ele><time>2026-03-17T13:38:35.999Z</time></trkpt><trkpt lat="43.60504386827372" lon="3.164994890441165"><ele>237.0</ele><time>2026-03-17T13:38:36.999Z</time></trkpt><trkpt lat="43.604926464003164" lon="3.1650550302537463"><ele>237.0</ele><time>2026-03-17T13:38:37.999Z</time></trkpt><trkpt lat="43.60481816662961" lon="3.165132899148301"><ele>237.0</ele><time>2026-03-17T13:38:38.999Z</time></trkpt><trkpt lat="43.60471376955416" lon="3.1652188639263197"><ele>237.0</ele><time>2026-03-17T13:38:39.999Z</time></trkpt><trkpt lat="43.60460202190298" lon="3.1653193402696385"><ele>237.0</ele><time>2026-03-17T13:38:40.999Z</time></trkpt><trkpt lat="43.604484498141254" lon="3.1654169279163304"><ele>239.5</ele><time>2026-03-17T13:38:41.999Z</time></trkpt><trkpt lat="43.60436341630222" lon="3.165506241103416"><ele>242.0</ele><time>2026-03-17T13:38:42.999Z</time></trkpt><trkpt lat="43.60423994509039" lon="3.16558279483907"><ele>244.5</ele><time>2026-03-17T13:38:43.999Z</time></trkpt><trkpt lat="43.604118637652384" lon="3.165634648868249"><ele>247.0</ele><time>2026-03-17T13:38:44.999Z</time></trkpt><trkpt lat="43.603995042165074" lon="3.165656142645168"><ele>247.0</ele><time>2026-03-17T13:38:45.999Z</time></trkpt><trkpt lat="43.60387098064729" lon="3.1656565605741838"><ele>247.0</ele><time>2026-03-17T13:38:46.999Z</time></trkpt><trkpt lat="43.60375803970951" lon="3.1656182641326445"><ele>247.0</ele><time>2026-03-17T13:38:47.999Z</time></trkpt><trkpt lat="43.60365840117782" lon="3.165551088084164"><ele>247.0</ele><time>2026-03-17T13:38:48.999Z</time></trkpt><trkpt lat="43.60357422067459" lon="3.1654402304725515"><ele>246.5</ele><time>2026-03-17T13:38:49.999Z</time></trkpt><trkpt lat="43.60351335225446" lon="3.165306227327898"><ele>246.0</ele><time>2026-03-17T13:38:50.999Z</time></trkpt><trkpt lat="43.603459528621784" lon="3.1651370935492285"><ele>245.5</ele><time>2026-03-17T13:38:51.999Z</time></trkpt><trkpt lat="43.60339407577419" lon="3.164968403206589"><ele>245.0</ele><time>2026-03-17T13:38:52.999Z</time></trkpt><trkpt lat="43.60331765475202" lon="3.1648013822724166"><ele>248.0</ele><time>2026-03-17T13:38:53.999Z</time></trkpt><trkpt lat="43.60321859974526" lon="3.1646156338330873"><ele>251.0</ele><time>2026-03-17T13:38:54.999Z</time></trkpt><trkpt lat="43.60309844014285" lon="3.164448338080435"><ele>254.0</ele><time>2026-03-17T13:38:55.999Z</time></trkpt><trkpt lat="43.6029762064207" lon="3.164286788700727"><ele>254.0</ele><time>2026-03-17T13:38:56.999Z</time></trkpt><trkpt lat="43.60287933053045" lon="3.16414744853877"><ele>254.0</ele><time>2026-03-17T13:38:57.999Z</time></trkpt><trkpt lat="43.6027808701364" lon="3.16402086804479"><ele>254.0</ele><time>2026-03-17T13:38:58.999Z</time></trkpt><trkpt lat="43.602665887503335" lon="3.163903793507427"><ele>254.0</ele><time>2026-03-17T13:38:59.999Z</time></trkpt><trkpt lat="43.602548781388364" lon="3.1637996895294225"><ele>255.0</ele><time>2026-03-17T13:39:01Z</time></trkpt><trkpt lat="43.60243132390912" lon="3.1637108449446627"><ele>256.0</ele><time>2026-03-17T13:39:02Z</time></trkpt><trkpt lat="43.60229883403625" lon="3.163630943221517"><ele>257.0</ele><time>2026-03-17T13:39:03Z</time></trkpt><trkpt lat="43.60215358479781" lon="3.16358061685455"><ele>258.0</ele><time>2026-03-17T13:39:04Z</time></trkpt><trkpt lat="43.60200547107813" lon="3.163540008856417"><ele>258.0</ele><time>2026-03-17T13:39:05Z</time></trkpt><trkpt lat="43.60185145443797" lon="3.1635155857847894"><ele>258.0</ele><time>2026-03-17T13:39:06Z</time></trkpt><trkpt lat="43.60169078266594" lon="3.1635165179804705"><ele>258.0</ele><time>2026-03-17T13:39:07Z</time></trkpt><trkpt lat="43.60152182292218" lon="3.163538436963875"><ele>258.0</ele><time>2026-03-17T13:39:08Z</time></trkpt><trkpt lat="43.60135986793663" lon="3.1635831914397103"><ele>258.0</ele><time>2026-03-17T13:39:09Z</time></trkpt><trkpt lat="43.60121001647513" lon="3.1636467802058936"><ele>258.0</ele><time>2026-03-17T13:39:10Z</time></trkpt><trkpt lat="43.601069410118065" lon="3.1637431629825583"><ele>259.3333333333333</ele><time>2026-03-17T13:39:11Z</time></trkpt><trkpt lat="43.6009275812192" lon="3.163863650932079"><ele>260.66666666666663</ele><time>2026-03-17T13:39:12Z</time></trkpt><trkpt lat="43.60079302865294" lon="3.16400095256956"><ele>262.0</ele><time>2026-03-17T13:39:13Z</time></trkpt><trkpt lat="43.600667088167114" lon="3.164143130550529"><ele>262.0</ele><time>2026-03-17T13:39:14Z</time></trkpt><trkpt lat="43.600552661831784" lon="3.1643045658720634"><ele>262.0</ele><time>2026-03-17T13:39:15Z</time></trkpt><trkpt lat="43.60043837437252" lon="3.1644867842785738"><ele>262.0</ele><time>2026-03-17T13:39:16Z</time></trkpt><trkpt lat="43.6003304843626" lon="3.164677908286781"><ele>265.66666666666663</ele><time>2026-03-17T13:39:17Z</time></trkpt><trkpt lat="43.600229460662504" lon="3.16485466609403"><ele>269.3333333333333</ele><time>2026-03-17T13:39:18Z</time></trkpt><trkpt lat="43.60014866720358" lon="3.165029511193288"><ele>273.0</ele><time>2026-03-17T13:39:19Z</time></trkpt><trkpt lat="43.6000926487433" lon="3.165223289635046"><ele>273.0</ele><time>2026-03-17T13:39:20Z</time></trkpt><trkpt lat="43.60005414903621" lon="3.1654413585139873"><ele>273.0</ele><time>2026-03-17T13:39:21Z</time></trkpt><trkpt lat="43.600031595909996" lon="3.1656626899108162"><ele>273.0</ele><time>2026-03-17T13:39:22Z</time></trkpt><trkpt lat="43.60001856584126" lon="3.1658560445552673"><ele>273.25</ele><time>2026-03-17T13:39:23Z</time></trkpt><trkpt lat="43.59996857306921" lon="3.1660320135844238"><ele>273.5</ele><time>2026-03-17T13:39:24Z</time></trkpt><trkpt lat="43.599889114536744" lon="3.1661779219161876"><ele>273.75</ele><time>2026-03-17T13:39:25Z</time></trkpt><trkpt lat="43.59981214687002" lon="3.1663088139288815"><ele>274.0</ele><time>2026-03-17T13:39:26Z</time></trkpt><trkpt lat="43.59974810654275" lon="3.166468222149397"><ele>273.0</ele><time>2026-03-17T13:39:27Z</time></trkpt><trkpt lat="43.59971350909201" lon="3.166653495013653"><ele>272.0</ele><time>2026-03-17T13:39:28Z</time></trkpt><trkpt lat="43.59971001358553" lon="3.1668535397446904"><ele>271.0</ele><time>2026-03-17T13:39:29Z</time></trkpt><trkpt lat="43.5997355866081" lon="3.1670532967293292"><ele>270.0</ele><time>2026-03-17T13:39:30Z</time></trkpt><trkpt lat="43.59975889770183" lon="3.1672251661041866"><ele>270.25</ele><time>2026-03-17T13:39:31Z</time></trkpt><trkpt lat="43.59974830468224" lon="3.1673691481637842"><ele>270.5</ele><time>2026-03-17T13:39:32Z</time></trkpt><trkpt lat="43.59970369756704" lon="3.1675062420623608"><ele>270.75</ele><time>2026-03-17T13:39:33Z</time></trkpt><trkpt lat="43.59962694337011" lon="3.167631499270922"><ele>271.0</ele><time>2026-03-17T13:39:34Z</time></trkpt><trkpt lat="43.59953922851197" lon="3.1677516585277896"><ele>275.8</ele><time>2026-03-17T13:39:35Z</time></trkpt><trkpt lat="43.599462716309" lon="3.167865285282491"><ele>280.6</ele><time>2026-03-17T13:39:36Z</time></trkpt><trkpt lat="43.59942048666098" lon="3.16799076652663"><ele>285.4</ele><time>2026-03-17T13:39:37Z</time></trkpt><trkpt lat="43.59940372858422" lon="3.1681400769282684"><ele>290.2</ele><time>2026-03-17T13:39:38Z</time></trkpt><trkpt lat="43.59942073681801" lon="3.168292965141601"><ele>295.0</ele><time>2026-03-17T13:39:39Z</time></trkpt><trkpt lat="43.59946453590095" lon="3.168433103766074"><ele>290.5</ele><time>2026-03-17T13:39:40Z</time></trkpt><trkpt lat="43.59953537730127" lon="3.168552382461404"><ele>286.0</ele><time>2026-03-17T13:39:41Z</time></trkpt><trkpt lat="43.59963032031341" lon="3.168635890004785"><ele>281.5</ele><time>2026-03-17T13:39:42Z</time></trkpt><trkpt lat="43.59973830521656" lon="3.1686877254598613"><ele>277.0</ele><time>2026-03-17T13:39:43Z</time></trkpt><trkpt lat="43.59984658198878" lon="3.1687376573627826"><ele>277.0</ele><time>2026-03-17T13:39:44Z</time></trkpt><trkpt lat="43.59994717494575" lon="3.1688005411269202"><ele>277.0</ele><time>2026-03-17T13:39:45Z</time></trkpt><trkpt lat="43.600031254784255" lon="3.168906305001313"><ele>277.0</ele><time>2026-03-17T13:39:46Z</time></trkpt><trkpt lat="43.60009631186288" lon="3.1690384383884047"><ele>277.0</ele><time>2026-03-17T13:39:47Z</time></trkpt><trkpt lat="43.60012917557313" lon="3.1691885105853492"><ele>281.5</ele><time>2026-03-17T13:39:48Z</time></trkpt><trkpt lat="43.600147078845836" lon="3.1693490832634317"><ele>286.0</ele><time>2026-03-17T13:39:49Z</time></trkpt><trkpt lat="43.600143101964036" lon="3.1695150252888893"><ele>290.5</ele><time>2026-03-17T13:39:50Z</time></trkpt><trkpt lat="43.60013734536849" lon="3.169688755385747"><ele>295.0</ele><time>2026-03-17T13:39:51Z</time></trkpt><trkpt lat="43.60013302059079" lon="3.16985909233579"><ele>296.75</ele><time>2026-03-17T13:39:52Z</time></trkpt><trkpt lat="43.60011187021892" lon="3.1700322860149557"><ele>298.5</ele><time>2026-03-17T13:39:53Z</time></trkpt><trkpt lat="43.600086083763664" lon="3.1702109334531308"><ele>300.25</ele><time>2026-03-17T13:39:54Z</time></trkpt><trkpt lat="43.59999466902732" lon="3.1703827530029467"><ele>302.0</ele><time>2026-03-17T13:39:55Z</time></trkpt><trkpt lat="43.599910568412234" lon="3.170565507910003"><ele>300.0</ele><time>2026-03-17T13:39:56Z</time></trkpt><trkpt lat="43.59985383185961" lon="3.1707480600354705"><ele>298.0</ele><time>2026-03-17T13:39:57Z</time></trkpt><trkpt lat="43.599812181028504" lon="3.170955567484352"><ele>296.0</ele><time>2026-03-17T13:39:58Z</time></trkpt><trkpt lat="43.599787075775616" lon="3.1711291594375157"><ele>294.0</ele><time>2026-03-17T13:39:59Z</time></trkpt><trkpt lat="43.59976133216216" lon="3.1712923646766895"><ele>294.0</ele><time>2026-03-17T13:40:00Z</time></trkpt><trkpt lat="43.59971906683056" lon="3.171439252004343"><ele>294.0</ele><time>2026-03-17T13:40:01Z</time></trkpt><trkpt lat="43.59963819575875" lon="3.171565779637463"><ele>294.0</ele><time>2026-03-17T13:40:02Z</time></trkpt><trkpt lat="43.59954109906999" lon="3.1716591331898423"><ele>294.0</ele><time>2026-03-17T13:40:03Z</time></trkpt><trkpt lat="43.5994293796572" lon="3.1717067002057284"><ele>297.0</ele><time>2026-03-17T13:40:04Z</time></trkpt><trkpt lat="43.59930949209746" lon="3.1717067211749854"><ele>300.0</ele><time>2026-03-17T13:40:05Z</time></trkpt><trkpt lat="43.59919109758189" lon="3.171658795537482"><ele>303.0</ele><time>2026-03-17T13:40:06Z</time></trkpt><trkpt lat="43.599077588763976" lon="3.1715956860998586"><ele>306.0</ele><time>2026-03-17T13:40:07Z</time></trkpt><trkpt lat="43.59897163014858" lon="3.1715558155424852"><ele>306.0</ele><time>2026-03-17T13:40:08Z</time></trkpt><trkpt lat="43.59886038982818" lon="3.171558098565874"><ele>306.0</ele><time>2026-03-17T13:40:09Z</time></trkpt><trkpt lat="43.59874704010324" lon="3.1716091897351313"><ele>306.0</ele><time>2026-03-17T13:40:10Z</time></trkpt><trkpt lat="43.59865206417134" lon="3.1716938370649452"><ele>306.0</ele><time>2026-03-17T13:40:11Z</time></trkpt><trkpt lat="43.598569568006766" lon="3.1718068140645133"><ele>307.5</ele><time>2026-03-17T13:40:12Z</time></trkpt><trkpt lat="43.59849892299106" lon="3.171952138562023"><ele>309.0</ele><time>2026-03-17T13:40:13Z</time></trkpt><trkpt lat="43.598448004471614" lon="3.172119828166429"><ele>310.5</ele><time>2026-03-17T13:40:14Z</time></trkpt><trkpt lat="43.598387223519794" lon="3.1722882115253013"><ele>312.0</ele><time>2026-03-17T13:40:15Z</time></trkpt><trkpt lat="43.59832199507086" lon="3.172439867470767"><ele>312.0</ele><time>2026-03-17T13:40:16Z</time></trkpt><trkpt lat="43.59823563459886" lon="3.172575646153176"><ele>312.0</ele><time>2026-03-17T13:40:17Z</time></trkpt><trkpt lat="43.598130607355515" lon="3.17269467467795"><ele>312.0</ele><time>2026-03-17T13:40:18Z</time></trkpt><trkpt lat="43.59801774145143" lon="3.1728028235827064"><ele>312.0</ele><time>2026-03-17T13:40:19Z</time></trkpt><trkpt lat="43.597897018850745" lon="3.172888755290125"><ele>319.3333333333333</ele><time>2026-03-17T13:40:20Z</time></trkpt><trkpt lat="43.59776095470712" lon="3.1729654780790715"><ele>326.66666666666663</ele><time>2026-03-17T13:40:21Z</time></trkpt><trkpt lat="43.597605760274085" lon="3.173006978391557"><ele>334.0</ele><time>2026-03-17T13:40:22Z</time></trkpt><trkpt lat="43.59744118825635" lon="3.173046124873626"><ele>334.0</ele><time>2026-03-17T13:40:23Z</time></trkpt><trkpt lat="43.59726767281744" lon="3.1731015331767685"><ele>334.0</ele><time>2026-03-17T13:40:24Z</time></trkpt><trkpt lat="43.59709269241426" lon="3.1731838022256555"><ele>334.0</ele><time>2026-03-17T13:40:25Z</time></trkpt><trkpt lat="43.59692200155303" lon="3.1732713308752993"><ele>333.0</ele><time>2026-03-17T13:40:26Z</time></trkpt><trkpt lat="43.59675078698896" lon="3.1733829376374594"><ele>332.0</ele><time>2026-03-17T13:40:27Z</time></trkpt><trkpt lat="43.59659257900978" lon="3.1734823108141974"><ele>331.0</ele><time>2026-03-17T13:40:28Z</time></trkpt><trkpt lat="43.596434758357795" lon="3.1735482983302736"><ele>331.0</ele><time>2026-03-17T13:40:29Z</time></trkpt><trkpt lat="43.596255350198795" lon="3.173600820254673"><ele>331.0</ele><time>2026-03-17T13:40:30Z</time></trkpt><trkpt lat="43.59605933513402" lon="3.1736275966762766"><ele>331.0</ele><time>2026-03-17T13:40:31Z</time></trkpt><trkpt lat="43.59586841004467" lon="3.173646084002673"><ele>335.0</ele><time>2026-03-17T13:40:32Z</time></trkpt><trkpt lat="43.595681813947245" lon="3.1736618464874726"><ele>339.0</ele><time>2026-03-17T13:40:33Z</time></trkpt><trkpt lat="43.595501210703944" lon="3.1736742931236837"><ele>343.0</ele><time>2026-03-17T13:40:34Z</time></trkpt><trkpt lat="43.59532869252454" lon="3.1736613523287898"><ele>344.66666666666663</ele><time>2026-03-17T13:40:35Z</time></trkpt><trkpt lat="43.59514968617413" lon="3.173619073183226"><ele>346.3333333333333</ele><time>2026-03-17T13:40:36Z</time></trkpt><trkpt lat="43.59497531853093" lon="3.173561097850208"><ele>348.0</ele><time>2026-03-17T13:40:37Z</time></trkpt><trkpt lat="43.5947987490101" lon="3.1734918152019347"><ele>348.0</ele><time>2026-03-17T13:40:38Z</time></trkpt><trkpt lat="43.59463334766319" lon="3.173426465310696"><ele>348.0</ele><time>2026-03-17T13:40:39Z</time></trkpt><trkpt lat="43.59447731554725" lon="3.173368728578819"><ele>348.0</ele><time>2026-03-17T13:40:40Z</time></trkpt><trkpt lat="43.59432386958749" lon="3.173329712681517"><ele>347.75</ele><time>2026-03-17T13:40:41Z</time></trkpt><trkpt lat="43.5941781142617" lon="3.1733134058647505"><ele>347.5</ele><time>2026-03-17T13:40:42Z</time></trkpt><trkpt lat="43.59403930463757" lon="3.1733116705293636"><ele>347.25</ele><time>2026-03-17T13:40:42.999Z</time></trkpt><trkpt lat="43.59390177307911" lon="3.173308034039958"><ele>347.0</ele><time>2026-03-17T13:40:43.999Z</time></trkpt><trkpt lat="43.593774917964915" lon="3.1732954352601754"><ele>348.0</ele><time>2026-03-17T13:40:44.999Z</time></trkpt><trkpt lat="43.59365037680172" lon="3.1732797382146076"><ele>349.0</ele><time>2026-03-17T13:40:45.999Z</time></trkpt><trkpt lat="43.593528999211976" lon="3.1732477745504286"><ele>350.0</ele><time>2026-03-17T13:40:46.999Z</time></trkpt><trkpt lat="43.5934176984502" lon="3.1732069869512523"><ele>351.0</ele><time>2026-03-17T13:40:47.999Z</time></trkpt><trkpt lat="43.593311185997" lon="3.173166617766984"><ele>353.0</ele><time>2026-03-17T13:40:48.999Z</time></trkpt><trkpt lat="43.59320781815037" lon="3.173126472682118"><ele>355.0</ele><time>2026-03-17T13:40:49.999Z</time></trkpt><trkpt lat="43.59311192800988" lon="3.1730855685383195"><ele>357.0</ele><time>2026-03-17T13:40:50.999Z</time></trkpt><trkpt lat="43.59301272800863" lon="3.1730428500781853"><ele>359.0</ele><time>2026-03-17T13:40:51.999Z</time></trkpt><trkpt lat="43.59290790766262" lon="3.1729952242917103"><ele>361.0</ele><time>2026-03-17T13:40:52.999Z</time></trkpt><trkpt lat="43.592801801147765" lon="3.1729186846096455"><ele>367.0</ele><time>2026-03-17T13:40:54.018Z</time></trkpt><trkpt lat="43.59268788039604" lon="3.172860281913654"><ele>373.0</ele><time>2026-03-17T13:40:55.023Z</time></trkpt><trkpt lat="43.59257319871135" lon="3.172800282346196"><ele>379.0</ele><time>2026-03-17T13:40:56.021Z</time></trkpt><trkpt lat="43.591116196516516" lon="3.1722052674770094"><ele>379.0</ele><time>2026-03-17T13:41:08.999Z</time></trkpt><trkpt lat="43.591019967500465" lon="3.1721541976370164"><ele>379.0</ele><time>2026-03-17T13:41:09.999Z</time></trkpt><trkpt lat="43.59241194744452" lon="3.1727051219737965"><ele>379.0</ele><time>2026-03-17T13:41:10.999Z</time></trkpt><trkpt lat="43.592163773702886" lon="3.1725924813920847"><ele>379.0</ele><time>2026-03-17T13:41:11.999Z</time></trkpt><trkpt lat="43.5919416354678" lon="3.1724593503833876"><ele>371.0</ele><time>2026-03-17T13:41:12.999Z</time></trkpt><trkpt lat="43.591416795227794" lon="3.172238502628342"><ele>371.0</ele><time>2026-03-17T13:41:13.999Z</time></trkpt><trkpt lat="43.59118362132345" lon="3.17209784412881"><ele>371.0</ele><time>2026-03-17T13:41:15Z</time></trkpt><trkpt lat="43.5909762166478" lon="3.1719684939870234"><ele>346.0</ele><time>2026-03-17T13:41:16Z</time></trkpt><trkpt lat="43.59063717238018" lon="3.171435953911991"><ele>346.0</ele><time>2026-03-17T13:41:17Z</time></trkpt><trkpt lat="43.590431490022" lon="3.1710638792615025"><ele>346.0</ele><time>2026-03-17T13:41:18Z</time></trkpt><trkpt lat="43.59030170963648" lon="3.170841408545291"><ele>343.25</ele><time>2026-03-17T13:41:19Z</time></trkpt><trkpt lat="43.59022333620315" lon="3.170687168314872"><ele>340.5</ele><time>2026-03-17T13:41:20Z</time></trkpt><trkpt lat="43.59013882562357" lon="3.170548603093305"><ele>337.75</ele><time>2026-03-17T13:41:21Z</time></trkpt><trkpt lat="43.59007590038655" lon="3.170468415835422"><ele>335.0</ele><time>2026-03-17T13:41:22Z</time></trkpt><trkpt lat="43.58997322349687" lon="3.1704304945179818"><ele>335.0</ele><time>2026-03-17T13:41:23Z</time></trkpt><trkpt lat="43.58987159346741" lon="3.170437250217669"><ele>335.0</ele><time>2026-03-17T13:41:24Z</time></trkpt><trkpt lat="43.58979557708489" lon="3.1704240816297964"><ele>335.0</ele><time>2026-03-17T13:41:25Z</time></trkpt><trkpt lat="43.58967707018884" lon="3.1705366070100593"><ele>335.0</ele><time>2026-03-17T13:41:26Z</time></trkpt><trkpt lat="43.58958236052118" lon="3.1707002816998924"><ele>332.0</ele><time>2026-03-17T13:41:27Z</time></trkpt><trkpt lat="43.58948399476019" lon="3.1708202795442677"><ele>329.0</ele><time>2026-03-17T13:41:28Z</time></trkpt><trkpt lat="43.5893578995259" lon="3.170921571960004"><ele>326.0</ele><time>2026-03-17T13:41:29Z</time></trkpt><trkpt lat="43.58921275820973" lon="3.170982403255167"><ele>323.0</ele><time>2026-03-17T13:41:30Z</time></trkpt><trkpt lat="43.5890580720475" lon="3.171035329934807"><ele>323.0</ele><time>2026-03-17T13:41:31Z</time></trkpt><trkpt lat="43.588910129831994" lon="3.1711001457219528"><ele>323.0</ele><time>2026-03-17T13:41:32Z</time></trkpt><trkpt lat="43.58877262498775" lon="3.1711710903575114"><ele>323.0</ele><time>2026-03-17T13:41:33Z</time></trkpt><trkpt lat="43.58865390480845" lon="3.1712293879273292"><ele>323.0</ele><time>2026-03-17T13:41:34Z</time></trkpt><trkpt lat="43.58856304594294" lon="3.171233236930312"><ele>321.0</ele><time>2026-03-17T13:41:35Z</time></trkpt><trkpt lat="43.58846563243269" lon="3.1711949697178565"><ele>319.0</ele><time>2026-03-17T13:41:36Z</time></trkpt><trkpt lat="43.588387524901094" lon="3.1711087713271358"><ele>317.0</ele><time>2026-03-17T13:41:37Z</time></trkpt><trkpt lat="43.5883279458537" lon="3.170936902725719"><ele>315.0</ele><time>2026-03-17T13:41:38Z</time></trkpt><trkpt lat="43.58828696824153" lon="3.1707912316660405"><ele>316.6</ele><time>2026-03-17T13:41:39Z</time></trkpt><trkpt lat="43.58824458731697" lon="3.170676465828063"><ele>318.2</ele><time>2026-03-17T13:41:40Z</time></trkpt><trkpt lat="43.588174106117506" lon="3.1706011755993297"><ele>319.79999999999995</ele><time>2026-03-17T13:41:41Z</time></trkpt><trkpt lat="43.58808106942135" lon="3.1705750740383545"><ele>321.4</ele><time>2026-03-17T13:41:42Z</time></trkpt><trkpt lat="43.58797311434604" lon="3.170609572124397"><ele>323.0</ele><time>2026-03-17T13:41:43Z</time></trkpt><trkpt lat="43.58786253367347" lon="3.170656418838422"><ele>320.2</ele><time>2026-03-17T13:41:44Z</time></trkpt><trkpt lat="43.58775342324052" lon="3.1706830523954688"><ele>317.4</ele><time>2026-03-17T13:41:45Z</time></trkpt><trkpt lat="43.58766867722582" lon="3.1706420673213085"><ele>314.59999999999997</ele><time>2026-03-17T13:41:46Z</time></trkpt><trkpt lat="43.58757293789567" lon="3.170548891291401"><ele>311.79999999999995</ele><time>2026-03-17T13:41:47Z</time></trkpt><trkpt lat="43.587493425298966" lon="3.1704053374097936"><ele>309.0</ele><time>2026-03-17T13:41:48Z</time></trkpt><trkpt lat="43.587404714469045" lon="3.170229337017245"><ele>309.0</ele><time>2026-03-17T13:41:49Z</time></trkpt><trkpt lat="43.587324801689455" lon="3.1700574013726546"><ele>309.0</ele><time>2026-03-17T13:41:50Z</time></trkpt><trkpt lat="43.58721404362005" lon="3.1699228098368017"><ele>309.0</ele><time>2026-03-17T13:41:51Z</time></trkpt><trkpt lat="43.587108664077114" lon="3.1698303784547854"><ele>309.0</ele><time>2026-03-17T13:41:52Z</time></trkpt><trkpt lat="43.587037747134424" lon="3.1697348078236556"><ele>308.8</ele><time>2026-03-17T13:41:53Z</time></trkpt><trkpt lat="43.58700434784517" lon="3.169611330502301"><ele>308.59999999999997</ele><time>2026-03-17T13:41:54Z</time></trkpt><trkpt lat="43.58700759405087" lon="3.1694743634014046"><ele>308.4</ele><time>2026-03-17T13:41:55Z</time></trkpt><trkpt lat="43.58703238856155" lon="3.169320925862117"><ele>308.2</ele><time>2026-03-17T13:41:56Z</time></trkpt><trkpt lat="43.5870974911651" lon="3.1691586302197714"><ele>308.0</ele><time>2026-03-17T13:41:57Z</time></trkpt><trkpt lat="43.58718011936044" lon="3.1689799545270243"><ele>308.0</ele><time>2026-03-17T13:41:58Z</time></trkpt><trkpt lat="43.58726002482791" lon="3.1687788349121044"><ele>308.0</ele><time>2026-03-17T13:41:59Z</time></trkpt><trkpt lat="43.5873460033026" lon="3.1685878810633934"><ele>308.0</ele><time>2026-03-17T13:42:00Z</time></trkpt><trkpt lat="43.58740670506981" lon="3.1684667809891987"><ele>308.0</ele><time>2026-03-17T13:42:01Z</time></trkpt><trkpt lat="43.58743983932175" lon="3.1683082801184566"><ele>306.5</ele><time>2026-03-17T13:42:02Z</time></trkpt><trkpt lat="43.58744230511783" lon="3.1681750164926745"><ele>305.0</ele><time>2026-03-17T13:42:03Z</time></trkpt><trkpt lat="43.587397991220335" lon="3.1680199760061845"><ele>303.5</ele><time>2026-03-17T13:42:04Z</time></trkpt><trkpt lat="43.58733356707328" lon="3.167902147809203"><ele>302.0</ele><time>2026-03-17T13:42:05Z</time></trkpt><trkpt lat="43.58722063280765" lon="3.167804476562619"><ele>302.0</ele><time>2026-03-17T13:42:06Z</time></trkpt><trkpt lat="43.58708423519733" lon="3.167749599230386"><ele>302.0</ele><time>2026-03-17T13:42:07Z</time></trkpt><trkpt lat="43.58692814824518" lon="3.167736308292113"><ele>302.0</ele><time>2026-03-17T13:42:08Z</time></trkpt><trkpt lat="43.586750549757" lon="3.1677321152125697"><ele>300.0</ele><time>2026-03-17T13:42:09Z</time></trkpt><trkpt lat="43.586579536522244" lon="3.167696819107297"><ele>298.0</ele><time>2026-03-17T13:42:10Z</time></trkpt><trkpt lat="43.58638369893502" lon="3.1676501023745867"><ele>296.0</ele><time>2026-03-17T13:42:11Z</time></trkpt><trkpt lat="43.586188642093965" lon="3.167607812057172"><ele>294.0</ele><time>2026-03-17T13:42:12Z</time></trkpt><trkpt lat="43.586007084259954" lon="3.1675911920346103"><ele>292.0</ele><time>2026-03-17T13:42:13Z</time></trkpt><trkpt lat="43.58583093740657" lon="3.1675624560153923"><ele>290.0</ele><time>2026-03-17T13:42:14Z</time></trkpt><trkpt lat="43.58566358681757" lon="3.167540822014493"><ele>290.0</ele><time>2026-03-17T13:42:15Z</time></trkpt><trkpt lat="43.585482682339894" lon="3.1675136079460584"><ele>290.0</ele><time>2026-03-17T13:42:16Z</time></trkpt><trkpt lat="43.58530183977717" lon="3.1674756089585623"><ele>290.0</ele><time>2026-03-17T13:42:17Z</time></trkpt><trkpt lat="43.58512679992446" lon="3.1673898361226898"><ele>290.33333333333337</ele><time>2026-03-17T13:42:18Z</time></trkpt><trkpt lat="43.58495998408025" lon="3.167320732582228"><ele>290.6666666666667</ele><time>2026-03-17T13:42:19Z</time></trkpt><trkpt lat="43.584792915203934" lon="3.167233176062769"><ele>291.0</ele><time>2026-03-17T13:42:20Z</time></trkpt><trkpt lat="43.58463534605427" lon="3.1671876765313844"><ele>293.6666666666667</ele><time>2026-03-17T13:42:21Z</time></trkpt><trkpt lat="43.58445769408331" lon="3.1671891204992066"><ele>296.33333333333337</ele><time>2026-03-17T13:42:22Z</time></trkpt><trkpt lat="43.584289952371726" lon="3.1671762878840433"><ele>299.0</ele><time>2026-03-17T13:42:23Z</time></trkpt><trkpt lat="43.58410636902318" lon="3.1672260851974547"><ele>299.0</ele><time>2026-03-17T13:42:24Z</time></trkpt><trkpt lat="43.583927510784676" lon="3.167265446541312"><ele>299.0</ele><time>2026-03-17T13:42:25Z</time></trkpt><trkpt lat="43.583790750894224" lon="3.167301943276731"><ele>299.0</ele><time>2026-03-17T13:42:26Z</time></trkpt><trkpt lat="43.58363106685906" lon="3.167318860271432"><ele>300.33333333333337</ele><time>2026-03-17T13:42:27Z</time></trkpt><trkpt lat="43.583465598850196" lon="3.1672861083389843"><ele>301.6666666666667</ele><time>2026-03-17T13:42:28Z</time></trkpt><trkpt lat="43.583293620948716" lon="3.167228121719325"><ele>303.0</ele><time>2026-03-17T13:42:29Z</time></trkpt><trkpt lat="43.583123194129556" lon="3.1672115590628653"><ele>303.0</ele><time>2026-03-17T13:42:30Z</time></trkpt><trkpt lat="43.58298165161514" lon="3.1671868694603043"><ele>303.0</ele><time>2026-03-17T13:42:31Z</time></trkpt><trkpt lat="43.58282642452714" lon="3.167211660009599"><ele>303.0</ele><time>2026-03-17T13:42:32Z</time></trkpt><trkpt lat="43.58266214319745" lon="3.167259832890511"><ele>302.6666666666667</ele><time>2026-03-17T13:42:33Z</time></trkpt><trkpt lat="43.58250144194648" lon="3.167328655064648"><ele>302.33333333333337</ele><time>2026-03-17T13:42:34Z</time></trkpt><trkpt lat="43.582357650371165" lon="3.1674225438757375"><ele>302.0</ele><time>2026-03-17T13:42:35Z</time></trkpt><trkpt lat="43.582217534586164" lon="3.1675012954258572"><ele>294.0</ele><time>2026-03-17T13:42:36Z</time></trkpt><trkpt lat="43.58206765783777" lon="3.167598142584428"><ele>286.0</ele><time>2026-03-17T13:42:37Z</time></trkpt><trkpt lat="43.581928300885686" lon="3.167692210437293"><ele>278.0</ele><time>2026-03-17T13:42:38Z</time></trkpt><trkpt lat="43.58180252517543" lon="3.1677506160875564"><ele>278.0</ele><time>2026-03-17T13:42:39Z</time></trkpt><trkpt lat="43.581662669180396" lon="3.1677818615425943"><ele>278.0</ele><time>2026-03-17T13:42:40Z</time></trkpt><trkpt lat="43.581508275446744" lon="3.1677938427726953"><ele>278.0</ele><time>2026-03-17T13:42:41Z</time></trkpt><trkpt lat="43.58134765896988" lon="3.167790037910985"><ele>278.0</ele><time>2026-03-17T13:42:42Z</time></trkpt><trkpt lat="43.58119299657909" lon="3.167763946419957"><ele>278.0</ele><time>2026-03-17T13:42:43Z</time></trkpt><trkpt lat="43.581057666221426" lon="3.167716275198008"><ele>278.0</ele><time>2026-03-17T13:42:44Z</time></trkpt><trkpt lat="43.580939357363384" lon="3.1676540074031383"><ele>278.0</ele><time>2026-03-17T13:42:45Z</time></trkpt><trkpt lat="43.580836804154686" lon="3.1675852436044964"><ele>277.0</ele><time>2026-03-17T13:42:46Z</time></trkpt><trkpt lat="43.580761247507255" lon="3.167525482236654"><ele>276.0</ele><time>2026-03-17T13:42:47Z</time></trkpt><trkpt lat="43.58068185078174" lon="3.167420648030711"><ele>275.0</ele><time>2026-03-17T13:42:49Z</time></trkpt><trkpt lat="43.58061498792097" lon="3.1673698164562434"><ele>274.0</ele><time>2026-03-17T13:42:52Z</time></trkpt><trkpt lat="43.58054956990364" lon="3.1673085081090484"><ele>273.0</ele><time>2026-03-17T13:42:54Z</time></trkpt><trkpt lat="43.58039745429252" lon="3.167421630270105"><ele>272.75</ele><time>2026-03-17T13:42:55.999Z</time></trkpt><trkpt lat="43.58030024173148" lon="3.167522014706736"><ele>272.5</ele><time>2026-03-17T13:42:56.999Z</time></trkpt><trkpt lat="43.58019134688136" lon="3.1676243184125945"><ele>272.25</ele><time>2026-03-17T13:42:57.999Z</time></trkpt><trkpt lat="43.58009020920931" lon="3.1677300021004027"><ele>272.0</ele><time>2026-03-17T13:42:58.999Z</time></trkpt><trkpt lat="43.5799733726001" lon="3.167852265253469"><ele>272.0</ele><time>2026-03-17T13:42:59.999Z</time></trkpt><trkpt lat="43.579839398323465" lon="3.1679869512784613"><ele>272.0</ele><time>2026-03-17T13:43:00.999Z</time></trkpt><trkpt lat="43.579697363271755" lon="3.1681307605532583"><ele>272.0</ele><time>2026-03-17T13:43:01.999Z</time></trkpt><trkpt lat="43.579567492471305" lon="3.168251817406698"><ele>275.33333333333337</ele><time>2026-03-17T13:43:02.999Z</time></trkpt><trkpt lat="43.579414693191076" lon="3.168407665334233"><ele>278.6666666666667</ele><time>2026-03-17T13:43:03.999Z</time></trkpt><trkpt lat="43.57926705876582" lon="3.1685556025721153"><ele>282.0</ele><time>2026-03-17T13:43:04.999Z</time></trkpt><trkpt lat="43.57911303695607" lon="3.1687052655376116"><ele>282.0</ele><time>2026-03-17T13:43:05.999Z</time></trkpt><trkpt lat="43.57895300192104" lon="3.1688805425750477"><ele>282.0</ele><time>2026-03-17T13:43:06.999Z</time></trkpt><trkpt lat="43.5787792339634" lon="3.1690492356624347"><ele>282.0</ele><time>2026-03-17T13:43:07.999Z</time></trkpt><trkpt lat="43.578612452517255" lon="3.169223061395888"><ele>282.3333333333333</ele><time>2026-03-17T13:43:08.999Z</time></trkpt><trkpt lat="43.57843372924299" lon="3.1694133446561463"><ele>282.66666666666663</ele><time>2026-03-17T13:43:09.999Z</time></trkpt><trkpt lat="43.57825466961205" lon="3.1695908698993165"><ele>283.0</ele><time>2026-03-17T13:43:10.999Z</time></trkpt><trkpt lat="43.57806781789272" lon="3.169784121076823"><ele>288.0</ele><time>2026-03-17T13:43:11.999Z</time></trkpt><trkpt lat="43.577879272836476" lon="3.169959380857333"><ele>293.0</ele><time>2026-03-17T13:43:12.999Z</time></trkpt><trkpt lat="43.57767900327236" lon="3.1700985967393795"><ele>293.0</ele><time>2026-03-17T13:43:13.999Z</time></trkpt><trkpt lat="43.57746213681974" lon="3.1702152613107555"><ele>293.0</ele><time>2026-03-17T13:43:14.999Z</time></trkpt><trkpt lat="43.577235222257166" lon="3.1703143834551155"><ele>294.0</ele><time>2026-03-17T13:43:15.999Z</time></trkpt><trkpt lat="43.576995418504055" lon="3.170402157287526"><ele>295.0</ele><time>2026-03-17T13:43:16.999Z</time></trkpt><trkpt lat="43.57675505761931" lon="3.1704767648653784"><ele>295.0</ele><time>2026-03-17T13:43:17.999Z</time></trkpt><trkpt lat="43.57650846457938" lon="3.1705514939774964"><ele>295.0</ele><time>2026-03-17T13:43:18.999Z</time></trkpt><trkpt lat="43.57626620288866" lon="3.170620308936745"><ele>305.0</ele><time>2026-03-17T13:43:19.999Z</time></trkpt><trkpt lat="43.57601699739964" lon="3.1707099974952344"><ele>315.0</ele><time>2026-03-17T13:43:21Z</time></trkpt><trkpt lat="43.57577048516309" lon="3.170807767582035"><ele>315.0</ele><time>2026-03-17T13:43:22Z</time></trkpt><trkpt lat="43.5755322832092" lon="3.170885557946619"><ele>315.0</ele><time>2026-03-17T13:43:23Z</time></trkpt><trkpt lat="43.57529280846362" lon="3.170963000572496"><ele>314.0</ele><time>2026-03-17T13:43:24Z</time></trkpt><trkpt lat="43.575068943304636" lon="3.1710316415799604"><ele>313.0</ele><time>2026-03-17T13:43:25Z</time></trkpt><trkpt lat="43.57484906978457" lon="3.1711048910050645"><ele>313.0</ele><time>2026-03-17T13:43:26Z</time></trkpt><trkpt lat="43.574635239905156" lon="3.1711819575068483"><ele>313.0</ele><time>2026-03-17T13:43:27Z</time></trkpt><trkpt lat="43.57442125516662" lon="3.171236121065267"><ele>313.0</ele><time>2026-03-17T13:43:28Z</time></trkpt><trkpt lat="43.57419847874148" lon="3.171293602683882"><ele>317.3333333333333</ele><time>2026-03-17T13:43:29Z</time></trkpt><trkpt lat="43.57397198342144" lon="3.171320404386902"><ele>321.6666666666667</ele><time>2026-03-17T13:43:30Z</time></trkpt><trkpt lat="43.57375126183059" lon="3.1713240050314733"><ele>326.0</ele><time>2026-03-17T13:43:31Z</time></trkpt><trkpt lat="43.573523066274454" lon="3.1713386786556916"><ele>333.5</ele><time>2026-03-17T13:43:32Z</time></trkpt><trkpt lat="43.573305877944456" lon="3.171305038370964"><ele>341.0</ele><time>2026-03-17T13:43:33Z</time></trkpt><trkpt lat="43.57307416022428" lon="3.1712792204189992"><ele>346.0</ele><time>2026-03-17T13:43:34Z</time></trkpt><trkpt lat="43.57284552341029" lon="3.171211137239414"><ele>351.0</ele><time>2026-03-17T13:43:35Z</time></trkpt><trkpt lat="43.57261865703963" lon="3.1711485903208376"><ele>351.0</ele><time>2026-03-17T13:43:36Z</time></trkpt><trkpt lat="43.57238602442951" lon="3.1710821859905844"><ele>351.0</ele><time>2026-03-17T13:43:37Z</time></trkpt><trkpt lat="43.57215404175653" lon="3.171006346076797"><ele>349.5</ele><time>2026-03-17T13:43:38Z</time></trkpt><trkpt lat="43.57191703383965" lon="3.17093496289565"><ele>348.0</ele><time>2026-03-17T13:43:39Z</time></trkpt><trkpt lat="43.57166735198672" lon="3.1708613304785174"><ele>348.0</ele><time>2026-03-17T13:43:40Z</time></trkpt><trkpt lat="43.571428621790204" lon="3.170794049016291"><ele>348.0</ele><time>2026-03-17T13:43:41Z</time></trkpt><trkpt lat="43.57118298904336" lon="3.1707159352612213"><ele>345.5</ele><time>2026-03-17T13:43:42Z</time></trkpt><trkpt lat="43.57093535357662" lon="3.1706386716757993"><ele>343.0</ele><time>2026-03-17T13:43:43Z</time></trkpt><trkpt lat="43.570695336898574" lon="3.170567671141551"><ele>343.0</ele><time>2026-03-17T13:43:44Z</time></trkpt><trkpt lat="43.570459981448714" lon="3.170490756459949"><ele>343.0</ele><time>2026-03-17T13:43:45Z</time></trkpt><trkpt lat="43.570233740157384" lon="3.170422998097429"><ele>344.5</ele><time>2026-03-17T13:43:46Z</time></trkpt><trkpt lat="43.570006978685385" lon="3.170353992192534"><ele>346.0</ele><time>2026-03-17T13:43:47Z</time></trkpt><trkpt lat="43.56978325622789" lon="3.1702861254010637"><ele>346.0</ele><time>2026-03-17T13:43:48Z</time></trkpt><trkpt lat="43.569560008535944" lon="3.170220001801023"><ele>346.0</ele><time>2026-03-17T13:43:49Z</time></trkpt><trkpt lat="43.5693410257309" lon="3.1701511863199148"><ele>344.0</ele><time>2026-03-17T13:43:50Z</time></trkpt><trkpt lat="43.569120587211025" lon="3.170083416785328"><ele>342.0</ele><time>2026-03-17T13:43:51Z</time></trkpt><trkpt lat="43.56890052238051" lon="3.170016286036193"><ele>341.0</ele><time>2026-03-17T13:43:52Z</time></trkpt><trkpt lat="43.568680045902475" lon="3.169950333061009"><ele>340.0</ele><time>2026-03-17T13:43:53Z</time></trkpt><trkpt lat="43.56845647054339" lon="3.1698848332615337"><ele>335.5</ele><time>2026-03-17T13:43:54Z</time></trkpt><trkpt lat="43.56823339211874" lon="3.169815651626538"><ele>331.0</ele><time>2026-03-17T13:43:55Z</time></trkpt><trkpt lat="43.56800970375341" lon="3.1697452353078024"><ele>329.0</ele><time>2026-03-17T13:43:56Z</time></trkpt><trkpt lat="43.567785722117634" lon="3.1696744661843073"><ele>327.0</ele><time>2026-03-17T13:43:57Z</time></trkpt><trkpt lat="43.56755913824351" lon="3.1696018292451194"><ele>327.0</ele><time>2026-03-17T13:43:58Z</time></trkpt><trkpt lat="43.5673299165405" lon="3.169534240182864"><ele>327.0</ele><time>2026-03-17T13:43:59Z</time></trkpt><trkpt lat="43.567101393160726" lon="3.169465829974706"><ele>328.0</ele><time>2026-03-17T13:44:00Z</time></trkpt><trkpt lat="43.56687693990224" lon="3.169397547435002"><ele>329.0</ele><time>2026-03-17T13:44:01Z</time></trkpt><trkpt lat="43.56666236616397" lon="3.169339939849169"><ele>330.0</ele><time>2026-03-17T13:44:02Z</time></trkpt><trkpt lat="43.566459862398126" lon="3.169277802136242"><ele>330.0</ele><time>2026-03-17T13:44:03Z</time></trkpt><trkpt lat="43.56626566709118" lon="3.1692356844483314"><ele>330.0</ele><time>2026-03-17T13:44:04Z</time></trkpt><trkpt lat="43.56607254958537" lon="3.169167682945394"><ele>330.0</ele><time>2026-03-17T13:44:05Z</time></trkpt><trkpt lat="43.56588893640694" lon="3.169119635176813"><ele>330.0</ele><time>2026-03-17T13:44:06Z</time></trkpt><trkpt lat="43.565710693767734" lon="3.169084530170159"><ele>330.0</ele><time>2026-03-17T13:44:07Z</time></trkpt><trkpt lat="43.565533725943645" lon="3.1690726958541893"><ele>330.0</ele><time>2026-03-17T13:44:08Z</time></trkpt><trkpt lat="43.56535432260817" lon="3.1690851385305594"><ele>329.0</ele><time>2026-03-17T13:44:09Z</time></trkpt><trkpt lat="43.5651847733562" lon="3.1691446891576396"><ele>328.0</ele><time>2026-03-17T13:44:10Z</time></trkpt><trkpt lat="43.565024743215446" lon="3.169237384075444"><ele>327.0</ele><time>2026-03-17T13:44:11Z</time></trkpt><trkpt lat="43.564880930684836" lon="3.1693639543217325"><ele>327.0</ele><time>2026-03-17T13:44:12Z</time></trkpt><trkpt lat="43.564749541038026" lon="3.1695173400146843"><ele>327.0</ele><time>2026-03-17T13:44:13Z</time></trkpt><trkpt lat="43.56463624589379" lon="3.169712091568422"><ele>327.0</ele><time>2026-03-17T13:44:14Z</time></trkpt><trkpt lat="43.564537233049876" lon="3.169903761694315"><ele>323.0</ele><time>2026-03-17T13:44:15Z</time></trkpt><trkpt lat="43.564466384041665" lon="3.17012007729199"><ele>319.0</ele><time>2026-03-17T13:44:16Z</time></trkpt><trkpt lat="43.56441301165938" lon="3.1703522822296475"><ele>315.0</ele><time>2026-03-17T13:44:17Z</time></trkpt><trkpt lat="43.564373859647986" lon="3.17062392258414"><ele>315.6666666666667</ele><time>2026-03-17T13:44:18Z</time></trkpt><trkpt lat="43.564342402084804" lon="3.170889322050496"><ele>316.33333333333337</ele><time>2026-03-17T13:44:19Z</time></trkpt><trkpt lat="43.56430490454347" lon="3.1711693503709277"><ele>317.0</ele><time>2026-03-17T13:44:20Z</time></trkpt><trkpt lat="43.5642670495586" lon="3.1714587051589356"><ele>318.0</ele><time>2026-03-17T13:44:21Z</time></trkpt><trkpt lat="43.56423167246924" lon="3.1717636289430344"><ele>319.0</ele><time>2026-03-17T13:44:22Z</time></trkpt><trkpt lat="43.56419910577862" lon="3.172076399047882"><ele>320.5</ele><time>2026-03-17T13:44:23Z</time></trkpt><trkpt lat="43.56416240387352" lon="3.172380934081453"><ele>322.0</ele><time>2026-03-17T13:44:24Z</time></trkpt><trkpt lat="43.564124994549935" lon="3.172692196924408"><ele>322.0</ele><time>2026-03-17T13:44:25Z</time></trkpt><trkpt lat="43.564088061865824" lon="3.173015846251879"><ele>322.0</ele><time>2026-03-17T13:44:26Z</time></trkpt><trkpt lat="43.56405110262808" lon="3.1733374395130434"><ele>322.0</ele><time>2026-03-17T13:44:27Z</time></trkpt><trkpt lat="43.56401601063303" lon="3.173664026974218"><ele>322.0</ele><time>2026-03-17T13:44:28Z</time></trkpt><trkpt lat="43.56397245393242" lon="3.173988877964615"><ele>322.5</ele><time>2026-03-17T13:44:29Z</time></trkpt><trkpt lat="43.56393719094288" lon="3.1743157419833365"><ele>323.0</ele><time>2026-03-17T13:44:30Z</time></trkpt><trkpt lat="43.563897714641364" lon="3.174638226170198"><ele>322.5</ele><time>2026-03-17T13:44:31Z</time></trkpt><trkpt lat="43.56385984471747" lon="3.17495826905233"><ele>322.0</ele><time>2026-03-17T13:44:32Z</time></trkpt><trkpt lat="43.56382712003612" lon="3.1752753098262527"><ele>322.0</ele><time>2026-03-17T13:44:33Z</time></trkpt><trkpt lat="43.563794869958414" lon="3.1755927776243515"><ele>322.0</ele><time>2026-03-17T13:44:34Z</time></trkpt><trkpt lat="43.563759281890654" lon="3.1759122469297365"><ele>321.5</ele><time>2026-03-17T13:44:35Z</time></trkpt><trkpt lat="43.56372169082196" lon="3.176230249850833"><ele>321.0</ele><time>2026-03-17T13:44:36Z</time></trkpt><trkpt lat="43.563685834251324" lon="3.176546374406678"><ele>316.5</ele><time>2026-03-17T13:44:37Z</time></trkpt><trkpt lat="43.563651061757085" lon="3.1768666526073597"><ele>312.0</ele><time>2026-03-17T13:44:38Z</time></trkpt><trkpt lat="43.56362230322989" lon="3.177178078935244"><ele>309.5</ele><time>2026-03-17T13:44:39Z</time></trkpt><trkpt lat="43.563584799485" lon="3.177486120695904"><ele>307.0</ele><time>2026-03-17T13:44:40Z</time></trkpt><trkpt lat="43.56354763939629" lon="3.177791361324883"><ele>307.0</ele><time>2026-03-17T13:44:41Z</time></trkpt><trkpt lat="43.56351184459406" lon="3.17809128318219"><ele>307.0</ele><time>2026-03-17T13:44:42Z</time></trkpt><trkpt lat="43.56347597206954" lon="3.178386187240194"><ele>307.0</ele><time>2026-03-17T13:44:43Z</time></trkpt><trkpt lat="43.56343944825234" lon="3.178679191966637"><ele>305.0</ele><time>2026-03-17T13:44:44Z</time></trkpt><trkpt lat="43.56339534429242" lon="3.1789591420866947"><ele>303.0</ele><time>2026-03-17T13:44:45Z</time></trkpt><trkpt lat="43.56333766221156" lon="3.1792353677855045"><ele>301.0</ele><time>2026-03-17T13:44:46Z</time></trkpt><trkpt lat="43.563265485677455" lon="3.179498911544569"><ele>298.66666666666663</ele><time>2026-03-17T13:44:47Z</time></trkpt><trkpt lat="43.56317769698632" lon="3.1797511621366565"><ele>296.3333333333333</ele><time>2026-03-17T13:44:48Z</time></trkpt><trkpt lat="43.5630641559644" lon="3.17998076251682"><ele>294.0</ele><time>2026-03-17T13:44:49Z</time></trkpt><trkpt lat="43.562924518541394" lon="3.1801953099791977"><ele>293.3333333333333</ele><time>2026-03-17T13:44:50Z</time></trkpt><trkpt lat="43.56278459383794" lon="3.180383450735549"><ele>292.66666666666663</ele><time>2026-03-17T13:44:51Z</time></trkpt><trkpt lat="43.5626291085882" lon="3.1805492266378925"><ele>292.0</ele><time>2026-03-17T13:44:52Z</time></trkpt><trkpt lat="43.5624581567797" lon="3.1806880354896987"><ele>292.0</ele><time>2026-03-17T13:44:53Z</time></trkpt><trkpt lat="43.56227524418464" lon="3.1808082986597532"><ele>292.0</ele><time>2026-03-17T13:44:54Z</time></trkpt><trkpt lat="43.562080892982195" lon="3.180901174267896"><ele>292.0</ele><time>2026-03-17T13:44:55Z</time></trkpt><trkpt lat="43.561874947350105" lon="3.1809580539822635"><ele>287.5</ele><time>2026-03-17T13:44:56Z</time></trkpt><trkpt lat="43.56165280472863" lon="3.1810043200544387"><ele>283.0</ele><time>2026-03-17T13:44:56.999Z</time></trkpt><trkpt lat="43.56142325422143" lon="3.1810264181166583"><ele>280.5</ele><time>2026-03-17T13:44:57.999Z</time></trkpt><trkpt lat="43.561173795166454" lon="3.1810626667568958"><ele>278.0</ele><time>2026-03-17T13:44:58.999Z</time></trkpt><trkpt lat="43.560920603221966" lon="3.1810993957484754"><ele>278.0</ele><time>2026-03-17T13:44:59.999Z</time></trkpt><trkpt lat="43.56068764482858" lon="3.1811328084232247"><ele>278.0</ele><time>2026-03-17T13:45:00.999Z</time></trkpt><trkpt lat="43.5604554535396" lon="3.1811626251106877"><ele>275.5</ele><time>2026-03-17T13:45:01.999Z</time></trkpt><trkpt lat="43.56022241348541" lon="3.1811914564637203"><ele>273.0</ele><time>2026-03-17T13:45:02.999Z</time></trkpt><trkpt lat="43.55998794844358" lon="3.1812265234134003"><ele>273.0</ele><time>2026-03-17T13:45:03.999Z</time></trkpt><trkpt lat="43.55975287379894" lon="3.181258863590674"><ele>273.0</ele><time>2026-03-17T13:45:04.999Z</time></trkpt><trkpt lat="43.559515370415795" lon="3.1812866361953684"><ele>271.0</ele><time>2026-03-17T13:45:05.999Z</time></trkpt><trkpt lat="43.559279700007295" lon="3.1813124455137007"><ele>269.0</ele><time>2026-03-17T13:45:06.999Z</time></trkpt><trkpt lat="43.559046735892004" lon="3.1813415034891404"><ele>269.0</ele><time>2026-03-17T13:45:07.999Z</time></trkpt><trkpt lat="43.55881601287734" lon="3.181368309586245"><ele>269.0</ele><time>2026-03-17T13:45:08.999Z</time></trkpt><trkpt lat="43.55858555411478" lon="3.1814010490038465"><ele>266.0</ele><time>2026-03-17T13:45:09.999Z</time></trkpt><trkpt lat="43.558356887040624" lon="3.18143230422295"><ele>263.0</ele><time>2026-03-17T13:45:10.999Z</time></trkpt><trkpt lat="43.55813931259087" lon="3.18145830549386"><ele>260.0</ele><time>2026-03-17T13:45:11.999Z</time></trkpt><trkpt lat="43.55793040399426" lon="3.18147632463672"><ele>259.6666666666667</ele><time>2026-03-17T13:45:12.999Z</time></trkpt><trkpt lat="43.55773686028499" lon="3.181481592210322"><ele>259.3333333333333</ele><time>2026-03-17T13:45:13.999Z</time></trkpt><trkpt lat="43.55755240863628" lon="3.181465710640874"><ele>259.0</ele><time>2026-03-17T13:45:14.999Z</time></trkpt><trkpt lat="43.55738228078085" lon="3.181420034222294"><ele>259.0</ele><time>2026-03-17T13:45:15.999Z</time></trkpt><trkpt lat="43.557223020740025" lon="3.1813611740111924"><ele>259.0</ele><time>2026-03-17T13:45:16.999Z</time></trkpt><trkpt lat="43.55706048669461" lon="3.1812905355625225"><ele>259.0</ele><time>2026-03-17T13:45:17.999Z</time></trkpt><trkpt lat="43.556887468183106" lon="3.1812107524345317"><ele>258.66666666666663</ele><time>2026-03-17T13:45:18.999Z</time></trkpt><trkpt lat="43.55670513171635" lon="3.181140909220452"><ele>258.3333333333333</ele><time>2026-03-17T13:45:19.999Z</time></trkpt><trkpt lat="43.55652451000479" lon="3.1810655978848454"><ele>258.0</ele><time>2026-03-17T13:45:20.999Z</time></trkpt><trkpt lat="43.55633944732212" lon="3.180989848384103"><ele>257.6666666666667</ele><time>2026-03-17T13:45:21.999Z</time></trkpt><trkpt lat="43.556148348982624" lon="3.180919577359623"><ele>257.33333333333337</ele><time>2026-03-17T13:45:22.999Z</time></trkpt><trkpt lat="43.555951346411454" lon="3.1808725820089783"><ele>257.0</ele><time>2026-03-17T13:45:23.999Z</time></trkpt><trkpt lat="43.555746412299754" lon="3.180843543093764"><ele>257.0</ele><time>2026-03-17T13:45:24.999Z</time></trkpt><trkpt lat="43.55553346754707" lon="3.1808386612712822"><ele>257.0</ele><time>2026-03-17T13:45:25.999Z</time></trkpt><trkpt lat="43.55532024394792" lon="3.1808521601162094"><ele>257.0</ele><time>2026-03-17T13:45:27Z</time></trkpt><trkpt lat="43.55510382223679" lon="3.180888417251149"><ele>255.33333333333334</ele><time>2026-03-17T13:45:28Z</time></trkpt><trkpt lat="43.55488649477461" lon="3.180941918846959"><ele>253.66666666666669</ele><time>2026-03-17T13:45:29Z</time></trkpt><trkpt lat="43.55467510962993" lon="3.1810209418036406"><ele>252.0</ele><time>2026-03-17T13:45:30Z</time></trkpt><trkpt lat="43.554465916965185" lon="3.1811232532015237"><ele>250.5</ele><time>2026-03-17T13:45:31Z</time></trkpt><trkpt lat="43.55424669267449" lon="3.181230296447295"><ele>249.0</ele><time>2026-03-17T13:45:32Z</time></trkpt><trkpt lat="43.55403171431113" lon="3.1813324454455145"><ele>249.0</ele><time>2026-03-17T13:45:33Z</time></trkpt><trkpt lat="43.55381485170839" lon="3.1814410019717805"><ele>249.0</ele><time>2026-03-17T13:45:34Z</time></trkpt><trkpt lat="43.5535975196959" lon="3.181542896840051"><ele>248.5</ele><time>2026-03-17T13:45:35Z</time></trkpt><trkpt lat="43.5533852503654" lon="3.1816518584523936"><ele>248.0</ele><time>2026-03-17T13:45:36Z</time></trkpt><trkpt lat="43.55318288256495" lon="3.1817840118688467"><ele>248.0</ele><time>2026-03-17T13:45:37Z</time></trkpt><trkpt lat="43.552977299756336" lon="3.1819389661165256"><ele>248.0</ele><time>2026-03-17T13:45:38Z</time></trkpt><trkpt lat="43.55278410994318" lon="3.1820981448542325"><ele>248.0</ele><time>2026-03-17T13:45:39Z</time></trkpt><trkpt lat="43.552596033356025" lon="3.182271224954272"><ele>248.0</ele><time>2026-03-17T13:45:40Z</time></trkpt><trkpt lat="43.5524178510144" lon="3.1824435052166757"><ele>248.0</ele><time>2026-03-17T13:45:41Z</time></trkpt><trkpt lat="43.55223678276171" lon="3.1826054483708974"><ele>248.0</ele><time>2026-03-17T13:45:42Z</time></trkpt><trkpt lat="43.552057201596774" lon="3.1827705271900104"><ele>248.0</ele><time>2026-03-17T13:45:43Z</time></trkpt><trkpt lat="43.55187177601147" lon="3.1829424140517597"><ele>248.0</ele><time>2026-03-17T13:45:44Z</time></trkpt><trkpt lat="43.551684965523535" lon="3.1831109822315176"><ele>245.66666666666669</ele><time>2026-03-17T13:45:45Z</time></trkpt><trkpt lat="43.55150065726696" lon="3.183282803265329"><ele>243.33333333333331</ele><time>2026-03-17T13:45:46Z</time></trkpt><trkpt lat="43.55131359407815" lon="3.1834556161189096"><ele>241.0</ele><time>2026-03-17T13:45:47Z</time></trkpt><trkpt lat="43.551122579562055" lon="3.1836284812929345"><ele>241.66666666666666</ele><time>2026-03-17T13:45:48Z</time></trkpt><trkpt lat="43.550926587618555" lon="3.1837743078489495"><ele>242.33333333333331</ele><time>2026-03-17T13:45:49Z</time></trkpt><trkpt lat="43.55072711850378" lon="3.1839193091437807"><ele>243.0</ele><time>2026-03-17T13:45:50Z</time></trkpt><trkpt lat="43.55051504813969" lon="3.184053894729911"><ele>238.0</ele><time>2026-03-17T13:45:51Z</time></trkpt><trkpt lat="43.5502970833393" lon="3.184162440667874"><ele>233.0</ele><time>2026-03-17T13:45:52Z</time></trkpt><trkpt lat="43.55006706904169" lon="3.1842466466392523"><ele>233.0</ele><time>2026-03-17T13:45:53Z</time></trkpt><trkpt lat="43.54984292055625" lon="3.184313041951047"><ele>233.0</ele><time>2026-03-17T13:45:54Z</time></trkpt><trkpt lat="43.54961282966918" lon="3.1843685857397777"><ele>230.5</ele><time>2026-03-17T13:45:55Z</time></trkpt><trkpt lat="43.549383306207986" lon="3.184400438511904"><ele>228.0</ele><time>2026-03-17T13:45:56Z</time></trkpt><trkpt lat="43.549152091976936" lon="3.184425817354872"><ele>228.0</ele><time>2026-03-17T13:45:57Z</time></trkpt><trkpt lat="43.548926320414395" lon="3.1844188296742977"><ele>228.0</ele><time>2026-03-17T13:45:58Z</time></trkpt><trkpt lat="43.54869959375348" lon="3.1844037301509567"><ele>227.66666666666669</ele><time>2026-03-17T13:45:59Z</time></trkpt><trkpt lat="43.54847594949117" lon="3.184373267781297"><ele>227.33333333333334</ele><time>2026-03-17T13:46:00Z</time></trkpt><trkpt lat="43.54825557069458" lon="3.1843355572713494"><ele>227.0</ele><time>2026-03-17T13:46:01Z</time></trkpt><trkpt lat="43.54803085296221" lon="3.1843065577652023"><ele>227.0</ele><time>2026-03-17T13:46:02Z</time></trkpt><trkpt lat="43.547811435964064" lon="3.184277865915513"><ele>227.0</ele><time>2026-03-17T13:46:03Z</time></trkpt><trkpt lat="43.54759674577004" lon="3.1842363475398017"><ele>227.0</ele><time>2026-03-17T13:46:04Z</time></trkpt><trkpt lat="43.547379135959325" lon="3.1842032880695905"><ele>227.0</ele><time>2026-03-17T13:46:05Z</time></trkpt><trkpt lat="43.54715527108764" lon="3.184180286923838"><ele>227.0</ele><time>2026-03-17T13:46:06Z</time></trkpt><trkpt lat="43.54693303428774" lon="3.1841546585472225"><ele>227.0</ele><time>2026-03-17T13:46:07Z</time></trkpt><trkpt lat="43.54674414625712" lon="3.1841388341813524"><ele>225.0</ele><time>2026-03-17T13:46:08Z</time></trkpt><trkpt lat="43.54651388625346" lon="3.184114747942079"><ele>223.0</ele><time>2026-03-17T13:46:09Z</time></trkpt><trkpt lat="43.54628531896077" lon="3.1840907346944074"><ele>218.5</ele><time>2026-03-17T13:46:10Z</time></trkpt><trkpt lat="43.546055849954584" lon="3.1840703026502304"><ele>214.0</ele><time>2026-03-17T13:46:11Z</time></trkpt><trkpt lat="43.545825947348064" lon="3.184058939092426"><ele>214.0</ele><time>2026-03-17T13:46:12Z</time></trkpt><trkpt lat="43.54559929938403" lon="3.1840351872247874"><ele>214.0</ele><time>2026-03-17T13:46:13Z</time></trkpt><trkpt lat="43.54536811379263" lon="3.184010327109261"><ele>210.5</ele><time>2026-03-17T13:46:14Z</time></trkpt><trkpt lat="43.54513980195116" lon="3.1839861863113312"><ele>207.0</ele><time>2026-03-17T13:46:15Z</time></trkpt><trkpt lat="43.54490735169225" lon="3.183962896897972"><ele>207.0</ele><time>2026-03-17T13:46:16Z</time></trkpt><trkpt lat="43.54467463513992" lon="3.1839312831686115"><ele>207.0</ele><time>2026-03-17T13:46:17Z</time></trkpt><trkpt lat="43.54444349900443" lon="3.183905400638336"><ele>206.0</ele><time>2026-03-17T13:46:18Z</time></trkpt><trkpt lat="43.54420655425787" lon="3.1838828963208705"><ele>205.0</ele><time>2026-03-17T13:46:19Z</time></trkpt><trkpt lat="43.54397337563861" lon="3.1838535681437707"><ele>205.0</ele><time>2026-03-17T13:46:20Z</time></trkpt><trkpt lat="43.54372762375738" lon="3.1838292580224867"><ele>205.0</ele><time>2026-03-17T13:46:21Z</time></trkpt><trkpt lat="43.54348995881401" lon="3.1838053540348135"><ele>202.5</ele><time>2026-03-17T13:46:22Z</time></trkpt><trkpt lat="43.54325116644039" lon="3.1837747829030714"><ele>200.0</ele><time>2026-03-17T13:46:23Z</time></trkpt><trkpt lat="43.543009278565584" lon="3.183747204372747"><ele>197.0</ele><time>2026-03-17T13:46:24Z</time></trkpt><trkpt lat="43.54277233221835" lon="3.183718868207968"><ele>194.0</ele><time>2026-03-17T13:46:25Z</time></trkpt><trkpt lat="43.542544805998645" lon="3.1836780893569276"><ele>194.0</ele><time>2026-03-17T13:46:26Z</time></trkpt><trkpt lat="43.54230435586918" lon="3.1836528565324023"><ele>194.0</ele><time>2026-03-17T13:46:27Z</time></trkpt><trkpt lat="43.54206583075565" lon="3.1836269911225696"><ele>193.0</ele><time>2026-03-17T13:46:28Z</time></trkpt><trkpt lat="43.54182737497152" lon="3.1835976776192987"><ele>192.0</ele><time>2026-03-17T13:46:29Z</time></trkpt><trkpt lat="43.54158356645177" lon="3.183571999029534"><ele>192.0</ele><time>2026-03-17T13:46:30Z</time></trkpt><trkpt lat="43.541338333448465" lon="3.183548109380736"><ele>192.0</ele><time>2026-03-17T13:46:31Z</time></trkpt><trkpt lat="43.541097751179365" lon="3.1835266020593265"><ele>192.0</ele><time>2026-03-17T13:46:32Z</time></trkpt><trkpt lat="43.54085355737126" lon="3.1835098570170994"><ele>192.0</ele><time>2026-03-17T13:46:33Z</time></trkpt><trkpt lat="43.5406160431202" lon="3.183485968761806"><ele>193.0</ele><time>2026-03-17T13:46:34Z</time></trkpt><trkpt lat="43.5403793581332" lon="3.1834556262751104"><ele>194.0</ele><time>2026-03-17T13:46:35Z</time></trkpt><trkpt lat="43.540144431067866" lon="3.18342691290904"><ele>194.0</ele><time>2026-03-17T13:46:36Z</time></trkpt><trkpt lat="43.539906670653465" lon="3.1834019180012336"><ele>194.0</ele><time>2026-03-17T13:46:37Z</time></trkpt><trkpt lat="43.5396694974828" lon="3.1833686403285495"><ele>192.0</ele><time>2026-03-17T13:46:38Z</time></trkpt><trkpt lat="43.539431785892035" lon="3.183332748565247"><ele>190.0</ele><time>2026-03-17T13:46:39Z</time></trkpt><trkpt lat="43.539200350455346" lon="3.1832977423890605"><ele>190.0</ele><time>2026-03-17T13:46:40Z</time></trkpt><trkpt lat="43.53896865579545" lon="3.1832626913354893"><ele>190.0</ele><time>2026-03-17T13:46:41Z</time></trkpt><trkpt lat="43.53874016826645" lon="3.1832316579814646"><ele>188.5</ele><time>2026-03-17T13:46:42Z</time></trkpt><trkpt lat="43.53851754361371" lon="3.183205468007508"><ele>187.0</ele><time>2026-03-17T13:46:43Z</time></trkpt><trkpt lat="43.538290966989926" lon="3.1831798438695653"><ele>187.0</ele><time>2026-03-17T13:46:44Z</time></trkpt><trkpt lat="43.538062606292065" lon="3.1831582971486805"><ele>187.0</ele><time>2026-03-17T13:46:45Z</time></trkpt><trkpt lat="43.53783231625894" lon="3.183143443201846"><ele>186.0</ele><time>2026-03-17T13:46:46Z</time></trkpt><trkpt lat="43.53759849477345" lon="3.183145992192891"><ele>185.0</ele><time>2026-03-17T13:46:47Z</time></trkpt><trkpt lat="43.53737330950164" lon="3.1831624950651274"><ele>183.5</ele><time>2026-03-17T13:46:48Z</time></trkpt><trkpt lat="43.53713697662113" lon="3.1832164668773526"><ele>182.0</ele><time>2026-03-17T13:46:49Z</time></trkpt><trkpt lat="43.53690064870192" lon="3.183293444659584"><ele>182.0</ele><time>2026-03-17T13:46:50Z</time></trkpt><trkpt lat="43.536665562159264" lon="3.1833674331486916"><ele>182.0</ele><time>2026-03-17T13:46:50.999Z</time></trkpt><trkpt lat="43.53643396648907" lon="3.1834354873144877"><ele>181.0</ele><time>2026-03-17T13:46:51.999Z</time></trkpt><trkpt lat="43.53620279199161" lon="3.18349664189499"><ele>180.0</ele><time>2026-03-17T13:46:52.999Z</time></trkpt><trkpt lat="43.53597744689798" lon="3.1835580938246917"><ele>180.0</ele><time>2026-03-17T13:46:53.999Z</time></trkpt><trkpt lat="43.535756696529866" lon="3.183612465502457"><ele>180.0</ele><time>2026-03-17T13:46:54.999Z</time></trkpt><trkpt lat="43.53552283422718" lon="3.1836763669671733"><ele>179.33333333333334</ele><time>2026-03-17T13:46:55.999Z</time></trkpt><trkpt lat="43.53530436950179" lon="3.183731640959321"><ele>178.66666666666669</ele><time>2026-03-17T13:46:56.999Z</time></trkpt><trkpt lat="43.53508750412745" lon="3.1837866229988356"><ele>178.0</ele><time>2026-03-17T13:46:57.999Z</time></trkpt><trkpt lat="43.53486732507689" lon="3.183841881902014"><ele>178.0</ele><time>2026-03-17T13:46:58.999Z</time></trkpt><trkpt lat="43.53464679825163" lon="3.1839019988458532"><ele>178.0</ele><time>2026-03-17T13:46:59.999Z</time></trkpt><trkpt lat="43.534422557009336" lon="3.1839617337300594"><ele>176.5</ele><time>2026-03-17T13:47:00.999Z</time></trkpt><trkpt lat="43.534201354116746" lon="3.184022719634322"><ele>175.0</ele><time>2026-03-17T13:47:01.999Z</time></trkpt><trkpt lat="43.53397485632583" lon="3.184086139636626"><ele>175.0</ele><time>2026-03-17T13:47:02.999Z</time></trkpt><trkpt lat="43.53375139542198" lon="3.184148914760166"><ele>175.0</ele><time>2026-03-17T13:47:03.999Z</time></trkpt><trkpt lat="43.533524852751285" lon="3.184209681662534"><ele>173.5</ele><time>2026-03-17T13:47:04.999Z</time></trkpt><trkpt lat="43.533296039430965" lon="3.1842706662827114"><ele>172.0</ele><time>2026-03-17T13:47:05.999Z</time></trkpt><trkpt lat="43.53306942247537" lon="3.184330045021603"><ele>171.0</ele><time>2026-03-17T13:47:06.999Z</time></trkpt><trkpt lat="43.53283975918582" lon="3.1843974991513497"><ele>170.0</ele><time>2026-03-17T13:47:07.999Z</time></trkpt><trkpt lat="43.532609512605084" lon="3.1844615573399513"><ele>170.0</ele><time>2026-03-17T13:47:08.999Z</time></trkpt><trkpt lat="43.532376270689355" lon="3.184524147528309"><ele>170.0</ele><time>2026-03-17T13:47:09.999Z</time></trkpt><trkpt lat="43.53214321668813" lon="3.1845847561805036"><ele>169.0</ele><time>2026-03-17T13:47:10.999Z</time></trkpt><trkpt lat="43.53191211116441" lon="3.184647079928781"><ele>168.0</ele><time>2026-03-17T13:47:11.999Z</time></trkpt><trkpt lat="43.53167803506612" lon="3.1847093754628144"><ele>168.0</ele><time>2026-03-17T13:47:12.999Z</time></trkpt><trkpt lat="43.53144474469386" lon="3.184769921821952"><ele>168.0</ele><time>2026-03-17T13:47:13.999Z</time></trkpt><trkpt lat="43.53121366947864" lon="3.184831144855237"><ele>165.5</ele><time>2026-03-17T13:47:14.999Z</time></trkpt><trkpt lat="43.53097992284207" lon="3.1848921102103223"><ele>163.0</ele><time>2026-03-17T13:47:15.999Z</time></trkpt><trkpt lat="43.530748365057924" lon="3.1849548939105747"><ele>163.0</ele><time>2026-03-17T13:47:16.999Z</time></trkpt><trkpt lat="43.53051381005584" lon="3.185018804287724"><ele>163.0</ele><time>2026-03-17T13:47:17.999Z</time></trkpt><trkpt lat="43.53028034409684" lon="3.185082203294172"><ele>162.5</ele><time>2026-03-17T13:47:18.999Z</time></trkpt><trkpt lat="43.53004455821248" lon="3.18515202244268"><ele>162.0</ele><time>2026-03-17T13:47:19.999Z</time></trkpt><trkpt lat="43.52980882819159" lon="3.185213558374107"><ele>162.0</ele><time>2026-03-17T13:47:20.999Z</time></trkpt><trkpt lat="43.529572804367334" lon="3.1852706784561855"><ele>162.0</ele><time>2026-03-17T13:47:21.999Z</time></trkpt><trkpt lat="43.529336445223485" lon="3.1853301676689245"><ele>162.5</ele><time>2026-03-17T13:47:22.999Z</time></trkpt><trkpt lat="43.52909999707462" lon="3.185391477587412"><ele>163.0</ele><time>2026-03-17T13:47:23.999Z</time></trkpt><trkpt lat="43.52886429755472" lon="3.1854514925122555"><ele>162.5</ele><time>2026-03-17T13:47:24.999Z</time></trkpt><trkpt lat="43.528628069314095" lon="3.185517730577056"><ele>162.0</ele><time>2026-03-17T13:47:25.999Z</time></trkpt><trkpt lat="43.528392531335896" lon="3.185582390768123"><ele>162.0</ele><time>2026-03-17T13:47:26.999Z</time></trkpt><trkpt lat="43.52816085946472" lon="3.185651208553299"><ele>162.0</ele><time>2026-03-17T13:47:27.999Z</time></trkpt><trkpt lat="43.52792699057252" lon="3.185728499904511"><ele>161.0</ele><time>2026-03-17T13:47:28.999Z</time></trkpt><trkpt lat="43.52769973022042" lon="3.1858212904510728"><ele>160.0</ele><time>2026-03-17T13:47:29.999Z</time></trkpt><trkpt lat="43.52747418616224" lon="3.1859240745447748"><ele>160.0</ele><time>2026-03-17T13:47:30.999Z</time></trkpt><trkpt lat="43.5272474868394" lon="3.186037712705509"><ele>160.0</ele><time>2026-03-17T13:47:31.999Z</time></trkpt><trkpt lat="43.52702616228607" lon="3.1861402073324556"><ele>159.0</ele><time>2026-03-17T13:47:33Z</time></trkpt><trkpt lat="43.526799295458076" lon="3.186237598561028"><ele>158.0</ele><time>2026-03-17T13:47:34Z</time></trkpt><trkpt lat="43.526573786511584" lon="3.18632572309427"><ele>158.0</ele><time>2026-03-17T13:47:35Z</time></trkpt><trkpt lat="43.52634679619546" lon="3.186420631448341"><ele>158.0</ele><time>2026-03-17T13:47:36Z</time></trkpt><trkpt lat="43.52612385057546" lon="3.186515631500004"><ele>158.5</ele><time>2026-03-17T13:47:37Z</time></trkpt><trkpt lat="43.52590521500433" lon="3.186618799552086"><ele>159.0</ele><time>2026-03-17T13:47:38Z</time></trkpt><trkpt lat="43.525687726715745" lon="3.1867256290210433"><ele>159.0</ele><time>2026-03-17T13:47:39Z</time></trkpt><trkpt lat="43.5254688997945" lon="3.1868321568951234"><ele>159.0</ele><time>2026-03-17T13:47:40Z</time></trkpt><trkpt lat="43.52524724855338" lon="3.186942786114891"><ele>157.0</ele><time>2026-03-17T13:47:41Z</time></trkpt><trkpt lat="43.52502150434533" lon="3.1870456516960286"><ele>155.0</ele><time>2026-03-17T13:47:42Z</time></trkpt><trkpt lat="43.52479737456867" lon="3.1871462995934765"><ele>155.0</ele><time>2026-03-17T13:47:43Z</time></trkpt><trkpt lat="43.524573987277634" lon="3.187248818252951"><ele>155.0</ele><time>2026-03-17T13:47:44Z</time></trkpt><trkpt lat="43.524348886181194" lon="3.187351847196578"><ele>155.0</ele><time>2026-03-17T13:47:45Z</time></trkpt><trkpt lat="43.52412471257375" lon="3.1874545700792183"><ele>155.0</ele><time>2026-03-17T13:47:46Z</time></trkpt><trkpt lat="43.523897979987694" lon="3.18755912861265"><ele>152.5</ele><time>2026-03-17T13:47:47Z</time></trkpt><trkpt lat="43.52367170723684" lon="3.187669643771951"><ele>150.0</ele><time>2026-03-17T13:47:48Z</time></trkpt><trkpt lat="43.52344546444178" lon="3.1877773396907614"><ele>150.0</ele><time>2026-03-17T13:47:49Z</time></trkpt><trkpt lat="43.52321875946838" lon="3.187877054600261"><ele>150.0</ele><time>2026-03-17T13:47:50Z</time></trkpt><trkpt lat="43.52299612214502" lon="3.1879697934871376"><ele>149.5</ele><time>2026-03-17T13:47:51Z</time></trkpt><trkpt lat="43.52276809572129" lon="3.1880684207347505"><ele>149.0</ele><time>2026-03-17T13:47:52Z</time></trkpt><trkpt lat="43.52253620768913" lon="3.188173614093567"><ele>149.0</ele><time>2026-03-17T13:47:53Z</time></trkpt><trkpt lat="43.52230910393093" lon="3.188276423675703"><ele>149.0</ele><time>2026-03-17T13:47:54Z</time></trkpt><trkpt lat="43.52207901834749" lon="3.188387096925459"><ele>148.0</ele><time>2026-03-17T13:47:55Z</time></trkpt><trkpt lat="43.52184657891779" lon="3.1884857519959526"><ele>147.0</ele><time>2026-03-17T13:47:56Z</time></trkpt><trkpt lat="43.521616325739856" lon="3.1885789709792807"><ele>147.0</ele><time>2026-03-17T13:47:57Z</time></trkpt><trkpt lat="43.52139377288067" lon="3.1886637686376145"><ele>147.0</ele><time>2026-03-17T13:47:58Z</time></trkpt><trkpt lat="43.52116563824724" lon="3.188754320252672"><ele>146.5</ele><time>2026-03-17T13:47:59Z</time></trkpt><trkpt lat="43.52093775088316" lon="3.1888488293510515"><ele>146.0</ele><time>2026-03-17T13:48:00Z</time></trkpt><trkpt lat="43.520711091478155" lon="3.188939615136251"><ele>146.5</ele><time>2026-03-17T13:48:01Z</time></trkpt><trkpt lat="43.5204843629472" lon="3.1890287477035115"><ele>147.0</ele><time>2026-03-17T13:48:02Z</time></trkpt><trkpt lat="43.52025796560608" lon="3.1891244948740094"><ele>145.5</ele><time>2026-03-17T13:48:03Z</time></trkpt><trkpt lat="43.52002762305488" lon="3.1892205184156164"><ele>144.0</ele><time>2026-03-17T13:48:04Z</time></trkpt><trkpt lat="43.51981152783342" lon="3.189306460529854"><ele>144.0</ele><time>2026-03-17T13:48:05Z</time></trkpt><trkpt lat="43.519582145345936" lon="3.189405519664167"><ele>144.0</ele><time>2026-03-17T13:48:06Z</time></trkpt><trkpt lat="43.51935849324677" lon="3.189485651082999"><ele>141.5</ele><time>2026-03-17T13:48:07Z</time></trkpt><trkpt lat="43.51912585945444" lon="3.1895520909525215"><ele>139.0</ele><time>2026-03-17T13:48:08Z</time></trkpt><trkpt lat="43.51888958465723" lon="3.189599610536022"><ele>139.0</ele><time>2026-03-17T13:48:09Z</time></trkpt><trkpt lat="43.51865270551484" lon="3.189622658289355"><ele>139.0</ele><time>2026-03-17T13:48:10Z</time></trkpt><trkpt lat="43.518420951519" lon="3.189629471818434"><ele>139.0</ele><time>2026-03-17T13:48:11Z</time></trkpt><trkpt lat="43.51819034641234" lon="3.189619267412721"><ele>139.0</ele><time>2026-03-17T13:48:12Z</time></trkpt><trkpt lat="43.51796230629192" lon="3.189592127756254"><ele>139.5</ele><time>2026-03-17T13:48:13Z</time></trkpt><trkpt lat="43.517737493487815" lon="3.189553945478684"><ele>140.0</ele><time>2026-03-17T13:48:14Z</time></trkpt><trkpt lat="43.51750840808874" lon="3.189515188126195"><ele>140.0</ele><time>2026-03-17T13:48:15Z</time></trkpt><trkpt lat="43.51727971683379" lon="3.1894795529970557"><ele>140.0</ele><time>2026-03-17T13:48:16Z</time></trkpt><trkpt lat="43.51704700709223" lon="3.189441174618914"><ele>139.5</ele><time>2026-03-17T13:48:17Z</time></trkpt><trkpt lat="43.51682718077348" lon="3.189405026406504"><ele>139.0</ele><time>2026-03-17T13:48:18Z</time></trkpt><trkpt lat="43.516588185842295" lon="3.189362289649359"><ele>139.0</ele><time>2026-03-17T13:48:19Z</time></trkpt><trkpt lat="43.516361153184995" lon="3.1893220899396653"><ele>139.0</ele><time>2026-03-17T13:48:20Z</time></trkpt><trkpt lat="43.51613562758547" lon="3.1892815774551253"><ele>139.0</ele><time>2026-03-17T13:48:21Z</time></trkpt><trkpt lat="43.515905527623595" lon="3.189240391900669"><ele>139.0</ele><time>2026-03-17T13:48:22Z</time></trkpt><trkpt lat="43.51567702905868" lon="3.189202083938055"><ele>139.0</ele><time>2026-03-17T13:48:23Z</time></trkpt><trkpt lat="43.515452287444326" lon="3.189156447446936"><ele>139.0</ele><time>2026-03-17T13:48:24Z</time></trkpt><trkpt lat="43.51522737901342" lon="3.1891181985489965"><ele>139.0</ele><time>2026-03-17T13:48:25Z</time></trkpt><trkpt lat="43.514994600885174" lon="3.1890913681597386"><ele>139.0</ele><time>2026-03-17T13:48:26Z</time></trkpt><trkpt lat="43.51475831854168" lon="3.1890778988346877"><ele>138.0</ele><time>2026-03-17T13:48:27Z</time></trkpt><trkpt lat="43.5145216011326" lon="3.1890838140641162"><ele>137.0</ele><time>2026-03-17T13:48:28Z</time></trkpt><trkpt lat="43.51428011519747" lon="3.1891012751605743"><ele>137.0</ele><time>2026-03-17T13:48:29Z</time></trkpt><trkpt lat="43.51403660987273" lon="3.189123365628634"><ele>137.0</ele><time>2026-03-17T13:48:30Z</time></trkpt><trkpt lat="43.513792162602904" lon="3.189149115403068"><ele>136.0</ele><time>2026-03-17T13:48:31Z</time></trkpt><trkpt lat="43.51354651696152" lon="3.189171834371201"><ele>135.0</ele><time>2026-03-17T13:48:32Z</time></trkpt><trkpt lat="43.513302648390514" lon="3.1891906131576806"><ele>135.0</ele><time>2026-03-17T13:48:33Z</time></trkpt><trkpt lat="43.51305663972499" lon="3.1892140461718"><ele>135.0</ele><time>2026-03-17T13:48:34Z</time></trkpt><trkpt lat="43.51281168586482" lon="3.1892375584049493"><ele>135.5</ele><time>2026-03-17T13:48:35Z</time></trkpt><trkpt lat="43.51256690431178" lon="3.189263909095041"><ele>136.0</ele><time>2026-03-17T13:48:36Z</time></trkpt><trkpt lat="43.51232641437575" lon="3.1892871699278817"><ele>136.0</ele><time>2026-03-17T13:48:37Z</time></trkpt><trkpt lat="43.51208973289811" lon="3.189315665283014"><ele>136.0</ele><time>2026-03-17T13:48:38Z</time></trkpt><trkpt lat="43.51185242910481" lon="3.1893382491091615"><ele>135.5</ele><time>2026-03-17T13:48:39Z</time></trkpt><trkpt lat="43.511617908142235" lon="3.18936258094369"><ele>135.0</ele><time>2026-03-17T13:48:40Z</time></trkpt><trkpt lat="43.51137889168958" lon="3.1893927129759736"><ele>134.5</ele><time>2026-03-17T13:48:41Z</time></trkpt><trkpt lat="43.511141372133636" lon="3.189417013324215"><ele>134.0</ele><time>2026-03-17T13:48:42Z</time></trkpt><trkpt lat="43.510897150989145" lon="3.1894413243732935"><ele>134.0</ele><time>2026-03-17T13:48:43Z</time></trkpt><trkpt lat="43.51064817432925" lon="3.1894613871851614"><ele>134.0</ele><time>2026-03-17T13:48:44Z</time></trkpt><trkpt lat="43.510397161534975" lon="3.189477352204999"><ele>131.5</ele><time>2026-03-17T13:48:45Z</time></trkpt><trkpt lat="43.510157745054066" lon="3.18948833723236"><ele>129.0</ele><time>2026-03-17T13:48:46Z</time></trkpt><trkpt lat="43.5099228367787" lon="3.1895017538997497"><ele>129.0</ele><time>2026-03-17T13:48:47Z</time></trkpt><trkpt lat="43.50968884109333" lon="3.1895120206635545"><ele>129.0</ele><time>2026-03-17T13:48:48Z</time></trkpt><trkpt lat="43.509455491421136" lon="3.189522514564795"><ele>128.0</ele><time>2026-03-17T13:48:49Z</time></trkpt><trkpt lat="43.509225308795635" lon="3.1895361424435347"><ele>127.0</ele><time>2026-03-17T13:48:50Z</time></trkpt><trkpt lat="43.50899687022002" lon="3.189551422858138"><ele>127.0</ele><time>2026-03-17T13:48:51Z</time></trkpt><trkpt lat="43.508766407032745" lon="3.189566272682326"><ele>127.0</ele><time>2026-03-17T13:48:52Z</time></trkpt><trkpt lat="43.5085419803675" lon="3.1895789443151967"><ele>127.0</ele><time>2026-03-17T13:48:53Z</time></trkpt><trkpt lat="43.50831724559288" lon="3.1895863278601744"><ele>127.0</ele><time>2026-03-17T13:48:54Z</time></trkpt><trkpt lat="43.508092438995774" lon="3.18959473142837"><ele>126.5</ele><time>2026-03-17T13:48:55Z</time></trkpt><trkpt lat="43.50786568410956" lon="3.1896127284832874"><ele>126.0</ele><time>2026-03-17T13:48:56Z</time></trkpt><trkpt lat="43.5076367711855" lon="3.1896236303094962"><ele>126.0</ele><time>2026-03-17T13:48:57Z</time></trkpt><trkpt lat="43.50740496782212" lon="3.1896364137802142"><ele>126.0</ele><time>2026-03-17T13:48:58Z</time></trkpt><trkpt lat="43.5071721703945" lon="3.189654069145212"><ele>129.5</ele><time>2026-03-17T13:48:59Z</time></trkpt><trkpt lat="43.50693725035187" lon="3.1896675100611427"><ele>133.0</ele><time>2026-03-17T13:49:00Z</time></trkpt><trkpt lat="43.50670497847577" lon="3.1896830835972994"><ele>133.0</ele><time>2026-03-17T13:49:01Z</time></trkpt><trkpt lat="43.50647189555522" lon="3.189703731463262"><ele>133.0</ele><time>2026-03-17T13:49:02Z</time></trkpt><trkpt lat="43.50624119256026" lon="3.1897246567634756"><ele>132.0</ele><time>2026-03-17T13:49:03Z</time></trkpt><trkpt lat="43.50601139848635" lon="3.1897406523095335"><ele>131.0</ele><time>2026-03-17T13:49:04Z</time></trkpt><trkpt lat="43.50578312830972" lon="3.189754684801975"><ele>131.0</ele><time>2026-03-17T13:49:05Z</time></trkpt><trkpt lat="43.50555938057898" lon="3.189765316873267"><ele>131.0</ele><time>2026-03-17T13:49:06Z</time></trkpt><trkpt lat="43.505337545749214" lon="3.189777518259372"><ele>131.0</ele><time>2026-03-17T13:49:07Z</time></trkpt><trkpt lat="43.50511770803616" lon="3.189790969164455"><ele>131.33333333333331</ele><time>2026-03-17T13:49:08Z</time></trkpt><trkpt lat="43.50489868492459" lon="3.1898067783476085"><ele>131.66666666666666</ele><time>2026-03-17T13:49:09Z</time></trkpt><trkpt lat="43.504683177888175" lon="3.1898206120120376"><ele>132.0</ele><time>2026-03-17T13:49:10Z</time></trkpt><trkpt lat="43.50447191867609" lon="3.189835049733782"><ele>129.66666666666666</ele><time>2026-03-17T13:49:10.999Z</time></trkpt><trkpt lat="43.5042748728941" lon="3.1898508753257517"><ele>127.33333333333333</ele><time>2026-03-17T13:49:11.999Z</time></trkpt><trkpt lat="43.50409008831657" lon="3.1898614135837846"><ele>125.0</ele><time>2026-03-17T13:49:12.999Z</time></trkpt><trkpt lat="43.50390665360177" lon="3.1898718978774077"><ele>124.66666666666666</ele><time>2026-03-17T13:49:13.999Z</time></trkpt><trkpt lat="43.50372148937719" lon="3.1898812225245403"><ele>124.33333333333334</ele><time>2026-03-17T13:49:14.999Z</time></trkpt><trkpt lat="43.50353042440457" lon="3.189893467148156"><ele>124.0</ele><time>2026-03-17T13:49:15.999Z</time></trkpt><trkpt lat="43.50334166695479" lon="3.1899020402841067"><ele>124.0</ele><time>2026-03-17T13:49:16.999Z</time></trkpt><trkpt lat="43.50314796147932" lon="3.189895196601793"><ele>124.0</ele><time>2026-03-17T13:49:17.999Z</time></trkpt><trkpt lat="43.502952082669566" lon="3.1898704382716807"><ele>124.0</ele><time>2026-03-17T13:49:18.999Z</time></trkpt><trkpt lat="43.502768897588325" lon="3.189818034656212"><ele>125.33333333333334</ele><time>2026-03-17T13:49:19.999Z</time></trkpt><trkpt lat="43.50259041077872" lon="3.189742632140067"><ele>126.66666666666666</ele><time>2026-03-17T13:49:20.999Z</time></trkpt><trkpt lat="43.50241560146483" lon="3.189652661695677"><ele>128.0</ele><time>2026-03-17T13:49:21.999Z</time></trkpt><trkpt lat="43.50224124212481" lon="3.1895629750796557"><ele>127.0</ele><time>2026-03-17T13:49:22.999Z</time></trkpt><trkpt lat="43.50206251656021" lon="3.1894794162825932"><ele>126.0</ele><time>2026-03-17T13:49:23.999Z</time></trkpt><trkpt lat="43.501884839461404" lon="3.1894031928884474"><ele>125.0</ele><time>2026-03-17T13:49:24.999Z</time></trkpt><trkpt lat="43.50170609724135" lon="3.1893173766723217"><ele>125.0</ele><time>2026-03-17T13:49:25.999Z</time></trkpt><trkpt lat="43.50151829955043" lon="3.1892371190668585"><ele>125.0</ele><time>2026-03-17T13:49:26.999Z</time></trkpt><trkpt lat="43.501337008255526" lon="3.1891557076265307"><ele>125.0</ele><time>2026-03-17T13:49:27.999Z</time></trkpt><trkpt lat="43.501149445291055" lon="3.18906688493162"><ele>124.66666666666666</ele><time>2026-03-17T13:49:28.999Z</time></trkpt><trkpt lat="43.500970284563785" lon="3.188995080324482"><ele>124.33333333333334</ele><time>2026-03-17T13:49:29.999Z</time></trkpt><trkpt lat="43.50078498296555" lon="3.188919928328892"><ele>124.0</ele><time>2026-03-17T13:49:30.999Z</time></trkpt><trkpt lat="43.500597058095316" lon="3.188838599033582"><ele>123.0</ele><time>2026-03-17T13:49:31.999Z</time></trkpt><trkpt lat="43.500403171673824" lon="3.188752728976358"><ele>122.0</ele><time>2026-03-17T13:49:32.999Z</time></trkpt><trkpt lat="43.50020746956837" lon="3.1886654826557574"><ele>121.0</ele><time>2026-03-17T13:49:33.999Z</time></trkpt><trkpt lat="43.500006050623" lon="3.188577047512308"><ele>121.0</ele><time>2026-03-17T13:49:34.999Z</time></trkpt><trkpt lat="43.49979543695484" lon="3.1884827031521557"><ele>121.0</ele><time>2026-03-17T13:49:35.999Z</time></trkpt><trkpt lat="43.499583012338576" lon="3.1883833398328045"><ele>121.0</ele><time>2026-03-17T13:49:36.999Z</time></trkpt><trkpt lat="43.49936710435686" lon="3.1882804486466263"><ele>120.66666666666667</ele><time>2026-03-17T13:49:37.999Z</time></trkpt><trkpt lat="43.49915630878009" lon="3.188181090269203"><ele>120.33333333333334</ele><time>2026-03-17T13:49:39Z</time></trkpt><trkpt lat="43.498950476137374" lon="3.1880874082698836"><ele>120.0</ele><time>2026-03-17T13:49:40Z</time></trkpt><trkpt lat="43.4987404192796" lon="3.187995689626336"><ele>120.0</ele><time>2026-03-17T13:49:41Z</time></trkpt><trkpt lat="43.4985303338213" lon="3.1879022926936575"><ele>120.0</ele><time>2026-03-17T13:49:42Z</time></trkpt><trkpt lat="43.498327592571535" lon="3.187814660815489"><ele>120.0</ele><time>2026-03-17T13:49:43Z</time></trkpt><trkpt lat="43.498128692460185" lon="3.187732020827618"><ele>120.0</ele><time>2026-03-17T13:49:44Z</time></trkpt><trkpt lat="43.497928918173315" lon="3.1876702013769735"><ele>120.0</ele><time>2026-03-17T13:49:45Z</time></trkpt><trkpt lat="43.4977298562721" lon="3.187637327727952"><ele>120.0</ele><time>2026-03-17T13:49:46Z</time></trkpt><trkpt lat="43.49753011967247" lon="3.1876357231938344"><ele>120.0</ele><time>2026-03-17T13:49:47Z</time></trkpt><trkpt lat="43.49733377674228" lon="3.187659837722174"><ele>120.0</ele><time>2026-03-17T13:49:48Z</time></trkpt><trkpt lat="43.49714558462947" lon="3.1877089279293336"><ele>120.0</ele><time>2026-03-17T13:49:49Z</time></trkpt><trkpt lat="43.49695325824549" lon="3.1877806430026183"><ele>121.0</ele><time>2026-03-17T13:49:50Z</time></trkpt><trkpt lat="43.49675263576454" lon="3.1878692745687096"><ele>122.0</ele><time>2026-03-17T13:49:51Z</time></trkpt><trkpt lat="43.496530991527806" lon="3.187969535301301"><ele>123.0</ele><time>2026-03-17T13:49:52Z</time></trkpt><trkpt lat="43.49629267690445" lon="3.188066408475828"><ele>122.5</ele><time>2026-03-17T13:49:53Z</time></trkpt><trkpt lat="43.49602873416372" lon="3.1881455697832206"><ele>122.0</ele><time>2026-03-17T13:49:54Z</time></trkpt><trkpt lat="43.49576344184319" lon="3.188263774436084"><ele>121.5</ele><time>2026-03-17T13:49:55Z</time></trkpt><trkpt lat="43.495473358813605" lon="3.188364482696463"><ele>121.0</ele><time>2026-03-17T13:49:56Z</time></trkpt><trkpt lat="43.49519049455364" lon="3.1884545546708205"><ele>121.0</ele><time>2026-03-17T13:49:57Z</time></trkpt><trkpt lat="43.494942002254916" lon="3.188534447357388"><ele>121.0</ele><time>2026-03-17T13:49:58Z</time></trkpt><trkpt lat="43.494704670543086" lon="3.188624408930156"><ele>119.5</ele><time>2026-03-17T13:49:59Z</time></trkpt><trkpt lat="43.49446823270352" lon="3.188719469875067"><ele>118.0</ele><time>2026-03-17T13:50:00Z</time></trkpt><trkpt lat="43.4942380347415" lon="3.1887980650882497"><ele>118.0</ele><time>2026-03-17T13:50:01Z</time></trkpt><trkpt lat="43.49400483260645" lon="3.1888861435162688"><ele>118.0</ele><time>2026-03-17T13:50:02Z</time></trkpt><trkpt lat="43.493768858038216" lon="3.188976747539483"><ele>118.0</ele><time>2026-03-17T13:50:03Z</time></trkpt><trkpt lat="43.49353820492383" lon="3.189063200619492"><ele>118.0</ele><time>2026-03-17T13:50:04Z</time></trkpt><trkpt lat="43.49330191278752" lon="3.189157366605518"><ele>118.0</ele><time>2026-03-17T13:50:05Z</time></trkpt><trkpt lat="43.493067648073584" lon="3.1892513577150643"><ele>118.0</ele><time>2026-03-17T13:50:06Z</time></trkpt><trkpt lat="43.49283272880778" lon="3.189342323275594"><ele>118.0</ele><time>2026-03-17T13:50:07Z</time></trkpt><trkpt lat="43.49259808351587" lon="3.1894351926918474"><ele>118.0</ele><time>2026-03-17T13:50:08Z</time></trkpt><trkpt lat="43.49236896709103" lon="3.189521140416281"><ele>118.0</ele><time>2026-03-17T13:50:09Z</time></trkpt><trkpt lat="43.4921382695834" lon="3.1896134103047733"><ele>118.0</ele><time>2026-03-17T13:50:10Z</time></trkpt><trkpt lat="43.49190898478613" lon="3.1897153141235233"><ele>117.0</ele><time>2026-03-17T13:50:11Z</time></trkpt><trkpt lat="43.491677536864245" lon="3.189824303695228"><ele>116.0</ele><time>2026-03-17T13:50:12Z</time></trkpt><trkpt lat="43.49145456836194" lon="3.1899453685267245"><ele>115.5</ele><time>2026-03-17T13:50:13Z</time></trkpt><trkpt lat="43.49123843542052" lon="3.1900874243774604"><ele>115.0</ele><time>2026-03-17T13:50:14Z</time></trkpt><trkpt lat="43.491035507713924" lon="3.190246353549738"><ele>115.0</ele><time>2026-03-17T13:50:15Z</time></trkpt><trkpt lat="43.490827673499226" lon="3.1904217911722044"><ele>115.0</ele><time>2026-03-17T13:50:16Z</time></trkpt><trkpt lat="43.490630354534545" lon="3.1906094461522763"><ele>116.0</ele><time>2026-03-17T13:50:17Z</time></trkpt><trkpt lat="43.490433179432046" lon="3.190798061516218"><ele>117.0</ele><time>2026-03-17T13:50:18Z</time></trkpt><trkpt lat="43.49024096549946" lon="3.1910069985412504"><ele>117.0</ele><time>2026-03-17T13:50:19Z</time></trkpt><trkpt lat="43.490052187554795" lon="3.1912186260733706"><ele>117.0</ele><time>2026-03-17T13:50:20Z</time></trkpt><trkpt lat="43.48986432438291" lon="3.191434262152399"><ele>117.0</ele><time>2026-03-17T13:50:21Z</time></trkpt><trkpt lat="43.4896751100792" lon="3.1916493145536236"><ele>117.0</ele><time>2026-03-17T13:50:22Z</time></trkpt><trkpt lat="43.48949088746833" lon="3.1918651815576795"><ele>117.0</ele><time>2026-03-17T13:50:23Z</time></trkpt><trkpt lat="43.48931682593806" lon="3.1920881803046317"><ele>117.0</ele><time>2026-03-17T13:50:24Z</time></trkpt><trkpt lat="43.48916902643923" lon="3.1923266111933795"><ele>118.5</ele><time>2026-03-17T13:50:25Z</time></trkpt><trkpt lat="43.48903192953545" lon="3.1925929791729093"><ele>120.0</ele><time>2026-03-17T13:50:26Z</time></trkpt><trkpt lat="43.4889191782528" lon="3.192879296105934"><ele>119.0</ele><time>2026-03-17T13:50:27Z</time></trkpt><trkpt lat="43.48882703661007" lon="3.193187530352912"><ele>118.0</ele><time>2026-03-17T13:50:28Z</time></trkpt><trkpt lat="43.488741638994824" lon="3.193501222442451"><ele>118.0</ele><time>2026-03-17T13:50:29Z</time></trkpt><trkpt lat="43.48865628668779" lon="3.193818705888734"><ele>118.0</ele><time>2026-03-17T13:50:30Z</time></trkpt><trkpt lat="43.48856765774732" lon="3.1941294600577628"><ele>117.0</ele><time>2026-03-17T13:50:31Z</time></trkpt><trkpt lat="43.48848010607819" lon="3.1944532030973853"><ele>116.0</ele><time>2026-03-17T13:50:32Z</time></trkpt><trkpt lat="43.488397287750956" lon="3.194775899139187"><ele>115.0</ele><time>2026-03-17T13:50:33Z</time></trkpt><trkpt lat="43.48831501482197" lon="3.195107285103413"><ele>114.0</ele><time>2026-03-17T13:50:34Z</time></trkpt><trkpt lat="43.48823141840676" lon="3.195427434984219"><ele>113.5</ele><time>2026-03-17T13:50:35Z</time></trkpt><trkpt lat="43.48815391081992" lon="3.195736054251182"><ele>113.0</ele><time>2026-03-17T13:50:36Z</time></trkpt><trkpt lat="43.48806878141577" lon="3.196056691920119"><ele>113.0</ele><time>2026-03-17T13:50:37Z</time></trkpt><trkpt lat="43.48798306357027" lon="3.196371070886896"><ele>113.0</ele><time>2026-03-17T13:50:38Z</time></trkpt><trkpt lat="43.48789586812209" lon="3.1966911670437317"><ele>116.0</ele><time>2026-03-17T13:50:39Z</time></trkpt><trkpt lat="43.487804579877825" lon="3.197013095771771"><ele>119.0</ele><time>2026-03-17T13:50:40Z</time></trkpt><trkpt lat="43.487723958331365" lon="3.197323265140948"><ele>119.0</ele><time>2026-03-17T13:50:41Z</time></trkpt><trkpt lat="43.487644349418325" lon="3.197614927896593"><ele>119.0</ele><time>2026-03-17T13:50:42Z</time></trkpt><trkpt lat="43.48755941494977" lon="3.1978863967761217"><ele>119.0</ele><time>2026-03-17T13:50:43Z</time></trkpt><trkpt lat="43.48745487971741" lon="3.1981298269864724"><ele>118.66666666666666</ele><time>2026-03-17T13:50:44Z</time></trkpt><trkpt lat="43.487325200650574" lon="3.1983554320480647"><ele>118.33333333333334</ele><time>2026-03-17T13:50:45Z</time></trkpt><trkpt lat="43.48716912896335" lon="3.198568905411113"><ele>118.0</ele><time>2026-03-17T13:50:46Z</time></trkpt><trkpt lat="43.48699677629924" lon="3.1987558299481185"><ele>118.0</ele><time>2026-03-17T13:50:47Z</time></trkpt><trkpt lat="43.48680332130017" lon="3.1989188853480206"><ele>118.0</ele><time>2026-03-17T13:50:48Z</time></trkpt><trkpt lat="43.48659425514016" lon="3.199071639266919"><ele>117.5</ele><time>2026-03-17T13:50:49Z</time></trkpt><trkpt lat="43.48637446203495" lon="3.199219364999787"><ele>117.0</ele><time>2026-03-17T13:50:50Z</time></trkpt><trkpt lat="43.48614486901857" lon="3.199364571275337"><ele>117.0</ele><time>2026-03-17T13:50:51Z</time></trkpt><trkpt lat="43.485908520604816" lon="3.1995089865593394"><ele>117.0</ele><time>2026-03-17T13:50:52Z</time></trkpt><trkpt lat="43.485668682933216" lon="3.1996565522412204"><ele>117.0</ele><time>2026-03-17T13:50:53Z</time></trkpt><trkpt lat="43.485434960569485" lon="3.199804872349211"><ele>117.0</ele><time>2026-03-17T13:50:54Z</time></trkpt><trkpt lat="43.4852061606405" lon="3.1999457872851993"><ele>116.0</ele><time>2026-03-17T13:50:55Z</time></trkpt><trkpt lat="43.48497416536026" lon="3.200088461446903"><ele>115.0</ele><time>2026-03-17T13:50:56Z</time></trkpt><trkpt lat="43.484740089921466" lon="3.2002282945836464"><ele>118.5</ele><time>2026-03-17T13:50:57Z</time></trkpt><trkpt lat="43.484510444348814" lon="3.2003650272339326"><ele>122.0</ele><time>2026-03-17T13:50:58Z</time></trkpt><trkpt lat="43.484283034210605" lon="3.2005026422370926"><ele>122.0</ele><time>2026-03-17T13:50:59Z</time></trkpt><trkpt lat="43.48405105744675" lon="3.2006522538031272"><ele>122.0</ele><time>2026-03-17T13:51:00Z</time></trkpt><trkpt lat="43.483819824503215" lon="3.2007964318557627"><ele>121.0</ele><time>2026-03-17T13:51:01Z</time></trkpt><trkpt lat="43.4835894744415" lon="3.200942469678687"><ele>120.0</ele><time>2026-03-17T13:51:02Z</time></trkpt><trkpt lat="43.483352327729186" lon="3.2010884704349696"><ele>120.0</ele><time>2026-03-17T13:51:03Z</time></trkpt><trkpt lat="43.48310881651651" lon="3.201244585543428"><ele>120.0</ele><time>2026-03-17T13:51:04Z</time></trkpt><trkpt lat="43.48286391178605" lon="3.2013891785832413"><ele>117.5</ele><time>2026-03-17T13:51:05Z</time></trkpt><trkpt lat="43.482623867194896" lon="3.2015463643130007"><ele>115.0</ele><time>2026-03-17T13:51:06Z</time></trkpt><trkpt lat="43.482381230504664" lon="3.2017047746828684"><ele>115.0</ele><time>2026-03-17T13:51:07Z</time></trkpt><trkpt lat="43.482146141642204" lon="3.201856835799342"><ele>115.0</ele><time>2026-03-17T13:51:08Z</time></trkpt><trkpt lat="43.48191452515872" lon="3.202004762899292"><ele>118.5</ele><time>2026-03-17T13:51:09Z</time></trkpt><trkpt lat="43.48170645055828" lon="3.202155238047069"><ele>122.0</ele><time>2026-03-17T13:51:10Z</time></trkpt><trkpt lat="43.48152500065881" lon="3.202321262517741"><ele>122.5</ele><time>2026-03-17T13:51:11Z</time></trkpt><trkpt lat="43.481358573219225" lon="3.2025320948566085"><ele>123.0</ele><time>2026-03-17T13:51:12Z</time></trkpt><trkpt lat="43.481209894353036" lon="3.2027744653768075"><ele>123.0</ele><time>2026-03-17T13:51:13Z</time></trkpt><trkpt lat="43.481064031720216" lon="3.2030486720215485"><ele>123.0</ele><time>2026-03-17T13:51:14Z</time></trkpt><trkpt lat="43.48091013133179" lon="3.203319515663643"><ele>120.0</ele><time>2026-03-17T13:51:15Z</time></trkpt><trkpt lat="43.480760780727365" lon="3.203587653179876"><ele>117.0</ele><time>2026-03-17T13:51:16Z</time></trkpt><trkpt lat="43.48061397954496" lon="3.2038541187143768"><ele>116.0</ele><time>2026-03-17T13:51:16.999Z</time></trkpt><trkpt lat="43.48046805496816" lon="3.20411013444413"><ele>115.0</ele><time>2026-03-17T13:51:17.999Z</time></trkpt><trkpt lat="43.48032892070178" lon="3.204357024827778"><ele>117.5</ele><time>2026-03-17T13:51:18.999Z</time></trkpt><trkpt lat="43.480187558743125" lon="3.2046239508316363"><ele>120.0</ele><time>2026-03-17T13:51:19.999Z</time></trkpt><trkpt lat="43.480033924456066" lon="3.20491691160801"><ele>120.0</ele><time>2026-03-17T13:51:20.999Z</time></trkpt><trkpt lat="43.47987647813915" lon="3.205214112882776"><ele>120.0</ele><time>2026-03-17T13:51:21.999Z</time></trkpt><trkpt lat="43.47971676643961" lon="3.2055042834477354"><ele>120.0</ele><time>2026-03-17T13:51:22.999Z</time></trkpt><trkpt lat="43.47956364457231" lon="3.2057770782727197"><ele>120.0</ele><time>2026-03-17T13:51:23.999Z</time></trkpt><trkpt lat="43.4794231541267" lon="3.2060201973986096"><ele>120.0</ele><time>2026-03-17T13:51:24.999Z</time></trkpt><trkpt lat="43.47927737268607" lon="3.206246544023832"><ele>120.0</ele><time>2026-03-17T13:51:25.999Z</time></trkpt><trkpt lat="43.47912041095077" lon="3.2064484698351836"><ele>120.0</ele><time>2026-03-17T13:51:26.999Z</time></trkpt><trkpt lat="43.478944400436475" lon="3.206611031934226"><ele>119.5</ele><time>2026-03-17T13:51:27.999Z</time></trkpt><trkpt lat="43.47874652460682" lon="3.2067544259768774"><ele>119.0</ele><time>2026-03-17T13:51:28.999Z</time></trkpt><trkpt lat="43.47853524232063" lon="3.206876167611083"><ele>119.0</ele><time>2026-03-17T13:51:29.999Z</time></trkpt><trkpt lat="43.47830976970055" lon="3.2069625156111905"><ele>119.0</ele><time>2026-03-17T13:51:30.999Z</time></trkpt><trkpt lat="43.47806891580567" lon="3.2070105236614075"><ele>123.5</ele><time>2026-03-17T13:51:31.999Z</time></trkpt><trkpt lat="43.47782433277635" lon="3.207036085015906"><ele>128.0</ele><time>2026-03-17T13:51:32.999Z</time></trkpt><trkpt lat="43.47757877663907" lon="3.2070624783283193"><ele>128.0</ele><time>2026-03-17T13:51:33.999Z</time></trkpt><trkpt lat="43.47732957374441" lon="3.2070917858313748"><ele>128.0</ele><time>2026-03-17T13:51:34.999Z</time></trkpt><trkpt lat="43.477081149518206" lon="3.2071162257233343"><ele>126.5</ele><time>2026-03-17T13:51:35.999Z</time></trkpt><trkpt lat="43.47683454898943" lon="3.2071289319103826"><ele>125.0</ele><time>2026-03-17T13:51:36.999Z</time></trkpt><trkpt lat="43.47657584806691" lon="3.2071590613477796"><ele>125.0</ele><time>2026-03-17T13:51:37.999Z</time></trkpt><trkpt lat="43.476316207171806" lon="3.207195012895925"><ele>125.0</ele><time>2026-03-17T13:51:38.999Z</time></trkpt><trkpt lat="43.47605456612135" lon="3.2072304195579737"><ele>121.5</ele><time>2026-03-17T13:51:39.999Z</time></trkpt><trkpt lat="43.47579374957122" lon="3.2072613414517956"><ele>118.0</ele><time>2026-03-17T13:51:40.999Z</time></trkpt><trkpt lat="43.475525033682516" lon="3.2072937812753306"><ele>120.5</ele><time>2026-03-17T13:51:41.999Z</time></trkpt><trkpt lat="43.47525791702672" lon="3.2073216835245044"><ele>123.0</ele><time>2026-03-17T13:51:42.999Z</time></trkpt><trkpt lat="43.47498511057808" lon="3.2073550030891624"><ele>119.0</ele><time>2026-03-17T13:51:43.999Z</time></trkpt><trkpt lat="43.47471724493989" lon="3.2073998075742"><ele>115.0</ele><time>2026-03-17T13:51:45Z</time></trkpt><trkpt lat="43.47446560969865" lon="3.2074577083365536"><ele>115.0</ele><time>2026-03-17T13:51:46Z</time></trkpt><trkpt lat="43.474223275086295" lon="3.2075469579549294"><ele>115.0</ele><time>2026-03-17T13:51:47Z</time></trkpt><trkpt lat="43.47397610618561" lon="3.2076662279006385"><ele>116.0</ele><time>2026-03-17T13:51:48Z</time></trkpt><trkpt lat="43.473734140092596" lon="3.2077952838172443"><ele>117.0</ele><time>2026-03-17T13:51:49Z</time></trkpt><trkpt lat="43.47350304153315" lon="3.2079204524931293"><ele>117.0</ele><time>2026-03-17T13:51:50Z</time></trkpt><trkpt lat="43.47327814404951" lon="3.208044149519581"><ele>117.0</ele><time>2026-03-17T13:51:51Z</time></trkpt><trkpt lat="43.47305975607865" lon="3.208151179269626"><ele>114.5</ele><time>2026-03-17T13:51:52Z</time></trkpt><trkpt lat="43.47284807665057" lon="3.2082489838980814"><ele>112.0</ele><time>2026-03-17T13:51:53Z</time></trkpt><trkpt lat="43.47263279115177" lon="3.208358308271985"><ele>112.0</ele><time>2026-03-17T13:51:54Z</time></trkpt><trkpt lat="43.4724188885474" lon="3.208468761682565"><ele>112.0</ele><time>2026-03-17T13:51:55Z</time></trkpt><trkpt lat="43.472206401095654" lon="3.2085762576804004"><ele>112.66666666666667</ele><time>2026-03-17T13:51:56Z</time></trkpt><trkpt lat="43.47199903103366" lon="3.208678534199594"><ele>113.33333333333334</ele><time>2026-03-17T13:51:57Z</time></trkpt><trkpt lat="43.471787064098734" lon="3.2087973364905364"><ele>114.0</ele><time>2026-03-17T13:51:58Z</time></trkpt><trkpt lat="43.47157579825494" lon="3.208906607252368"><ele>113.0</ele><time>2026-03-17T13:51:59Z</time></trkpt><trkpt lat="43.47136156709366" lon="3.2090268137257842"><ele>112.0</ele><time>2026-03-17T13:52:00Z</time></trkpt><trkpt lat="43.471147825267245" lon="3.209141002221737"><ele>112.0</ele><time>2026-03-17T13:52:01Z</time></trkpt><trkpt lat="43.47093470232775" lon="3.2092500551190293"><ele>112.0</ele><time>2026-03-17T13:52:02Z</time></trkpt><trkpt lat="43.47072241131145" lon="3.2093535524452284"><ele>112.0</ele><time>2026-03-17T13:52:03Z</time></trkpt><trkpt lat="43.470505961667214" lon="3.209433966291937"><ele>112.0</ele><time>2026-03-17T13:52:04Z</time></trkpt><trkpt lat="43.47028603646871" lon="3.2094863761421544"><ele>112.0</ele><time>2026-03-17T13:52:05Z</time></trkpt><trkpt lat="43.470065063782194" lon="3.2095197552203225"><ele>111.33333333333334</ele><time>2026-03-17T13:52:06Z</time></trkpt><trkpt lat="43.469849000578165" lon="3.2095257327952016"><ele>110.66666666666666</ele><time>2026-03-17T13:52:07Z</time></trkpt><trkpt lat="43.469631480788365" lon="3.2095174538255726"><ele>110.0</ele><time>2026-03-17T13:52:08Z</time></trkpt><trkpt lat="43.469412582419075" lon="3.2094878772930286"><ele>110.0</ele><time>2026-03-17T13:52:09Z</time></trkpt><trkpt lat="43.46918774960546" lon="3.209456498268327"><ele>110.0</ele><time>2026-03-17T13:52:10Z</time></trkpt><trkpt lat="43.46896470615289" lon="3.20942928828654"><ele>110.0</ele><time>2026-03-17T13:52:11Z</time></trkpt><trkpt lat="43.46873700978684" lon="3.2094045817717634"><ele>110.0</ele><time>2026-03-17T13:52:12Z</time></trkpt><trkpt lat="43.46851118106298" lon="3.209378167146224"><ele>110.0</ele><time>2026-03-17T13:52:13Z</time></trkpt><trkpt lat="43.46827970076227" lon="3.2093504587530863"><ele>110.0</ele><time>2026-03-17T13:52:14Z</time></trkpt><trkpt lat="43.46804533068416" lon="3.209319380270032"><ele>110.0</ele><time>2026-03-17T13:52:15Z</time></trkpt><trkpt lat="43.467803286661585" lon="3.209290892089946"><ele>110.0</ele><time>2026-03-17T13:52:16Z</time></trkpt><trkpt lat="43.46755617005926" lon="3.2092631873108117"><ele>110.0</ele><time>2026-03-17T13:52:17Z</time></trkpt><trkpt lat="43.46730078954901" lon="3.2092391882723414"><ele>110.0</ele><time>2026-03-17T13:52:18Z</time></trkpt><trkpt lat="43.46704524705914" lon="3.2092127022052535"><ele>110.5</ele><time>2026-03-17T13:52:19Z</time></trkpt><trkpt lat="43.46678648717235" lon="3.2091718924173436"><ele>111.0</ele><time>2026-03-17T13:52:20Z</time></trkpt><trkpt lat="43.46652658882632" lon="3.2091139903269585"><ele>111.0</ele><time>2026-03-17T13:52:21Z</time></trkpt><trkpt lat="43.466268079433625" lon="3.2090305427298653"><ele>111.0</ele><time>2026-03-17T13:52:22Z</time></trkpt><trkpt lat="43.46601514914515" lon="3.2089203402690205"><ele>108.5</ele><time>2026-03-17T13:52:23Z</time></trkpt><trkpt lat="43.46576217601079" lon="3.20879019252434"><ele>106.0</ele><time>2026-03-17T13:52:24Z</time></trkpt><trkpt lat="43.46551515843901" lon="3.2086524980743905"><ele>106.5</ele><time>2026-03-17T13:52:25Z</time></trkpt><trkpt lat="43.46526541433324" lon="3.2085199674390568"><ele>107.0</ele><time>2026-03-17T13:52:26Z</time></trkpt><trkpt lat="43.4650127099756" lon="3.2083919381527304"><ele>107.0</ele><time>2026-03-17T13:52:27Z</time></trkpt><trkpt lat="43.46476649185634" lon="3.2082684985344154"><ele>107.0</ele><time>2026-03-17T13:52:28Z</time></trkpt><trkpt lat="43.46452922263909" lon="3.2081376310866077"><ele>106.5</ele><time>2026-03-17T13:52:29Z</time></trkpt><trkpt lat="43.46429004808794" lon="3.208014648182898"><ele>106.0</ele><time>2026-03-17T13:52:30Z</time></trkpt><trkpt lat="43.46406148012109" lon="3.207894446018839"><ele>106.0</ele><time>2026-03-17T13:52:31Z</time></trkpt><trkpt lat="43.46383068874183" lon="3.207775649589878"><ele>106.0</ele><time>2026-03-17T13:52:32Z</time></trkpt><trkpt lat="43.46360478920605" lon="3.207654692876067"><ele>106.5</ele><time>2026-03-17T13:52:33Z</time></trkpt><trkpt lat="43.46337982807525" lon="3.207537194697703"><ele>107.0</ele><time>2026-03-17T13:52:34Z</time></trkpt><trkpt lat="43.46315214193974" lon="3.2074249776141643"><ele>106.5</ele><time>2026-03-17T13:52:35Z</time></trkpt><trkpt lat="43.46290746039512" lon="3.207316197037837"><ele>106.0</ele><time>2026-03-17T13:52:36Z</time></trkpt><trkpt lat="43.46267977783658" lon="3.2072082992449173"><ele>106.0</ele><time>2026-03-17T13:52:37Z</time></trkpt><trkpt lat="43.46245384791138" lon="3.2070993099762055"><ele>106.0</ele><time>2026-03-17T13:52:38Z</time></trkpt><trkpt lat="43.46223074455002" lon="3.2069880704284803"><ele>106.0</ele><time>2026-03-17T13:52:39Z</time></trkpt><trkpt lat="43.46198960359458" lon="3.2069119162006925"><ele>106.0</ele><time>2026-03-17T13:52:40Z</time></trkpt><trkpt lat="43.461746929634394" lon="3.206867018015054"><ele>106.0</ele><time>2026-03-17T13:52:41Z</time></trkpt><trkpt lat="43.46149327595254" lon="3.206844741162216"><ele>106.0</ele><time>2026-03-17T13:52:42Z</time></trkpt><trkpt lat="43.461243339893485" lon="3.2068328354970426"><ele>106.0</ele><time>2026-03-17T13:52:43Z</time></trkpt><trkpt lat="43.460990951313676" lon="3.2068239251104753"><ele>106.0</ele><time>2026-03-17T13:52:44Z</time></trkpt><trkpt lat="43.460733352494394" lon="3.20680574123754"><ele>106.0</ele><time>2026-03-17T13:52:45Z</time></trkpt><trkpt lat="43.46047488726557" lon="3.2067871817973854"><ele>106.0</ele><time>2026-03-17T13:52:46Z</time></trkpt><trkpt lat="43.460216549632236" lon="3.2067690299942417"><ele>107.0</ele><time>2026-03-17T13:52:47Z</time></trkpt><trkpt lat="43.45995725916316" lon="3.2067498449157266"><ele>108.0</ele><time>2026-03-17T13:52:48Z</time></trkpt><trkpt lat="43.45969613592002" lon="3.206734072632528"><ele>108.0</ele><time>2026-03-17T13:52:49Z</time></trkpt><trkpt lat="43.45943354831186" lon="3.206722465625671"><ele>108.0</ele><time>2026-03-17T13:52:50Z</time></trkpt><trkpt lat="43.45917209620174" lon="3.2067174541677774"><ele>108.0</ele><time>2026-03-17T13:52:51Z</time></trkpt><trkpt lat="43.4589075838068" lon="3.2067196658545596"><ele>108.0</ele><time>2026-03-17T13:52:52Z</time></trkpt><trkpt lat="43.45864321912931" lon="3.206736888742862"><ele>108.0</ele><time>2026-03-17T13:52:53Z</time></trkpt><trkpt lat="43.45837428181703" lon="3.206765309741009"><ele>108.0</ele><time>2026-03-17T13:52:54Z</time></trkpt><trkpt lat="43.45810818285459" lon="3.206810034334816"><ele>107.5</ele><time>2026-03-17T13:52:55Z</time></trkpt><trkpt lat="43.45784242893552" lon="3.2068679895572605"><ele>107.0</ele><time>2026-03-17T13:52:56Z</time></trkpt><trkpt lat="43.457576415517934" lon="3.2069364711008372"><ele>107.0</ele><time>2026-03-17T13:52:57Z</time></trkpt><trkpt lat="43.45731231308344" lon="3.207008592742792"><ele>107.0</ele><time>2026-03-17T13:52:58Z</time></trkpt><trkpt lat="43.45704981954351" lon="3.207085910951971"><ele>106.0</ele><time>2026-03-17T13:52:59Z</time></trkpt><trkpt lat="43.45678663501959" lon="3.207161194859471"><ele>105.0</ele><time>2026-03-17T13:53:00Z</time></trkpt><trkpt lat="43.45652203786189" lon="3.2072353566355205"><ele>104.5</ele><time>2026-03-17T13:53:01Z</time></trkpt><trkpt lat="43.45625771759631" lon="3.207316473813417"><ele>104.0</ele><time>2026-03-17T13:53:02Z</time></trkpt><trkpt lat="43.45599689554223" lon="3.207388354084105"><ele>106.0</ele><time>2026-03-17T13:53:03Z</time></trkpt><trkpt lat="43.4557436203207" lon="3.207461083344029"><ele>108.0</ele><time>2026-03-17T13:53:04Z</time></trkpt><trkpt lat="43.45549298126771" lon="3.2075313673624297"><ele>106.5</ele><time>2026-03-17T13:53:05Z</time></trkpt><trkpt lat="43.455241276092714" lon="3.207611279480231"><ele>105.0</ele><time>2026-03-17T13:53:06Z</time></trkpt><trkpt lat="43.45499965423369" lon="3.207684715483006"><ele>105.0</ele><time>2026-03-17T13:53:07Z</time></trkpt><trkpt lat="43.45475912592295" lon="3.207758778302018"><ele>105.0</ele><time>2026-03-17T13:53:08Z</time></trkpt><trkpt lat="43.45452260854669" lon="3.207825918060691"><ele>104.5</ele><time>2026-03-17T13:53:09Z</time></trkpt><trkpt lat="43.454289555534274" lon="3.2078944885634946"><ele>104.0</ele><time>2026-03-17T13:53:10Z</time></trkpt><trkpt lat="43.454052610058774" lon="3.2079659325249135"><ele>104.0</ele><time>2026-03-17T13:53:11Z</time></trkpt><trkpt lat="43.45382079414352" lon="3.2080327770095924"><ele>104.0</ele><time>2026-03-17T13:53:12Z</time></trkpt><trkpt lat="43.45359081124949" lon="3.2080968246754438"><ele>105.0</ele><time>2026-03-17T13:53:13Z</time></trkpt><trkpt lat="43.453355219464726" lon="3.2081657256632314"><ele>106.0</ele><time>2026-03-17T13:53:14Z</time></trkpt><trkpt lat="43.4531221455768" lon="3.2082309441730223"><ele>106.5</ele><time>2026-03-17T13:53:15Z</time></trkpt><trkpt lat="43.452891982482384" lon="3.208296869993595"><ele>107.0</ele><time>2026-03-17T13:53:16Z</time></trkpt><trkpt lat="43.45266685554927" lon="3.2083591949432666"><ele>107.0</ele><time>2026-03-17T13:53:17Z</time></trkpt><trkpt lat="43.45244521703866" lon="3.2084186867297877"><ele>107.0</ele><time>2026-03-17T13:53:18Z</time></trkpt><trkpt lat="43.45221828737775" lon="3.208483366207062"><ele>107.5</ele><time>2026-03-17T13:53:19Z</time></trkpt><trkpt lat="43.451996059138025" lon="3.2085388136974617"><ele>108.0</ele><time>2026-03-17T13:53:20Z</time></trkpt><trkpt lat="43.451772494870696" lon="3.2085983746365625"><ele>108.0</ele><time>2026-03-17T13:53:20.999Z</time></trkpt><trkpt lat="43.451545208531996" lon="3.2086647749656354"><ele>108.0</ele><time>2026-03-17T13:53:21.999Z</time></trkpt><trkpt lat="43.451317450745954" lon="3.2087353728884125"><ele>107.0</ele><time>2026-03-17T13:53:22.999Z</time></trkpt><trkpt lat="43.45108804633091" lon="3.208809648508597"><ele>106.0</ele><time>2026-03-17T13:53:23.999Z</time></trkpt><trkpt lat="43.45085401771155" lon="3.2088815630936867"><ele>106.0</ele><time>2026-03-17T13:53:24.999Z</time></trkpt><trkpt lat="43.450612547861695" lon="3.2089522919905673"><ele>106.0</ele><time>2026-03-17T13:53:25.999Z</time></trkpt><trkpt lat="43.45037055293814" lon="3.2090197001951104"><ele>105.5</ele><time>2026-03-17T13:53:26.999Z</time></trkpt><trkpt lat="43.45013663229208" lon="3.209084316280199"><ele>105.0</ele><time>2026-03-17T13:53:27.999Z</time></trkpt><trkpt lat="43.449904682155825" lon="3.209151908565341"><ele>105.0</ele><time>2026-03-17T13:53:28.999Z</time></trkpt><trkpt lat="43.449676433747065" lon="3.2092297020494684"><ele>105.0</ele><time>2026-03-17T13:53:29.999Z</time></trkpt><trkpt lat="43.44945211435488" lon="3.2093235637037996"><ele>106.0</ele><time>2026-03-17T13:53:30.999Z</time></trkpt><trkpt lat="43.44923512834966" lon="3.2094333596683087"><ele>107.0</ele><time>2026-03-17T13:53:31.999Z</time></trkpt><trkpt lat="43.44902789924138" lon="3.209560961272505"><ele>107.0</ele><time>2026-03-17T13:53:32.999Z</time></trkpt><trkpt lat="43.44882428203226" lon="3.2097127808162513"><ele>107.0</ele><time>2026-03-17T13:53:33.999Z</time></trkpt><trkpt lat="43.44862939237015" lon="3.2098824595787514"><ele>107.5</ele><time>2026-03-17T13:53:34.999Z</time></trkpt><trkpt lat="43.44844332057743" lon="3.210061353315524"><ele>108.0</ele><time>2026-03-17T13:53:35.999Z</time></trkpt><trkpt lat="43.44826374216703" lon="3.210250173811388"><ele>108.0</ele><time>2026-03-17T13:53:36.999Z</time></trkpt><trkpt lat="43.44809603674873" lon="3.210456544314313"><ele>108.0</ele><time>2026-03-17T13:53:37.999Z</time></trkpt><trkpt lat="43.447931863171966" lon="3.2106576093692683"><ele>108.0</ele><time>2026-03-17T13:53:38.999Z</time></trkpt><trkpt lat="43.44776841212647" lon="3.2108543110590975"><ele>107.0</ele><time>2026-03-17T13:53:39.999Z</time></trkpt><trkpt lat="43.4476086080903" lon="3.211044747371777"><ele>106.0</ele><time>2026-03-17T13:53:40.999Z</time></trkpt><trkpt lat="43.44744667222376" lon="3.2112457695115024"><ele>105.0</ele><time>2026-03-17T13:53:41.999Z</time></trkpt><trkpt lat="43.4472807512428" lon="3.2114516243583044"><ele>104.66666666666666</ele><time>2026-03-17T13:53:42.999Z</time></trkpt><trkpt lat="43.4471169937815" lon="3.2116435783391304"><ele>104.33333333333333</ele><time>2026-03-17T13:53:43.999Z</time></trkpt><trkpt lat="43.446954469369174" lon="3.2118373474469557"><ele>104.0</ele><time>2026-03-17T13:53:44.999Z</time></trkpt><trkpt lat="43.44679021203653" lon="3.2120300573926324"><ele>104.0</ele><time>2026-03-17T13:53:45.999Z</time></trkpt><trkpt lat="43.44662772868512" lon="3.2122257158648337"><ele>104.0</ele><time>2026-03-17T13:53:46.999Z</time></trkpt><trkpt lat="43.44646604729328" lon="3.212418748410898"><ele>104.0</ele><time>2026-03-17T13:53:47.999Z</time></trkpt><trkpt lat="43.446305910371166" lon="3.2126102516263537"><ele>104.0</ele><time>2026-03-17T13:53:48.999Z</time></trkpt><trkpt lat="43.446143657156576" lon="3.2128057194897672"><ele>104.0</ele><time>2026-03-17T13:53:49.999Z</time></trkpt><trkpt lat="43.445980110185545" lon="3.2130049637684204"><ele>104.0</ele><time>2026-03-17T13:53:51Z</time></trkpt><trkpt lat="43.44581530489125" lon="3.2131995476296886"><ele>103.66666666666666</ele><time>2026-03-17T13:53:52Z</time></trkpt><trkpt lat="43.44564939995235" lon="3.213384427669715"><ele>103.33333333333334</ele><time>2026-03-17T13:53:53Z</time></trkpt><trkpt lat="43.44547276588262" lon="3.2135432084164375"><ele>103.0</ele><time>2026-03-17T13:53:54Z</time></trkpt><trkpt lat="43.44528421977193" lon="3.2136629676817163"><ele>103.0</ele><time>2026-03-17T13:53:55Z</time></trkpt><trkpt lat="43.44507991122588" lon="3.213750117489065"><ele>103.0</ele><time>2026-03-17T13:53:56Z</time></trkpt><trkpt lat="43.444869006062966" lon="3.21380079594436"><ele>103.0</ele><time>2026-03-17T13:53:57Z</time></trkpt><trkpt lat="43.44465079398059" lon="3.213857451073305"><ele>102.33333333333334</ele><time>2026-03-17T13:53:58Z</time></trkpt><trkpt lat="43.44443291032191" lon="3.2139144861757827"><ele>101.66666666666666</ele><time>2026-03-17T13:53:59Z</time></trkpt><trkpt lat="43.44421908725014" lon="3.213967235345208"><ele>101.0</ele><time>2026-03-17T13:54:00Z</time></trkpt><trkpt lat="43.44400576855175" lon="3.2140230449272003"><ele>100.66666666666666</ele><time>2026-03-17T13:54:01Z</time></trkpt><trkpt lat="43.44378957552754" lon="3.2140863314432675"><ele>100.33333333333334</ele><time>2026-03-17T13:54:02Z</time></trkpt><trkpt lat="43.44357800777999" lon="3.2141543806515993"><ele>100.0</ele><time>2026-03-17T13:54:03Z</time></trkpt><trkpt lat="43.443378543931956" lon="3.2142373115553617"><ele>100.0</ele><time>2026-03-17T13:54:04Z</time></trkpt><trkpt lat="43.4431936314502" lon="3.214357391471066"><ele>100.0</ele><time>2026-03-17T13:54:05Z</time></trkpt><trkpt lat="43.44302541950043" lon="3.214520947136405"><ele>100.0</ele><time>2026-03-17T13:54:06Z</time></trkpt><trkpt lat="43.44288271964301" lon="3.2147147180846547"><ele>100.0</ele><time>2026-03-17T13:54:07Z</time></trkpt><trkpt lat="43.44274686012333" lon="3.2149279093210126"><ele>100.0</ele><time>2026-03-17T13:54:08Z</time></trkpt><trkpt lat="43.44260899921293" lon="3.21515065201384"><ele>100.0</ele><time>2026-03-17T13:54:09Z</time></trkpt><trkpt lat="43.442470121727546" lon="3.2153615090043672"><ele>100.0</ele><time>2026-03-17T13:54:10Z</time></trkpt><trkpt lat="43.44232704644647" lon="3.2155744536541673"><ele>100.0</ele><time>2026-03-17T13:54:11Z</time></trkpt><trkpt lat="43.44218632427545" lon="3.2157981724544857"><ele>100.0</ele><time>2026-03-17T13:54:12Z</time></trkpt><trkpt lat="43.44204945177915" lon="3.2160187332488697"><ele>99.66666666666667</ele><time>2026-03-17T13:54:13Z</time></trkpt><trkpt lat="43.441912061859576" lon="3.2162316560943647"><ele>99.33333333333334</ele><time>2026-03-17T13:54:14Z</time></trkpt><trkpt lat="43.441775880959796" lon="3.2164394030265093"><ele>99.0</ele><time>2026-03-17T13:54:15Z</time></trkpt><trkpt lat="43.441641556079404" lon="3.216630960974154"><ele>99.0</ele><time>2026-03-17T13:54:16Z</time></trkpt><trkpt lat="43.44150030264237" lon="3.216790543714947"><ele>99.0</ele><time>2026-03-17T13:54:17Z</time></trkpt><trkpt lat="43.44134327799921" lon="3.216946375700735"><ele>99.0</ele><time>2026-03-17T13:54:18Z</time></trkpt><trkpt lat="43.44117290183168" lon="3.217077906466361"><ele>99.33333333333334</ele><time>2026-03-17T13:54:19Z</time></trkpt><trkpt lat="43.44098870358917" lon="3.2171885715061928"><ele>99.66666666666667</ele><time>2026-03-17T13:54:20Z</time></trkpt><trkpt lat="43.44079390063983" lon="3.217276208952227"><ele>100.0</ele><time>2026-03-17T13:54:21Z</time></trkpt><trkpt lat="43.440587645739505" lon="3.2173433940204674"><ele>99.0</ele><time>2026-03-17T13:54:22Z</time></trkpt><trkpt lat="43.44037648736952" lon="3.21737329104272"><ele>98.0</ele><time>2026-03-17T13:54:23Z</time></trkpt><trkpt lat="43.44016365590046" lon="3.2173682427967587"><ele>97.0</ele><time>2026-03-17T13:54:24Z</time></trkpt><trkpt lat="43.43995878526457" lon="3.2173360197287098"><ele>97.0</ele><time>2026-03-17T13:54:25Z</time></trkpt><trkpt lat="43.439757320917145" lon="3.217281464223218"><ele>97.0</ele><time>2026-03-17T13:54:26Z</time></trkpt><trkpt lat="43.43956425937575" lon="3.21719796453457"><ele>97.0</ele><time>2026-03-17T13:54:27Z</time></trkpt><trkpt lat="43.4393754151803" lon="3.217094447309206"><ele>97.0</ele><time>2026-03-17T13:54:28Z</time></trkpt><trkpt lat="43.439186144442225" lon="3.216966237965026"><ele>97.0</ele><time>2026-03-17T13:54:29Z</time></trkpt><trkpt lat="43.4390000645761" lon="3.2168202021177015"><ele>97.0</ele><time>2026-03-17T13:54:30Z</time></trkpt><trkpt lat="43.43881829042818" lon="3.2166708387944576"><ele>96.66666666666667</ele><time>2026-03-17T13:54:31Z</time></trkpt><trkpt lat="43.43862979523602" lon="3.2165241611037327"><ele>96.33333333333334</ele><time>2026-03-17T13:54:32Z</time></trkpt><trkpt lat="43.43844648147726" lon="3.216377799890779"><ele>96.0</ele><time>2026-03-17T13:54:33Z</time></trkpt><trkpt lat="43.438254049143225" lon="3.216235303355686"><ele>96.0</ele><time>2026-03-17T13:54:34Z</time></trkpt><trkpt lat="43.4380540183674" lon="3.2160906842536483"><ele>96.0</ele><time>2026-03-17T13:54:35Z</time></trkpt><trkpt lat="43.43785131495924" lon="3.2159443843241675"><ele>94.5</ele><time>2026-03-17T13:54:36Z</time></trkpt><trkpt lat="43.43764211006312" lon="3.2158181115238005"><ele>93.0</ele><time>2026-03-17T13:54:37Z</time></trkpt><trkpt lat="43.43741883645313" lon="3.2157071440707745"><ele>92.5</ele><time>2026-03-17T13:54:38Z</time></trkpt><trkpt lat="43.437194244574385" lon="3.21561236866829"><ele>92.0</ele><time>2026-03-17T13:54:39Z</time></trkpt><trkpt lat="43.43696738878769" lon="3.215539094779993"><ele>91.5</ele><time>2026-03-17T13:54:40Z</time></trkpt><trkpt lat="43.43673296775691" lon="3.215501889091379"><ele>91.0</ele><time>2026-03-17T13:54:41Z</time></trkpt><trkpt lat="43.4364964595597" lon="3.215500553393855"><ele>91.0</ele><time>2026-03-17T13:54:42Z</time></trkpt><trkpt lat="43.43625465632447" lon="3.2155204455182"><ele>91.0</ele><time>2026-03-17T13:54:43Z</time></trkpt><trkpt lat="43.436008443316005" lon="3.2155570065063563"><ele>91.0</ele><time>2026-03-17T13:54:44Z</time></trkpt><trkpt lat="43.43576319052774" lon="3.2156288097336456"><ele>91.0</ele><time>2026-03-17T13:54:45Z</time></trkpt><trkpt lat="43.43552303485895" lon="3.2157297796578557"><ele>89.5</ele><time>2026-03-17T13:54:46Z</time></trkpt><trkpt lat="43.435294147188415" lon="3.2158710285697096"><ele>88.0</ele><time>2026-03-17T13:54:47Z</time></trkpt><trkpt lat="43.435072045290724" lon="3.2160398761617026"><ele>88.0</ele><time>2026-03-17T13:54:48Z</time></trkpt><trkpt lat="43.43485547497641" lon="3.216224474456594"><ele>88.0</ele><time>2026-03-17T13:54:49Z</time></trkpt><trkpt lat="43.4346520937591" lon="3.216431449480016"><ele>88.0</ele><time>2026-03-17T13:54:50Z</time></trkpt><trkpt lat="43.43446413297383" lon="3.2166771378038646"><ele>88.0</ele><time>2026-03-17T13:54:51Z</time></trkpt><trkpt lat="43.43429492516638" lon="3.216941919929627"><ele>88.0</ele><time>2026-03-17T13:54:52Z</time></trkpt><trkpt lat="43.43413810638676" lon="3.2172271686885394"><ele>88.0</ele><time>2026-03-17T13:54:53Z</time></trkpt><trkpt lat="43.43398888720882" lon="3.2175456261854296"><ele>86.5</ele><time>2026-03-17T13:54:54Z</time></trkpt><trkpt lat="43.433843072683246" lon="3.2178786936791024"><ele>85.0</ele><time>2026-03-17T13:54:55Z</time></trkpt><trkpt lat="43.433692593481474" lon="3.2182176832662903"><ele>88.0</ele><time>2026-03-17T13:54:56Z</time></trkpt><trkpt lat="43.43353270574023" lon="3.2185431345454925"><ele>91.0</ele><time>2026-03-17T13:54:57Z</time></trkpt><trkpt lat="43.433384140253565" lon="3.2188887300649727"><ele>89.5</ele><time>2026-03-17T13:54:58Z</time></trkpt><trkpt lat="43.433236973237264" lon="3.219230254386155"><ele>88.0</ele><time>2026-03-17T13:54:59Z</time></trkpt><trkpt lat="43.433091535850586" lon="3.219552498143248"><ele>90.0</ele><time>2026-03-17T13:55:00Z</time></trkpt><trkpt lat="43.43281187401215" lon="3.2201737460920685"><ele>90.0</ele><time>2026-03-17T13:55:02Z</time></trkpt><trkpt lat="43.43267475751393" lon="3.2204772697572213"><ele>90.0</ele><time>2026-03-17T13:55:03Z</time></trkpt><trkpt lat="43.43253518523125" lon="3.220785851862959"><ele>87.0</ele><time>2026-03-17T13:55:04Z</time></trkpt><trkpt lat="43.43239750604275" lon="3.221064430133359"><ele>84.0</ele><time>2026-03-17T13:55:05Z</time></trkpt><trkpt lat="43.432241640595855" lon="3.221319571856099"><ele>84.5</ele><time>2026-03-17T13:55:06Z</time></trkpt><trkpt lat="43.43206568021259" lon="3.2215435212319545"><ele>85.0</ele><time>2026-03-17T13:55:07Z</time></trkpt><trkpt lat="43.43187084767572" lon="3.2217389471562363"><ele>85.0</ele><time>2026-03-17T13:55:08Z</time></trkpt><trkpt lat="43.4316633570846" lon="3.22190965552705"><ele>85.0</ele><time>2026-03-17T13:55:09Z</time></trkpt><trkpt lat="43.43143992955501" lon="3.222052424433442"><ele>85.0</ele><time>2026-03-17T13:55:10Z</time></trkpt><trkpt lat="43.43120304641195" lon="3.2221681069732244"><ele>85.0</ele><time>2026-03-17T13:55:11Z</time></trkpt><trkpt lat="43.43094565672368" lon="3.222258476987241"><ele>82.5</ele><time>2026-03-17T13:55:12Z</time></trkpt><trkpt lat="43.430676397354695" lon="3.2223458111172514"><ele>80.0</ele><time>2026-03-17T13:55:13Z</time></trkpt><trkpt lat="43.43040006713773" lon="3.222442479466539"><ele>79.0</ele><time>2026-03-17T13:55:14Z</time></trkpt><trkpt lat="43.43011866581766" lon="3.2225450414307435"><ele>78.0</ele><time>2026-03-17T13:55:15Z</time></trkpt><trkpt lat="43.429830046417344" lon="3.2226515372736926"><ele>78.0</ele><time>2026-03-17T13:55:16Z</time></trkpt><trkpt lat="43.429543405641226" lon="3.2227578680655022"><ele>78.0</ele><time>2026-03-17T13:55:17Z</time></trkpt><trkpt lat="43.429254136426806" lon="3.2228744325384615"><ele>78.0</ele><time>2026-03-17T13:55:18Z</time></trkpt><trkpt lat="43.42897695234576" lon="3.222986042763597"><ele>78.0</ele><time>2026-03-17T13:55:19Z</time></trkpt><trkpt lat="43.42872049722814" lon="3.2230782596800913"><ele>77.0</ele><time>2026-03-17T13:55:20Z</time></trkpt><trkpt lat="43.428465890978536" lon="3.2231660376325917"><ele>76.0</ele><time>2026-03-17T13:55:21Z</time></trkpt><trkpt lat="43.42821790370787" lon="3.223255481188707"><ele>77.0</ele><time>2026-03-17T13:55:22Z</time></trkpt><trkpt lat="43.427975607907705" lon="3.223337682989741"><ele>78.0</ele><time>2026-03-17T13:55:23Z</time></trkpt><trkpt lat="43.427737038062716" lon="3.2234170156089346"><ele>78.0</ele><time>2026-03-17T13:55:24Z</time></trkpt><trkpt lat="43.427504814381585" lon="3.2234960330467533"><ele>78.0</ele><time>2026-03-17T13:55:25Z</time></trkpt><trkpt lat="43.427275746047975" lon="3.223573180643619"><ele>78.0</ele><time>2026-03-17T13:55:26Z</time></trkpt><trkpt lat="43.42704376888717" lon="3.2236556871746234"><ele>78.0</ele><time>2026-03-17T13:55:27Z</time></trkpt><trkpt lat="43.42680886692676" lon="3.223739756549693"><ele>78.0</ele><time>2026-03-17T13:55:28Z</time></trkpt><trkpt lat="43.42657888047306" lon="3.22382063147852"><ele>78.0</ele><time>2026-03-17T13:55:29Z</time></trkpt><trkpt lat="43.426344806183906" lon="3.2239058923088884"><ele>77.0</ele><time>2026-03-17T13:55:30Z</time></trkpt><trkpt lat="43.42610411703973" lon="3.223995163078979"><ele>76.0</ele><time>2026-03-17T13:55:31Z</time></trkpt><trkpt lat="43.42586069365805" lon="3.2240858558152503"><ele>76.0</ele><time>2026-03-17T13:55:32Z</time></trkpt><trkpt lat="43.425622887267984" lon="3.2241713732345834"><ele>76.0</ele><time>2026-03-17T13:55:33Z</time></trkpt><trkpt lat="43.42538106774926" lon="3.224265036042346"><ele>76.0</ele><time>2026-03-17T13:55:34Z</time></trkpt><trkpt lat="43.425140625700884" lon="3.2243576584444287"><ele>76.0</ele><time>2026-03-17T13:55:35Z</time></trkpt><trkpt lat="43.42490041115089" lon="3.224448272449673"><ele>76.0</ele><time>2026-03-17T13:55:36Z</time></trkpt><trkpt lat="43.424656591673966" lon="3.2245332582534716"><ele>76.0</ele><time>2026-03-17T13:55:36.999Z</time></trkpt><trkpt lat="43.42440960223794" lon="3.2246242395486853"><ele>76.0</ele><time>2026-03-17T13:55:37.999Z</time></trkpt><trkpt lat="43.42416337240375" lon="3.2247132725533265"><ele>76.0</ele><time>2026-03-17T13:55:38.999Z</time></trkpt><trkpt lat="43.423916277205315" lon="3.2248039295715314"><ele>74.5</ele><time>2026-03-17T13:55:39.999Z</time></trkpt><trkpt lat="43.42366705849739" lon="3.224894117207096"><ele>73.0</ele><time>2026-03-17T13:55:40.999Z</time></trkpt><trkpt lat="43.42341842543908" lon="3.2249870129377807"><ele>73.0</ele><time>2026-03-17T13:55:41.999Z</time></trkpt><trkpt lat="43.42317166405248" lon="3.2250692227926168"><ele>73.0</ele><time>2026-03-17T13:55:42.999Z</time></trkpt><trkpt lat="43.42292332538052" lon="3.2251613265053813"><ele>74.5</ele><time>2026-03-17T13:55:43.999Z</time></trkpt><trkpt lat="43.42267208380112" lon="3.2252577050561158"><ele>76.0</ele><time>2026-03-17T13:55:44.999Z</time></trkpt><trkpt lat="43.42242271978006" lon="3.225349673062876"><ele>76.0</ele><time>2026-03-17T13:55:45.999Z</time></trkpt><trkpt lat="43.422177424006584" lon="3.225442893337455"><ele>76.0</ele><time>2026-03-17T13:55:46.999Z</time></trkpt><trkpt lat="43.42193259108918" lon="3.2255323776395124"><ele>76.5</ele><time>2026-03-17T13:55:47.999Z</time></trkpt><trkpt lat="43.421690758003756" lon="3.2256218534810075"><ele>77.0</ele><time>2026-03-17T13:55:48.999Z</time></trkpt><trkpt lat="43.42145596978046" lon="3.2257049286967336"><ele>76.5</ele><time>2026-03-17T13:55:49.999Z</time></trkpt><trkpt lat="43.421223397344576" lon="3.2257897641259246"><ele>76.0</ele><time>2026-03-17T13:55:50.999Z</time></trkpt><trkpt lat="43.420998264937595" lon="3.225872289014537"><ele>76.0</ele><time>2026-03-17T13:55:51.999Z</time></trkpt><trkpt lat="43.42077340288004" lon="3.225953222189443"><ele>76.0</ele><time>2026-03-17T13:55:52.999Z</time></trkpt><trkpt lat="43.42054687693116" lon="3.226044218757916"><ele>76.0</ele><time>2026-03-17T13:55:53.999Z</time></trkpt><trkpt lat="43.42032292783999" lon="3.2261271482107468"><ele>76.0</ele><time>2026-03-17T13:55:54.999Z</time></trkpt><trkpt lat="43.42009599847456" lon="3.226206529164941"><ele>76.0</ele><time>2026-03-17T13:55:55.999Z</time></trkpt><trkpt lat="43.419866384270065" lon="3.2262949042082805"><ele>76.0</ele><time>2026-03-17T13:55:57Z</time></trkpt><trkpt lat="43.41963683115064" lon="3.226373997403293"><ele>76.0</ele><time>2026-03-17T13:55:58Z</time></trkpt><trkpt lat="43.419406376000985" lon="3.2264574768974716"><ele>76.0</ele><time>2026-03-17T13:55:59Z</time></trkpt><trkpt lat="43.419170488373105" lon="3.226542184227488"><ele>75.0</ele><time>2026-03-17T13:56:00Z</time></trkpt><trkpt lat="43.41893990488827" lon="3.2266272061444603"><ele>74.0</ele><time>2026-03-17T13:56:01Z</time></trkpt><trkpt lat="43.41870505298752" lon="3.226711468590351"><ele>74.0</ele><time>2026-03-17T13:56:02Z</time></trkpt><trkpt lat="43.41846767072193" lon="3.226799150575727"><ele>74.0</ele><time>2026-03-17T13:56:03Z</time></trkpt><trkpt lat="43.41822819753158" lon="3.2268852797664147"><ele>74.0</ele><time>2026-03-17T13:56:04Z</time></trkpt><trkpt lat="43.417992338735694" lon="3.2269653167600945"><ele>74.0</ele><time>2026-03-17T13:56:05Z</time></trkpt><trkpt lat="43.417756522158435" lon="3.2270470676862733"><ele>74.5</ele><time>2026-03-17T13:56:06Z</time></trkpt><trkpt lat="43.41752141333856" lon="3.227131095512761"><ele>75.0</ele><time>2026-03-17T13:56:07Z</time></trkpt><trkpt lat="43.417285219604956" lon="3.2272140248866554"><ele>74.5</ele><time>2026-03-17T13:56:08Z</time></trkpt><trkpt lat="43.4170505135531" lon="3.2272927489893792"><ele>74.0</ele><time>2026-03-17T13:56:09Z</time></trkpt><trkpt lat="43.41681999966765" lon="3.227377517742614"><ele>72.0</ele><time>2026-03-17T13:56:10Z</time></trkpt><trkpt lat="43.41657296316445" lon="3.2274740865866582"><ele>70.0</ele><time>2026-03-17T13:56:11Z</time></trkpt><trkpt lat="43.4163446266601" lon="3.22756128893619"><ele>70.0</ele><time>2026-03-17T13:56:12Z</time></trkpt><trkpt lat="43.416115299413185" lon="3.2276502850166"><ele>70.0</ele><time>2026-03-17T13:56:13Z</time></trkpt><trkpt lat="43.41588967116044" lon="3.2277327533845934"><ele>70.0</ele><time>2026-03-17T13:56:14Z</time></trkpt><trkpt lat="43.41565676366663" lon="3.227818476179906"><ele>70.0</ele><time>2026-03-17T13:56:15Z</time></trkpt><trkpt lat="43.41542335274608" lon="3.2279000604814208"><ele>70.0</ele><time>2026-03-17T13:56:16Z</time></trkpt><trkpt lat="43.415190349068084" lon="3.227984194375067"><ele>70.0</ele><time>2026-03-17T13:56:17Z</time></trkpt><trkpt lat="43.414955246547756" lon="3.2280747851683587"><ele>70.0</ele><time>2026-03-17T13:56:18Z</time></trkpt><trkpt lat="43.41471727606871" lon="3.2281604184118966"><ele>70.0</ele><time>2026-03-17T13:56:19Z</time></trkpt><trkpt lat="43.41447817750094" lon="3.2282471414708254"><ele>70.5</ele><time>2026-03-17T13:56:20Z</time></trkpt><trkpt lat="43.414234242844486" lon="3.2283430806402205"><ele>71.0</ele><time>2026-03-17T13:56:21Z</time></trkpt><trkpt lat="43.41399909297544" lon="3.228441071735201"><ele>71.0</ele><time>2026-03-17T13:56:22Z</time></trkpt><trkpt lat="43.41375151847238" lon="3.2285294332685064"><ele>71.0</ele><time>2026-03-17T13:56:23Z</time></trkpt><trkpt lat="43.41350565296289" lon="3.2286141096965872"><ele>71.0</ele><time>2026-03-17T13:56:24Z</time></trkpt><trkpt lat="43.41327644693376" lon="3.2286962687611713"><ele>71.0</ele><time>2026-03-17T13:56:25Z</time></trkpt><trkpt lat="43.41304062528109" lon="3.228775004789827"><ele>72.0</ele><time>2026-03-17T13:56:26Z</time></trkpt><trkpt lat="43.412804869307166" lon="3.228862596576033"><ele>73.0</ele><time>2026-03-17T13:56:27Z</time></trkpt><trkpt lat="43.41257247549689" lon="3.2289536713481266"><ele>71.0</ele><time>2026-03-17T13:56:28Z</time></trkpt><trkpt lat="43.41233539414446" lon="3.2290306443870196"><ele>69.0</ele><time>2026-03-17T13:56:29Z</time></trkpt><trkpt lat="43.412093378254234" lon="3.229119541353923"><ele>69.0</ele><time>2026-03-17T13:56:30Z</time></trkpt><trkpt lat="43.41186036298983" lon="3.229176326023128"><ele>69.0</ele><time>2026-03-17T13:56:31Z</time></trkpt><trkpt lat="43.41162291058561" lon="3.2292121547435273"><ele>69.0</ele><time>2026-03-17T13:56:32Z</time></trkpt><trkpt lat="43.41138602880984" lon="3.229231575638223"><ele>69.0</ele><time>2026-03-17T13:56:33Z</time></trkpt><trkpt lat="43.41115424730633" lon="3.2292156173288933"><ele>69.66666666666667</ele><time>2026-03-17T13:56:34Z</time></trkpt><trkpt lat="43.41092906015266" lon="3.2292051684993086"><ele>70.33333333333334</ele><time>2026-03-17T13:56:35Z</time></trkpt><trkpt lat="43.41071717344826" lon="3.2291981593884516"><ele>71.0</ele><time>2026-03-17T13:56:36Z</time></trkpt><trkpt lat="43.41050640788283" lon="3.229196934185702"><ele>70.66666666666667</ele><time>2026-03-17T13:56:37Z</time></trkpt><trkpt lat="43.410293586072804" lon="3.2291916683118247"><ele>70.33333333333333</ele><time>2026-03-17T13:56:38Z</time></trkpt><trkpt lat="43.41008108614307" lon="3.229183756873221"><ele>70.0</ele><time>2026-03-17T13:56:39Z</time></trkpt><trkpt lat="43.40987176030708" lon="3.2291789715655157"><ele>70.0</ele><time>2026-03-17T13:56:40Z</time></trkpt><trkpt lat="43.40966423623289" lon="3.229176951415857"><ele>70.0</ele><time>2026-03-17T13:56:41Z</time></trkpt><trkpt lat="43.409456508568155" lon="3.229173823129168"><ele>70.0</ele><time>2026-03-17T13:56:42Z</time></trkpt><trkpt lat="43.40924506168242" lon="3.2291671211442203"><ele>70.0</ele><time>2026-03-17T13:56:43Z</time></trkpt><trkpt lat="43.409031892959845" lon="3.2291606302086713"><ele>70.0</ele><time>2026-03-17T13:56:44Z</time></trkpt><trkpt lat="43.40881104353442" lon="3.2291586578339855"><ele>70.0</ele><time>2026-03-17T13:56:45Z</time></trkpt><trkpt lat="43.40859236818693" lon="3.22914704281332"><ele>69.66666666666666</ele><time>2026-03-17T13:56:46Z</time></trkpt><trkpt lat="43.40836810553874" lon="3.2291445514245"><ele>69.33333333333333</ele><time>2026-03-17T13:56:47Z</time></trkpt><trkpt lat="43.40814485939957" lon="3.229142506995289"><ele>69.0</ele><time>2026-03-17T13:56:48Z</time></trkpt><trkpt lat="43.40792407663931" lon="3.2291453020332717"><ele>69.0</ele><time>2026-03-17T13:56:49Z</time></trkpt><trkpt lat="43.40769883609968" lon="3.229147111358955"><ele>69.0</ele><time>2026-03-17T13:56:50Z</time></trkpt><trkpt lat="43.407484360617254" lon="3.229139243270054"><ele>69.0</ele><time>2026-03-17T13:56:51Z</time></trkpt><trkpt lat="43.40728899635877" lon="3.229122996310299"><ele>68.66666666666667</ele><time>2026-03-17T13:56:52Z</time></trkpt><trkpt lat="43.40709144801873" lon="3.2291134503106913"><ele>68.33333333333334</ele><time>2026-03-17T13:56:53Z</time></trkpt><trkpt lat="43.40688484350122" lon="3.2291105245713547"><ele>68.0</ele><time>2026-03-17T13:56:54Z</time></trkpt><trkpt lat="43.40668543731892" lon="3.2291211759604375"><ele>68.0</ele><time>2026-03-17T13:56:55Z</time></trkpt><trkpt lat="43.4064796035355" lon="3.2291162832218365"><ele>68.0</ele><time>2026-03-17T13:56:56Z</time></trkpt><trkpt lat="43.406250372521036" lon="3.2291145640856787"><ele>68.0</ele><time>2026-03-17T13:56:57Z</time></trkpt><trkpt lat="43.406004116538156" lon="3.2291096096887912"><ele>68.0</ele><time>2026-03-17T13:56:58Z</time></trkpt><trkpt lat="43.40577188623664" lon="3.229100726294324"><ele>68.0</ele><time>2026-03-17T13:56:59Z</time></trkpt><trkpt lat="43.40556231579413" lon="3.229096094795414"><ele>68.0</ele><time>2026-03-17T13:57:00Z</time></trkpt><trkpt lat="43.405363038543484" lon="3.229088821286809"><ele>68.0</ele><time>2026-03-17T13:57:01Z</time></trkpt><trkpt lat="43.405154618863506" lon="3.229083309541356"><ele>68.0</ele><time>2026-03-17T13:57:02Z</time></trkpt><trkpt lat="43.404937892048956" lon="3.229074602522205"><ele>68.0</ele><time>2026-03-17T13:57:03Z</time></trkpt><trkpt lat="43.40472403640857" lon="3.229063896099229"><ele>67.66666666666667</ele><time>2026-03-17T13:57:04Z</time></trkpt><trkpt lat="43.404516139748004" lon="3.229055299121643"><ele>67.33333333333333</ele><time>2026-03-17T13:57:05Z</time></trkpt><trkpt lat="43.40431109960092" lon="3.229048288714751"><ele>67.0</ele><time>2026-03-17T13:57:06Z</time></trkpt><trkpt lat="43.4041115000401" lon="3.2290414432331302"><ele>67.0</ele><time>2026-03-17T13:57:07Z</time></trkpt><trkpt lat="43.40390920714225" lon="3.2290352707224"><ele>67.0</ele><time>2026-03-17T13:57:08Z</time></trkpt><trkpt lat="43.403702883500976" lon="3.229032281694898"><ele>67.0</ele><time>2026-03-17T13:57:09Z</time></trkpt><trkpt lat="43.40349928875323" lon="3.229023511237729"><ele>66.66666666666666</ele><time>2026-03-17T13:57:10Z</time></trkpt><trkpt lat="43.403300086906256" lon="3.2290179522729745"><ele>66.33333333333333</ele><time>2026-03-17T13:57:11Z</time></trkpt><trkpt lat="43.40310248150767" lon="3.2290142176581993"><ele>66.0</ele><time>2026-03-17T13:57:12Z</time></trkpt><trkpt lat="43.402893105211206" lon="3.2290084096621716"><ele>65.66666666666667</ele><time>2026-03-17T13:57:13Z</time></trkpt><trkpt lat="43.402696608704915" lon="3.229003950979283"><ele>65.33333333333334</ele><time>2026-03-17T13:57:14Z</time></trkpt><trkpt lat="43.402509472839526" lon="3.2290010169771914"><ele>65.0</ele><time>2026-03-17T13:57:15Z</time></trkpt><trkpt lat="43.40231211956755" lon="3.2289963266750212"><ele>65.66666666666667</ele><time>2026-03-17T13:57:16Z</time></trkpt><trkpt lat="43.40211415484471" lon="3.2289936478488186"><ele>66.33333333333333</ele><time>2026-03-17T13:57:17Z</time></trkpt><trkpt lat="43.40191428908299" lon="3.2289858722516227"><ele>67.0</ele><time>2026-03-17T13:57:18Z</time></trkpt><trkpt lat="43.401714911401584" lon="3.2289783901898677"><ele>68.0</ele><time>2026-03-17T13:57:19Z</time></trkpt><trkpt lat="43.401520774949994" lon="3.2289733496170077"><ele>69.0</ele><time>2026-03-17T13:57:20Z</time></trkpt><trkpt lat="43.401322928332846" lon="3.228969266792908"><ele>70.0</ele><time>2026-03-17T13:57:21Z</time></trkpt><trkpt lat="43.40112536229606" lon="3.228964579576069"><ele>70.33333333333333</ele><time>2026-03-17T13:57:22Z</time></trkpt><trkpt lat="43.400923915698534" lon="3.2289591536231383"><ele>70.66666666666667</ele><time>2026-03-17T13:57:23Z</time></trkpt><trkpt lat="43.400717360435" lon="3.228955890468376"><ele>71.0</ele><time>2026-03-17T13:57:23.999Z</time></trkpt><trkpt lat="43.4005100793786" lon="3.228945921053233"><ele>71.0</ele><time>2026-03-17T13:57:24.999Z</time></trkpt><trkpt lat="43.400298722054" lon="3.2289382825867903"><ele>71.0</ele><time>2026-03-17T13:57:25.999Z</time></trkpt><trkpt lat="43.40007844982766" lon="3.22893662924472"><ele>71.0</ele><time>2026-03-17T13:57:26.999Z</time></trkpt><trkpt lat="43.39985667767562" lon="3.228929532115662"><ele>69.0</ele><time>2026-03-17T13:57:27.999Z</time></trkpt><trkpt lat="43.3996496052125" lon="3.2289311395848475"><ele>67.0</ele><time>2026-03-17T13:57:28.999Z</time></trkpt><trkpt lat="43.39944667966232" lon="3.228927944054522"><ele>65.0</ele><time>2026-03-17T13:57:29.999Z</time></trkpt><trkpt lat="43.39924023512428" lon="3.2289202283539837"><ele>65.0</ele><time>2026-03-17T13:57:30.999Z</time></trkpt><trkpt lat="43.39903167267132" lon="3.228915940448247"><ele>65.0</ele><time>2026-03-17T13:57:31.999Z</time></trkpt><trkpt lat="43.39881345263617" lon="3.2289165045485966"><ele>65.0</ele><time>2026-03-17T13:57:32.999Z</time></trkpt><trkpt lat="43.39859331132292" lon="3.228914632212397"><ele>65.0</ele><time>2026-03-17T13:57:33.999Z</time></trkpt><trkpt lat="43.39837098019097" lon="3.2289072480095595"><ele>65.0</ele><time>2026-03-17T13:57:34.999Z</time></trkpt><trkpt lat="43.3981495621646" lon="3.2288975140816336"><ele>65.0</ele><time>2026-03-17T13:57:35.999Z</time></trkpt><trkpt lat="43.39792189326636" lon="3.2288836675617008"><ele>65.0</ele><time>2026-03-17T13:57:36.999Z</time></trkpt><trkpt lat="43.39769588467986" lon="3.228878627133851"><ele>65.0</ele><time>2026-03-17T13:57:37.999Z</time></trkpt><trkpt lat="43.397469235851844" lon="3.2288708944128843"><ele>65.0</ele><time>2026-03-17T13:57:38.999Z</time></trkpt><trkpt lat="43.39724008196739" lon="3.2288655852843173"><ele>65.0</ele><time>2026-03-17T13:57:39.999Z</time></trkpt><trkpt lat="43.39696921040905" lon="3.2288576138007707"><ele>65.5</ele><time>2026-03-17T13:57:40.999Z</time></trkpt><trkpt lat="43.39670128689852" lon="3.2288441875130105"><ele>66.0</ele><time>2026-03-17T13:57:41.999Z</time></trkpt><trkpt lat="43.39642707605131" lon="3.2288010900797373"><ele>66.0</ele><time>2026-03-17T13:57:42.999Z</time></trkpt><trkpt lat="43.396156840494434" lon="3.2287713506060944"><ele>66.0</ele><time>2026-03-17T13:57:43.999Z</time></trkpt><trkpt lat="43.395887933189016" lon="3.228755688063289"><ele>66.0</ele><time>2026-03-17T13:57:44.999Z</time></trkpt><trkpt lat="43.39561042172225" lon="3.2287271352643505"><ele>66.0</ele><time>2026-03-17T13:57:45.999Z</time></trkpt><trkpt lat="43.39534967018656" lon="3.2286973821196225"><ele>67.0</ele><time>2026-03-17T13:57:46.999Z</time></trkpt><trkpt lat="43.39511106821182" lon="3.228662677679562"><ele>68.0</ele><time>2026-03-17T13:57:47.999Z</time></trkpt><trkpt lat="43.394878033495" lon="3.228637239896246"><ele>68.66666666666667</ele><time>2026-03-17T13:57:48.999Z</time></trkpt><trkpt lat="43.39466856809147" lon="3.228611526854367"><ele>69.33333333333333</ele><time>2026-03-17T13:57:49.999Z</time></trkpt><trkpt lat="43.394479127435645" lon="3.2286067593216354"><ele>70.0</ele><time>2026-03-17T13:57:50.999Z</time></trkpt><trkpt lat="43.39429209856713" lon="3.228581063352561"><ele>70.0</ele><time>2026-03-17T13:57:51.999Z</time></trkpt><trkpt lat="43.39410810140896" lon="3.2285498476129355"><ele>70.0</ele><time>2026-03-17T13:57:52.999Z</time></trkpt><trkpt lat="43.393908729893575" lon="3.228536560621445"><ele>70.0</ele><time>2026-03-17T13:57:53.999Z</time></trkpt><trkpt lat="43.3937007660031" lon="3.228525984873171"><ele>69.0</ele><time>2026-03-17T13:57:54.999Z</time></trkpt><trkpt lat="43.39350582702032" lon="3.228511860809408"><ele>68.0</ele><time>2026-03-17T13:57:55.999Z</time></trkpt><trkpt lat="43.393314837305354" lon="3.2284994548570016"><ele>67.0</ele><time>2026-03-17T13:57:56.999Z</time></trkpt><trkpt lat="43.39312140202831" lon="3.228494283286956"><ele>67.66666666666666</ele><time>2026-03-17T13:57:57.999Z</time></trkpt><trkpt lat="43.39291885306272" lon="3.2284941154185143"><ele>68.33333333333333</ele><time>2026-03-17T13:57:58.999Z</time></trkpt><trkpt lat="43.392714295732816" lon="3.2284923216852093"><ele>69.0</ele><time>2026-03-17T13:57:59.999Z</time></trkpt><trkpt lat="43.39249727857539" lon="3.2284859443321814"><ele>69.0</ele><time>2026-03-17T13:58:00.999Z</time></trkpt><trkpt lat="43.39227254091635" lon="3.2284762294627667"><ele>69.0</ele><time>2026-03-17T13:58:01.999Z</time></trkpt><trkpt lat="43.392061295959614" lon="3.2284635802816095"><ele>69.0</ele><time>2026-03-17T13:58:03Z</time></trkpt><trkpt lat="43.3918444687024" lon="3.228444494431177"><ele>68.66666666666667</ele><time>2026-03-17T13:58:04Z</time></trkpt><trkpt lat="43.39162797778627" lon="3.228416030367691"><ele>68.33333333333334</ele><time>2026-03-17T13:58:05Z</time></trkpt><trkpt lat="43.39141177534914" lon="3.228383652200868"><ele>68.0</ele><time>2026-03-17T13:58:06Z</time></trkpt><trkpt lat="43.39118457795584" lon="3.2283465137949134"><ele>68.0</ele><time>2026-03-17T13:58:07Z</time></trkpt><trkpt lat="43.390962681955" lon="3.228307529854883"><ele>68.0</ele><time>2026-03-17T13:58:08Z</time></trkpt><trkpt lat="43.39074215956427" lon="3.228267444730787"><ele>68.0</ele><time>2026-03-17T13:58:09Z</time></trkpt><trkpt lat="43.39053209255379" lon="3.228234035124581"><ele>69.33333333333334</ele><time>2026-03-17T13:58:10Z</time></trkpt><trkpt lat="43.39032591246224" lon="3.228201470879878"><ele>70.66666666666667</ele><time>2026-03-17T13:58:11Z</time></trkpt><trkpt lat="43.390111531824466" lon="3.2281666086129537"><ele>72.0</ele><time>2026-03-17T13:58:12Z</time></trkpt><trkpt lat="43.3899029570439" lon="3.228141331277617"><ele>74.0</ele><time>2026-03-17T13:58:13Z</time></trkpt><trkpt lat="43.38966297535328" lon="3.2281107521531855"><ele>76.0</ele><time>2026-03-17T13:58:14Z</time></trkpt><trkpt lat="43.38940824399098" lon="3.228074479354136"><ele>76.0</ele><time>2026-03-17T13:58:15Z</time></trkpt><trkpt lat="43.38914817546008" lon="3.2280371982429643"><ele>76.0</ele><time>2026-03-17T13:58:16Z</time></trkpt><trkpt lat="43.38888075545048" lon="3.228009999906251"><ele>77.0</ele><time>2026-03-17T13:58:17Z</time></trkpt><trkpt lat="43.38864326963613" lon="3.227989505178098"><ele>78.0</ele><time>2026-03-17T13:58:18Z</time></trkpt><trkpt lat="43.388430186637926" lon="3.227989064473148"><ele>78.0</ele><time>2026-03-17T13:58:19Z</time></trkpt><trkpt lat="43.388220347202086" lon="3.228003898251163"><ele>78.0</ele><time>2026-03-17T13:58:20Z</time></trkpt><trkpt lat="43.3880034248601" lon="3.228057690649108"><ele>78.0</ele><time>2026-03-17T13:58:21Z</time></trkpt><trkpt lat="43.387786545805696" lon="3.228114393744271"><ele>76.66666666666667</ele><time>2026-03-17T13:58:22Z</time></trkpt><trkpt lat="43.387576630542206" lon="3.2281721301334736"><ele>75.33333333333334</ele><time>2026-03-17T13:58:23Z</time></trkpt><trkpt lat="43.38737973521755" lon="3.228225967112484"><ele>74.0</ele><time>2026-03-17T13:58:24Z</time></trkpt><trkpt lat="43.38718728850962" lon="3.2282765636966335"><ele>75.66666666666667</ele><time>2026-03-17T13:58:25Z</time></trkpt><trkpt lat="43.38699483750529" lon="3.2283231041486076"><ele>77.33333333333333</ele><time>2026-03-17T13:58:26Z</time></trkpt><trkpt lat="43.386800593885994" lon="3.2283505778666837"><ele>79.0</ele><time>2026-03-17T13:58:27Z</time></trkpt><trkpt lat="43.38659862195737" lon="3.2283529693466195"><ele>79.0</ele><time>2026-03-17T13:58:28Z</time></trkpt><trkpt lat="43.386404216241104" lon="3.228320654008897"><ele>79.0</ele><time>2026-03-17T13:58:29Z</time></trkpt><trkpt lat="43.386204583016735" lon="3.2282655942540237"><ele>79.0</ele><time>2026-03-17T13:58:30Z</time></trkpt><trkpt lat="43.38600327023198" lon="3.228190687102222"><ele>79.0</ele><time>2026-03-17T13:58:31Z</time></trkpt><trkpt lat="43.38580420784042" lon="3.2281010656168125"><ele>79.0</ele><time>2026-03-17T13:58:32Z</time></trkpt><trkpt lat="43.38560633081768" lon="3.228000883469732"><ele>79.0</ele><time>2026-03-17T13:58:33Z</time></trkpt><trkpt lat="43.385407771200335" lon="3.2279130207555333"><ele>78.33333333333333</ele><time>2026-03-17T13:58:34Z</time></trkpt><trkpt lat="43.3852273466569" lon="3.227832209408726"><ele>77.66666666666667</ele><time>2026-03-17T13:58:35Z</time></trkpt><trkpt lat="43.38504823564719" lon="3.227748295597133"><ele>77.0</ele><time>2026-03-17T13:58:36Z</time></trkpt><trkpt lat="43.38486646103165" lon="3.2276620659973436"><ele>77.0</ele><time>2026-03-17T13:58:37Z</time></trkpt><trkpt lat="43.38468441143419" lon="3.2275823384364264"><ele>77.0</ele><time>2026-03-17T13:58:38Z</time></trkpt><trkpt lat="43.38450284317846" lon="3.2274975449294283"><ele>77.0</ele><time>2026-03-17T13:58:39Z</time></trkpt><trkpt lat="43.3843220100509" lon="3.2274153183466328"><ele>77.66666666666667</ele><time>2026-03-17T13:58:40Z</time></trkpt><trkpt lat="43.38413768913133" lon="3.227331706478222"><ele>78.33333333333333</ele><time>2026-03-17T13:58:41Z</time></trkpt><trkpt lat="43.383945474251824" lon="3.227240819566589"><ele>79.0</ele><time>2026-03-17T13:58:42Z</time></trkpt><trkpt lat="43.38377226883434" lon="3.227152828299462"><ele>81.0</ele><time>2026-03-17T13:58:43Z</time></trkpt><trkpt lat="43.383612610200224" lon="3.227064934747032"><ele>83.0</ele><time>2026-03-17T13:58:44Z</time></trkpt><trkpt lat="43.383453652906425" lon="3.2269516537899063"><ele>85.0</ele><time>2026-03-17T13:58:45Z</time></trkpt><trkpt lat="43.383295911662586" lon="3.226809172943619"><ele>85.0</ele><time>2026-03-17T13:58:46Z</time></trkpt><trkpt lat="43.38314583245127" lon="3.226644187744018"><ele>85.0</ele><time>2026-03-17T13:58:47Z</time></trkpt><trkpt lat="43.383007201591454" lon="3.226461182777939"><ele>85.0</ele><time>2026-03-17T13:58:48Z</time></trkpt><trkpt lat="43.38287871106271" lon="3.2262597985836137"><ele>85.66666666666666</ele><time>2026-03-17T13:58:49Z</time></trkpt><trkpt lat="43.38279237530224" lon="3.2260138700892953"><ele>86.33333333333333</ele><time>2026-03-17T13:58:50Z</time></trkpt><trkpt lat="43.38270123699593" lon="3.225772143608348"><ele>87.0</ele><time>2026-03-17T13:58:51Z</time></trkpt><trkpt lat="43.38260962599296" lon="3.2255195095170697"><ele>87.0</ele><time>2026-03-17T13:58:52Z</time></trkpt><trkpt lat="43.382554197745705" lon="3.225214596622401"><ele>87.0</ele><time>2026-03-17T13:58:53Z</time></trkpt><trkpt lat="43.38248616553563" lon="3.224904100329145"><ele>86.5</ele><time>2026-03-17T13:58:54Z</time></trkpt><trkpt lat="43.38242000654025" lon="3.224571901426985"><ele>86.0</ele><time>2026-03-17T13:58:55Z</time></trkpt><trkpt lat="43.382348501888416" lon="3.224213385614795"><ele>88.0</ele><time>2026-03-17T13:58:56Z</time></trkpt><trkpt lat="43.38227026076772" lon="3.223866599899303"><ele>90.0</ele><time>2026-03-17T13:58:57Z</time></trkpt><trkpt lat="43.38218635092317" lon="3.2235491478874634"><ele>89.5</ele><time>2026-03-17T13:58:58Z</time></trkpt><trkpt lat="43.38206939054168" lon="3.223267508433903"><ele>89.0</ele><time>2026-03-17T13:58:59Z</time></trkpt><trkpt lat="43.38194394552312" lon="3.2229983695696927"><ele>89.66666666666667</ele><time>2026-03-17T13:59:00Z</time></trkpt><trkpt lat="43.3817974934632" lon="3.2227587498037535"><ele>90.33333333333333</ele><time>2026-03-17T13:59:01Z</time></trkpt><trkpt lat="43.381643759354276" lon="3.222559143506836"><ele>91.0</ele><time>2026-03-17T13:59:02Z</time></trkpt><trkpt lat="43.38149119150746" lon="3.222401150861722"><ele>92.33333333333333</ele><time>2026-03-17T13:59:03Z</time></trkpt><trkpt lat="43.38132556361856" lon="3.2222679297165753"><ele>93.66666666666667</ele><time>2026-03-17T13:59:04Z</time></trkpt><trkpt lat="43.3811571398042" lon="3.2221452745983874"><ele>95.0</ele><time>2026-03-17T13:59:05Z</time></trkpt><trkpt lat="43.38097886222763" lon="3.2220512164637674"><ele>95.0</ele><time>2026-03-17T13:59:06Z</time></trkpt><trkpt lat="43.38081739534406" lon="3.2219934616537107"><ele>95.0</ele><time>2026-03-17T13:59:07Z</time></trkpt><trkpt lat="43.3806469287831" lon="3.2219455659346496"><ele>95.0</ele><time>2026-03-17T13:59:08Z</time></trkpt><trkpt lat="43.38047085030509" lon="3.22189696826575"><ele>95.0</ele><time>2026-03-17T13:59:09Z</time></trkpt><trkpt lat="43.38031168157177" lon="3.22185021975709"><ele>95.0</ele><time>2026-03-17T13:59:10Z</time></trkpt><trkpt lat="43.380162393817706" lon="3.2218083283308974"><ele>95.0</ele><time>2026-03-17T13:59:11Z</time></trkpt><trkpt lat="43.38000734834101" lon="3.2217660196470232"><ele>95.0</ele><time>2026-03-17T13:59:12Z</time></trkpt><trkpt lat="43.37984587786345" lon="3.221716873672789"><ele>95.0</ele><time>2026-03-17T13:59:13Z</time></trkpt><trkpt lat="43.37968631297963" lon="3.22167025493082"><ele>95.0</ele><time>2026-03-17T13:59:14Z</time></trkpt><trkpt lat="43.37952954455049" lon="3.2216221701355043"><ele>95.33333333333334</ele><time>2026-03-17T13:59:15Z</time></trkpt><trkpt lat="43.37936093970306" lon="3.221571972520068"><ele>95.66666666666667</ele><time>2026-03-17T13:59:16Z</time></trkpt><trkpt lat="43.3791882522043" lon="3.2215216131817175"><ele>96.0</ele><time>2026-03-17T13:59:17Z</time></trkpt><trkpt lat="43.37900220227717" lon="3.221471099377706"><ele>97.0</ele><time>2026-03-17T13:59:18Z</time></trkpt><trkpt lat="43.37882241801289" lon="3.2214223691377755"><ele>98.0</ele><time>2026-03-17T13:59:19Z</time></trkpt><trkpt lat="43.37863982993786" lon="3.221374406304684"><ele>99.0</ele><time>2026-03-17T13:59:20Z</time></trkpt><trkpt lat="43.378458558991454" lon="3.221327441800208"><ele>99.0</ele><time>2026-03-17T13:59:21Z</time></trkpt><trkpt lat="43.37827866226439" lon="3.2212808586947093"><ele>99.0</ele><time>2026-03-17T13:59:22Z</time></trkpt><trkpt lat="43.378106837561035" lon="3.2212285422360423"><ele>99.0</ele><time>2026-03-17T13:59:23Z</time></trkpt><trkpt lat="43.377933241329714" lon="3.221182638078134"><ele>99.33333333333334</ele><time>2026-03-17T13:59:24Z</time></trkpt><trkpt lat="43.377757745387434" lon="3.22113976474988"><ele>99.66666666666667</ele><time>2026-03-17T13:59:25Z</time></trkpt><trkpt lat="43.37759677465098" lon="3.221099436373926"><ele>100.0</ele><time>2026-03-17T13:59:26Z</time></trkpt><trkpt lat="43.37744043513297" lon="3.2210595857008912"><ele>100.0</ele><time>2026-03-17T13:59:27Z</time></trkpt><trkpt lat="43.37727755455866" lon="3.2210144605731807"><ele>100.0</ele><time>2026-03-17T13:59:28Z</time></trkpt><trkpt lat="43.377112082399805" lon="3.2209696159899908"><ele>100.0</ele><time>2026-03-17T13:59:29Z</time></trkpt><trkpt lat="43.37694926383365" lon="3.2209231408207257"><ele>101.33333333333334</ele><time>2026-03-17T13:59:30Z</time></trkpt><trkpt lat="43.37678692555568" lon="3.220880017391984"><ele>102.66666666666666</ele><time>2026-03-17T13:59:31Z</time></trkpt><trkpt lat="43.37663014224915" lon="3.2208456314613167"><ele>104.0</ele><time>2026-03-17T13:59:32Z</time></trkpt><trkpt lat="43.37648577272422" lon="3.2208284140192243"><ele>104.0</ele><time>2026-03-17T13:59:33Z</time></trkpt><trkpt lat="43.37634156494415" lon="3.2208231621042294"><ele>104.0</ele><time>2026-03-17T13:59:33.999Z</time></trkpt><trkpt lat="43.37621241981186" lon="3.2208186419176656"><ele>104.0</ele><time>2026-03-17T13:59:34.999Z</time></trkpt><trkpt lat="43.376097846102475" lon="3.220819212765352"><ele>104.0</ele><time>2026-03-17T13:59:35.999Z</time></trkpt><trkpt lat="43.37598965548802" lon="3.220825262963045"><ele>103.99999999999999</ele><time>2026-03-17T13:59:36.999Z</time></trkpt><trkpt lat="43.37590058102604" lon="3.220831158920408"><ele>104.0</ele><time>2026-03-17T13:59:37.999Z</time></trkpt><trkpt lat="43.37580103562014" lon="3.2208396264412684"><ele>104.0</ele><time>2026-03-17T13:59:38.999Z</time></trkpt><trkpt lat="43.37571283191722" lon="3.2208490489420547"><ele>104.0</ele><time>2026-03-17T13:59:39.999Z</time></trkpt><trkpt lat="43.375624482139045" lon="3.2208582641480237"><ele>103.99999999999999</ele><time>2026-03-17T13:59:40.999Z</time></trkpt><trkpt lat="43.37554177602121" lon="3.2208485306663555"><ele>104.0</ele><time>2026-03-17T13:59:41.999Z</time></trkpt><trkpt lat="43.37545506982432" lon="3.220824920768029"><ele>104.33333333333333</ele><time>2026-03-17T13:59:42.999Z</time></trkpt><trkpt lat="43.3753677901937" lon="3.220775386663596"><ele>104.66666666666666</ele><time>2026-03-17T13:59:43.999Z</time></trkpt><trkpt lat="43.37528564727047" lon="3.2207312073986585"><ele>105.0</ele><time>2026-03-17T13:59:44.999Z</time></trkpt><trkpt lat="43.375207585854184" lon="3.220727480976296"><ele>105.33333333333334</ele><time>2026-03-17T13:59:45.999Z</time></trkpt><trkpt lat="43.3751335444468" lon="3.2207617671705013"><ele>105.66666666666667</ele><time>2026-03-17T13:59:46.999Z</time></trkpt><trkpt lat="43.375075322014006" lon="3.2208183031086977"><ele>106.0</ele><time>2026-03-17T13:59:47.999Z</time></trkpt><trkpt lat="43.37502741017792" lon="3.2208980411380463"><ele>106.0</ele><time>2026-03-17T13:59:48.999Z</time></trkpt><trkpt lat="43.374961777122216" lon="3.220987742948413"><ele>106.0</ele><time>2026-03-17T13:59:49.999Z</time></trkpt><trkpt lat="43.37485493163904" lon="3.2210695939184335"><ele>106.0</ele><time>2026-03-17T13:59:50.999Z</time></trkpt><trkpt lat="43.37476097657371" lon="3.2211709228170853"><ele>106.0</ele><time>2026-03-17T13:59:51.999Z</time></trkpt><trkpt lat="43.37461064694834" lon="3.2211870981307524"><ele>106.0</ele><time>2026-03-17T13:59:52.999Z</time></trkpt><trkpt lat="43.374486774015814" lon="3.221234195263896"><ele>106.0</ele><time>2026-03-17T13:59:53.999Z</time></trkpt><trkpt lat="43.37433321350166" lon="3.2213168821542992"><ele>106.0</ele><time>2026-03-17T13:59:54.999Z</time></trkpt><trkpt lat="43.37418883505833" lon="3.2213765634857685"><ele>106.0</ele><time>2026-03-17T13:59:55.999Z</time></trkpt><trkpt lat="43.37402186135254" lon="3.22143714314083"><ele>106.33333333333334</ele><time>2026-03-17T13:59:56.999Z</time></trkpt><trkpt lat="43.37386304993482" lon="3.2214937137317854"><ele>106.66666666666666</ele><time>2026-03-17T13:59:57.999Z</time></trkpt><trkpt lat="43.37370728705559" lon="3.2215879911324357"><ele>107.0</ele><time>2026-03-17T13:59:58.999Z</time></trkpt><trkpt lat="43.37354969254513" lon="3.2216837562232286"><ele>107.0</ele><time>2026-03-17T13:59:59.999Z</time></trkpt><trkpt lat="43.37339747632877" lon="3.221781664295707"><ele>107.0</ele><time>2026-03-17T14:00:00.999Z</time></trkpt><trkpt lat="43.373246647569985" lon="3.221875168850619"><ele>107.0</ele><time>2026-03-17T14:00:01.999Z</time></trkpt><trkpt lat="43.37309324628931" lon="3.2219717694702603"><ele>105.33333333333333</ele><time>2026-03-17T14:00:02.999Z</time></trkpt><trkpt lat="43.37293392359061" lon="3.2220800452754"><ele>103.66666666666666</ele><time>2026-03-17T14:00:03.999Z</time></trkpt><trkpt lat="43.37277654045391" lon="3.222180538564334"><ele>102.0</ele><time>2026-03-17T14:00:04.999Z</time></trkpt><trkpt lat="43.37261341614726" lon="3.2222830722113875"><ele>102.66666666666666</ele><time>2026-03-17T14:00:05.999Z</time></trkpt><trkpt lat="43.372458920649365" lon="3.222381105504384"><ele>103.33333333333333</ele><time>2026-03-17T14:00:06.999Z</time></trkpt><trkpt lat="43.372293635755874" lon="3.22248172600453"><ele>104.0</ele><time>2026-03-17T14:00:07.999Z</time></trkpt><trkpt lat="43.3721271219384" lon="3.222586475475891"><ele>104.0</ele><time>2026-03-17T14:00:09Z</time></trkpt><trkpt lat="43.371954452776805" lon="3.22268909293365"><ele>104.0</ele><time>2026-03-17T14:00:10Z</time></trkpt><trkpt lat="43.371786868796995" lon="3.222794579994046"><ele>104.0</ele><time>2026-03-17T14:00:11Z</time></trkpt><trkpt lat="43.37161577561888" lon="3.222892556877887"><ele>104.0</ele><time>2026-03-17T14:00:12Z</time></trkpt><trkpt lat="43.371455555303314" lon="3.222983913307714"><ele>104.0</ele><time>2026-03-17T14:00:13Z</time></trkpt><trkpt lat="43.37128651167245" lon="3.223068333199815"><ele>104.0</ele><time>2026-03-17T14:00:14Z</time></trkpt><trkpt lat="43.371106317660825" lon="3.2231513736900785"><ele>104.33333333333333</ele><time>2026-03-17T14:00:15Z</time></trkpt><trkpt lat="43.37092425763037" lon="3.2232251670667673"><ele>104.66666666666666</ele><time>2026-03-17T14:00:16Z</time></trkpt><trkpt lat="43.370741152001564" lon="3.2232922206962664"><ele>105.0</ele><time>2026-03-17T14:00:17Z</time></trkpt><trkpt lat="43.37054386015669" lon="3.2233423064277917"><ele>103.0</ele><time>2026-03-17T14:00:18Z</time></trkpt><trkpt lat="43.37032404693799" lon="3.2233997273700905"><ele>101.0</ele><time>2026-03-17T14:00:19Z</time></trkpt><trkpt lat="43.37012211812327" lon="3.223411127494641"><ele>99.0</ele><time>2026-03-17T14:00:20Z</time></trkpt><trkpt lat="43.36990741755076" lon="3.223436296672518"><ele>99.5</ele><time>2026-03-17T14:00:21Z</time></trkpt><trkpt lat="43.36968184200029" lon="3.22345605190878"><ele>100.0</ele><time>2026-03-17T14:00:22Z</time></trkpt><trkpt lat="43.369449027166375" lon="3.2234818323970216"><ele>100.0</ele><time>2026-03-17T14:00:23Z</time></trkpt><trkpt lat="43.369217120921896" lon="3.2234901248500023"><ele>100.0</ele><time>2026-03-17T14:00:24Z</time></trkpt><trkpt lat="43.369005723291636" lon="3.2234782583238575"><ele>100.0</ele><time>2026-03-17T14:00:25Z</time></trkpt><trkpt lat="43.368802294534326" lon="3.2234587209365646"><ele>100.33333333333334</ele><time>2026-03-17T14:00:26Z</time></trkpt><trkpt lat="43.36860926168008" lon="3.22344346854694"><ele>100.66666666666666</ele><time>2026-03-17T14:00:27Z</time></trkpt><trkpt lat="43.36843726519259" lon="3.223423496117126"><ele>101.0</ele><time>2026-03-17T14:00:28Z</time></trkpt><trkpt lat="43.368288916160274" lon="3.223409086870933"><ele>101.0</ele><time>2026-03-17T14:00:29Z</time></trkpt><trkpt lat="43.36815683948462" lon="3.2233936263402008"><ele>101.0</ele><time>2026-03-17T14:00:30Z</time></trkpt><trkpt lat="43.368034555424686" lon="3.2233737392165267"><ele>101.0</ele><time>2026-03-17T14:00:31Z</time></trkpt><trkpt lat="43.36790810404185" lon="3.2233487173514233"><ele>101.0</ele><time>2026-03-17T14:00:32Z</time></trkpt><trkpt lat="43.36778381827055" lon="3.2233172793032043"><ele>100.19999999999999</ele><time>2026-03-17T14:00:33Z</time></trkpt><trkpt lat="43.367674844953235" lon="3.2232921945151274"><ele>99.39999999999999</ele><time>2026-03-17T14:00:34Z</time></trkpt><trkpt lat="43.367600475679176" lon="3.2232729781698426"><ele>98.6</ele><time>2026-03-17T14:00:35Z</time></trkpt><trkpt lat="43.3675354805079" lon="3.223258223118046"><ele>97.8</ele><time>2026-03-17T14:00:36Z</time></trkpt><trkpt lat="43.36742336772114" lon="3.2232387125363275"><ele>97.0</ele><time>2026-03-17T14:00:38Z</time></trkpt><trkpt lat="43.367329956565655" lon="3.223233600354002"><ele>97.00000000000001</ele><time>2026-03-17T14:00:40Z</time></trkpt><trkpt lat="43.36726382953433" lon="3.223229387108264"><ele>97.0</ele><time>2026-03-17T14:00:42Z</time></trkpt><trkpt lat="43.36717788960058" lon="3.2232289364663465"><ele>97.0</ele><time>2026-03-17T14:00:44Z</time></trkpt><trkpt lat="43.367080585891486" lon="3.2232358928462514"><ele>97.0</ele><time>2026-03-17T14:00:46Z</time></trkpt><trkpt lat="43.36699281675568" lon="3.2232207836190834"><ele>97.00000000000001</ele><time>2026-03-17T14:00:48Z</time></trkpt><trkpt lat="43.36693213831096" lon="3.2231769263695966"><ele>97.0</ele><time>2026-03-17T14:00:50Z</time></trkpt><trkpt lat="43.366847748343204" lon="3.2230592136877774"><ele>96.33333333333334</ele><time>2026-03-17T14:00:52Z</time></trkpt><trkpt lat="43.366790849815466" lon="3.2229969575837054"><ele>95.66666666666667</ele><time>2026-03-17T14:00:53Z</time></trkpt><trkpt lat="43.3667175265679" lon="3.222965045809658"><ele>95.0</ele><time>2026-03-17T14:00:54Z</time></trkpt><trkpt lat="43.36663526473152" lon="3.2229650830029275"><ele>94.33333333333334</ele><time>2026-03-17T14:00:55Z</time></trkpt><trkpt lat="43.366550635385636" lon="3.222993104550426"><ele>93.66666666666667</ele><time>2026-03-17T14:00:56Z</time></trkpt><trkpt lat="43.366468867757675" lon="3.2230599174207817"><ele>93.0</ele><time>2026-03-17T14:00:57Z</time></trkpt><trkpt lat="43.3664006247174" lon="3.223144356017146"><ele>92.80000000000001</ele><time>2026-03-17T14:00:58Z</time></trkpt><trkpt lat="43.366355938357216" lon="3.223227215869812"><ele>92.6</ele><time>2026-03-17T14:00:59Z</time></trkpt><trkpt lat="43.366250450969986" lon="3.22333735969688"><ele>92.4</ele><time>2026-03-17T14:01:01Z</time></trkpt><trkpt lat="43.36616653214327" lon="3.2233530826451613"><ele>92.19999999999999</ele><time>2026-03-17T14:01:02Z</time></trkpt><trkpt lat="43.3660760406797" lon="3.2233624029597827"><ele>92.0</ele><time>2026-03-17T14:01:03Z</time></trkpt><trkpt lat="43.36598885877483" lon="3.2233742616747305"><ele>92.0</ele><time>2026-03-17T14:01:04Z</time></trkpt><trkpt lat="43.36591898867413" lon="3.2233815136587247"><ele>92.0</ele><time>2026-03-17T14:01:05Z</time></trkpt><trkpt lat="43.36583164391141" lon="3.223397607289424"><ele>92.0</ele><time>2026-03-17T14:01:06Z</time></trkpt><trkpt lat="43.3657445794738" lon="3.2234129429916876"><ele>92.0</ele><time>2026-03-17T14:01:07Z</time></trkpt><trkpt lat="43.36566435992995" lon="3.2234296254566286"><ele>92.0</ele><time>2026-03-17T14:01:08Z</time></trkpt><trkpt lat="43.36559531707171" lon="3.223448712646591"><ele>92.0</ele><time>2026-03-17T14:01:09Z</time></trkpt><trkpt lat="43.36550667050564" lon="3.2234698960914425"><ele>92.0</ele><time>2026-03-17T14:01:11Z</time></trkpt><trkpt lat="43.36544188976479" lon="3.2234855234087454"><ele>92.0</ele><time>2026-03-17T14:01:13Z</time></trkpt><trkpt lat="43.36536165206991" lon="3.2235108870036138"><ele>92.0</ele><time>2026-03-17T14:01:15Z</time></trkpt><trkpt lat="43.36524554606218" lon="3.2235285554971056"><ele>92.0</ele><time>2026-03-17T14:01:17Z</time></trkpt><trkpt lat="43.365127592680885" lon="3.223528307776628"><ele>92.0</ele><time>2026-03-17T14:01:19Z</time></trkpt><trkpt lat="43.36505899393184" lon="3.223509897827656"><ele>92.0</ele><time>2026-03-17T14:01:22Z</time></trkpt><trkpt lat="43.36496337128206" lon="3.2234877235468273"><ele>92.0</ele><time>2026-03-17T14:01:24Z</time></trkpt><trkpt lat="43.3648945074958" lon="3.2233922775268464"><ele>92.0</ele><time>2026-03-17T14:01:25Z</time></trkpt><trkpt lat="43.36479926819888" lon="3.223345001485559"><ele>92.0</ele><time>2026-03-17T14:01:26Z</time></trkpt><trkpt lat="43.36472591916801" lon="3.22331202091594"><ele>92.0</ele><time>2026-03-17T14:01:27Z</time></trkpt><trkpt lat="43.36462963395843" lon="3.2233232654682586"><ele>92.0</ele><time>2026-03-17T14:01:28Z</time></trkpt><trkpt lat="43.36455489636179" lon="3.2233803055100974"><ele>92.0</ele><time>2026-03-17T14:01:29Z</time></trkpt><trkpt lat="43.3644956693413" lon="3.2234794483427325"><ele>92.0</ele><time>2026-03-17T14:01:30Z</time></trkpt><trkpt lat="43.36446785779922" lon="3.223605948035528"><ele>92.0</ele><time>2026-03-17T14:01:31Z</time></trkpt><trkpt lat="43.364467339483525" lon="3.223720910621968"><ele>92.0</ele><time>2026-03-17T14:01:32Z</time></trkpt><trkpt lat="43.364498086389005" lon="3.223841111308055"><ele>92.0</ele><time>2026-03-17T14:01:33Z</time></trkpt><trkpt lat="43.36455380255123" lon="3.2239333207725336"><ele>92.0</ele><time>2026-03-17T14:01:34Z</time></trkpt><trkpt lat="43.36462284303363" lon="3.2239951444299075"><ele>92.0</ele><time>2026-03-17T14:01:35Z</time></trkpt><trkpt lat="43.364719574462676" lon="3.2240156494631638"><ele>92.0</ele><time>2026-03-17T14:01:36Z</time></trkpt><trkpt lat="43.36481282006943" lon="3.2239931136267237"><ele>92.0</ele><time>2026-03-17T14:01:36.999Z</time></trkpt><trkpt lat="43.36491666904907" lon="3.223959458845595"><ele>92.0</ele><time>2026-03-17T14:01:37.999Z</time></trkpt><trkpt lat="43.3650042151766" lon="3.223954944818928"><ele>92.0</ele><time>2026-03-17T14:01:38.999Z</time></trkpt><trkpt lat="43.36508863913929" lon="3.223978009338039"><ele>92.0</ele><time>2026-03-17T14:01:39.999Z</time></trkpt><trkpt lat="43.36518738795553" lon="3.2240430875673574"><ele>92.0</ele><time>2026-03-17T14:01:40.999Z</time></trkpt><trkpt lat="43.36528556322805" lon="3.224138419725916"><ele>92.0</ele><time>2026-03-17T14:01:41.999Z</time></trkpt><trkpt lat="43.365370321901075" lon="3.2242653816367413"><ele>92.66666666666667</ele><time>2026-03-17T14:01:42.999Z</time></trkpt><trkpt lat="43.36544311311909" lon="3.2244316769833135"><ele>93.33333333333333</ele><time>2026-03-17T14:01:43.999Z</time></trkpt><trkpt lat="43.36548811936428" lon="3.2246251820086727"><ele>94.0</ele><time>2026-03-17T14:01:44.999Z</time></trkpt><trkpt lat="43.365529468180085" lon="3.2248495094275547"><ele>95.0</ele><time>2026-03-17T14:01:45.999Z</time></trkpt><trkpt lat="43.365566305088876" lon="3.2250680213638363"><ele>96.0</ele><time>2026-03-17T14:01:46.999Z</time></trkpt><trkpt lat="43.36560520333696" lon="3.2252794940101754"><ele>97.0</ele><time>2026-03-17T14:01:47.999Z</time></trkpt><trkpt lat="43.365629883662606" lon="3.2255283389982554"><ele>97.66666666666667</ele><time>2026-03-17T14:01:48.999Z</time></trkpt><trkpt lat="43.3656498193481" lon="3.22579813943959"><ele>98.33333333333334</ele><time>2026-03-17T14:01:49.999Z</time></trkpt><trkpt lat="43.36567366006758" lon="3.226089161645872"><ele>99.0</ele><time>2026-03-17T14:01:50.999Z</time></trkpt><trkpt lat="43.365704697301666" lon="3.226413136397135"><ele>100.0</ele><time>2026-03-17T14:01:51.999Z</time></trkpt><trkpt lat="43.3657372194274" lon="3.226700023664404"><ele>101.0</ele><time>2026-03-17T14:01:52.999Z</time></trkpt><trkpt lat="43.365780767797496" lon="3.226994414820249"><ele>102.0</ele><time>2026-03-17T14:01:53.999Z</time></trkpt><trkpt lat="43.36580781962838" lon="3.227259203397413"><ele>101.33333333333334</ele><time>2026-03-17T14:01:54.999Z</time></trkpt><trkpt lat="43.36583709058466" lon="3.227527330658358"><ele>100.66666666666667</ele><time>2026-03-17T14:01:55.999Z</time></trkpt><trkpt lat="43.3658610554818" lon="3.227808978921176"><ele>100.0</ele><time>2026-03-17T14:01:56.999Z</time></trkpt><trkpt lat="43.36586669228261" lon="3.2281231777741946"><ele>99.5</ele><time>2026-03-17T14:01:57.999Z</time></trkpt><trkpt lat="43.3658646682859" lon="3.228440801058567"><ele>99.0</ele><time>2026-03-17T14:01:58.999Z</time></trkpt><trkpt lat="43.36584131582658" lon="3.2287472839377855"><ele>97.5</ele><time>2026-03-17T14:01:59.999Z</time></trkpt><trkpt lat="43.36580916500958" lon="3.229049211942275"><ele>96.0</ele><time>2026-03-17T14:02:00.999Z</time></trkpt><trkpt lat="43.365763361187845" lon="3.2293793165086497"><ele>96.0</ele><time>2026-03-17T14:02:01.999Z</time></trkpt><trkpt lat="43.365710770739746" lon="3.2297097495262026"><ele>96.0</ele><time>2026-03-17T14:02:02.999Z</time></trkpt><trkpt lat="43.36564492862691" lon="3.2300265757410527"><ele>96.0</ele><time>2026-03-17T14:02:03.999Z</time></trkpt><trkpt lat="43.36558272458246" lon="3.2303614149599706"><ele>96.0</ele><time>2026-03-17T14:02:04.999Z</time></trkpt><trkpt lat="43.36551817186651" lon="3.230701768844311"><ele>96.0</ele><time>2026-03-17T14:02:05.999Z</time></trkpt><trkpt lat="43.365448920137716" lon="3.231039471845064"><ele>96.0</ele><time>2026-03-17T14:02:06.999Z</time></trkpt><trkpt lat="43.365379575146136" lon="3.2313991670924778"><ele>94.0</ele><time>2026-03-17T14:02:07.999Z</time></trkpt><trkpt lat="43.365308994490874" lon="3.2317587746267638"><ele>92.0</ele><time>2026-03-17T14:02:08.999Z</time></trkpt><trkpt lat="43.36523763286913" lon="3.232109485366452"><ele>90.0</ele><time>2026-03-17T14:02:09.999Z</time></trkpt><trkpt lat="43.365158914036655" lon="3.2324668455480468"><ele>88.0</ele><time>2026-03-17T14:02:10.999Z</time></trkpt><trkpt lat="43.36507456873048" lon="3.2328166387486137"><ele>87.5</ele><time>2026-03-17T14:02:11.999Z</time></trkpt><trkpt lat="43.36499404719307" lon="3.2331784589512202"><ele>87.0</ele><time>2026-03-17T14:02:12.999Z</time></trkpt><trkpt lat="43.36491915860371" lon="3.2335426518988655"><ele>87.0</ele><time>2026-03-17T14:02:13.999Z</time></trkpt><trkpt lat="43.36484855326723" lon="3.2339000354586322"><ele>87.0</ele><time>2026-03-17T14:02:15Z</time></trkpt><trkpt lat="43.36477790780882" lon="3.2342541556866036"><ele>85.0</ele><time>2026-03-17T14:02:16Z</time></trkpt><trkpt lat="43.36471084136345" lon="3.2345992369728767"><ele>83.0</ele><time>2026-03-17T14:02:17Z</time></trkpt><trkpt lat="43.364645909035204" lon="3.2349424770349904"><ele>82.5</ele><time>2026-03-17T14:02:18Z</time></trkpt><trkpt lat="43.36457935442159" lon="3.23527963031985"><ele>82.0</ele><time>2026-03-17T14:02:19Z</time></trkpt><trkpt lat="43.364515839153775" lon="3.235616338419416"><ele>82.0</ele><time>2026-03-17T14:02:20Z</time></trkpt><trkpt lat="43.36445192626496" lon="3.2359375151281555"><ele>82.0</ele><time>2026-03-17T14:02:21Z</time></trkpt><trkpt lat="43.36438774493558" lon="3.2362548219624583"><ele>81.5</ele><time>2026-03-17T14:02:22Z</time></trkpt><trkpt lat="43.364321439917056" lon="3.2365764521995635"><ele>81.0</ele><time>2026-03-17T14:02:23Z</time></trkpt><trkpt lat="43.364257322918235" lon="3.236901454796708"><ele>81.0</ele><time>2026-03-17T14:02:24Z</time></trkpt><trkpt lat="43.364192853295386" lon="3.2372235079325944"><ele>81.0</ele><time>2026-03-17T14:02:25Z</time></trkpt><trkpt lat="43.36412832784255" lon="3.237546783307974"><ele>81.0</ele><time>2026-03-17T14:02:26Z</time></trkpt><trkpt lat="43.364062431480036" lon="3.237873869435018"><ele>81.0</ele><time>2026-03-17T14:02:27Z</time></trkpt><trkpt lat="43.36399683796885" lon="3.2382024739428896"><ele>81.0</ele><time>2026-03-17T14:02:28Z</time></trkpt><trkpt lat="43.36393165852204" lon="3.238529716337357"><ele>81.0</ele><time>2026-03-17T14:02:29Z</time></trkpt><trkpt lat="43.36386277850401" lon="3.2388612555822665"><ele>79.5</ele><time>2026-03-17T14:02:30Z</time></trkpt><trkpt lat="43.363783615013816" lon="3.2391848267998142"><ele>78.0</ele><time>2026-03-17T14:02:31Z</time></trkpt><trkpt lat="43.36369345816968" lon="3.239509381348109"><ele>77.0</ele><time>2026-03-17T14:02:32Z</time></trkpt><trkpt lat="43.36359152757529" lon="3.239830530067624"><ele>76.0</ele><time>2026-03-17T14:02:33Z</time></trkpt><trkpt lat="43.36348395828003" lon="3.2401449556200292"><ele>76.0</ele><time>2026-03-17T14:02:34Z</time></trkpt><trkpt lat="43.36337133366439" lon="3.240452679421105"><ele>76.0</ele><time>2026-03-17T14:02:35Z</time></trkpt><trkpt lat="43.36325134107895" lon="3.2407615660888616"><ele>75.5</ele><time>2026-03-17T14:02:36Z</time></trkpt><trkpt lat="43.363131615410275" lon="3.2410682676826097"><ele>75.0</ele><time>2026-03-17T14:02:37Z</time></trkpt><trkpt lat="43.363004065891154" lon="3.2413680714022703"><ele>75.0</ele><time>2026-03-17T14:02:38Z</time></trkpt><trkpt lat="43.36287096369778" lon="3.241657074596331"><ele>75.0</ele><time>2026-03-17T14:02:39Z</time></trkpt><trkpt lat="43.362741701231776" lon="3.2419527983186915"><ele>75.0</ele><time>2026-03-17T14:02:40Z</time></trkpt><trkpt lat="43.362615353463525" lon="3.242246925264404"><ele>75.0</ele><time>2026-03-17T14:02:41Z</time></trkpt><trkpt lat="43.36249827597574" lon="3.2425314077783454"><ele>74.66666666666667</ele><time>2026-03-17T14:02:42Z</time></trkpt><trkpt lat="43.36239512668182" lon="3.242787850368922"><ele>74.33333333333334</ele><time>2026-03-17T14:02:43Z</time></trkpt><trkpt lat="43.36230248884783" lon="3.2430613459732633"><ele>74.0</ele><time>2026-03-17T14:02:44Z</time></trkpt><trkpt lat="43.36222925540437" lon="3.2433265898591706"><ele>74.0</ele><time>2026-03-17T14:02:45Z</time></trkpt><trkpt lat="43.36216856914747" lon="3.243603226582185"><ele>74.0</ele><time>2026-03-17T14:02:46Z</time></trkpt><trkpt lat="43.36211470219095" lon="3.243881924327055"><ele>74.0</ele><time>2026-03-17T14:02:47Z</time></trkpt><trkpt lat="43.36207229537947" lon="3.244155319657039"><ele>74.0</ele><time>2026-03-17T14:02:48Z</time></trkpt><trkpt lat="43.36203696299373" lon="3.244431327172335"><ele>74.0</ele><time>2026-03-17T14:02:49Z</time></trkpt><trkpt lat="43.36201316934759" lon="3.2446931662910474"><ele>74.0</ele><time>2026-03-17T14:02:50Z</time></trkpt><trkpt lat="43.361998457975105" lon="3.24493331698355"><ele>74.66666666666667</ele><time>2026-03-17T14:02:51Z</time></trkpt><trkpt lat="43.36199050979088" lon="3.245165259760099"><ele>75.33333333333333</ele><time>2026-03-17T14:02:52Z</time></trkpt><trkpt lat="43.36199054684193" lon="3.245392577031623"><ele>76.0</ele><time>2026-03-17T14:02:53Z</time></trkpt><trkpt lat="43.361996623666805" lon="3.2456250610484805"><ele>77.33333333333333</ele><time>2026-03-17T14:02:54Z</time></trkpt><trkpt lat="43.36200176326694" lon="3.245867714246102"><ele>78.66666666666667</ele><time>2026-03-17T14:02:55Z</time></trkpt><trkpt lat="43.362006745525264" lon="3.2461178836716087"><ele>80.0</ele><time>2026-03-17T14:02:56Z</time></trkpt><trkpt lat="43.36201004413458" lon="3.246379471048025"><ele>82.0</ele><time>2026-03-17T14:02:57Z</time></trkpt><trkpt lat="43.36201360769515" lon="3.2466561388413284"><ele>84.0</ele><time>2026-03-17T14:02:58Z</time></trkpt><trkpt lat="43.36201033190684" lon="3.246933416227936"><ele>86.0</ele><time>2026-03-17T14:02:59Z</time></trkpt><trkpt lat="43.36200009745774" lon="3.247228228858685"><ele>86.66666666666667</ele><time>2026-03-17T14:03:00Z</time></trkpt><trkpt lat="43.36197308061985" lon="3.2475202550158446"><ele>87.33333333333333</ele><time>2026-03-17T14:03:01Z</time></trkpt><trkpt lat="43.3619286370842" lon="3.247812231453712"><ele>88.0</ele><time>2026-03-17T14:03:02Z</time></trkpt><trkpt lat="43.361868498541654" lon="3.2480965350499043"><ele>87.66666666666666</ele><time>2026-03-17T14:03:03Z</time></trkpt><trkpt lat="43.361785170075386" lon="3.2483707593495232"><ele>87.33333333333333</ele><time>2026-03-17T14:03:04Z</time></trkpt><trkpt lat="43.36169232187937" lon="3.248638052490597"><ele>87.0</ele><time>2026-03-17T14:03:05Z</time></trkpt><trkpt lat="43.36158911017081" lon="3.248879149577043"><ele>86.33333333333333</ele><time>2026-03-17T14:03:06Z</time></trkpt><trkpt lat="43.36148021029651" lon="3.24909771947082"><ele>85.66666666666666</ele><time>2026-03-17T14:03:07Z</time></trkpt><trkpt lat="43.36136039473168" lon="3.2492996636730953"><ele>85.0</ele><time>2026-03-17T14:03:08Z</time></trkpt><trkpt lat="43.361233192328896" lon="3.2494906419747993"><ele>84.0</ele><time>2026-03-17T14:03:09Z</time></trkpt><trkpt lat="43.36109073976227" lon="3.249663629745853"><ele>83.0</ele><time>2026-03-17T14:03:10Z</time></trkpt><trkpt lat="43.36094095227461" lon="3.2498173803959203"><ele>82.0</ele><time>2026-03-17T14:03:11Z</time></trkpt><trkpt lat="43.36078205884233" lon="3.2499677737988204"><ele>81.66666666666666</ele><time>2026-03-17T14:03:12Z</time></trkpt><trkpt lat="43.36061307842808" lon="3.250106660276362"><ele>81.33333333333333</ele><time>2026-03-17T14:03:13Z</time></trkpt><trkpt lat="43.36043355353839" lon="3.250219614051398"><ele>81.0</ele><time>2026-03-17T14:03:14Z</time></trkpt><trkpt lat="43.360248632544" lon="3.2503104376272804"><ele>81.0</ele><time>2026-03-17T14:03:15Z</time></trkpt><trkpt lat="43.360061743491805" lon="3.2503877908890715"><ele>81.0</ele><time>2026-03-17T14:03:16Z</time></trkpt><trkpt lat="43.359881264853534" lon="3.250449046927423"><ele>81.0</ele><time>2026-03-17T14:03:17Z</time></trkpt><trkpt lat="43.359706302399296" lon="3.2504867717867696"><ele>82.0</ele><time>2026-03-17T14:03:18Z</time></trkpt><trkpt lat="43.35952544772615" lon="3.2505044722674117"><ele>83.0</ele><time>2026-03-17T14:03:19Z</time></trkpt><trkpt lat="43.359345359296235" lon="3.2505002111351553"><ele>84.0</ele><time>2026-03-17T14:03:20Z</time></trkpt><trkpt lat="43.359162659976384" lon="3.2504833604426167"><ele>84.0</ele><time>2026-03-17T14:03:21Z</time></trkpt><trkpt lat="43.35897439635473" lon="3.2504559728854625"><ele>84.0</ele><time>2026-03-17T14:03:22Z</time></trkpt><trkpt lat="43.358788818694684" lon="3.2504178529893157"><ele>84.0</ele><time>2026-03-17T14:03:23Z</time></trkpt><trkpt lat="43.35861759501888" lon="3.250375410350301"><ele>85.66666666666667</ele><time>2026-03-17T14:03:24Z</time></trkpt><trkpt lat="43.358449026619255" lon="3.250330053943351"><ele>87.33333333333334</ele><time>2026-03-17T14:03:25Z</time></trkpt><trkpt lat="43.358282332983045" lon="3.2502854582576743"><ele>89.0</ele><time>2026-03-17T14:03:26Z</time></trkpt><trkpt lat="43.35810286520013" lon="3.250237573904294"><ele>88.0</ele><time>2026-03-17T14:03:27Z</time></trkpt><trkpt lat="43.357924277954794" lon="3.250191845662722"><ele>87.0</ele><time>2026-03-17T14:03:28Z</time></trkpt><trkpt lat="43.357745102922394" lon="3.25013548262004"><ele>86.0</ele><time>2026-03-17T14:03:29Z</time></trkpt><trkpt lat="43.35756176884578" lon="3.250089777980403"><ele>86.0</ele><time>2026-03-17T14:03:30Z</time></trkpt><trkpt lat="43.357377300092736" lon="3.2500354280976307"><ele>86.0</ele><time>2026-03-17T14:03:31Z</time></trkpt><trkpt lat="43.35718779171247" lon="3.2499807762912067"><ele>86.0</ele><time>2026-03-17T14:03:32Z</time></trkpt><trkpt lat="43.35699368063106" lon="3.249932919243387"><ele>84.33333333333334</ele><time>2026-03-17T14:03:33Z</time></trkpt><trkpt lat="43.356811373118" lon="3.249890461662914"><ele>82.66666666666667</ele><time>2026-03-17T14:03:34Z</time></trkpt><trkpt lat="43.3566187386132" lon="3.249858840806762"><ele>81.0</ele><time>2026-03-17T14:03:35Z</time></trkpt><trkpt lat="43.35643661004662" lon="3.2498339178610967"><ele>80.0</ele><time>2026-03-17T14:03:36Z</time></trkpt><trkpt lat="43.356251291881776" lon="3.249819978452658"><ele>79.0</ele><time>2026-03-17T14:03:37Z</time></trkpt><trkpt lat="43.356069776748065" lon="3.249819261331087"><ele>78.0</ele><time>2026-03-17T14:03:38Z</time></trkpt><trkpt lat="43.355887731648" lon="3.249825106671529"><ele>78.0</ele><time>2026-03-17T14:03:39Z</time></trkpt><trkpt lat="43.35569886368617" lon="3.249853661174372"><ele>78.0</ele><time>2026-03-17T14:03:40Z</time></trkpt><trkpt lat="43.355532804051734" lon="3.2498895046171095"><ele>78.0</ele><time>2026-03-17T14:03:41Z</time></trkpt><trkpt lat="43.355343711909015" lon="3.249933161528162"><ele>76.0</ele><time>2026-03-17T14:03:41.999Z</time></trkpt><trkpt lat="43.35516018550901" lon="3.249978476512503"><ele>74.0</ele><time>2026-03-17T14:03:42.999Z</time></trkpt><trkpt lat="43.35497449406315" lon="3.250031574151389"><ele>72.0</ele><time>2026-03-17T14:03:43.999Z</time></trkpt><trkpt lat="43.3547933476735" lon="3.2500816642296573"><ele>71.0</ele><time>2026-03-17T14:03:44.999Z</time></trkpt><trkpt lat="43.35460830255768" lon="3.2501394329239983"><ele>70.0</ele><time>2026-03-17T14:03:45.999Z</time></trkpt><trkpt lat="43.35442760004683" lon="3.2501785867964585"><ele>69.0</ele><time>2026-03-17T14:03:46.999Z</time></trkpt><trkpt lat="43.35424746409429" lon="3.250230611373764"><ele>69.0</ele><time>2026-03-17T14:03:47.999Z</time></trkpt><trkpt lat="43.35406918708762" lon="3.2502829732060037"><ele>69.0</ele><time>2026-03-17T14:03:48.999Z</time></trkpt><trkpt lat="43.35389541501384" lon="3.2503286417171564"><ele>69.0</ele><time>2026-03-17T14:03:49.999Z</time></trkpt><trkpt lat="43.35372285352408" lon="3.2503765710966652"><ele>68.66666666666667</ele><time>2026-03-17T14:03:50.999Z</time></trkpt><trkpt lat="43.35355024834512" lon="3.25042410257751"><ele>68.33333333333334</ele><time>2026-03-17T14:03:51.999Z</time></trkpt><trkpt lat="43.35337649270982" lon="3.2504748024953907"><ele>68.0</ele><time>2026-03-17T14:03:52.999Z</time></trkpt><trkpt lat="43.353199894017095" lon="3.250528229595065"><ele>67.66666666666667</ele><time>2026-03-17T14:03:53.999Z</time></trkpt><trkpt lat="43.353019237914744" lon="3.250586155968771"><ele>67.33333333333333</ele><time>2026-03-17T14:03:54.999Z</time></trkpt><trkpt lat="43.35283568719039" lon="3.250639646042323"><ele>67.0</ele><time>2026-03-17T14:03:55.999Z</time></trkpt><trkpt lat="43.352652114251946" lon="3.250693027090274"><ele>67.66666666666666</ele><time>2026-03-17T14:03:56.999Z</time></trkpt><trkpt lat="43.35245429048383" lon="3.250753084835765"><ele>68.33333333333333</ele><time>2026-03-17T14:03:57.999Z</time></trkpt><trkpt lat="43.35226837818086" lon="3.250813947387951"><ele>69.0</ele><time>2026-03-17T14:03:58.999Z</time></trkpt><trkpt lat="43.352082389191565" lon="3.250869617041805"><ele>69.66666666666667</ele><time>2026-03-17T14:03:59.999Z</time></trkpt><trkpt lat="43.351904987452905" lon="3.250918625367286"><ele>70.33333333333334</ele><time>2026-03-17T14:04:00.999Z</time></trkpt><trkpt lat="43.351728911580956" lon="3.250969305899846"><ele>71.0</ele><time>2026-03-17T14:04:01.999Z</time></trkpt><trkpt lat="43.35155203119331" lon="3.2510171605756186"><ele>71.0</ele><time>2026-03-17T14:04:02.999Z</time></trkpt><trkpt lat="43.35137132147274" lon="3.2510663128722066"><ele>71.0</ele><time>2026-03-17T14:04:03.999Z</time></trkpt><trkpt lat="43.35117262007851" lon="3.251126312837904"><ele>71.0</ele><time>2026-03-17T14:04:04.999Z</time></trkpt><trkpt lat="43.35096914873731" lon="3.251181476692948"><ele>71.0</ele><time>2026-03-17T14:04:05.999Z</time></trkpt><trkpt lat="43.350769643421245" lon="3.2512406263506324"><ele>71.0</ele><time>2026-03-17T14:04:06.999Z</time></trkpt><trkpt lat="43.350560456079904" lon="3.251308542247382"><ele>71.0</ele><time>2026-03-17T14:04:07.999Z</time></trkpt><trkpt lat="43.350356268381965" lon="3.2513667167805425"><ele>70.66666666666667</ele><time>2026-03-17T14:04:08.999Z</time></trkpt><trkpt lat="43.350150354183924" lon="3.2514232143863007"><ele>70.33333333333333</ele><time>2026-03-17T14:04:09.999Z</time></trkpt><trkpt lat="43.34993594694689" lon="3.251485176228217"><ele>70.0</ele><time>2026-03-17T14:04:10.999Z</time></trkpt><trkpt lat="43.349732879547716" lon="3.2515591663108423"><ele>68.33333333333333</ele><time>2026-03-17T14:04:11.999Z</time></trkpt><trkpt lat="43.34952859720723" lon="3.251641150641797"><ele>66.66666666666667</ele><time>2026-03-17T14:04:12.999Z</time></trkpt><trkpt lat="43.349325615847825" lon="3.251730376650088"><ele>65.0</ele><time>2026-03-17T14:04:13.999Z</time></trkpt><trkpt lat="43.34912373639557" lon="3.251838319494751"><ele>65.0</ele><time>2026-03-17T14:04:14.999Z</time></trkpt><trkpt lat="43.348915013364525" lon="3.251966594712451"><ele>65.0</ele><time>2026-03-17T14:04:15.999Z</time></trkpt><trkpt lat="43.34871259117487" lon="3.252098720356419"><ele>64.0</ele><time>2026-03-17T14:04:16.999Z</time></trkpt><trkpt lat="43.3485193687051" lon="3.2522558119034946"><ele>63.0</ele><time>2026-03-17T14:04:17.999Z</time></trkpt><trkpt lat="43.34831901530576" lon="3.25242834776597"><ele>63.0</ele><time>2026-03-17T14:04:18.999Z</time></trkpt><trkpt lat="43.34812432833151" lon="3.2526043122473056"><ele>63.0</ele><time>2026-03-17T14:04:19.999Z</time></trkpt><trkpt lat="43.34793248695661" lon="3.252797248897416"><ele>62.0</ele><time>2026-03-17T14:04:21Z</time></trkpt><trkpt lat="43.34775456857667" lon="3.2529856528427636"><ele>61.0</ele><time>2026-03-17T14:04:22Z</time></trkpt><trkpt lat="43.34757963635447" lon="3.2532005860559"><ele>61.0</ele><time>2026-03-17T14:04:23Z</time></trkpt><trkpt lat="43.34741205424375" lon="3.2534286867234075"><ele>61.0</ele><time>2026-03-17T14:04:24Z</time></trkpt><trkpt lat="43.34725075361814" lon="3.2536702607294434"><ele>61.0</ele><time>2026-03-17T14:04:25Z</time></trkpt><trkpt lat="43.34710035429593" lon="3.2539100785904767"><ele>61.0</ele><time>2026-03-17T14:04:26Z</time></trkpt><trkpt lat="43.3469557137949" lon="3.254165004163411"><ele>60.5</ele><time>2026-03-17T14:04:27Z</time></trkpt><trkpt lat="43.34681694583314" lon="3.2544230789570565"><ele>60.0</ele><time>2026-03-17T14:04:28Z</time></trkpt><trkpt lat="43.34669051796506" lon="3.2546767690564757"><ele>60.0</ele><time>2026-03-17T14:04:29Z</time></trkpt><trkpt lat="43.346567759765264" lon="3.2549297577557277"><ele>60.0</ele><time>2026-03-17T14:04:30Z</time></trkpt><trkpt lat="43.34645203337426" lon="3.255163785604801"><ele>60.0</ele><time>2026-03-17T14:04:31Z</time></trkpt><trkpt lat="43.34634123727193" lon="3.2553872657411547"><ele>60.0</ele><time>2026-03-17T14:04:32Z</time></trkpt><trkpt lat="43.346230390434116" lon="3.255600585575574"><ele>60.0</ele><time>2026-03-17T14:04:33Z</time></trkpt><trkpt lat="43.34611925718163" lon="3.2558132440781544"><ele>60.0</ele><time>2026-03-17T14:04:34Z</time></trkpt><trkpt lat="43.346005375424674" lon="3.2560289079584885"><ele>59.0</ele><time>2026-03-17T14:04:35Z</time></trkpt><trkpt lat="43.34589103457152" lon="3.2562342608970134"><ele>58.0</ele><time>2026-03-17T14:04:36Z</time></trkpt><trkpt lat="43.345778151548544" lon="3.256439060595454"><ele>57.0</ele><time>2026-03-17T14:04:37Z</time></trkpt><trkpt lat="43.34567620436556" lon="3.256627118959891"><ele>56.33333333333333</ele><time>2026-03-17T14:04:38Z</time></trkpt><trkpt lat="43.34556788848925" lon="3.2568092531492816"><ele>55.666666666666664</ele><time>2026-03-17T14:04:39Z</time></trkpt><trkpt lat="43.34546446300633" lon="3.2569950439650794"><ele>55.0</ele><time>2026-03-17T14:04:40Z</time></trkpt><trkpt lat="43.34535483577198" lon="3.257186664016506"><ele>54.33333333333333</ele><time>2026-03-17T14:04:41Z</time></trkpt><trkpt lat="43.34523198727428" lon="3.2573987282174297"><ele>53.66666666666667</ele><time>2026-03-17T14:04:42Z</time></trkpt><trkpt lat="43.34511495486534" lon="3.257599331075961"><ele>53.0</ele><time>2026-03-17T14:04:43Z</time></trkpt><trkpt lat="43.34499789041735" lon="3.257795652460879"><ele>53.0</ele><time>2026-03-17T14:04:44Z</time></trkpt><trkpt lat="43.34488464777671" lon="3.257999669400971"><ele>53.0</ele><time>2026-03-17T14:04:45Z</time></trkpt><trkpt lat="43.34476920508777" lon="3.2582094913245028"><ele>53.0</ele><time>2026-03-17T14:04:46Z</time></trkpt><trkpt lat="43.344658103532055" lon="3.258424684562111"><ele>51.0</ele><time>2026-03-17T14:04:47Z</time></trkpt><trkpt lat="43.344546287599286" lon="3.258629702473632"><ele>49.0</ele><time>2026-03-17T14:04:48Z</time></trkpt><trkpt lat="43.344433877699494" lon="3.258834630774694"><ele>47.0</ele><time>2026-03-17T14:04:49Z</time></trkpt><trkpt lat="43.344319983092305" lon="3.25904412900228"><ele>47.0</ele><time>2026-03-17T14:04:50Z</time></trkpt><trkpt lat="43.34420738954651" lon="3.25924342482195"><ele>47.0</ele><time>2026-03-17T14:04:51Z</time></trkpt><trkpt lat="43.344095994669495" lon="3.2594415929682"><ele>47.0</ele><time>2026-03-17T14:04:52Z</time></trkpt><trkpt lat="43.34399298473912" lon="3.2596177535633313"><ele>46.666666666666664</ele><time>2026-03-17T14:04:53Z</time></trkpt><trkpt lat="43.343880542961784" lon="3.2598240169041137"><ele>46.333333333333336</ele><time>2026-03-17T14:04:54Z</time></trkpt><trkpt lat="43.34377456251617" lon="3.260019088929766"><ele>46.0</ele><time>2026-03-17T14:04:55Z</time></trkpt><trkpt lat="43.34366550635392" lon="3.260216719538606"><ele>45.333333333333336</ele><time>2026-03-17T14:04:56Z</time></trkpt><trkpt lat="43.34355613648653" lon="3.2604152396515285"><ele>44.666666666666664</ele><time>2026-03-17T14:04:57Z</time></trkpt><trkpt lat="43.34344601588126" lon="3.2606113205620657"><ele>44.0</ele><time>2026-03-17T14:04:58Z</time></trkpt><trkpt lat="43.343337067255845" lon="3.2608046788478964"><ele>44.0</ele><time>2026-03-17T14:04:59Z</time></trkpt><trkpt lat="43.343231778774346" lon="3.260998409138563"><ele>44.0</ele><time>2026-03-17T14:05:00Z</time></trkpt><trkpt lat="43.3431260484108" lon="3.261188858169699"><ele>44.0</ele><time>2026-03-17T14:05:01Z</time></trkpt><trkpt lat="43.343018662376075" lon="3.2613772931763445"><ele>44.0</ele><time>2026-03-17T14:05:02Z</time></trkpt><trkpt lat="43.3429149024231" lon="3.261559374286828"><ele>44.0</ele><time>2026-03-17T14:05:03Z</time></trkpt><trkpt lat="43.34281394124126" lon="3.261744760989915"><ele>44.0</ele><time>2026-03-17T14:05:04Z</time></trkpt><trkpt lat="43.34271155074914" lon="3.2619373586662195"><ele>44.0</ele><time>2026-03-17T14:05:05Z</time></trkpt><trkpt lat="43.34261452387674" lon="3.2621165731334005"><ele>44.0</ele><time>2026-03-17T14:05:06Z</time></trkpt><trkpt lat="43.3425236158397" lon="3.2622604612327093"><ele>44.0</ele><time>2026-03-17T14:05:07Z</time></trkpt><trkpt lat="43.342446401892325" lon="3.262404751496068"><ele>44.0</ele><time>2026-03-17T14:05:08Z</time></trkpt><trkpt lat="43.34236392765457" lon="3.2625429068011416"><ele>44.25</ele><time>2026-03-17T14:05:09Z</time></trkpt><trkpt lat="43.34228662719432" lon="3.262680042369429"><ele>44.5</ele><time>2026-03-17T14:05:10Z</time></trkpt><trkpt lat="43.342205569416755" lon="3.2628238360198147"><ele>44.75</ele><time>2026-03-17T14:05:11Z</time></trkpt><trkpt lat="43.34212223766759" lon="3.2629562378379577"><ele>45.0</ele><time>2026-03-17T14:05:12Z</time></trkpt><trkpt lat="43.34204796841157" lon="3.263083810699545"><ele>44.8</ele><time>2026-03-17T14:05:13Z</time></trkpt><trkpt lat="43.34197842729498" lon="3.2632025459306053"><ele>44.6</ele><time>2026-03-17T14:05:14Z</time></trkpt><trkpt lat="43.341914322325785" lon="3.26332037388074"><ele>44.400000000000006</ele><time>2026-03-17T14:05:15Z</time></trkpt><trkpt lat="43.34185441628034" lon="3.263442234061303"><ele>44.2</ele><time>2026-03-17T14:05:16Z</time></trkpt><trkpt lat="43.34179100342392" lon="3.26357059014235"><ele>44.0</ele><time>2026-03-17T14:05:17Z</time></trkpt><trkpt lat="43.341726089941226" lon="3.263690131132595"><ele>44.0</ele><time>2026-03-17T14:05:18Z</time></trkpt><trkpt lat="43.34166427947266" lon="3.263817219918546"><ele>44.0</ele><time>2026-03-17T14:05:19Z</time></trkpt><trkpt lat="43.341601403298" lon="3.263934020924082"><ele>44.0</ele><time>2026-03-17T14:05:20Z</time></trkpt><trkpt lat="43.34154303237541" lon="3.2640392906201416"><ele>44.0</ele><time>2026-03-17T14:05:21Z</time></trkpt><trkpt lat="43.341488522670865" lon="3.2641494311600856"><ele>44.0</ele><time>2026-03-17T14:05:22Z</time></trkpt><trkpt lat="43.34143624784855" lon="3.264245797947985"><ele>44.33333333333333</ele><time>2026-03-17T14:05:23Z</time></trkpt><trkpt lat="43.341379278539996" lon="3.2643421525816865"><ele>44.666666666666664</ele><time>2026-03-17T14:05:24Z</time></trkpt><trkpt lat="43.341314230708875" lon="3.264419838636371"><ele>45.0</ele><time>2026-03-17T14:05:25Z</time></trkpt><trkpt lat="43.34124540098702" lon="3.2644753483081805"><ele>45.333333333333336</ele><time>2026-03-17T14:05:26Z</time></trkpt><trkpt lat="43.34117664309099" lon="3.2644951828496778"><ele>45.66666666666667</ele><time>2026-03-17T14:05:27Z</time></trkpt><trkpt lat="43.34110551976414" lon="3.2644705658526476"><ele>46.0</ele><time>2026-03-17T14:05:28Z</time></trkpt><trkpt lat="43.341045734032015" lon="3.2644191361141677"><ele>46.0</ele><time>2026-03-17T14:05:29Z</time></trkpt><trkpt lat="43.34096906245259" lon="3.264367420055434"><ele>46.0</ele><time>2026-03-17T14:05:30Z</time></trkpt><trkpt lat="43.340892369778395" lon="3.2643138604874387"><ele>46.0</ele><time>2026-03-17T14:05:31Z</time></trkpt><trkpt lat="43.340825256393636" lon="3.2642738809991068"><ele>46.0</ele><time>2026-03-17T14:05:32Z</time></trkpt><trkpt lat="43.340731457403635" lon="3.2642111211725577"><ele>46.0</ele><time>2026-03-17T14:05:34Z</time></trkpt><trkpt lat="43.34065973924081" lon="3.2641041299274187"><ele>46.0</ele><time>2026-03-17T14:05:41Z</time></trkpt><trkpt lat="43.34060437059795" lon="3.2640215486997075"><ele>46.0</ele><time>2026-03-17T14:05:42Z</time></trkpt><trkpt lat="43.34053393223188" lon="3.2639681114255974"><ele>46.0</ele><time>2026-03-17T14:05:43Z</time></trkpt><trkpt lat="43.3404033110887" lon="3.2639643419896225"><ele>46.0</ele><time>2026-03-17T14:05:45Z</time></trkpt><trkpt lat="43.34028331179847" lon="3.264044878528758"><ele>46.0</ele><time>2026-03-17T14:05:46.999Z</time></trkpt><trkpt lat="43.340213688352705" lon="3.2640849639517158"><ele>46.199999999999996</ele><time>2026-03-17T14:05:47.999Z</time></trkpt><trkpt lat="43.34012735554213" lon="3.2640982161542134"><ele>46.4</ele><time>2026-03-17T14:05:48.999Z</time></trkpt><trkpt lat="43.34003792754287" lon="3.264103378573757"><ele>46.6</ele><time>2026-03-17T14:05:49.999Z</time></trkpt><trkpt lat="43.33994174719647" lon="3.2641094548089007"><ele>46.8</ele><time>2026-03-17T14:05:50.999Z</time></trkpt><trkpt lat="43.339843551479305" lon="3.2641248794608937"><ele>47.0</ele><time>2026-03-17T14:05:51.999Z</time></trkpt><trkpt lat="43.33975055157707" lon="3.264132683462032"><ele>47.2</ele><time>2026-03-17T14:05:52.999Z</time></trkpt><trkpt lat="43.339640666881415" lon="3.2641426200416372"><ele>47.400000000000006</ele><time>2026-03-17T14:05:53.999Z</time></trkpt><trkpt lat="43.339536399483485" lon="3.2641591628694155"><ele>47.599999999999994</ele><time>2026-03-17T14:05:54.999Z</time></trkpt><trkpt lat="43.33944029809033" lon="3.2641928264190003"><ele>47.8</ele><time>2026-03-17T14:05:55.999Z</time></trkpt><trkpt lat="43.339336932956336" lon="3.2642164390580284"><ele>48.0</ele><time>2026-03-17T14:05:56.999Z</time></trkpt><trkpt lat="43.33923985036076" lon="3.264236594887598"><ele>48.0</ele><time>2026-03-17T14:05:57.999Z</time></trkpt><trkpt lat="43.33913460932789" lon="3.264265014080835"><ele>48.0</ele><time>2026-03-17T14:05:58.999Z</time></trkpt><trkpt lat="43.33904401846369" lon="3.2642781648904062"><ele>48.0</ele><time>2026-03-17T14:05:59.999Z</time></trkpt><trkpt lat="43.33892915622869" lon="3.264306173672238"><ele>48.0</ele><time>2026-03-17T14:06:00.999Z</time></trkpt><trkpt lat="43.338824291722176" lon="3.264337632391472"><ele>48.0</ele><time>2026-03-17T14:06:01.999Z</time></trkpt><trkpt lat="43.33869901656903" lon="3.264385498876435"><ele>46.5</ele><time>2026-03-17T14:06:02.999Z</time></trkpt><trkpt lat="43.338574815602676" lon="3.2644256320866747"><ele>45.0</ele><time>2026-03-17T14:06:03.999Z</time></trkpt><trkpt lat="43.33844247684334" lon="3.264472203334099"><ele>43.5</ele><time>2026-03-17T14:06:04.999Z</time></trkpt><trkpt lat="43.33830825578335" lon="3.2645138343744042"><ele>42.0</ele><time>2026-03-17T14:06:05.999Z</time></trkpt><trkpt lat="43.33817654060962" lon="3.264564844077275"><ele>41.25</ele><time>2026-03-17T14:06:06.999Z</time></trkpt><trkpt lat="43.3380453735158" lon="3.26461527235063"><ele>40.5</ele><time>2026-03-17T14:06:07.999Z</time></trkpt><trkpt lat="43.33792374283975" lon="3.264662116266234"><ele>39.75</ele><time>2026-03-17T14:06:08.999Z</time></trkpt><trkpt lat="43.33780072494271" lon="3.2647038815620077"><ele>39.0</ele><time>2026-03-17T14:06:09.999Z</time></trkpt><trkpt lat="43.337684689722046" lon="3.2647741943876945"><ele>39.166666666666664</ele><time>2026-03-17T14:06:10.999Z</time></trkpt><trkpt lat="43.337578844291926" lon="3.2648267948244123"><ele>39.333333333333336</ele><time>2026-03-17T14:06:11.999Z</time></trkpt><trkpt lat="43.33749453216376" lon="3.2648746554042516"><ele>39.5</ele><time>2026-03-17T14:06:12.999Z</time></trkpt><trkpt lat="43.33741474884974" lon="3.264921835343031"><ele>39.66666666666667</ele><time>2026-03-17T14:06:13.999Z</time></trkpt><trkpt lat="43.33734649521105" lon="3.2649623257564238"><ele>39.833333333333336</ele><time>2026-03-17T14:06:14.999Z</time></trkpt><trkpt lat="43.33728196839393" lon="3.2650044325032996"><ele>40.0</ele><time>2026-03-17T14:06:15.999Z</time></trkpt><trkpt lat="43.33720919885972" lon="3.265020263201354"><ele>39.42857142857143</ele><time>2026-03-17T14:06:17.999Z</time></trkpt><trkpt lat="43.33713343367132" lon="3.2650360646753143"><ele>38.85714285714286</ele><time>2026-03-17T14:06:19.999Z</time></trkpt><trkpt lat="43.337067962285914" lon="3.2649995812931665"><ele>38.28571428571429</ele><time>2026-03-17T14:06:20.999Z</time></trkpt><trkpt lat="43.33700564438318" lon="3.264942388774142"><ele>37.714285714285715</ele><time>2026-03-17T14:06:21.999Z</time></trkpt><trkpt lat="43.33694045181801" lon="3.2649434088708853"><ele>37.142857142857146</ele><time>2026-03-17T14:06:22.999Z</time></trkpt><trkpt lat="43.33686827734419" lon="3.2649369390497998"><ele>36.57142857142858</ele><time>2026-03-17T14:06:23.999Z</time></trkpt><trkpt lat="43.336790661415435" lon="3.2649720638359"><ele>36.0</ele><time>2026-03-17T14:06:24.999Z</time></trkpt><trkpt lat="43.33673728588495" lon="3.2650690735960843"><ele>36.0</ele><time>2026-03-17T14:06:25.999Z</time></trkpt><trkpt lat="43.336711482150896" lon="3.2651722807483075"><ele>36.0</ele><time>2026-03-17T14:06:27Z</time></trkpt><trkpt lat="43.336727128385654" lon="3.265282613665063"><ele>36.0</ele><time>2026-03-17T14:06:28Z</time></trkpt><trkpt lat="43.33674875879281" lon="3.2653765387936935"><ele>36.0</ele><time>2026-03-17T14:06:29Z</time></trkpt><trkpt lat="43.33677463021895" lon="3.265477873454898"><ele>36.0</ele><time>2026-03-17T14:06:30Z</time></trkpt><trkpt lat="43.336812519455265" lon="3.265570122339994"><ele>36.0</ele><time>2026-03-17T14:06:31Z</time></trkpt><trkpt lat="43.33679917837827" lon="3.2657258939705445"><ele>36.4</ele><time>2026-03-17T14:06:32Z</time></trkpt><trkpt lat="43.33679574328065" lon="3.265862208068927"><ele>36.8</ele><time>2026-03-17T14:06:33Z</time></trkpt><trkpt lat="43.33679374114572" lon="3.2660085015797504"><ele>37.199999999999996</ele><time>2026-03-17T14:06:34Z</time></trkpt><trkpt lat="43.33679094069311" lon="3.2661498809688596"><ele>37.6</ele><time>2026-03-17T14:06:35Z</time></trkpt><trkpt lat="43.336788397366156" lon="3.2662811173622806"><ele>38.0</ele><time>2026-03-17T14:06:36Z</time></trkpt><trkpt lat="43.336790694265495" lon="3.266427049029548"><ele>37.75</ele><time>2026-03-17T14:06:37Z</time></trkpt><trkpt lat="43.3367899263336" lon="3.266582073913657"><ele>37.5</ele><time>2026-03-17T14:06:38Z</time></trkpt><trkpt lat="43.3367953561782" lon="3.2667465412363907"><ele>37.25</ele><time>2026-03-17T14:06:39Z</time></trkpt><trkpt lat="43.33679270117636" lon="3.266917818594302"><ele>37.0</ele><time>2026-03-17T14:06:40Z</time></trkpt><trkpt lat="43.33678588172545" lon="3.2671112861695835"><ele>37.333333333333336</ele><time>2026-03-17T14:06:41Z</time></trkpt><trkpt lat="43.33679043786042" lon="3.2673211464386065"><ele>37.666666666666664</ele><time>2026-03-17T14:06:42Z</time></trkpt><trkpt lat="43.336789138397904" lon="3.267552890456399"><ele>38.0</ele><time>2026-03-17T14:06:43Z</time></trkpt><trkpt lat="43.33679582702833" lon="3.2677693585756553"><ele>38.0</ele><time>2026-03-17T14:06:44Z</time></trkpt><trkpt lat="43.336792085588925" lon="3.2679792009749886"><ele>38.0</ele><time>2026-03-17T14:06:45Z</time></trkpt><trkpt lat="43.336797822013736" lon="3.268171183995663"><ele>38.0</ele><time>2026-03-17T14:06:46Z</time></trkpt><trkpt lat="43.336800993819104" lon="3.268340410826059"><ele>38.0</ele><time>2026-03-17T14:06:47Z</time></trkpt><trkpt lat="43.336794965325545" lon="3.268494293120508"><ele>37.83333333333333</ele><time>2026-03-17T14:06:48Z</time></trkpt><trkpt lat="43.336764589223876" lon="3.2686122171534295"><ele>37.666666666666664</ele><time>2026-03-17T14:06:49Z</time></trkpt><trkpt lat="43.33670717612486" lon="3.268713873192024"><ele>37.5</ele><time>2026-03-17T14:06:50Z</time></trkpt><trkpt lat="43.336637883502725" lon="3.268790542346683"><ele>37.333333333333336</ele><time>2026-03-17T14:06:51Z</time></trkpt><trkpt lat="43.33656549818422" lon="3.2688301614349435"><ele>37.16666666666667</ele><time>2026-03-17T14:06:52Z</time></trkpt><trkpt lat="43.33649743690357" lon="3.2688568356638803"><ele>37.0</ele><time>2026-03-17T14:06:53Z</time></trkpt><trkpt lat="43.336421513836086" lon="3.268865268949359"><ele>35.800000000000004</ele><time>2026-03-17T14:06:54Z</time></trkpt><trkpt lat="43.33633946142305" lon="3.2688525453065695"><ele>34.6</ele><time>2026-03-17T14:06:55Z</time></trkpt><trkpt lat="43.33624866497124" lon="3.2688286274830025"><ele>33.400000000000006</ele><time>2026-03-17T14:06:56Z</time></trkpt><trkpt lat="43.33614679849206" lon="3.268804305007757"><ele>32.2</ele><time>2026-03-17T14:06:57Z</time></trkpt><trkpt lat="43.3360341784433" lon="3.2687693420612813"><ele>31.0</ele><time>2026-03-17T14:06:58Z</time></trkpt><trkpt lat="43.335912508922775" lon="3.268727537292581"><ele>31.0</ele><time>2026-03-17T14:06:59Z</time></trkpt><trkpt lat="43.33579846321391" lon="3.2686878063144187"><ele>31.0</ele><time>2026-03-17T14:07:00Z</time></trkpt><trkpt lat="43.335672033236214" lon="3.268662694658316"><ele>31.0</ele><time>2026-03-17T14:07:01Z</time></trkpt><trkpt lat="43.33554391313848" lon="3.2686449366763024"><ele>31.0</ele><time>2026-03-17T14:07:02Z</time></trkpt><trkpt lat="43.33543040494616" lon="3.2686420107318646"><ele>31.6</ele><time>2026-03-17T14:07:03Z</time></trkpt><trkpt lat="43.33532661717332" lon="3.2686265544323425"><ele>32.2</ele><time>2026-03-17T14:07:04Z</time></trkpt><trkpt lat="43.33523126735052" lon="3.2686034918218327"><ele>32.8</ele><time>2026-03-17T14:07:05Z</time></trkpt><trkpt lat="43.33514241718547" lon="3.2685982269486793"><ele>33.4</ele><time>2026-03-17T14:07:06Z</time></trkpt><trkpt lat="43.335054581630466" lon="3.2686010273425956"><ele>34.0</ele><time>2026-03-17T14:07:07Z</time></trkpt><trkpt lat="43.33497061897469" lon="3.268600498305935"><ele>34.0</ele><time>2026-03-17T14:07:08Z</time></trkpt><trkpt lat="43.334888034320926" lon="3.268597824499527"><ele>34.0</ele><time>2026-03-17T14:07:09Z</time></trkpt><trkpt lat="43.33478537209118" lon="3.268578681276302"><ele>34.0</ele><time>2026-03-17T14:07:11Z</time></trkpt><trkpt lat="43.334723333285226" lon="3.2686183521841863"><ele>34.0</ele><time>2026-03-17T14:07:14Z</time></trkpt><trkpt lat="43.33479778743137" lon="3.268600853079843"><ele>34.0</ele><time>2026-03-17T14:07:20Z</time></trkpt><trkpt lat="43.33488150835054" lon="3.2686027406380456"><ele>34.0</ele><time>2026-03-17T14:07:22Z</time></trkpt><trkpt lat="43.33498985443649" lon="3.268609938349198"><ele>34.0</ele><time>2026-03-17T14:07:23Z</time></trkpt><trkpt lat="43.33507436494022" lon="3.268608216506877"><ele>34.0</ele><time>2026-03-17T14:07:24Z</time></trkpt><trkpt lat="43.33515874274513" lon="3.2686262002268074"><ele>34.0</ele><time>2026-03-17T14:07:25Z</time></trkpt><trkpt lat="43.33524038720694" lon="3.2686372014728375"><ele>34.0</ele><time>2026-03-17T14:07:26Z</time></trkpt><trkpt lat="43.335335079438174" lon="3.268643773549869"><ele>34.0</ele><time>2026-03-17T14:07:27Z</time></trkpt><trkpt lat="43.335433945996" lon="3.268653333509323"><ele>34.0</ele><time>2026-03-17T14:07:28Z</time></trkpt><trkpt lat="43.335529274684724" lon="3.268664300249022"><ele>33.833333333333336</ele><time>2026-03-17T14:07:29Z</time></trkpt><trkpt lat="43.33561542652961" lon="3.268687375071336"><ele>33.66666666666667</ele><time>2026-03-17T14:07:30Z</time></trkpt><trkpt lat="43.335678939775605" lon="3.2687068788739806"><ele>33.5</ele><time>2026-03-17T14:07:31Z</time></trkpt><trkpt lat="43.33575099261117" lon="3.268795340890306"><ele>33.333333333333336</ele><time>2026-03-17T14:07:33Z</time></trkpt><trkpt lat="43.335774887468524" lon="3.268932246695553"><ele>33.166666666666664</ele><time>2026-03-17T14:07:35Z</time></trkpt><trkpt lat="43.33575939015174" lon="3.2690299851514397"><ele>33.0</ele><time>2026-03-17T14:07:36Z</time></trkpt><trkpt lat="43.33572420161895" lon="3.2691115918333353"><ele>33.0</ele><time>2026-03-17T14:07:37Z</time></trkpt><trkpt lat="43.33569860993188" lon="3.2692005744532735"><ele>33.0</ele><time>2026-03-17T14:07:38Z</time></trkpt><trkpt lat="43.33567121409928" lon="3.2692973195766553"><ele>33.0</ele><time>2026-03-17T14:07:39Z</time></trkpt><trkpt lat="43.335649568576905" lon="3.2693954161550827"><ele>33.0</ele><time>2026-03-17T14:07:40Z</time></trkpt><trkpt lat="43.33561322815388" lon="3.2694901806260517"><ele>33.0</ele><time>2026-03-17T14:07:41Z</time></trkpt><trkpt lat="43.33555379701683" lon="3.2696292833942726"><ele>33.0</ele><time>2026-03-17T14:07:43Z</time></trkpt><trkpt lat="43.33550508464659" lon="3.269721153918565"><ele>33.0</ele><time>2026-03-17T14:07:45Z</time></trkpt><trkpt lat="43.33547350751153" lon="3.26981608370925"><ele>33.0</ele><time>2026-03-17T14:07:48Z</time></trkpt><trkpt lat="43.335418584130906" lon="3.2700107343247153"><ele>33.0</ele><time>2026-03-17T14:08:33Z</time></trkpt><trkpt lat="43.33540949533516" lon="3.2701443448443217"><ele>33.0</ele><time>2026-03-17T14:08:35Z</time></trkpt><trkpt lat="43.33539929917603" lon="3.270234582175751"><ele>33.0</ele><time>2026-03-17T14:08:36Z</time></trkpt><trkpt lat="43.335380204784784" lon="3.270340895250906"><ele>33.0</ele><time>2026-03-17T14:08:37Z</time></trkpt><trkpt lat="43.33534406208382" lon="3.2704279954122186"><ele>33.0</ele><time>2026-03-17T14:08:38Z</time></trkpt><trkpt lat="43.33531776746438" lon="3.270595031561106"><ele>33.0</ele><time>2026-03-17T14:08:40Z</time></trkpt><trkpt lat="43.33531592554499" lon="3.2706923460881323"><ele>33.0</ele><time>2026-03-17T14:08:41Z</time></trkpt><trkpt lat="43.335285728455226" lon="3.2707888285143376"><ele>33.0</ele><time>2026-03-17T14:08:42Z</time></trkpt><trkpt lat="43.33525973120343" lon="3.270896040170152"><ele>33.0</ele><time>2026-03-17T14:08:43Z</time></trkpt><trkpt lat="43.33523468143398" lon="3.2710094855805507"><ele>33.0</ele><time>2026-03-17T14:08:44Z</time></trkpt><trkpt lat="43.3352310016619" lon="3.2711371332552566"><ele>33.0</ele><time>2026-03-17T14:08:45Z</time></trkpt><trkpt lat="43.33520402173808" lon="3.2712703775400325"><ele>33.0</ele><time>2026-03-17T14:08:46Z</time></trkpt><trkpt lat="43.33517732570957" lon="3.2714150018157926"><ele>33.0</ele><time>2026-03-17T14:08:47Z</time></trkpt><trkpt lat="43.335155034936385" lon="3.2715495053769303"><ele>33.0</ele><time>2026-03-17T14:08:48Z</time></trkpt><trkpt lat="43.335127183668725" lon="3.2716767123439445"><ele>32.8</ele><time>2026-03-17T14:08:49Z</time></trkpt><trkpt lat="43.33510312829503" lon="3.2718083579268677"><ele>32.599999999999994</ele><time>2026-03-17T14:08:50Z</time></trkpt><trkpt lat="43.335076239891066" lon="3.2719469605736866"><ele>32.400000000000006</ele><time>2026-03-17T14:08:51Z</time></trkpt><trkpt lat="43.335051676565406" lon="3.2720879036511406"><ele>32.2</ele><time>2026-03-17T14:08:52Z</time></trkpt><trkpt lat="43.33502270475774" lon="3.272207296100729"><ele>32.0</ele><time>2026-03-17T14:08:53Z</time></trkpt><trkpt lat="43.33499716705021" lon="3.272323594285695"><ele>31.999999999999996</ele><time>2026-03-17T14:08:54Z</time></trkpt><trkpt lat="43.334975385713186" lon="3.2724270798976995"><ele>32.0</ele><time>2026-03-17T14:08:55Z</time></trkpt><trkpt lat="43.334952780062295" lon="3.2725271500787927"><ele>32.0</ele><time>2026-03-17T14:08:56Z</time></trkpt><trkpt lat="43.33492952092561" lon="3.2726300954088754"><ele>32.0</ele><time>2026-03-17T14:08:57Z</time></trkpt><trkpt lat="43.33490509556807" lon="3.272723128938088"><ele>31.999999999999996</ele><time>2026-03-17T14:08:58Z</time></trkpt><trkpt lat="43.3348845558193" lon="3.272825721122889"><ele>32.0</ele><time>2026-03-17T14:08:59Z</time></trkpt><trkpt lat="43.334862511274224" lon="3.272937154305032"><ele>32.0</ele><time>2026-03-17T14:09:00Z</time></trkpt><trkpt lat="43.33484100978978" lon="3.273057429080903"><ele>32.0</ele><time>2026-03-17T14:09:01Z</time></trkpt><trkpt lat="43.33482459902806" lon="3.2731907251584413"><ele>32.0</ele><time>2026-03-17T14:09:02Z</time></trkpt><trkpt lat="43.33480370126605" lon="3.2733343699988837"><ele>32.0</ele><time>2026-03-17T14:09:03Z</time></trkpt><trkpt lat="43.33477790694284" lon="3.273485969727058"><ele>32.0</ele><time>2026-03-17T14:09:04Z</time></trkpt><trkpt lat="43.33475204656935" lon="3.273640323376205"><ele>31.25</ele><time>2026-03-17T14:09:05Z</time></trkpt><trkpt lat="43.334718177677296" lon="3.273807333222959"><ele>30.5</ele><time>2026-03-17T14:09:06Z</time></trkpt><trkpt lat="43.33467918015047" lon="3.2739640015729874"><ele>29.75</ele><time>2026-03-17T14:09:07Z</time></trkpt><trkpt lat="43.33463524329463" lon="3.2741076889512066"><ele>29.0</ele><time>2026-03-17T14:09:08Z</time></trkpt><trkpt lat="43.334590098129" lon="3.2742496343064498"><ele>28.799999999999997</ele><time>2026-03-17T14:09:09Z</time></trkpt><trkpt lat="43.334541912279164" lon="3.274385242480978"><ele>28.599999999999998</ele><time>2026-03-17T14:09:10Z</time></trkpt><trkpt lat="43.33449778116465" lon="3.274509394799778"><ele>28.4</ele><time>2026-03-17T14:09:11Z</time></trkpt><trkpt lat="43.334448262132554" lon="3.2746296045631604"><ele>28.2</ele><time>2026-03-17T14:09:12Z</time></trkpt><trkpt lat="43.33440195590461" lon="3.2747430222711134"><ele>28.0</ele><time>2026-03-17T14:09:13Z</time></trkpt><trkpt lat="43.33436720089923" lon="3.2748504973527433"><ele>27.666666666666668</ele><time>2026-03-17T14:09:14Z</time></trkpt><trkpt lat="43.33433627501116" lon="3.2749389046230317"><ele>27.333333333333336</ele><time>2026-03-17T14:09:15Z</time></trkpt><trkpt lat="43.3343036938475" lon="3.275034532460031"><ele>27.0</ele><time>2026-03-17T14:09:16Z</time></trkpt><trkpt lat="43.33426995312603" lon="3.2751439408893193"><ele>26.666666666666664</ele><time>2026-03-17T14:09:17Z</time></trkpt><trkpt lat="43.33423264873649" lon="3.2752509433622725"><ele>26.333333333333332</ele><time>2026-03-17T14:09:18Z</time></trkpt><trkpt lat="43.33419883293506" lon="3.275331594314352"><ele>26.0</ele><time>2026-03-17T14:09:19Z</time></trkpt><trkpt lat="43.33414024291203" lon="3.275463867354428"><ele>25.6</ele><time>2026-03-17T14:09:21Z</time></trkpt><trkpt lat="43.33423245842461" lon="3.275619249124722"><ele>25.200000000000003</ele><time>2026-03-17T14:09:24Z</time></trkpt><trkpt lat="43.334358424544966" lon="3.2756762245700455"><ele>24.799999999999997</ele><time>2026-03-17T14:09:26Z</time></trkpt><trkpt lat="43.33442566796225" lon="3.2757392084870007"><ele>24.4</ele><time>2026-03-17T14:09:27Z</time></trkpt><trkpt lat="43.33449921339604" lon="3.275807446668813"><ele>24.0</ele><time>2026-03-17T14:09:28Z</time></trkpt><trkpt lat="43.334564392870234" lon="3.275869772399265"><ele>23.999999999999996</ele><time>2026-03-17T14:09:29Z</time></trkpt><trkpt lat="43.33463223541947" lon="3.2759164168799435"><ele>24.0</ele><time>2026-03-17T14:09:30Z</time></trkpt><trkpt lat="43.33469404419876" lon="3.2759623524184676"><ele>24.0</ele><time>2026-03-17T14:09:31Z</time></trkpt><trkpt lat="43.33475606000116" lon="3.2760093768247054"><ele>24.0</ele><time>2026-03-17T14:09:32Z</time></trkpt><trkpt lat="43.33481733816431" lon="3.2760579430622303"><ele>24.0</ele><time>2026-03-17T14:09:33Z</time></trkpt><trkpt lat="43.33487909403205" lon="3.2761077190214416"><ele>23.999999999999996</ele><time>2026-03-17T14:09:34Z</time></trkpt><trkpt lat="43.33494488702812" lon="3.276156555359882"><ele>24.0</ele><time>2026-03-17T14:09:35Z</time></trkpt><trkpt lat="43.335013658510725" lon="3.276204114405109"><ele>24.0</ele><time>2026-03-17T14:09:36Z</time></trkpt><trkpt lat="43.33508295702605" lon="3.2762561971805706"><ele>24.0</ele><time>2026-03-17T14:09:37Z</time></trkpt><trkpt lat="43.335149348568805" lon="3.276305098718696"><ele>24.0</ele><time>2026-03-17T14:09:38Z</time></trkpt><trkpt lat="43.33521895661882" lon="3.276353380363915"><ele>24.0</ele><time>2026-03-17T14:09:39Z</time></trkpt><trkpt lat="43.33529577883726" lon="3.2764049666645425"><ele>24.0</ele><time>2026-03-17T14:09:40Z</time></trkpt><trkpt lat="43.33537320982139" lon="3.276456630453497"><ele>24.0</ele><time>2026-03-17T14:09:41Z</time></trkpt><trkpt lat="43.33544811116754" lon="3.276509402121915"><ele>24.2</ele><time>2026-03-17T14:09:42Z</time></trkpt><trkpt lat="43.33551654753034" lon="3.276559906114227"><ele>24.4</ele><time>2026-03-17T14:09:43Z</time></trkpt><trkpt lat="43.335579513325435" lon="3.276602855136422"><ele>24.6</ele><time>2026-03-17T14:09:44Z</time></trkpt><trkpt lat="43.33568601462613" lon="3.276680436683202"><ele>24.8</ele><time>2026-03-17T14:09:46Z</time></trkpt><trkpt lat="43.33579486493291" lon="3.2767630356055566"><ele>25.0</ele><time>2026-03-17T14:09:48Z</time></trkpt><trkpt lat="43.33589712103807" lon="3.2768349970876818"><ele>24.4</ele><time>2026-03-17T14:09:50Z</time></trkpt><trkpt lat="43.335976980685395" lon="3.2768949601699235"><ele>23.8</ele><time>2026-03-17T14:09:52Z</time></trkpt><trkpt lat="43.336031691173574" lon="3.2767761701165647"><ele>23.200000000000003</ele><time>2026-03-17T14:09:57Z</time></trkpt><trkpt lat="43.335963160176064" lon="3.2768784569824283"><ele>22.6</ele><time>2026-03-17T14:09:58Z</time></trkpt><trkpt lat="43.3360142041513" lon="3.2767596316395036"><ele>22.0</ele><time>2026-03-17T14:10:11.999Z</time></trkpt><trkpt lat="43.33576942482166" lon="3.2767151464564157"><ele>22.0</ele><time>2026-03-17T14:10:12.999Z</time></trkpt><trkpt lat="43.33569792610475" lon="3.276653912771399"><ele>22.0</ele><time>2026-03-17T14:10:13.999Z</time></trkpt><trkpt lat="43.33563629267233" lon="3.276602842170158"><ele>22.0</ele><time>2026-03-17T14:10:14.999Z</time></trkpt><trkpt lat="43.33557199897771" lon="3.2765494110453255"><ele>22.0</ele><time>2026-03-17T14:10:15.999Z</time></trkpt><trkpt lat="43.33549947442148" lon="3.276499411234208"><ele>22.0</ele><time>2026-03-17T14:10:16.999Z</time></trkpt><trkpt lat="43.335427544119405" lon="3.276449806647106"><ele>22.0</ele><time>2026-03-17T14:10:17.999Z</time></trkpt><trkpt lat="43.33535065895053" lon="3.276398037767833"><ele>22.400000000000002</ele><time>2026-03-17T14:10:18.999Z</time></trkpt><trkpt lat="43.33527095328546" lon="3.27633968517979"><ele>22.8</ele><time>2026-03-17T14:10:19.999Z</time></trkpt><trkpt lat="43.33519283353802" lon="3.2762876473621843"><ele>23.2</ele><time>2026-03-17T14:10:20.999Z</time></trkpt><trkpt lat="43.335113862563226" lon="3.2762267175425204"><ele>23.6</ele><time>2026-03-17T14:10:21.999Z</time></trkpt><trkpt lat="43.33502666268417" lon="3.2761735555097973"><ele>24.0</ele><time>2026-03-17T14:10:22.999Z</time></trkpt><trkpt lat="43.33494301491369" lon="3.276125698248585"><ele>24.0</ele><time>2026-03-17T14:10:23.999Z</time></trkpt><trkpt lat="43.334870929187566" lon="3.2760716897325834"><ele>24.0</ele><time>2026-03-17T14:10:24.999Z</time></trkpt><trkpt lat="43.334797050376636" lon="3.276019370548302"><ele>24.0</ele><time>2026-03-17T14:10:25.999Z</time></trkpt><trkpt lat="43.334724605836" lon="3.275969792570159"><ele>24.0</ele><time>2026-03-17T14:10:26.999Z</time></trkpt><trkpt lat="43.334666807008816" lon="3.275907720670191"><ele>24.0</ele><time>2026-03-17T14:10:27.999Z</time></trkpt><trkpt lat="43.33460325691259" lon="3.2758513006482515"><ele>24.0</ele><time>2026-03-17T14:10:28.999Z</time></trkpt><trkpt lat="43.334542723983134" lon="3.2757960081144457"><ele>24.0</ele><time>2026-03-17T14:10:29.999Z</time></trkpt><trkpt lat="43.33448297073131" lon="3.2757465626780387"><ele>24.0</ele><time>2026-03-17T14:10:30.999Z</time></trkpt><trkpt lat="43.334372125016074" lon="3.2756544790168105"><ele>24.0</ele><time>2026-03-17T14:10:32.999Z</time></trkpt><trkpt lat="43.33427993960292" lon="3.2755775807686724"><ele>24.0</ele><time>2026-03-17T14:10:34.999Z</time></trkpt><trkpt lat="43.334216753105856" lon="3.275529490581898"><ele>24.0</ele><time>2026-03-17T14:10:36.999Z</time></trkpt><trkpt lat="43.33413120484957" lon="3.2755160032181823"><ele>24.0</ele><time>2026-03-17T14:10:45Z</time></trkpt><trkpt lat="43.334054250116026" lon="3.2756020571386713"><ele>24.0</ele><time>2026-03-17T14:10:47Z</time></trkpt><trkpt lat="43.334004771856755" lon="3.2757696171576693"><ele>24.0</ele><time>2026-03-17T14:10:49Z</time></trkpt><trkpt lat="43.33395067394076" lon="3.275912390337538"><ele>24.0</ele><time>2026-03-17T14:10:51Z</time></trkpt><trkpt lat="43.33391817994975" lon="3.2760039078806327"><ele>24.0</ele><time>2026-03-17T14:10:52Z</time></trkpt><trkpt lat="43.33388654207158" lon="3.2760990963731547"><ele>24.166666666666668</ele><time>2026-03-17T14:10:53Z</time></trkpt><trkpt lat="43.33385608783062" lon="3.2761904842113205"><ele>24.333333333333336</ele><time>2026-03-17T14:10:54Z</time></trkpt><trkpt lat="43.33382510848822" lon="3.276275554458988"><ele>24.5</ele><time>2026-03-17T14:10:55Z</time></trkpt><trkpt lat="43.33379249421114" lon="3.2763655774923133"><ele>24.666666666666668</ele><time>2026-03-17T14:10:56Z</time></trkpt><trkpt lat="43.333763268445345" lon="3.2764527347385175"><ele>24.833333333333336</ele><time>2026-03-17T14:10:57Z</time></trkpt><trkpt lat="43.33372916089565" lon="3.2765314296709835"><ele>25.0</ele><time>2026-03-17T14:10:58Z</time></trkpt><trkpt lat="43.33367139688733" lon="3.276644239674449"><ele>24.333333333333336</ele><time>2026-03-17T14:11:00Z</time></trkpt><trkpt lat="43.33363649296161" lon="3.2767163728476447"><ele>23.666666666666668</ele><time>2026-03-17T14:11:01Z</time></trkpt><trkpt lat="43.33355544067395" lon="3.2767241005384005"><ele>23.0</ele><time>2026-03-17T14:11:02Z</time></trkpt><trkpt lat="43.33348656310528" lon="3.276749213475753"><ele>22.333333333333336</ele><time>2026-03-17T14:11:03Z</time></trkpt><trkpt lat="43.33341553295056" lon="3.276754796738169"><ele>21.666666666666668</ele><time>2026-03-17T14:11:04Z</time></trkpt><trkpt lat="43.33335448212433" lon="3.276795729476411"><ele>21.0</ele><time>2026-03-17T14:11:05Z</time></trkpt><trkpt lat="43.333246491139334" lon="3.276804246292797"><ele>21.0</ele><time>2026-03-17T14:11:06Z</time></trkpt><trkpt lat="43.333166199383356" lon="3.2768862745728566"><ele>21.0</ele><time>2026-03-17T14:11:08Z</time></trkpt><trkpt lat="43.33311156906095" lon="3.2769424255811077"><ele>21.0</ele><time>2026-03-17T14:11:09Z</time></trkpt><trkpt lat="43.33309397250582" lon="3.277040355314447"><ele>21.0</ele><time>2026-03-17T14:11:10Z</time></trkpt><trkpt lat="43.33313573908563" lon="3.2771433527369918"><ele>21.0</ele><time>2026-03-17T14:11:11Z</time></trkpt><trkpt lat="43.33320157766087" lon="3.2772746367110095"><ele>21.0</ele><time>2026-03-17T14:11:13Z</time></trkpt><trkpt lat="43.33331867961062" lon="3.2773284981004913"><ele>21.0</ele><time>2026-03-17T14:11:15Z</time></trkpt><trkpt lat="43.333404015193395" lon="3.2773042846701306"><ele>21.0</ele><time>2026-03-17T14:11:16Z</time></trkpt><trkpt lat="43.33348788015373" lon="3.277273939681507"><ele>21.0</ele><time>2026-03-17T14:11:17Z</time></trkpt><trkpt lat="43.33357101123081" lon="3.2772398179307887"><ele>21.0</ele><time>2026-03-17T14:11:18Z</time></trkpt><trkpt lat="43.33365701200396" lon="3.277214878000248"><ele>21.0</ele><time>2026-03-17T14:11:19Z</time></trkpt><trkpt lat="43.333736033858116" lon="3.2771948685481136"><ele>21.0</ele><time>2026-03-17T14:11:20Z</time></trkpt><trkpt lat="43.333809282786355" lon="3.2771419953898087"><ele>21.0</ele><time>2026-03-17T14:11:21Z</time></trkpt><trkpt lat="43.333870282806195" lon="3.2770519401021936"><ele>21.0</ele><time>2026-03-17T14:11:24Z</time></trkpt><trkpt lat="43.33397536591108" lon="3.2770286413899377"><ele>21.0</ele><time>2026-03-17T14:11:26Z</time></trkpt><trkpt lat="43.334044406666386" lon="3.2771096640605655"><ele>21.0</ele><time>2026-03-17T14:11:28Z</time></trkpt><trkpt lat="43.334077426343654" lon="3.2773016792541947"><ele>21.0</ele><time>2026-03-17T14:11:30Z</time></trkpt><trkpt lat="43.33406570169315" lon="3.27744943013842"><ele>22.0</ele><time>2026-03-17T14:11:31Z</time></trkpt><trkpt lat="43.33406509604463" lon="3.277577606105748"><ele>23.0</ele><time>2026-03-17T14:11:32Z</time></trkpt><trkpt lat="43.33407874208835" lon="3.277725982913707"><ele>24.0</ele><time>2026-03-17T14:11:33Z</time></trkpt><trkpt lat="43.33409986738469" lon="3.2778479461018692"><ele>25.0</ele><time>2026-03-17T14:11:34Z</time></trkpt><trkpt lat="43.33412438303177" lon="3.2779946014562227"><ele>26.0</ele><time>2026-03-17T14:11:35Z</time></trkpt><trkpt lat="43.33412966390633" lon="3.278105292850734"><ele>26.4</ele><time>2026-03-17T14:11:36Z</time></trkpt><trkpt lat="43.33414451947352" lon="3.2781953856342025"><ele>26.8</ele><time>2026-03-17T14:11:37Z</time></trkpt><trkpt lat="43.334167103958535" lon="3.278348452390611"><ele>27.199999999999996</ele><time>2026-03-17T14:11:39Z</time></trkpt><trkpt lat="43.334184953378575" lon="3.2785082429277526"><ele>27.599999999999998</ele><time>2026-03-17T14:11:41Z</time></trkpt><trkpt lat="43.33421082081561" lon="3.2786111698283174"><ele>28.0</ele><time>2026-03-17T14:11:42Z</time></trkpt><trkpt lat="43.33422471230189" lon="3.2787253288478535"><ele>28.000000000000004</ele><time>2026-03-17T14:11:43Z</time></trkpt><trkpt lat="43.33425136319127" lon="3.2788517685685727"><ele>28.0</ele><time>2026-03-17T14:11:44Z</time></trkpt><trkpt lat="43.3342676875605" lon="3.2789596380848884"><ele>28.0</ele><time>2026-03-17T14:11:45Z</time></trkpt><trkpt lat="43.33430824569344" lon="3.279043637485017"><ele>28.0</ele><time>2026-03-17T14:11:46Z</time></trkpt><trkpt lat="43.33434786273571" lon="3.2791297994692385"><ele>28.000000000000004</ele><time>2026-03-17T14:11:47Z</time></trkpt><trkpt lat="43.33439223213262" lon="3.279207296925244"><ele>28.0</ele><time>2026-03-17T14:11:48Z</time></trkpt><trkpt lat="43.334473314459096" lon="3.2793381263544106"><ele>28.285714285714285</ele><time>2026-03-17T14:11:50Z</time></trkpt><trkpt lat="43.334524109919684" lon="3.279401352407294"><ele>28.57142857142857</ele><time>2026-03-17T14:11:51Z</time></trkpt><trkpt lat="43.334574537757" lon="3.279461248088298"><ele>28.857142857142858</ele><time>2026-03-17T14:11:52Z</time></trkpt><trkpt lat="43.33462891565369" lon="3.279511717519429"><ele>29.142857142857142</ele><time>2026-03-17T14:11:53Z</time></trkpt><trkpt lat="43.33468781113651" lon="3.2795618758159675"><ele>29.428571428571427</ele><time>2026-03-17T14:11:54Z</time></trkpt><trkpt lat="43.33474596899108" lon="3.2796165598647895"><ele>29.714285714285715</ele><time>2026-03-17T14:11:55Z</time></trkpt><trkpt lat="43.334802043350656" lon="3.279675851952874"><ele>30.0</ele><time>2026-03-17T14:11:56Z</time></trkpt><trkpt lat="43.33486280245344" lon="3.2797334072703204"><ele>30.166666666666668</ele><time>2026-03-17T14:11:57Z</time></trkpt><trkpt lat="43.334928179985255" lon="3.2797825399853027"><ele>30.333333333333336</ele><time>2026-03-17T14:11:58Z</time></trkpt><trkpt lat="43.335000291066024" lon="3.279809866620927"><ele>30.5</ele><time>2026-03-17T14:11:59Z</time></trkpt><trkpt lat="43.33506663948264" lon="3.2798440712720014"><ele>30.666666666666668</ele><time>2026-03-17T14:12:00Z</time></trkpt><trkpt lat="43.33519064635556" lon="3.279859799066361"><ele>30.833333333333336</ele><time>2026-03-17T14:12:02Z</time></trkpt><trkpt lat="43.33525703134717" lon="3.279790506428029"><ele>31.0</ele><time>2026-03-17T14:12:03Z</time></trkpt><trkpt lat="43.33531431211667" lon="3.2797499478612755"><ele>31.0</ele><time>2026-03-17T14:12:04Z</time></trkpt><trkpt lat="43.33541399285698" lon="3.2796511519099245"><ele>31.0</ele><time>2026-03-17T14:12:06Z</time></trkpt><trkpt lat="43.335477772612464" lon="3.279623305147024"><ele>31.0</ele><time>2026-03-17T14:12:07Z</time></trkpt><trkpt lat="43.335551728441374" lon="3.279543035844585"><ele>31.0</ele><time>2026-03-17T14:12:09Z</time></trkpt><trkpt lat="43.33547452347586" lon="3.2793968689826762"><ele>31.0</ele><time>2026-03-17T14:12:16Z</time></trkpt><trkpt lat="43.3354124838166" lon="3.2796512161382996"><ele>31.0</ele><time>2026-03-17T14:14:11Z</time></trkpt><trkpt lat="43.33532447284773" lon="3.2796949669752045"><ele>31.0</ele><time>2026-03-17T14:14:13Z</time></trkpt><trkpt lat="43.335243157786515" lon="3.2797806208340914"><ele>31.0</ele><time>2026-03-17T14:14:15Z</time></trkpt><trkpt lat="43.33511842994058" lon="3.279803601232609"><ele>31.0</ele><time>2026-03-17T14:14:17Z</time></trkpt><trkpt lat="43.33505516443879" lon="3.279794675791832"><ele>31.0</ele><time>2026-03-17T14:14:18Z</time></trkpt><trkpt lat="43.33498955167138" lon="3.2797748057082603"><ele>31.000000000000004</ele><time>2026-03-17T14:14:19Z</time></trkpt><trkpt lat="43.33492730104373" lon="3.2797424573708205"><ele>31.0</ele><time>2026-03-17T14:14:20Z</time></trkpt><trkpt lat="43.33486360762285" lon="3.2796975589898847"><ele>31.0</ele><time>2026-03-17T14:14:21Z</time></trkpt><trkpt lat="43.33478708770725" lon="3.279634188219757"><ele>31.0</ele><time>2026-03-17T14:14:22Z</time></trkpt><trkpt lat="43.33472463191694" lon="3.2795639999848776"><ele>31.000000000000004</ele><time>2026-03-17T14:14:23Z</time></trkpt><trkpt lat="43.334659980569015" lon="3.27949938242008"><ele>31.0</ele><time>2026-03-17T14:14:24Z</time></trkpt><trkpt lat="43.334591459275146" lon="3.2794311128740357"><ele>30.833333333333336</ele><time>2026-03-17T14:14:25Z</time></trkpt><trkpt lat="43.334531615033164" lon="3.2793650935433116"><ele>30.666666666666668</ele><time>2026-03-17T14:14:26Z</time></trkpt><trkpt lat="43.33447961551076" lon="3.2793024405004956"><ele>30.5</ele><time>2026-03-17T14:14:27Z</time></trkpt><trkpt lat="43.33443644442776" lon="3.2792290168941833"><ele>30.333333333333336</ele><time>2026-03-17T14:14:28Z</time></trkpt><trkpt lat="43.334399653505095" lon="3.2791343360675524"><ele>30.166666666666668</ele><time>2026-03-17T14:14:28.999Z</time></trkpt><trkpt lat="43.33435305174696" lon="3.279036851937551"><ele>30.0</ele><time>2026-03-17T14:14:29.999Z</time></trkpt><trkpt lat="43.33431423440426" lon="3.278926716306291"><ele>29.6</ele><time>2026-03-17T14:14:30.999Z</time></trkpt><trkpt lat="43.33428226564925" lon="3.278804172737413"><ele>29.2</ele><time>2026-03-17T14:14:31.999Z</time></trkpt><trkpt lat="43.334260986299476" lon="3.2786696605605483"><ele>28.799999999999997</ele><time>2026-03-17T14:14:32.999Z</time></trkpt><trkpt lat="43.33424044341808" lon="3.278523632213168"><ele>28.4</ele><time>2026-03-17T14:14:33.999Z</time></trkpt><trkpt lat="43.334217622796515" lon="3.2783700990474114"><ele>28.0</ele><time>2026-03-17T14:14:34.999Z</time></trkpt><trkpt lat="43.33419747335322" lon="3.2782120036847306"><ele>27.5</ele><time>2026-03-17T14:14:35.999Z</time></trkpt><trkpt lat="43.334177885614544" lon="3.2780699598604195"><ele>27.0</ele><time>2026-03-17T14:14:36.999Z</time></trkpt><trkpt lat="43.334156339617664" lon="3.2779091723719525"><ele>26.5</ele><time>2026-03-17T14:14:37.999Z</time></trkpt><trkpt lat="43.334137520654004" lon="3.2777502546565143"><ele>26.0</ele><time>2026-03-17T14:14:38.999Z</time></trkpt><trkpt lat="43.33411917811476" lon="3.2776010313240835"><ele>25.999999999999996</ele><time>2026-03-17T14:14:39.999Z</time></trkpt><trkpt lat="43.334112277920276" lon="3.27746833694987"><ele>26.0</ele><time>2026-03-17T14:14:40.999Z</time></trkpt><trkpt lat="43.33411213455187" lon="3.2773330862243704"><ele>26.0</ele><time>2026-03-17T14:14:41.999Z</time></trkpt><trkpt lat="43.33411151626342" lon="3.2772097117840637"><ele>26.0</ele><time>2026-03-17T14:14:42.999Z</time></trkpt><trkpt lat="43.33409881976515" lon="3.2771045887498413"><ele>25.999999999999996</ele><time>2026-03-17T14:14:43.999Z</time></trkpt><trkpt lat="43.334070077460524" lon="3.277024082851625"><ele>26.0</ele><time>2026-03-17T14:14:44.999Z</time></trkpt><trkpt lat="43.33399174973879" lon="3.276930117585373"><ele>25.666666666666664</ele><time>2026-03-17T14:14:46.999Z</time></trkpt><trkpt lat="43.33390228391205" lon="3.2768712959114565"><ele>25.333333333333332</ele><time>2026-03-17T14:14:48.999Z</time></trkpt><trkpt lat="43.33384373858109" lon="3.2768351867828542"><ele>25.0</ele><time>2026-03-17T14:14:49.999Z</time></trkpt><trkpt lat="43.3338010198296" lon="3.27672213022052"><ele>24.666666666666664</ele><time>2026-03-17T14:14:50.998Z</time></trkpt><trkpt lat="43.333731547361516" lon="3.276671574320987"><ele>24.333333333333332</ele><time>2026-03-17T14:14:51.998Z</time></trkpt><trkpt lat="43.33366049106355" lon="3.276649507797563"><ele>24.0</ele><time>2026-03-17T14:14:52.998Z</time></trkpt><trkpt lat="43.33356904533414" lon="3.2766608562721546"><ele>23.5</ele><time>2026-03-17T14:14:53.998Z</time></trkpt><trkpt lat="43.33347548186608" lon="3.2767081873859794"><ele>23.0</ele><time>2026-03-17T14:14:54.998Z</time></trkpt><trkpt lat="43.33337994805462" lon="3.2767435260158138"><ele>22.5</ele><time>2026-03-17T14:14:55.999Z</time></trkpt><trkpt lat="43.33329189498261" lon="3.276775269539377"><ele>22.0</ele><time>2026-03-17T14:14:56.999Z</time></trkpt><trkpt lat="43.33321353963936" lon="3.2768042043824175"><ele>21.5</ele><time>2026-03-17T14:14:57.999Z</time></trkpt><trkpt lat="43.33316002993555" lon="3.2768754552947614"><ele>21.0</ele><time>2026-03-17T14:14:58.999Z</time></trkpt><trkpt lat="43.333115161771026" lon="3.276938184406681"><ele>21.0</ele><time>2026-03-17T14:14:59.999Z</time></trkpt><trkpt lat="43.3331212032684" lon="3.2770643218546622"><ele>21.0</ele><time>2026-03-17T14:15:00.999Z</time></trkpt><trkpt lat="43.33313868008249" lon="3.2771797727005425"><ele>21.0</ele><time>2026-03-17T14:15:01.999Z</time></trkpt><trkpt lat="43.3331641822146" lon="3.2773020927093826"><ele>21.0</ele><time>2026-03-17T14:15:02.999Z</time></trkpt><trkpt lat="43.33319553106366" lon="3.277464494099025"><ele>21.0</ele><time>2026-03-17T14:15:03.999Z</time></trkpt><trkpt lat="43.33324892178965" lon="3.2776030991510186"><ele>20.75</ele><time>2026-03-17T14:15:04.999Z</time></trkpt><trkpt lat="43.333301294563455" lon="3.277738992389753"><ele>20.5</ele><time>2026-03-17T14:15:05.999Z</time></trkpt><trkpt lat="43.33335454693428" lon="3.2778664232869743"><ele>20.25</ele><time>2026-03-17T14:15:06.999Z</time></trkpt><trkpt lat="43.333442336041294" lon="3.2780036276259006"><ele>20.0</ele><time>2026-03-17T14:15:07.999Z</time></trkpt><trkpt lat="43.3335053346375" lon="3.27811971855824"><ele>20.8</ele><time>2026-03-17T14:15:08.999Z</time></trkpt><trkpt lat="43.333548336938534" lon="3.278230173439589"><ele>21.6</ele><time>2026-03-17T14:15:09.999Z</time></trkpt><trkpt lat="43.33360101930915" lon="3.278334529012524"><ele>22.4</ele><time>2026-03-17T14:15:10.999Z</time></trkpt><trkpt lat="43.33367026005422" lon="3.2784432126310565"><ele>23.2</ele><time>2026-03-17T14:15:11.999Z</time></trkpt><trkpt lat="43.33372051368898" lon="3.278562206747921"><ele>24.0</ele><time>2026-03-17T14:15:12.999Z</time></trkpt><trkpt lat="43.33376037028711" lon="3.278639264612999"><ele>24.0</ele><time>2026-03-17T14:15:13.999Z</time></trkpt><trkpt lat="43.33381748694964" lon="3.2787263046429915"><ele>24.0</ele><time>2026-03-17T14:15:14.999Z</time></trkpt><trkpt lat="43.33386630387269" lon="3.278823183638432"><ele>24.0</ele><time>2026-03-17T14:15:15.999Z</time></trkpt><trkpt lat="43.33391447169479" lon="3.2789253156531077"><ele>24.0</ele><time>2026-03-17T14:15:16.999Z</time></trkpt><trkpt lat="43.333962203905365" lon="3.279024047642331"><ele>24.0</ele><time>2026-03-17T14:15:17.999Z</time></trkpt><trkpt lat="43.333998716371674" lon="3.2791042231348726"><ele>24.0</ele><time>2026-03-17T14:15:18.999Z</time></trkpt><trkpt lat="43.33404331834549" lon="3.2791729293895466"><ele>25.0</ele><time>2026-03-17T14:15:19.999Z</time></trkpt><trkpt lat="43.33412970481356" lon="3.2792962976609945"><ele>26.0</ele><time>2026-03-17T14:15:21.999Z</time></trkpt><trkpt lat="43.334172788785565" lon="3.2793650011324647"><ele>27.0</ele><time>2026-03-17T14:15:22.999Z</time></trkpt><trkpt lat="43.33422440146422" lon="3.2794458677466682"><ele>28.0</ele><time>2026-03-17T14:15:23.999Z</time></trkpt><trkpt lat="43.33425899070657" lon="3.279555612616569"><ele>29.0</ele><time>2026-03-17T14:15:24.999Z</time></trkpt><trkpt lat="43.33431568573166" lon="3.2796460443324817"><ele>30.0</ele><time>2026-03-17T14:15:25.999Z</time></trkpt><trkpt lat="43.334360586343486" lon="3.279723824492078"><ele>30.5</ele><time>2026-03-17T14:15:26.999Z</time></trkpt><trkpt lat="43.33440647096633" lon="3.2797926229879955"><ele>31.0</ele><time>2026-03-17T14:15:27.999Z</time></trkpt><trkpt lat="43.33445830933383" lon="3.279863277147673"><ele>31.5</ele><time>2026-03-17T14:15:28.999Z</time></trkpt><trkpt lat="43.334510352322354" lon="3.2799306770344616"><ele>32.0</ele><time>2026-03-17T14:15:29.999Z</time></trkpt><trkpt lat="43.33456674793697" lon="3.2799899469174782"><ele>32.5</ele><time>2026-03-17T14:15:30.999Z</time></trkpt><trkpt lat="43.33461981669681" lon="3.2800640180530296"><ele>33.0</ele><time>2026-03-17T14:15:31.999Z</time></trkpt><trkpt lat="43.33468438570469" lon="3.280220363333929"><ele>33.0</ele><time>2026-03-17T14:15:33.999Z</time></trkpt><trkpt lat="43.334715677059506" lon="3.280334028028336"><ele>33.0</ele><time>2026-03-17T14:15:34.999Z</time></trkpt><trkpt lat="43.33474466478005" lon="3.280441404376424"><ele>33.0</ele><time>2026-03-17T14:15:35.999Z</time></trkpt><trkpt lat="43.334812451084126" lon="3.280501640873397"><ele>33.0</ele><time>2026-03-17T14:15:36.999Z</time></trkpt><trkpt lat="43.334919189306184" lon="3.280561332176924"><ele>33.0</ele><time>2026-03-17T14:15:38.999Z</time></trkpt><trkpt lat="43.335019893865635" lon="3.2804955448310795"><ele>32.75</ele><time>2026-03-17T14:15:39.999Z</time></trkpt><trkpt lat="43.335122015281996" lon="3.2805284175191023"><ele>32.5</ele><time>2026-03-17T14:15:40.999Z</time></trkpt><trkpt lat="43.33522909685866" lon="3.2805710778178865"><ele>32.25</ele><time>2026-03-17T14:15:41.999Z</time></trkpt><trkpt lat="43.33534428588007" lon="3.280654612495642"><ele>32.0</ele><time>2026-03-17T14:15:42.999Z</time></trkpt><trkpt lat="43.335485722481515" lon="3.2807251011985095"><ele>31.8</ele><time>2026-03-17T14:15:43.999Z</time></trkpt><trkpt lat="43.33559612453656" lon="3.2807992676422435"><ele>31.6</ele><time>2026-03-17T14:15:44.999Z</time></trkpt><trkpt lat="43.33569837027473" lon="3.2808677857756523"><ele>31.400000000000002</ele><time>2026-03-17T14:15:45.999Z</time></trkpt><trkpt lat="43.335792530453226" lon="3.280950940000298"><ele>31.200000000000003</ele><time>2026-03-17T14:15:46.999Z</time></trkpt><trkpt lat="43.33587524957375" lon="3.2809970391206424"><ele>31.0</ele><time>2026-03-17T14:15:47.999Z</time></trkpt><trkpt lat="43.335954180560556" lon="3.281032166789927"><ele>31.0</ele><time>2026-03-17T14:15:48.999Z</time></trkpt><trkpt lat="43.336027340678754" lon="3.281090776261285"><ele>31.0</ele><time>2026-03-17T14:15:49.999Z</time></trkpt><trkpt lat="43.33609279496185" lon="3.281150989380028"><ele>31.0</ele><time>2026-03-17T14:15:50.999Z</time></trkpt><trkpt lat="43.33615489973551" lon="3.281213050097892"><ele>31.0</ele><time>2026-03-17T14:15:51.999Z</time></trkpt><trkpt lat="43.336217465115745" lon="3.281292703835126"><ele>31.0</ele><time>2026-03-17T14:15:52.999Z</time></trkpt><trkpt lat="43.3362971402345" lon="3.281450494574297"><ele>31.333333333333336</ele><time>2026-03-17T14:15:54.999Z</time></trkpt><trkpt lat="43.336351713142925" lon="3.2815533522993685"><ele>31.666666666666668</ele><time>2026-03-17T14:15:55.999Z</time></trkpt><trkpt lat="43.33640873362921" lon="3.281632073041859"><ele>32.0</ele><time>2026-03-17T14:15:56.999Z</time></trkpt><trkpt lat="43.33643232264317" lon="3.2817376432456684"><ele>32.333333333333336</ele><time>2026-03-17T14:15:57.999Z</time></trkpt><trkpt lat="43.33645829087359" lon="3.281845168525572"><ele>32.666666666666664</ele><time>2026-03-17T14:15:58.999Z</time></trkpt><trkpt lat="43.336458839437604" lon="3.2819664018547092"><ele>33.0</ele><time>2026-03-17T14:15:59.999Z</time></trkpt><trkpt lat="43.33646854508772" lon="3.282096598663167"><ele>34.0</ele><time>2026-03-17T14:16:00.999Z</time></trkpt><trkpt lat="43.33647037254042" lon="3.282232019075317"><ele>35.0</ele><time>2026-03-17T14:16:01.999Z</time></trkpt><trkpt lat="43.33648332092221" lon="3.2823857314552387"><ele>36.0</ele><time>2026-03-17T14:16:02.999Z</time></trkpt><trkpt lat="43.33650802023785" lon="3.282546445862459"><ele>37.0</ele><time>2026-03-17T14:16:03.999Z</time></trkpt><trkpt lat="43.33654196755996" lon="3.282679197011919"><ele>38.0</ele><time>2026-03-17T14:16:04.999Z</time></trkpt><trkpt lat="43.33657220946924" lon="3.2827789221546197"><ele>38.0</ele><time>2026-03-17T14:16:05.999Z</time></trkpt><trkpt lat="43.33660454903983" lon="3.2828627141073494"><ele>38.0</ele><time>2026-03-17T14:16:06.999Z</time></trkpt><trkpt lat="43.33663727757249" lon="3.282967179849057"><ele>38.0</ele><time>2026-03-17T14:16:07.999Z</time></trkpt><trkpt lat="43.336670922616705" lon="3.283087383488798"><ele>38.0</ele><time>2026-03-17T14:16:08.999Z</time></trkpt><trkpt lat="43.33670636976339" lon="3.283217149755126"><ele>38.0</ele><time>2026-03-17T14:16:09.999Z</time></trkpt><trkpt lat="43.33674831966659" lon="3.283357719522253"><ele>38.0</ele><time>2026-03-17T14:16:10.999Z</time></trkpt><trkpt lat="43.33679162570355" lon="3.28350034670552"><ele>38.0</ele><time>2026-03-17T14:16:11.999Z</time></trkpt><trkpt lat="43.33682636161601" lon="3.283623520105195"><ele>38.0</ele><time>2026-03-17T14:16:12.999Z</time></trkpt><trkpt lat="43.336846430125085" lon="3.2837211271738966"><ele>38.0</ele><time>2026-03-17T14:16:13.999Z</time></trkpt><trkpt lat="43.33687039422733" lon="3.2838071980963037"><ele>38.0</ele><time>2026-03-17T14:16:14.999Z</time></trkpt><trkpt lat="43.33690045069524" lon="3.283934845979408"><ele>38.0</ele><time>2026-03-17T14:16:16.999Z</time></trkpt><trkpt lat="43.336853442788474" lon="3.28403811934501"><ele>38.0</ele><time>2026-03-17T14:16:17.999Z</time></trkpt><trkpt lat="43.33685296659448" lon="3.2841400105489997"><ele>38.0</ele><time>2026-03-17T14:16:18.999Z</time></trkpt><trkpt lat="43.33684505331156" lon="3.284235695233342"><ele>38.0</ele><time>2026-03-17T14:16:19.999Z</time></trkpt><trkpt lat="43.33687763208454" lon="3.2843254224874547"><ele>38.0</ele><time>2026-03-17T14:16:20.999Z</time></trkpt><trkpt lat="43.33692332412761" lon="3.284395621845342"><ele>38.0</ele><time>2026-03-17T14:16:21.999Z</time></trkpt><trkpt lat="43.33697805758032" lon="3.2844404108877123"><ele>38.0</ele><time>2026-03-17T14:16:22.999Z</time></trkpt><trkpt lat="43.337105124274956" lon="3.284467799232391"><ele>38.199999999999996</ele><time>2026-03-17T14:16:24.999Z</time></trkpt><trkpt lat="43.33722334265264" lon="3.284398955840944"><ele>38.4</ele><time>2026-03-17T14:16:26.999Z</time></trkpt><trkpt lat="43.337274337264056" lon="3.2843281119413033"><ele>38.599999999999994</ele><time>2026-03-17T14:16:27.999Z</time></trkpt><trkpt lat="43.337313660372054" lon="3.2842423188858665"><ele>38.8</ele><time>2026-03-17T14:16:28.999Z</time></trkpt><trkpt lat="43.33734540441654" lon="3.2841456919335856"><ele>39.0</ele><time>2026-03-17T14:16:29.999Z</time></trkpt><trkpt lat="43.3374382259591" lon="3.284086140436498"><ele>39.0</ele><time>2026-03-17T14:16:30.999Z</time></trkpt><trkpt lat="43.3375247002126" lon="3.284029982898175"><ele>39.0</ele><time>2026-03-17T14:16:31.999Z</time></trkpt><trkpt lat="43.337620352402915" lon="3.283981408293433"><ele>39.0</ele><time>2026-03-17T14:16:32.999Z</time></trkpt><trkpt lat="43.33772569984377" lon="3.283922022199948"><ele>39.0</ele><time>2026-03-17T14:16:33.999Z</time></trkpt><trkpt lat="43.33782213923502" lon="3.2838579168928663"><ele>39.0</ele><time>2026-03-17T14:16:34.999Z</time></trkpt><trkpt lat="43.337916127212196" lon="3.2838093917393194"><ele>39.0</ele><time>2026-03-17T14:16:35.999Z</time></trkpt><trkpt lat="43.33802318321783" lon="3.2837405327552243"><ele>39.0</ele><time>2026-03-17T14:16:36.999Z</time></trkpt><trkpt lat="43.3381351578577" lon="3.283679125022104"><ele>39.0</ele><time>2026-03-17T14:16:37.999Z</time></trkpt><trkpt lat="43.338243266580484" lon="3.2836177498563797"><ele>39.0</ele><time>2026-03-17T14:16:38.999Z</time></trkpt><trkpt lat="43.33833937926325" lon="3.2835613765068814"><ele>39.0</ele><time>2026-03-17T14:16:39.999Z</time></trkpt><trkpt lat="43.338424822876625" lon="3.283512311918282"><ele>39.0</ele><time>2026-03-17T14:16:40.999Z</time></trkpt><trkpt lat="43.33850241113471" lon="3.283457874046134"><ele>39.0</ele><time>2026-03-17T14:16:41.999Z</time></trkpt><trkpt lat="43.33857172830639" lon="3.2834272943451515"><ele>39.0</ele><time>2026-03-17T14:16:42.999Z</time></trkpt><trkpt lat="43.338640928364626" lon="3.283381361807835"><ele>39.0</ele><time>2026-03-17T14:16:43.999Z</time></trkpt><trkpt lat="43.33872618231248" lon="3.283343847867736"><ele>39.0</ele><time>2026-03-17T14:16:45.999Z</time></trkpt><trkpt lat="43.33879164527942" lon="3.2833835682188752"><ele>39.0</ele><time>2026-03-17T14:16:48.999Z</time></trkpt><trkpt lat="43.338822148598425" lon="3.2835321184143935"><ele>39.0</ele><time>2026-03-17T14:16:50.999Z</time></trkpt><trkpt lat="43.33889693553879" lon="3.283581816548949"><ele>39.0</ele><time>2026-03-17T14:16:52.999Z</time></trkpt><trkpt lat="43.338808439751745" lon="3.2837071507238"><ele>39.0</ele><time>2026-03-17T14:16:54.999Z</time></trkpt><trkpt lat="43.338854457412936" lon="3.28382580387526"><ele>39.0</ele><time>2026-03-17T14:16:57.999Z</time></trkpt><trkpt lat="43.33887712390261" lon="3.2839076860378493"><ele>39.5</ele><time>2026-03-17T14:16:59.999Z</time></trkpt><trkpt lat="43.338968389708235" lon="3.283958390238849"><ele>40.0</ele><time>2026-03-17T14:20:03Z</time></trkpt><trkpt lat="43.339061786200595" lon="3.283941439228071"><ele>40.5</ele><time>2026-03-17T14:20:18Z</time></trkpt><trkpt lat="43.33907991815033" lon="3.28385820342684"><ele>41.0</ele><time>2026-03-17T14:20:37Z</time></trkpt><trkpt lat="43.33909377446355" lon="3.2837426577059117"><ele>41.5</ele><time>2026-03-17T14:20:48Z</time></trkpt><trkpt lat="43.339050307018084" lon="3.2838359078594954"><ele>42.0</ele><time>2026-03-17T14:21:50Z</time></trkpt><trkpt lat="43.33917341199105" lon="3.283752892169434"><ele>42.0</ele><time>2026-03-17T14:23:55Z</time></trkpt><trkpt lat="43.3390399838568" lon="3.283832533071889"><ele>42.0</ele><time>2026-03-17T14:23:57Z</time></trkpt><trkpt lat="43.33924570967405" lon="3.2840122348354357"><ele>42.0</ele><time>2026-03-17T14:24:34Z</time></trkpt><trkpt lat="43.33902821840469" lon="3.2838164046149427"><ele>42.0</ele><time>2026-03-17T14:24:35Z</time></trkpt><trkpt lat="43.33911524264434" lon="3.2837557482546127"><ele>42.0</ele><time>2026-03-17T14:28:13Z</time></trkpt><trkpt lat="43.33907760909904" lon="3.283828653896167"><ele>42.0</ele><time>2026-03-17T14:29:10Z</time></trkpt><trkpt lat="43.33901726598121" lon="3.283797615601906"><ele>42.0</ele><time>2026-03-17T14:29:33.997Z</time></trkpt><trkpt lat="43.33906489007918" lon="3.283864956164658"><ele>42.0</ele><time>2026-03-17T14:29:42.998Z</time></trkpt><trkpt lat="43.339002438822945" lon="3.2838840526333"><ele>42.0</ele><time>2026-03-17T14:29:43.998Z</time></trkpt><trkpt lat="43.33901191373405" lon="3.2839841056693477"><ele>42.0</ele><time>2026-03-17T14:29:45.998Z</time></trkpt><trkpt lat="43.33892303079737" lon="3.283975361365229"><ele>42.0</ele><time>2026-03-17T14:29:58.999Z</time></trkpt><trkpt lat="43.338927643623684" lon="3.283887349757463"><ele>42.0</ele><time>2026-03-17T14:30:07.999Z</time></trkpt><trkpt lat="43.338989172181485" lon="3.2839357581875097"><ele>42.0</ele><time>2026-03-17T14:30:55Z</time></trkpt><trkpt lat="43.33908959903902" lon="3.2839588831140367"><ele>42.0</ele><time>2026-03-17T14:31:26Z</time></trkpt><trkpt lat="43.339089381024486" lon="3.283797814407123"><ele>42.0</ele><time>2026-03-17T14:31:34Z</time></trkpt><trkpt lat="43.33926891026945" lon="3.2836975082456785"><ele>42.0</ele><time>2026-03-17T14:32:00.999Z</time></trkpt><trkpt lat="43.33915001771613" lon="3.2837343049360452"><ele>42.0</ele><time>2026-03-17T14:32:22Z</time></trkpt><trkpt lat="43.33907811436066" lon="3.2838095614167098"><ele>42.0</ele><time>2026-03-17T14:32:55.001Z</time></trkpt><trkpt lat="43.339351288616456" lon="3.284045138797929"><ele>42.0</ele><time>2026-03-17T14:33:24.001Z</time></trkpt><trkpt lat="43.33903056618289" lon="3.283882553859085"><ele>42.0</ele><time>2026-03-17T14:33:26.001Z</time></trkpt><trkpt lat="43.33920874314243" lon="3.2840949681504155"><ele>42.0</ele><time>2026-03-17T14:34:12.019Z</time></trkpt><trkpt lat="43.33907934207939" lon="3.28393865409508"><ele>42.0</ele><time>2026-03-17T14:34:36.001Z</time></trkpt><trkpt lat="43.33907090249203" lon="3.284091843755478"><ele>42.0</ele><time>2026-03-17T14:37:27.001Z</time></trkpt><trkpt lat="43.33903863255194" lon="3.2839279887020494"><ele>42.0</ele><time>2026-03-17T14:37:38.001Z</time></trkpt><trkpt lat="43.33922072783446" lon="3.2840106356919585"><ele>42.5</ele><time>2026-03-17T14:39:11.001Z</time></trkpt><trkpt lat="43.339026581606895" lon="3.2839531724525015"><ele>43.0</ele><time>2026-03-17T14:39:14.001Z</time></trkpt><trkpt lat="43.339030160965486" lon="3.2841212130576647"><ele>43.5</ele><time>2026-03-17T14:39:22.001Z</time></trkpt><trkpt lat="43.338997385391025" lon="3.2842361776632867"><ele>44.0</ele><time>2026-03-17T14:39:25.001Z</time></trkpt><trkpt lat="43.33897300825356" lon="3.284121711835925"><ele>44.0</ele><time>2026-03-17T14:39:29.001Z</time></trkpt><trkpt lat="43.33893617393572" lon="3.284018998720784"><ele>44.0</ele><time>2026-03-17T14:39:31.001Z</time></trkpt><trkpt lat="43.33894184212672" lon="3.283920617816066"><ele>44.0</ele><time>2026-03-17T14:39:36.001Z</time></trkpt><trkpt lat="43.33892261630514" lon="3.284008353918346"><ele>44.0</ele><time>2026-03-17T14:39:52.001Z</time></trkpt><trkpt lat="43.33890056482273" lon="3.2840959097240114"><ele>44.0</ele><time>2026-03-17T14:40:01.001Z</time></trkpt><trkpt lat="43.33900996487921" lon="3.284061010930021"><ele>44.0</ele><time>2026-03-17T14:40:06.001Z</time></trkpt><trkpt lat="43.339073850142604" lon="3.284030436070791"><ele>44.0</ele><time>2026-03-17T14:40:09.001Z</time></trkpt><trkpt lat="43.338827306663966" lon="3.2842736386911526"><ele>44.0</ele><time>2026-03-17T14:40:11.001Z</time></trkpt><trkpt lat="43.33917508837168" lon="3.2839975599230113"><ele>44.0</ele><time>2026-03-17T14:40:17.001Z</time></trkpt><trkpt lat="43.33906711262412" lon="3.2839975501866294"><ele>44.0</ele><time>2026-03-17T14:40:32.001Z</time></trkpt><trkpt lat="43.33899732084803" lon="3.283985431589183"><ele>44.0</ele><time>2026-03-17T14:40:37.001Z</time></trkpt><trkpt lat="43.3390599790636" lon="3.2838889590173874"><ele>44.0</ele><time>2026-03-17T14:42:35.001Z</time></trkpt><trkpt lat="43.339101596114766" lon="3.2839804682676847"><ele>44.0</ele><time>2026-03-17T14:43:06.001Z</time></trkpt><trkpt lat="43.3391842925312" lon="3.2842161936407988"><ele>44.0</ele><time>2026-03-17T14:45:34.002Z</time></trkpt><trkpt lat="43.33878657732096" lon="3.2844823321143384"><ele>44.0</ele><time>2026-03-17T14:45:37.998Z</time></trkpt><trkpt lat="43.338933079977856" lon="3.284107286442519"><ele>44.0</ele><time>2026-03-17T14:45:41.998Z</time></trkpt><trkpt lat="43.33895437067526" lon="3.2840112851065077"><ele>44.0</ele><time>2026-03-17T14:46:10.999Z</time></trkpt><trkpt lat="43.3389659838612" lon="3.2840965171246714"><ele>44.0</ele><time>2026-03-17T14:46:29Z</time></trkpt><trkpt lat="43.338962192386965" lon="3.2840088222097243"><ele>44.0</ele><time>2026-03-17T14:47:00.001Z</time></trkpt><trkpt lat="43.33892861520541" lon="3.2839216373712277"><ele>44.0</ele><time>2026-03-17T14:47:13.001Z</time></trkpt><trkpt lat="43.33889560884519" lon="3.2838310792887913"><ele>44.0</ele><time>2026-03-17T14:47:20.001Z</time></trkpt><trkpt lat="43.33889370926388" lon="3.2837348405572304"><ele>44.0</ele><time>2026-03-17T14:47:27.001Z</time></trkpt><trkpt lat="43.33886719747769" lon="3.2836521949413764"><ele>43.666666666666664</ele><time>2026-03-17T14:47:33.001Z</time></trkpt><trkpt lat="43.33893920041648" lon="3.283635607749305"><ele>43.33333333333333</ele><time>2026-03-17T14:47:43.999Z</time></trkpt><trkpt lat="43.33903105266658" lon="3.2836297829263126"><ele>43.0</ele><time>2026-03-17T14:49:01.001Z</time></trkpt><trkpt lat="43.338974313216205" lon="3.2836749474912637"><ele>42.666666666666664</ele><time>2026-03-17T14:49:08.001Z</time></trkpt><trkpt lat="43.33897706261767" lon="3.2837691742078112"><ele>42.333333333333336</ele><time>2026-03-17T14:49:11.001Z</time></trkpt><trkpt lat="43.338950963091946" lon="3.283864495008092"><ele>42.0</ele><time>2026-03-17T14:49:18.002Z</time></trkpt><trkpt lat="43.33905241968227" lon="3.283901035538775"><ele>42.0</ele><time>2026-03-17T14:49:39.002Z</time></trkpt><trkpt lat="43.338983616614854" lon="3.2838241388628853"><ele>42.0</ele><time>2026-03-17T14:50:46.001Z</time></trkpt><trkpt lat="43.33893911473279" lon="3.28375778767712"><ele>42.0</ele><time>2026-03-17T14:50:54.001Z</time></trkpt><trkpt lat="43.33899226098119" lon="3.2836293248957147"><ele>42.0</ele><time>2026-03-17T14:51:04.001Z</time></trkpt><trkpt lat="43.339088820806595" lon="3.2836718165259215"><ele>42.0</ele><time>2026-03-17T14:51:13.002Z</time></trkpt><trkpt lat="43.33909034408494" lon="3.2835810386642117"><ele>42.0</ele><time>2026-03-17T14:51:38.002Z</time></trkpt><trkpt lat="43.33897375608126" lon="3.2834109921637014"><ele>42.0</ele><time>2026-03-17T14:51:46.003Z</time></trkpt><trkpt lat="43.33904916139133" lon="3.283461543109382"><ele>42.0</ele><time>2026-03-17T14:51:50.003Z</time></trkpt><trkpt lat="43.339103143472855" lon="3.283529940628947"><ele>42.0</ele><time>2026-03-17T14:51:52.003Z</time></trkpt><trkpt lat="43.33927963246638" lon="3.28366984437872"><ele>42.0</ele><time>2026-03-17T14:51:55.003Z</time></trkpt><trkpt lat="43.33932828758401" lon="3.283766279862518"><ele>42.0</ele><time>2026-03-17T14:52:05.999Z</time></trkpt><trkpt lat="43.339393083296" lon="3.28380722347839"><ele>42.0</ele><time>2026-03-17T14:52:07.999Z</time></trkpt><trkpt lat="43.33932639386172" lon="3.2837965537364258"><ele>42.0</ele><time>2026-03-17T14:52:10Z</time></trkpt><trkpt lat="43.33926134250355" lon="3.2838367830277653"><ele>42.0</ele><time>2026-03-17T14:52:16Z</time></trkpt><trkpt lat="43.33915444840853" lon="3.283815009966554"><ele>42.0</ele><time>2026-03-17T14:52:18Z</time></trkpt><trkpt lat="43.33907921015577" lon="3.2837706570687155"><ele>42.0</ele><time>2026-03-17T14:52:20Z</time></trkpt><trkpt lat="43.33901072734968" lon="3.283725511810845"><ele>42.0</ele><time>2026-03-17T14:52:22Z</time></trkpt><trkpt lat="43.338934503669456" lon="3.2836761732500106"><ele>42.0</ele><time>2026-03-17T14:52:24Z</time></trkpt><trkpt lat="43.33888059715695" lon="3.283742860820599"><ele>42.0</ele><time>2026-03-17T14:52:53.001Z</time></trkpt><trkpt lat="43.338919309704806" lon="3.283933322123869"><ele>42.0</ele><time>2026-03-17T14:53:09.001Z</time></trkpt><trkpt lat="43.33893452702185" lon="3.284027960932832"><ele>42.0</ele><time>2026-03-17T14:53:18.002Z</time></trkpt><trkpt lat="43.33892969617515" lon="3.2841178919055607"><ele>42.0</ele><time>2026-03-17T14:53:26.002Z</time></trkpt><trkpt lat="43.33893401862871" lon="3.284016045666214"><ele>42.0</ele><time>2026-03-17T14:58:25.001Z</time></trkpt><trkpt lat="43.33890175957007" lon="3.2838838418986684"><ele>41.5</ele><time>2026-03-17T14:58:27.001Z</time></trkpt><trkpt lat="43.338860074746506" lon="3.2837762627618248"><ele>41.0</ele><time>2026-03-17T14:58:30.001Z</time></trkpt><trkpt lat="43.33883743038339" lon="3.283655385303982"><ele>40.5</ele><time>2026-03-17T14:58:33.001Z</time></trkpt><trkpt lat="43.33886913072934" lon="3.283542934774268"><ele>40.0</ele><time>2026-03-17T14:58:35.001Z</time></trkpt><trkpt lat="43.338874735144614" lon="3.2834526703565183"><ele>39.5</ele><time>2026-03-17T14:58:37.001Z</time></trkpt><trkpt lat="43.33883682330907" lon="3.283362586473785"><ele>39.0</ele><time>2026-03-17T14:58:41.001Z</time></trkpt><trkpt lat="43.338741132754826" lon="3.2833286930094365"><ele>39.0</ele><time>2026-03-17T14:58:45.001Z</time></trkpt><trkpt lat="43.33868334961238" lon="3.2833707708440283"><ele>39.0</ele><time>2026-03-17T14:58:46.001Z</time></trkpt><trkpt lat="43.338625651777654" lon="3.2834454493071723"><ele>39.0</ele><time>2026-03-17T14:58:48.001Z</time></trkpt><trkpt lat="43.33869475682184" lon="3.2834002721787257"><ele>39.0</ele><time>2026-03-17T14:58:57.001Z</time></trkpt><trkpt lat="43.33874124320829" lon="3.2833353176295907"><ele>39.0</ele><time>2026-03-17T14:58:58.001Z</time></trkpt><trkpt lat="43.33880249797814" lon="3.2832957922993913"><ele>39.0</ele><time>2026-03-17T14:58:59.001Z</time></trkpt><trkpt lat="43.338885034308376" lon="3.283279555187482"><ele>39.0</ele><time>2026-03-17T14:59:00.001Z</time></trkpt><trkpt lat="43.33896721027303" lon="3.283246881397534"><ele>39.5</ele><time>2026-03-17T14:59:01.001Z</time></trkpt><trkpt lat="43.3390399393267" lon="3.2832076820880394"><ele>40.0</ele><time>2026-03-17T14:59:02.001Z</time></trkpt><trkpt lat="43.33911654540823" lon="3.28315910464529"><ele>40.5</ele><time>2026-03-17T14:59:03.001Z</time></trkpt><trkpt lat="43.3391964045823" lon="3.283108532657413"><ele>41.0</ele><time>2026-03-17T14:59:04.001Z</time></trkpt><trkpt lat="43.33928176717458" lon="3.283056662586606"><ele>41.5</ele><time>2026-03-17T14:59:05.001Z</time></trkpt><trkpt lat="43.33937233819936" lon="3.2830022192124906"><ele>42.0</ele><time>2026-03-17T14:59:06.001Z</time></trkpt><trkpt lat="43.3394665489406" lon="3.2829466592373313"><ele>42.0</ele><time>2026-03-17T14:59:07.001Z</time></trkpt><trkpt lat="43.339567527831356" lon="3.2828933782349763"><ele>42.0</ele><time>2026-03-17T14:59:08.001Z</time></trkpt><trkpt lat="43.3396738063633" lon="3.2828392553002037"><ele>42.0</ele><time>2026-03-17T14:59:09.001Z</time></trkpt><trkpt lat="43.33978066865517" lon="3.2827763079627936"><ele>42.0</ele><time>2026-03-17T14:59:10.001Z</time></trkpt><trkpt lat="43.33988701550709" lon="3.2827122107804048"><ele>42.2</ele><time>2026-03-17T14:59:11.001Z</time></trkpt><trkpt lat="43.33997841113945" lon="3.2826647359027294"><ele>42.400000000000006</ele><time>2026-03-17T14:59:12.001Z</time></trkpt><trkpt lat="43.340043880318476" lon="3.282633963931532"><ele>42.599999999999994</ele><time>2026-03-17T14:59:13.001Z</time></trkpt><trkpt lat="43.34013728556912" lon="3.2825642111072066"><ele>42.8</ele><time>2026-03-17T14:59:15.001Z</time></trkpt><trkpt lat="43.34023123087277" lon="3.2826550161945343"><ele>43.0</ele><time>2026-03-17T14:59:16.001Z</time></trkpt><trkpt lat="43.34030787662556" lon="3.2826571060996925"><ele>43.0</ele><time>2026-03-17T14:59:17.001Z</time></trkpt><trkpt lat="43.34037758666686" lon="3.2826270222806966"><ele>43.0</ele><time>2026-03-17T14:59:18.001Z</time></trkpt><trkpt lat="43.34043702540672" lon="3.2825640442726822"><ele>43.0</ele><time>2026-03-17T14:59:19.001Z</time></trkpt><trkpt lat="43.34047807151588" lon="3.28248295636021"><ele>43.0</ele><time>2026-03-17T14:59:20.001Z</time></trkpt><trkpt lat="43.340516808773366" lon="3.282392066812935"><ele>43.0</ele><time>2026-03-17T14:59:21.001Z</time></trkpt><trkpt lat="43.34052273206764" lon="3.2822853484917984"><ele>43.0</ele><time>2026-03-17T14:59:22.001Z</time></trkpt><trkpt lat="43.34048820831981" lon="3.282176192756933"><ele>43.0</ele><time>2026-03-17T14:59:23.001Z</time></trkpt><trkpt lat="43.34043570524537" lon="3.2820894045819338"><ele>43.0</ele><time>2026-03-17T14:59:24.001Z</time></trkpt><trkpt lat="43.340362439563776" lon="3.282035027971042"><ele>43.0</ele><time>2026-03-17T14:59:25.001Z</time></trkpt><trkpt lat="43.34027634300924" lon="3.282024702528129"><ele>43.0</ele><time>2026-03-17T14:59:26.001Z</time></trkpt><trkpt lat="43.34019604118465" lon="3.2820576368012047"><ele>43.0</ele><time>2026-03-17T14:59:27.001Z</time></trkpt><trkpt lat="43.34012561205806" lon="3.2821288376439077"><ele>43.0</ele><time>2026-03-17T14:59:28.001Z</time></trkpt><trkpt lat="43.340057209616766" lon="3.282201279918261"><ele>43.0</ele><time>2026-03-17T14:59:29.001Z</time></trkpt><trkpt lat="43.34001151012487" lon="3.28232285703387"><ele>43.0</ele><time>2026-03-17T14:59:30.001Z</time></trkpt><trkpt lat="43.33993745225975" lon="3.282402710611064"><ele>43.0</ele><time>2026-03-17T14:59:31.001Z</time></trkpt><trkpt lat="43.33984324256987" lon="3.2824681749704117"><ele>43.0</ele><time>2026-03-17T14:59:32.002Z</time></trkpt><trkpt lat="43.33973771268612" lon="3.28252526034106"><ele>43.0</ele><time>2026-03-17T14:59:33.002Z</time></trkpt><trkpt lat="43.33963486686333" lon="3.282582173287433"><ele>42.75</ele><time>2026-03-17T14:59:34.002Z</time></trkpt><trkpt lat="43.339525516064526" lon="3.282644626632802"><ele>42.5</ele><time>2026-03-17T14:59:35.002Z</time></trkpt><trkpt lat="43.33940840134709" lon="3.282713265841"><ele>42.25</ele><time>2026-03-17T14:59:36.002Z</time></trkpt><trkpt lat="43.33928281281541" lon="3.282785779663389"><ele>42.0</ele><time>2026-03-17T14:59:37.002Z</time></trkpt><trkpt lat="43.33914817693745" lon="3.2828659170345103"><ele>42.0</ele><time>2026-03-17T14:59:38.002Z</time></trkpt><trkpt lat="43.33900397310689" lon="3.282947040527324"><ele>42.0</ele><time>2026-03-17T14:59:39.002Z</time></trkpt><trkpt lat="43.33885308152233" lon="3.2830331032200304"><ele>42.0</ele><time>2026-03-17T14:59:40.002Z</time></trkpt><trkpt lat="43.33869920726245" lon="3.28311688830667"><ele>41.25</ele><time>2026-03-17T14:59:41.002Z</time></trkpt><trkpt lat="43.338558867320465" lon="3.2831920595527575"><ele>40.5</ele><time>2026-03-17T14:59:42.002Z</time></trkpt><trkpt lat="43.338433594931615" lon="3.2832602625228087"><ele>39.75</ele><time>2026-03-17T14:59:43.002Z</time></trkpt><trkpt lat="43.33831659329093" lon="3.283328427329911"><ele>39.0</ele><time>2026-03-17T14:59:44.002Z</time></trkpt><trkpt lat="43.33820231033907" lon="3.2833957151021202"><ele>39.0</ele><time>2026-03-17T14:59:45.002Z</time></trkpt><trkpt lat="43.338083702892185" lon="3.283465608230856"><ele>39.0</ele><time>2026-03-17T14:59:46.002Z</time></trkpt><trkpt lat="43.33796067062814" lon="3.2835343714363265"><ele>39.0</ele><time>2026-03-17T14:59:47.002Z</time></trkpt><trkpt lat="43.33783781848026" lon="3.283602785115354"><ele>39.0</ele><time>2026-03-17T14:59:48.002Z</time></trkpt><trkpt lat="43.3377184518348" lon="3.2836675234731385"><ele>38.8</ele><time>2026-03-17T14:59:49.002Z</time></trkpt><trkpt lat="43.337611161891054" lon="3.283726250449626"><ele>38.599999999999994</ele><time>2026-03-17T14:59:50.002Z</time></trkpt><trkpt lat="43.337514923713655" lon="3.2837805472957386"><ele>38.4</ele><time>2026-03-17T14:59:51.002Z</time></trkpt><trkpt lat="43.33743145252698" lon="3.2838311134789637"><ele>38.199999999999996</ele><time>2026-03-17T14:59:52.002Z</time></trkpt><trkpt lat="43.33736231537149" lon="3.2838670476401286"><ele>38.0</ele><time>2026-03-17T14:59:53.002Z</time></trkpt><trkpt lat="43.337278858125345" lon="3.283894652519146"><ele>37.8</ele><time>2026-03-17T14:59:55.002Z</time></trkpt><trkpt lat="43.33717351025262" lon="3.283870790484501"><ele>37.599999999999994</ele><time>2026-03-17T14:59:57.002Z</time></trkpt><trkpt lat="43.3371105022698" lon="3.283816750105512"><ele>37.400000000000006</ele><time>2026-03-17T14:59:58.002Z</time></trkpt><trkpt lat="43.33705162258534" lon="3.2837302622402134"><ele>37.2</ele><time>2026-03-17T14:59:59.002Z</time></trkpt><trkpt lat="43.337001055679266" lon="3.283619606792787"><ele>37.0</ele><time>2026-03-17T15:00:00.002Z</time></trkpt><trkpt lat="43.336966520100205" lon="3.2834891484139073"><ele>37.0</ele><time>2026-03-17T15:00:01.002Z</time></trkpt><trkpt lat="43.336928008416955" lon="3.2833611984925257"><ele>37.0</ele><time>2026-03-17T15:00:02.002Z</time></trkpt><trkpt lat="43.33688025022312" lon="3.2832438656581155"><ele>37.0</ele><time>2026-03-17T15:00:03.002Z</time></trkpt><trkpt lat="43.33684689790064" lon="3.283114759153962"><ele>37.0</ele><time>2026-03-17T15:00:04.002Z</time></trkpt><trkpt lat="43.33681865779265" lon="3.282978603684072"><ele>37.0</ele><time>2026-03-17T15:00:05.002Z</time></trkpt><trkpt lat="43.336788566869046" lon="3.282844860099542"><ele>37.16666666666667</ele><time>2026-03-17T15:00:06.002Z</time></trkpt><trkpt lat="43.33675827967837" lon="3.2827286522279056"><ele>37.333333333333336</ele><time>2026-03-17T15:00:07.002Z</time></trkpt><trkpt lat="43.33673461524097" lon="3.2826252515514307"><ele>37.5</ele><time>2026-03-17T15:00:08.002Z</time></trkpt><trkpt lat="43.33671109748435" lon="3.282532189471953"><ele>37.666666666666664</ele><time>2026-03-17T15:00:09.002Z</time></trkpt><trkpt lat="43.33668210358193" lon="3.2824077527219466"><ele>37.83333333333333</ele><time>2026-03-17T15:00:11.002Z</time></trkpt><trkpt lat="43.33666170261993" lon="3.2822987130024703"><ele>38.0</ele><time>2026-03-17T15:00:14.002Z</time></trkpt><trkpt lat="43.33665071838016" lon="3.2822076853716124"><ele>38.166666666666664</ele><time>2026-03-17T15:00:19.002Z</time></trkpt><trkpt lat="43.336641721116976" lon="3.2821151361145255"><ele>38.33333333333333</ele><time>2026-03-17T15:00:24Z</time></trkpt><trkpt lat="43.336637968277536" lon="3.2820175943116383"><ele>38.5</ele><time>2026-03-17T15:00:31Z</time></trkpt><trkpt lat="43.33663995935302" lon="3.281916577758672"><ele>38.666666666666664</ele><time>2026-03-17T15:00:35Z</time></trkpt><trkpt lat="43.336639359007854" lon="3.2817757244275056"><ele>38.833333333333336</ele><time>2026-03-17T15:00:59.001Z</time></trkpt><trkpt lat="43.3366820215915" lon="3.2816063482311164"><ele>39.0</ele><time>2026-03-17T15:01:01.001Z</time></trkpt><trkpt lat="43.33672635826307" lon="3.281516144667455"><ele>38.666666666666664</ele><time>2026-03-17T15:01:02.001Z</time></trkpt><trkpt lat="43.336747898222185" lon="3.281404148352065"><ele>38.333333333333336</ele><time>2026-03-17T15:01:03.001Z</time></trkpt><trkpt lat="43.33673791933849" lon="3.2812896896123656"><ele>38.0</ele><time>2026-03-17T15:01:04.001Z</time></trkpt><trkpt lat="43.33672513158441" lon="3.2811913667585055"><ele>37.66666666666667</ele><time>2026-03-17T15:01:05.001Z</time></trkpt><trkpt lat="43.33665853619933" lon="3.281113935333888"><ele>37.333333333333336</ele><time>2026-03-17T15:01:06.001Z</time></trkpt><trkpt lat="43.33658761870561" lon="3.2810481403695086"><ele>37.0</ele><time>2026-03-17T15:01:07.001Z</time></trkpt><trkpt lat="43.336509434641115" lon="3.2810172079611233"><ele>37.0</ele><time>2026-03-17T15:01:08.001Z</time></trkpt><trkpt lat="43.33641745189067" lon="3.2810271790945764"><ele>37.0</ele><time>2026-03-17T15:01:09.001Z</time></trkpt><trkpt lat="43.336325170180665" lon="3.2810470079352845"><ele>37.0</ele><time>2026-03-17T15:01:10.001Z</time></trkpt><trkpt lat="43.33622634931823" lon="3.2810397222497394"><ele>37.0</ele><time>2026-03-17T15:01:11.001Z</time></trkpt><trkpt lat="43.3361188798242" lon="3.2809915020959166"><ele>37.0</ele><time>2026-03-17T15:01:12.001Z</time></trkpt><trkpt lat="43.3360070853381" lon="3.2809205347266817"><ele>35.5</ele><time>2026-03-17T15:01:13.001Z</time></trkpt><trkpt lat="43.33589305360926" lon="3.280844626340342"><ele>34.0</ele><time>2026-03-17T15:01:14.001Z</time></trkpt><trkpt lat="43.335771839780364" lon="3.280760301111922"><ele>32.5</ele><time>2026-03-17T15:01:15.001Z</time></trkpt><trkpt lat="43.335642776199414" lon="3.2806700021224002"><ele>31.0</ele><time>2026-03-17T15:01:16.001Z</time></trkpt><trkpt lat="43.33551813861303" lon="3.2805840665561847"><ele>31.0</ele><time>2026-03-17T15:01:17.001Z</time></trkpt><trkpt lat="43.33541182416906" lon="3.28051167298153"><ele>31.0</ele><time>2026-03-17T15:01:18.001Z</time></trkpt><trkpt lat="43.33531678407823" lon="3.2804438256443906"><ele>31.0</ele><time>2026-03-17T15:01:19.001Z</time></trkpt><trkpt lat="43.33524156240649" lon="3.2803814309036397"><ele>31.0</ele><time>2026-03-17T15:01:20.001Z</time></trkpt><trkpt lat="43.33518098052347" lon="3.280311492723657"><ele>31.0</ele><time>2026-03-17T15:01:21.001Z</time></trkpt><trkpt lat="43.33512018235924" lon="3.2802213269678915"><ele>31.0</ele><time>2026-03-17T15:01:22.001Z</time></trkpt><trkpt lat="43.335068848763726" lon="3.2801273738137366"><ele>31.0</ele><time>2026-03-17T15:01:23.001Z</time></trkpt><trkpt lat="43.33501123587635" lon="3.2800498803593636"><ele>31.0</ele><time>2026-03-17T15:01:24.001Z</time></trkpt><trkpt lat="43.33492904660715" lon="3.2800010928480394"><ele>31.0</ele><time>2026-03-17T15:01:25.001Z</time></trkpt><trkpt lat="43.33483552556512" lon="3.279986983455386"><ele>31.0</ele><time>2026-03-17T15:01:26.001Z</time></trkpt><trkpt lat="43.334735498302415" lon="3.279947402360923"><ele>30.75</ele><time>2026-03-17T15:01:27.001Z</time></trkpt><trkpt lat="43.33463814191862" lon="3.2798575284806875"><ele>30.5</ele><time>2026-03-17T15:01:28.001Z</time></trkpt><trkpt lat="43.33454822051895" lon="3.279727128077065"><ele>30.25</ele><time>2026-03-17T15:01:29.001Z</time></trkpt><trkpt lat="43.33445575179129" lon="3.27957570344882"><ele>30.0</ele><time>2026-03-17T15:01:30.001Z</time></trkpt><trkpt lat="43.334361163752064" lon="3.279405450536175"><ele>30.0</ele><time>2026-03-17T15:01:31.001Z</time></trkpt><trkpt lat="43.33427157797744" lon="3.279224602224682"><ele>30.0</ele><time>2026-03-17T15:01:32.001Z</time></trkpt><trkpt lat="43.33419389198716" lon="3.2790475181751146"><ele>30.0</ele><time>2026-03-17T15:01:33.001Z</time></trkpt><trkpt lat="43.334122317356034" lon="3.278864553189137"><ele>29.333333333333336</ele><time>2026-03-17T15:01:34.001Z</time></trkpt><trkpt lat="43.334055128251656" lon="3.2786733297904"><ele>28.666666666666668</ele><time>2026-03-17T15:01:35.001Z</time></trkpt><trkpt lat="43.333994270774745" lon="3.278478765073924"><ele>28.0</ele><time>2026-03-17T15:01:36.001Z</time></trkpt><trkpt lat="43.33393030457485" lon="3.278278099978612"><ele>25.333333333333336</ele><time>2026-03-17T15:01:37.001Z</time></trkpt><trkpt lat="43.33386654181175" lon="3.278070032233832"><ele>22.666666666666668</ele><time>2026-03-17T15:01:38.001Z</time></trkpt><trkpt lat="43.33380525823478" lon="3.2778580249919314"><ele>20.0</ele><time>2026-03-17T15:01:39.001Z</time></trkpt><trkpt lat="43.33374269336833" lon="3.277640079433625"><ele>20.0</ele><time>2026-03-17T15:01:40.001Z</time></trkpt><trkpt lat="43.33368548987325" lon="3.2774142376980913"><ele>20.0</ele><time>2026-03-17T15:01:41.001Z</time></trkpt><trkpt lat="43.33363017683129" lon="3.2771840164076664"><ele>20.0</ele><time>2026-03-17T15:01:42.001Z</time></trkpt><trkpt lat="43.33357862636955" lon="3.2769555940200696"><ele>20.333333333333336</ele><time>2026-03-17T15:01:43.001Z</time></trkpt><trkpt lat="43.33353430077379" lon="3.276730227442301"><ele>20.666666666666668</ele><time>2026-03-17T15:01:44.001Z</time></trkpt><trkpt lat="43.333493341028" lon="3.276507172839959"><ele>21.0</ele><time>2026-03-17T15:01:45.001Z</time></trkpt><trkpt lat="43.33345572950691" lon="3.276283697507659"><ele>22.333333333333336</ele><time>2026-03-17T15:01:46.002Z</time></trkpt><trkpt lat="43.3334147398796" lon="3.276061653360058"><ele>23.666666666666668</ele><time>2026-03-17T15:01:47.002Z</time></trkpt><trkpt lat="43.333378393247536" lon="3.2758361622888845"><ele>25.0</ele><time>2026-03-17T15:01:48.002Z</time></trkpt><trkpt lat="43.3333422058304" lon="3.2756180192453286"><ele>25.333333333333336</ele><time>2026-03-17T15:01:49.002Z</time></trkpt><trkpt lat="43.33330923370508" lon="3.2753977709848128"><ele>25.666666666666664</ele><time>2026-03-17T15:01:50.002Z</time></trkpt><trkpt lat="43.33328147432963" lon="3.2751852521958353"><ele>26.0</ele><time>2026-03-17T15:01:51.002Z</time></trkpt><trkpt lat="43.333254247371364" lon="3.274961804295112"><ele>26.333333333333332</ele><time>2026-03-17T15:01:52.002Z</time></trkpt><trkpt lat="43.33322582724325" lon="3.274734423220077"><ele>26.666666666666664</ele><time>2026-03-17T15:01:53.002Z</time></trkpt><trkpt lat="43.33319924511944" lon="3.274505791446151"><ele>27.0</ele><time>2026-03-17T15:01:54.002Z</time></trkpt><trkpt lat="43.33317697375254" lon="3.2742683741197407"><ele>27.0</ele><time>2026-03-17T15:01:55.002Z</time></trkpt><trkpt lat="43.33315840728647" lon="3.274028687051344"><ele>27.0</ele><time>2026-03-17T15:01:56.002Z</time></trkpt><trkpt lat="43.33314288696082" lon="3.273795476844493"><ele>27.0</ele><time>2026-03-17T15:01:57.002Z</time></trkpt><trkpt lat="43.3331326113568" lon="3.273574037599033"><ele>27.333333333333336</ele><time>2026-03-17T15:01:58.002Z</time></trkpt><trkpt lat="43.33312173608495" lon="3.273353505957837"><ele>27.666666666666668</ele><time>2026-03-17T15:01:59.002Z</time></trkpt><trkpt lat="43.3331148315777" lon="3.2731326421234694"><ele>28.0</ele><time>2026-03-17T15:02:00.002Z</time></trkpt><trkpt lat="43.333108370040414" lon="3.272912578941634"><ele>28.666666666666668</ele><time>2026-03-17T15:02:01.002Z</time></trkpt><trkpt lat="43.33310507647449" lon="3.272693473505964"><ele>29.333333333333336</ele><time>2026-03-17T15:02:02.002Z</time></trkpt><trkpt lat="43.3331024348226" lon="3.2724726962798494"><ele>30.0</ele><time>2026-03-17T15:02:03.002Z</time></trkpt><trkpt lat="43.33309842350398" lon="3.2722510189563283"><ele>30.333333333333336</ele><time>2026-03-17T15:02:04.002Z</time></trkpt><trkpt lat="43.333094992302684" lon="3.2720275294308916"><ele>30.666666666666668</ele><time>2026-03-17T15:02:05.002Z</time></trkpt><trkpt lat="43.33309252670206" lon="3.2718023610963045"><ele>31.0</ele><time>2026-03-17T15:02:06.002Z</time></trkpt><trkpt lat="43.33308658876726" lon="3.271575783046654"><ele>31.0</ele><time>2026-03-17T15:02:07.002Z</time></trkpt><trkpt lat="43.33308110279162" lon="3.271349347156643"><ele>31.0</ele><time>2026-03-17T15:02:08.002Z</time></trkpt><trkpt lat="43.33307725524606" lon="3.2711231962989196"><ele>31.0</ele><time>2026-03-17T15:02:09.002Z</time></trkpt><trkpt lat="43.33307589221776" lon="3.2708963960843422"><ele>31.0</ele><time>2026-03-17T15:02:10.002Z</time></trkpt><trkpt lat="43.33307328020895" lon="3.2706743944803742"><ele>31.0</ele><time>2026-03-17T15:02:11.002Z</time></trkpt><trkpt lat="43.33306931007202" lon="3.2704661029979505"><ele>31.0</ele><time>2026-03-17T15:02:12.002Z</time></trkpt><trkpt lat="43.33306692808365" lon="3.270273939832959"><ele>31.0</ele><time>2026-03-17T15:02:13.002Z</time></trkpt><trkpt lat="43.33306144364561" lon="3.270089345599153"><ele>31.0</ele><time>2026-03-17T15:02:14.002Z</time></trkpt><trkpt lat="43.33305682097003" lon="3.2699094357861065"><ele>31.0</ele><time>2026-03-17T15:02:15.002Z</time></trkpt><trkpt lat="43.33305525160325" lon="3.2697339937673138"><ele>31.0</ele><time>2026-03-17T15:02:16.002Z</time></trkpt><trkpt lat="43.333052535490324" lon="3.269562446532337"><ele>31.0</ele><time>2026-03-17T15:02:17.002Z</time></trkpt><trkpt lat="43.333052267534626" lon="3.269397324911788"><ele>31.0</ele><time>2026-03-17T15:02:18.002Z</time></trkpt><trkpt lat="43.33305640660548" lon="3.2692453741788996"><ele>31.0</ele><time>2026-03-17T15:02:19.002Z</time></trkpt><trkpt lat="43.33306387275056" lon="3.2691343657603125"><ele>31.0</ele><time>2026-03-17T15:02:20.002Z</time></trkpt><trkpt lat="43.33307682368878" lon="3.268996816639914"><ele>31.0</ele><time>2026-03-17T15:02:22.002Z</time></trkpt><trkpt lat="43.33310540182492" lon="3.268870346502483"><ele>31.500000000000004</ele><time>2026-03-17T15:02:24.002Z</time></trkpt><trkpt lat="43.33312376548208" lon="3.2687818007032194"><ele>32.0</ele><time>2026-03-17T15:02:25.002Z</time></trkpt><trkpt lat="43.33313867415332" lon="3.2686902915319904"><ele>32.5</ele><time>2026-03-17T15:02:26Z</time></trkpt><trkpt lat="43.33311964947819" lon="3.268596026093895"><ele>33.0</ele><time>2026-03-17T15:02:27Z</time></trkpt><trkpt lat="43.333072967080994" lon="3.268524882732355"><ele>33.5</ele><time>2026-03-17T15:02:28Z</time></trkpt><trkpt lat="43.33294248519371" lon="3.268505006027518"><ele>34.0</ele><time>2026-03-17T15:02:30Z</time></trkpt><trkpt lat="43.332889650999284" lon="3.2685790745119703"><ele>34.0</ele><time>2026-03-17T15:02:31Z</time></trkpt><trkpt lat="43.332857120214356" lon="3.26866601168601"><ele>34.0</ele><time>2026-03-17T15:02:32Z</time></trkpt><trkpt lat="43.33285756915169" lon="3.26876092161392"><ele>34.0</ele><time>2026-03-17T15:02:33Z</time></trkpt><trkpt lat="43.33288137402754" lon="3.268863280838295"><ele>34.0</ele><time>2026-03-17T15:02:34Z</time></trkpt><trkpt lat="43.33293599441573" lon="3.268982692557415"><ele>34.0</ele><time>2026-03-17T15:02:35Z</time></trkpt><trkpt lat="43.33295947646023" lon="3.2691292294215324"><ele>34.0</ele><time>2026-03-17T15:02:36Z</time></trkpt><trkpt lat="43.33296755774669" lon="3.2692817349887577"><ele>33.25</ele><time>2026-03-17T15:02:37Z</time></trkpt><trkpt lat="43.33296735792932" lon="3.269449541644892"><ele>32.5</ele><time>2026-03-17T15:02:38Z</time></trkpt><trkpt lat="43.332968095758" lon="3.269631469882584"><ele>31.75</ele><time>2026-03-17T15:02:39Z</time></trkpt><trkpt lat="43.33296912719795" lon="3.2698210084139214"><ele>31.0</ele><time>2026-03-17T15:02:40Z</time></trkpt><trkpt lat="43.33297101746487" lon="3.2700122571488865"><ele>30.666666666666668</ele><time>2026-03-17T15:02:41Z</time></trkpt><trkpt lat="43.33297348808062" lon="3.2702383686219747"><ele>30.333333333333336</ele><time>2026-03-17T15:02:42Z</time></trkpt><trkpt lat="43.332974603828745" lon="3.2704741082849695"><ele>30.0</ele><time>2026-03-17T15:02:43Z</time></trkpt><trkpt lat="43.33297839917596" lon="3.2706902683205517"><ele>29.333333333333336</ele><time>2026-03-17T15:02:44Z</time></trkpt><trkpt lat="43.33298071784222" lon="3.2709089082440688"><ele>28.666666666666668</ele><time>2026-03-17T15:02:45Z</time></trkpt><trkpt lat="43.33298427425956" lon="3.271136713084913"><ele>28.0</ele><time>2026-03-17T15:02:46Z</time></trkpt><trkpt lat="43.332987421227784" lon="3.271368431036846"><ele>27.666666666666668</ele><time>2026-03-17T15:02:47Z</time></trkpt><trkpt lat="43.33299083093548" lon="3.2716023256037574"><ele>27.333333333333336</ele><time>2026-03-17T15:02:48Z</time></trkpt><trkpt lat="43.33299402959462" lon="3.271823947141553"><ele>27.0</ele><time>2026-03-17T15:02:49Z</time></trkpt><trkpt lat="43.332996863198666" lon="3.272031617224845"><ele>27.0</ele><time>2026-03-17T15:02:50Z</time></trkpt><trkpt lat="43.33300209554948" lon="3.2722361960772055"><ele>27.0</ele><time>2026-03-17T15:02:51Z</time></trkpt><trkpt lat="43.33300369874877" lon="3.27244517009102"><ele>27.0</ele><time>2026-03-17T15:02:52Z</time></trkpt><trkpt lat="43.33300635299216" lon="3.2726558752908255"><ele>26.666666666666664</ele><time>2026-03-17T15:02:53Z</time></trkpt><trkpt lat="43.33300987793421" lon="3.2728682191769436"><ele>26.333333333333332</ele><time>2026-03-17T15:02:54Z</time></trkpt><trkpt lat="43.333012814375245" lon="3.273079794160459"><ele>26.0</ele><time>2026-03-17T15:02:55Z</time></trkpt><trkpt lat="43.333018241652596" lon="3.2732872195819254"><ele>25.75</ele><time>2026-03-17T15:02:56Z</time></trkpt><trkpt lat="43.33304325509501" lon="3.2734844075802"><ele>25.5</ele><time>2026-03-17T15:02:57Z</time></trkpt><trkpt lat="43.3330544920738" lon="3.2736729886631437"><ele>25.25</ele><time>2026-03-17T15:02:58Z</time></trkpt><trkpt lat="43.33306596233622" lon="3.2738559258078186"><ele>25.0</ele><time>2026-03-17T15:02:59Z</time></trkpt><trkpt lat="43.333079670162405" lon="3.2740355549889553"><ele>25.25</ele><time>2026-03-17T15:03:00Z</time></trkpt><trkpt lat="43.33307850019848" lon="3.274217899735852"><ele>25.5</ele><time>2026-03-17T15:03:01Z</time></trkpt><trkpt lat="43.33309632279119" lon="3.274399782579363"><ele>25.75</ele><time>2026-03-17T15:03:02Z</time></trkpt><trkpt lat="43.333114693868524" lon="3.2745832156131987"><ele>26.0</ele><time>2026-03-17T15:03:03Z</time></trkpt><trkpt lat="43.333134411452995" lon="3.274771879961942"><ele>26.0</ele><time>2026-03-17T15:03:04Z</time></trkpt><trkpt lat="43.333159573476955" lon="3.2749646056078"><ele>26.0</ele><time>2026-03-17T15:03:05Z</time></trkpt><trkpt lat="43.33318270170078" lon="3.2751621927244825"><ele>26.0</ele><time>2026-03-17T15:03:06.001Z</time></trkpt><trkpt lat="43.33320789796108" lon="3.275363625788627"><ele>26.0</ele><time>2026-03-17T15:03:07.001Z</time></trkpt><trkpt lat="43.33323665803536" lon="3.2755716282406584"><ele>25.666666666666664</ele><time>2026-03-17T15:03:08.001Z</time></trkpt><trkpt lat="43.33326776501272" lon="3.275783039076141"><ele>25.333333333333336</ele><time>2026-03-17T15:03:09.001Z</time></trkpt><trkpt lat="43.333303321177226" lon="3.275997431465804"><ele>25.0</ele><time>2026-03-17T15:03:10.001Z</time></trkpt><trkpt lat="43.333339277250694" lon="3.2762148055988263"><ele>25.0</ele><time>2026-03-17T15:03:11.001Z</time></trkpt><trkpt lat="43.33337860492737" lon="3.2764304748082886"><ele>25.0</ele><time>2026-03-17T15:03:12.001Z</time></trkpt><trkpt lat="43.33341953696499" lon="3.276639713828304"><ele>25.0</ele><time>2026-03-17T15:03:13.001Z</time></trkpt><trkpt lat="43.333463028300024" lon="3.2768446643762674"><ele>24.0</ele><time>2026-03-17T15:03:14.001Z</time></trkpt><trkpt lat="43.33350537482572" lon="3.277047262059142"><ele>23.0</ele><time>2026-03-17T15:03:15.001Z</time></trkpt><trkpt lat="43.33354854558486" lon="3.2772456918744206"><ele>22.0</ele><time>2026-03-17T15:03:16.001Z</time></trkpt><trkpt lat="43.33359225763565" lon="3.277435759945923"><ele>21.0</ele><time>2026-03-17T15:03:17.001Z</time></trkpt><trkpt lat="43.333641397196054" lon="3.2776194853092266"><ele>20.75</ele><time>2026-03-17T15:03:18.001Z</time></trkpt><trkpt lat="43.33369193100754" lon="3.277799633663531"><ele>20.5</ele><time>2026-03-17T15:03:19.001Z</time></trkpt><trkpt lat="43.33374429622326" lon="3.277976950679538"><ele>20.25</ele><time>2026-03-17T15:03:20.001Z</time></trkpt><trkpt lat="43.33379682488677" lon="3.2781487227009367"><ele>20.0</ele><time>2026-03-17T15:03:21.001Z</time></trkpt><trkpt lat="43.33384580671551" lon="3.2783131387278464"><ele>21.6</ele><time>2026-03-17T15:03:22.001Z</time></trkpt><trkpt lat="43.33389495233716" lon="3.278472419609437"><ele>23.2</ele><time>2026-03-17T15:03:23.001Z</time></trkpt><trkpt lat="43.33393958223123" lon="3.2786128689005407"><ele>24.799999999999997</ele><time>2026-03-17T15:03:24.001Z</time></trkpt><trkpt lat="43.33398250056071" lon="3.278736795511753"><ele>26.4</ele><time>2026-03-17T15:03:25.001Z</time></trkpt><trkpt lat="43.334022207282835" lon="3.278848987579309"><ele>28.0</ele><time>2026-03-17T15:03:26.001Z</time></trkpt><trkpt lat="43.33405811240294" lon="3.2789484706085865"><ele>28.333333333333336</ele><time>2026-03-17T15:03:27.001Z</time></trkpt><trkpt lat="43.334091509466454" lon="3.2790359072596313"><ele>28.666666666666668</ele><time>2026-03-17T15:03:28.001Z</time></trkpt><trkpt lat="43.33412013787087" lon="3.2791134443335976"><ele>29.0</ele><time>2026-03-17T15:03:29.001Z</time></trkpt><trkpt lat="43.33417392079376" lon="3.2792444310259983"><ele>29.333333333333336</ele><time>2026-03-17T15:03:31.001Z</time></trkpt><trkpt lat="43.334223153970015" lon="3.2793484136954807"><ele>29.666666666666668</ele><time>2026-03-17T15:03:33.001Z</time></trkpt><trkpt lat="43.33426765443115" lon="3.279439205001595"><ele>30.0</ele><time>2026-03-17T15:03:35.001Z</time></trkpt><trkpt lat="43.33430788377444" lon="3.2795187027020156"><ele>30.0</ele><time>2026-03-17T15:03:39.001Z</time></trkpt><trkpt lat="43.33435823998723" lon="3.2796036150005934"><ele>30.0</ele><time>2026-03-17T15:03:44.001Z</time></trkpt><trkpt lat="43.334409560574144" lon="3.2796896682656573"><ele>30.0</ele><time>2026-03-17T15:03:52.001Z</time></trkpt><trkpt lat="43.33445392125902" lon="3.279761253487701"><ele>30.0</ele><time>2026-03-17T15:03:55.001Z</time></trkpt><trkpt lat="43.334498516398554" lon="3.279837831209843"><ele>30.0</ele><time>2026-03-17T15:03:58.001Z</time></trkpt><trkpt lat="43.33455245475971" lon="3.279912078360102"><ele>30.0</ele><time>2026-03-17T15:04:05.002Z</time></trkpt><trkpt lat="43.33460334441459" lon="3.2799951265292937"><ele>30.166666666666668</ele><time>2026-03-17T15:04:08.002Z</time></trkpt><trkpt lat="43.33465282092968" lon="3.2800858248027747"><ele>30.333333333333336</ele><time>2026-03-17T15:04:10.002Z</time></trkpt><trkpt lat="43.33469544899636" lon="3.280189667289297"><ele>30.5</ele><time>2026-03-17T15:04:12.002Z</time></trkpt><trkpt lat="43.33470818049576" lon="3.280293369216886"><ele>30.666666666666668</ele><time>2026-03-17T15:04:13.002Z</time></trkpt><trkpt lat="43.33474265112613" lon="3.2804026607392287"><ele>30.833333333333336</ele><time>2026-03-17T15:04:14.002Z</time></trkpt><trkpt lat="43.33480216845789" lon="3.28048489855806"><ele>31.0</ele><time>2026-03-17T15:04:15.002Z</time></trkpt><trkpt lat="43.33483322109058" lon="3.2805983526448714"><ele>31.200000000000003</ele><time>2026-03-17T15:04:16.002Z</time></trkpt><trkpt lat="43.33485979935646" lon="3.280710101536622"><ele>31.400000000000002</ele><time>2026-03-17T15:04:17.002Z</time></trkpt><trkpt lat="43.3348632481568" lon="3.28083896324579"><ele>31.6</ele><time>2026-03-17T15:04:18.002Z</time></trkpt><trkpt lat="43.33485743825626" lon="3.280972549547398"><ele>31.8</ele><time>2026-03-17T15:04:19.002Z</time></trkpt><trkpt lat="43.33485834747529" lon="3.2811104943734715"><ele>32.0</ele><time>2026-03-17T15:04:20.002Z</time></trkpt><trkpt lat="43.33485696873402" lon="3.2812586477079786"><ele>32.0</ele><time>2026-03-17T15:04:21.002Z</time></trkpt><trkpt lat="43.334837084074486" lon="3.281415031104106"><ele>32.0</ele><time>2026-03-17T15:04:22.002Z</time></trkpt><trkpt lat="43.33480299341899" lon="3.2815770167735"><ele>32.0</ele><time>2026-03-17T15:04:23.002Z</time></trkpt><trkpt lat="43.33475300461781" lon="3.2817306840872096"><ele>32.0</ele><time>2026-03-17T15:04:24.002Z</time></trkpt><trkpt lat="43.334685123216644" lon="3.2818855177971393"><ele>32.33333333333333</ele><time>2026-03-17T15:04:25.002Z</time></trkpt><trkpt lat="43.33459670026106" lon="3.2820409025750226"><ele>32.666666666666664</ele><time>2026-03-17T15:04:26.002Z</time></trkpt><trkpt lat="43.33449610058306" lon="3.2822081661579494"><ele>33.0</ele><time>2026-03-17T15:04:27.002Z</time></trkpt><trkpt lat="43.334379824223326" lon="3.282398186083588"><ele>33.333333333333336</ele><time>2026-03-17T15:04:28.002Z</time></trkpt><trkpt lat="43.334269496744774" lon="3.2825923766031955"><ele>33.66666666666667</ele><time>2026-03-17T15:04:29.002Z</time></trkpt><trkpt lat="43.33415802463335" lon="3.2827889128657417"><ele>34.0</ele><time>2026-03-17T15:04:30.002Z</time></trkpt><trkpt lat="43.33404614445004" lon="3.282997360607119"><ele>34.0</ele><time>2026-03-17T15:04:31.002Z</time></trkpt><trkpt lat="43.33393948871654" lon="3.2832085501815285"><ele>34.0</ele><time>2026-03-17T15:04:32Z</time></trkpt><trkpt lat="43.33383685778942" lon="3.2834093706856478"><ele>34.0</ele><time>2026-03-17T15:04:33Z</time></trkpt><trkpt lat="43.33373129328518" lon="3.283602785295062"><ele>33.66666666666667</ele><time>2026-03-17T15:04:34Z</time></trkpt><trkpt lat="43.33362296341" lon="3.2838006506756505"><ele>33.333333333333336</ele><time>2026-03-17T15:04:35Z</time></trkpt><trkpt lat="43.33350708257577" lon="3.28401425902881"><ele>33.0</ele><time>2026-03-17T15:04:36Z</time></trkpt><trkpt lat="43.33338641429435" lon="3.2842364073134944"><ele>33.0</ele><time>2026-03-17T15:04:37Z</time></trkpt><trkpt lat="43.33326088030037" lon="3.284465057712739"><ele>33.0</ele><time>2026-03-17T15:04:38Z</time></trkpt><trkpt lat="43.33313422073719" lon="3.2846967181975315"><ele>33.0</ele><time>2026-03-17T15:04:39Z</time></trkpt><trkpt lat="43.33300870774383" lon="3.284929896123796"><ele>33.0</ele><time>2026-03-17T15:04:40Z</time></trkpt><trkpt lat="43.33288186365665" lon="3.2851584796780244"><ele>33.0</ele><time>2026-03-17T15:04:41Z</time></trkpt><trkpt lat="43.332755015775376" lon="3.285382810844547"><ele>33.0</ele><time>2026-03-17T15:04:42Z</time></trkpt><trkpt lat="43.33262469884318" lon="3.285605692179785"><ele>33.0</ele><time>2026-03-17T15:04:43Z</time></trkpt><trkpt lat="43.33248984770806" lon="3.28582600466176"><ele>33.0</ele><time>2026-03-17T15:04:44Z</time></trkpt><trkpt lat="43.332353526787735" lon="3.286041922065778"><ele>33.0</ele><time>2026-03-17T15:04:45Z</time></trkpt><trkpt lat="43.33221739879345" lon="3.286250548659431"><ele>32.333333333333336</ele><time>2026-03-17T15:04:46Z</time></trkpt><trkpt lat="43.33208288058261" lon="3.2864528286229855"><ele>31.666666666666668</ele><time>2026-03-17T15:04:47Z</time></trkpt><trkpt lat="43.331947318103424" lon="3.2866514136203513"><ele>31.0</ele><time>2026-03-17T15:04:48Z</time></trkpt><trkpt lat="43.33181092438561" lon="3.2868489434357384"><ele>31.0</ele><time>2026-03-17T15:04:49Z</time></trkpt><trkpt lat="43.33167219363166" lon="3.2870430021905523"><ele>31.0</ele><time>2026-03-17T15:04:50Z</time></trkpt><trkpt lat="43.33152871975929" lon="3.2872331584049017"><ele>31.0</ele><time>2026-03-17T15:04:51Z</time></trkpt><trkpt lat="43.331381417503124" lon="3.287418684298895"><ele>30.666666666666668</ele><time>2026-03-17T15:04:52Z</time></trkpt><trkpt lat="43.33122864355932" lon="3.2876022254173725"><ele>30.333333333333336</ele><time>2026-03-17T15:04:53Z</time></trkpt><trkpt lat="43.33106397475805" lon="3.2877845314156904"><ele>30.0</ele><time>2026-03-17T15:04:54Z</time></trkpt><trkpt lat="43.33089078638885" lon="3.287972703923551"><ele>28.5</ele><time>2026-03-17T15:04:55Z</time></trkpt><trkpt lat="43.330708333510344" lon="3.2881609389285464"><ele>27.0</ele><time>2026-03-17T15:04:56Z</time></trkpt><trkpt lat="43.33051734153918" lon="3.288344783760749"><ele>26.5</ele><time>2026-03-17T15:04:57Z</time></trkpt><trkpt lat="43.330320647808136" lon="3.2885243091699863"><ele>26.0</ele><time>2026-03-17T15:04:58Z</time></trkpt><trkpt lat="43.330116392800456" lon="3.2886970298299434"><ele>26.0</ele><time>2026-03-17T15:04:59Z</time></trkpt><trkpt lat="43.3299148736871" lon="3.2888571347595956"><ele>26.0</ele><time>2026-03-17T15:05:00Z</time></trkpt><trkpt lat="43.32971529964588" lon="3.2890083943921296"><ele>25.333333333333332</ele><time>2026-03-17T15:05:01Z</time></trkpt><trkpt lat="43.32952066902623" lon="3.2891522611286548"><ele>24.666666666666664</ele><time>2026-03-17T15:05:02Z</time></trkpt><trkpt lat="43.32932988685789" lon="3.2892887696356414"><ele>24.0</ele><time>2026-03-17T15:05:03Z</time></trkpt><trkpt lat="43.32914245308262" lon="3.2894232493856053"><ele>24.0</ele><time>2026-03-17T15:05:04Z</time></trkpt><trkpt lat="43.32895831283456" lon="3.2895535850090276"><ele>24.0</ele><time>2026-03-17T15:05:05.001Z</time></trkpt><trkpt lat="43.32877123316436" lon="3.2896798221146675"><ele>24.0</ele><time>2026-03-17T15:05:06.001Z</time></trkpt><trkpt lat="43.3285814201503" lon="3.289801314988651"><ele>23.0</ele><time>2026-03-17T15:05:07.001Z</time></trkpt><trkpt lat="43.328387242553056" lon="3.289917165257228"><ele>22.0</ele><time>2026-03-17T15:05:08.001Z</time></trkpt><trkpt lat="43.328190456826476" lon="3.290031111312135"><ele>21.0</ele><time>2026-03-17T15:05:09.001Z</time></trkpt><trkpt lat="43.32799102701112" lon="3.2901407846625235"><ele>20.333333333333332</ele><time>2026-03-17T15:05:10.001Z</time></trkpt><trkpt lat="43.32779059653735" lon="3.2902473240787766"><ele>19.666666666666664</ele><time>2026-03-17T15:05:11.001Z</time></trkpt><trkpt lat="43.32759021410151" lon="3.2903491957107307"><ele>19.0</ele><time>2026-03-17T15:05:12.001Z</time></trkpt><trkpt lat="43.32739089767703" lon="3.29044408046135"><ele>19.666666666666664</ele><time>2026-03-17T15:05:13.001Z</time></trkpt><trkpt lat="43.32719109715421" lon="3.2905363328715636"><ele>20.333333333333332</ele><time>2026-03-17T15:05:14.001Z</time></trkpt><trkpt lat="43.326992257171" lon="3.290625718396056"><ele>21.0</ele><time>2026-03-17T15:05:15.001Z</time></trkpt><trkpt lat="43.32679806108551" lon="3.290708886119684"><ele>20.0</ele><time>2026-03-17T15:05:16.001Z</time></trkpt><trkpt lat="43.326608019301084" lon="3.2907836261872627"><ele>19.0</ele><time>2026-03-17T15:05:17.001Z</time></trkpt><trkpt lat="43.32642321746922" lon="3.2908506354759015"><ele>18.0</ele><time>2026-03-17T15:05:18.001Z</time></trkpt><trkpt lat="43.32623964751485" lon="3.2909174702104496"><ele>18.0</ele><time>2026-03-17T15:05:19.001Z</time></trkpt><trkpt lat="43.326049089847494" lon="3.290982450784217"><ele>18.0</ele><time>2026-03-17T15:05:20.001Z</time></trkpt><trkpt lat="43.325858827643366" lon="3.29104538977836"><ele>18.0</ele><time>2026-03-17T15:05:21.001Z</time></trkpt><trkpt lat="43.3256689221197" lon="3.2911084450204853"><ele>16.666666666666668</ele><time>2026-03-17T15:05:22.001Z</time></trkpt><trkpt lat="43.32548017076247" lon="3.291171734894879"><ele>15.333333333333334</ele><time>2026-03-17T15:05:23.001Z</time></trkpt><trkpt lat="43.32530095330178" lon="3.2912281583133476"><ele>14.0</ele><time>2026-03-17T15:05:24.001Z</time></trkpt><trkpt lat="43.325126613276744" lon="3.2912807416507768"><ele>14.0</ele><time>2026-03-17T15:05:25.001Z</time></trkpt><trkpt lat="43.324959006474664" lon="3.2913302438434497"><ele>14.0</ele><time>2026-03-17T15:05:26.001Z</time></trkpt><trkpt lat="43.324800776664304" lon="3.2913755301590166"><ele>14.0</ele><time>2026-03-17T15:05:27.001Z</time></trkpt><trkpt lat="43.32465123281242" lon="3.2914166939823324"><ele>12.25</ele><time>2026-03-17T15:05:28.001Z</time></trkpt><trkpt lat="43.32451041222855" lon="3.291450823046824"><ele>10.5</ele><time>2026-03-17T15:05:29.001Z</time></trkpt><trkpt lat="43.32438109739758" lon="3.291484310409839"><ele>8.75</ele><time>2026-03-17T15:05:30.001Z</time></trkpt><trkpt lat="43.3242541262518" lon="3.2915156422759697"><ele>7.0</ele><time>2026-03-17T15:05:31.001Z</time></trkpt><trkpt lat="43.324127511167276" lon="3.29154619654562"><ele>7.0</ele><time>2026-03-17T15:05:32.001Z</time></trkpt><trkpt lat="43.324001023226735" lon="3.2915733154881943"><ele>7.0</ele><time>2026-03-17T15:05:33.001Z</time></trkpt><trkpt lat="43.3238753011469" lon="3.2916005056994893"><ele>7.0</ele><time>2026-03-17T15:05:34.001Z</time></trkpt><trkpt lat="43.32375037333188" lon="3.2916295228634005"><ele>7.0</ele><time>2026-03-17T15:05:35.001Z</time></trkpt><trkpt lat="43.32363267578345" lon="3.2916571710531857"><ele>7.25</ele><time>2026-03-17T15:05:36.001Z</time></trkpt><trkpt lat="43.32351845875294" lon="3.2916847688042687"><ele>7.5</ele><time>2026-03-17T15:05:37.001Z</time></trkpt><trkpt lat="43.32340726447734" lon="3.2917123224124394"><ele>7.75</ele><time>2026-03-17T15:05:38.001Z</time></trkpt><trkpt lat="43.32329696094378" lon="3.2917399376141656"><ele>8.0</ele><time>2026-03-17T15:05:39.001Z</time></trkpt><trkpt lat="43.323188878843666" lon="3.2917682494308513"><ele>8.0</ele><time>2026-03-17T15:05:40.001Z</time></trkpt><trkpt lat="43.32307810762114" lon="3.29179363442787"><ele>8.0</ele><time>2026-03-17T15:05:41.001Z</time></trkpt><trkpt lat="43.32296282709559" lon="3.2918202135902224"><ele>8.0</ele><time>2026-03-17T15:05:42.001Z</time></trkpt><trkpt lat="43.32285012643344" lon="3.2918451434072975"><ele>8.0</ele><time>2026-03-17T15:05:43.001Z</time></trkpt><trkpt lat="43.322748243250935" lon="3.29186817532273"><ele>8.0</ele><time>2026-03-17T15:05:44.001Z</time></trkpt><trkpt lat="43.322673332197" lon="3.2918871263783385"><ele>7.833333333333333</ele><time>2026-03-17T15:05:45.001Z</time></trkpt><trkpt lat="43.32256856761149" lon="3.29190993143684"><ele>7.666666666666666</ele><time>2026-03-17T15:05:47.001Z</time></trkpt><trkpt lat="43.322485967279476" lon="3.291928130182059"><ele>7.5</ele><time>2026-03-17T15:05:49.001Z</time></trkpt><trkpt lat="43.322401073965956" lon="3.291941732725681"><ele>7.333333333333334</ele><time>2026-03-17T15:05:52.001Z</time></trkpt><trkpt lat="43.32232655422574" lon="3.2919623057033838"><ele>7.166666666666667</ele><time>2026-03-17T15:05:54.001Z</time></trkpt><trkpt lat="43.32226452780808" lon="3.291981749550239"><ele>7.0</ele><time>2026-03-17T15:05:56.001Z</time></trkpt><trkpt lat="43.322198989438014" lon="3.2919924607957936"><ele>6.333333333333334</ele><time>2026-03-17T15:05:59.001Z</time></trkpt><trkpt lat="43.32210513132172" lon="3.2920155200431505"><ele>5.666666666666667</ele><time>2026-03-17T15:06:05.002Z</time></trkpt><trkpt lat="43.322034773369694" lon="3.292038928902692"><ele>5.0</ele><time>2026-03-17T15:06:08.002Z</time></trkpt><trkpt lat="43.321959872051664" lon="3.2920677471126853"><ele>4.333333333333334</ele><time>2026-03-17T15:06:11.002Z</time></trkpt><trkpt lat="43.32189451652684" lon="3.2920894213705565"><ele>3.666666666666667</ele><time>2026-03-17T15:06:14.002Z</time></trkpt><trkpt lat="43.321816159223104" lon="3.2921090456379956"><ele>3.0</ele><time>2026-03-17T15:06:17.002Z</time></trkpt><trkpt lat="43.321752672700896" lon="3.292126309172809"><ele>3.0</ele><time>2026-03-17T15:06:20.002Z</time></trkpt><trkpt lat="43.321683406129054" lon="3.2921542675591793"><ele>3.0</ele><time>2026-03-17T15:06:22.002Z</time></trkpt><trkpt lat="43.32161820921265" lon="3.292186891954484"><ele>3.0</ele><time>2026-03-17T15:06:24.002Z</time></trkpt><trkpt lat="43.321521355847246" lon="3.292184703249718"><ele>3.0</ele><time>2026-03-17T15:06:26.002Z</time></trkpt><trkpt lat="43.32144807487389" lon="3.292152805221323"><ele>3.0</ele><time>2026-03-17T15:06:28.002Z</time></trkpt><trkpt lat="43.32138703934535" lon="3.2920773957937173"><ele>3.0</ele><time>2026-03-17T15:06:30.002Z</time></trkpt><trkpt lat="43.321346919992834" lon="3.2919918554913026"><ele>3.666666666666667</ele><time>2026-03-17T15:06:31.002Z</time></trkpt><trkpt lat="43.321282741930126" lon="3.291899033829986"><ele>4.333333333333334</ele><time>2026-03-17T15:06:32.002Z</time></trkpt><trkpt lat="43.32122671367806" lon="3.2918313638887158"><ele>5.0</ele><time>2026-03-17T15:06:33.002Z</time></trkpt><trkpt lat="43.321173413913236" lon="3.291768926128997"><ele>5.666666666666667</ele><time>2026-03-17T15:06:34.002Z</time></trkpt><trkpt lat="43.32113075719726" lon="3.291690469981091"><ele>6.333333333333334</ele><time>2026-03-17T15:06:35.002Z</time></trkpt><trkpt lat="43.321104440813215" lon="3.291575883576863"><ele>7.0</ele><time>2026-03-17T15:06:36.002Z</time></trkpt><trkpt lat="43.32109846841909" lon="3.2914360290163667"><ele>6.25</ele><time>2026-03-17T15:06:37.002Z</time></trkpt><trkpt lat="43.32109790978176" lon="3.2912970943456825"><ele>5.5</ele><time>2026-03-17T15:06:38.001Z</time></trkpt><trkpt lat="43.32109456609516" lon="3.291147292536346"><ele>4.75</ele><time>2026-03-17T15:06:39.001Z</time></trkpt><trkpt lat="43.32108550390158" lon="3.2909838636978224"><ele>4.0</ele><time>2026-03-17T15:06:40.001Z</time></trkpt><trkpt lat="43.32108059161152" lon="3.2908068571556264"><ele>4.0</ele><time>2026-03-17T15:06:41.001Z</time></trkpt><trkpt lat="43.32107517356069" lon="3.29062440839907"><ele>4.0</ele><time>2026-03-17T15:06:42.001Z</time></trkpt><trkpt lat="43.321071038825515" lon="3.290442387479467"><ele>4.0</ele><time>2026-03-17T15:06:43.001Z</time></trkpt><trkpt lat="43.3210677230548" lon="3.290250752099676"><ele>4.0</ele><time>2026-03-17T15:06:44.001Z</time></trkpt><trkpt lat="43.32106212145525" lon="3.290054674691138"><ele>4.25</ele><time>2026-03-17T15:06:45Z</time></trkpt><trkpt lat="43.32105665699925" lon="3.2898491095558438"><ele>4.5</ele><time>2026-03-17T15:06:46.001Z</time></trkpt><trkpt lat="43.321049644649435" lon="3.2896428497339008"><ele>4.75</ele><time>2026-03-17T15:06:47Z</time></trkpt><trkpt lat="43.32104080194158" lon="3.2894512440215866"><ele>5.0</ele><time>2026-03-17T15:06:48Z</time></trkpt><trkpt lat="43.32103662360763" lon="3.2892784553502614"><ele>5.4</ele><time>2026-03-17T15:06:49Z</time></trkpt><trkpt lat="43.32102966389592" lon="3.2891210818119214"><ele>5.8</ele><time>2026-03-17T15:06:50Z</time></trkpt><trkpt lat="43.32102447842142" lon="3.2889788278680028"><ele>6.199999999999999</ele><time>2026-03-17T15:06:51Z</time></trkpt><trkpt lat="43.321021631746056" lon="3.2888433682880525"><ele>6.6</ele><time>2026-03-17T15:06:52Z</time></trkpt><trkpt lat="43.3210169685817" lon="3.2887081589322964"><ele>7.0</ele><time>2026-03-17T15:06:53Z</time></trkpt><trkpt lat="43.32101052135989" lon="3.288578128471335"><ele>7.166666666666667</ele><time>2026-03-17T15:06:54Z</time></trkpt><trkpt lat="43.32101036534981" lon="3.2884541234477527"><ele>7.333333333333334</ele><time>2026-03-17T15:06:55Z</time></trkpt><trkpt lat="43.32101548716327" lon="3.288347601709528"><ele>7.5</ele><time>2026-03-17T15:06:56Z</time></trkpt><trkpt lat="43.3210280637065" lon="3.2882588218001465"><ele>7.666666666666666</ele><time>2026-03-17T15:06:57Z</time></trkpt><trkpt lat="43.32105687597633" lon="3.288173379907459"><ele>7.833333333333333</ele><time>2026-03-17T15:06:58Z</time></trkpt><trkpt lat="43.32110714757696" lon="3.288085186981638"><ele>8.0</ele><time>2026-03-17T15:06:59Z</time></trkpt><trkpt lat="43.321171527191105" lon="3.2880036172129263"><ele>8.200000000000001</ele><time>2026-03-17T15:07:00Z</time></trkpt><trkpt lat="43.32121997171158" lon="3.2879237480581374"><ele>8.4</ele><time>2026-03-17T15:07:01.001Z</time></trkpt><trkpt lat="43.32132301131324" lon="3.28793948760235"><ele>8.600000000000001</ele><time>2026-03-17T15:07:02.001Z</time></trkpt><trkpt lat="43.32140584107016" lon="3.287936319194962"><ele>8.8</ele><time>2026-03-17T15:07:03.001Z</time></trkpt><trkpt lat="43.321486639174665" lon="3.2879997425875387"><ele>9.0</ele><time>2026-03-17T15:07:04.001Z</time></trkpt><trkpt lat="43.321535709287375" lon="3.288113489750906"><ele>8.6</ele><time>2026-03-17T15:07:05.001Z</time></trkpt><trkpt lat="43.32157674111078" lon="3.288230969280849"><ele>8.2</ele><time>2026-03-17T15:07:06.001Z</time></trkpt><trkpt lat="43.321607413363175" lon="3.2883794301326263"><ele>7.799999999999999</ele><time>2026-03-17T15:07:07.001Z</time></trkpt><trkpt lat="43.32164346077226" lon="3.2885380278791967"><ele>7.3999999999999995</ele><time>2026-03-17T15:07:08.001Z</time></trkpt><trkpt lat="43.32168554151357" lon="3.288693286430865"><ele>7.0</ele><time>2026-03-17T15:07:09.001Z</time></trkpt><trkpt lat="43.321721695428394" lon="3.288825967359353"><ele>6.6</ele><time>2026-03-17T15:07:10.001Z</time></trkpt><trkpt lat="43.321765160945475" lon="3.288985917084285"><ele>6.199999999999999</ele><time>2026-03-17T15:07:12.001Z</time></trkpt><trkpt lat="43.321794692857274" lon="3.2890883232734702"><ele>5.8</ele><time>2026-03-17T15:07:13.001Z</time></trkpt><trkpt lat="43.32182734207281" lon="3.2892064090531914"><ele>5.4</ele><time>2026-03-17T15:07:14.001Z</time></trkpt><trkpt lat="43.321882001270794" lon="3.2893275549657948"><ele>5.0</ele><time>2026-03-17T15:07:15.001Z</time></trkpt><trkpt lat="43.321922042262464" lon="3.2894693346036625"><ele>5.0</ele><time>2026-03-17T15:07:16.001Z</time></trkpt><trkpt lat="43.32195835713905" lon="3.2895988677115606"><ele>5.0</ele><time>2026-03-17T15:07:17.001Z</time></trkpt><trkpt lat="43.32197360443043" lon="3.289718439784634"><ele>5.0</ele><time>2026-03-17T15:07:18.001Z</time></trkpt><trkpt lat="43.32198823001595" lon="3.289813817225938"><ele>5.0</ele><time>2026-03-17T15:07:19.001Z</time></trkpt><trkpt lat="43.322008298559986" lon="3.2899121595716467"><ele>5.0</ele><time>2026-03-17T15:07:20.001Z</time></trkpt><trkpt lat="43.321995874391675" lon="3.2900128329953557"><ele>5.0</ele><time>2026-03-17T15:07:21.001Z</time></trkpt><trkpt lat="43.3220240668328" lon="3.2900973166390868"><ele>4.833333333333334</ele><time>2026-03-17T15:07:22.001Z</time></trkpt><trkpt lat="43.32207043600144" lon="3.290161912497051"><ele>4.666666666666667</ele><time>2026-03-17T15:07:23.001Z</time></trkpt><trkpt lat="43.32218385027362" lon="3.2901681118653543"><ele>4.5</ele><time>2026-03-17T15:07:25.001Z</time></trkpt><trkpt lat="43.322236833795046" lon="3.2901211180651004"><ele>4.333333333333333</ele><time>2026-03-17T15:07:26.001Z</time></trkpt><trkpt lat="43.32230824729484" lon="3.2899892066579284"><ele>4.166666666666666</ele><time>2026-03-17T15:07:28.001Z</time></trkpt><trkpt lat="43.32230316913734" lon="3.2899028131446935"><ele>4.0</ele><time>2026-03-17T15:07:29.001Z</time></trkpt><trkpt lat="43.32245398598243" lon="3.2898305515092034"><ele>4.0</ele><time>2026-03-17T15:07:31.001Z</time></trkpt><trkpt lat="43.32257271750319" lon="3.2897766692225394"><ele>4.0</ele><time>2026-03-17T15:07:33.001Z</time></trkpt><trkpt lat="43.32263733437229" lon="3.289739553892794"><ele>4.0</ele><time>2026-03-17T15:07:34.001Z</time></trkpt><trkpt lat="43.322699414723665" lon="3.2896977742587903"><ele>4.0</ele><time>2026-03-17T15:07:35.001Z</time></trkpt><trkpt lat="43.322814580485954" lon="3.2896212857647216"><ele>4.0</ele><time>2026-03-17T15:07:37.001Z</time></trkpt><trkpt lat="43.3228793696682" lon="3.2895916989086063"><ele>4.166666666666666</ele><time>2026-03-17T15:07:38.001Z</time></trkpt><trkpt lat="43.32294687395868" lon="3.2895586827647003"><ele>4.333333333333333</ele><time>2026-03-17T15:07:39.001Z</time></trkpt><trkpt lat="43.32301737154331" lon="3.289522918070198"><ele>4.5</ele><time>2026-03-17T15:07:40.001Z</time></trkpt><trkpt lat="43.3230905181166" lon="3.2894795356003255"><ele>4.666666666666667</ele><time>2026-03-17T15:07:41.001Z</time></trkpt><trkpt lat="43.3231653642082" lon="3.2894372691127494"><ele>4.833333333333334</ele><time>2026-03-17T15:07:42.001Z</time></trkpt><trkpt lat="43.32324141188972" lon="3.2893986325410447"><ele>5.0</ele><time>2026-03-17T15:07:43.001Z</time></trkpt><trkpt lat="43.32331357681169" lon="3.2893594553440186"><ele>5.0</ele><time>2026-03-17T15:07:44.001Z</time></trkpt><trkpt lat="43.323384179546615" lon="3.2893207233775756"><ele>5.0</ele><time>2026-03-17T15:07:45.001Z</time></trkpt><trkpt lat="43.323445697965596" lon="3.289293434430787"><ele>5.0</ele><time>2026-03-17T15:07:46.001Z</time></trkpt><trkpt lat="43.32351205070892" lon="3.2892426886333936"><ele>5.0</ele><time>2026-03-17T15:07:48.001Z</time></trkpt><trkpt lat="43.32341890748958" lon="3.2890714960185434"><ele>5.0</ele><time>2026-03-17T15:07:54.001Z</time></trkpt><trkpt lat="43.32331492852024" lon="3.28916116182895"><ele>5.0</ele><time>2026-03-17T15:07:56.001Z</time></trkpt><trkpt lat="43.323205122093576" lon="3.289197684404429"><ele>5.0</ele><time>2026-03-17T15:07:58.001Z</time></trkpt><trkpt lat="43.32312087196941" lon="3.2892414635192453"><ele>5.0</ele><time>2026-03-17T15:08:00.001Z</time></trkpt><trkpt lat="43.32304164892726" lon="3.289283728381933"><ele>5.0</ele><time>2026-03-17T15:08:02.001Z</time></trkpt><trkpt lat="43.32298566142746" lon="3.2893325541993144"><ele>5.0</ele><time>2026-03-17T15:08:04.001Z</time></trkpt><trkpt lat="43.32291012175633" lon="3.2893552959957844"><ele>5.0</ele><time>2026-03-17T15:10:22.001Z</time></trkpt><trkpt lat="43.322935618173965" lon="3.289239297850243"><ele>5.0</ele><time>2026-03-17T15:11:48.001Z</time></trkpt><trkpt lat="43.32288038514109" lon="3.2893337109939327"><ele>5.0</ele><time>2026-03-17T15:13:36Z</time></trkpt><trkpt lat="43.32280190235603" lon="3.289381058802961"><ele>5.0</ele><time>2026-03-17T15:13:38Z</time></trkpt><trkpt lat="43.3227300166375" lon="3.289412253894652"><ele>5.0</ele><time>2026-03-17T15:13:40Z</time></trkpt><trkpt lat="43.32264182744494" lon="3.28944657889296"><ele>5.0</ele><time>2026-03-17T15:13:42.001Z</time></trkpt><trkpt lat="43.32256455758985" lon="3.289486909162268"><ele>5.0</ele><time>2026-03-17T15:13:44.001Z</time></trkpt><trkpt lat="43.32251913678358" lon="3.28957882646669"><ele>5.0</ele><time>2026-03-17T15:13:48.001Z</time></trkpt><trkpt lat="43.32250897162002" lon="3.28967771924388"><ele>5.0</ele><time>2026-03-17T15:13:53.001Z</time></trkpt><trkpt lat="43.32244288146105" lon="3.2897513608485474"><ele>5.0</ele><time>2026-03-17T15:13:55.001Z</time></trkpt><trkpt lat="43.3223268328533" lon="3.2897766814942186"><ele>5.0</ele><time>2026-03-17T15:13:57.001Z</time></trkpt><trkpt lat="43.32224240515018" lon="3.2897754575334583"><ele>5.0</ele><time>2026-03-17T15:13:59.001Z</time></trkpt><trkpt lat="43.32216751335083" lon="3.2897516318412436"><ele>5.0</ele><time>2026-03-17T15:14:01.001Z</time></trkpt><trkpt lat="43.32207919102602" lon="3.2897041516181127"><ele>5.0</ele><time>2026-03-17T15:14:03.001Z</time></trkpt><trkpt lat="43.322071490201274" lon="3.28958434553807"><ele>5.0</ele><time>2026-03-17T15:14:04.001Z</time></trkpt><trkpt lat="43.32203290429775" lon="3.289455638999053"><ele>5.0</ele><time>2026-03-17T15:14:06.001Z</time></trkpt><trkpt lat="43.32198029775588" lon="3.289298142418456"><ele>5.0</ele><time>2026-03-17T15:14:08.001Z</time></trkpt><trkpt lat="43.32195411247653" lon="3.2892109209804725"><ele>5.0</ele><time>2026-03-17T15:14:09.001Z</time></trkpt><trkpt lat="43.3219312725972" lon="3.28912789576766"><ele>5.0</ele><time>2026-03-17T15:14:10.001Z</time></trkpt><trkpt lat="43.321886555346836" lon="3.2889742576463377"><ele>5.4</ele><time>2026-03-17T15:14:12.001Z</time></trkpt><trkpt lat="43.32185189920082" lon="3.2888580825284683"><ele>5.8</ele><time>2026-03-17T15:14:14.001Z</time></trkpt><trkpt lat="43.32181230644837" lon="3.2887137671108784"><ele>6.199999999999999</ele><time>2026-03-17T15:14:16.001Z</time></trkpt><trkpt lat="43.32178941526266" lon="3.2886203549382054"><ele>6.6</ele><time>2026-03-17T15:14:17.001Z</time></trkpt><trkpt lat="43.321766014116" lon="3.288534265316844"><ele>7.0</ele><time>2026-03-17T15:14:18.001Z</time></trkpt><trkpt lat="43.32172221695783" lon="3.288380031988471"><ele>7.0</ele><time>2026-03-17T15:14:20.001Z</time></trkpt><trkpt lat="43.321681147732086" lon="3.2882367150997815"><ele>6.999999999999999</ele><time>2026-03-17T15:14:22.001Z</time></trkpt><trkpt lat="43.32164156101202" lon="3.2881078190495527"><ele>6.999999999999999</ele><time>2026-03-17T15:14:24.001Z</time></trkpt><trkpt lat="43.32159710236234" lon="3.288000651780678"><ele>7.0</ele><time>2026-03-17T15:14:26.001Z</time></trkpt><trkpt lat="43.321549776975765" lon="3.2879092073856877"><ele>7.0</ele><time>2026-03-17T15:14:28.001Z</time></trkpt><trkpt lat="43.3214890412352" lon="3.2878458156500825"><ele>7.000000000000001</ele><time>2026-03-17T15:14:30.001Z</time></trkpt><trkpt lat="43.32141450073094" lon="3.28780825934834"><ele>7.0</ele><time>2026-03-17T15:14:32.002Z</time></trkpt><trkpt lat="43.321334330727815" lon="3.287785393443916"><ele>7.0</ele><time>2026-03-17T15:14:34.002Z</time></trkpt><trkpt lat="43.321230322420064" lon="3.287759468409009"><ele>7.0</ele><time>2026-03-17T15:14:36.002Z</time></trkpt><trkpt lat="43.321168909042434" lon="3.2877398339915067"><ele>7.000000000000001</ele><time>2026-03-17T15:14:37.002Z</time></trkpt><trkpt lat="43.32110767999102" lon="3.2876965431535576"><ele>7.0</ele><time>2026-03-17T15:14:38.002Z</time></trkpt><trkpt lat="43.3210450631673" lon="3.287650394068258"><ele>7.333333333333334</ele><time>2026-03-17T15:14:39.002Z</time></trkpt><trkpt lat="43.32098174457983" lon="3.287634803390733"><ele>7.666666666666667</ele><time>2026-03-17T15:14:40.002Z</time></trkpt><trkpt lat="43.32091602344125" lon="3.287652916462842"><ele>8.0</ele><time>2026-03-17T15:14:41.002Z</time></trkpt><trkpt lat="43.32085789917582" lon="3.287699016502067"><ele>8.333333333333334</ele><time>2026-03-17T15:14:42.002Z</time></trkpt><trkpt lat="43.32081438299609" lon="3.2877644356628877"><ele>8.666666666666666</ele><time>2026-03-17T15:14:43.002Z</time></trkpt><trkpt lat="43.320791076813116" lon="3.28792982388466"><ele>9.0</ele><time>2026-03-17T15:14:45.002Z</time></trkpt><trkpt lat="43.32083376313234" lon="3.2880742378258287"><ele>8.833333333333334</ele><time>2026-03-17T15:14:47.002Z</time></trkpt><trkpt lat="43.32091332938743" lon="3.288168636995905"><ele>8.666666666666666</ele><time>2026-03-17T15:14:49.002Z</time></trkpt><trkpt lat="43.32092460149461" lon="3.2882661332252234"><ele>8.5</ele><time>2026-03-17T15:14:50.002Z</time></trkpt><trkpt lat="43.32094449017236" lon="3.2883514252672854"><ele>8.333333333333332</ele><time>2026-03-17T15:14:51.002Z</time></trkpt><trkpt lat="43.32095076388252" lon="3.288453986562111"><ele>8.166666666666666</ele><time>2026-03-17T15:14:52.002Z</time></trkpt><trkpt lat="43.32099480779851" lon="3.288553057956939"><ele>8.0</ele><time>2026-03-17T15:14:53.002Z</time></trkpt><trkpt lat="43.32096939446255" lon="3.288694532575329"><ele>7.999999999999999</ele><time>2026-03-17T15:14:54.002Z</time></trkpt><trkpt lat="43.320978765856104" lon="3.2888256272689036"><ele>8.0</ele><time>2026-03-17T15:14:55.002Z</time></trkpt><trkpt lat="43.320985903222784" lon="3.288944899462205"><ele>8.0</ele><time>2026-03-17T15:14:56.002Z</time></trkpt><trkpt lat="43.320990256002005" lon="3.2890624922381884"><ele>8.0</ele><time>2026-03-17T15:14:57.002Z</time></trkpt><trkpt lat="43.32099455433938" lon="3.2891792515321088"><ele>7.999999999999999</ele><time>2026-03-17T15:14:58.002Z</time></trkpt><trkpt lat="43.32099937693189" lon="3.2892984107418695"><ele>8.0</ele><time>2026-03-17T15:14:59.002Z</time></trkpt><trkpt lat="43.32100374301411" lon="3.2894207062098335"><ele>7.800000000000001</ele><time>2026-03-17T15:15:00.002Z</time></trkpt><trkpt lat="43.32100776070564" lon="3.2895427112805034"><ele>7.6000000000000005</ele><time>2026-03-17T15:15:01.002Z</time></trkpt><trkpt lat="43.321012646951395" lon="3.2896545850868297"><ele>7.3999999999999995</ele><time>2026-03-17T15:15:02.001Z</time></trkpt><trkpt lat="43.32101703033165" lon="3.2897453004844737"><ele>7.199999999999999</ele><time>2026-03-17T15:15:03.001Z</time></trkpt><trkpt lat="43.321023508459135" lon="3.2898964311180303"><ele>7.0</ele><time>2026-03-17T15:15:05.001Z</time></trkpt><trkpt lat="43.32102983610506" lon="3.290042554612915"><ele>6.714285714285714</ele><time>2026-03-17T15:15:07.001Z</time></trkpt><trkpt lat="43.32103202726665" lon="3.290133176742963"><ele>6.428571428571429</ele><time>2026-03-17T15:15:08.001Z</time></trkpt><trkpt lat="43.32103531067199" lon="3.290233819797043"><ele>6.142857142857142</ele><time>2026-03-17T15:15:09.001Z</time></trkpt><trkpt lat="43.32103938198629" lon="3.2903402891251425"><ele>5.857142857142858</ele><time>2026-03-17T15:15:10.001Z</time></trkpt><trkpt lat="43.321039996316344" lon="3.2904365722345017"><ele>5.571428571428571</ele><time>2026-03-17T15:15:11.001Z</time></trkpt><trkpt lat="43.321037840206365" lon="3.2905278965638756"><ele>5.285714285714286</ele><time>2026-03-17T15:15:12.001Z</time></trkpt><trkpt lat="43.32103670582975" lon="3.2906150587560505"><ele>5.0</ele><time>2026-03-17T15:15:13.001Z</time></trkpt><trkpt lat="43.321032644134114" lon="3.290780570438441"><ele>4.833333333333334</ele><time>2026-03-17T15:15:15.001Z</time></trkpt><trkpt lat="43.32102351780063" lon="3.290949824800844"><ele>4.666666666666667</ele><time>2026-03-17T15:15:17.001Z</time></trkpt><trkpt lat="43.32101964098065" lon="3.291039173188966"><ele>4.5</ele><time>2026-03-17T15:15:18.001Z</time></trkpt><trkpt lat="43.32101497701165" lon="3.2911286300069533"><ele>4.333333333333333</ele><time>2026-03-17T15:15:19.001Z</time></trkpt><trkpt lat="43.321006142013104" lon="3.291219498528714"><ele>4.166666666666666</ele><time>2026-03-17T15:15:20.001Z</time></trkpt><trkpt lat="43.32099538985025" lon="3.2913063487427117"><ele>4.0</ele><time>2026-03-17T15:15:21.001Z</time></trkpt><trkpt lat="43.32096900511188" lon="3.291466386654759"><ele>4.5</ele><time>2026-03-17T15:15:23.001Z</time></trkpt><trkpt lat="43.32092810279529" lon="3.291550874037739"><ele>5.0</ele><time>2026-03-17T15:15:26.001Z</time></trkpt><trkpt lat="43.320890430645356" lon="3.291630152998246"><ele>5.5</ele><time>2026-03-17T15:15:31.001Z</time></trkpt><trkpt lat="43.32083224297441" lon="3.2916785445333105"><ele>6.0</ele><time>2026-03-17T15:15:32.001Z</time></trkpt><trkpt lat="43.32074013858723" lon="3.291672689270281"><ele>6.500000000000001</ele><time>2026-03-17T15:15:33.001Z</time></trkpt><trkpt lat="43.32065735571292" lon="3.291707822669875"><ele>7.0</ele><time>2026-03-17T15:15:34.001Z</time></trkpt><trkpt lat="43.320583514993984" lon="3.291755126267667"><ele>6.6</ele><time>2026-03-17T15:15:35.001Z</time></trkpt><trkpt lat="43.32050993529466" lon="3.291825092375218"><ele>6.199999999999999</ele><time>2026-03-17T15:15:36.001Z</time></trkpt><trkpt lat="43.32043310139268" lon="3.2919061089568933"><ele>5.8</ele><time>2026-03-17T15:15:37.001Z</time></trkpt><trkpt lat="43.32036215751902" lon="3.2919999388588224"><ele>5.4</ele><time>2026-03-17T15:15:38.001Z</time></trkpt><trkpt lat="43.32029962217124" lon="3.292109612165057"><ele>5.0</ele><time>2026-03-17T15:15:39.001Z</time></trkpt><trkpt lat="43.32023749329624" lon="3.2922426009302037"><ele>5.75</ele><time>2026-03-17T15:15:40.001Z</time></trkpt><trkpt lat="43.3201761787723" lon="3.292390470843872"><ele>6.5</ele><time>2026-03-17T15:15:41.001Z</time></trkpt><trkpt lat="43.320121981365254" lon="3.292540403941991"><ele>7.25</ele><time>2026-03-17T15:15:42.001Z</time></trkpt><trkpt lat="43.32008116390465" lon="3.292697250036994"><ele>8.0</ele><time>2026-03-17T15:15:43.001Z</time></trkpt><trkpt lat="43.32005021435571" lon="3.2928615144688003"><ele>8.0</ele><time>2026-03-17T15:15:44.001Z</time></trkpt><trkpt lat="43.320032176359774" lon="3.293026166440347"><ele>8.0</ele><time>2026-03-17T15:15:45.001Z</time></trkpt><trkpt lat="43.32003471068476" lon="3.293181117295044"><ele>8.0</ele><time>2026-03-17T15:15:46.001Z</time></trkpt><trkpt lat="43.320055764515054" lon="3.2933290925067453"><ele>8.0</ele><time>2026-03-17T15:15:47.001Z</time></trkpt><trkpt lat="43.32009623739989" lon="3.2934728621033322"><ele>8.0</ele><time>2026-03-17T15:15:48.001Z</time></trkpt><trkpt lat="43.32015408783559" lon="3.2936022966254113"><ele>8.0</ele><time>2026-03-17T15:15:49.001Z</time></trkpt><trkpt lat="43.320226835642885" lon="3.293710419761394"><ele>8.0</ele><time>2026-03-17T15:15:50.001Z</time></trkpt><trkpt lat="43.320309885684615" lon="3.293789266718341"><ele>8.0</ele><time>2026-03-17T15:15:51.001Z</time></trkpt><trkpt lat="43.320398846527794" lon="3.2938472498958573"><ele>8.0</ele><time>2026-03-17T15:15:52.001Z</time></trkpt><trkpt lat="43.320501089451625" lon="3.2938907723484556"><ele>8.4</ele><time>2026-03-17T15:15:53.001Z</time></trkpt><trkpt lat="43.32060455280451" lon="3.293908420660615"><ele>8.8</ele><time>2026-03-17T15:15:54.001Z</time></trkpt><trkpt lat="43.32070621098742" lon="3.2939059001415245"><ele>9.2</ele><time>2026-03-17T15:15:55.001Z</time></trkpt><trkpt lat="43.320800030516615" lon="3.293888987549035"><ele>9.6</ele><time>2026-03-17T15:15:56.001Z</time></trkpt><trkpt lat="43.32089051465458" lon="3.2938540437251502"><ele>10.0</ele><time>2026-03-17T15:15:57.001Z</time></trkpt><trkpt lat="43.320970562912144" lon="3.293790120223675"><ele>10.0</ele><time>2026-03-17T15:15:58.001Z</time></trkpt><trkpt lat="43.321048499615934" lon="3.2937039000621082"><ele>10.0</ele><time>2026-03-17T15:15:59.001Z</time></trkpt><trkpt lat="43.32112482162458" lon="3.2936008491028153"><ele>10.0</ele><time>2026-03-17T15:16:00.001Z</time></trkpt><trkpt lat="43.32120703946687" lon="3.293491656524247"><ele>10.0</ele><time>2026-03-17T15:16:01.001Z</time></trkpt><trkpt lat="43.32130117287593" lon="3.293386786326025"><ele>10.0</ele><time>2026-03-17T15:16:02.001Z</time></trkpt><trkpt lat="43.32140925861926" lon="3.293282391952215"><ele>9.333333333333334</ele><time>2026-03-17T15:16:03.001Z</time></trkpt><trkpt lat="43.321524619643924" lon="3.293175232209671"><ele>8.666666666666666</ele><time>2026-03-17T15:16:04.001Z</time></trkpt><trkpt lat="43.321654530784485" lon="3.2930648617557594"><ele>8.0</ele><time>2026-03-17T15:16:05.001Z</time></trkpt><trkpt lat="43.32179856454103" lon="3.292947992160977"><ele>7.333333333333333</ele><time>2026-03-17T15:16:06.001Z</time></trkpt><trkpt lat="43.32195684933774" lon="3.2928198021222492"><ele>6.666666666666666</ele><time>2026-03-17T15:16:07.001Z</time></trkpt><trkpt lat="43.32211072446997" lon="3.2926943741124224"><ele>6.0</ele><time>2026-03-17T15:16:08.001Z</time></trkpt><trkpt lat="43.322281160565275" lon="3.292555694872101"><ele>6.0</ele><time>2026-03-17T15:16:09.001Z</time></trkpt><trkpt lat="43.32247038183383" lon="3.2924155989657957"><ele>6.0</ele><time>2026-03-17T15:16:10.001Z</time></trkpt><trkpt lat="43.32267535678474" lon="3.2922853493159674"><ele>6.0</ele><time>2026-03-17T15:16:11.001Z</time></trkpt><trkpt lat="43.322882751558886" lon="3.2921704540470786"><ele>7.0</ele><time>2026-03-17T15:16:12.001Z</time></trkpt><trkpt lat="43.323096187041386" lon="3.292059748819141"><ele>8.0</ele><time>2026-03-17T15:16:13.001Z</time></trkpt><trkpt lat="43.32331216762268" lon="3.2919546302143017"><ele>8.0</ele><time>2026-03-17T15:16:14.001Z</time></trkpt><trkpt lat="43.32353272430971" lon="3.291863108020896"><ele>8.0</ele><time>2026-03-17T15:16:15.001Z</time></trkpt><trkpt lat="43.32375641481101" lon="3.291787382486363"><ele>7.5</ele><time>2026-03-17T15:16:16.001Z</time></trkpt><trkpt lat="43.32398356780596" lon="3.2917180946759874"><ele>7.0</ele><time>2026-03-17T15:16:17.001Z</time></trkpt><trkpt lat="43.32421360352461" lon="3.2916528902884585"><ele>7.0</ele><time>2026-03-17T15:16:18.001Z</time></trkpt><trkpt lat="43.32444132894053" lon="3.2915849083803397"><ele>7.0</ele><time>2026-03-17T15:16:19.001Z</time></trkpt><trkpt lat="43.324675602298086" lon="3.291517748834821"><ele>9.0</ele><time>2026-03-17T15:16:20.001Z</time></trkpt><trkpt lat="43.32491203282474" lon="3.2914517020827048"><ele>11.0</ele><time>2026-03-17T15:16:21.001Z</time></trkpt><trkpt lat="43.325151208104245" lon="3.2913848642508725"><ele>12.5</ele><time>2026-03-17T15:16:22.002Z</time></trkpt><trkpt lat="43.32539233695713" lon="3.291313835392824"><ele>14.0</ele><time>2026-03-17T15:16:23.002Z</time></trkpt><trkpt lat="43.325633990411916" lon="3.291237703805944"><ele>16.0</ele><time>2026-03-17T15:16:24.002Z</time></trkpt><trkpt lat="43.325873501834515" lon="3.2911576182983837"><ele>18.0</ele><time>2026-03-17T15:16:25.002Z</time></trkpt><trkpt lat="43.326110578446425" lon="3.291073023447037"><ele>18.0</ele><time>2026-03-17T15:16:26.002Z</time></trkpt><trkpt lat="43.326347807652624" lon="3.290988340561707"><ele>18.0</ele><time>2026-03-17T15:16:27.002Z</time></trkpt><trkpt lat="43.326579856649055" lon="3.2908994442032653"><ele>17.5</ele><time>2026-03-17T15:16:28.002Z</time></trkpt><trkpt lat="43.32680902582475" lon="3.2908079194311926"><ele>17.0</ele><time>2026-03-17T15:16:29.002Z</time></trkpt><trkpt lat="43.32703499178749" lon="3.2907143465551814"><ele>17.0</ele><time>2026-03-17T15:16:30.002Z</time></trkpt><trkpt lat="43.3272580937815" lon="3.290614584857095"><ele>17.0</ele><time>2026-03-17T15:16:31.002Z</time></trkpt><trkpt lat="43.327479107861585" lon="3.2905102812208242"><ele>18.0</ele><time>2026-03-17T15:16:32.002Z</time></trkpt><trkpt lat="43.32770183473548" lon="3.2904002875920715"><ele>19.0</ele><time>2026-03-17T15:16:33.002Z</time></trkpt><trkpt lat="43.327924409041565" lon="3.2902897712884136"><ele>20.0</ele><time>2026-03-17T15:16:34.002Z</time></trkpt><trkpt lat="43.3281517148851" lon="3.2901810954518185"><ele>21.0</ele><time>2026-03-17T15:16:35.002Z</time></trkpt><trkpt lat="43.32837919057824" lon="3.290066168077173"><ele>21.0</ele><time>2026-03-17T15:16:36.002Z</time></trkpt><trkpt lat="43.328605999070525" lon="3.2899367327363405"><ele>21.0</ele><time>2026-03-17T15:16:37.002Z</time></trkpt><trkpt lat="43.328831693394854" lon="3.2897939585323717"><ele>22.5</ele><time>2026-03-17T15:16:38.002Z</time></trkpt><trkpt lat="43.329058573943875" lon="3.2896452295131886"><ele>24.0</ele><time>2026-03-17T15:16:39.002Z</time></trkpt><trkpt lat="43.329282657858734" lon="3.289492328839356"><ele>24.0</ele><time>2026-03-17T15:16:40.002Z</time></trkpt><trkpt lat="43.329502365631306" lon="3.2893347721006165"><ele>24.0</ele><time>2026-03-17T15:16:41.002Z</time></trkpt><trkpt lat="43.32971981847594" lon="3.2891740551121864"><ele>24.5</ele><time>2026-03-17T15:16:42.002Z</time></trkpt><trkpt lat="43.329934430559696" lon="3.2890133350022994"><ele>25.0</ele><time>2026-03-17T15:16:43.002Z</time></trkpt><trkpt lat="43.33014391821783" lon="3.2888500826416225"><ele>25.5</ele><time>2026-03-17T15:16:44.002Z</time></trkpt><trkpt lat="43.33035044398491" lon="3.288681483563365"><ele>26.0</ele><time>2026-03-17T15:16:45.002Z</time></trkpt><trkpt lat="43.33054904303245" lon="3.288502090227281"><ele>26.5</ele><time>2026-03-17T15:16:46.002Z</time></trkpt><trkpt lat="43.33074191046804" lon="3.2883147786879348"><ele>27.0</ele><time>2026-03-17T15:16:47.002Z</time></trkpt><trkpt lat="43.33092777261173" lon="3.2881217931303275"><ele>28.5</ele><time>2026-03-17T15:16:48.002Z</time></trkpt><trkpt lat="43.33111390132366" lon="3.2879286318273118"><ele>30.0</ele><time>2026-03-17T15:16:49.002Z</time></trkpt><trkpt lat="43.331294247443985" lon="3.2877317467669522"><ele>29.5</ele><time>2026-03-17T15:16:50.002Z</time></trkpt><trkpt lat="43.33146464865601" lon="3.2875233977092218"><ele>29.0</ele><time>2026-03-17T15:16:51.002Z</time></trkpt><trkpt lat="43.33163238571077" lon="3.287305985471924"><ele>30.0</ele><time>2026-03-17T15:16:52.002Z</time></trkpt><trkpt lat="43.33179746366144" lon="3.2870879555644525"><ele>31.0</ele><time>2026-03-17T15:16:53.002Z</time></trkpt><trkpt lat="43.33195833131356" lon="3.2868687345765917"><ele>31.0</ele><time>2026-03-17T15:16:54.002Z</time></trkpt><trkpt lat="43.33211504869699" lon="3.2866445289514203"><ele>31.0</ele><time>2026-03-17T15:16:55.002Z</time></trkpt><trkpt lat="43.33226405235244" lon="3.2864139000760426"><ele>31.666666666666668</ele><time>2026-03-17T15:16:56.002Z</time></trkpt><trkpt lat="43.33240692252083" lon="3.286181518556284"><ele>32.333333333333336</ele><time>2026-03-17T15:16:57.002Z</time></trkpt><trkpt lat="43.33254862325841" lon="3.2859487626273642"><ele>33.0</ele><time>2026-03-17T15:16:58.002Z</time></trkpt><trkpt lat="43.33268991208706" lon="3.2857192740353"><ele>33.666666666666664</ele><time>2026-03-17T15:16:59.002Z</time></trkpt><trkpt lat="43.332829897270734" lon="3.285490773692808"><ele>34.33333333333333</ele><time>2026-03-17T15:17:00.002Z</time></trkpt><trkpt lat="43.33296673091161" lon="3.285258645502621"><ele>35.0</ele><time>2026-03-17T15:17:01.002Z</time></trkpt><trkpt lat="43.33310141580714" lon="3.285023974140675"><ele>35.0</ele><time>2026-03-17T15:17:02.002Z</time></trkpt><trkpt lat="43.33323373884964" lon="3.2847864816937227"><ele>35.0</ele><time>2026-03-17T15:17:03.002Z</time></trkpt><trkpt lat="43.33336523769827" lon="3.284549922261244"><ele>35.0</ele><time>2026-03-17T15:17:04.002Z</time></trkpt><trkpt lat="43.33349916830739" lon="3.2843135839468527"><ele>34.666666666666664</ele><time>2026-03-17T15:17:05.002Z</time></trkpt><trkpt lat="43.33363150705938" lon="3.284074209057712"><ele>34.333333333333336</ele><time>2026-03-17T15:17:06.002Z</time></trkpt><trkpt lat="43.3337611223128" lon="3.283832921307529"><ele>34.0</ele><time>2026-03-17T15:17:07.002Z</time></trkpt><trkpt lat="43.33389041880436" lon="3.283597883289517"><ele>34.0</ele><time>2026-03-17T15:17:08.002Z</time></trkpt><trkpt lat="43.33402181488943" lon="3.2833662424255907"><ele>34.0</ele><time>2026-03-17T15:17:09.002Z</time></trkpt><trkpt lat="43.334159085494306" lon="3.2831381027388225"><ele>34.0</ele><time>2026-03-17T15:17:10.002Z</time></trkpt><trkpt lat="43.33429507923865" lon="3.2829151990265526"><ele>34.0</ele><time>2026-03-17T15:17:11.001Z</time></trkpt><trkpt lat="43.334433859108586" lon="3.2826941318176908"><ele>34.0</ele><time>2026-03-17T15:17:12.001Z</time></trkpt><trkpt lat="43.334573732895144" lon="3.2824754156594675"><ele>34.0</ele><time>2026-03-17T15:17:13.001Z</time></trkpt><trkpt lat="43.33471633033816" lon="3.28226040255054"><ele>34.0</ele><time>2026-03-17T15:17:14.001Z</time></trkpt><trkpt lat="43.33486052410106" lon="3.2820477181218384"><ele>34.0</ele><time>2026-03-17T15:17:15.001Z</time></trkpt><trkpt lat="43.33500413705262" lon="3.2818355052887176"><ele>34.0</ele><time>2026-03-17T15:17:16.001Z</time></trkpt><trkpt lat="43.33514500688244" lon="3.2816248164583612"><ele>33.333333333333336</ele><time>2026-03-17T15:17:17.001Z</time></trkpt><trkpt lat="43.3352875488789" lon="3.2814139693013793"><ele>32.666666666666664</ele><time>2026-03-17T15:17:18.001Z</time></trkpt><trkpt lat="43.335422018121285" lon="3.281201123771891"><ele>32.0</ele><time>2026-03-17T15:17:19.001Z</time></trkpt><trkpt lat="43.33555511199276" lon="3.28098148889807"><ele>32.0</ele><time>2026-03-17T15:17:20.001Z</time></trkpt><trkpt lat="43.3356865475751" lon="3.280757804696383"><ele>32.0</ele><time>2026-03-17T15:17:21.001Z</time></trkpt><trkpt lat="43.335819077366345" lon="3.2805271886301104"><ele>32.0</ele><time>2026-03-17T15:17:22.001Z</time></trkpt><trkpt lat="43.33594994904737" lon="3.28028810164125"><ele>32.0</ele><time>2026-03-17T15:17:23.001Z</time></trkpt><trkpt lat="43.33607853801716" lon="3.2800450585927514"><ele>32.0</ele><time>2026-03-17T15:17:24.001Z</time></trkpt><trkpt lat="43.33619874026679" lon="3.279810568520386"><ele>32.0</ele><time>2026-03-17T15:17:25.001Z</time></trkpt><trkpt lat="43.3363140776496" lon="3.279583310642256"><ele>32.33333333333333</ele><time>2026-03-17T15:17:26.001Z</time></trkpt><trkpt lat="43.336430271543456" lon="3.2793503864164784"><ele>32.666666666666664</ele><time>2026-03-17T15:17:27.001Z</time></trkpt><trkpt lat="43.33654552206584" lon="3.2791129896530333"><ele>33.0</ele><time>2026-03-17T15:17:28.001Z</time></trkpt><trkpt lat="43.33665892288694" lon="3.278868099287544"><ele>32.333333333333336</ele><time>2026-03-17T15:17:29.001Z</time></trkpt><trkpt lat="43.33677514892574" lon="3.278610939552071"><ele>31.666666666666668</ele><time>2026-03-17T15:17:30.001Z</time></trkpt><trkpt lat="43.33689287450498" lon="3.278345394907116"><ele>31.0</ele><time>2026-03-17T15:17:31.001Z</time></trkpt><trkpt lat="43.33701593023613" lon="3.2780723488197587"><ele>30.0</ele><time>2026-03-17T15:17:32.001Z</time></trkpt><trkpt lat="43.33714608315155" lon="3.277792034083414"><ele>29.0</ele><time>2026-03-17T15:17:33.001Z</time></trkpt><trkpt lat="43.33727340835135" lon="3.2775094575180663"><ele>28.0</ele><time>2026-03-17T15:17:34.001Z</time></trkpt><trkpt lat="43.337403895082076" lon="3.2772205008068385"><ele>27.0</ele><time>2026-03-17T15:17:35.001Z</time></trkpt><trkpt lat="43.33753467782003" lon="3.2769408784480247"><ele>27.0</ele><time>2026-03-17T15:17:36.001Z</time></trkpt><trkpt lat="43.33766429363858" lon="3.276664922673515"><ele>27.0</ele><time>2026-03-17T15:17:37.001Z</time></trkpt><trkpt lat="43.337792771685045" lon="3.2763893453360065"><ele>28.5</ele><time>2026-03-17T15:17:38.001Z</time></trkpt><trkpt lat="43.33792197875382" lon="3.2761147079235577"><ele>30.0</ele><time>2026-03-17T15:17:39.001Z</time></trkpt><trkpt lat="43.33805009508754" lon="3.2758396061345216"><ele>30.5</ele><time>2026-03-17T15:17:40.001Z</time></trkpt><trkpt lat="43.3381797235149" lon="3.2755620373315932"><ele>31.0</ele><time>2026-03-17T15:17:41.001Z</time></trkpt><trkpt lat="43.33830819312844" lon="3.275280616864771"><ele>31.0</ele><time>2026-03-17T15:17:42.001Z</time></trkpt><trkpt lat="43.33842916357212" lon="3.2749921935629542"><ele>31.0</ele><time>2026-03-17T15:17:43.001Z</time></trkpt><trkpt lat="43.338547077434285" lon="3.274703133115043"><ele>31.5</ele><time>2026-03-17T15:17:44.001Z</time></trkpt><trkpt lat="43.33866211401129" lon="3.2744119226011166"><ele>32.0</ele><time>2026-03-17T15:17:45.001Z</time></trkpt><trkpt lat="43.3387727845989" lon="3.2741175667914035"><ele>33.5</ele><time>2026-03-17T15:17:46.001Z</time></trkpt><trkpt lat="43.33888684193112" lon="3.2738170900006316"><ele>35.0</ele><time>2026-03-17T15:17:47.001Z</time></trkpt><trkpt lat="43.339007695537695" lon="3.273509288814049"><ele>35.0</ele><time>2026-03-17T15:17:48.001Z</time></trkpt><trkpt lat="43.3391222166753" lon="3.273198304100824"><ele>35.0</ele><time>2026-03-17T15:17:49.001Z</time></trkpt><trkpt lat="43.339230234970564" lon="3.272885245039503"><ele>37.5</ele><time>2026-03-17T15:17:50.001Z</time></trkpt><trkpt lat="43.339332676045714" lon="3.2725714561070864"><ele>40.0</ele><time>2026-03-17T15:17:51.001Z</time></trkpt><trkpt lat="43.33942705684242" lon="3.2722609922421046"><ele>40.5</ele><time>2026-03-17T15:17:52.001Z</time></trkpt><trkpt lat="43.33951440558341" lon="3.2719569828742365"><ele>41.0</ele><time>2026-03-17T15:17:53.001Z</time></trkpt><trkpt lat="43.33959955449903" lon="3.271660042798216"><ele>41.0</ele><time>2026-03-17T15:17:54.001Z</time></trkpt><trkpt lat="43.33968223284578" lon="3.271370170153959"><ele>41.0</ele><time>2026-03-17T15:17:55.001Z</time></trkpt><trkpt lat="43.33975632215231" lon="3.2710931719673084"><ele>41.0</ele><time>2026-03-17T15:17:56.001Z</time></trkpt><trkpt lat="43.339824815605716" lon="3.270815268645376"><ele>41.0</ele><time>2026-03-17T15:17:57.001Z</time></trkpt><trkpt lat="43.339895502648375" lon="3.2705402792201608"><ele>41.0</ele><time>2026-03-17T15:17:58.001Z</time></trkpt><trkpt lat="43.33996803547789" lon="3.2702658285269903"><ele>41.0</ele><time>2026-03-17T15:17:59.001Z</time></trkpt><trkpt lat="43.340039258874" lon="3.2699934256345418"><ele>41.0</ele><time>2026-03-17T15:18:00.001Z</time></trkpt><trkpt lat="43.34010682800252" lon="3.269723165064717"><ele>41.0</ele><time>2026-03-17T15:18:01.001Z</time></trkpt><trkpt lat="43.340173390458745" lon="3.269453106427085"><ele>41.0</ele><time>2026-03-17T15:18:02.001Z</time></trkpt><trkpt lat="43.34024264856773" lon="3.2691833051446575"><ele>41.33333333333333</ele><time>2026-03-17T15:18:03.001Z</time></trkpt><trkpt lat="43.34031232156637" lon="3.2689111972960925"><ele>41.666666666666664</ele><time>2026-03-17T15:18:04.001Z</time></trkpt><trkpt lat="43.34038152955207" lon="3.2686381107412488"><ele>42.0</ele><time>2026-03-17T15:18:05.001Z</time></trkpt><trkpt lat="43.34045224753117" lon="3.268368367774129"><ele>42.0</ele><time>2026-03-17T15:18:06.001Z</time></trkpt><trkpt lat="43.34052111927602" lon="3.2681036488366715"><ele>42.0</ele><time>2026-03-17T15:18:07.001Z</time></trkpt><trkpt lat="43.34058668706959" lon="3.2678456524656516"><ele>42.0</ele><time>2026-03-17T15:18:08.001Z</time></trkpt><trkpt lat="43.34065061743925" lon="3.2675903640720003"><ele>42.0</ele><time>2026-03-17T15:18:09.001Z</time></trkpt><trkpt lat="43.340717009832574" lon="3.2673384425717833"><ele>42.0</ele><time>2026-03-17T15:18:10.001Z</time></trkpt><trkpt lat="43.340785263561514" lon="3.267090897952354"><ele>42.0</ele><time>2026-03-17T15:18:11.001Z</time></trkpt><trkpt lat="43.340856756156676" lon="3.2668453211740753"><ele>43.333333333333336</ele><time>2026-03-17T15:18:12.001Z</time></trkpt><trkpt lat="43.34093136570291" lon="3.266599596492748"><ele>44.66666666666667</ele><time>2026-03-17T15:18:13.001Z</time></trkpt><trkpt lat="43.341007778726755" lon="3.266352739456582"><ele>46.0</ele><time>2026-03-17T15:18:14.001Z</time></trkpt><trkpt lat="43.34108703522455" lon="3.2661023681337835"><ele>46.0</ele><time>2026-03-17T15:18:15.001Z</time></trkpt><trkpt lat="43.34117038263138" lon="3.265850318790166"><ele>46.0</ele><time>2026-03-17T15:18:16.001Z</time></trkpt><trkpt lat="43.3412578637624" lon="3.2656018452325353"><ele>46.0</ele><time>2026-03-17T15:18:17.001Z</time></trkpt><trkpt lat="43.341346199219814" lon="3.2653554259881794"><ele>46.0</ele><time>2026-03-17T15:18:18.001Z</time></trkpt><trkpt lat="43.34143309352996" lon="3.265114478226319"><ele>46.0</ele><time>2026-03-17T15:18:19.001Z</time></trkpt><trkpt lat="43.34152065201841" lon="3.2648764737895353"><ele>46.0</ele><time>2026-03-17T15:18:20.001Z</time></trkpt><trkpt lat="43.341609089410454" lon="3.2646427376553433"><ele>46.0</ele><time>2026-03-17T15:18:21.001Z</time></trkpt><trkpt lat="43.341700245978444" lon="3.2644069906965454"><ele>46.0</ele><time>2026-03-17T15:18:22.001Z</time></trkpt><trkpt lat="43.34179928800883" lon="3.2641716907755876"><ele>46.0</ele><time>2026-03-17T15:18:23.001Z</time></trkpt><trkpt lat="43.34190134757442" lon="3.2639361259235766"><ele>45.333333333333336</ele><time>2026-03-17T15:18:24.001Z</time></trkpt><trkpt lat="43.34200670236423" lon="3.263691725763417"><ele>44.666666666666664</ele><time>2026-03-17T15:18:25.001Z</time></trkpt><trkpt lat="43.34211319007044" lon="3.2634431736508445"><ele>44.0</ele><time>2026-03-17T15:18:26.001Z</time></trkpt><trkpt lat="43.342226851862996" lon="3.263187925330125"><ele>44.33333333333333</ele><time>2026-03-17T15:18:27.001Z</time></trkpt><trkpt lat="43.34235224412996" lon="3.262933227542687"><ele>44.666666666666664</ele><time>2026-03-17T15:18:28.002Z</time></trkpt><trkpt lat="43.342478692414204" lon="3.2626820691020937"><ele>45.0</ele><time>2026-03-17T15:18:29.002Z</time></trkpt><trkpt lat="43.34260156939643" lon="3.2624351943359158"><ele>44.666666666666664</ele><time>2026-03-17T15:18:30.002Z</time></trkpt><trkpt lat="43.342719079631834" lon="3.262203317648945"><ele>44.33333333333333</ele><time>2026-03-17T15:18:31.002Z</time></trkpt><trkpt lat="43.34283445815982" lon="3.261983480608164"><ele>44.0</ele><time>2026-03-17T15:18:32.002Z</time></trkpt><trkpt lat="43.34294733462301" lon="3.26177397676283"><ele>44.0</ele><time>2026-03-17T15:18:33.002Z</time></trkpt><trkpt lat="43.34305939302078" lon="3.2615717842224186"><ele>44.0</ele><time>2026-03-17T15:18:34.002Z</time></trkpt><trkpt lat="43.34317187678721" lon="3.26137324981132"><ele>44.0</ele><time>2026-03-17T15:18:35.002Z</time></trkpt><trkpt lat="43.343284524452606" lon="3.2611745179037848"><ele>44.0</ele><time>2026-03-17T15:18:36.002Z</time></trkpt><trkpt lat="43.34339537337869" lon="3.260970571765021"><ele>44.0</ele><time>2026-03-17T15:18:37.002Z</time></trkpt><trkpt lat="43.343508106426974" lon="3.260766904615802"><ele>44.0</ele><time>2026-03-17T15:18:38.002Z</time></trkpt><trkpt lat="43.34362327212978" lon="3.2605641542938484"><ele>44.0</ele><time>2026-03-17T15:18:39.002Z</time></trkpt><trkpt lat="43.343738766072455" lon="3.2603595853675924"><ele>44.0</ele><time>2026-03-17T15:18:40.002Z</time></trkpt><trkpt lat="43.34385494829674" lon="3.2601522947238863"><ele>44.0</ele><time>2026-03-17T15:18:41.002Z</time></trkpt><trkpt lat="43.343971568177864" lon="3.259940980236049"><ele>45.0</ele><time>2026-03-17T15:18:42.002Z</time></trkpt><trkpt lat="43.34408926228151" lon="3.259729957827084"><ele>46.0</ele><time>2026-03-17T15:18:43.002Z</time></trkpt><trkpt lat="43.34421007942883" lon="3.259518538377741"><ele>47.0</ele><time>2026-03-17T15:18:44.002Z</time></trkpt><trkpt lat="43.34432521218675" lon="3.259311763605071"><ele>47.0</ele><time>2026-03-17T15:18:45.002Z</time></trkpt><trkpt lat="43.3444311738976" lon="3.2591158357425183"><ele>47.0</ele><time>2026-03-17T15:18:46.002Z</time></trkpt><trkpt lat="43.34453461706527" lon="3.25893220423782"><ele>47.0</ele><time>2026-03-17T15:18:47.002Z</time></trkpt><trkpt lat="43.34463567456204" lon="3.258752622442657"><ele>46.666666666666664</ele><time>2026-03-17T15:18:48.002Z</time></trkpt><trkpt lat="43.344740301718524" lon="3.2585728244746317"><ele>46.333333333333336</ele><time>2026-03-17T15:18:49.002Z</time></trkpt><trkpt lat="43.3448450879376" lon="3.2583904972645708"><ele>46.0</ele><time>2026-03-17T15:18:50.002Z</time></trkpt><trkpt lat="43.344950084236594" lon="3.258207728288175"><ele>47.75</ele><time>2026-03-17T15:18:51.002Z</time></trkpt><trkpt lat="43.345054311003004" lon="3.2580339688102478"><ele>49.5</ele><time>2026-03-17T15:18:52.002Z</time></trkpt><trkpt lat="43.34515845262658" lon="3.2578797123078815"><ele>51.25</ele><time>2026-03-17T15:18:53.002Z</time></trkpt><trkpt lat="43.34524750018221" lon="3.2577454009364617"><ele>53.0</ele><time>2026-03-17T15:18:54.002Z</time></trkpt><trkpt lat="43.34531419544602" lon="3.2576390872309218"><ele>53.0</ele><time>2026-03-17T15:18:55.002Z</time></trkpt><trkpt lat="43.345373706387534" lon="3.2575632847708174"><ele>53.0</ele><time>2026-03-17T15:18:56.002Z</time></trkpt><trkpt lat="43.345428696082415" lon="3.257514370444667"><ele>53.0</ele><time>2026-03-17T15:18:57.002Z</time></trkpt><trkpt lat="43.34548902333903" lon="3.2574827378391755"><ele>53.0</ele><time>2026-03-17T15:18:58.002Z</time></trkpt><trkpt lat="43.34561076795483" lon="3.257479838203482"><ele>53.0</ele><time>2026-03-17T15:19:00.002Z</time></trkpt><trkpt lat="43.3457246912724" lon="3.2575152821982147"><ele>53.16666666666667</ele><time>2026-03-17T15:19:02.002Z</time></trkpt><trkpt lat="43.34582027814655" lon="3.2575298681119222"><ele>53.333333333333336</ele><time>2026-03-17T15:19:04.002Z</time></trkpt><trkpt lat="43.34589759106699" lon="3.257534340863766"><ele>53.5</ele><time>2026-03-17T15:19:06.002Z</time></trkpt><trkpt lat="43.345967290248275" lon="3.2574935961195375"><ele>53.66666666666667</ele><time>2026-03-17T15:19:08.002Z</time></trkpt><trkpt lat="43.34601458173558" lon="3.2574052675861864"><ele>53.833333333333336</ele><time>2026-03-17T15:19:10.002Z</time></trkpt><trkpt lat="43.34610413883946" lon="3.257312454675706"><ele>54.0</ele><time>2026-03-17T15:19:12.002Z</time></trkpt><trkpt lat="43.34616791992479" lon="3.2572715347618613"><ele>54.0</ele><time>2026-03-17T15:19:13.002Z</time></trkpt><trkpt lat="43.34622900637526" lon="3.2572289960499163"><ele>54.0</ele><time>2026-03-17T15:19:14.002Z</time></trkpt><trkpt lat="43.346329325629114" lon="3.2571506184744616"><ele>54.0</ele><time>2026-03-17T15:19:16.002Z</time></trkpt><trkpt lat="43.34641187091649" lon="3.257083981004901"><ele>54.0</ele><time>2026-03-17T15:19:18.002Z</time></trkpt><trkpt lat="43.34647634228098" lon="3.257052271263178"><ele>54.0</ele><time>2026-03-17T15:19:20.002Z</time></trkpt><trkpt lat="43.34655366726807" lon="3.257060324337288"><ele>54.0</ele><time>2026-03-17T15:19:23.002Z</time></trkpt><trkpt lat="43.34664924479053" lon="3.257163260473583"><ele>53.75</ele><time>2026-03-17T15:19:25.001Z</time></trkpt><trkpt lat="43.34666056783463" lon="3.257321873536383"><ele>53.5</ele><time>2026-03-17T15:19:27.001Z</time></trkpt><trkpt lat="43.34666903773182" lon="3.257476604729114"><ele>53.25</ele><time>2026-03-17T15:19:29.001Z</time></trkpt><trkpt lat="43.3466988902342" lon="3.2576256874448624"><ele>53.0</ele><time>2026-03-17T15:19:31.001Z</time></trkpt><trkpt lat="43.346747267114566" lon="3.25776971292422"><ele>53.0</ele><time>2026-03-17T15:19:33.001Z</time></trkpt><trkpt lat="43.34681846416642" lon="3.2578769937640994"><ele>53.0</ele><time>2026-03-17T15:19:35.001Z</time></trkpt><trkpt lat="43.34692055586486" lon="3.257895882394421"><ele>53.0</ele><time>2026-03-17T15:19:37.001Z</time></trkpt><trkpt lat="43.34705373165499" lon="3.2578571821298445"><ele>53.0</ele><time>2026-03-17T15:19:39.001Z</time></trkpt><trkpt lat="43.3471338479077" lon="3.257828458713598"><ele>53.0</ele><time>2026-03-17T15:19:40.001Z</time></trkpt><trkpt lat="43.347224545023764" lon="3.257807053055073"><ele>53.333333333333336</ele><time>2026-03-17T15:19:41.001Z</time></trkpt><trkpt lat="43.3473105780856" lon="3.2577949425888613"><ele>53.66666666666667</ele><time>2026-03-17T15:19:42.001Z</time></trkpt><trkpt lat="43.34739242483213" lon="3.2577850079009014"><ele>54.0</ele><time>2026-03-17T15:19:43.001Z</time></trkpt><trkpt lat="43.347468158065155" lon="3.257780456797291"><ele>54.33333333333333</ele><time>2026-03-17T15:19:44.001Z</time></trkpt><trkpt lat="43.347539261228896" lon="3.2577700105918654"><ele>54.666666666666664</ele><time>2026-03-17T15:19:45.001Z</time></trkpt><trkpt lat="43.34760856946118" lon="3.257747486721898"><ele>55.0</ele><time>2026-03-17T15:19:46.001Z</time></trkpt><trkpt lat="43.34769971833322" lon="3.257746042807243"><ele>55.0</ele><time>2026-03-17T15:19:48.001Z</time></trkpt><trkpt lat="43.34776817778778" lon="3.2577399216599887"><ele>55.0</ele><time>2026-03-17T15:19:51.001Z</time></trkpt><trkpt lat="43.34779198760709" lon="3.257518811191331"><ele>55.0</ele><time>2026-03-17T15:19:54.001Z</time></trkpt><trkpt lat="43.347754786349675" lon="3.257375151196061"><ele>55.0</ele><time>2026-03-17T15:19:56.001Z</time></trkpt><trkpt lat="43.34774388484994" lon="3.2572718275500705"><ele>55.0</ele><time>2026-03-17T15:19:58.001Z</time></trkpt><trkpt lat="43.34773446353236" lon="3.2571610675736986"><ele>55.0</ele><time>2026-03-17T15:20:00.001Z</time></trkpt><trkpt lat="43.34771970423854" lon="3.257021024587892"><ele>55.0</ele><time>2026-03-17T15:20:02.001Z</time></trkpt><trkpt lat="43.3477061639848" lon="3.256875791848615"><ele>55.0</ele><time>2026-03-17T15:20:04.001Z</time></trkpt><trkpt lat="43.34768935444208" lon="3.256739399016129"><ele>55.0</ele><time>2026-03-17T15:20:06.001Z</time></trkpt><trkpt lat="43.34768068343602" lon="3.256620893062879"><ele>55.0</ele><time>2026-03-17T15:20:08.001Z</time></trkpt><trkpt lat="43.34766523966708" lon="3.2564772359659866"><ele>55.33333333333333</ele><time>2026-03-17T15:20:10.001Z</time></trkpt><trkpt lat="43.34765802810317" lon="3.256380770012118"><ele>55.666666666666664</ele><time>2026-03-17T15:20:11.001Z</time></trkpt><trkpt lat="43.347646816840886" lon="3.2562812520582756"><ele>56.0</ele><time>2026-03-17T15:20:12.001Z</time></trkpt><trkpt lat="43.34763261845761" lon="3.2561880605209357"><ele>56.33333333333333</ele><time>2026-03-17T15:20:13.001Z</time></trkpt><trkpt lat="43.347606103654684" lon="3.256025764595304"><ele>56.666666666666664</ele><time>2026-03-17T15:20:15.001Z</time></trkpt><trkpt lat="43.34759086877896" lon="3.2559410928165557"><ele>57.0</ele><time>2026-03-17T15:20:16.001Z</time></trkpt><trkpt lat="43.347579732868866" lon="3.2558546005777536"><ele>57.0</ele><time>2026-03-17T15:20:17.001Z</time></trkpt><trkpt lat="43.34755941044439" lon="3.255717777246817"><ele>57.0</ele><time>2026-03-17T15:20:19.001Z</time></trkpt><trkpt lat="43.34750080931577" lon="3.2556373720580067"><ele>57.0</ele><time>2026-03-17T15:20:22.001Z</time></trkpt><trkpt lat="43.34752815067779" lon="3.255556293381174"><ele>57.0</ele><time>2026-03-17T15:20:25.001Z</time></trkpt><trkpt lat="43.34752363056134" lon="3.255449054245834"><ele>57.0</ele><time>2026-03-17T15:20:28.001Z</time></trkpt><trkpt lat="43.34737919310156" lon="3.2554415052326138"><ele>57.166666666666664</ele><time>2026-03-17T15:20:29.001Z</time></trkpt><trkpt lat="43.34739884753795" lon="3.2553410536842087"><ele>57.33333333333333</ele><time>2026-03-17T15:20:32.001Z</time></trkpt><trkpt lat="43.34732890016945" lon="3.2553549331076224"><ele>57.5</ele><time>2026-03-17T15:21:19.002Z</time></trkpt><trkpt lat="43.347351103603785" lon="3.2554487120154283"><ele>57.666666666666664</ele><time>2026-03-17T15:22:09.001Z</time></trkpt><trkpt lat="43.347303938293535" lon="3.2555144377585785"><ele>57.83333333333333</ele><time>2026-03-17T15:22:14.001Z</time></trkpt><trkpt lat="43.34736344151863" lon="3.255558360924346"><ele>58.0</ele><time>2026-03-17T15:23:03.001Z</time></trkpt><trkpt lat="43.34721545641166" lon="3.2554819225854863"><ele>57.99999999999999</ele><time>2026-03-17T15:23:48Z</time></trkpt><trkpt lat="43.347309145860855" lon="3.2554700915566843"><ele>58.0</ele><time>2026-03-17T15:24:23Z</time></trkpt><trkpt lat="43.34738202221303" lon="3.2554178484808918"><ele>58.0</ele><time>2026-03-17T15:24:33Z</time></trkpt><trkpt lat="43.347298504218294" lon="3.255312141796671"><ele>58.0</ele><time>2026-03-17T15:24:38Z</time></trkpt><trkpt lat="43.347369671419614" lon="3.2553285095158415"><ele>57.99999999999999</ele><time>2026-03-17T15:24:44Z</time></trkpt><trkpt lat="43.34732471211437" lon="3.255252540408549"><ele>58.0</ele><time>2026-03-17T15:28:03Z</time></trkpt><trkpt lat="43.34733163502333" lon="3.255097846867475"><ele>57.99999999999999</ele><time>2026-03-17T15:28:05Z</time></trkpt><trkpt lat="43.34734594058737" lon="3.2549966734912004"><ele>58.0</ele><time>2026-03-17T15:28:07Z</time></trkpt><trkpt lat="43.347275952655394" lon="3.254966550546437"><ele>58.0</ele><time>2026-03-17T15:28:10Z</time></trkpt><trkpt lat="43.347209082593544" lon="3.2549760321902537"><ele>58.0</ele><time>2026-03-17T15:28:14Z</time></trkpt><trkpt lat="43.347135073534815" lon="3.255097828914707"><ele>57.99999999999999</ele><time>2026-03-17T15:28:24Z</time></trkpt><trkpt lat="43.347116990903054" lon="3.2552081849927625"><ele>58.0</ele><time>2026-03-17T15:28:25Z</time></trkpt><trkpt lat="43.34709416758719" lon="3.255315560523339"><ele>58.0</ele><time>2026-03-17T15:28:26Z</time></trkpt><trkpt lat="43.347063169198414" lon="3.2554255483596157"><ele>58.0</ele><time>2026-03-17T15:28:27Z</time></trkpt><trkpt lat="43.34703463577856" lon="3.2555446045916243"><ele>58.0</ele><time>2026-03-17T15:28:28Z</time></trkpt><trkpt lat="43.34700319143426" lon="3.255671579846488"><ele>58.0</ele><time>2026-03-17T15:28:29Z</time></trkpt><trkpt lat="43.346964370910605" lon="3.2557977846949537"><ele>58.0</ele><time>2026-03-17T15:28:30Z</time></trkpt><trkpt lat="43.346924945088894" lon="3.255925671333216"><ele>57.4</ele><time>2026-03-17T15:28:31Z</time></trkpt><trkpt lat="43.346888769884465" lon="3.2560632120872532"><ele>56.8</ele><time>2026-03-17T15:28:32Z</time></trkpt><trkpt lat="43.346853573481816" lon="3.2561918019787073"><ele>56.2</ele><time>2026-03-17T15:28:33Z</time></trkpt><trkpt lat="43.346814317014605" lon="3.2563279646080083"><ele>55.6</ele><time>2026-03-17T15:28:34Z</time></trkpt><trkpt lat="43.346771497395366" lon="3.2564600290347303"><ele>55.0</ele><time>2026-03-17T15:28:35Z</time></trkpt><trkpt lat="43.34672729527553" lon="3.256589892575569"><ele>54.49999999999999</ele><time>2026-03-17T15:28:36Z</time></trkpt><trkpt lat="43.346690351990524" lon="3.256703249495464"><ele>54.0</ele><time>2026-03-17T15:28:37Z</time></trkpt><trkpt lat="43.34666310503643" lon="3.256812279812293"><ele>53.5</ele><time>2026-03-17T15:28:38Z</time></trkpt><trkpt lat="43.3466511881885" lon="3.256907785009744"><ele>53.0</ele><time>2026-03-17T15:28:39Z</time></trkpt><trkpt lat="43.346644815369224" lon="3.25699713916935"><ele>52.49999999999999</ele><time>2026-03-17T15:28:40Z</time></trkpt><trkpt lat="43.34665347858302" lon="3.257100628425919"><ele>52.0</ele><time>2026-03-17T15:28:41Z</time></trkpt><trkpt lat="43.34665637110147" lon="3.2572100529029004"><ele>52.166666666666664</ele><time>2026-03-17T15:28:42Z</time></trkpt><trkpt lat="43.346665950372554" lon="3.257335892659623"><ele>52.33333333333333</ele><time>2026-03-17T15:28:43Z</time></trkpt><trkpt lat="43.34668218817382" lon="3.2574594587078347"><ele>52.5</ele><time>2026-03-17T15:28:44Z</time></trkpt><trkpt lat="43.346704468978096" lon="3.257574025433739"><ele>52.66666666666667</ele><time>2026-03-17T15:28:45Z</time></trkpt><trkpt lat="43.346734970949875" lon="3.2576894234078555"><ele>52.833333333333336</ele><time>2026-03-17T15:28:46Z</time></trkpt><trkpt lat="43.34678169797955" lon="3.257776533152754"><ele>53.0</ele><time>2026-03-17T15:28:47Z</time></trkpt><trkpt lat="43.34688110175141" lon="3.2578682988500076"><ele>53.00000000000001</ele><time>2026-03-17T15:28:49Z</time></trkpt><trkpt lat="43.34693745288475" lon="3.257913752129189"><ele>53.0</ele><time>2026-03-17T15:28:50.001Z</time></trkpt><trkpt lat="43.347026635814075" lon="3.2578627712872916"><ele>53.0</ele><time>2026-03-17T15:28:51.001Z</time></trkpt><trkpt lat="43.34710656798824" lon="3.2578439810138717"><ele>53.0</ele><time>2026-03-17T15:28:52.001Z</time></trkpt><trkpt lat="43.34719437036965" lon="3.2578247253895025"><ele>53.00000000000001</ele><time>2026-03-17T15:28:53.001Z</time></trkpt><trkpt lat="43.347280582839105" lon="3.2578045102228415"><ele>53.0</ele><time>2026-03-17T15:28:54.001Z</time></trkpt><trkpt lat="43.34736062565694" lon="3.2577907533114874"><ele>53.333333333333336</ele><time>2026-03-17T15:28:55.001Z</time></trkpt><trkpt lat="43.34743623935519" lon="3.2577844917801233"><ele>53.66666666666667</ele><time>2026-03-17T15:28:56.001Z</time></trkpt><trkpt lat="43.34751260099726" lon="3.2577761406023433"><ele>54.0</ele><time>2026-03-17T15:28:57.001Z</time></trkpt><trkpt lat="43.347587522506835" lon="3.257766446913061"><ele>54.33333333333333</ele><time>2026-03-17T15:28:58.001Z</time></trkpt><trkpt lat="43.347664354033284" lon="3.2577564783661717"><ele>54.666666666666664</ele><time>2026-03-17T15:28:59.001Z</time></trkpt><trkpt lat="43.34774371069436" lon="3.2577485042024703"><ele>55.0</ele><time>2026-03-17T15:29:00.001Z</time></trkpt><trkpt lat="43.34783045022186" lon="3.257745128597742"><ele>55.0</ele><time>2026-03-17T15:29:01.001Z</time></trkpt><trkpt lat="43.34791846985411" lon="3.257759669802832"><ele>55.0</ele><time>2026-03-17T15:29:02.001Z</time></trkpt><trkpt lat="43.34801061606207" lon="3.2577495354748582"><ele>55.0</ele><time>2026-03-17T15:29:03.001Z</time></trkpt><trkpt lat="43.34810633520313" lon="3.257739210762448"><ele>55.0</ele><time>2026-03-17T15:29:04.001Z</time></trkpt><trkpt lat="43.34819481294894" lon="3.25772966714286"><ele>55.0</ele><time>2026-03-17T15:29:05.001Z</time></trkpt><trkpt lat="43.34827994324939" lon="3.257720484600579"><ele>54.99999999999999</ele><time>2026-03-17T15:29:06.001Z</time></trkpt><trkpt lat="43.348360937923566" lon="3.2577098451120547"><ele>55.0</ele><time>2026-03-17T15:29:07.001Z</time></trkpt><trkpt lat="43.34843719392411" lon="3.2576762658251037"><ele>55.0</ele><time>2026-03-17T15:29:08.001Z</time></trkpt><trkpt lat="43.348506083185555" lon="3.2576666551657705"><ele>55.0</ele><time>2026-03-17T15:29:09.001Z</time></trkpt><trkpt lat="43.348572673752024" lon="3.2576364452633424"><ele>55.0</ele><time>2026-03-17T15:29:10.001Z</time></trkpt><trkpt lat="43.348638386918054" lon="3.2576060017503217"><ele>54.99999999999999</ele><time>2026-03-17T15:29:11.001Z</time></trkpt><trkpt lat="43.34870102277761" lon="3.257578754574148"><ele>55.0</ele><time>2026-03-17T15:29:12.001Z</time></trkpt><trkpt lat="43.34880121323871" lon="3.25754829657912"><ele>55.0</ele><time>2026-03-17T15:29:14.001Z</time></trkpt><trkpt lat="43.34887005290438" lon="3.257528891817529"><ele>55.0</ele><time>2026-03-17T15:29:16.001Z</time></trkpt><trkpt lat="43.34900243566807" lon="3.2575401743580175"><ele>55.0</ele><time>2026-03-17T15:29:18.001Z</time></trkpt><trkpt lat="43.34908684472429" lon="3.2575681490591353"><ele>55.0</ele><time>2026-03-17T15:29:19.001Z</time></trkpt><trkpt lat="43.34916592471262" lon="3.257595948682514"><ele>55.0</ele><time>2026-03-17T15:29:20.001Z</time></trkpt><trkpt lat="43.34924015291757" lon="3.25764234664987"><ele>55.0</ele><time>2026-03-17T15:29:21.001Z</time></trkpt><trkpt lat="43.349307745614446" lon="3.2577200937005433"><ele>55.0</ele><time>2026-03-17T15:29:22.001Z</time></trkpt><trkpt lat="43.349367409922245" lon="3.2578363031800204"><ele>55.0</ele><time>2026-03-17T15:29:23.001Z</time></trkpt><trkpt lat="43.34942526229939" lon="3.2579787076108437"><ele>55.0</ele><time>2026-03-17T15:29:24.001Z</time></trkpt><trkpt lat="43.34949048145651" lon="3.258141464251242"><ele>55.0</ele><time>2026-03-17T15:29:25.001Z</time></trkpt><trkpt lat="43.349564790285264" lon="3.2583171734069225"><ele>55.0</ele><time>2026-03-17T15:29:26.001Z</time></trkpt><trkpt lat="43.3496388235253" lon="3.258497566657244"><ele>55.0</ele><time>2026-03-17T15:29:27.001Z</time></trkpt><trkpt lat="43.349719907618294" lon="3.2587005253164287"><ele>55.0</ele><time>2026-03-17T15:29:28.001Z</time></trkpt><trkpt lat="43.34980903408552" lon="3.258920208405682"><ele>56.33333333333333</ele><time>2026-03-17T15:29:29.001Z</time></trkpt><trkpt lat="43.349895264022464" lon="3.2591385124991867"><ele>57.66666666666667</ele><time>2026-03-17T15:29:30.001Z</time></trkpt><trkpt lat="43.34998592062147" lon="3.259381921546222"><ele>59.0</ele><time>2026-03-17T15:29:31.001Z</time></trkpt><trkpt lat="43.35007911368018" lon="3.259642823966034"><ele>60.0</ele><time>2026-03-17T15:29:32.001Z</time></trkpt><trkpt lat="43.350171793969565" lon="3.2599088991542584"><ele>61.0</ele><time>2026-03-17T15:29:33.001Z</time></trkpt><trkpt lat="43.350266832957395" lon="3.2601874236830937"><ele>62.0</ele><time>2026-03-17T15:29:34.001Z</time></trkpt><trkpt lat="43.350366538515814" lon="3.260476766639851"><ele>64.0</ele><time>2026-03-17T15:29:35.001Z</time></trkpt><trkpt lat="43.350461401345505" lon="3.26076910370095"><ele>66.0</ele><time>2026-03-17T15:29:36.001Z</time></trkpt><trkpt lat="43.35055029143905" lon="3.2610573735942334"><ele>66.5</ele><time>2026-03-17T15:29:37.001Z</time></trkpt><trkpt lat="43.35063773891152" lon="3.2613444429610845"><ele>67.0</ele><time>2026-03-17T15:29:38.001Z</time></trkpt><trkpt lat="43.35072880539269" lon="3.261631669144434"><ele>67.0</ele><time>2026-03-17T15:29:39.001Z</time></trkpt><trkpt lat="43.350824566133944" lon="3.2619149692790295"><ele>67.0</ele><time>2026-03-17T15:29:40.001Z</time></trkpt><trkpt lat="43.35092024055132" lon="3.262199380624955"><ele>66.33333333333333</ele><time>2026-03-17T15:29:41.001Z</time></trkpt><trkpt lat="43.351010744678554" lon="3.262484297119489"><ele>65.66666666666667</ele><time>2026-03-17T15:29:42.001Z</time></trkpt><trkpt lat="43.351097392515776" lon="3.262761639746548"><ele>65.0</ele><time>2026-03-17T15:29:43.001Z</time></trkpt><trkpt lat="43.35118453288222" lon="3.263036604835095"><ele>64.0</ele><time>2026-03-17T15:29:43.999Z</time></trkpt><trkpt lat="43.35127089890102" lon="3.263308568074922"><ele>63.0</ele><time>2026-03-17T15:29:44.999Z</time></trkpt><trkpt lat="43.35135949591378" lon="3.263590056821318"><ele>62.0</ele><time>2026-03-17T15:29:45.999Z</time></trkpt><trkpt lat="43.35144743256928" lon="3.2638811847991827"><ele>59.5</ele><time>2026-03-17T15:29:46.999Z</time></trkpt><trkpt lat="43.35153093473893" lon="3.264185737976579"><ele>57.0</ele><time>2026-03-17T15:29:47.999Z</time></trkpt><trkpt lat="43.351615010226006" lon="3.2644955993592117"><ele>56.0</ele><time>2026-03-17T15:29:48.999Z</time></trkpt><trkpt lat="43.351697036242456" lon="3.264811218327082"><ele>55.0</ele><time>2026-03-17T15:29:49.999Z</time></trkpt><trkpt lat="43.35177913634947" lon="3.265131824754614"><ele>55.0</ele><time>2026-03-17T15:29:50.999Z</time></trkpt><trkpt lat="43.35186577603209" lon="3.2654539600929495"><ele>55.0</ele><time>2026-03-17T15:29:51.999Z</time></trkpt><trkpt lat="43.351951945932576" lon="3.2657780134108387"><ele>55.0</ele><time>2026-03-17T15:29:52.999Z</time></trkpt><trkpt lat="43.352035402394065" lon="3.266099917857664"><ele>55.0</ele><time>2026-03-17T15:29:53.999Z</time></trkpt><trkpt lat="43.35211627996195" lon="3.2664202097235027"><ele>55.0</ele><time>2026-03-17T15:29:54.999Z</time></trkpt><trkpt lat="43.352199379618426" lon="3.2667384492661617"><ele>55.0</ele><time>2026-03-17T15:29:55.999Z</time></trkpt><trkpt lat="43.352285705691784" lon="3.2670507262921666"><ele>54.5</ele><time>2026-03-17T15:29:56.999Z</time></trkpt><trkpt lat="43.35237058379228" lon="3.267360778403911"><ele>54.0</ele><time>2026-03-17T15:29:57.999Z</time></trkpt><trkpt lat="43.3524521890772" lon="3.267669237305833"><ele>54.0</ele><time>2026-03-17T15:29:58.999Z</time></trkpt><trkpt lat="43.352532336503" lon="3.267975856126811"><ele>54.0</ele><time>2026-03-17T15:29:59.999Z</time></trkpt><trkpt lat="43.35261270357925" lon="3.268279649689087"><ele>55.5</ele><time>2026-03-17T15:30:00.999Z</time></trkpt><trkpt lat="43.35269089987969" lon="3.2685801167546114"><ele>57.0</ele><time>2026-03-17T15:30:01.999Z</time></trkpt><trkpt lat="43.35276536665249" lon="3.2688744348670333"><ele>57.0</ele><time>2026-03-17T15:30:02.999Z</time></trkpt><trkpt lat="43.35283745341795" lon="3.269177031345737"><ele>57.0</ele><time>2026-03-17T15:30:03.999Z</time></trkpt><trkpt lat="43.35290614070786" lon="3.269493335872065"><ele>55.5</ele><time>2026-03-17T15:30:04.999Z</time></trkpt><trkpt lat="43.352971310871716" lon="3.2698148113080303"><ele>54.0</ele><time>2026-03-17T15:30:05.999Z</time></trkpt><trkpt lat="43.353030541277825" lon="3.2701435946921813"><ele>54.0</ele><time>2026-03-17T15:30:06.999Z</time></trkpt><trkpt lat="43.353089235099425" lon="3.2704767352521915"><ele>54.0</ele><time>2026-03-17T15:30:07.999Z</time></trkpt><trkpt lat="43.35314654534463" lon="3.2708144419826595"><ele>52.5</ele><time>2026-03-17T15:30:09Z</time></trkpt><trkpt lat="43.35320069597805" lon="3.2711549456022846"><ele>51.0</ele><time>2026-03-17T15:30:10Z</time></trkpt><trkpt lat="43.35324650047762" lon="3.271499242542464"><ele>51.0</ele><time>2026-03-17T15:30:11Z</time></trkpt><trkpt lat="43.353282601056435" lon="3.271839785418316"><ele>51.0</ele><time>2026-03-17T15:30:12Z</time></trkpt><trkpt lat="43.35331340508149" lon="3.27217303694211"><ele>52.5</ele><time>2026-03-17T15:30:13Z</time></trkpt><trkpt lat="43.353346231150226" lon="3.272496177242369"><ele>54.0</ele><time>2026-03-17T15:30:14Z</time></trkpt><trkpt lat="43.35339143869717" lon="3.2727960204790687"><ele>54.0</ele><time>2026-03-17T15:30:15Z</time></trkpt><trkpt lat="43.353445234591376" lon="3.2730826715914736"><ele>54.0</ele><time>2026-03-17T15:30:16Z</time></trkpt><trkpt lat="43.35350369197056" lon="3.2733590009042364"><ele>54.0</ele><time>2026-03-17T15:30:17Z</time></trkpt><trkpt lat="43.35357069677484" lon="3.2736295322586546"><ele>54.33333333333333</ele><time>2026-03-17T15:30:18Z</time></trkpt><trkpt lat="43.35364058206701" lon="3.273898826655024"><ele>54.666666666666664</ele><time>2026-03-17T15:30:19Z</time></trkpt><trkpt lat="43.35371459829949" lon="3.274165809963773"><ele>55.0</ele><time>2026-03-17T15:30:20Z</time></trkpt><trkpt lat="43.35379491973031" lon="3.2744320409710563"><ele>56.33333333333333</ele><time>2026-03-17T15:30:21Z</time></trkpt><trkpt lat="43.35387874557867" lon="3.274697862949729"><ele>57.66666666666667</ele><time>2026-03-17T15:30:22Z</time></trkpt><trkpt lat="43.35396651488762" lon="3.274965227596006"><ele>59.0</ele><time>2026-03-17T15:30:23Z</time></trkpt><trkpt lat="43.354057705024225" lon="3.275232268770534"><ele>59.333333333333336</ele><time>2026-03-17T15:30:24Z</time></trkpt><trkpt lat="43.354158159331654" lon="3.2755004706977666"><ele>59.66666666666667</ele><time>2026-03-17T15:30:25Z</time></trkpt><trkpt lat="43.35426490730642" lon="3.275771328232725"><ele>60.0</ele><time>2026-03-17T15:30:26Z</time></trkpt><trkpt lat="43.354372973661974" lon="3.2760441569601397"><ele>60.0</ele><time>2026-03-17T15:30:27Z</time></trkpt><trkpt lat="43.354482133852116" lon="3.2762905452492035"><ele>60.0</ele><time>2026-03-17T15:30:28Z</time></trkpt><trkpt lat="43.35459020856694" lon="3.27651603034776"><ele>60.0</ele><time>2026-03-17T15:30:29Z</time></trkpt><trkpt lat="43.35469755267594" lon="3.2767298014630972"><ele>60.33333333333333</ele><time>2026-03-17T15:30:30Z</time></trkpt><trkpt lat="43.3548061495277" lon="3.2769371036557"><ele>60.666666666666664</ele><time>2026-03-17T15:30:31Z</time></trkpt><trkpt lat="43.35491408967138" lon="3.2771420062784586"><ele>61.0</ele><time>2026-03-17T15:30:32Z</time></trkpt><trkpt lat="43.35501459013975" lon="3.277333697149797"><ele>61.0</ele><time>2026-03-17T15:30:33Z</time></trkpt><trkpt lat="43.35510987318967" lon="3.277511828132426"><ele>61.0</ele><time>2026-03-17T15:30:34Z</time></trkpt><trkpt lat="43.35519964681779" lon="3.277697007705804"><ele>61.0</ele><time>2026-03-17T15:30:35Z</time></trkpt><trkpt lat="43.355278600621126" lon="3.277896847641246"><ele>61.33333333333333</ele><time>2026-03-17T15:30:36Z</time></trkpt><trkpt lat="43.35534484646694" lon="3.2781020582064886"><ele>61.66666666666667</ele><time>2026-03-17T15:30:37Z</time></trkpt><trkpt lat="43.355397500058515" lon="3.2783195299045977"><ele>62.0</ele><time>2026-03-17T15:30:38Z</time></trkpt><trkpt lat="43.355434475630794" lon="3.27854040768428"><ele>62.00000000000001</ele><time>2026-03-17T15:30:39Z</time></trkpt><trkpt lat="43.35545820168853" lon="3.2787101183264697"><ele>62.0</ele><time>2026-03-17T15:30:40Z</time></trkpt><trkpt lat="43.355472667144085" lon="3.2788324623624656"><ele>62.0</ele><time>2026-03-17T15:30:41Z</time></trkpt><trkpt lat="43.35548564743409" lon="3.2789395116084976"><ele>62.0</ele><time>2026-03-17T15:30:42Z</time></trkpt><trkpt lat="43.355500508649705" lon="3.279034623368473"><ele>62.00000000000001</ele><time>2026-03-17T15:30:43Z</time></trkpt><trkpt lat="43.35552950208846" lon="3.2791243430169503"><ele>62.0</ele><time>2026-03-17T15:30:44Z</time></trkpt><trkpt lat="43.35558256243817" lon="3.2792175697834884"><ele>63.0</ele><time>2026-03-17T15:30:45Z</time></trkpt><trkpt lat="43.35565670369511" lon="3.2793108544174965"><ele>64.0</ele><time>2026-03-17T15:30:46Z</time></trkpt><trkpt lat="43.3557454505348" lon="3.27940933408663"><ele>65.0</ele><time>2026-03-17T15:30:47Z</time></trkpt><trkpt lat="43.355834311893176" lon="3.2795230744532056"><ele>66.0</ele><time>2026-03-17T15:30:48.001Z</time></trkpt><trkpt lat="43.35592722561968" lon="3.2796569292434223"><ele>65.75</ele><time>2026-03-17T15:30:49.001Z</time></trkpt><trkpt lat="43.356023764259305" lon="3.2797932875731326"><ele>65.5</ele><time>2026-03-17T15:30:50.001Z</time></trkpt><trkpt lat="43.35614037576997" lon="3.2799100315919403"><ele>65.25</ele><time>2026-03-17T15:30:51.001Z</time></trkpt><trkpt lat="43.35626981569947" lon="3.280028193071285"><ele>65.0</ele><time>2026-03-17T15:30:52.001Z</time></trkpt><trkpt lat="43.356400396491125" lon="3.2801447588130768"><ele>65.66666666666667</ele><time>2026-03-17T15:30:53.001Z</time></trkpt><trkpt lat="43.356526779539635" lon="3.2802519922094877"><ele>66.33333333333333</ele><time>2026-03-17T15:30:54.001Z</time></trkpt><trkpt lat="43.35665570201407" lon="3.280364603326693"><ele>67.0</ele><time>2026-03-17T15:30:55.001Z</time></trkpt><trkpt lat="43.35678322248183" lon="3.280482717084212"><ele>66.33333333333333</ele><time>2026-03-17T15:30:56.001Z</time></trkpt><trkpt lat="43.356910649520586" lon="3.280601185568278"><ele>65.66666666666667</ele><time>2026-03-17T15:30:57.001Z</time></trkpt><trkpt lat="43.357037798591165" lon="3.2807246718335294"><ele>65.0</ele><time>2026-03-17T15:30:58.001Z</time></trkpt><trkpt lat="43.35716299345563" lon="3.2808507910398887"><ele>65.33333333333334</ele><time>2026-03-17T15:30:59.001Z</time></trkpt><trkpt lat="43.35728762123529" lon="3.2809801262805407"><ele>65.66666666666667</ele><time>2026-03-17T15:31:00.001Z</time></trkpt><trkpt lat="43.35741638529286" lon="3.2811127743262087"><ele>66.0</ele><time>2026-03-17T15:31:01.001Z</time></trkpt><trkpt lat="43.357548402813634" lon="3.2812418650704815"><ele>66.0</ele><time>2026-03-17T15:31:02.001Z</time></trkpt><trkpt lat="43.35767628767487" lon="3.281369080970949"><ele>66.0</ele><time>2026-03-17T15:31:03.001Z</time></trkpt><trkpt lat="43.357792868239954" lon="3.281485171575228"><ele>66.0</ele><time>2026-03-17T15:31:04.001Z</time></trkpt><trkpt lat="43.35789965030851" lon="3.2815885806052645"><ele>66.0</ele><time>2026-03-17T15:31:05.001Z</time></trkpt><trkpt lat="43.35800266409215" lon="3.281674343902496"><ele>66.6</ele><time>2026-03-17T15:31:06.001Z</time></trkpt><trkpt lat="43.358104046012265" lon="3.281734181300349"><ele>67.19999999999999</ele><time>2026-03-17T15:31:07.001Z</time></trkpt><trkpt lat="43.35819798097225" lon="3.2817821932759137"><ele>67.80000000000001</ele><time>2026-03-17T15:31:08.001Z</time></trkpt><trkpt lat="43.35827619983969" lon="3.2818191187140275"><ele>68.4</ele><time>2026-03-17T15:31:09.001Z</time></trkpt><trkpt lat="43.35837260502314" lon="3.2818147336691434"><ele>69.0</ele><time>2026-03-17T15:31:11.001Z</time></trkpt><trkpt lat="43.35845399406093" lon="3.2817574548324533"><ele>69.0</ele><time>2026-03-17T15:31:13.001Z</time></trkpt><trkpt lat="43.358553491184345" lon="3.2816808815604666"><ele>69.0</ele><time>2026-03-17T15:31:15.001Z</time></trkpt><trkpt lat="43.35865865626283" lon="3.281786139406648"><ele>69.0</ele><time>2026-03-17T15:31:16.001Z</time></trkpt><trkpt lat="43.35873077872768" lon="3.281829032705858"><ele>69.0</ele><time>2026-03-17T15:31:17.001Z</time></trkpt><trkpt lat="43.35879565388117" lon="3.281868042674299"><ele>69.0</ele><time>2026-03-17T15:31:18.001Z</time></trkpt><trkpt lat="43.35886695593804" lon="3.2819063093503336"><ele>68.0</ele><time>2026-03-17T15:31:19.001Z</time></trkpt><trkpt lat="43.35895926195011" lon="3.2819436762709584"><ele>67.0</ele><time>2026-03-17T15:31:20.001Z</time></trkpt><trkpt lat="43.35907240265084" lon="3.2819810724967344"><ele>66.0</ele><time>2026-03-17T15:31:21.001Z</time></trkpt><trkpt lat="43.35919569256048" lon="3.282025198105859"><ele>65.0</ele><time>2026-03-17T15:31:22.001Z</time></trkpt><trkpt lat="43.359324724563315" lon="3.28207143325978"><ele>65.0</ele><time>2026-03-17T15:31:23.001Z</time></trkpt><trkpt lat="43.35945925904576" lon="3.28210740096389"><ele>65.0</ele><time>2026-03-17T15:31:24.001Z</time></trkpt><trkpt lat="43.359584195881546" lon="3.2821398966681965"><ele>65.0</ele><time>2026-03-17T15:31:25.001Z</time></trkpt><trkpt lat="43.3596966312506" lon="3.282165155773483"><ele>65.0</ele><time>2026-03-17T15:31:26.001Z</time></trkpt><trkpt lat="43.359795181413574" lon="3.282176417909126"><ele>64.2</ele><time>2026-03-17T15:31:27.001Z</time></trkpt><trkpt lat="43.35987350164929" lon="3.2821937357060498"><ele>63.4</ele><time>2026-03-17T15:31:28.001Z</time></trkpt><trkpt lat="43.35997956646512" lon="3.2822175126472297"><ele>62.599999999999994</ele><time>2026-03-17T15:31:30.001Z</time></trkpt><trkpt lat="43.36004354578794" lon="3.2822841738697366"><ele>61.8</ele><time>2026-03-17T15:31:32.001Z</time></trkpt><trkpt lat="43.36010259758832" lon="3.282452357452916"><ele>61.0</ele><time>2026-03-17T15:31:34.001Z</time></trkpt><trkpt lat="43.36013355736399" lon="3.2825654100841346"><ele>61.0</ele><time>2026-03-17T15:31:35.001Z</time></trkpt><trkpt lat="43.36016905181794" lon="3.2826940352266103"><ele>61.0</ele><time>2026-03-17T15:31:36.001Z</time></trkpt><trkpt lat="43.36021631263954" lon="3.282830550652598"><ele>61.0</ele><time>2026-03-17T15:31:37.001Z</time></trkpt><trkpt lat="43.36027041343648" lon="3.2829746263100423"><ele>61.0</ele><time>2026-03-17T15:31:38.001Z</time></trkpt><trkpt lat="43.36032853959507" lon="3.2831279389055092"><ele>61.0</ele><time>2026-03-17T15:31:39.001Z</time></trkpt><trkpt lat="43.36038634849398" lon="3.2832843472939266"><ele>61.0</ele><time>2026-03-17T15:31:40.002Z</time></trkpt><trkpt lat="43.36043814517095" lon="3.2834415270263895"><ele>61.0</ele><time>2026-03-17T15:31:41.002Z</time></trkpt><trkpt lat="43.36048429542221" lon="3.2835947395074583"><ele>61.0</ele><time>2026-03-17T15:31:42.002Z</time></trkpt><trkpt lat="43.36051308804322" lon="3.2836924552381213"><ele>61.166666666666664</ele><time>2026-03-17T15:31:43.002Z</time></trkpt><trkpt lat="43.3605352371541" lon="3.283779203907034"><ele>61.33333333333333</ele><time>2026-03-17T15:31:44.002Z</time></trkpt><trkpt lat="43.360561001288474" lon="3.2838625438727362"><ele>61.5</ele><time>2026-03-17T15:31:45.002Z</time></trkpt><trkpt lat="43.36060757811776" lon="3.2839596670062523"><ele>61.66666666666667</ele><time>2026-03-17T15:31:46.002Z</time></trkpt><trkpt lat="43.36067668504768" lon="3.284067998811121"><ele>61.833333333333336</ele><time>2026-03-17T15:31:47.002Z</time></trkpt><trkpt lat="43.36076566538398" lon="3.2841794668436086"><ele>62.0</ele><time>2026-03-17T15:31:48.002Z</time></trkpt><trkpt lat="43.360869498147956" lon="3.284293970216639"><ele>61.25</ele><time>2026-03-17T15:31:49.002Z</time></trkpt><trkpt lat="43.36098254247244" lon="3.2844162278251168"><ele>60.5</ele><time>2026-03-17T15:31:50Z</time></trkpt><trkpt lat="43.36109010626155" lon="3.284543369832353"><ele>59.75</ele><time>2026-03-17T15:31:51Z</time></trkpt><trkpt lat="43.36119310494445" lon="3.284662009960329"><ele>59.0</ele><time>2026-03-17T15:31:52Z</time></trkpt><trkpt lat="43.36127886078993" lon="3.28476659011187"><ele>58.71428571428571</ele><time>2026-03-17T15:31:53Z</time></trkpt><trkpt lat="43.36134452723771" lon="3.284853150914362"><ele>58.42857142857143</ele><time>2026-03-17T15:31:54Z</time></trkpt><trkpt lat="43.361398682525994" lon="3.284923891571942"><ele>58.14285714285714</ele><time>2026-03-17T15:31:55Z</time></trkpt><trkpt lat="43.36144607963984" lon="3.284984096717492"><ele>57.857142857142854</ele><time>2026-03-17T15:31:56Z</time></trkpt><trkpt lat="43.361497793842396" lon="3.2850427936358084"><ele>57.57142857142857</ele><time>2026-03-17T15:31:57Z</time></trkpt><trkpt lat="43.36154920288288" lon="3.2850977193837387"><ele>57.285714285714285</ele><time>2026-03-17T15:31:58Z</time></trkpt><trkpt lat="43.361603055276696" lon="3.2851556082276603"><ele>57.0</ele><time>2026-03-17T15:31:59Z</time></trkpt><trkpt lat="43.36167187236724" lon="3.2852280964919673"><ele>56.6</ele><time>2026-03-17T15:32:00Z</time></trkpt><trkpt lat="43.361754195613074" lon="3.2853190192166877"><ele>56.2</ele><time>2026-03-17T15:32:01Z</time></trkpt><trkpt lat="43.361830288341295" lon="3.285409171106348"><ele>55.8</ele><time>2026-03-17T15:32:02Z</time></trkpt><trkpt lat="43.36187640474165" lon="3.2854761720138583"><ele>55.4</ele><time>2026-03-17T15:32:03Z</time></trkpt><trkpt lat="43.361924813549564" lon="3.285587759477197"><ele>55.0</ele><time>2026-03-17T15:32:05Z</time></trkpt><trkpt lat="43.36199416099931" lon="3.2857563893112185"><ele>54.49999999999999</ele><time>2026-03-17T15:32:07Z</time></trkpt><trkpt lat="43.36204000233035" lon="3.2858659498194713"><ele>54.0</ele><time>2026-03-17T15:32:08Z</time></trkpt><trkpt lat="43.36208575901846" lon="3.28597876783436"><ele>53.5</ele><time>2026-03-17T15:32:09Z</time></trkpt><trkpt lat="43.36212985995952" lon="3.286079418127052"><ele>53.0</ele><time>2026-03-17T15:32:10Z</time></trkpt><trkpt lat="43.362172617992485" lon="3.286180502939386"><ele>52.49999999999999</ele><time>2026-03-17T15:32:11Z</time></trkpt><trkpt lat="43.36220499433407" lon="3.2862825838764422"><ele>52.0</ele><time>2026-03-17T15:32:12Z</time></trkpt><trkpt lat="43.362234531190865" lon="3.286400046701364"><ele>50.6</ele><time>2026-03-17T15:32:13Z</time></trkpt><trkpt lat="43.36223753557559" lon="3.286541450552261"><ele>49.2</ele><time>2026-03-17T15:32:14Z</time></trkpt><trkpt lat="43.36228028017153" lon="3.2866787904366963"><ele>47.8</ele><time>2026-03-17T15:32:15Z</time></trkpt><trkpt lat="43.362317205219824" lon="3.28681662959637"><ele>46.4</ele><time>2026-03-17T15:32:16Z</time></trkpt><trkpt lat="43.362367978698195" lon="3.286963308814194"><ele>45.0</ele><time>2026-03-17T15:32:17Z</time></trkpt><trkpt lat="43.36240924322398" lon="3.287126640659289"><ele>44.75</ele><time>2026-03-17T15:32:18Z</time></trkpt><trkpt lat="43.362471244483466" lon="3.28728660890887"><ele>44.5</ele><time>2026-03-17T15:32:19Z</time></trkpt><trkpt lat="43.36255436538211" lon="3.2874328428412656"><ele>44.25</ele><time>2026-03-17T15:32:20Z</time></trkpt><trkpt lat="43.36264640400288" lon="3.2875726624858497"><ele>44.0</ele><time>2026-03-17T15:32:21Z</time></trkpt><trkpt lat="43.36274205880575" lon="3.287713276187706"><ele>44.0</ele><time>2026-03-17T15:32:22Z</time></trkpt><trkpt lat="43.36283801993945" lon="3.287855230031876"><ele>44.0</ele><time>2026-03-17T15:32:23Z</time></trkpt><trkpt lat="43.36293056095308" lon="3.287993466281588"><ele>44.0</ele><time>2026-03-17T15:32:24Z</time></trkpt><trkpt lat="43.36301655305452" lon="3.2881217094509028"><ele>44.0</ele><time>2026-03-17T15:32:25Z</time></trkpt><trkpt lat="43.363096673300085" lon="3.2882185152196866"><ele>43.5</ele><time>2026-03-17T15:32:26Z</time></trkpt><trkpt lat="43.36315392047643" lon="3.2883054905191544"><ele>43.0</ele><time>2026-03-17T15:32:27.001Z</time></trkpt><trkpt lat="43.36319682164057" lon="3.2883731344629354"><ele>42.5</ele><time>2026-03-17T15:32:28.001Z</time></trkpt><trkpt lat="43.36323039354544" lon="3.2884505207102803"><ele>42.0</ele><time>2026-03-17T15:32:30.001Z</time></trkpt><trkpt lat="43.36333607488051" lon="3.288343848985062"><ele>41.5</ele><time>2026-03-17T15:32:34.001Z</time></trkpt><trkpt lat="43.363333155071494" lon="3.288238520980887"><ele>41.0</ele><time>2026-03-17T15:32:35.001Z</time></trkpt><trkpt lat="43.363342423945646" lon="3.2881367944166144"><ele>40.5</ele><time>2026-03-17T15:32:36.001Z</time></trkpt><trkpt lat="43.363362362203794" lon="3.288042886968631"><ele>40.0</ele><time>2026-03-17T15:32:37.001Z</time></trkpt><trkpt lat="43.36339542578954" lon="3.2879382714239958"><ele>39.5</ele><time>2026-03-17T15:32:38.001Z</time></trkpt><trkpt lat="43.36344005579059" lon="3.28782369407795"><ele>39.0</ele><time>2026-03-17T15:32:39.001Z</time></trkpt><trkpt lat="43.363485259374784" lon="3.2877059842447665"><ele>38.5</ele><time>2026-03-17T15:32:40.001Z</time></trkpt><trkpt lat="43.3635328103694" lon="3.2875938088825007"><ele>38.0</ele><time>2026-03-17T15:32:41.001Z</time></trkpt><trkpt lat="43.363586311037054" lon="3.2874855048277616"><ele>38.0</ele><time>2026-03-17T15:32:42.001Z</time></trkpt><trkpt lat="43.36364693644033" lon="3.28739142743211"><ele>38.0</ele><time>2026-03-17T15:32:43.001Z</time></trkpt><trkpt lat="43.36371583474952" lon="3.287321980013448"><ele>38.0</ele><time>2026-03-17T15:32:44.001Z</time></trkpt><trkpt lat="43.36379033850443" lon="3.287278507131007"><ele>38.0</ele><time>2026-03-17T15:32:45.001Z</time></trkpt><trkpt lat="43.363867026568116" lon="3.287253004309132"><ele>38.0</ele><time>2026-03-17T15:32:46.001Z</time></trkpt><trkpt lat="43.36395064426243" lon="3.2872302786014593"><ele>38.0</ele><time>2026-03-17T15:32:47.001Z</time></trkpt><trkpt lat="43.364043079534746" lon="3.287211605642275"><ele>38.4</ele><time>2026-03-17T15:32:48.001Z</time></trkpt><trkpt lat="43.36413142310016" lon="3.2871839344723006"><ele>38.8</ele><time>2026-03-17T15:32:49.001Z</time></trkpt><trkpt lat="43.3642252948303" lon="3.287145771477645"><ele>39.2</ele><time>2026-03-17T15:32:50.001Z</time></trkpt><trkpt lat="43.364299632815055" lon="3.2870239935776757"><ele>39.6</ele><time>2026-03-17T15:32:51.001Z</time></trkpt><trkpt lat="43.36434857873934" lon="3.2868679527348514"><ele>40.0</ele><time>2026-03-17T15:32:52.001Z</time></trkpt><trkpt lat="43.36441688531249" lon="3.28669927348681"><ele>40.0</ele><time>2026-03-17T15:32:53.001Z</time></trkpt><trkpt lat="43.364510425610895" lon="3.28652653439295"><ele>40.0</ele><time>2026-03-17T15:32:54.001Z</time></trkpt><trkpt lat="43.36458954527247" lon="3.2863469104718868"><ele>40.0</ele><time>2026-03-17T15:32:55.001Z</time></trkpt><trkpt lat="43.364675812879376" lon="3.286151058791008"><ele>40.66666666666667</ele><time>2026-03-17T15:32:56.001Z</time></trkpt><trkpt lat="43.364774378697284" lon="3.2859320982126996"><ele>41.333333333333336</ele><time>2026-03-17T15:32:57.001Z</time></trkpt><trkpt lat="43.364876112230824" lon="3.2857064105861506"><ele>42.0</ele><time>2026-03-17T15:32:58.001Z</time></trkpt><trkpt lat="43.36496905689309" lon="3.285500220740363"><ele>42.0</ele><time>2026-03-17T15:32:59.001Z</time></trkpt><trkpt lat="43.365052814555874" lon="3.2853144114641872"><ele>42.0</ele><time>2026-03-17T15:33:00.001Z</time></trkpt><trkpt lat="43.36511807849565" lon="3.2851355046532573"><ele>42.0</ele><time>2026-03-17T15:33:01.001Z</time></trkpt><trkpt lat="43.36518858965343" lon="3.2849796327091716"><ele>42.0</ele><time>2026-03-17T15:33:02.001Z</time></trkpt><trkpt lat="43.36525340351215" lon="3.2848354332632272"><ele>42.75</ele><time>2026-03-17T15:33:03.001Z</time></trkpt><trkpt lat="43.365332926728534" lon="3.284714356418115"><ele>43.5</ele><time>2026-03-17T15:33:04.001Z</time></trkpt><trkpt lat="43.36540722939832" lon="3.2845776697083457"><ele>44.25</ele><time>2026-03-17T15:33:05.001Z</time></trkpt><trkpt lat="43.365490300729284" lon="3.28443826657406"><ele>45.0</ele><time>2026-03-17T15:33:06.001Z</time></trkpt><trkpt lat="43.36556740036934" lon="3.2842789554079928"><ele>42.666666666666664</ele><time>2026-03-17T15:33:07.001Z</time></trkpt><trkpt lat="43.36566389566612" lon="3.2841250495759127"><ele>40.33333333333333</ele><time>2026-03-17T15:33:08.001Z</time></trkpt><trkpt lat="43.36577974013383" lon="3.2839812390094414"><ele>38.0</ele><time>2026-03-17T15:33:09.001Z</time></trkpt><trkpt lat="43.365891070603325" lon="3.2838156202014392"><ele>37.33333333333333</ele><time>2026-03-17T15:33:10.001Z</time></trkpt><trkpt lat="43.3659946758087" lon="3.283630688524543"><ele>36.666666666666664</ele><time>2026-03-17T15:33:11.001Z</time></trkpt><trkpt lat="43.36610756068944" lon="3.2834812732779928"><ele>36.0</ele><time>2026-03-17T15:33:12.001Z</time></trkpt><trkpt lat="43.366210427437096" lon="3.283350027914407"><ele>36.0</ele><time>2026-03-17T15:33:13.001Z</time></trkpt><trkpt lat="43.3663073903598" lon="3.283230783186561"><ele>36.0</ele><time>2026-03-17T15:33:14.001Z</time></trkpt><trkpt lat="43.36639406259254" lon="3.2831202751294954"><ele>36.0</ele><time>2026-03-17T15:33:15.001Z</time></trkpt><trkpt lat="43.3664773973402" lon="3.2830133648895674"><ele>36.0</ele><time>2026-03-17T15:33:16.001Z</time></trkpt><trkpt lat="43.366562923172594" lon="3.2829027829958"><ele>36.0</ele><time>2026-03-17T15:33:17.001Z</time></trkpt><trkpt lat="43.36665414014547" lon="3.2827880322926277"><ele>36.0</ele><time>2026-03-17T15:33:18.001Z</time></trkpt><trkpt lat="43.36674399312658" lon="3.2826654547641385"><ele>36.0</ele><time>2026-03-17T15:33:19.001Z</time></trkpt><trkpt lat="43.3668323968922" lon="3.282533487676174"><ele>36.0</ele><time>2026-03-17T15:33:20.002Z</time></trkpt><trkpt lat="43.36691662327257" lon="3.2823863465927503"><ele>36.666666666666664</ele><time>2026-03-17T15:33:21.002Z</time></trkpt><trkpt lat="43.36699739287171" lon="3.2822198175876616"><ele>37.33333333333333</ele><time>2026-03-17T15:33:22.002Z</time></trkpt><trkpt lat="43.36707694697417" lon="3.2820396398942133"><ele>38.0</ele><time>2026-03-17T15:33:23.002Z</time></trkpt><trkpt lat="43.36715522236087" lon="3.281850630112829"><ele>37.0</ele><time>2026-03-17T15:33:24.002Z</time></trkpt><trkpt lat="43.367230570699626" lon="3.2816681774177825"><ele>36.0</ele><time>2026-03-17T15:33:25.002Z</time></trkpt><trkpt lat="43.36730695173599" lon="3.281471339248195"><ele>35.0</ele><time>2026-03-17T15:33:26.002Z</time></trkpt><trkpt lat="43.36738419979549" lon="3.2812701940083273"><ele>35.0</ele><time>2026-03-17T15:33:27.002Z</time></trkpt><trkpt lat="43.36745354253196" lon="3.2810882462276756"><ele>35.0</ele><time>2026-03-17T15:33:28.002Z</time></trkpt><trkpt lat="43.36751137049727" lon="3.2809164589124786"><ele>35.0</ele><time>2026-03-17T15:33:29.002Z</time></trkpt><trkpt lat="43.3675561449353" lon="3.2807513040442515"><ele>35.0</ele><time>2026-03-17T15:33:30.002Z</time></trkpt><trkpt lat="43.36757852234035" lon="3.2805924329238216"><ele>35.25</ele><time>2026-03-17T15:33:31.002Z</time></trkpt><trkpt lat="43.36758448106431" lon="3.2804372811656495"><ele>35.5</ele><time>2026-03-17T15:33:32.002Z</time></trkpt><trkpt lat="43.367590423466616" lon="3.2802748696527995"><ele>35.75</ele><time>2026-03-17T15:33:33.002Z</time></trkpt><trkpt lat="43.36759891659131" lon="3.2801125323492655"><ele>36.0</ele><time>2026-03-17T15:33:34.002Z</time></trkpt><trkpt lat="43.367611842020295" lon="3.2799696862636916"><ele>36.0</ele><time>2026-03-17T15:33:35.002Z</time></trkpt><trkpt lat="43.36763320152698" lon="3.279839483194387"><ele>36.0</ele><time>2026-03-17T15:33:36.002Z</time></trkpt><trkpt lat="43.36766804291294" lon="3.2797022222322676"><ele>36.0</ele><time>2026-03-17T15:33:37.002Z</time></trkpt><trkpt lat="43.36770876947373" lon="3.279564329700452"><ele>36.0</ele><time>2026-03-17T15:33:38.002Z</time></trkpt><trkpt lat="43.367760414367424" lon="3.279419439239238"><ele>36.0</ele><time>2026-03-17T15:33:39.002Z</time></trkpt><trkpt lat="43.36781682591265" lon="3.279268214150642"><ele>35.75</ele><time>2026-03-17T15:33:40.002Z</time></trkpt><trkpt lat="43.36787440773115" lon="3.279105206971584"><ele>35.5</ele><time>2026-03-17T15:33:41.002Z</time></trkpt><trkpt lat="43.367939001770324" lon="3.2789172515536835"><ele>35.25</ele><time>2026-03-17T15:33:42.002Z</time></trkpt><trkpt lat="43.36800824940634" lon="3.278717107286068"><ele>35.0</ele><time>2026-03-17T15:33:43.002Z</time></trkpt><trkpt lat="43.368088917304256" lon="3.278494827102241"><ele>35.0</ele><time>2026-03-17T15:33:44.002Z</time></trkpt><trkpt lat="43.368185330600234" lon="3.278247623506998"><ele>35.0</ele><time>2026-03-17T15:33:45.002Z</time></trkpt><trkpt lat="43.36828516375801" lon="3.2779687352613034"><ele>35.0</ele><time>2026-03-17T15:33:46.002Z</time></trkpt><trkpt lat="43.368385953311396" lon="3.2776935543292933"><ele>35.33333333333333</ele><time>2026-03-17T15:33:47.002Z</time></trkpt><trkpt lat="43.368484181590254" lon="3.2774251627485356"><ele>35.666666666666664</ele><time>2026-03-17T15:33:48.002Z</time></trkpt><trkpt lat="43.368572931143696" lon="3.277176710738035"><ele>36.0</ele><time>2026-03-17T15:33:49.002Z</time></trkpt><trkpt lat="43.368656243629694" lon="3.276943636202935"><ele>36.0</ele><time>2026-03-17T15:33:50.002Z</time></trkpt><trkpt lat="43.368735646032384" lon="3.276720432263228"><ele>36.0</ele><time>2026-03-17T15:33:51.002Z</time></trkpt><trkpt lat="43.36883186960331" lon="3.276505444107951"><ele>36.0</ele><time>2026-03-17T15:33:52.002Z</time></trkpt><trkpt lat="43.368912096721225" lon="3.2762833429046707"><ele>36.0</ele><time>2026-03-17T15:33:53.002Z</time></trkpt><trkpt lat="43.36899261329742" lon="3.276060531696133"><ele>36.0</ele><time>2026-03-17T15:33:54.002Z</time></trkpt><trkpt lat="43.36907038116941" lon="3.2758473256719713"><ele>36.0</ele><time>2026-03-17T15:33:55.002Z</time></trkpt><trkpt lat="43.36914250211435" lon="3.275649601133998"><ele>37.0</ele><time>2026-03-17T15:33:56.001Z</time></trkpt><trkpt lat="43.36920972849037" lon="3.2754652951922556"><ele>38.0</ele><time>2026-03-17T15:33:57.001Z</time></trkpt><trkpt lat="43.369272443929916" lon="3.2752933568161855"><ele>39.0</ele><time>2026-03-17T15:33:58.001Z</time></trkpt><trkpt lat="43.36932928603864" lon="3.275132816256227"><ele>40.0</ele><time>2026-03-17T15:33:59.001Z</time></trkpt><trkpt lat="43.36937617454023" lon="3.2749879936934474"><ele>40.0</ele><time>2026-03-17T15:34:00.001Z</time></trkpt><trkpt lat="43.369390582271336" lon="3.2748652090431705"><ele>40.0</ele><time>2026-03-17T15:34:01.001Z</time></trkpt><trkpt lat="43.369413583907395" lon="3.2747720340376953"><ele>40.0</ele><time>2026-03-17T15:34:02.001Z</time></trkpt><trkpt lat="43.36945531492494" lon="3.274638002311019"><ele>40.0</ele><time>2026-03-17T15:34:04.001Z</time></trkpt><trkpt lat="43.36944020253779" lon="3.274464727896337"><ele>40.0</ele><time>2026-03-17T15:34:06.001Z</time></trkpt><trkpt lat="43.369413433424754" lon="3.2743589298597824"><ele>40.16666666666667</ele><time>2026-03-17T15:34:07.001Z</time></trkpt><trkpt lat="43.369380325066274" lon="3.274249422515215"><ele>40.333333333333336</ele><time>2026-03-17T15:34:08.001Z</time></trkpt><trkpt lat="43.3693538168062" lon="3.274148661706872"><ele>40.5</ele><time>2026-03-17T15:34:09.001Z</time></trkpt><trkpt lat="43.36933684780273" lon="3.274060078810008"><ele>40.666666666666664</ele><time>2026-03-17T15:34:10.001Z</time></trkpt><trkpt lat="43.3693362632299" lon="3.273958783612983"><ele>40.83333333333333</ele><time>2026-03-17T15:34:12.001Z</time></trkpt><trkpt lat="43.369436977692715" lon="3.2740361017496182"><ele>41.0</ele><time>2026-03-17T15:34:58.001Z</time></trkpt><trkpt lat="43.369490481993886" lon="3.2741446118257524"><ele>41.0</ele><time>2026-03-17T15:34:59.001Z</time></trkpt><trkpt lat="43.36955059187843" lon="3.2742765052937632"><ele>41.0</ele><time>2026-03-17T15:35:00.001Z</time></trkpt><trkpt lat="43.36961900802394" lon="3.2744145477918027"><ele>41.0</ele><time>2026-03-17T15:35:01.001Z</time></trkpt><trkpt lat="43.36970876981601" lon="3.274583548203921"><ele>41.0</ele><time>2026-03-17T15:35:02.001Z</time></trkpt><trkpt lat="43.36981316005219" lon="3.27477399828245"><ele>40.0</ele><time>2026-03-17T15:35:03.001Z</time></trkpt><trkpt lat="43.369924850213856" lon="3.274971880281923"><ele>39.0</ele><time>2026-03-17T15:35:04.001Z</time></trkpt><trkpt lat="43.37004103217381" lon="3.2751778951570927"><ele>38.0</ele><time>2026-03-17T15:35:05.001Z</time></trkpt><trkpt lat="43.37016130207239" lon="3.2753905580666065"><ele>37.666666666666664</ele><time>2026-03-17T15:35:06.001Z</time></trkpt><trkpt lat="43.370283269713084" lon="3.2756093381564857"><ele>37.333333333333336</ele><time>2026-03-17T15:35:07.001Z</time></trkpt><trkpt lat="43.370410603564466" lon="3.2758341598956697"><ele>37.0</ele><time>2026-03-17T15:35:08.001Z</time></trkpt><trkpt lat="43.37053889064834" lon="3.2760626113945146"><ele>37.66666666666667</ele><time>2026-03-17T15:35:09.001Z</time></trkpt><trkpt lat="43.370669416349024" lon="3.2762949602827183"><ele>38.333333333333336</ele><time>2026-03-17T15:35:10.001Z</time></trkpt><trkpt lat="43.37080323065717" lon="3.276531202640631"><ele>39.0</ele><time>2026-03-17T15:35:11.001Z</time></trkpt><trkpt lat="43.370938098446466" lon="3.276769738991057"><ele>39.0</ele><time>2026-03-17T15:35:12.001Z</time></trkpt><trkpt lat="43.371074688313" lon="3.277011334350654"><ele>39.0</ele><time>2026-03-17T15:35:13.001Z</time></trkpt><trkpt lat="43.371198235670605" lon="3.277232872482855"><ele>39.0</ele><time>2026-03-17T15:35:14.001Z</time></trkpt><trkpt lat="43.37134043910513" lon="3.2774954281326965"><ele>38.0</ele><time>2026-03-17T15:35:15.001Z</time></trkpt><trkpt lat="43.37147155307465" lon="3.2777426499911644"><ele>37.0</ele><time>2026-03-17T15:35:16.001Z</time></trkpt><trkpt lat="43.371602512839175" lon="3.2779761041243196"><ele>36.0</ele><time>2026-03-17T15:35:17.001Z</time></trkpt><trkpt lat="43.371722834841826" lon="3.2781890919706425"><ele>35.666666666666664</ele><time>2026-03-17T15:35:18.001Z</time></trkpt><trkpt lat="43.37183658997567" lon="3.2783859589349786"><ele>35.33333333333333</ele><time>2026-03-17T15:35:19.001Z</time></trkpt><trkpt lat="43.371943329191076" lon="3.2785712680604946"><ele>35.0</ele><time>2026-03-17T15:35:20.002Z</time></trkpt><trkpt lat="43.37204379323378" lon="3.2787474417647284"><ele>35.0</ele><time>2026-03-17T15:35:21.002Z</time></trkpt><trkpt lat="43.37214008729379" lon="3.2789168325549065"><ele>35.0</ele><time>2026-03-17T15:35:22.002Z</time></trkpt><trkpt lat="43.37223060920872" lon="3.2790793342297526"><ele>35.0</ele><time>2026-03-17T15:35:23.002Z</time></trkpt><trkpt lat="43.37231523682523" lon="3.2792324259535377"><ele>35.0</ele><time>2026-03-17T15:35:24.002Z</time></trkpt><trkpt lat="43.37239623918873" lon="3.279378935665211"><ele>35.25</ele><time>2026-03-17T15:35:25.002Z</time></trkpt><trkpt lat="43.37247538873572" lon="3.279523596968795"><ele>35.5</ele><time>2026-03-17T15:35:26.002Z</time></trkpt><trkpt lat="43.37255017980791" lon="3.2796629113366476"><ele>35.75</ele><time>2026-03-17T15:35:27.002Z</time></trkpt><trkpt lat="43.37262003792437" lon="3.279789480114799"><ele>36.0</ele><time>2026-03-17T15:35:28.002Z</time></trkpt><trkpt lat="43.37268823833665" lon="3.2799184144675353"><ele>36.25</ele><time>2026-03-17T15:35:29.002Z</time></trkpt><trkpt lat="43.37276104219783" lon="3.280048996515721"><ele>36.5</ele><time>2026-03-17T15:35:30.002Z</time></trkpt><trkpt lat="43.372837834624676" lon="3.2801904203275263"><ele>36.75</ele><time>2026-03-17T15:35:31.002Z</time></trkpt><trkpt lat="43.37291533793544" lon="3.28034081002453"><ele>37.0</ele><time>2026-03-17T15:35:32.002Z</time></trkpt><trkpt lat="43.37300229668589" lon="3.280500888969769"><ele>37.66666666666667</ele><time>2026-03-17T15:35:33.002Z</time></trkpt><trkpt lat="43.37309916563376" lon="3.280667760969439"><ele>38.333333333333336</ele><time>2026-03-17T15:35:34.002Z</time></trkpt><trkpt lat="43.373197814426945" lon="3.280836009278126"><ele>39.0</ele><time>2026-03-17T15:35:35.002Z</time></trkpt><trkpt lat="43.37328513738336" lon="3.2809869408994317"><ele>39.0</ele><time>2026-03-17T15:35:36.002Z</time></trkpt><trkpt lat="43.37336529858817" lon="3.281128087792676"><ele>39.0</ele><time>2026-03-17T15:35:37.002Z</time></trkpt><trkpt lat="43.373437671172155" lon="3.2812594837978346"><ele>39.0</ele><time>2026-03-17T15:35:38.002Z</time></trkpt><trkpt lat="43.37350996055771" lon="3.2813865425211843"><ele>39.0</ele><time>2026-03-17T15:35:39.002Z</time></trkpt><trkpt lat="43.37358517035899" lon="3.281522344808734"><ele>39.25</ele><time>2026-03-17T15:35:40.002Z</time></trkpt><trkpt lat="43.3736658978714" lon="3.281669605162453"><ele>39.5</ele><time>2026-03-17T15:35:41.002Z</time></trkpt><trkpt lat="43.37375269463824" lon="3.2818247216847154"><ele>39.75</ele><time>2026-03-17T15:35:42.002Z</time></trkpt><trkpt lat="43.37384324745163" lon="3.281987295548247"><ele>40.0</ele><time>2026-03-17T15:35:43.002Z</time></trkpt><trkpt lat="43.37393991671823" lon="3.2821615054751074"><ele>40.0</ele><time>2026-03-17T15:35:44.002Z</time></trkpt><trkpt lat="43.37403884335003" lon="3.282340519899647"><ele>40.0</ele><time>2026-03-17T15:35:45.002Z</time></trkpt><trkpt lat="43.37414216620487" lon="3.2825247690466126"><ele>40.0</ele><time>2026-03-17T15:35:46.002Z</time></trkpt><trkpt lat="43.3742521221526" lon="3.282716769936349"><ele>40.0</ele><time>2026-03-17T15:35:47.002Z</time></trkpt><trkpt lat="43.37435738137794" lon="3.282902203898275"><ele>40.0</ele><time>2026-03-17T15:35:48.002Z</time></trkpt><trkpt lat="43.374461868556494" lon="3.2830859711851264"><ele>40.0</ele><time>2026-03-17T15:35:49.002Z</time></trkpt><trkpt lat="43.37456191445615" lon="3.2832631797365197"><ele>40.0</ele><time>2026-03-17T15:35:50.002Z</time></trkpt><trkpt lat="43.37465752440682" lon="3.2834361100712526"><ele>40.0</ele><time>2026-03-17T15:35:51.002Z</time></trkpt><trkpt lat="43.37475070348926" lon="3.2836036771276316"><ele>40.0</ele><time>2026-03-17T15:35:52.002Z</time></trkpt><trkpt lat="43.37484196869973" lon="3.283765102090752"><ele>39.5</ele><time>2026-03-17T15:35:53.002Z</time></trkpt><trkpt lat="43.37493327715469" lon="3.2839235647204394"><ele>39.0</ele><time>2026-03-17T15:35:54.002Z</time></trkpt><trkpt lat="43.375021558929156" lon="3.2840781726492274"><ele>38.5</ele><time>2026-03-17T15:35:55.002Z</time></trkpt><trkpt lat="43.37510862305038" lon="3.284230918531059"><ele>38.0</ele><time>2026-03-17T15:35:56.002Z</time></trkpt><trkpt lat="43.37518898663759" lon="3.2843785474953564"><ele>38.0</ele><time>2026-03-17T15:35:57.002Z</time></trkpt><trkpt lat="43.37526751347417" lon="3.2845220339976953"><ele>38.0</ele><time>2026-03-17T15:35:58.002Z</time></trkpt><trkpt lat="43.37535221214994" lon="3.28467378924733"><ele>38.0</ele><time>2026-03-17T15:35:59.002Z</time></trkpt><trkpt lat="43.375439033512926" lon="3.2848289857370716"><ele>38.0</ele><time>2026-03-17T15:36:00.002Z</time></trkpt><trkpt lat="43.375517027750895" lon="3.2849700812536136"><ele>38.25</ele><time>2026-03-17T15:36:01.002Z</time></trkpt><trkpt lat="43.37559305437441" lon="3.2851077066980987"><ele>38.5</ele><time>2026-03-17T15:36:02.001Z</time></trkpt><trkpt lat="43.37567086317737" lon="3.2852474923471795"><ele>38.75</ele><time>2026-03-17T15:36:03.001Z</time></trkpt><trkpt lat="43.37574492007055" lon="3.2853893521124373"><ele>39.0</ele><time>2026-03-17T15:36:04.001Z</time></trkpt><trkpt lat="43.375818023879546" lon="3.2855352730040064"><ele>39.25</ele><time>2026-03-17T15:36:05.001Z</time></trkpt><trkpt lat="43.375885852806086" lon="3.285685168881312"><ele>39.5</ele><time>2026-03-17T15:36:06.001Z</time></trkpt><trkpt lat="43.37594952244885" lon="3.2858384629522823"><ele>39.75</ele><time>2026-03-17T15:36:07.001Z</time></trkpt><trkpt lat="43.37600822330575" lon="3.2859845795325833"><ele>40.0</ele><time>2026-03-17T15:36:08.001Z</time></trkpt><trkpt lat="43.37605942526992" lon="3.28612184068014"><ele>40.0</ele><time>2026-03-17T15:36:09.001Z</time></trkpt><trkpt lat="43.37610679928721" lon="3.286250250742697"><ele>40.0</ele><time>2026-03-17T15:36:10.001Z</time></trkpt><trkpt lat="43.37614772935687" lon="3.2863761038134456"><ele>40.0</ele><time>2026-03-17T15:36:11.001Z</time></trkpt><trkpt lat="43.3761883349918" lon="3.286499447717008"><ele>40.0</ele><time>2026-03-17T15:36:12.001Z</time></trkpt><trkpt lat="43.37623148462711" lon="3.2866341199375015"><ele>40.0</ele><time>2026-03-17T15:36:13.001Z</time></trkpt><trkpt lat="43.37627290526411" lon="3.2867783573815323"><ele>40.5</ele><time>2026-03-17T15:36:14.001Z</time></trkpt><trkpt lat="43.37631144560191" lon="3.286926731638167"><ele>41.0</ele><time>2026-03-17T15:36:15.001Z</time></trkpt><trkpt lat="43.376348877595824" lon="3.28708213925942"><ele>41.5</ele><time>2026-03-17T15:36:16.001Z</time></trkpt><trkpt lat="43.37638456354738" lon="3.28724415681071"><ele>42.0</ele><time>2026-03-17T15:36:17.001Z</time></trkpt><trkpt lat="43.376423849711664" lon="3.287419380898217"><ele>43.5</ele><time>2026-03-17T15:36:18.001Z</time></trkpt><trkpt lat="43.37645724416712" lon="3.287602309079759"><ele>45.0</ele><time>2026-03-17T15:36:19.001Z</time></trkpt><trkpt lat="43.37648335887777" lon="3.2877649928058617"><ele>46.5</ele><time>2026-03-17T15:36:20.001Z</time></trkpt><trkpt lat="43.376507129328694" lon="3.2879113795112986"><ele>48.0</ele><time>2026-03-17T15:36:21.001Z</time></trkpt><trkpt lat="43.37653094701129" lon="3.288054294931626"><ele>48.75</ele><time>2026-03-17T15:36:22.001Z</time></trkpt><trkpt lat="43.376552742220866" lon="3.2882073452017684"><ele>49.5</ele><time>2026-03-17T15:36:23.001Z</time></trkpt><trkpt lat="43.376577208703885" lon="3.2883658774605116"><ele>50.25</ele><time>2026-03-17T15:36:24.001Z</time></trkpt><trkpt lat="43.37660416810949" lon="3.288527878491187"><ele>51.0</ele><time>2026-03-17T15:36:25.001Z</time></trkpt><trkpt lat="43.37663225976989" lon="3.2886922737488593"><ele>51.0</ele><time>2026-03-17T15:36:26.001Z</time></trkpt><trkpt lat="43.37666173316727" lon="3.288862867066612"><ele>51.0</ele><time>2026-03-17T15:36:27.001Z</time></trkpt><trkpt lat="43.37669194327762" lon="3.2890475461018003"><ele>51.0</ele><time>2026-03-17T15:36:28.001Z</time></trkpt><trkpt lat="43.37672316319093" lon="3.2892494572817363"><ele>51.0</ele><time>2026-03-17T15:36:29.001Z</time></trkpt><trkpt lat="43.376757770532286" lon="3.2894753569466846"><ele>50.66666666666667</ele><time>2026-03-17T15:36:30.001Z</time></trkpt><trkpt lat="43.37679239000601" lon="3.289721155745121"><ele>50.333333333333336</ele><time>2026-03-17T15:36:31.001Z</time></trkpt><trkpt lat="43.376831849998304" lon="3.289981308134307"><ele>50.0</ele><time>2026-03-17T15:36:32.001Z</time></trkpt><trkpt lat="43.376868051485744" lon="3.2902458196029083"><ele>49.66666666666667</ele><time>2026-03-17T15:36:33.001Z</time></trkpt><trkpt lat="43.376909728916154" lon="3.290538105883066"><ele>49.33333333333333</ele><time>2026-03-17T15:36:34.001Z</time></trkpt><trkpt lat="43.376957855004" lon="3.2908423258376676"><ele>49.0</ele><time>2026-03-17T15:36:35.001Z</time></trkpt><trkpt lat="43.377007049368515" lon="3.291159870601893"><ele>48.5</ele><time>2026-03-17T15:36:36.001Z</time></trkpt><trkpt lat="43.37705961129471" lon="3.2914924709089104"><ele>48.0</ele><time>2026-03-17T15:36:37.001Z</time></trkpt><trkpt lat="43.37711226909877" lon="3.2918256095992398"><ele>48.0</ele><time>2026-03-17T15:36:38.001Z</time></trkpt><trkpt lat="43.37716421588681" lon="3.2921644735238433"><ele>48.0</ele><time>2026-03-17T15:36:39.001Z</time></trkpt><trkpt lat="43.37721733295702" lon="3.292498068493797"><ele>48.0</ele><time>2026-03-17T15:36:40.001Z</time></trkpt><trkpt lat="43.377270723679814" lon="3.2928307574470512"><ele>48.0</ele><time>2026-03-17T15:36:41.001Z</time></trkpt><trkpt lat="43.37731891915974" lon="3.293151283955264"><ele>48.0</ele><time>2026-03-17T15:36:42.001Z</time></trkpt><trkpt lat="43.37736517551059" lon="3.293465524503176"><ele>48.0</ele><time>2026-03-17T15:36:43.001Z</time></trkpt><trkpt lat="43.37741218848242" lon="3.2937745948760235"><ele>48.0</ele><time>2026-03-17T15:36:44.001Z</time></trkpt><trkpt lat="43.377458572666264" lon="3.294080713972465"><ele>48.0</ele><time>2026-03-17T15:36:45.001Z</time></trkpt><trkpt lat="43.377506397989244" lon="3.2943808130742487"><ele>48.0</ele><time>2026-03-17T15:36:46.001Z</time></trkpt><trkpt lat="43.37755406601572" lon="3.2946828427076973"><ele>48.0</ele><time>2026-03-17T15:36:47.001Z</time></trkpt><trkpt lat="43.37760024660605" lon="3.294983886644415"><ele>48.0</ele><time>2026-03-17T15:36:48.001Z</time></trkpt><trkpt lat="43.377646681781975" lon="3.2952808099850666"><ele>48.0</ele><time>2026-03-17T15:36:49.001Z</time></trkpt><trkpt lat="43.37769141228344" lon="3.295577252460615"><ele>48.0</ele><time>2026-03-17T15:36:50.001Z</time></trkpt><trkpt lat="43.37773680300818" lon="3.2958770233114976"><ele>48.0</ele><time>2026-03-17T15:36:51.001Z</time></trkpt><trkpt lat="43.37778208044171" lon="3.2961735478120113"><ele>48.66666666666667</ele><time>2026-03-17T15:36:52.001Z</time></trkpt><trkpt lat="43.37782854270222" lon="3.2964681738629635"><ele>49.333333333333336</ele><time>2026-03-17T15:36:53.001Z</time></trkpt><trkpt lat="43.37787766954437" lon="3.296759591691451"><ele>50.0</ele><time>2026-03-17T15:36:54.001Z</time></trkpt><trkpt lat="43.37792706283141" lon="3.2970485486553973"><ele>51.0</ele><time>2026-03-17T15:36:55.001Z</time></trkpt><trkpt lat="43.377981107900546" lon="3.2973357316059393"><ele>52.0</ele><time>2026-03-17T15:36:56.001Z</time></trkpt><trkpt lat="43.378039279914745" lon="3.297620563016976"><ele>53.0</ele><time>2026-03-17T15:36:57.001Z</time></trkpt><trkpt lat="43.378109565963456" lon="3.297899946391607"><ele>52.333333333333336</ele><time>2026-03-17T15:36:58.001Z</time></trkpt><trkpt lat="43.37819156857735" lon="3.2981732592429784"><ele>51.66666666666667</ele><time>2026-03-17T15:36:59.001Z</time></trkpt><trkpt lat="43.37828073897956" lon="3.2984335519285652"><ele>51.0</ele><time>2026-03-17T15:37:00.001Z</time></trkpt><trkpt lat="43.37837492998559" lon="3.298673642507388"><ele>51.0</ele><time>2026-03-17T15:37:01.001Z</time></trkpt><trkpt lat="43.378484464692875" lon="3.2989124347273964"><ele>51.0</ele><time>2026-03-17T15:37:02.001Z</time></trkpt><trkpt lat="43.37860287620309" lon="3.2991533642604844"><ele>51.0</ele><time>2026-03-17T15:37:03.001Z</time></trkpt><trkpt lat="43.37873068222941" lon="3.299398206292847"><ele>49.5</ele><time>2026-03-17T15:37:04.001Z</time></trkpt><trkpt lat="43.37886760076387" lon="3.2996447817170966"><ele>48.0</ele><time>2026-03-17T15:37:05.001Z</time></trkpt><trkpt lat="43.37901254369463" lon="3.2998932318088072"><ele>47.0</ele><time>2026-03-17T15:37:06.001Z</time></trkpt><trkpt lat="43.37916093650933" lon="3.30014599399608"><ele>46.0</ele><time>2026-03-17T15:37:07.001Z</time></trkpt><trkpt lat="43.37931071684487" lon="3.3004083206489514"><ele>44.5</ele><time>2026-03-17T15:37:08.001Z</time></trkpt><trkpt lat="43.37946533291229" lon="3.3006777525559006"><ele>43.0</ele><time>2026-03-17T15:37:09.001Z</time></trkpt><trkpt lat="43.37961631655809" lon="3.3009437362136658"><ele>41.5</ele><time>2026-03-17T15:37:10.001Z</time></trkpt><trkpt lat="43.37976729816807" lon="3.301206870687243"><ele>40.0</ele><time>2026-03-17T15:37:11.001Z</time></trkpt><trkpt lat="43.37991636005984" lon="3.3014695382125443"><ele>39.5</ele><time>2026-03-17T15:37:12.001Z</time></trkpt><trkpt lat="43.380062744876724" lon="3.30173151946363"><ele>39.0</ele><time>2026-03-17T15:37:13.001Z</time></trkpt><trkpt lat="43.380209847441634" lon="3.301989271707986"><ele>39.0</ele><time>2026-03-17T15:37:14.001Z</time></trkpt><trkpt lat="43.38035761460812" lon="3.302244896293373"><ele>39.0</ele><time>2026-03-17T15:37:15.001Z</time></trkpt><trkpt lat="43.38050533159711" lon="3.3024959550595834"><ele>40.0</ele><time>2026-03-17T15:37:16.001Z</time></trkpt><trkpt lat="43.380651521204335" lon="3.302743951713543"><ele>41.0</ele><time>2026-03-17T15:37:17.001Z</time></trkpt><trkpt lat="43.3807908884603" lon="3.3029846712638333"><ele>40.666666666666664</ele><time>2026-03-17T15:37:18.001Z</time></trkpt><trkpt lat="43.38092357209932" lon="3.303216427863662"><ele>40.333333333333336</ele><time>2026-03-17T15:37:19.001Z</time></trkpt><trkpt lat="43.38105424448572" lon="3.303443246792664"><ele>40.0</ele><time>2026-03-17T15:37:20.001Z</time></trkpt><trkpt lat="43.38118315918974" lon="3.303668040104534"><ele>40.0</ele><time>2026-03-17T15:37:21.001Z</time></trkpt><trkpt lat="43.38131052200992" lon="3.3038911688615116"><ele>40.0</ele><time>2026-03-17T15:37:22.001Z</time></trkpt><trkpt lat="43.38143750626265" lon="3.3041109169957585"><ele>40.0</ele><time>2026-03-17T15:37:23.001Z</time></trkpt><trkpt lat="43.38156226948091" lon="3.3043283504784458"><ele>39.333333333333336</ele><time>2026-03-17T15:37:24.001Z</time></trkpt><trkpt lat="43.38168536148313" lon="3.3045412269927197"><ele>38.666666666666664</ele><time>2026-03-17T15:37:25.001Z</time></trkpt><trkpt lat="43.381807214326955" lon="3.3047502439487544"><ele>38.0</ele><time>2026-03-17T15:37:26.001Z</time></trkpt><trkpt lat="43.381927763353254" lon="3.3049587239308083"><ele>37.666666666666664</ele><time>2026-03-17T15:37:27.001Z</time></trkpt><trkpt lat="43.382044723070564" lon="3.30516504032507"><ele>37.333333333333336</ele><time>2026-03-17T15:37:28.001Z</time></trkpt><trkpt lat="43.38216191954993" lon="3.3053743124936954"><ele>37.0</ele><time>2026-03-17T15:37:29.002Z</time></trkpt><trkpt lat="43.38228387292168" lon="3.3055795585633194"><ele>37.0</ele><time>2026-03-17T15:37:30.002Z</time></trkpt><trkpt lat="43.38240631995257" lon="3.30578508531383"><ele>37.0</ele><time>2026-03-17T15:37:31.002Z</time></trkpt><trkpt lat="43.382528827261204" lon="3.305992831636033"><ele>37.0</ele><time>2026-03-17T15:37:32.002Z</time></trkpt><trkpt lat="43.382648065089164" lon="3.306203889747063"><ele>36.66666666666667</ele><time>2026-03-17T15:37:33.002Z</time></trkpt><trkpt lat="43.382767386825364" lon="3.3064172513560584"><ele>36.333333333333336</ele><time>2026-03-17T15:37:34.002Z</time></trkpt><trkpt lat="43.38288539469091" lon="3.306628668086503"><ele>36.0</ele><time>2026-03-17T15:37:35.002Z</time></trkpt><trkpt lat="43.38300636623018" lon="3.3068391119286495"><ele>36.333333333333336</ele><time>2026-03-17T15:37:36.002Z</time></trkpt><trkpt lat="43.383122559205255" lon="3.307044462266678"><ele>36.66666666666667</ele><time>2026-03-17T15:37:37.002Z</time></trkpt><trkpt lat="43.38323278575463" lon="3.3072384684846385"><ele>37.0</ele><time>2026-03-17T15:37:38.002Z</time></trkpt><trkpt lat="43.383340591331404" lon="3.307433183839478"><ele>37.333333333333336</ele><time>2026-03-17T15:37:39.002Z</time></trkpt><trkpt lat="43.38345159786398" lon="3.3076242036530155"><ele>37.666666666666664</ele><time>2026-03-17T15:37:40.002Z</time></trkpt><trkpt lat="43.38356361003375" lon="3.307811742148663"><ele>38.0</ele><time>2026-03-17T15:37:41.002Z</time></trkpt><trkpt lat="43.383673757386994" lon="3.308001107149313"><ele>38.666666666666664</ele><time>2026-03-17T15:37:42.002Z</time></trkpt><trkpt lat="43.38378010352957" lon="3.3081855623194443"><ele>39.333333333333336</ele><time>2026-03-17T15:37:43.002Z</time></trkpt><trkpt lat="43.38388982328456" lon="3.3083686540832904"><ele>40.0</ele><time>2026-03-17T15:37:44.002Z</time></trkpt><trkpt lat="43.38400127297617" lon="3.3085623550132155"><ele>40.0</ele><time>2026-03-17T15:37:45.002Z</time></trkpt><trkpt lat="43.38411218224173" lon="3.3087613902425446"><ele>40.0</ele><time>2026-03-17T15:37:46.002Z</time></trkpt><trkpt lat="43.384227121419435" lon="3.3089615622434234"><ele>40.0</ele><time>2026-03-17T15:37:47.002Z</time></trkpt><trkpt lat="43.38434369780546" lon="3.3091623318456933"><ele>41.333333333333336</ele><time>2026-03-17T15:37:48.002Z</time></trkpt><trkpt lat="43.38445898873581" lon="3.3093624287326744"><ele>42.666666666666664</ele><time>2026-03-17T15:37:49.002Z</time></trkpt><trkpt lat="43.38457275009098" lon="3.309561663654248"><ele>44.0</ele><time>2026-03-17T15:37:50.002Z</time></trkpt><trkpt lat="43.38468580747281" lon="3.3097610495263927"><ele>44.666666666666664</ele><time>2026-03-17T15:37:51.002Z</time></trkpt><trkpt lat="43.38479641511166" lon="3.3099588124753656"><ele>45.333333333333336</ele><time>2026-03-17T15:37:52.002Z</time></trkpt><trkpt lat="43.38490689989978" lon="3.310148144897422"><ele>46.0</ele><time>2026-03-17T15:37:53.002Z</time></trkpt><trkpt lat="43.38501781171275" lon="3.3103340832442982"><ele>46.0</ele><time>2026-03-17T15:37:54.002Z</time></trkpt><trkpt lat="43.38512448341571" lon="3.310515613086049"><ele>46.0</ele><time>2026-03-17T15:37:55.002Z</time></trkpt><trkpt lat="43.385229207901446" lon="3.3106970058426657"><ele>46.0</ele><time>2026-03-17T15:37:56.002Z</time></trkpt><trkpt lat="43.385333565486626" lon="3.310875109105587"><ele>48.0</ele><time>2026-03-17T15:37:57.002Z</time></trkpt><trkpt lat="43.38543760242766" lon="3.3110525133802904"><ele>50.0</ele><time>2026-03-17T15:37:58.002Z</time></trkpt><trkpt lat="43.385541431562245" lon="3.3112340064220596"><ele>52.0</ele><time>2026-03-17T15:37:59.002Z</time></trkpt><trkpt lat="43.38564574776564" lon="3.311417381208356"><ele>52.666666666666664</ele><time>2026-03-17T15:38:00.002Z</time></trkpt><trkpt lat="43.38575434822768" lon="3.31160078980986"><ele>53.33333333333333</ele><time>2026-03-17T15:38:01.002Z</time></trkpt><trkpt lat="43.38587074968024" lon="3.3117821315674045"><ele>54.0</ele><time>2026-03-17T15:38:02.002Z</time></trkpt><trkpt lat="43.38599594073688" lon="3.3119580843383987"><ele>54.0</ele><time>2026-03-17T15:38:03.002Z</time></trkpt><trkpt lat="43.38612379996193" lon="3.312136308460443"><ele>54.0</ele><time>2026-03-17T15:38:04.002Z</time></trkpt><trkpt lat="43.386244480567946" lon="3.3123137345679217"><ele>54.0</ele><time>2026-03-17T15:38:05.002Z</time></trkpt><trkpt lat="43.38636138216029" lon="3.3124781721754992"><ele>55.66666666666667</ele><time>2026-03-17T15:38:06.002Z</time></trkpt><trkpt lat="43.3864757390805" lon="3.3126382418757765"><ele>57.333333333333336</ele><time>2026-03-17T15:38:07.002Z</time></trkpt><trkpt lat="43.38659220406369" lon="3.3127988114189577"><ele>59.0</ele><time>2026-03-17T15:38:08.001Z</time></trkpt><trkpt lat="43.38670798225764" lon="3.312960155955306"><ele>59.333333333333336</ele><time>2026-03-17T15:38:09.001Z</time></trkpt><trkpt lat="43.38682012461289" lon="3.3131147076179763"><ele>59.66666666666667</ele><time>2026-03-17T15:38:10.001Z</time></trkpt><trkpt lat="43.38693258849788" lon="3.3132666050655226"><ele>60.0</ele><time>2026-03-17T15:38:11.001Z</time></trkpt><trkpt lat="43.387043075978355" lon="3.3134169511067504"><ele>60.0</ele><time>2026-03-17T15:38:12.001Z</time></trkpt><trkpt lat="43.38715173436096" lon="3.3135681630355522"><ele>60.0</ele><time>2026-03-17T15:38:13.001Z</time></trkpt><trkpt lat="43.387257866660605" lon="3.313719674426334"><ele>60.0</ele><time>2026-03-17T15:38:14.001Z</time></trkpt><trkpt lat="43.387362784228316" lon="3.3138675203304433"><ele>60.75</ele><time>2026-03-17T15:38:15.001Z</time></trkpt><trkpt lat="43.387461751775206" lon="3.3140067414378964"><ele>61.5</ele><time>2026-03-17T15:38:16.001Z</time></trkpt><trkpt lat="43.38755476048363" lon="3.3141361474351467"><ele>62.25</ele><time>2026-03-17T15:38:17.001Z</time></trkpt><trkpt lat="43.38763888949029" lon="3.314252919406012"><ele>63.0</ele><time>2026-03-17T15:38:18.001Z</time></trkpt><trkpt lat="43.3877125468675" lon="3.314352536286651"><ele>63.0</ele><time>2026-03-17T15:38:19.001Z</time></trkpt><trkpt lat="43.38778178900825" lon="3.314444873578432"><ele>63.0</ele><time>2026-03-17T15:38:20.001Z</time></trkpt><trkpt lat="43.387839552880216" lon="3.3145224776406175"><ele>63.0</ele><time>2026-03-17T15:38:21.001Z</time></trkpt><trkpt lat="43.38788913230654" lon="3.314596925739127"><ele>63.0</ele><time>2026-03-17T15:38:22.001Z</time></trkpt><trkpt lat="43.38793385480874" lon="3.3146609057745478"><ele>63.0</ele><time>2026-03-17T15:38:23.001Z</time></trkpt><trkpt lat="43.3880233934175" lon="3.314785427838548"><ele>63.0</ele><time>2026-03-17T15:38:25.001Z</time></trkpt><trkpt lat="43.388075516524204" lon="3.3148576103987994"><ele>62.666666666666664</ele><time>2026-03-17T15:38:26.001Z</time></trkpt><trkpt lat="43.38813142840169" lon="3.314940548206651"><ele>62.33333333333333</ele><time>2026-03-17T15:38:27.001Z</time></trkpt><trkpt lat="43.38818945040916" lon="3.315027184220115"><ele>62.0</ele><time>2026-03-17T15:38:28.001Z</time></trkpt><trkpt lat="43.38823754945157" lon="3.315107828211864"><ele>61.666666666666664</ele><time>2026-03-17T15:38:29.001Z</time></trkpt><trkpt lat="43.38827718304565" lon="3.3151852447079286"><ele>61.33333333333333</ele><time>2026-03-17T15:38:31.001Z</time></trkpt><trkpt lat="43.38832069984712" lon="3.315284648825893"><ele>61.0</ele><time>2026-03-17T15:38:34.001Z</time></trkpt><trkpt lat="43.38833207791468" lon="3.315383105417189"><ele>60.99999999999999</ele><time>2026-03-17T15:38:35.001Z</time></trkpt><trkpt lat="43.38834423981937" lon="3.315481500998885"><ele>61.0</ele><time>2026-03-17T15:38:36.001Z</time></trkpt><trkpt lat="43.38837559505347" lon="3.315561085064457"><ele>60.99999999999999</ele><time>2026-03-17T15:38:37.001Z</time></trkpt><trkpt lat="43.388430189817555" lon="3.315624713752088"><ele>60.99999999999999</ele><time>2026-03-17T15:38:38.001Z</time></trkpt><trkpt lat="43.38848651410569" lon="3.315678769299686"><ele>61.0</ele><time>2026-03-17T15:38:39.001Z</time></trkpt><trkpt lat="43.38856811597662" lon="3.3156718235567397"><ele>60.99999999999999</ele><time>2026-03-17T15:38:40.001Z</time></trkpt><trkpt lat="43.388638300408566" lon="3.3156247629986857"><ele>60.99999999999999</ele><time>2026-03-17T15:38:41.001Z</time></trkpt><trkpt lat="43.38871483077539" lon="3.315451082825685"><ele>61.0</ele><time>2026-03-17T15:38:43.001Z</time></trkpt><trkpt lat="43.38873664686595" lon="3.3153556408141673"><ele>60.99999999999999</ele><time>2026-03-17T15:38:44.001Z</time></trkpt><trkpt lat="43.38878922118448" lon="3.315251652544491"><ele>60.99999999999999</ele><time>2026-03-17T15:38:45.001Z</time></trkpt><trkpt lat="43.388871415017164" lon="3.315162593532457"><ele>61.0</ele><time>2026-03-17T15:38:46.001Z</time></trkpt><trkpt lat="43.3889635192215" lon="3.315098639768432"><ele>61.0</ele><time>2026-03-17T15:38:47.001Z</time></trkpt><trkpt lat="43.38906149474547" lon="3.315045046808689"><ele>61.0</ele><time>2026-03-17T15:38:48.001Z</time></trkpt><trkpt lat="43.38916324474707" lon="3.314980804520976"><ele>61.0</ele><time>2026-03-17T15:38:49.001Z</time></trkpt><trkpt lat="43.389265803168264" lon="3.314909233834773"><ele>61.0</ele><time>2026-03-17T15:38:50.001Z</time></trkpt><trkpt lat="43.38937218719912" lon="3.314835254323941"><ele>61.0</ele><time>2026-03-17T15:38:51.001Z</time></trkpt><trkpt lat="43.38948498574523" lon="3.314759496787699"><ele>61.0</ele><time>2026-03-17T15:38:52.001Z</time></trkpt><trkpt lat="43.38959421338612" lon="3.3146793303807107"><ele>60.99999999999999</ele><time>2026-03-17T15:38:53.001Z</time></trkpt><trkpt lat="43.38968643080634" lon="3.3146045436680773"><ele>60.99999999999999</ele><time>2026-03-17T15:38:54.001Z</time></trkpt><trkpt lat="43.3897697986539" lon="3.314537343643681"><ele>61.0</ele><time>2026-03-17T15:38:55.001Z</time></trkpt><trkpt lat="43.389853495103935" lon="3.3144714270134443"><ele>61.0</ele><time>2026-03-17T15:38:56.001Z</time></trkpt><trkpt lat="43.389942266679256" lon="3.3143965427565187"><ele>61.0</ele><time>2026-03-17T15:38:57.001Z</time></trkpt><trkpt lat="43.39003623247995" lon="3.314321071241562"><ele>60.99999999999999</ele><time>2026-03-17T15:38:58.001Z</time></trkpt><trkpt lat="43.39013234483321" lon="3.3142459349518645"><ele>60.99999999999999</ele><time>2026-03-17T15:38:59.001Z</time></trkpt><trkpt lat="43.390202241861026" lon="3.3141729455026456"><ele>61.0</ele><time>2026-03-17T15:39:00.001Z</time></trkpt><trkpt lat="43.390282969954754" lon="3.314094615076594"><ele>61.0</ele><time>2026-03-17T15:39:01.001Z</time></trkpt><trkpt lat="43.39037660553658" lon="3.3140139654771343"><ele>61.0</ele><time>2026-03-17T15:39:02.001Z</time></trkpt><trkpt lat="43.39047139772871" lon="3.3139345487952685"><ele>60.99999999999999</ele><time>2026-03-17T15:39:03.001Z</time></trkpt><trkpt lat="43.39056161076485" lon="3.313865902621061"><ele>60.99999999999999</ele><time>2026-03-17T15:39:04.001Z</time></trkpt><trkpt lat="43.390650572689076" lon="3.3138047220805658"><ele>61.0</ele><time>2026-03-17T15:39:05.001Z</time></trkpt><trkpt lat="43.39074704426439" lon="3.3137647690618772"><ele>61.0</ele><time>2026-03-17T15:39:06.001Z</time></trkpt><trkpt lat="43.39085604828758" lon="3.313740492485368"><ele>60.75</ele><time>2026-03-17T15:39:07.001Z</time></trkpt><trkpt lat="43.39097441744968" lon="3.313719198878182"><ele>60.5</ele><time>2026-03-17T15:39:08.001Z</time></trkpt><trkpt lat="43.39110226703267" lon="3.3137095086462534"><ele>60.25</ele><time>2026-03-17T15:39:09.001Z</time></trkpt><trkpt lat="43.39122779127835" lon="3.3137073382284523"><ele>60.0</ele><time>2026-03-17T15:39:10.001Z</time></trkpt><trkpt lat="43.391360814864825" lon="3.3136930726454836"><ele>59.0</ele><time>2026-03-17T15:39:11.001Z</time></trkpt><trkpt lat="43.39150038389887" lon="3.313648341709307"><ele>58.0</ele><time>2026-03-17T15:39:12.001Z</time></trkpt><trkpt lat="43.39164896272987" lon="3.3135715749740307"><ele>57.0</ele><time>2026-03-17T15:39:13.001Z</time></trkpt><trkpt lat="43.39180858675307" lon="3.313477481576349"><ele>57.0</ele><time>2026-03-17T15:39:14.001Z</time></trkpt><trkpt lat="43.391966028431554" lon="3.3133756826950242"><ele>57.0</ele><time>2026-03-17T15:39:15.001Z</time></trkpt><trkpt lat="43.39212672966239" lon="3.313259914170976"><ele>57.0</ele><time>2026-03-17T15:39:16.001Z</time></trkpt><trkpt lat="43.39229490554117" lon="3.3131449791457457"><ele>57.0</ele><time>2026-03-17T15:39:17.001Z</time></trkpt><trkpt lat="43.39247346762838" lon="3.3130443015520603"><ele>57.0</ele><time>2026-03-17T15:39:18.001Z</time></trkpt><trkpt lat="43.39266268844181" lon="3.312966413523188"><ele>57.0</ele><time>2026-03-17T15:39:19.001Z</time></trkpt><trkpt lat="43.392856852522726" lon="3.3128950392304373"><ele>57.0</ele><time>2026-03-17T15:39:20.001Z</time></trkpt><trkpt lat="43.393044785332876" lon="3.3128286767290045"><ele>57.0</ele><time>2026-03-17T15:39:21.001Z</time></trkpt><trkpt lat="43.393224169371116" lon="3.31277099452759"><ele>57.0</ele><time>2026-03-17T15:39:22.001Z</time></trkpt><trkpt lat="43.39339398243944" lon="3.312732945565468"><ele>57.0</ele><time>2026-03-17T15:39:23.001Z</time></trkpt><trkpt lat="43.393567605167725" lon="3.3127169167957717"><ele>57.0</ele><time>2026-03-17T15:39:24.001Z</time></trkpt><trkpt lat="43.39375225494241" lon="3.3127256084897962"><ele>57.0</ele><time>2026-03-17T15:39:25.001Z</time></trkpt><trkpt lat="43.39395133135113" lon="3.3127583069707685"><ele>57.33333333333333</ele><time>2026-03-17T15:39:26.001Z</time></trkpt><trkpt lat="43.39416753002932" lon="3.312798391177425"><ele>57.666666666666664</ele><time>2026-03-17T15:39:27.001Z</time></trkpt><trkpt lat="43.394389730502084" lon="3.312838416413831"><ele>58.0</ele><time>2026-03-17T15:39:28.001Z</time></trkpt><trkpt lat="43.39460674484571" lon="3.312882194344959"><ele>58.666666666666664</ele><time>2026-03-17T15:39:29.001Z</time></trkpt><trkpt lat="43.39480418074494" lon="3.312934526983866"><ele>59.33333333333333</ele><time>2026-03-17T15:39:30.001Z</time></trkpt><trkpt lat="43.3949825735648" lon="3.3129873996047525"><ele>60.0</ele><time>2026-03-17T15:39:31.001Z</time></trkpt><trkpt lat="43.395153476410044" lon="3.3130285908461197"><ele>60.0</ele><time>2026-03-17T15:39:32.001Z</time></trkpt><trkpt lat="43.3953271118522" lon="3.3130499995646803"><ele>60.0</ele><time>2026-03-17T15:39:33.001Z</time></trkpt><trkpt lat="43.39550573037794" lon="3.3130479435243005"><ele>60.0</ele><time>2026-03-17T15:39:34.001Z</time></trkpt><trkpt lat="43.39568496708244" lon="3.313005751438689"><ele>59.66666666666667</ele><time>2026-03-17T15:39:35.001Z</time></trkpt><trkpt lat="43.39586334778497" lon="3.3129232518839173"><ele>59.333333333333336</ele><time>2026-03-17T15:39:36.001Z</time></trkpt><trkpt lat="43.39604478664178" lon="3.312815068527459"><ele>59.0</ele><time>2026-03-17T15:39:37.001Z</time></trkpt><trkpt lat="43.39623057485055" lon="3.312699223354335"><ele>57.66666666666667</ele><time>2026-03-17T15:39:38.001Z</time></trkpt><trkpt lat="43.39640598458324" lon="3.3125919474320638"><ele>56.33333333333333</ele><time>2026-03-17T15:39:39.001Z</time></trkpt><trkpt lat="43.39656845119316" lon="3.3125004281760617"><ele>55.0</ele><time>2026-03-17T15:39:40.001Z</time></trkpt><trkpt lat="43.39673181589748" lon="3.312435039806779"><ele>55.0</ele><time>2026-03-17T15:39:41.001Z</time></trkpt><trkpt lat="43.39689789436861" lon="3.3123986764218927"><ele>55.0</ele><time>2026-03-17T15:39:42.001Z</time></trkpt><trkpt lat="43.39707128166053" lon="3.312388070438055"><ele>55.0</ele><time>2026-03-17T15:39:43.001Z</time></trkpt><trkpt lat="43.397257308790515" lon="3.31240499411463"><ele>55.666666666666664</ele><time>2026-03-17T15:39:44.001Z</time></trkpt><trkpt lat="43.397450684966536" lon="3.312435536429044"><ele>56.33333333333333</ele><time>2026-03-17T15:39:45.001Z</time></trkpt><trkpt lat="43.39763817912087" lon="3.31246837221295"><ele>57.0</ele><time>2026-03-17T15:39:46.001Z</time></trkpt><trkpt lat="43.39780308278222" lon="3.3124875629041775"><ele>57.0</ele><time>2026-03-17T15:39:47.001Z</time></trkpt><trkpt lat="43.39795821612681" lon="3.312465362110608"><ele>57.0</ele><time>2026-03-17T15:39:48.001Z</time></trkpt><trkpt lat="43.398106105236266" lon="3.312401916193671"><ele>57.0</ele><time>2026-03-17T15:39:49.002Z</time></trkpt><trkpt lat="43.39824892321767" lon="3.312311131196869"><ele>57.33333333333333</ele><time>2026-03-17T15:39:50.002Z</time></trkpt><trkpt lat="43.39839049430103" lon="3.312186529516664"><ele>57.666666666666664</ele><time>2026-03-17T15:39:51.002Z</time></trkpt><trkpt lat="43.398534679831" lon="3.312045199579383"><ele>58.0</ele><time>2026-03-17T15:39:52.002Z</time></trkpt><trkpt lat="43.39868708627687" lon="3.311901888124128"><ele>59.666666666666664</ele><time>2026-03-17T15:39:53.002Z</time></trkpt><trkpt lat="43.39886413567521" lon="3.3117711748334866"><ele>61.33333333333333</ele><time>2026-03-17T15:39:54.002Z</time></trkpt><trkpt lat="43.3990717959291" lon="3.3116763052799567"><ele>63.0</ele><time>2026-03-17T15:39:55.002Z</time></trkpt><trkpt lat="43.39928821691431" lon="3.311554654372982"><ele>63.0</ele><time>2026-03-17T15:39:56.002Z</time></trkpt><trkpt lat="43.399493733109814" lon="3.311442137010083"><ele>63.0</ele><time>2026-03-17T15:39:57.002Z</time></trkpt><trkpt lat="43.39967380851412" lon="3.3113197780093584"><ele>63.0</ele><time>2026-03-17T15:39:58.002Z</time></trkpt><trkpt lat="43.399847122043795" lon="3.3112326460160837"><ele>62.0</ele><time>2026-03-17T15:39:59.002Z</time></trkpt><trkpt lat="43.40001015387692" lon="3.311157754992128"><ele>61.0</ele><time>2026-03-17T15:40:00.002Z</time></trkpt><trkpt lat="43.40016994981064" lon="3.3111051977318957"><ele>60.0</ele><time>2026-03-17T15:40:01.002Z</time></trkpt><trkpt lat="43.40033362311271" lon="3.3110810298787228"><ele>61.0</ele><time>2026-03-17T15:40:02.002Z</time></trkpt><trkpt lat="43.400501965932946" lon="3.311082536347497"><ele>62.0</ele><time>2026-03-17T15:40:03.002Z</time></trkpt><trkpt lat="43.400675579291715" lon="3.3110926473550437"><ele>63.0</ele><time>2026-03-17T15:40:04.002Z</time></trkpt><trkpt lat="43.400858401132155" lon="3.3111056046580574"><ele>63.0</ele><time>2026-03-17T15:40:05.002Z</time></trkpt><trkpt lat="43.40104863801768" lon="3.3111185174838313"><ele>63.0</ele><time>2026-03-17T15:40:06.002Z</time></trkpt><trkpt lat="43.401245307108006" lon="3.3111321309248263"><ele>63.0</ele><time>2026-03-17T15:40:07.002Z</time></trkpt><trkpt lat="43.40144818112649" lon="3.311149898761693"><ele>62.33333333333333</ele><time>2026-03-17T15:40:08.002Z</time></trkpt><trkpt lat="43.40164802395317" lon="3.3111699333071396"><ele>61.666666666666664</ele><time>2026-03-17T15:40:09.002Z</time></trkpt><trkpt lat="43.401854347544976" lon="3.3111958890847606"><ele>61.0</ele><time>2026-03-17T15:40:10.002Z</time></trkpt><trkpt lat="43.402066707743934" lon="3.3112204690674036"><ele>60.666666666666664</ele><time>2026-03-17T15:40:11.002Z</time></trkpt><trkpt lat="43.40228628646576" lon="3.311243940493372"><ele>60.33333333333333</ele><time>2026-03-17T15:40:12.002Z</time></trkpt><trkpt lat="43.40250981441768" lon="3.3112687780480825"><ele>60.0</ele><time>2026-03-17T15:40:13.002Z</time></trkpt><trkpt lat="43.40273403422172" lon="3.31128612011446"><ele>60.0</ele><time>2026-03-17T15:40:14.001Z</time></trkpt><trkpt lat="43.40295909786011" lon="3.3112948797821646"><ele>60.0</ele><time>2026-03-17T15:40:15.001Z</time></trkpt><trkpt lat="43.40318591203414" lon="3.311297409891944"><ele>59.5</ele><time>2026-03-17T15:40:16.001Z</time></trkpt><trkpt lat="43.40341129623205" lon="3.31129272350452"><ele>59.0</ele><time>2026-03-17T15:40:17.001Z</time></trkpt><trkpt lat="43.40363857736483" lon="3.311273077590218"><ele>58.5</ele><time>2026-03-17T15:40:18.001Z</time></trkpt><trkpt lat="43.403872849450124" lon="3.3112408083377263"><ele>58.0</ele><time>2026-03-17T15:40:19.001Z</time></trkpt><trkpt lat="43.40411520829235" lon="3.31121827683288"><ele>58.0</ele><time>2026-03-17T15:40:20.001Z</time></trkpt><trkpt lat="43.40436394031162" lon="3.3112146427432747"><ele>58.0</ele><time>2026-03-17T15:40:21.001Z</time></trkpt><trkpt lat="43.404615878453875" lon="3.3112102312871996"><ele>59.5</ele><time>2026-03-17T15:40:22.001Z</time></trkpt><trkpt lat="43.40485642781199" lon="3.3112043751028746"><ele>61.0</ele><time>2026-03-17T15:40:23.001Z</time></trkpt><trkpt lat="43.405076297435144" lon="3.311202861100067"><ele>61.0</ele><time>2026-03-17T15:40:24.001Z</time></trkpt><trkpt lat="43.40528151632695" lon="3.3112103367153214"><ele>61.0</ele><time>2026-03-17T15:40:25.001Z</time></trkpt><trkpt lat="43.40547529087497" lon="3.3112321146046515"><ele>61.0</ele><time>2026-03-17T15:40:26.001Z</time></trkpt><trkpt lat="43.405672289219304" lon="3.3112644762839536"><ele>61.33333333333333</ele><time>2026-03-17T15:40:27.001Z</time></trkpt><trkpt lat="43.405875207456354" lon="3.311294123320135"><ele>61.66666666666667</ele><time>2026-03-17T15:40:28.001Z</time></trkpt><trkpt lat="43.406083509206944" lon="3.3113148757773048"><ele>62.0</ele><time>2026-03-17T15:40:29.001Z</time></trkpt><trkpt lat="43.406298681348744" lon="3.3113259734627554"><ele>61.333333333333336</ele><time>2026-03-17T15:40:30.001Z</time></trkpt><trkpt lat="43.406519672075994" lon="3.3113280589240186"><ele>60.66666666666667</ele><time>2026-03-17T15:40:31.001Z</time></trkpt><trkpt lat="43.40674301219737" lon="3.3113157900307026"><ele>60.0</ele><time>2026-03-17T15:40:32.001Z</time></trkpt><trkpt lat="43.406969016613104" lon="3.311299376113691"><ele>61.33333333333333</ele><time>2026-03-17T15:40:33.001Z</time></trkpt><trkpt lat="43.40719232747164" lon="3.3112816027208707"><ele>62.666666666666664</ele><time>2026-03-17T15:40:34.001Z</time></trkpt><trkpt lat="43.40740430766335" lon="3.311281331561217"><ele>64.0</ele><time>2026-03-17T15:40:35.001Z</time></trkpt><trkpt lat="43.40759817797698" lon="3.31122314804796"><ele>64.0</ele><time>2026-03-17T15:40:36.001Z</time></trkpt><trkpt lat="43.40777992904467" lon="3.311178118610566"><ele>64.0</ele><time>2026-03-17T15:40:37.001Z</time></trkpt><trkpt lat="43.40795132215362" lon="3.311132375401394"><ele>64.0</ele><time>2026-03-17T15:40:38.001Z</time></trkpt><trkpt lat="43.40811974025113" lon="3.3110998762451413"><ele>63.0</ele><time>2026-03-17T15:40:39.001Z</time></trkpt><trkpt lat="43.408292825738236" lon="3.311087012005602"><ele>62.0</ele><time>2026-03-17T15:40:40.001Z</time></trkpt><trkpt lat="43.40846765095361" lon="3.3110972632174662"><ele>61.0</ele><time>2026-03-17T15:40:41.001Z</time></trkpt><trkpt lat="43.40864443215294" lon="3.3111260016175543"><ele>61.0</ele><time>2026-03-17T15:40:42.001Z</time></trkpt><trkpt lat="43.40881674413515" lon="3.311163404652573"><ele>61.0</ele><time>2026-03-17T15:40:43.001Z</time></trkpt><trkpt lat="43.40898139395981" lon="3.3111953308716426"><ele>61.0</ele><time>2026-03-17T15:40:44.001Z</time></trkpt><trkpt lat="43.409138537322654" lon="3.31121569445493"><ele>61.33333333333333</ele><time>2026-03-17T15:40:45.001Z</time></trkpt><trkpt lat="43.40928679990925" lon="3.3112356347459206"><ele>61.66666666666667</ele><time>2026-03-17T15:40:46.001Z</time></trkpt><trkpt lat="43.40943884625024" lon="3.311160892959643"><ele>62.0</ele><time>2026-03-17T15:40:47.001Z</time></trkpt><trkpt lat="43.4096054218788" lon="3.311115428770688"><ele>62.333333333333336</ele><time>2026-03-17T15:40:48.001Z</time></trkpt><trkpt lat="43.40977290067535" lon="3.311046712233605"><ele>62.66666666666667</ele><time>2026-03-17T15:40:49.001Z</time></trkpt><trkpt lat="43.409949537156514" lon="3.3109742383277956"><ele>63.0</ele><time>2026-03-17T15:40:50.001Z</time></trkpt><trkpt lat="43.410132191524326" lon="3.310899295250779"><ele>63.0</ele><time>2026-03-17T15:40:51.001Z</time></trkpt><trkpt lat="43.41032079865692" lon="3.31079833296184"><ele>63.0</ele><time>2026-03-17T15:40:52.001Z</time></trkpt><trkpt lat="43.41051988012484" lon="3.3107172516287218"><ele>63.0</ele><time>2026-03-17T15:40:53.001Z</time></trkpt><trkpt lat="43.41070195917157" lon="3.310640938596049"><ele>61.33333333333333</ele><time>2026-03-17T15:40:54.001Z</time></trkpt><trkpt lat="43.41087519317591" lon="3.3105721148303777"><ele>59.666666666666664</ele><time>2026-03-17T15:40:55.001Z</time></trkpt><trkpt lat="43.4110444303138" lon="3.310504591641387"><ele>58.0</ele><time>2026-03-17T15:40:56.001Z</time></trkpt><trkpt lat="43.41121352197113" lon="3.31043433195118"><ele>58.33333333333333</ele><time>2026-03-17T15:40:57.001Z</time></trkpt><trkpt lat="43.411387836437626" lon="3.31036673915179"><ele>58.66666666666667</ele><time>2026-03-17T15:40:58.001Z</time></trkpt><trkpt lat="43.41155974441702" lon="3.310302815060286"><ele>59.0</ele><time>2026-03-17T15:40:59.001Z</time></trkpt><trkpt lat="43.41172517035476" lon="3.310239915052788"><ele>59.0</ele><time>2026-03-17T15:41:00.001Z</time></trkpt><trkpt lat="43.411887924789355" lon="3.3101828548480348"><ele>59.0</ele><time>2026-03-17T15:41:01.001Z</time></trkpt><trkpt lat="43.41203293992169" lon="3.310052489546392"><ele>59.0</ele><time>2026-03-17T15:41:02.001Z</time></trkpt><trkpt lat="43.41217189801739" lon="3.3099082383100384"><ele>57.0</ele><time>2026-03-17T15:41:03.001Z</time></trkpt><trkpt lat="43.41231378070443" lon="3.3097590335449203"><ele>55.0</ele><time>2026-03-17T15:41:04.001Z</time></trkpt><trkpt lat="43.41244237316461" lon="3.309593478452877"><ele>53.0</ele><time>2026-03-17T15:41:05.001Z</time></trkpt><trkpt lat="43.412582289305355" lon="3.3094701055194724"><ele>53.0</ele><time>2026-03-17T15:41:06.001Z</time></trkpt><trkpt lat="43.412712678932046" lon="3.309331900533909"><ele>53.0</ele><time>2026-03-17T15:41:07.001Z</time></trkpt><trkpt lat="43.41284559442367" lon="3.309201434602385"><ele>53.0</ele><time>2026-03-17T15:41:08.001Z</time></trkpt><trkpt lat="43.41296809519475" lon="3.3090712683216585"><ele>51.5</ele><time>2026-03-17T15:41:09.001Z</time></trkpt><trkpt lat="43.41309960511657" lon="3.3090084783747007"><ele>50.0</ele><time>2026-03-17T15:41:10.001Z</time></trkpt><trkpt lat="43.41323998800527" lon="3.3089483223291847"><ele>48.5</ele><time>2026-03-17T15:41:11.001Z</time></trkpt><trkpt lat="43.41339435881552" lon="3.308884307645812"><ele>47.0</ele><time>2026-03-17T15:41:12.001Z</time></trkpt><trkpt lat="43.41356025848575" lon="3.3088673289776214"><ele>46.666666666666664</ele><time>2026-03-17T15:41:13.001Z</time></trkpt><trkpt lat="43.41371234280692" lon="3.308851556789821"><ele>46.333333333333336</ele><time>2026-03-17T15:41:14.001Z</time></trkpt><trkpt lat="43.41385991881114" lon="3.308806573221193"><ele>46.0</ele><time>2026-03-17T15:41:15.001Z</time></trkpt><trkpt lat="43.4140062080453" lon="3.3087252599401933"><ele>44.66666666666667</ele><time>2026-03-17T15:41:16.001Z</time></trkpt><trkpt lat="43.41414656729579" lon="3.3086064042263104"><ele>43.333333333333336</ele><time>2026-03-17T15:41:17.001Z</time></trkpt><trkpt lat="43.41428269678476" lon="3.308465784488984"><ele>42.0</ele><time>2026-03-17T15:41:18.001Z</time></trkpt><trkpt lat="43.414419971312896" lon="3.3083234855095554"><ele>42.0</ele><time>2026-03-17T15:41:19.001Z</time></trkpt><trkpt lat="43.41454530381555" lon="3.308187050943686"><ele>42.0</ele><time>2026-03-17T15:41:20.001Z</time></trkpt><trkpt lat="43.414668095546055" lon="3.3080621925454605"><ele>42.0</ele><time>2026-03-17T15:41:21.001Z</time></trkpt><trkpt lat="43.41479962366256" lon="3.30799693264728"><ele>41.75</ele><time>2026-03-17T15:41:22.001Z</time></trkpt><trkpt lat="43.41492021949381" lon="3.307935170346759"><ele>41.5</ele><time>2026-03-17T15:41:23.001Z</time></trkpt><trkpt lat="43.41504652656138" lon="3.3079271093450395"><ele>41.25</ele><time>2026-03-17T15:41:24.001Z</time></trkpt><trkpt lat="43.41517745994727" lon="3.3079453308431797"><ele>41.0</ele><time>2026-03-17T15:41:25.001Z</time></trkpt><trkpt lat="43.4153074362816" lon="3.3079903734569833"><ele>41.0</ele><time>2026-03-17T15:41:26.001Z</time></trkpt><trkpt lat="43.41543955182069" lon="3.3080445028776118"><ele>41.0</ele><time>2026-03-17T15:41:27.001Z</time></trkpt><trkpt lat="43.41557632566988" lon="3.3080959825106175"><ele>41.0</ele><time>2026-03-17T15:41:28.001Z</time></trkpt><trkpt lat="43.415718877017" lon="3.308134001421685"><ele>41.0</ele><time>2026-03-17T15:41:29.001Z</time></trkpt><trkpt lat="43.41587045518892" lon="3.3081590433171475"><ele>40.666666666666664</ele><time>2026-03-17T15:41:30.001Z</time></trkpt><trkpt lat="43.41602671291204" lon="3.3081725541677196"><ele>40.333333333333336</ele><time>2026-03-17T15:41:31.001Z</time></trkpt><trkpt lat="43.416187211111286" lon="3.3081759353408846"><ele>40.0</ele><time>2026-03-17T15:41:32.001Z</time></trkpt><trkpt lat="43.41635126689096" lon="3.308179365851713"><ele>40.66666666666667</ele><time>2026-03-17T15:41:33.001Z</time></trkpt><trkpt lat="43.41651631742848" lon="3.308172643881858"><ele>41.333333333333336</ele><time>2026-03-17T15:41:34.001Z</time></trkpt><trkpt lat="43.416678983576276" lon="3.308149730065182"><ele>42.0</ele><time>2026-03-17T15:41:35.001Z</time></trkpt><trkpt lat="43.416834064181934" lon="3.3081176681526596"><ele>42.0</ele><time>2026-03-17T15:41:36.001Z</time></trkpt><trkpt lat="43.4169832734845" lon="3.3080779917037804"><ele>42.0</ele><time>2026-03-17T15:41:37.001Z</time></trkpt><trkpt lat="43.41712622847839" lon="3.3080324815115376"><ele>42.0</ele><time>2026-03-17T15:41:38.001Z</time></trkpt><trkpt lat="43.41726303793764" lon="3.3079779981651942"><ele>42.0</ele><time>2026-03-17T15:41:39.001Z</time></trkpt><trkpt lat="43.417397429063136" lon="3.3079202563552483"><ele>42.0</ele><time>2026-03-17T15:41:40.001Z</time></trkpt><trkpt lat="43.417529656617596" lon="3.307858762171305"><ele>42.0</ele><time>2026-03-17T15:41:41.001Z</time></trkpt><trkpt lat="43.417667023163396" lon="3.3078193843897883"><ele>42.0</ele><time>2026-03-17T15:41:42.001Z</time></trkpt><trkpt lat="43.41780372205703" lon="3.3077283600900724"><ele>42.0</ele><time>2026-03-17T15:41:43.001Z</time></trkpt><trkpt lat="43.41795658972036" lon="3.3076773437817457"><ele>41.333333333333336</ele><time>2026-03-17T15:41:44.001Z</time></trkpt><trkpt lat="43.41810768924952" lon="3.307603225113178"><ele>40.66666666666667</ele><time>2026-03-17T15:41:45.001Z</time></trkpt><trkpt lat="43.418260712671874" lon="3.3075286480933364"><ele>40.0</ele><time>2026-03-17T15:41:46.001Z</time></trkpt><trkpt lat="43.418413081113755" lon="3.307454404944866"><ele>40.0</ele><time>2026-03-17T15:41:47.001Z</time></trkpt><trkpt lat="43.418561985486214" lon="3.3073818496547673"><ele>40.0</ele><time>2026-03-17T15:41:48.001Z</time></trkpt><trkpt lat="43.41870925515081" lon="3.3073100909718445"><ele>40.0</ele><time>2026-03-17T15:41:49.001Z</time></trkpt><trkpt lat="43.418848244729595" lon="3.3072423667332824"><ele>39.75</ele><time>2026-03-17T15:41:50.001Z</time></trkpt><trkpt lat="43.41897758653296" lon="3.307180368719442"><ele>39.5</ele><time>2026-03-17T15:41:51.001Z</time></trkpt><trkpt lat="43.41909626022493" lon="3.3071265224855093"><ele>39.25</ele><time>2026-03-17T15:41:52.001Z</time></trkpt><trkpt lat="43.4192037375441" lon="3.307093994016967"><ele>39.0</ele><time>2026-03-17T15:41:53.001Z</time></trkpt><trkpt lat="43.41931155931017" lon="3.3070819430141514"><ele>39.0</ele><time>2026-03-17T15:41:54.001Z</time></trkpt><trkpt lat="43.419407254237164" lon="3.307075861877023"><ele>39.0</ele><time>2026-03-17T15:41:55.001Z</time></trkpt><trkpt lat="43.41949006692672" lon="3.3070193653212407"><ele>39.0</ele><time>2026-03-17T15:41:56.001Z</time></trkpt><trkpt lat="43.41957358497779" lon="3.306973408031788"><ele>39.0</ele><time>2026-03-17T15:41:57.001Z</time></trkpt><trkpt lat="43.41966138740947" lon="3.306927214627064"><ele>39.0</ele><time>2026-03-17T15:41:58.001Z</time></trkpt><trkpt lat="43.41973995286336" lon="3.306893792023971"><ele>39.5</ele><time>2026-03-17T15:41:59.001Z</time></trkpt><trkpt lat="43.41982278168423" lon="3.3068638297045556"><ele>40.0</ele><time>2026-03-17T15:42:00.001Z</time></trkpt><trkpt lat="43.419898842916695" lon="3.3068341009360958"><ele>40.5</ele><time>2026-03-17T15:42:01.001Z</time></trkpt><trkpt lat="43.41996324418071" lon="3.306811888516945"><ele>41.0</ele><time>2026-03-17T15:42:02.001Z</time></trkpt><trkpt lat="43.42006551053124" lon="3.306784564393309"><ele>41.5</ele><time>2026-03-17T15:42:04.001Z</time></trkpt><trkpt lat="43.42012866572579" lon="3.3067839045047283"><ele>42.0</ele><time>2026-03-17T15:42:06.001Z</time></trkpt><trkpt lat="43.420106346494904" lon="3.3065829318705595"><ele>42.0</ele><time>2026-03-17T15:42:07.001Z</time></trkpt><trkpt lat="43.42011021452812" lon="3.3064770285600624"><ele>42.0</ele><time>2026-03-17T15:42:08.001Z</time></trkpt><trkpt lat="43.42010640853967" lon="3.3063304493124877"><ele>42.0</ele><time>2026-03-17T15:42:10.001Z</time></trkpt><trkpt lat="43.420105756266686" lon="3.306186395304852"><ele>42.0</ele><time>2026-03-17T15:42:12.001Z</time></trkpt><trkpt lat="43.420104957342396" lon="3.3060937555548526"><ele>42.0</ele><time>2026-03-17T15:42:13.001Z</time></trkpt><trkpt lat="43.42010548747421" lon="3.3059810497416753"><ele>42.0</ele><time>2026-03-17T15:42:14.001Z</time></trkpt><trkpt lat="43.42009377035316" lon="3.3058542831895665"><ele>41.8</ele><time>2026-03-17T15:42:15.001Z</time></trkpt><trkpt lat="43.420095407618746" lon="3.3057190908601557"><ele>41.6</ele><time>2026-03-17T15:42:16.001Z</time></trkpt><trkpt lat="43.420094282463204" lon="3.305592116118487"><ele>41.4</ele><time>2026-03-17T15:42:17.001Z</time></trkpt><trkpt lat="43.420111174643274" lon="3.3054654858293446"><ele>41.199999999999996</ele><time>2026-03-17T15:42:18.001Z</time></trkpt><trkpt lat="43.42011632666041" lon="3.30533503921264"><ele>41.0</ele><time>2026-03-17T15:42:19.001Z</time></trkpt><trkpt lat="43.42012452313127" lon="3.3052081015702464"><ele>40.8</ele><time>2026-03-17T15:42:20Z</time></trkpt><trkpt lat="43.42012505644758" lon="3.305079712053175"><ele>40.599999999999994</ele><time>2026-03-17T15:42:21Z</time></trkpt><trkpt lat="43.42014390738176" lon="3.304954683913529"><ele>40.4</ele><time>2026-03-17T15:42:22Z</time></trkpt><trkpt lat="43.420162070275325" lon="3.3048254639082266"><ele>40.2</ele><time>2026-03-17T15:42:23Z</time></trkpt><trkpt lat="43.42018365646543" lon="3.304689791069126"><ele>40.0</ele><time>2026-03-17T15:42:24Z</time></trkpt><trkpt lat="43.420209581669376" lon="3.304556334859452"><ele>40.66666666666667</ele><time>2026-03-17T15:42:25Z</time></trkpt><trkpt lat="43.42024012818131" lon="3.30444580577541"><ele>41.333333333333336</ele><time>2026-03-17T15:42:26Z</time></trkpt><trkpt lat="43.42026396431453" lon="3.3043422635971833"><ele>42.0</ele><time>2026-03-17T15:42:27Z</time></trkpt><trkpt lat="43.4202893749201" lon="3.3042457516878088"><ele>42.666666666666664</ele><time>2026-03-17T15:42:28Z</time></trkpt><trkpt lat="43.4203174521214" lon="3.304144843852762"><ele>43.33333333333333</ele><time>2026-03-17T15:42:29Z</time></trkpt><trkpt lat="43.4203472932634" lon="3.3040442427601944"><ele>44.0</ele><time>2026-03-17T15:42:30Z</time></trkpt><trkpt lat="43.42038107920504" lon="3.3039411517375314"><ele>43.800000000000004</ele><time>2026-03-17T15:42:31Z</time></trkpt><trkpt lat="43.42043488360269" lon="3.3038531154341375"><ele>43.6</ele><time>2026-03-17T15:42:32Z</time></trkpt><trkpt lat="43.42048074310743" lon="3.303755171626703"><ele>43.4</ele><time>2026-03-17T15:42:33Z</time></trkpt><trkpt lat="43.420530396698375" lon="3.3036474689409236"><ele>43.2</ele><time>2026-03-17T15:42:34Z</time></trkpt><trkpt lat="43.42057213256493" lon="3.303520471272073"><ele>43.0</ele><time>2026-03-17T15:42:35Z</time></trkpt><trkpt lat="43.42064611191449" lon="3.3034184038453076"><ele>43.0</ele><time>2026-03-17T15:42:36Z</time></trkpt><trkpt lat="43.420712653139084" lon="3.3033051651776253"><ele>43.0</ele><time>2026-03-17T15:42:37Z</time></trkpt><trkpt lat="43.42078605855376" lon="3.3031882538364616"><ele>43.0</ele><time>2026-03-17T15:42:38Z</time></trkpt><trkpt lat="43.420857651909394" lon="3.303077258300417"><ele>43.0</ele><time>2026-03-17T15:42:39Z</time></trkpt><trkpt lat="43.420926390375804" lon="3.3029754165586453"><ele>43.0</ele><time>2026-03-17T15:42:40Z</time></trkpt><trkpt lat="43.42099946697899" lon="3.3028797540372707"><ele>43.75</ele><time>2026-03-17T15:42:41Z</time></trkpt><trkpt lat="43.42106251997449" lon="3.3027578214297137"><ele>44.5</ele><time>2026-03-17T15:42:42Z</time></trkpt><trkpt lat="43.42114169890106" lon="3.302650845484738"><ele>45.25</ele><time>2026-03-17T15:42:43Z</time></trkpt><trkpt lat="43.42122399970158" lon="3.3025404043355073"><ele>46.0</ele><time>2026-03-17T15:42:44Z</time></trkpt><trkpt lat="43.42131023853003" lon="3.3024248040026887"><ele>46.4</ele><time>2026-03-17T15:42:45Z</time></trkpt><trkpt lat="43.42139548045554" lon="3.302301976426989"><ele>46.8</ele><time>2026-03-17T15:42:46Z</time></trkpt><trkpt lat="43.42147569935622" lon="3.302185609264205"><ele>47.199999999999996</ele><time>2026-03-17T15:42:47Z</time></trkpt><trkpt lat="43.421546720628314" lon="3.302082882174797"><ele>47.599999999999994</ele><time>2026-03-17T15:42:48Z</time></trkpt><trkpt lat="43.42161266156692" lon="3.301992592989463"><ele>48.0</ele><time>2026-03-17T15:42:49Z</time></trkpt><trkpt lat="43.42166415850873" lon="3.301920986610327"><ele>48.0</ele><time>2026-03-17T15:42:50Z</time></trkpt><trkpt lat="43.42171787351268" lon="3.3018188401807302"><ele>48.0</ele><time>2026-03-17T15:42:52Z</time></trkpt><trkpt lat="43.42166590753195" lon="3.3016626330230623"><ele>48.0</ele><time>2026-03-17T15:42:55Z</time></trkpt><trkpt lat="43.421606415625355" lon="3.301627828123795"><ele>48.0</ele><time>2026-03-17T15:42:56Z</time></trkpt><trkpt lat="43.42152987987107" lon="3.301571575561941"><ele>48.0</ele><time>2026-03-17T15:42:58Z</time></trkpt><trkpt lat="43.42151883163482" lon="3.3014845651732876"><ele>48.0</ele><time>2026-03-17T15:43:00Z</time></trkpt><trkpt lat="43.42159083208368" lon="3.301371588951711"><ele>48.333333333333336</ele><time>2026-03-17T15:43:02Z</time></trkpt><trkpt lat="43.42165849345253" lon="3.3013229083536606"><ele>48.66666666666667</ele><time>2026-03-17T15:43:03Z</time></trkpt><trkpt lat="43.42172235416075" lon="3.301268521433272"><ele>49.0</ele><time>2026-03-17T15:43:04Z</time></trkpt><trkpt lat="43.42177586029297" lon="3.3012066745594835"><ele>49.333333333333336</ele><time>2026-03-17T15:43:05Z</time></trkpt><trkpt lat="43.42183438138527" lon="3.301139976972472"><ele>49.66666666666667</ele><time>2026-03-17T15:43:06Z</time></trkpt><trkpt lat="43.42190985232507" lon="3.3010872249254595"><ele>50.0</ele><time>2026-03-17T15:43:07Z</time></trkpt><trkpt lat="43.421982439291185" lon="3.301010041732809"><ele>50.00000000000001</ele><time>2026-03-17T15:43:08Z</time></trkpt><trkpt lat="43.42205648242182" lon="3.300928321584634"><ele>50.0</ele><time>2026-03-17T15:43:09Z</time></trkpt><trkpt lat="43.42213102003427" lon="3.3008419207992463"><ele>50.0</ele><time>2026-03-17T15:43:10Z</time></trkpt><trkpt lat="43.42219005266734" lon="3.30074656207201"><ele>50.0</ele><time>2026-03-17T15:43:11Z</time></trkpt><trkpt lat="43.4222508198604" lon="3.3006682002130177"><ele>50.00000000000001</ele><time>2026-03-17T15:43:12Z</time></trkpt><trkpt lat="43.422310505672506" lon="3.300590610140981"><ele>50.0</ele><time>2026-03-17T15:43:13Z</time></trkpt><trkpt lat="43.42236691844197" lon="3.3005101430376897"><ele>50.16666666666667</ele><time>2026-03-17T15:43:14Z</time></trkpt><trkpt lat="43.42242051782538" lon="3.3004431334237467"><ele>50.333333333333336</ele><time>2026-03-17T15:43:15Z</time></trkpt><trkpt lat="43.4224694020192" lon="3.3003708430152785"><ele>50.5</ele><time>2026-03-17T15:43:17Z</time></trkpt><trkpt lat="43.422513238323845" lon="3.3003015690632145"><ele>50.66666666666667</ele><time>2026-03-17T15:43:20.001Z</time></trkpt><trkpt lat="43.422573671981745" lon="3.3002073024281637"><ele>50.833333333333336</ele><time>2026-03-17T15:43:23.001Z</time></trkpt><trkpt lat="43.42265439333672" lon="3.3000701883533132"><ele>51.0</ele><time>2026-03-17T15:43:25.001Z</time></trkpt><trkpt lat="43.42270314680424" lon="3.299997786537101"><ele>51.0</ele><time>2026-03-17T15:43:26.001Z</time></trkpt><trkpt lat="43.42275561756745" lon="3.2999128914981455"><ele>51.0</ele><time>2026-03-17T15:43:27.001Z</time></trkpt><trkpt lat="43.42281283547597" lon="3.299823663368359"><ele>51.0</ele><time>2026-03-17T15:43:28.001Z</time></trkpt><trkpt lat="43.42287154762739" lon="3.299729288666275"><ele>51.0</ele><time>2026-03-17T15:43:29.001Z</time></trkpt><trkpt lat="43.422930313578924" lon="3.2996382538753477"><ele>51.0</ele><time>2026-03-17T15:43:30.001Z</time></trkpt><trkpt lat="43.42299003189077" lon="3.299549933217631"><ele>51.0</ele><time>2026-03-17T15:43:31.001Z</time></trkpt><trkpt lat="43.423048592173956" lon="3.2994619942383854"><ele>51.5</ele><time>2026-03-17T15:43:32.001Z</time></trkpt><trkpt lat="43.42310957315422" lon="3.2993736330848162"><ele>52.0</ele><time>2026-03-17T15:43:33.001Z</time></trkpt><trkpt lat="43.42316778345401" lon="3.29928512397039"><ele>52.5</ele><time>2026-03-17T15:43:34.001Z</time></trkpt><trkpt lat="43.423211532995346" lon="3.299213512360048"><ele>53.0</ele><time>2026-03-17T15:43:35.001Z</time></trkpt><trkpt lat="43.42328102412725" lon="3.2991044992538545"><ele>53.5</ele><time>2026-03-17T15:43:39.001Z</time></trkpt><trkpt lat="43.423323793971385" lon="3.2990399856736454"><ele>54.0</ele><time>2026-03-17T15:43:41.001Z</time></trkpt><trkpt lat="43.42336623258893" lon="3.2989732441853903"><ele>54.0</ele><time>2026-03-17T15:43:42.001Z</time></trkpt><trkpt lat="43.42341735768777" lon="3.298895373708608"><ele>54.0</ele><time>2026-03-17T15:43:43.001Z</time></trkpt><trkpt lat="43.42347018973019" lon="3.298812989818068"><ele>54.0</ele><time>2026-03-17T15:43:44.001Z</time></trkpt><trkpt lat="43.42352150952063" lon="3.2987293045879187"><ele>54.0</ele><time>2026-03-17T15:43:45.001Z</time></trkpt><trkpt lat="43.42357444912575" lon="3.2986378470317947"><ele>54.0</ele><time>2026-03-17T15:43:46.001Z</time></trkpt><trkpt lat="43.423630000816665" lon="3.2985437574009966"><ele>54.0</ele><time>2026-03-17T15:43:47.001Z</time></trkpt><trkpt lat="43.423690272857385" lon="3.298447248682204"><ele>54.0</ele><time>2026-03-17T15:43:48.001Z</time></trkpt><trkpt lat="43.42375177724163" lon="3.298352040236903"><ele>54.00000000000001</ele><time>2026-03-17T15:43:49.001Z</time></trkpt><trkpt lat="43.42381716294873" lon="3.2982552749535112"><ele>54.00000000000001</ele><time>2026-03-17T15:43:50.001Z</time></trkpt><trkpt lat="43.42388010527177" lon="3.2981583861890043"><ele>54.0</ele><time>2026-03-17T15:43:51.001Z</time></trkpt><trkpt lat="43.42393828963126" lon="3.2980629266436052"><ele>54.0</ele><time>2026-03-17T15:43:52.001Z</time></trkpt><trkpt lat="43.42398902361429" lon="3.297975674285032"><ele>54.285714285714285</ele><time>2026-03-17T15:43:53.001Z</time></trkpt><trkpt lat="43.42403917644203" lon="3.297890043074432"><ele>54.57142857142857</ele><time>2026-03-17T15:43:54.001Z</time></trkpt><trkpt lat="43.424090187749634" lon="3.297810396102326"><ele>54.85714285714286</ele><time>2026-03-17T15:43:55.001Z</time></trkpt><trkpt lat="43.424137673831716" lon="3.2977323624358"><ele>55.14285714285714</ele><time>2026-03-17T15:43:56.001Z</time></trkpt><trkpt lat="43.42418325694419" lon="3.297653247446697"><ele>55.42857142857143</ele><time>2026-03-17T15:43:57.001Z</time></trkpt><trkpt lat="43.424231731572505" lon="3.297574932839929"><ele>55.714285714285715</ele><time>2026-03-17T15:43:58.001Z</time></trkpt><trkpt lat="43.42427779339052" lon="3.297506075928062"><ele>56.0</ele><time>2026-03-17T15:43:59.001Z</time></trkpt><trkpt lat="43.42434764191538" lon="3.2974315958211013"><ele>56.0</ele><time>2026-03-17T15:44:01.001Z</time></trkpt><trkpt lat="43.424436290393274" lon="3.297426101772297"><ele>56.0</ele><time>2026-03-17T15:44:03.001Z</time></trkpt><trkpt lat="43.42448440350962" lon="3.297494254248965"><ele>56.0</ele><time>2026-03-17T15:44:04.001Z</time></trkpt><trkpt lat="43.42454823304328" lon="3.2975440067042068"><ele>56.0</ele><time>2026-03-17T15:44:05.001Z</time></trkpt><trkpt lat="43.42460772411436" lon="3.2975905273757506"><ele>56.0</ele><time>2026-03-17T15:44:06.001Z</time></trkpt><trkpt lat="43.424670466166496" lon="3.2976395222750448"><ele>56.0</ele><time>2026-03-17T15:44:07.001Z</time></trkpt><trkpt lat="43.42472631432113" lon="3.2976881701799794"><ele>56.0</ele><time>2026-03-17T15:44:08.001Z</time></trkpt><trkpt lat="43.424779773576596" lon="3.2977382761750653"><ele>55.4</ele><time>2026-03-17T15:44:09.001Z</time></trkpt><trkpt lat="43.42488328885588" lon="3.2978219833148943"><ele>54.8</ele><time>2026-03-17T15:44:11.001Z</time></trkpt><trkpt lat="43.42496543585656" lon="3.2979417829913102"><ele>54.199999999999996</ele><time>2026-03-17T15:44:13.001Z</time></trkpt><trkpt lat="43.425030840130304" lon="3.2980383177148225"><ele>53.599999999999994</ele><time>2026-03-17T15:44:15.001Z</time></trkpt><trkpt lat="43.425071983445726" lon="3.2981181452792807"><ele>53.0</ele><time>2026-03-17T15:44:18.001Z</time></trkpt><trkpt lat="43.4251332434154" lon="3.298174396778937"><ele>53.0</ele><time>2026-03-17T15:44:21.001Z</time></trkpt><trkpt lat="43.425193661253424" lon="3.298149201611031"><ele>53.0</ele><time>2026-03-17T15:44:23.001Z</time></trkpt><trkpt lat="43.42521451318882" lon="3.2980210600467372"><ele>53.0</ele><time>2026-03-17T15:44:24.001Z</time></trkpt><trkpt lat="43.425226321493554" lon="3.2979294683111626"><ele>53.0</ele><time>2026-03-17T15:44:25.001Z</time></trkpt><trkpt lat="43.42525818733789" lon="3.297843735615095"><ele>53.0</ele><time>2026-03-17T15:44:25.999Z</time></trkpt><trkpt lat="43.425295527796294" lon="3.2977665176771906"><ele>53.0</ele><time>2026-03-17T15:44:26.999Z</time></trkpt><trkpt lat="43.42533174127967" lon="3.297675572972604"><ele>53.0</ele><time>2026-03-17T15:44:27.999Z</time></trkpt><trkpt lat="43.425382100368836" lon="3.297579887569153"><ele>52.833333333333336</ele><time>2026-03-17T15:44:28.999Z</time></trkpt><trkpt lat="43.42543113549498" lon="3.297473871039886"><ele>52.66666666666667</ele><time>2026-03-17T15:44:29.999Z</time></trkpt><trkpt lat="43.42547410483228" lon="3.29737912557152"><ele>52.5</ele><time>2026-03-17T15:44:30.999Z</time></trkpt><trkpt lat="43.425512705182925" lon="3.2972855002820647"><ele>52.33333333333333</ele><time>2026-03-17T15:44:31.999Z</time></trkpt><trkpt lat="43.425544582573416" lon="3.297207219036161"><ele>52.166666666666664</ele><time>2026-03-17T15:44:32.999Z</time></trkpt><trkpt lat="43.42559406377501" lon="3.297089085844644"><ele>52.0</ele><time>2026-03-17T15:44:34.999Z</time></trkpt><trkpt lat="43.42562740170323" lon="3.297013504140584"><ele>52.400000000000006</ele><time>2026-03-17T15:44:36.999Z</time></trkpt><trkpt lat="43.425659810430616" lon="3.2969378024471157"><ele>52.800000000000004</ele><time>2026-03-17T15:44:39.999Z</time></trkpt><trkpt lat="43.425718251062094" lon="3.2968072678875964"><ele>53.2</ele><time>2026-03-17T15:44:41.999Z</time></trkpt><trkpt lat="43.42578098782304" lon="3.2966720910583587"><ele>53.6</ele><time>2026-03-17T15:44:44Z</time></trkpt><trkpt lat="43.42583815327882" lon="3.2965439711881412"><ele>54.0</ele><time>2026-03-17T15:44:46Z</time></trkpt><trkpt lat="43.42588053331596" lon="3.296425600411791"><ele>54.5</ele><time>2026-03-17T15:44:48Z</time></trkpt><trkpt lat="43.425915552458775" lon="3.2963481724794534"><ele>55.0</ele><time>2026-03-17T15:44:51Z</time></trkpt><trkpt lat="43.42597151871337" lon="3.296217148230487"><ele>55.5</ele><time>2026-03-17T15:44:57Z</time></trkpt><trkpt lat="43.42603436683351" lon="3.2960681360132558"><ele>56.0</ele><time>2026-03-17T15:44:59Z</time></trkpt><trkpt lat="43.42606821911752" lon="3.295975570378974"><ele>56.5</ele><time>2026-03-17T15:45:00Z</time></trkpt><trkpt lat="43.42610377689846" lon="3.295889972021865"><ele>57.0</ele><time>2026-03-17T15:45:01Z</time></trkpt><trkpt lat="43.42614295142718" lon="3.2958009846730594"><ele>57.0</ele><time>2026-03-17T15:45:02Z</time></trkpt><trkpt lat="43.426184330452266" lon="3.295698328234141"><ele>57.0</ele><time>2026-03-17T15:45:03Z</time></trkpt><trkpt lat="43.426234990532606" lon="3.295589235397725"><ele>57.0</ele><time>2026-03-17T15:45:04Z</time></trkpt><trkpt lat="43.426285860505786" lon="3.29548279024042"><ele>57.0</ele><time>2026-03-17T15:45:05Z</time></trkpt><trkpt lat="43.4263317380122" lon="3.2953791200162823"><ele>57.0</ele><time>2026-03-17T15:45:06Z</time></trkpt><trkpt lat="43.42637594144101" lon="3.2952781433415157"><ele>57.0</ele><time>2026-03-17T15:45:07Z</time></trkpt><trkpt lat="43.426414677308074" lon="3.2951819489950975"><ele>57.0</ele><time>2026-03-17T15:45:08Z</time></trkpt><trkpt lat="43.42644884905575" lon="3.295088297836067"><ele>57.0</ele><time>2026-03-17T15:45:09Z</time></trkpt><trkpt lat="43.42648587872877" lon="3.2949926845157855"><ele>57.0</ele><time>2026-03-17T15:45:10Z</time></trkpt><trkpt lat="43.42651843234233" lon="3.294902804924261"><ele>57.0</ele><time>2026-03-17T15:45:11Z</time></trkpt><trkpt lat="43.42654240053839" lon="3.2948114867362395"><ele>57.0</ele><time>2026-03-17T15:45:12Z</time></trkpt><trkpt lat="43.42657582735735" lon="3.2947150149727373"><ele>57.0</ele><time>2026-03-17T15:45:13Z</time></trkpt><trkpt lat="43.426615910362024" lon="3.294612608187368"><ele>57.0</ele><time>2026-03-17T15:45:14Z</time></trkpt><trkpt lat="43.4266455902977" lon="3.294497443807792"><ele>57.0</ele><time>2026-03-17T15:45:15Z</time></trkpt><trkpt lat="43.42666733470811" lon="3.2943676246495808"><ele>57.0</ele><time>2026-03-17T15:45:16Z</time></trkpt><trkpt lat="43.42668469105994" lon="3.2942384264194526"><ele>57.0</ele><time>2026-03-17T15:45:17Z</time></trkpt><trkpt lat="43.42670261420956" lon="3.2941236902037634"><ele>57.0</ele><time>2026-03-17T15:45:18Z</time></trkpt><trkpt lat="43.42671885974867" lon="3.2940144485880167"><ele>57.0</ele><time>2026-03-17T15:45:19Z</time></trkpt><trkpt lat="43.42673653347179" lon="3.2939072086040917"><ele>57.333333333333336</ele><time>2026-03-17T15:45:20Z</time></trkpt><trkpt lat="43.42675113432283" lon="3.2938009145680005"><ele>57.66666666666667</ele><time>2026-03-17T15:45:21Z</time></trkpt><trkpt lat="43.42676527939709" lon="3.293694928250251"><ele>58.0</ele><time>2026-03-17T15:45:22Z</time></trkpt><trkpt lat="43.426771115161834" lon="3.2935854744645066"><ele>58.333333333333336</ele><time>2026-03-17T15:45:23Z</time></trkpt><trkpt lat="43.42678567697028" lon="3.293480483995113"><ele>58.66666666666667</ele><time>2026-03-17T15:45:24Z</time></trkpt><trkpt lat="43.42679954907094" lon="3.2933756367002163"><ele>59.0</ele><time>2026-03-17T15:45:25Z</time></trkpt><trkpt lat="43.42681327541703" lon="3.293262432728125"><ele>59.0</ele><time>2026-03-17T15:45:26Z</time></trkpt><trkpt lat="43.4268251675053" lon="3.2931551073867946"><ele>59.00000000000001</ele><time>2026-03-17T15:45:27Z</time></trkpt><trkpt lat="43.42683328029262" lon="3.2930525025104442"><ele>59.00000000000001</ele><time>2026-03-17T15:45:28Z</time></trkpt><trkpt lat="43.42683368227788" lon="3.2928921941645983"><ele>59.0</ele><time>2026-03-17T15:45:30Z</time></trkpt><trkpt lat="43.42683321644331" lon="3.2927310639080543"><ele>59.0</ele><time>2026-03-17T15:45:32Z</time></trkpt><trkpt lat="43.426832524069816" lon="3.2926370913904877"><ele>60.0</ele><time>2026-03-17T15:45:33Z</time></trkpt><trkpt lat="43.42682432000952" lon="3.292532608615766"><ele>61.00000000000001</ele><time>2026-03-17T15:45:34Z</time></trkpt><trkpt lat="43.426810632830424" lon="3.292419459553599"><ele>62.00000000000001</ele><time>2026-03-17T15:45:35Z</time></trkpt><trkpt lat="43.42680070351774" lon="3.292293719666993"><ele>63.0</ele><time>2026-03-17T15:45:36Z</time></trkpt><trkpt lat="43.42677936034931" lon="3.2921649831199047"><ele>64.0</ele><time>2026-03-17T15:45:37Z</time></trkpt><trkpt lat="43.426756324467945" lon="3.292026162066551"><ele>64.2</ele><time>2026-03-17T15:45:38Z</time></trkpt><trkpt lat="43.42673451996244" lon="3.2918782415781105"><ele>64.4</ele><time>2026-03-17T15:45:39Z</time></trkpt><trkpt lat="43.42670838478702" lon="3.2917309208289516"><ele>64.6</ele><time>2026-03-17T15:45:40Z</time></trkpt><trkpt lat="43.42668099146679" lon="3.291578257159495"><ele>64.8</ele><time>2026-03-17T15:45:41Z</time></trkpt><trkpt lat="43.42666111426959" lon="3.2914318337235793"><ele>65.0</ele><time>2026-03-17T15:45:42Z</time></trkpt><trkpt lat="43.426635407212714" lon="3.2912822772793486"><ele>65.25</ele><time>2026-03-17T15:45:43Z</time></trkpt><trkpt lat="43.42660814370581" lon="3.291125400513141"><ele>65.5</ele><time>2026-03-17T15:45:44Z</time></trkpt><trkpt lat="43.42658386841345" lon="3.290964582061835"><ele>65.75</ele><time>2026-03-17T15:45:45Z</time></trkpt><trkpt lat="43.42655698926678" lon="3.2908017742452818"><ele>66.0</ele><time>2026-03-17T15:45:46Z</time></trkpt><trkpt lat="43.42652685718428" lon="3.290630620241452"><ele>66.0</ele><time>2026-03-17T15:45:47Z</time></trkpt><trkpt lat="43.426496607259885" lon="3.290447939169206"><ele>66.0</ele><time>2026-03-17T15:45:48Z</time></trkpt><trkpt lat="43.42646352281694" lon="3.2902580558846455"><ele>66.0</ele><time>2026-03-17T15:45:49Z</time></trkpt><trkpt lat="43.42643023115219" lon="3.290062792908369"><ele>66.0</ele><time>2026-03-17T15:45:50Z</time></trkpt><trkpt lat="43.42639352837866" lon="3.289867857512572"><ele>66.0</ele><time>2026-03-17T15:45:51Z</time></trkpt><trkpt lat="43.42637292616192" lon="3.2896590989215584"><ele>66.0</ele><time>2026-03-17T15:45:52Z</time></trkpt><trkpt lat="43.426341079803144" lon="3.2894478459877456"><ele>66.0</ele><time>2026-03-17T15:45:53Z</time></trkpt><trkpt lat="43.42631022791806" lon="3.28923145485664"><ele>64.33333333333333</ele><time>2026-03-17T15:45:54Z</time></trkpt><trkpt lat="43.426278969248216" lon="3.2890123580259063"><ele>62.666666666666664</ele><time>2026-03-17T15:45:55Z</time></trkpt><trkpt lat="43.42623568392318" lon="3.288793661311289"><ele>61.0</ele><time>2026-03-17T15:45:56.001Z</time></trkpt><trkpt lat="43.42623460146183" lon="3.288566968648008"><ele>60.666666666666664</ele><time>2026-03-17T15:45:57.001Z</time></trkpt><trkpt lat="43.42622883697748" lon="3.28834560330531"><ele>60.33333333333333</ele><time>2026-03-17T15:45:58.001Z</time></trkpt><trkpt lat="43.42623031852083" lon="3.2881326747874"><ele>60.0</ele><time>2026-03-17T15:45:59.001Z</time></trkpt><trkpt lat="43.426248120324665" lon="3.2879263274496675"><ele>60.0</ele><time>2026-03-17T15:46:00.001Z</time></trkpt><trkpt lat="43.426278541959164" lon="3.2877229908842454"><ele>60.0</ele><time>2026-03-17T15:46:01.001Z</time></trkpt><trkpt lat="43.42630569039351" lon="3.2875180814315046"><ele>60.0</ele><time>2026-03-17T15:46:02.001Z</time></trkpt><trkpt lat="43.42637424988174" lon="3.287333122558373"><ele>60.66666666666667</ele><time>2026-03-17T15:46:03.001Z</time></trkpt><trkpt lat="43.426442606866324" lon="3.28714227528541"><ele>61.333333333333336</ele><time>2026-03-17T15:46:04.001Z</time></trkpt><trkpt lat="43.42652447358595" lon="3.2869568015217734"><ele>62.0</ele><time>2026-03-17T15:46:05.001Z</time></trkpt><trkpt lat="43.42661632714995" lon="3.286776874288657"><ele>62.0</ele><time>2026-03-17T15:46:06.001Z</time></trkpt><trkpt lat="43.42671537462527" lon="3.286596443944988"><ele>62.0</ele><time>2026-03-17T15:46:07.001Z</time></trkpt><trkpt lat="43.42682360706474" lon="3.2864130733840926"><ele>62.0</ele><time>2026-03-17T15:46:08.001Z</time></trkpt><trkpt lat="43.426937432211254" lon="3.2862275722469865"><ele>61.66666666666667</ele><time>2026-03-17T15:46:09.001Z</time></trkpt><trkpt lat="43.42704712128506" lon="3.2860507062088007"><ele>61.33333333333333</ele><time>2026-03-17T15:46:10.001Z</time></trkpt><trkpt lat="43.42716323862819" lon="3.2858634749306854"><ele>61.0</ele><time>2026-03-17T15:46:11.001Z</time></trkpt><trkpt lat="43.427273919076086" lon="3.2856567135000057"><ele>61.0</ele><time>2026-03-17T15:46:12.001Z</time></trkpt><trkpt lat="43.427406249451465" lon="3.2854716367170953"><ele>61.0</ele><time>2026-03-17T15:46:13.001Z</time></trkpt><trkpt lat="43.42753279741508" lon="3.28526758685345"><ele>61.0</ele><time>2026-03-17T15:46:14.001Z</time></trkpt><trkpt lat="43.427662154561254" lon="3.2850590072972796"><ele>61.0</ele><time>2026-03-17T15:46:15.001Z</time></trkpt><trkpt lat="43.427793838894885" lon="3.284846310007148"><ele>61.0</ele><time>2026-03-17T15:46:16.001Z</time></trkpt><trkpt lat="43.4279101116728" lon="3.2846261504364094"><ele>61.0</ele><time>2026-03-17T15:46:17.001Z</time></trkpt><trkpt lat="43.42803251206146" lon="3.2844283115418444"><ele>61.33333333333333</ele><time>2026-03-17T15:46:18.001Z</time></trkpt><trkpt lat="43.42815325210552" lon="3.2842358057439873"><ele>61.66666666666667</ele><time>2026-03-17T15:46:19.001Z</time></trkpt><trkpt lat="43.428266713909544" lon="3.2840539734624414"><ele>62.0</ele><time>2026-03-17T15:46:20.001Z</time></trkpt><trkpt lat="43.42837251019019" lon="3.2838819939987594"><ele>61.333333333333336</ele><time>2026-03-17T15:46:21.001Z</time></trkpt><trkpt lat="43.42847926546597" lon="3.2837087374253056"><ele>60.66666666666667</ele><time>2026-03-17T15:46:22.001Z</time></trkpt><trkpt lat="43.428589711433325" lon="3.2835349852075733"><ele>60.0</ele><time>2026-03-17T15:46:23.001Z</time></trkpt><trkpt lat="43.4287005713898" lon="3.283356753991478"><ele>60.66666666666667</ele><time>2026-03-17T15:46:24.001Z</time></trkpt><trkpt lat="43.428812054918914" lon="3.2831711981624556"><ele>61.333333333333336</ele><time>2026-03-17T15:46:25.001Z</time></trkpt><trkpt lat="43.42894001861291" lon="3.282997596498042"><ele>62.0</ele><time>2026-03-17T15:46:26.001Z</time></trkpt><trkpt lat="43.42904662119533" lon="3.2827939914265354"><ele>62.0</ele><time>2026-03-17T15:46:27.001Z</time></trkpt><trkpt lat="43.42916729347167" lon="3.2826015546876435"><ele>62.0</ele><time>2026-03-17T15:46:28.001Z</time></trkpt><trkpt lat="43.429287972602665" lon="3.282403804445646"><ele>62.0</ele><time>2026-03-17T15:46:29.001Z</time></trkpt><trkpt lat="43.42942612710048" lon="3.282216395494854"><ele>61.333333333333336</ele><time>2026-03-17T15:46:30.001Z</time></trkpt><trkpt lat="43.429552584382854" lon="3.2820131612031376"><ele>60.66666666666667</ele><time>2026-03-17T15:46:31.001Z</time></trkpt><trkpt lat="43.42966800737112" lon="3.2817927536900657"><ele>60.0</ele><time>2026-03-17T15:46:32Z</time></trkpt><trkpt lat="43.42979889530378" lon="3.281586443048348"><ele>59.33333333333333</ele><time>2026-03-17T15:46:33Z</time></trkpt><trkpt lat="43.42993192853127" lon="3.281377493382938"><ele>58.666666666666664</ele><time>2026-03-17T15:46:34Z</time></trkpt><trkpt lat="43.43006251922233" lon="3.2811653443179924"><ele>58.0</ele><time>2026-03-17T15:46:35Z</time></trkpt><trkpt lat="43.430193405333796" lon="3.280955243084631"><ele>58.0</ele><time>2026-03-17T15:46:36Z</time></trkpt><trkpt lat="43.43032309529479" lon="3.280748283068679"><ele>58.0</ele><time>2026-03-17T15:46:37Z</time></trkpt><trkpt lat="43.43046045340355" lon="3.2805614804500722"><ele>58.0</ele><time>2026-03-17T15:46:38Z</time></trkpt><trkpt lat="43.43057833145549" lon="3.2803717550348863"><ele>57.33333333333333</ele><time>2026-03-17T15:46:39Z</time></trkpt><trkpt lat="43.430690683003476" lon="3.2801909245707748"><ele>56.66666666666667</ele><time>2026-03-17T15:46:40Z</time></trkpt><trkpt lat="43.43080368064469" lon="3.280009054114864"><ele>56.0</ele><time>2026-03-17T15:46:41Z</time></trkpt><trkpt lat="43.430916280104434" lon="3.2798278244199377"><ele>55.66666666666667</ele><time>2026-03-17T15:46:42Z</time></trkpt><trkpt lat="43.431030399516786" lon="3.2796441498859434"><ele>55.33333333333333</ele><time>2026-03-17T15:46:43Z</time></trkpt><trkpt lat="43.43114571423915" lon="3.2794585501001214"><ele>55.0</ele><time>2026-03-17T15:46:44Z</time></trkpt><trkpt lat="43.43125206706016" lon="3.279256047926143"><ele>56.0</ele><time>2026-03-17T15:46:45Z</time></trkpt><trkpt lat="43.431369679443705" lon="3.2790649197764705"><ele>57.0</ele><time>2026-03-17T15:46:46Z</time></trkpt><trkpt lat="43.43149302939651" lon="3.2788888684296817"><ele>58.0</ele><time>2026-03-17T15:46:47Z</time></trkpt><trkpt lat="43.43159895871935" lon="3.278694906261937"><ele>58.33333333333333</ele><time>2026-03-17T15:46:48Z</time></trkpt><trkpt lat="43.43167614152993" lon="3.2784777263685734"><ele>58.66666666666667</ele><time>2026-03-17T15:46:49Z</time></trkpt><trkpt lat="43.43175124132104" lon="3.2782583156424954"><ele>59.0</ele><time>2026-03-17T15:46:50Z</time></trkpt><trkpt lat="43.43181379215036" lon="3.2780191463644894"><ele>59.0</ele><time>2026-03-17T15:46:51Z</time></trkpt><trkpt lat="43.43188052533606" lon="3.277774653396531"><ele>59.0</ele><time>2026-03-17T15:46:52Z</time></trkpt><trkpt lat="43.43194778687317" lon="3.277526169545265"><ele>59.0</ele><time>2026-03-17T15:46:53Z</time></trkpt><trkpt lat="43.43201521863834" lon="3.2772756836154184"><ele>59.0</ele><time>2026-03-17T15:46:54Z</time></trkpt><trkpt lat="43.432082363473725" lon="3.277032483936218"><ele>59.0</ele><time>2026-03-17T15:46:55Z</time></trkpt><trkpt lat="43.43214166232592" lon="3.276806287019776"><ele>59.0</ele><time>2026-03-17T15:46:56Z</time></trkpt><trkpt lat="43.432196357797054" lon="3.2765942300837456"><ele>60.0</ele><time>2026-03-17T15:46:57Z</time></trkpt><trkpt lat="43.4322526866296" lon="3.2763812735785147"><ele>61.0</ele><time>2026-03-17T15:46:58Z</time></trkpt><trkpt lat="43.43231050325519" lon="3.2761702565794066"><ele>62.0</ele><time>2026-03-17T15:46:59Z</time></trkpt><trkpt lat="43.432370305328924" lon="3.275960318705104"><ele>62.0</ele><time>2026-03-17T15:47:00Z</time></trkpt><trkpt lat="43.432428217884315" lon="3.2757471037512946"><ele>62.0</ele><time>2026-03-17T15:47:01Z</time></trkpt><trkpt lat="43.432484448091465" lon="3.2755290822610257"><ele>62.0</ele><time>2026-03-17T15:47:02Z</time></trkpt><trkpt lat="43.43254500038554" lon="3.2753066340430363"><ele>62.0</ele><time>2026-03-17T15:47:03Z</time></trkpt><trkpt lat="43.432618602725704" lon="3.2750863313088265"><ele>62.0</ele><time>2026-03-17T15:47:04Z</time></trkpt><trkpt lat="43.43270801735781" lon="3.274876541753342"><ele>62.0</ele><time>2026-03-17T15:47:05Z</time></trkpt><trkpt lat="43.43281743621162" lon="3.2746790260678718"><ele>61.333333333333336</ele><time>2026-03-17T15:47:06Z</time></trkpt><trkpt lat="43.43294512968397" lon="3.2744963220698846"><ele>60.66666666666667</ele><time>2026-03-17T15:47:07Z</time></trkpt><trkpt lat="43.43307628026232" lon="3.274310535918895"><ele>60.0</ele><time>2026-03-17T15:47:08Z</time></trkpt><trkpt lat="43.43320697782107" lon="3.274125800570725"><ele>61.0</ele><time>2026-03-17T15:47:09Z</time></trkpt><trkpt lat="43.43333284884158" lon="3.2739393797832834"><ele>62.0</ele><time>2026-03-17T15:47:10Z</time></trkpt><trkpt lat="43.433454067739895" lon="3.2737569704667404"><ele>63.0</ele><time>2026-03-17T15:47:11Z</time></trkpt><trkpt lat="43.43357427555392" lon="3.2735783844541233"><ele>63.0</ele><time>2026-03-17T15:47:12Z</time></trkpt><trkpt lat="43.43369315298002" lon="3.273400925594693"><ele>63.0</ele><time>2026-03-17T15:47:13Z</time></trkpt><trkpt lat="43.433812899286266" lon="3.273219894048986"><ele>63.0</ele><time>2026-03-17T15:47:14Z</time></trkpt><trkpt lat="43.433936657873986" lon="3.2730421410049138"><ele>63.33333333333333</ele><time>2026-03-17T15:47:15Z</time></trkpt><trkpt lat="43.434061182920956" lon="3.272867369917834"><ele>63.666666666666664</ele><time>2026-03-17T15:47:16Z</time></trkpt><trkpt lat="43.43418191397859" lon="3.272693938199027"><ele>64.0</ele><time>2026-03-17T15:47:17Z</time></trkpt><trkpt lat="43.43429464345237" lon="3.2725233210807856"><ele>64.0</ele><time>2026-03-17T15:47:18Z</time></trkpt><trkpt lat="43.43440623954764" lon="3.2723544224629078"><ele>64.0</ele><time>2026-03-17T15:47:19Z</time></trkpt><trkpt lat="43.434522372205656" lon="3.2721911566123962"><ele>64.0</ele><time>2026-03-17T15:47:20Z</time></trkpt><trkpt lat="43.434638181707435" lon="3.2720233787176776"><ele>64.33333333333333</ele><time>2026-03-17T15:47:21Z</time></trkpt><trkpt lat="43.43475464457995" lon="3.2718556893421034"><ele>64.66666666666667</ele><time>2026-03-17T15:47:22Z</time></trkpt><trkpt lat="43.434871300389005" lon="3.271687732526221"><ele>65.0</ele><time>2026-03-17T15:47:23Z</time></trkpt><trkpt lat="43.43498866994123" lon="3.2715210903216554"><ele>64.66666666666667</ele><time>2026-03-17T15:47:24Z</time></trkpt><trkpt lat="43.43510842692658" lon="3.271357395530347"><ele>64.33333333333333</ele><time>2026-03-17T15:47:25Z</time></trkpt><trkpt lat="43.43523629349195" lon="3.2712057553612306"><ele>64.0</ele><time>2026-03-17T15:47:26Z</time></trkpt><trkpt lat="43.43537988169626" lon="3.271084679524377"><ele>64.33333333333333</ele><time>2026-03-17T15:47:27Z</time></trkpt><trkpt lat="43.435536033427645" lon="3.270997787043274"><ele>64.66666666666667</ele><time>2026-03-17T15:47:28Z</time></trkpt><trkpt lat="43.43569472943552" lon="3.2709321747878666"><ele>65.0</ele><time>2026-03-17T15:47:29Z</time></trkpt><trkpt lat="43.43585695991737" lon="3.2708764720921417"><ele>65.0</ele><time>2026-03-17T15:47:30Z</time></trkpt><trkpt lat="43.43602043234084" lon="3.2708196364180346"><ele>65.0</ele><time>2026-03-17T15:47:31Z</time></trkpt><trkpt lat="43.43617727020524" lon="3.2707611601973716"><ele>65.0</ele><time>2026-03-17T15:47:32.001Z</time></trkpt><trkpt lat="43.43632691654995" lon="3.2707031081292364"><ele>65.5</ele><time>2026-03-17T15:47:33.001Z</time></trkpt><trkpt lat="43.43646542349906" lon="3.270646326706132"><ele>66.0</ele><time>2026-03-17T15:47:34.001Z</time></trkpt><trkpt lat="43.43659668453994" lon="3.270582256898177"><ele>66.5</ele><time>2026-03-17T15:47:35.001Z</time></trkpt><trkpt lat="43.43672819338733" lon="3.2705071107088544"><ele>67.0</ele><time>2026-03-17T15:47:36.001Z</time></trkpt><trkpt lat="43.43686147623468" lon="3.2704218500127795"><ele>67.0</ele><time>2026-03-17T15:47:37.001Z</time></trkpt><trkpt lat="43.436989099099335" lon="3.270311633724016"><ele>67.0</ele><time>2026-03-17T15:47:38.001Z</time></trkpt><trkpt lat="43.4371098295883" lon="3.2701755017969365"><ele>67.0</ele><time>2026-03-17T15:47:39.001Z</time></trkpt><trkpt lat="43.43722234082794" lon="3.2700199415267637"><ele>67.33333333333333</ele><time>2026-03-17T15:47:40.001Z</time></trkpt><trkpt lat="43.43732793477404" lon="3.2698503501224336"><ele>67.66666666666667</ele><time>2026-03-17T15:47:41.001Z</time></trkpt><trkpt lat="43.43742447312262" lon="3.269670153605287"><ele>68.0</ele><time>2026-03-17T15:47:42.001Z</time></trkpt><trkpt lat="43.43751867447581" lon="3.2694838466324176"><ele>68.0</ele><time>2026-03-17T15:47:43.001Z</time></trkpt><trkpt lat="43.437616749209816" lon="3.2693003746916256"><ele>68.0</ele><time>2026-03-17T15:47:44.001Z</time></trkpt><trkpt lat="43.43771439519071" lon="3.269114037632619"><ele>68.0</ele><time>2026-03-17T15:47:45.001Z</time></trkpt><trkpt lat="43.437805285195914" lon="3.2689185830643823"><ele>68.0</ele><time>2026-03-17T15:47:46.001Z</time></trkpt><trkpt lat="43.437899085726144" lon="3.268723312217005"><ele>68.0</ele><time>2026-03-17T15:47:47.001Z</time></trkpt><trkpt lat="43.43799661901277" lon="3.2685297255863848"><ele>68.0</ele><time>2026-03-17T15:47:48.001Z</time></trkpt><trkpt lat="43.43809466957155" lon="3.2683366184675875"><ele>68.0</ele><time>2026-03-17T15:47:49.001Z</time></trkpt><trkpt lat="43.43818732201724" lon="3.268145485441286"><ele>68.0</ele><time>2026-03-17T15:47:50.001Z</time></trkpt><trkpt lat="43.43827152844051" lon="3.2679711176347164"><ele>68.0</ele><time>2026-03-17T15:47:51.001Z</time></trkpt><trkpt lat="43.43835174318241" lon="3.2678084127980496"><ele>68.0</ele><time>2026-03-17T15:47:52.001Z</time></trkpt><trkpt lat="43.438427103125626" lon="3.2676579230247205"><ele>68.0</ele><time>2026-03-17T15:47:53.001Z</time></trkpt><trkpt lat="43.43851232529466" lon="3.2675247810534627"><ele>68.0</ele><time>2026-03-17T15:47:54.001Z</time></trkpt><trkpt lat="43.43858376435757" lon="3.267381524239632"><ele>68.0</ele><time>2026-03-17T15:47:55.001Z</time></trkpt><trkpt lat="43.438652721273776" lon="3.267243244925546"><ele>68.2</ele><time>2026-03-17T15:47:56.001Z</time></trkpt><trkpt lat="43.43870655444803" lon="3.267101075406329"><ele>68.4</ele><time>2026-03-17T15:47:57.001Z</time></trkpt><trkpt lat="43.43876961600699" lon="3.2669778640565306"><ele>68.60000000000001</ele><time>2026-03-17T15:47:58.001Z</time></trkpt><trkpt lat="43.43883631170081" lon="3.2668682398312705"><ele>68.8</ele><time>2026-03-17T15:47:59.001Z</time></trkpt><trkpt lat="43.43890748807554" lon="3.2667653338821236"><ele>69.0</ele><time>2026-03-17T15:48:00.001Z</time></trkpt><trkpt lat="43.43897787110791" lon="3.266677542914259"><ele>69.2</ele><time>2026-03-17T15:48:01.001Z</time></trkpt><trkpt lat="43.439027127909654" lon="3.266589733897501"><ele>69.4</ele><time>2026-03-17T15:48:02.001Z</time></trkpt><trkpt lat="43.43906404116792" lon="3.26651508121638"><ele>69.6</ele><time>2026-03-17T15:48:03.001Z</time></trkpt><trkpt lat="43.43911631531201" lon="3.266372953820989"><ele>69.8</ele><time>2026-03-17T15:48:05.001Z</time></trkpt><trkpt lat="43.43913570318857" lon="3.266211909203968"><ele>70.0</ele><time>2026-03-17T15:48:07.001Z</time></trkpt><trkpt lat="43.43914237616429" lon="3.2660886972776852"><ele>70.4</ele><time>2026-03-17T15:48:08.001Z</time></trkpt><trkpt lat="43.43916979657724" lon="3.265962767370973"><ele>70.8</ele><time>2026-03-17T15:48:09.001Z</time></trkpt><trkpt lat="43.439195543001496" lon="3.2658233084514294"><ele>71.2</ele><time>2026-03-17T15:48:10.001Z</time></trkpt><trkpt lat="43.43923895312162" lon="3.265683443970501"><ele>71.6</ele><time>2026-03-17T15:48:11.001Z</time></trkpt><trkpt lat="43.43925288678717" lon="3.265524327092152"><ele>72.0</ele><time>2026-03-17T15:48:12.001Z</time></trkpt><trkpt lat="43.439281887805386" lon="3.2653713390152967"><ele>72.16666666666667</ele><time>2026-03-17T15:48:13.001Z</time></trkpt><trkpt lat="43.43930927978152" lon="3.265240964782295"><ele>72.33333333333333</ele><time>2026-03-17T15:48:14.001Z</time></trkpt><trkpt lat="43.43933072184128" lon="3.2651220687371176"><ele>72.5</ele><time>2026-03-17T15:48:15.001Z</time></trkpt><trkpt lat="43.43935013436384" lon="3.2650132477763347"><ele>72.66666666666666</ele><time>2026-03-17T15:48:16.001Z</time></trkpt><trkpt lat="43.43936760995538" lon="3.264914182665719"><ele>72.83333333333333</ele><time>2026-03-17T15:48:17.001Z</time></trkpt><trkpt lat="43.43938403788351" lon="3.264827165858971"><ele>73.0</ele><time>2026-03-17T15:48:18.001Z</time></trkpt><trkpt lat="43.43940053655869" lon="3.2647308243093134"><ele>73.66666666666666</ele><time>2026-03-17T15:48:20.001Z</time></trkpt><trkpt lat="43.43942229323888" lon="3.264604450108958"><ele>74.33333333333333</ele><time>2026-03-17T15:48:22.001Z</time></trkpt><trkpt lat="43.4394376587876" lon="3.264512298615584"><ele>75.0</ele><time>2026-03-17T15:48:23.001Z</time></trkpt><trkpt lat="43.439456056655885" lon="3.264410367519276"><ele>75.66666666666667</ele><time>2026-03-17T15:48:24.001Z</time></trkpt><trkpt lat="43.439477519415995" lon="3.264307479556735"><ele>76.33333333333334</ele><time>2026-03-17T15:48:25.001Z</time></trkpt><trkpt lat="43.439499497669885" lon="3.2642074847845146"><ele>77.0</ele><time>2026-03-17T15:48:26.001Z</time></trkpt><trkpt lat="43.43951746810795" lon="3.26411229859721"><ele>77.0</ele><time>2026-03-17T15:48:27.001Z</time></trkpt><trkpt lat="43.43953069169867" lon="3.2640140252640726"><ele>77.0</ele><time>2026-03-17T15:48:28.001Z</time></trkpt><trkpt lat="43.439542939597075" lon="3.263916650108401"><ele>77.0</ele><time>2026-03-17T15:48:29.001Z</time></trkpt><trkpt lat="43.43956054970985" lon="3.26382672169803"><ele>77.0</ele><time>2026-03-17T15:48:30.001Z</time></trkpt><trkpt lat="43.439581217984546" lon="3.263736760281464"><ele>77.0</ele><time>2026-03-17T15:48:32.001Z</time></trkpt><trkpt lat="43.439596771550676" lon="3.263641552037525"><ele>77.0</ele><time>2026-03-17T15:48:35.001Z</time></trkpt><trkpt lat="43.439621180693635" lon="3.2635230124703853"><ele>77.0</ele><time>2026-03-17T15:48:45Z</time></trkpt><trkpt lat="43.43964156752922" lon="3.263383539052366"><ele>77.8</ele><time>2026-03-17T15:48:47Z</time></trkpt><trkpt lat="43.43966721981466" lon="3.2632362985871026"><ele>78.6</ele><time>2026-03-17T15:48:49Z</time></trkpt><trkpt lat="43.43969160821411" lon="3.263107392928065"><ele>79.39999999999999</ele><time>2026-03-17T15:48:51Z</time></trkpt><trkpt lat="43.43971229269384" lon="3.2630128034254064"><ele>80.2</ele><time>2026-03-17T15:48:53Z</time></trkpt><trkpt lat="43.43974151814376" lon="3.262880116440979"><ele>81.0</ele><time>2026-03-17T15:48:55Z</time></trkpt><trkpt lat="43.43977855890301" lon="3.2627310495648674"><ele>81.16666666666667</ele><time>2026-03-17T15:48:57Z</time></trkpt><trkpt lat="43.4398101886738" lon="3.2626351355987695"><ele>81.33333333333333</ele><time>2026-03-17T15:48:59Z</time></trkpt><trkpt lat="43.43985147524584" lon="3.2625019723056177"><ele>81.5</ele><time>2026-03-17T15:49:01Z</time></trkpt><trkpt lat="43.4398867089963" lon="3.2624012962572198"><ele>81.66666666666666</ele><time>2026-03-17T15:49:02Z</time></trkpt><trkpt lat="43.4399429200009" lon="3.2622979890590513"><ele>81.83333333333333</ele><time>2026-03-17T15:49:03Z</time></trkpt><trkpt lat="43.43998934962041" lon="3.262204535084413"><ele>82.0</ele><time>2026-03-17T15:49:04Z</time></trkpt><trkpt lat="43.44003137839532" lon="3.2621217880168794"><ele>82.19999999999999</ele><time>2026-03-17T15:49:05Z</time></trkpt><trkpt lat="43.44006626343117" lon="3.2620469648089485"><ele>82.4</ele><time>2026-03-17T15:49:06Z</time></trkpt><trkpt lat="43.44012519718659" lon="3.261909280670215"><ele>82.6</ele><time>2026-03-17T15:49:08Z</time></trkpt><trkpt lat="43.440197634465626" lon="3.2617577460837532"><ele>82.80000000000001</ele><time>2026-03-17T15:49:10Z</time></trkpt><trkpt lat="43.440238819054706" lon="3.2616692503688545"><ele>83.0</ele><time>2026-03-17T15:49:11Z</time></trkpt><trkpt lat="43.440279008261044" lon="3.2615694159353787"><ele>83.0</ele><time>2026-03-17T15:49:12Z</time></trkpt><trkpt lat="43.4403124930118" lon="3.2614585931965454"><ele>83.0</ele><time>2026-03-17T15:49:13Z</time></trkpt><trkpt lat="43.440335335037645" lon="3.261336193461235"><ele>83.0</ele><time>2026-03-17T15:49:14Z</time></trkpt><trkpt lat="43.44035405763493" lon="3.2612290292507398"><ele>83.0</ele><time>2026-03-17T15:49:15Z</time></trkpt><trkpt lat="43.44036499841031" lon="3.261143196499054"><ele>83.0</ele><time>2026-03-17T15:49:16Z</time></trkpt><trkpt lat="43.44037975513428" lon="3.261029421303521"><ele>83.0</ele><time>2026-03-17T15:49:19Z</time></trkpt><trkpt lat="43.440403520328736" lon="3.2608557181623765"><ele>83.0</ele><time>2026-03-17T15:49:21.001Z</time></trkpt><trkpt lat="43.440418475495235" lon="3.260754894975071"><ele>83.0</ele><time>2026-03-17T15:49:22.001Z</time></trkpt><trkpt lat="43.440431495432264" lon="3.260644280131175"><ele>83.0</ele><time>2026-03-17T15:49:23.001Z</time></trkpt><trkpt lat="43.44044221593824" lon="3.2605192333641897"><ele>83.0</ele><time>2026-03-17T15:49:24.001Z</time></trkpt><trkpt lat="43.44045538691099" lon="3.260387065714188"><ele>83.0</ele><time>2026-03-17T15:49:25.001Z</time></trkpt><trkpt lat="43.44047303041305" lon="3.260260245652571"><ele>83.0</ele><time>2026-03-17T15:49:26.001Z</time></trkpt><trkpt lat="43.440490403933566" lon="3.260120826648904"><ele>83.2</ele><time>2026-03-17T15:49:27.001Z</time></trkpt><trkpt lat="43.4405096448945" lon="3.259975641122106"><ele>83.4</ele><time>2026-03-17T15:49:28.001Z</time></trkpt><trkpt lat="43.44052881569528" lon="3.2598276504047847"><ele>83.60000000000001</ele><time>2026-03-17T15:49:29.001Z</time></trkpt><trkpt lat="43.44054699183012" lon="3.2596766638169234"><ele>83.80000000000001</ele><time>2026-03-17T15:49:30.001Z</time></trkpt><trkpt lat="43.44056567162932" lon="3.25952621203073"><ele>84.0</ele><time>2026-03-17T15:49:31.001Z</time></trkpt><trkpt lat="43.44058360956706" lon="3.259383771915226"><ele>84.16666666666667</ele><time>2026-03-17T15:49:32.001Z</time></trkpt><trkpt lat="43.44060071570303" lon="3.2592504597209113"><ele>84.33333333333333</ele><time>2026-03-17T15:49:33.001Z</time></trkpt><trkpt lat="43.44061728825455" lon="3.259133809942321"><ele>84.5</ele><time>2026-03-17T15:49:34.001Z</time></trkpt><trkpt lat="43.44063251981285" lon="3.259031300036457"><ele>84.66666666666666</ele><time>2026-03-17T15:49:35.001Z</time></trkpt><trkpt lat="43.440648901013645" lon="3.2589356222793824"><ele>84.83333333333333</ele><time>2026-03-17T15:49:36.001Z</time></trkpt><trkpt lat="43.4406667512495" lon="3.258833131562875"><ele>85.0</ele><time>2026-03-17T15:49:37.001Z</time></trkpt><trkpt lat="43.44068649471325" lon="3.258725055511054"><ele>85.6</ele><time>2026-03-17T15:49:38.001Z</time></trkpt><trkpt lat="43.44070850255388" lon="3.2586074617711427"><ele>86.2</ele><time>2026-03-17T15:49:39.001Z</time></trkpt><trkpt lat="43.44073412799004" lon="3.25847934417616"><ele>86.80000000000001</ele><time>2026-03-17T15:49:40.001Z</time></trkpt><trkpt lat="43.44077054972281" lon="3.2583489793079057"><ele>87.4</ele><time>2026-03-17T15:49:41.001Z</time></trkpt><trkpt lat="43.440815429615334" lon="3.2582052906904093"><ele>88.0</ele><time>2026-03-17T15:49:42.001Z</time></trkpt><trkpt lat="43.44086634453619" lon="3.2580492592540606"><ele>88.25</ele><time>2026-03-17T15:49:43.001Z</time></trkpt><trkpt lat="43.44092554161363" lon="3.2578819377077024"><ele>88.5</ele><time>2026-03-17T15:49:44.001Z</time></trkpt><trkpt lat="43.440996348848046" lon="3.257701497271528"><ele>88.75</ele><time>2026-03-17T15:49:45.001Z</time></trkpt><trkpt lat="43.44106867408215" lon="3.257523770026453"><ele>89.0</ele><time>2026-03-17T15:49:46.001Z</time></trkpt><trkpt lat="43.441140475415644" lon="3.2573406638178706"><ele>89.0</ele><time>2026-03-17T15:49:47.001Z</time></trkpt><trkpt lat="43.441221454544085" lon="3.257144858214499"><ele>89.0</ele><time>2026-03-17T15:49:48.001Z</time></trkpt><trkpt lat="43.441315081663646" lon="3.2569408523751298"><ele>89.0</ele><time>2026-03-17T15:49:49.001Z</time></trkpt><trkpt lat="43.44141427821432" lon="3.2567212745780725"><ele>89.0</ele><time>2026-03-17T15:49:50.001Z</time></trkpt><trkpt lat="43.441514481005" lon="3.2564934203257123"><ele>89.0</ele><time>2026-03-17T15:49:51.001Z</time></trkpt><trkpt lat="43.441618515681625" lon="3.2562665341302424"><ele>89.0</ele><time>2026-03-17T15:49:52.001Z</time></trkpt><trkpt lat="43.44173181715597" lon="3.2560238416753253"><ele>89.33333333333334</ele><time>2026-03-17T15:49:53.001Z</time></trkpt><trkpt lat="43.441849810743534" lon="3.255773546082564"><ele>89.66666666666667</ele><time>2026-03-17T15:49:54.001Z</time></trkpt><trkpt lat="43.441967335337445" lon="3.255533569224977"><ele>90.0</ele><time>2026-03-17T15:49:55.001Z</time></trkpt><trkpt lat="43.442091757012186" lon="3.2552904445278865"><ele>90.33333333333333</ele><time>2026-03-17T15:49:56.001Z</time></trkpt><trkpt lat="43.44221627595418" lon="3.255042997508154"><ele>90.66666666666666</ele><time>2026-03-17T15:49:57.001Z</time></trkpt><trkpt lat="43.44233944562891" lon="3.254792895707944"><ele>91.0</ele><time>2026-03-17T15:49:58.001Z</time></trkpt><trkpt lat="43.44246203987359" lon="3.254545612935599"><ele>91.66666666666666</ele><time>2026-03-17T15:49:59.001Z</time></trkpt><trkpt lat="43.4425833834437" lon="3.2542994191613674"><ele>92.33333333333333</ele><time>2026-03-17T15:50:00.001Z</time></trkpt><trkpt lat="43.44270075917692" lon="3.2540566862229103"><ele>93.0</ele><time>2026-03-17T15:50:01.001Z</time></trkpt><trkpt lat="43.44281591117066" lon="3.253823370226722"><ele>93.33333333333333</ele><time>2026-03-17T15:50:02.001Z</time></trkpt><trkpt lat="43.44293225947953" lon="3.253606189121616"><ele>93.66666666666666</ele><time>2026-03-17T15:50:03.001Z</time></trkpt><trkpt lat="43.443050735059536" lon="3.253391766498572"><ele>94.0</ele><time>2026-03-17T15:50:04.001Z</time></trkpt><trkpt lat="43.44316845752136" lon="3.2531775688720272"><ele>94.33333333333333</ele><time>2026-03-17T15:50:05.001Z</time></trkpt><trkpt lat="43.443288672944924" lon="3.2529689244219013"><ele>94.66666666666667</ele><time>2026-03-17T15:50:06.001Z</time></trkpt><trkpt lat="43.44340802839299" lon="3.2527594882407107"><ele>95.0</ele><time>2026-03-17T15:50:07.001Z</time></trkpt><trkpt lat="43.44352887019429" lon="3.252552780515162"><ele>95.0</ele><time>2026-03-17T15:50:08.001Z</time></trkpt><trkpt lat="43.44365366652474" lon="3.2523528265013"><ele>95.0</ele><time>2026-03-17T15:50:09.001Z</time></trkpt><trkpt lat="43.44377706516421" lon="3.2521500314478846"><ele>95.0</ele><time>2026-03-17T15:50:10.001Z</time></trkpt><trkpt lat="43.4438951529266" lon="3.2519444819624375"><ele>95.33333333333334</ele><time>2026-03-17T15:50:11.001Z</time></trkpt><trkpt lat="43.44400890476669" lon="3.251738028175232"><ele>95.66666666666667</ele><time>2026-03-17T15:50:12.001Z</time></trkpt><trkpt lat="43.44410801100025" lon="3.251537220884158"><ele>96.0</ele><time>2026-03-17T15:50:13.001Z</time></trkpt><trkpt lat="43.444180532957354" lon="3.2513326153786704"><ele>96.0</ele><time>2026-03-17T15:50:14.001Z</time></trkpt><trkpt lat="43.444235439279545" lon="3.2511168625763323"><ele>96.0</ele><time>2026-03-17T15:50:15.001Z</time></trkpt><trkpt lat="43.444275088975445" lon="3.2508835067655113"><ele>96.0</ele><time>2026-03-17T15:50:16.001Z</time></trkpt><trkpt lat="43.44431103473607" lon="3.2506448795156655"><ele>97.33333333333334</ele><time>2026-03-17T15:50:17.001Z</time></trkpt><trkpt lat="43.44436022855142" lon="3.250411242615554"><ele>98.66666666666667</ele><time>2026-03-17T15:50:18.001Z</time></trkpt><trkpt lat="43.444423700807995" lon="3.250179182561028"><ele>100.0</ele><time>2026-03-17T15:50:19.001Z</time></trkpt><trkpt lat="43.44448577072514" lon="3.24997054022897"><ele>100.5</ele><time>2026-03-17T15:50:20.001Z</time></trkpt><trkpt lat="43.44454814176759" lon="3.249780563711182"><ele>101.0</ele><time>2026-03-17T15:50:21.001Z</time></trkpt><trkpt lat="43.44461683147464" lon="3.2496079700951332"><ele>101.5</ele><time>2026-03-17T15:50:22.001Z</time></trkpt><trkpt lat="43.444690180305656" lon="3.2494533226463305"><ele>102.0</ele><time>2026-03-17T15:50:23.001Z</time></trkpt><trkpt lat="43.44476416200754" lon="3.249301071184866"><ele>102.0</ele><time>2026-03-17T15:50:24.001Z</time></trkpt><trkpt lat="43.4448393658902" lon="3.249145248161405"><ele>102.0</ele><time>2026-03-17T15:50:25.001Z</time></trkpt><trkpt lat="43.44492043979236" lon="3.248994925544666"><ele>102.0</ele><time>2026-03-17T15:50:26.001Z</time></trkpt><trkpt lat="43.44501920852275" lon="3.248846685184486"><ele>102.0</ele><time>2026-03-17T15:50:27.001Z</time></trkpt><trkpt lat="43.44513269289144" lon="3.2486807771137864"><ele>103.0</ele><time>2026-03-17T15:50:28.001Z</time></trkpt><trkpt lat="43.4452420935134" lon="3.248492397592824"><ele>104.0</ele><time>2026-03-17T15:50:29.001Z</time></trkpt><trkpt lat="43.44535175151071" lon="3.248284105825684"><ele>105.0</ele><time>2026-03-17T15:50:30.001Z</time></trkpt><trkpt lat="43.4454610463653" lon="3.2480711416875057"><ele>104.66666666666666</ele><time>2026-03-17T15:50:31.001Z</time></trkpt><trkpt lat="43.44556089963833" lon="3.2478681663976317"><ele>104.33333333333333</ele><time>2026-03-17T15:50:32.001Z</time></trkpt><trkpt lat="43.445647664468694" lon="3.2476751074887407"><ele>104.0</ele><time>2026-03-17T15:50:33.001Z</time></trkpt><trkpt lat="43.44572279124084" lon="3.247474796736946"><ele>105.0</ele><time>2026-03-17T15:50:34.001Z</time></trkpt><trkpt lat="43.44579093229819" lon="3.2472703519486825"><ele>106.0</ele><time>2026-03-17T15:50:35.001Z</time></trkpt><trkpt lat="43.44586217841404" lon="3.247075267044939"><ele>107.0</ele><time>2026-03-17T15:50:36.001Z</time></trkpt><trkpt lat="43.44594582870204" lon="3.246894117608362"><ele>107.0</ele><time>2026-03-17T15:50:37.001Z</time></trkpt><trkpt lat="43.44604713152856" lon="3.2467277282433207"><ele>107.0</ele><time>2026-03-17T15:50:38.001Z</time></trkpt><trkpt lat="43.44616418012001" lon="3.246577321180166"><ele>107.0</ele><time>2026-03-17T15:50:39.001Z</time></trkpt><trkpt lat="43.44629745735584" lon="3.2464474153623852"><ele>105.66666666666666</ele><time>2026-03-17T15:50:40.001Z</time></trkpt><trkpt lat="43.446448827515866" lon="3.2463274931871404"><ele>104.33333333333334</ele><time>2026-03-17T15:50:41.001Z</time></trkpt><trkpt lat="43.446608841235076" lon="3.246206511541732"><ele>103.0</ele><time>2026-03-17T15:50:42.001Z</time></trkpt><trkpt lat="43.44677736209748" lon="3.246071638556744"><ele>103.0</ele><time>2026-03-17T15:50:43.002Z</time></trkpt><trkpt lat="43.44695302952897" lon="3.245922677228789"><ele>103.0</ele><time>2026-03-17T15:50:44Z</time></trkpt><trkpt lat="43.447135311172886" lon="3.2457709139842676"><ele>103.0</ele><time>2026-03-17T15:50:45Z</time></trkpt><trkpt lat="43.44731860919954" lon="3.245623300423556"><ele>101.66666666666667</ele><time>2026-03-17T15:50:46Z</time></trkpt><trkpt lat="43.447490071181896" lon="3.2454885804319917"><ele>100.33333333333334</ele><time>2026-03-17T15:50:47Z</time></trkpt><trkpt lat="43.44765506261728" lon="3.2453594060928546"><ele>99.0</ele><time>2026-03-17T15:50:48Z</time></trkpt><trkpt lat="43.447809177724935" lon="3.2452295209969417"><ele>99.0</ele><time>2026-03-17T15:50:49Z</time></trkpt><trkpt lat="43.44795281685942" lon="3.2450941703830427"><ele>99.0</ele><time>2026-03-17T15:50:50Z</time></trkpt><trkpt lat="43.44808629989736" lon="3.244940777058529"><ele>99.0</ele><time>2026-03-17T15:50:51Z</time></trkpt><trkpt lat="43.44821786393236" lon="3.2447623687493583"><ele>98.33333333333334</ele><time>2026-03-17T15:50:52Z</time></trkpt><trkpt lat="43.448344031946796" lon="3.2445562605040315"><ele>97.66666666666667</ele><time>2026-03-17T15:50:53Z</time></trkpt><trkpt lat="43.44846811685273" lon="3.2443251000934694"><ele>97.0</ele><time>2026-03-17T15:50:54Z</time></trkpt><trkpt lat="43.448599382862525" lon="3.2440839861100517"><ele>96.66666666666667</ele><time>2026-03-17T15:50:55Z</time></trkpt><trkpt lat="43.44873500640371" lon="3.2438509388125993"><ele>96.33333333333334</ele><time>2026-03-17T15:50:56Z</time></trkpt><trkpt lat="43.44886870800624" lon="3.2436248083246837"><ele>96.0</ele><time>2026-03-17T15:50:57Z</time></trkpt><trkpt lat="43.449010768186504" lon="3.243386502144885"><ele>96.0</ele><time>2026-03-17T15:50:58Z</time></trkpt><trkpt lat="43.449155833586566" lon="3.2431422149418485"><ele>96.0</ele><time>2026-03-17T15:50:59Z</time></trkpt><trkpt lat="43.44929402487044" lon="3.242900997353485"><ele>96.33333333333334</ele><time>2026-03-17T15:51:00Z</time></trkpt><trkpt lat="43.44942743783388" lon="3.242677421446988"><ele>96.66666666666667</ele><time>2026-03-17T15:51:01Z</time></trkpt><trkpt lat="43.449576928548616" lon="3.2424726443159284"><ele>97.0</ele><time>2026-03-17T15:51:02Z</time></trkpt><trkpt lat="43.449739090629556" lon="3.2422710093388645"><ele>97.0</ele><time>2026-03-17T15:51:03Z</time></trkpt><trkpt lat="43.44990392809603" lon="3.2420651442699566"><ele>97.0</ele><time>2026-03-17T15:51:04Z</time></trkpt><trkpt lat="43.45007070526504" lon="3.241859174639196"><ele>97.0</ele><time>2026-03-17T15:51:05Z</time></trkpt><trkpt lat="43.4502260703446" lon="3.241664172075191"><ele>97.0</ele><time>2026-03-17T15:51:06Z</time></trkpt><trkpt lat="43.45037537652743" lon="3.241485075123681"><ele>97.0</ele><time>2026-03-17T15:51:07Z</time></trkpt><trkpt lat="43.450534571590296" lon="3.2413295664411765"><ele>97.0</ele><time>2026-03-17T15:51:08Z</time></trkpt><trkpt lat="43.450708382361576" lon="3.2411996641066185"><ele>96.66666666666667</ele><time>2026-03-17T15:51:09Z</time></trkpt><trkpt lat="43.45089331329414" lon="3.2410834036104412"><ele>96.33333333333334</ele><time>2026-03-17T15:51:10Z</time></trkpt><trkpt lat="43.45109161120393" lon="3.2409607119143087"><ele>96.0</ele><time>2026-03-17T15:51:11Z</time></trkpt><trkpt lat="43.45129595809146" lon="3.2408261205048854"><ele>95.5</ele><time>2026-03-17T15:51:12Z</time></trkpt><trkpt lat="43.451503907146005" lon="3.2406821541318656"><ele>95.0</ele><time>2026-03-17T15:51:13Z</time></trkpt><trkpt lat="43.45171466486177" lon="3.240534602384451"><ele>95.0</ele><time>2026-03-17T15:51:14Z</time></trkpt><trkpt lat="43.451925371520765" lon="3.240384860977889"><ele>95.0</ele><time>2026-03-17T15:51:15Z</time></trkpt><trkpt lat="43.45213003469553" lon="3.240233532288834"><ele>95.66666666666667</ele><time>2026-03-17T15:51:16Z</time></trkpt><trkpt lat="43.452322740320206" lon="3.2400839820261833"><ele>96.33333333333334</ele><time>2026-03-17T15:51:17Z</time></trkpt><trkpt lat="43.45250063929327" lon="3.2399386888916895"><ele>97.0</ele><time>2026-03-17T15:51:18Z</time></trkpt><trkpt lat="43.45267168219564" lon="3.239804233204829"><ele>96.66666666666667</ele><time>2026-03-17T15:51:19Z</time></trkpt><trkpt lat="43.45283712880602" lon="3.239688098209483"><ele>96.33333333333334</ele><time>2026-03-17T15:51:20Z</time></trkpt><trkpt lat="43.45300234075301" lon="3.2395942256073083"><ele>96.0</ele><time>2026-03-17T15:51:21Z</time></trkpt><trkpt lat="43.45317504487811" lon="3.2395208463607683"><ele>95.66666666666667</ele><time>2026-03-17T15:51:22Z</time></trkpt><trkpt lat="43.45334762324783" lon="3.2394722455351843"><ele>95.33333333333334</ele><time>2026-03-17T15:51:23Z</time></trkpt><trkpt lat="43.45350942301204" lon="3.2394567471689433"><ele>95.0</ele><time>2026-03-17T15:51:24Z</time></trkpt><trkpt lat="43.45366234066377" lon="3.2394568528733925"><ele>96.0</ele><time>2026-03-17T15:51:25Z</time></trkpt><trkpt lat="43.45380641953814" lon="3.2394577719382545"><ele>97.0</ele><time>2026-03-17T15:51:26.001Z</time></trkpt><trkpt lat="43.45394025360138" lon="3.2394611233303254"><ele>98.0</ele><time>2026-03-17T15:51:27.001Z</time></trkpt><trkpt lat="43.454046114727426" lon="3.239471894469288"><ele>99.0</ele><time>2026-03-17T15:51:28.001Z</time></trkpt><trkpt lat="43.45411967229015" lon="3.2394863970315697"><ele>99.0</ele><time>2026-03-17T15:51:29.001Z</time></trkpt><trkpt lat="43.45418158067663" lon="3.23951014959466"><ele>99.0</ele><time>2026-03-17T15:51:30.001Z</time></trkpt><trkpt lat="43.45424694841328" lon="3.2395303806660505"><ele>99.0</ele><time>2026-03-17T15:51:31.001Z</time></trkpt><trkpt lat="43.45432081514894" lon="3.2395123542833053"><ele>99.0</ele><time>2026-03-17T15:51:32.001Z</time></trkpt><trkpt lat="43.45440320604478" lon="3.2394667802395167"><ele>99.0</ele><time>2026-03-17T15:51:33.001Z</time></trkpt><trkpt lat="43.45450101576758" lon="3.239427124694668"><ele>99.0</ele><time>2026-03-17T15:51:34.001Z</time></trkpt><trkpt lat="43.454607918732385" lon="3.2393914805806543"><ele>98.80000000000001</ele><time>2026-03-17T15:51:35.001Z</time></trkpt><trkpt lat="43.454717955371336" lon="3.239335454770839"><ele>98.60000000000001</ele><time>2026-03-17T15:51:36.001Z</time></trkpt><trkpt lat="43.45481563634427" lon="3.2392687851765603"><ele>98.4</ele><time>2026-03-17T15:51:37.001Z</time></trkpt><trkpt lat="43.454908726461426" lon="3.239198780633731"><ele>98.2</ele><time>2026-03-17T15:51:38.001Z</time></trkpt><trkpt lat="43.4550004217456" lon="3.239128336210589"><ele>98.0</ele><time>2026-03-17T15:51:39.001Z</time></trkpt><trkpt lat="43.455086427998296" lon="3.2390588397733113"><ele>97.99999999999999</ele><time>2026-03-17T15:51:40.001Z</time></trkpt><trkpt lat="43.455165164468326" lon="3.23897977139602"><ele>98.0</ele><time>2026-03-17T15:51:41.001Z</time></trkpt><trkpt lat="43.45523982609323" lon="3.23890387429675"><ele>98.0</ele><time>2026-03-17T15:51:42.001Z</time></trkpt><trkpt lat="43.455308771867045" lon="3.238845195787261"><ele>98.0</ele><time>2026-03-17T15:51:43.001Z</time></trkpt><trkpt lat="43.45536884830701" lon="3.2387912511342782"><ele>97.99999999999999</ele><time>2026-03-17T15:51:44.001Z</time></trkpt><trkpt lat="43.45542700121097" lon="3.238736394799518"><ele>98.0</ele><time>2026-03-17T15:51:45.001Z</time></trkpt><trkpt lat="43.45548765366943" lon="3.238683294923625"><ele>98.60000000000001</ele><time>2026-03-17T15:51:46.001Z</time></trkpt><trkpt lat="43.455564423575474" lon="3.238616874357722"><ele>99.2</ele><time>2026-03-17T15:51:47.001Z</time></trkpt><trkpt lat="43.455653372205674" lon="3.238534307272474"><ele>99.8</ele><time>2026-03-17T15:51:48.001Z</time></trkpt><trkpt lat="43.455751744409085" lon="3.238445590165161"><ele>100.4</ele><time>2026-03-17T15:51:49.001Z</time></trkpt><trkpt lat="43.45585146993824" lon="3.238349360642521"><ele>101.0</ele><time>2026-03-17T15:51:50.001Z</time></trkpt><trkpt lat="43.45595123103317" lon="3.2382499706200907"><ele>101.0</ele><time>2026-03-17T15:51:51.001Z</time></trkpt><trkpt lat="43.456045241653335" lon="3.238151039046485"><ele>101.0</ele><time>2026-03-17T15:51:52.001Z</time></trkpt><trkpt lat="43.45613997135901" lon="3.2380545535004206"><ele>101.0</ele><time>2026-03-17T15:51:53.001Z</time></trkpt><trkpt lat="43.45623336099572" lon="3.2379638932001007"><ele>101.0</ele><time>2026-03-17T15:51:54.001Z</time></trkpt><trkpt lat="43.45631791560032" lon="3.237875527588984"><ele>102.8</ele><time>2026-03-17T15:51:55.001Z</time></trkpt><trkpt lat="43.45639102635047" lon="3.2377872373507515"><ele>104.6</ele><time>2026-03-17T15:51:56.001Z</time></trkpt><trkpt lat="43.45646158373468" lon="3.2376988014005676"><ele>106.4</ele><time>2026-03-17T15:51:57.001Z</time></trkpt><trkpt lat="43.45653415324338" lon="3.2376113073273625"><ele>108.2</ele><time>2026-03-17T15:51:58.001Z</time></trkpt><trkpt lat="43.456605794611164" lon="3.237525158732594"><ele>110.0</ele><time>2026-03-17T15:51:59.001Z</time></trkpt><trkpt lat="43.45667389659953" lon="3.237442404159781"><ele>109.99999999999999</ele><time>2026-03-17T15:52:00.001Z</time></trkpt><trkpt lat="43.45674178665754" lon="3.2373624797307703"><ele>110.0</ele><time>2026-03-17T15:52:01.001Z</time></trkpt><trkpt lat="43.4568060517011" lon="3.237283052549674"><ele>110.0</ele><time>2026-03-17T15:52:02.001Z</time></trkpt><trkpt lat="43.45686099368881" lon="3.2371990217357545"><ele>110.0</ele><time>2026-03-17T15:52:03.001Z</time></trkpt><trkpt lat="43.45690785134974" lon="3.2371081946587967"><ele>109.99999999999999</ele><time>2026-03-17T15:52:04.001Z</time></trkpt><trkpt lat="43.45694471803507" lon="3.237006875365055"><ele>110.0</ele><time>2026-03-17T15:52:05.001Z</time></trkpt><trkpt lat="43.45697394870175" lon="3.23692403078259"><ele>111.16666666666666</ele><time>2026-03-17T15:52:06.001Z</time></trkpt><trkpt lat="43.45702232354136" lon="3.236830451441361"><ele>112.33333333333333</ele><time>2026-03-17T15:52:08.001Z</time></trkpt><trkpt lat="43.45714534997985" lon="3.23684443845714"><ele>113.5</ele><time>2026-03-17T15:52:11.001Z</time></trkpt><trkpt lat="43.45719165926614" lon="3.236907108545851"><ele>114.66666666666666</ele><time>2026-03-17T15:52:12.001Z</time></trkpt><trkpt lat="43.45727618462138" lon="3.2369799796034227"><ele>115.83333333333333</ele><time>2026-03-17T15:52:14.001Z</time></trkpt><trkpt lat="43.45734453939048" lon="3.237026429072133"><ele>117.0</ele><time>2026-03-17T15:52:16.001Z</time></trkpt><trkpt lat="43.4574246465601" lon="3.2371052421174658"><ele>116.5</ele><time>2026-03-17T15:52:18.001Z</time></trkpt><trkpt lat="43.457517790827126" lon="3.2371908830495735"><ele>116.0</ele><time>2026-03-17T15:52:20.001Z</time></trkpt><trkpt lat="43.4576197221462" lon="3.2372800521742935"><ele>115.5</ele><time>2026-03-17T15:52:22.001Z</time></trkpt><trkpt lat="43.457676609991914" lon="3.2373223819229113"><ele>115.0</ele><time>2026-03-17T15:52:23.001Z</time></trkpt><trkpt lat="43.457740333582464" lon="3.2373558802362794"><ele>114.5</ele><time>2026-03-17T15:52:24.001Z</time></trkpt><trkpt lat="43.45780873832566" lon="3.2373779203229236"><ele>114.0</ele><time>2026-03-17T15:52:25.001Z</time></trkpt><trkpt lat="43.45788228937355" lon="3.2373950230022754"><ele>114.66666666666667</ele><time>2026-03-17T15:52:26.001Z</time></trkpt><trkpt lat="43.457953824964605" lon="3.2374110854025018"><ele>115.33333333333334</ele><time>2026-03-17T15:52:27.001Z</time></trkpt><trkpt lat="43.45802207418219" lon="3.237430811020552"><ele>116.0</ele><time>2026-03-17T15:52:28.001Z</time></trkpt><trkpt lat="43.45809182676057" lon="3.2374470991640965"><ele>116.66666666666667</ele><time>2026-03-17T15:52:29.001Z</time></trkpt><trkpt lat="43.458160777380826" lon="3.2374604341104347"><ele>117.33333333333334</ele><time>2026-03-17T15:52:30.001Z</time></trkpt><trkpt lat="43.4582261855084" lon="3.237466336131018"><ele>118.0</ele><time>2026-03-17T15:52:31.001Z</time></trkpt><trkpt lat="43.45833174143994" lon="3.2374630405062086"><ele>118.0</ele><time>2026-03-17T15:52:33.001Z</time></trkpt><trkpt lat="43.4583901531288" lon="3.2374303166972895"><ele>118.0</ele><time>2026-03-17T15:52:36.001Z</time></trkpt><trkpt lat="43.458498879793446" lon="3.2373663018431698"><ele>118.0</ele><time>2026-03-17T15:52:38.001Z</time></trkpt><trkpt lat="43.45855723693892" lon="3.23732267852067"><ele>118.0</ele><time>2026-03-17T15:52:39.001Z</time></trkpt><trkpt lat="43.45861418314696" lon="3.237279418899184"><ele>118.0</ele><time>2026-03-17T15:52:40.001Z</time></trkpt><trkpt lat="43.458673825206596" lon="3.2372383539668577"><ele>118.0</ele><time>2026-03-17T15:52:41.001Z</time></trkpt><trkpt lat="43.458723143457874" lon="3.2371800009867346"><ele>118.0</ele><time>2026-03-17T15:52:42.001Z</time></trkpt><trkpt lat="43.458775685026446" lon="3.2371225566974733"><ele>118.33333333333334</ele><time>2026-03-17T15:52:43.001Z</time></trkpt><trkpt lat="43.45882711624402" lon="3.2370599795425106"><ele>118.66666666666667</ele><time>2026-03-17T15:52:44.001Z</time></trkpt><trkpt lat="43.458878837214414" lon="3.2369918549911016"><ele>119.0</ele><time>2026-03-17T15:52:45.001Z</time></trkpt><trkpt lat="43.458932426981384" lon="3.2369234746646334"><ele>119.33333333333334</ele><time>2026-03-17T15:52:46.001Z</time></trkpt><trkpt lat="43.458986735679446" lon="3.236846509124709"><ele>119.66666666666667</ele><time>2026-03-17T15:52:47.001Z</time></trkpt><trkpt lat="43.45903398454751" lon="3.236755197084941"><ele>120.0</ele><time>2026-03-17T15:52:48.001Z</time></trkpt><trkpt lat="43.45907356429242" lon="3.236661355959579"><ele>120.0</ele><time>2026-03-17T15:52:49.001Z</time></trkpt><trkpt lat="43.459102995737965" lon="3.2365619594711657"><ele>120.0</ele><time>2026-03-17T15:52:50Z</time></trkpt><trkpt lat="43.45912032405778" lon="3.2364556406080216"><ele>120.0</ele><time>2026-03-17T15:52:51Z</time></trkpt><trkpt lat="43.459133624764" lon="3.236348702054888"><ele>120.0</ele><time>2026-03-17T15:52:52Z</time></trkpt><trkpt lat="43.45914042694728" lon="3.236234097796205"><ele>120.0</ele><time>2026-03-17T15:52:53Z</time></trkpt><trkpt lat="43.45914175788606" lon="3.2361111079489078"><ele>120.0</ele><time>2026-03-17T15:52:54Z</time></trkpt><trkpt lat="43.459142222435545" lon="3.235978176009725"><ele>121.4</ele><time>2026-03-17T15:52:55Z</time></trkpt><trkpt lat="43.45913213021143" lon="3.2358406218371427"><ele>122.8</ele><time>2026-03-17T15:52:56Z</time></trkpt><trkpt lat="43.4591141282057" lon="3.2356951466949635"><ele>124.19999999999999</ele><time>2026-03-17T15:52:57Z</time></trkpt><trkpt lat="43.45909508135504" lon="3.2355461509745758"><ele>125.6</ele><time>2026-03-17T15:52:58Z</time></trkpt><trkpt lat="43.459077493620946" lon="3.2354378464893965"><ele>127.0</ele><time>2026-03-17T15:52:59Z</time></trkpt><trkpt lat="43.45906108465558" lon="3.2353537914660406"><ele>127.19999999999999</ele><time>2026-03-17T15:53:00Z</time></trkpt><trkpt lat="43.459053885640735" lon="3.2352516955983814"><ele>127.39999999999999</ele><time>2026-03-17T15:53:02Z</time></trkpt><trkpt lat="43.45917131156489" lon="3.2351872754102504"><ele>127.60000000000001</ele><time>2026-03-17T15:53:05Z</time></trkpt><trkpt lat="43.45924054908813" lon="3.235149173392089"><ele>127.80000000000001</ele><time>2026-03-17T15:53:06Z</time></trkpt><trkpt lat="43.45932499122986" lon="3.2351002940719957"><ele>128.0</ele><time>2026-03-17T15:53:07Z</time></trkpt><trkpt lat="43.4594163799391" lon="3.2350451871514565"><ele>128.0</ele><time>2026-03-17T15:53:08Z</time></trkpt><trkpt lat="43.459504774850586" lon="3.2349926427690363"><ele>128.0</ele><time>2026-03-17T15:53:09Z</time></trkpt><trkpt lat="43.459598148518154" lon="3.234938176978751"><ele>128.0</ele><time>2026-03-17T15:53:10Z</time></trkpt><trkpt lat="43.45969800519613" lon="3.2348799296940687"><ele>128.0</ele><time>2026-03-17T15:53:11Z</time></trkpt><trkpt lat="43.45979916338417" lon="3.2348209231452616"><ele>128.0</ele><time>2026-03-17T15:53:12Z</time></trkpt><trkpt lat="43.459905092501884" lon="3.234759409915313"><ele>127.4</ele><time>2026-03-17T15:53:13Z</time></trkpt><trkpt lat="43.45999664906075" lon="3.2346549696263156"><ele>126.80000000000001</ele><time>2026-03-17T15:53:14Z</time></trkpt><trkpt lat="43.46009187269731" lon="3.234575068367048"><ele>126.2</ele><time>2026-03-17T15:53:15Z</time></trkpt><trkpt lat="43.46017546694745" lon="3.2344974955668784"><ele>125.6</ele><time>2026-03-17T15:53:16Z</time></trkpt><trkpt lat="43.46025495542957" lon="3.2344235007609456"><ele>125.0</ele><time>2026-03-17T15:53:17Z</time></trkpt><trkpt lat="43.46032438139997" lon="3.234361465506607"><ele>124.99999999999999</ele><time>2026-03-17T15:53:18Z</time></trkpt><trkpt lat="43.460387407421344" lon="3.23431461861636"><ele>125.0</ele><time>2026-03-17T15:53:19Z</time></trkpt><trkpt lat="43.46044996812435" lon="3.234289325345726"><ele>125.0</ele><time>2026-03-17T15:53:20Z</time></trkpt><trkpt lat="43.46057593002574" lon="3.2343014422064758"><ele>125.0</ele><time>2026-03-17T15:53:22Z</time></trkpt><trkpt lat="43.46064668895685" lon="3.234341330411439"><ele>124.99999999999999</ele><time>2026-03-17T15:53:23Z</time></trkpt><trkpt lat="43.46072813055607" lon="3.2343918302638146"><ele>125.0</ele><time>2026-03-17T15:53:24Z</time></trkpt><trkpt lat="43.460809994196225" lon="3.2344665900475253"><ele>124.2</ele><time>2026-03-17T15:53:25Z</time></trkpt><trkpt lat="43.460883623765106" lon="3.2345372671929424"><ele>123.4</ele><time>2026-03-17T15:53:26Z</time></trkpt><trkpt lat="43.460953398888" lon="3.234589514563765"><ele>122.6</ele><time>2026-03-17T15:53:27Z</time></trkpt><trkpt lat="43.4610396110399" lon="3.234654732610098"><ele>121.8</ele><time>2026-03-17T15:53:29Z</time></trkpt><trkpt lat="43.461147545510464" lon="3.2346683494724187"><ele>121.0</ele><time>2026-03-17T15:53:33Z</time></trkpt><trkpt lat="43.46122704518548" lon="3.2346371888055234"><ele>120.8</ele><time>2026-03-17T15:53:34Z</time></trkpt><trkpt lat="43.461301812071916" lon="3.2345981530906425"><ele>120.6</ele><time>2026-03-17T15:53:35Z</time></trkpt><trkpt lat="43.46137935870778" lon="3.234555130936276"><ele>120.4</ele><time>2026-03-17T15:53:36Z</time></trkpt><trkpt lat="43.46147061995022" lon="3.234498750804473"><ele>120.2</ele><time>2026-03-17T15:53:37Z</time></trkpt><trkpt lat="43.46157641101611" lon="3.2344356358195614"><ele>120.0</ele><time>2026-03-17T15:53:38Z</time></trkpt><trkpt lat="43.461692605270166" lon="3.2343678589486036"><ele>120.0</ele><time>2026-03-17T15:53:39Z</time></trkpt><trkpt lat="43.461825170274544" lon="3.2343009509722505"><ele>120.0</ele><time>2026-03-17T15:53:40Z</time></trkpt><trkpt lat="43.461956066703664" lon="3.2342323632151224"><ele>120.0</ele><time>2026-03-17T15:53:41.001Z</time></trkpt><trkpt lat="43.4620833121911" lon="3.234159175163841"><ele>120.0</ele><time>2026-03-17T15:53:42.001Z</time></trkpt><trkpt lat="43.4622081537892" lon="3.2340909146223775"><ele>119.5</ele><time>2026-03-17T15:53:43.001Z</time></trkpt><trkpt lat="43.462338111732485" lon="3.234018201198444"><ele>119.0</ele><time>2026-03-17T15:53:44.001Z</time></trkpt><trkpt lat="43.46247613286158" lon="3.2339510136600147"><ele>118.5</ele><time>2026-03-17T15:53:45.001Z</time></trkpt><trkpt lat="43.46261569028361" lon="3.2338904018299535"><ele>118.0</ele><time>2026-03-17T15:53:46.001Z</time></trkpt><trkpt lat="43.46275930076426" lon="3.2338301285420803"><ele>117.75</ele><time>2026-03-17T15:53:47.001Z</time></trkpt><trkpt lat="43.46290225391945" lon="3.2337807179862392"><ele>117.5</ele><time>2026-03-17T15:53:48.001Z</time></trkpt><trkpt lat="43.46304020561587" lon="3.2337268681842835"><ele>117.25</ele><time>2026-03-17T15:53:49.001Z</time></trkpt><trkpt lat="43.46317422074617" lon="3.2336636533042995"><ele>117.0</ele><time>2026-03-17T15:53:50.001Z</time></trkpt><trkpt lat="43.46329837325553" lon="3.2336013130623664"><ele>116.83333333333333</ele><time>2026-03-17T15:53:51.001Z</time></trkpt><trkpt lat="43.463408315379255" lon="3.2335411526638045"><ele>116.66666666666666</ele><time>2026-03-17T15:53:52.001Z</time></trkpt><trkpt lat="43.46347955517696" lon="3.2335022495905865"><ele>116.5</ele><time>2026-03-17T15:53:53.001Z</time></trkpt><trkpt lat="43.463543226038404" lon="3.2334667348088826"><ele>116.33333333333333</ele><time>2026-03-17T15:53:54.001Z</time></trkpt><trkpt lat="43.463618018677934" lon="3.2334252545513844"><ele>116.16666666666666</ele><time>2026-03-17T15:53:55.001Z</time></trkpt><trkpt lat="43.46370237657227" lon="3.233378410586347"><ele>116.0</ele><time>2026-03-17T15:53:56.001Z</time></trkpt><trkpt lat="43.46380607826865" lon="3.233320366162566"><ele>116.0</ele><time>2026-03-17T15:53:57.001Z</time></trkpt><trkpt lat="43.46392846234725" lon="3.2332577150373742"><ele>116.0</ele><time>2026-03-17T15:53:58.001Z</time></trkpt><trkpt lat="43.46404874437895" lon="3.2331905751285626"><ele>116.0</ele><time>2026-03-17T15:53:59.001Z</time></trkpt><trkpt lat="43.4641772747573" lon="3.2331142655365146"><ele>116.0</ele><time>2026-03-17T15:54:00.001Z</time></trkpt><trkpt lat="43.464312536860085" lon="3.233039575335589"><ele>115.66666666666666</ele><time>2026-03-17T15:54:01.001Z</time></trkpt><trkpt lat="43.46445395507501" lon="3.232966444029239"><ele>115.33333333333334</ele><time>2026-03-17T15:54:02.001Z</time></trkpt><trkpt lat="43.46459759411452" lon="3.232890415866694"><ele>115.0</ele><time>2026-03-17T15:54:03.001Z</time></trkpt><trkpt lat="43.464745581793586" lon="3.2328128134553045"><ele>115.0</ele><time>2026-03-17T15:54:04.001Z</time></trkpt><trkpt lat="43.464894328390535" lon="3.232732918011852"><ele>115.0</ele><time>2026-03-17T15:54:05.001Z</time></trkpt><trkpt lat="43.465039067632354" lon="3.2326479198864577"><ele>115.0</ele><time>2026-03-17T15:54:06.001Z</time></trkpt><trkpt lat="43.46517187294908" lon="3.2325554395231717"><ele>115.0</ele><time>2026-03-17T15:54:07.001Z</time></trkpt><trkpt lat="43.465295336944806" lon="3.232447439046325"><ele>115.0</ele><time>2026-03-17T15:54:08.001Z</time></trkpt><trkpt lat="43.465409156180804" lon="3.232318775392744"><ele>115.0</ele><time>2026-03-17T15:54:09.001Z</time></trkpt><trkpt lat="43.46551306941333" lon="3.2321672315141825"><ele>115.0</ele><time>2026-03-17T15:54:10.001Z</time></trkpt><trkpt lat="43.4656185931687" lon="3.232003803553517"><ele>114.33333333333334</ele><time>2026-03-17T15:54:11.001Z</time></trkpt><trkpt lat="43.46572806076837" lon="3.2318241364791374"><ele>113.66666666666666</ele><time>2026-03-17T15:54:12.001Z</time></trkpt><trkpt lat="43.46584501698935" lon="3.2316444541680553"><ele>113.0</ele><time>2026-03-17T15:54:13.001Z</time></trkpt><trkpt lat="43.4659629202848" lon="3.2314626102888373"><ele>113.0</ele><time>2026-03-17T15:54:14.001Z</time></trkpt><trkpt lat="43.46608120589211" lon="3.2312800678596068"><ele>113.0</ele><time>2026-03-17T15:54:15.001Z</time></trkpt><trkpt lat="43.466192397863914" lon="3.2311058285167653"><ele>113.0</ele><time>2026-03-17T15:54:16.001Z</time></trkpt><trkpt lat="43.46629306872398" lon="3.23094405125304"><ele>113.25</ele><time>2026-03-17T15:54:17.001Z</time></trkpt><trkpt lat="43.46638793973085" lon="3.2307926868676335"><ele>113.5</ele><time>2026-03-17T15:54:18.001Z</time></trkpt><trkpt lat="43.46647694740649" lon="3.230652427897358"><ele>113.75</ele><time>2026-03-17T15:54:19.001Z</time></trkpt><trkpt lat="43.466558549984484" lon="3.230522868980915"><ele>114.0</ele><time>2026-03-17T15:54:20.001Z</time></trkpt><trkpt lat="43.46662841982964" lon="3.230408878063473"><ele>114.57142857142857</ele><time>2026-03-17T15:54:21.001Z</time></trkpt><trkpt lat="43.46667434731472" lon="3.230329643670936"><ele>115.14285714285714</ele><time>2026-03-17T15:54:24.001Z</time></trkpt><trkpt lat="43.466726520570674" lon="3.230247134028195"><ele>115.71428571428571</ele><time>2026-03-17T15:54:26.001Z</time></trkpt><trkpt lat="43.46677262177821" lon="3.2301707224087743"><ele>116.28571428571428</ele><time>2026-03-17T15:54:27.001Z</time></trkpt><trkpt lat="43.46682899569111" lon="3.2301066399777096"><ele>116.85714285714286</ele><time>2026-03-17T15:54:28.001Z</time></trkpt><trkpt lat="43.46688116220523" lon="3.230046177127726"><ele>117.42857142857142</ele><time>2026-03-17T15:54:29.001Z</time></trkpt><trkpt lat="43.46693964115088" lon="3.229977517287513"><ele>118.0</ele><time>2026-03-17T15:54:30.001Z</time></trkpt><trkpt lat="43.467000843968" lon="3.229911588364775"><ele>118.00000000000001</ele><time>2026-03-17T15:54:31.001Z</time></trkpt><trkpt lat="43.467064213691955" lon="3.229843114752598"><ele>118.0</ele><time>2026-03-17T15:54:32.001Z</time></trkpt><trkpt lat="43.46712527211655" lon="3.2297663962618834"><ele>118.0</ele><time>2026-03-17T15:54:33.001Z</time></trkpt><trkpt lat="43.467183705187935" lon="3.2296812948739326"><ele>118.0</ele><time>2026-03-17T15:54:34.001Z</time></trkpt><trkpt lat="43.467238131187166" lon="3.2295925971545763"><ele>118.00000000000001</ele><time>2026-03-17T15:54:35.001Z</time></trkpt><trkpt lat="43.4672777929182" lon="3.2295021358678127"><ele>118.0</ele><time>2026-03-17T15:54:36.001Z</time></trkpt><trkpt lat="43.46731272358179" lon="3.229353854133856"><ele>118.16666666666667</ele><time>2026-03-17T15:54:38.001Z</time></trkpt><trkpt lat="43.46731447333295" lon="3.2291997831490376"><ele>118.33333333333334</ele><time>2026-03-17T15:54:40.001Z</time></trkpt><trkpt lat="43.46730977255035" lon="3.2291069032077906"><ele>118.5</ele><time>2026-03-17T15:54:41.001Z</time></trkpt><trkpt lat="43.467306558566825" lon="3.2289973252642743"><ele>118.66666666666666</ele><time>2026-03-17T15:54:42.001Z</time></trkpt><trkpt lat="43.46730457684228" lon="3.228875928076846"><ele>118.83333333333333</ele><time>2026-03-17T15:54:43.001Z</time></trkpt><trkpt lat="43.46730169230687" lon="3.228742097138699"><ele>119.0</ele><time>2026-03-17T15:54:44.001Z</time></trkpt><trkpt lat="43.46731192742825" lon="3.228603713263284"><ele>119.4</ele><time>2026-03-17T15:54:45.001Z</time></trkpt><trkpt lat="43.46732712615933" lon="3.2284659736950694"><ele>119.80000000000001</ele><time>2026-03-17T15:54:46.001Z</time></trkpt><trkpt lat="43.467339571604164" lon="3.228340118128509"><ele>120.19999999999999</ele><time>2026-03-17T15:54:47.001Z</time></trkpt><trkpt lat="43.467348635356025" lon="3.2282144137165925"><ele>120.6</ele><time>2026-03-17T15:54:48.001Z</time></trkpt><trkpt lat="43.46735920187079" lon="3.228095066481537"><ele>121.0</ele><time>2026-03-17T15:54:49.001Z</time></trkpt><trkpt lat="43.467390420282804" lon="3.2279794220924503"><ele>121.33333333333334</ele><time>2026-03-17T15:54:50.001Z</time></trkpt><trkpt lat="43.46742859609996" lon="3.2278703388799825"><ele>121.66666666666667</ele><time>2026-03-17T15:54:51.001Z</time></trkpt><trkpt lat="43.4674709046952" lon="3.2277676694933706"><ele>122.0</ele><time>2026-03-17T15:54:52.001Z</time></trkpt><trkpt lat="43.467514556858895" lon="3.227682275021123"><ele>122.33333333333334</ele><time>2026-03-17T15:54:53.001Z</time></trkpt><trkpt lat="43.467578636987284" lon="3.227539682606021"><ele>122.66666666666667</ele><time>2026-03-17T15:54:55.001Z</time></trkpt><trkpt lat="43.46761454997479" lon="3.2274561625980223"><ele>123.0</ele><time>2026-03-17T15:54:56Z</time></trkpt><trkpt lat="43.46765346856776" lon="3.2273644751334007"><ele>123.80000000000001</ele><time>2026-03-17T15:54:57Z</time></trkpt><trkpt lat="43.46770035247374" lon="3.227268183402588"><ele>124.60000000000001</ele><time>2026-03-17T15:54:58Z</time></trkpt><trkpt lat="43.46774895308989" lon="3.2271638187958067"><ele>125.39999999999999</ele><time>2026-03-17T15:54:59Z</time></trkpt><trkpt lat="43.46779902970573" lon="3.22705509474985"><ele>126.19999999999999</ele><time>2026-03-17T15:55:00Z</time></trkpt><trkpt lat="43.46785071936857" lon="3.2269410467886526"><ele>127.0</ele><time>2026-03-17T15:55:01Z</time></trkpt><trkpt lat="43.46789863697379" lon="3.226833207871086"><ele>127.0</ele><time>2026-03-17T15:55:02Z</time></trkpt><trkpt lat="43.46794408743528" lon="3.226726152648614"><ele>126.99999999999999</ele><time>2026-03-17T15:55:03Z</time></trkpt><trkpt lat="43.46799062322493" lon="3.2266185608018216"><ele>126.99999999999999</ele><time>2026-03-17T15:55:04Z</time></trkpt><trkpt lat="43.46803182468981" lon="3.226504475192738"><ele>127.0</ele><time>2026-03-17T15:55:05Z</time></trkpt><trkpt lat="43.468074853594885" lon="3.2263896809858283"><ele>127.0</ele><time>2026-03-17T15:55:06Z</time></trkpt><trkpt lat="43.46812467298139" lon="3.2262780445640553"><ele>127.0</ele><time>2026-03-17T15:55:07Z</time></trkpt><trkpt lat="43.46817684878178" lon="3.22615487570652"><ele>126.99999999999999</ele><time>2026-03-17T15:55:08Z</time></trkpt><trkpt lat="43.46822540468718" lon="3.2260345174242726"><ele>126.99999999999999</ele><time>2026-03-17T15:55:09Z</time></trkpt><trkpt lat="43.46826823214385" lon="3.2259278878368214"><ele>127.0</ele><time>2026-03-17T15:55:10Z</time></trkpt><trkpt lat="43.468310385645594" lon="3.2258278447038564"><ele>127.0</ele><time>2026-03-17T15:55:11Z</time></trkpt><trkpt lat="43.46834778424993" lon="3.2257400400875906"><ele>128.0</ele><time>2026-03-17T15:55:12Z</time></trkpt><trkpt lat="43.46839832811687" lon="3.225612732020378"><ele>129.0</ele><time>2026-03-17T15:55:14Z</time></trkpt><trkpt lat="43.46845161027595" lon="3.2254730733401415"><ele>130.0</ele><time>2026-03-17T15:55:16Z</time></trkpt><trkpt lat="43.4684866235967" lon="3.2253803034744104"><ele>131.0</ele><time>2026-03-17T15:55:17Z</time></trkpt><trkpt lat="43.468528801609494" lon="3.2252810613694147"><ele>132.0</ele><time>2026-03-17T15:55:18Z</time></trkpt><trkpt lat="43.46857619083517" lon="3.225166751836892"><ele>132.0</ele><time>2026-03-17T15:55:19Z</time></trkpt><trkpt lat="43.46862539953043" lon="3.225045371008927"><ele>132.0</ele><time>2026-03-17T15:55:20Z</time></trkpt><trkpt lat="43.46867200911689" lon="3.2249175838191944"><ele>132.0</ele><time>2026-03-17T15:55:21Z</time></trkpt><trkpt lat="43.46871841043933" lon="3.224793756216979"><ele>132.0</ele><time>2026-03-17T15:55:22Z</time></trkpt><trkpt lat="43.468765541120696" lon="3.224673706395706"><ele>132.0</ele><time>2026-03-17T15:55:23Z</time></trkpt><trkpt lat="43.46881166328526" lon="3.2245546890950303"><ele>131.16666666666666</ele><time>2026-03-17T15:55:24Z</time></trkpt><trkpt lat="43.46885502574198" lon="3.2244429316365397"><ele>130.33333333333334</ele><time>2026-03-17T15:55:25Z</time></trkpt><trkpt lat="43.46888858939084" lon="3.2243529196536107"><ele>129.5</ele><time>2026-03-17T15:55:26Z</time></trkpt><trkpt lat="43.46893322578671" lon="3.224248315416023"><ele>128.66666666666669</ele><time>2026-03-17T15:55:28Z</time></trkpt><trkpt lat="43.4689782777044" lon="3.22417787417873"><ele>127.83333333333334</ele><time>2026-03-17T15:55:30Z</time></trkpt><trkpt lat="43.469037931812395" lon="3.224122427686221"><ele>127.0</ele><time>2026-03-17T15:55:32Z</time></trkpt><trkpt lat="43.46911965818367" lon="3.2241424697659227"><ele>127.00000000000001</ele><time>2026-03-17T15:55:33Z</time></trkpt><trkpt lat="43.46924689313499" lon="3.2241679998804647"><ele>127.0</ele><time>2026-03-17T15:55:35Z</time></trkpt><trkpt lat="43.469319355245815" lon="3.224170349408879"><ele>127.0</ele><time>2026-03-17T15:55:36Z</time></trkpt><trkpt lat="43.469397482291996" lon="3.2241728826207963"><ele>127.0</ele><time>2026-03-17T15:55:37Z</time></trkpt><trkpt lat="43.46948443155673" lon="3.2241748167688025"><ele>127.00000000000001</ele><time>2026-03-17T15:55:38Z</time></trkpt><trkpt lat="43.469565246531495" lon="3.2241753958368813"><ele>127.0</ele><time>2026-03-17T15:55:39Z</time></trkpt><trkpt lat="43.46964700408923" lon="3.2241748945589497"><ele>126.50000000000001</ele><time>2026-03-17T15:55:40Z</time></trkpt><trkpt lat="43.46973304283208" lon="3.2241743688022813"><ele>126.0</ele><time>2026-03-17T15:55:41Z</time></trkpt><trkpt lat="43.469823458776474" lon="3.224173814437552"><ele>125.5</ele><time>2026-03-17T15:55:42Z</time></trkpt><trkpt lat="43.46991318527508" lon="3.22417326429993"><ele>125.0</ele><time>2026-03-17T15:55:43Z</time></trkpt><trkpt lat="43.47000614751" lon="3.2241681030318112"><ele>124.50000000000001</ele><time>2026-03-17T15:55:44Z</time></trkpt><trkpt lat="43.470086184677214" lon="3.224175368462206"><ele>124.0</ele><time>2026-03-17T15:55:45Z</time></trkpt><trkpt lat="43.47015875627437" lon="3.224171632302257"><ele>124.00000000000001</ele><time>2026-03-17T15:55:46Z</time></trkpt><trkpt lat="43.47022377296802" lon="3.2241639439868606"><ele>124.0</ele><time>2026-03-17T15:55:47Z</time></trkpt><trkpt lat="43.470355807823275" lon="3.2241542257602678"><ele>124.0</ele><time>2026-03-17T15:55:49Z</time></trkpt><trkpt lat="43.47042320997935" lon="3.2241581029191693"><ele>124.0</ele><time>2026-03-17T15:55:50Z</time></trkpt><trkpt lat="43.470490383065524" lon="3.22416664510031"><ele>124.00000000000001</ele><time>2026-03-17T15:55:51Z</time></trkpt><trkpt lat="43.470556928765795" lon="3.224170503956036"><ele>124.0</ele><time>2026-03-17T15:55:52Z</time></trkpt><trkpt lat="43.47062297374654" lon="3.224169739103229"><ele>123.4</ele><time>2026-03-17T15:55:53Z</time></trkpt><trkpt lat="43.470729649183745" lon="3.2241695219640385"><ele>122.80000000000001</ele><time>2026-03-17T15:55:55Z</time></trkpt><trkpt lat="43.47085492894241" lon="3.2241681075077384"><ele>122.19999999999999</ele><time>2026-03-17T15:55:57.001Z</time></trkpt><trkpt lat="43.47092878774044" lon="3.224168093518417"><ele>121.6</ele><time>2026-03-17T15:55:58.001Z</time></trkpt><trkpt lat="43.47100412867618" lon="3.2241800101449627"><ele>121.0</ele><time>2026-03-17T15:55:59.001Z</time></trkpt><trkpt lat="43.471088746366696" lon="3.224180200775912"><ele>121.00000000000001</ele><time>2026-03-17T15:56:00.001Z</time></trkpt><trkpt lat="43.471173753131545" lon="3.224182491332395"><ele>121.0</ele><time>2026-03-17T15:56:01.001Z</time></trkpt><trkpt lat="43.47126461262892" lon="3.2241779694584025"><ele>121.0</ele><time>2026-03-17T15:56:02.001Z</time></trkpt><trkpt lat="43.47134390636832" lon="3.2241775225778633"><ele>121.0</ele><time>2026-03-17T15:56:03.001Z</time></trkpt><trkpt lat="43.471424503475355" lon="3.2241773901720205"><ele>121.00000000000001</ele><time>2026-03-17T15:56:04.001Z</time></trkpt><trkpt lat="43.4715018018373" lon="3.22417542389291"><ele>121.0</ele><time>2026-03-17T15:56:05.001Z</time></trkpt><trkpt lat="43.47157057639503" lon="3.2241855839658307"><ele>120.33333333333334</ele><time>2026-03-17T15:56:06.001Z</time></trkpt><trkpt lat="43.47165551084449" lon="3.2241898163862714"><ele>119.66666666666667</ele><time>2026-03-17T15:56:08.001Z</time></trkpt><trkpt lat="43.47172184598362" lon="3.224189406955933"><ele>119.0</ele><time>2026-03-17T15:56:11.001Z</time></trkpt><trkpt lat="43.47183123423398" lon="3.2241936907156163"><ele>118.33333333333334</ele><time>2026-03-17T15:56:13.001Z</time></trkpt><trkpt lat="43.471896860129384" lon="3.224182554865363"><ele>117.66666666666667</ele><time>2026-03-17T15:56:14.001Z</time></trkpt><trkpt lat="43.47197467620665" lon="3.224169350488234"><ele>117.0</ele><time>2026-03-17T15:56:15.001Z</time></trkpt><trkpt lat="43.47205998974872" lon="3.2241556152362327"><ele>116.33333333333333</ele><time>2026-03-17T15:56:16.001Z</time></trkpt><trkpt lat="43.47215294271423" lon="3.2241415046841144"><ele>115.66666666666666</ele><time>2026-03-17T15:56:17.001Z</time></trkpt><trkpt lat="43.47224467674027" lon="3.2241275791681074"><ele>115.0</ele><time>2026-03-17T15:56:18.001Z</time></trkpt><trkpt lat="43.47232854728219" lon="3.224114847349732"><ele>114.33333333333333</ele><time>2026-03-17T15:56:19.001Z</time></trkpt><trkpt lat="43.472404601756665" lon="3.224103302045288"><ele>113.66666666666666</ele><time>2026-03-17T15:56:20.001Z</time></trkpt><trkpt lat="43.4724980190459" lon="3.224078111122587"><ele>113.0</ele><time>2026-03-17T15:56:22.001Z</time></trkpt><trkpt lat="43.472596180340034" lon="3.2240611597005286"><ele>112.99999999999999</ele><time>2026-03-17T15:56:24.001Z</time></trkpt><trkpt lat="43.47266092525903" lon="3.224042791577186"><ele>113.0</ele><time>2026-03-17T15:56:25.001Z</time></trkpt><trkpt lat="43.4727291304583" lon="3.2240352603119327"><ele>113.0</ele><time>2026-03-17T15:56:26.001Z</time></trkpt><trkpt lat="43.47285464372433" lon="3.2240297362030415"><ele>113.0</ele><time>2026-03-17T15:56:28.001Z</time></trkpt><trkpt lat="43.472929126529685" lon="3.2240132011510703"><ele>112.99999999999999</ele><time>2026-03-17T15:56:29.001Z</time></trkpt><trkpt lat="43.47300727065817" lon="3.2239920567348928"><ele>113.0</ele><time>2026-03-17T15:56:30.001Z</time></trkpt><trkpt lat="43.47307615974039" lon="3.2239624586758038"><ele>112.49999999999999</ele><time>2026-03-17T15:56:31.001Z</time></trkpt><trkpt lat="43.47313858012128" lon="3.2239321971285175"><ele>112.0</ele><time>2026-03-17T15:56:32.001Z</time></trkpt><trkpt lat="43.4731991694852" lon="3.223902823339525"><ele>111.5</ele><time>2026-03-17T15:56:33.001Z</time></trkpt><trkpt lat="43.473247670074386" lon="3.223761782512144"><ele>111.0</ele><time>2026-03-17T15:56:34.001Z</time></trkpt><trkpt lat="43.47328929904766" lon="3.223687348431435"><ele>110.49999999999999</ele><time>2026-03-17T15:56:35.001Z</time></trkpt><trkpt lat="43.4733506261754" lon="3.2235783976370707"><ele>110.0</ele><time>2026-03-17T15:56:37.001Z</time></trkpt><trkpt lat="43.4734184221685" lon="3.223457954932574"><ele>109.99999999999999</ele><time>2026-03-17T15:56:39.001Z</time></trkpt><trkpt lat="43.47345949446183" lon="3.2233839779546716"><ele>110.0</ele><time>2026-03-17T15:56:40.001Z</time></trkpt><trkpt lat="43.47350574402316" lon="3.2232987446352857"><ele>110.0</ele><time>2026-03-17T15:56:41.001Z</time></trkpt><trkpt lat="43.47356022077528" lon="3.223204679520936"><ele>110.0</ele><time>2026-03-17T15:56:42.001Z</time></trkpt><trkpt lat="43.47362581894002" lon="3.223110847069942"><ele>109.99999999999999</ele><time>2026-03-17T15:56:43.001Z</time></trkpt><trkpt lat="43.47369822216145" lon="3.2230233177779755"><ele>110.0</ele><time>2026-03-17T15:56:44.001Z</time></trkpt><trkpt lat="43.473773906656994" lon="3.2229356307576835"><ele>108.8</ele><time>2026-03-17T15:56:45.001Z</time></trkpt><trkpt lat="43.47385357541365" lon="3.2228448109338856"><ele>107.6</ele><time>2026-03-17T15:56:46.001Z</time></trkpt><trkpt lat="43.47392619855941" lon="3.2227320891219033"><ele>106.4</ele><time>2026-03-17T15:56:47.001Z</time></trkpt><trkpt lat="43.47400975285255" lon="3.222644535077751"><ele>105.2</ele><time>2026-03-17T15:56:48.001Z</time></trkpt><trkpt lat="43.474084259447906" lon="3.222560295775722"><ele>104.0</ele><time>2026-03-17T15:56:49.001Z</time></trkpt><trkpt lat="43.47415820410884" lon="3.2224764609137906"><ele>103.99999999999999</ele><time>2026-03-17T15:56:50.001Z</time></trkpt><trkpt lat="43.474226142764294" lon="3.2224023402719206"><ele>104.0</ele><time>2026-03-17T15:56:51.001Z</time></trkpt><trkpt lat="43.474280756793114" lon="3.2223339853109345"><ele>104.0</ele><time>2026-03-17T15:56:52.001Z</time></trkpt><trkpt lat="43.474323430237014" lon="3.222262097584537"><ele>104.0</ele><time>2026-03-17T15:56:53.001Z</time></trkpt><trkpt lat="43.474349988238636" lon="3.2221662225923247"><ele>103.99999999999999</ele><time>2026-03-17T15:56:54.001Z</time></trkpt><trkpt lat="43.47435967156088" lon="3.222037857002538"><ele>104.0</ele><time>2026-03-17T15:56:55.001Z</time></trkpt><trkpt lat="43.47436694639358" lon="3.2219025749887718"><ele>104.2</ele><time>2026-03-17T15:56:56.001Z</time></trkpt><trkpt lat="43.474370294855625" lon="3.2217652145293267"><ele>104.4</ele><time>2026-03-17T15:56:57.001Z</time></trkpt><trkpt lat="43.474372645083506" lon="3.221626173041176"><ele>104.6</ele><time>2026-03-17T15:56:58.001Z</time></trkpt><trkpt lat="43.47437722977802" lon="3.2215065624340635"><ele>104.8</ele><time>2026-03-17T15:56:59.001Z</time></trkpt><trkpt lat="43.47437880369944" lon="3.221400060937771"><ele>105.0</ele><time>2026-03-17T15:57:01.001Z</time></trkpt><trkpt lat="43.47437686303752" lon="3.221260998287239"><ele>105.0</ele><time>2026-03-17T15:57:04Z</time></trkpt><trkpt lat="43.47435227506233" lon="3.2211592701481"><ele>105.0</ele><time>2026-03-17T15:57:05Z</time></trkpt><trkpt lat="43.47432327480557" lon="3.221044777570824"><ele>105.0</ele><time>2026-03-17T15:57:06Z</time></trkpt><trkpt lat="43.474291036165305" lon="3.220941956307368"><ele>105.0</ele><time>2026-03-17T15:57:07Z</time></trkpt><trkpt lat="43.47425187905555" lon="3.2208279818519436"><ele>105.0</ele><time>2026-03-17T15:57:08Z</time></trkpt><trkpt lat="43.47420217378255" lon="3.2207072047180536"><ele>105.0</ele><time>2026-03-17T15:57:09Z</time></trkpt><trkpt lat="43.47413829018888" lon="3.2205871653101377"><ele>105.75</ele><time>2026-03-17T15:57:10Z</time></trkpt><trkpt lat="43.47406540264999" lon="3.220454790868711"><ele>106.5</ele><time>2026-03-17T15:57:11Z</time></trkpt><trkpt lat="43.47398966067694" lon="3.2203213253267275"><ele>107.25</ele><time>2026-03-17T15:57:12Z</time></trkpt><trkpt lat="43.47390340947708" lon="3.2201739310420354"><ele>108.0</ele><time>2026-03-17T15:57:13Z</time></trkpt><trkpt lat="43.47381013734149" lon="3.220014265057678"><ele>107.25</ele><time>2026-03-17T15:57:14Z</time></trkpt><trkpt lat="43.473726282457704" lon="3.219863651716906"><ele>106.5</ele><time>2026-03-17T15:57:15Z</time></trkpt><trkpt lat="43.47364911989938" lon="3.2197167928894754"><ele>105.75</ele><time>2026-03-17T15:57:16Z</time></trkpt><trkpt lat="43.473581383539056" lon="3.2195711521646313"><ele>105.0</ele><time>2026-03-17T15:57:17Z</time></trkpt><trkpt lat="43.47352939985211" lon="3.2194235460662117"><ele>104.4</ele><time>2026-03-17T15:57:18Z</time></trkpt><trkpt lat="43.47349170621242" lon="3.219271496928286"><ele>103.8</ele><time>2026-03-17T15:57:19Z</time></trkpt><trkpt lat="43.4734664841861" lon="3.2191152579246176"><ele>103.19999999999999</ele><time>2026-03-17T15:57:20Z</time></trkpt><trkpt lat="43.47345177105973" lon="3.218962035314546"><ele>102.6</ele><time>2026-03-17T15:57:21Z</time></trkpt><trkpt lat="43.47344322245898" lon="3.218824518714948"><ele>102.0</ele><time>2026-03-17T15:57:22Z</time></trkpt><trkpt lat="43.47344432394367" lon="3.2187160227408538"><ele>101.75</ele><time>2026-03-17T15:57:23Z</time></trkpt><trkpt lat="43.47344877987792" lon="3.2185766105515268"><ele>101.5</ele><time>2026-03-17T15:57:25Z</time></trkpt><trkpt lat="43.473450038393835" lon="3.21848493448627"><ele>101.25</ele><time>2026-03-17T15:57:27Z</time></trkpt><trkpt lat="43.47323992785115" lon="3.218560831106341"><ele>101.0</ele><time>2026-03-17T15:57:35Z</time></trkpt><trkpt lat="43.473204645469835" lon="3.218660096004556"><ele>100.99999999999999</ele><time>2026-03-17T15:57:36Z</time></trkpt><trkpt lat="43.47316412135672" lon="3.2187387344701217"><ele>101.0</ele><time>2026-03-17T15:57:37Z</time></trkpt><trkpt lat="43.47311717768039" lon="3.2188272392682884"><ele>101.0</ele><time>2026-03-17T15:57:38Z</time></trkpt><trkpt lat="43.473068720661075" lon="3.21892477689329"><ele>101.0</ele><time>2026-03-17T15:57:39Z</time></trkpt><trkpt lat="43.47301493978327" lon="3.219026633780239"><ele>100.99999999999999</ele><time>2026-03-17T15:57:40Z</time></trkpt><trkpt lat="43.472962152159205" lon="3.2191375870595524"><ele>101.0</ele><time>2026-03-17T15:57:41Z</time></trkpt><trkpt lat="43.47290404892598" lon="3.219251759776664"><ele>101.8</ele><time>2026-03-17T15:57:42Z</time></trkpt><trkpt lat="43.472848099294886" lon="3.2193589022025106"><ele>102.6</ele><time>2026-03-17T15:57:43Z</time></trkpt><trkpt lat="43.4728030053493" lon="3.219444972592493"><ele>103.4</ele><time>2026-03-17T15:57:44Z</time></trkpt><trkpt lat="43.47275577577319" lon="3.219504255194475"><ele>104.2</ele><time>2026-03-17T15:57:45Z</time></trkpt><trkpt lat="43.47265124891995" lon="3.2195605694065708"><ele>105.0</ele><time>2026-03-17T15:57:47Z</time></trkpt><trkpt lat="43.47254648594374" lon="3.219590939116753"><ele>105.0</ele><time>2026-03-17T15:57:49Z</time></trkpt><trkpt lat="43.47243757321801" lon="3.219603415861731"><ele>105.0</ele><time>2026-03-17T15:57:52Z</time></trkpt><trkpt lat="43.472365401468124" lon="3.2196178154447788"><ele>105.0</ele><time>2026-03-17T15:57:53Z</time></trkpt><trkpt lat="43.47227888733726" lon="3.2195995402469584"><ele>105.0</ele><time>2026-03-17T15:57:54Z</time></trkpt><trkpt lat="43.4721897550793" lon="3.2195679256942817"><ele>105.0</ele><time>2026-03-17T15:57:55Z</time></trkpt><trkpt lat="43.4721018801614" lon="3.2195223233208674"><ele>106.0</ele><time>2026-03-17T15:57:56Z</time></trkpt><trkpt lat="43.472012263031914" lon="3.219460014850199"><ele>107.0</ele><time>2026-03-17T15:57:57Z</time></trkpt><trkpt lat="43.47192142880315" lon="3.2193961725337426"><ele>108.0</ele><time>2026-03-17T15:57:58Z</time></trkpt><trkpt lat="43.471826049650254" lon="3.219325765613949"><ele>109.0</ele><time>2026-03-17T15:57:59Z</time></trkpt><trkpt lat="43.47173970601644" lon="3.219261024124206"><ele>110.0</ele><time>2026-03-17T15:58:00Z</time></trkpt><trkpt lat="43.471650023087186" lon="3.21920174348452"><ele>109.99999999999999</ele><time>2026-03-17T15:58:01Z</time></trkpt><trkpt lat="43.471559603441634" lon="3.219150593648022"><ele>110.0</ele><time>2026-03-17T15:58:02.001Z</time></trkpt><trkpt lat="43.471480309909424" lon="3.219077512645167"><ele>110.0</ele><time>2026-03-17T15:58:03.001Z</time></trkpt><trkpt lat="43.47139668316103" lon="3.219026064953455"><ele>110.0</ele><time>2026-03-17T15:58:04.001Z</time></trkpt><trkpt lat="43.471320152896" lon="3.2189973155365466"><ele>109.99999999999999</ele><time>2026-03-17T15:58:05.001Z</time></trkpt><trkpt lat="43.47125678283026" lon="3.218952451323016"><ele>110.0</ele><time>2026-03-17T15:58:06.001Z</time></trkpt><trkpt lat="43.47117155968849" lon="3.2188947396973018"><ele>109.49999999999999</ele><time>2026-03-17T15:58:08.001Z</time></trkpt><trkpt lat="43.47110491283941" lon="3.2188428061922165"><ele>109.0</ele><time>2026-03-17T15:58:11.001Z</time></trkpt><trkpt lat="43.47103791380346" lon="3.2188065604777885"><ele>108.5</ele><time>2026-03-17T15:58:12.001Z</time></trkpt><trkpt lat="43.47096696285907" lon="3.2187437145028177"><ele>108.0</ele><time>2026-03-17T15:58:13.001Z</time></trkpt><trkpt lat="43.47088823728924" lon="3.2186889511790926"><ele>107.49999999999999</ele><time>2026-03-17T15:58:14.001Z</time></trkpt><trkpt lat="43.47080910854819" lon="3.2186282635052432"><ele>107.0</ele><time>2026-03-17T15:58:15.001Z</time></trkpt><trkpt lat="43.47072552408891" lon="3.2185538527903996"><ele>106.99999999999999</ele><time>2026-03-17T15:58:16.001Z</time></trkpt><trkpt lat="43.47063124258596" lon="3.2184891208613036"><ele>107.0</ele><time>2026-03-17T15:58:17.001Z</time></trkpt><trkpt lat="43.47055160313293" lon="3.2184098431556385"><ele>107.0</ele><time>2026-03-17T15:58:18.001Z</time></trkpt><trkpt lat="43.470474892246756" lon="3.2183389123104114"><ele>107.0</ele><time>2026-03-17T15:58:19.001Z</time></trkpt><trkpt lat="43.47040332274188" lon="3.2182834312812636"><ele>106.99999999999999</ele><time>2026-03-17T15:58:20.001Z</time></trkpt><trkpt lat="43.470339886241796" lon="3.2182383361895606"><ele>107.0</ele><time>2026-03-17T15:58:21.001Z</time></trkpt><trkpt lat="43.47026286620284" lon="3.2181950546915354"><ele>106.39999999999999</ele><time>2026-03-17T15:58:23.001Z</time></trkpt><trkpt lat="43.470177435214524" lon="3.218173876056307"><ele>105.79999999999998</ele><time>2026-03-17T15:58:25.001Z</time></trkpt><trkpt lat="43.47008032782262" lon="3.218100837305198"><ele>105.2</ele><time>2026-03-17T15:58:27.001Z</time></trkpt><trkpt lat="43.47000765971343" lon="3.2179790420585532"><ele>104.6</ele><time>2026-03-17T15:58:29.001Z</time></trkpt><trkpt lat="43.46996627363006" lon="3.217895999985194"><ele>104.0</ele><time>2026-03-17T15:58:30.001Z</time></trkpt><trkpt lat="43.46992547717315" lon="3.2177907174797777"><ele>104.0</ele><time>2026-03-17T15:58:31.001Z</time></trkpt><trkpt lat="43.46988856013303" lon="3.2176643407462704"><ele>104.0</ele><time>2026-03-17T15:58:32.001Z</time></trkpt><trkpt lat="43.46987521189323" lon="3.217514886237548"><ele>104.0</ele><time>2026-03-17T15:58:33.001Z</time></trkpt><trkpt lat="43.46987221924558" lon="3.2173530815680533"><ele>104.0</ele><time>2026-03-17T15:58:34.001Z</time></trkpt><trkpt lat="43.4698821903683" lon="3.217179334843998"><ele>102.25</ele><time>2026-03-17T15:58:35.001Z</time></trkpt><trkpt lat="43.469907029478314" lon="3.2170044469911914"><ele>100.5</ele><time>2026-03-17T15:58:36.001Z</time></trkpt><trkpt lat="43.46993918319343" lon="3.2168238879454223"><ele>98.75</ele><time>2026-03-17T15:58:37.001Z</time></trkpt><trkpt lat="43.469973164943106" lon="3.216637877317585"><ele>97.0</ele><time>2026-03-17T15:58:38.001Z</time></trkpt><trkpt lat="43.47000402799529" lon="3.2164515868831662"><ele>96.75</ele><time>2026-03-17T15:58:39.001Z</time></trkpt><trkpt lat="43.470039521364434" lon="3.2162601757401297"><ele>96.5</ele><time>2026-03-17T15:58:40.001Z</time></trkpt><trkpt lat="43.470073640676276" lon="3.216059344841556"><ele>96.25</ele><time>2026-03-17T15:58:41.001Z</time></trkpt><trkpt lat="43.470110333077486" lon="3.215853644080913"><ele>96.0</ele><time>2026-03-17T15:58:42.001Z</time></trkpt><trkpt lat="43.4701526357877" lon="3.215641642547309"><ele>95.33333333333333</ele><time>2026-03-17T15:58:43.001Z</time></trkpt><trkpt lat="43.470194819167816" lon="3.2154258047000823"><ele>94.66666666666666</ele><time>2026-03-17T15:58:44.001Z</time></trkpt><trkpt lat="43.470240358796715" lon="3.2152043115844684"><ele>94.0</ele><time>2026-03-17T15:58:45.001Z</time></trkpt><trkpt lat="43.47028952849585" lon="3.2149792411529194"><ele>93.66666666666666</ele><time>2026-03-17T15:58:46.001Z</time></trkpt><trkpt lat="43.470333443629436" lon="3.2147485120743644"><ele>93.33333333333333</ele><time>2026-03-17T15:58:47.001Z</time></trkpt><trkpt lat="43.470370670558715" lon="3.2145214906902395"><ele>93.0</ele><time>2026-03-17T15:58:48.001Z</time></trkpt><trkpt lat="43.47040845582139" lon="3.2143020120172956"><ele>93.0</ele><time>2026-03-17T15:58:49.001Z</time></trkpt><trkpt lat="43.470448273688596" lon="3.2140935005407334"><ele>93.0</ele><time>2026-03-17T15:58:50.001Z</time></trkpt><trkpt lat="43.47048818135147" lon="3.213894489979534"><ele>93.0</ele><time>2026-03-17T15:58:51.001Z</time></trkpt><trkpt lat="43.47052309424556" lon="3.213705200422289"><ele>93.0</ele><time>2026-03-17T15:58:52.001Z</time></trkpt><trkpt lat="43.47055255462138" lon="3.213520961922813"><ele>93.25</ele><time>2026-03-17T15:58:53.001Z</time></trkpt><trkpt lat="43.470584471179684" lon="3.2133448760790064"><ele>93.5</ele><time>2026-03-17T15:58:54.001Z</time></trkpt><trkpt lat="43.470612800841" lon="3.213177838036595"><ele>93.75</ele><time>2026-03-17T15:58:55.001Z</time></trkpt><trkpt lat="43.47064103596041" lon="3.2130167766067133"><ele>94.0</ele><time>2026-03-17T15:58:56.001Z</time></trkpt><trkpt lat="43.4706669988179" lon="3.2128625404726208"><ele>94.80000000000001</ele><time>2026-03-17T15:58:57.001Z</time></trkpt><trkpt lat="43.470696325271575" lon="3.2127108305819236"><ele>95.60000000000001</ele><time>2026-03-17T15:58:58.001Z</time></trkpt><trkpt lat="43.47072898558101" lon="3.2125604465951505"><ele>96.4</ele><time>2026-03-17T15:58:59.001Z</time></trkpt><trkpt lat="43.47076190991951" lon="3.2124112540874923"><ele>97.2</ele><time>2026-03-17T15:59:00.001Z</time></trkpt><trkpt lat="43.47079403457082" lon="3.212268976118904"><ele>98.0</ele><time>2026-03-17T15:59:01.001Z</time></trkpt><trkpt lat="43.47081976232656" lon="3.212143585175682"><ele>98.49999999999999</ele><time>2026-03-17T15:59:02.001Z</time></trkpt><trkpt lat="43.470840299892444" lon="3.2120248356115564"><ele>99.0</ele><time>2026-03-17T15:59:03.001Z</time></trkpt><trkpt lat="43.470856741691016" lon="3.211918736787328"><ele>99.5</ele><time>2026-03-17T15:59:04.001Z</time></trkpt><trkpt lat="43.4709078242492" lon="3.21177719835885"><ele>100.0</ele><time>2026-03-17T15:59:06.001Z</time></trkpt><trkpt lat="43.47094536632029" lon="3.2116934444815977"><ele>100.49999999999999</ele><time>2026-03-17T15:59:07.001Z</time></trkpt><trkpt lat="43.47096010494818" lon="3.2116071573203917"><ele>101.0</ele><time>2026-03-17T15:59:07.999Z</time></trkpt><trkpt lat="43.47091640362338" lon="3.2114728424048082"><ele>101.75</ele><time>2026-03-17T15:59:09.999Z</time></trkpt><trkpt lat="43.470808652383546" lon="3.2113778117378065"><ele>102.5</ele><time>2026-03-17T15:59:11.999Z</time></trkpt><trkpt lat="43.47078733879326" lon="3.2112061254549307"><ele>103.25</ele><time>2026-03-17T15:59:13Z</time></trkpt><trkpt lat="43.47074343392201" lon="3.21105936905594"><ele>104.0</ele><time>2026-03-17T15:59:13.999Z</time></trkpt><trkpt lat="43.47069756917037" lon="3.2109206854471877"><ele>104.0</ele><time>2026-03-17T15:59:14.999Z</time></trkpt><trkpt lat="43.470639717543655" lon="3.2107780600894738"><ele>104.0</ele><time>2026-03-17T15:59:15.999Z</time></trkpt><trkpt lat="43.47056656359101" lon="3.210632438741424"><ele>104.0</ele><time>2026-03-17T15:59:17Z</time></trkpt><trkpt lat="43.470477105487234" lon="3.210471281676028"><ele>104.0</ele><time>2026-03-17T15:59:18Z</time></trkpt><trkpt lat="43.47038039833028" lon="3.210303718731576"><ele>105.25</ele><time>2026-03-17T15:59:19Z</time></trkpt><trkpt lat="43.47029659961787" lon="3.210130785442686"><ele>106.5</ele><time>2026-03-17T15:59:20Z</time></trkpt><trkpt lat="43.47023374232043" lon="3.2099416487587535"><ele>107.75</ele><time>2026-03-17T15:59:21Z</time></trkpt><trkpt lat="43.47019135473848" lon="3.2097565484114394"><ele>109.0</ele><time>2026-03-17T15:59:22Z</time></trkpt><trkpt lat="43.47017347773723" lon="3.209583433058803"><ele>109.25</ele><time>2026-03-17T15:59:23Z</time></trkpt><trkpt lat="43.47014553367607" lon="3.209432299895004"><ele>109.5</ele><time>2026-03-17T15:59:24Z</time></trkpt><trkpt lat="43.47010576094771" lon="3.209280756206628"><ele>109.75</ele><time>2026-03-17T15:59:25Z</time></trkpt><trkpt lat="43.470084151898234" lon="3.2091264604275693"><ele>110.0</ele><time>2026-03-17T15:59:26Z</time></trkpt><trkpt lat="43.47005786187743" lon="3.2089764878959146"><ele>111.0</ele><time>2026-03-17T15:59:27Z</time></trkpt><trkpt lat="43.47003043380608" lon="3.208823008514713"><ele>112.0</ele><time>2026-03-17T15:59:28Z</time></trkpt><trkpt lat="43.4699968344302" lon="3.2086750021661063"><ele>113.0</ele><time>2026-03-17T15:59:29Z</time></trkpt><trkpt lat="43.46995888753647" lon="3.208544232840341"><ele>114.0</ele><time>2026-03-17T15:59:30Z</time></trkpt><trkpt lat="43.469912650936166" lon="3.208429758123277"><ele>115.0</ele><time>2026-03-17T15:59:31Z</time></trkpt><trkpt lat="43.46985267795281" lon="3.2083339343172885"><ele>115.00000000000001</ele><time>2026-03-17T15:59:32Z</time></trkpt><trkpt lat="43.46978829428442" lon="3.2082590558073663"><ele>115.0</ele><time>2026-03-17T15:59:33Z</time></trkpt><trkpt lat="43.46971225308795" lon="3.2082007735586484"><ele>115.0</ele><time>2026-03-17T15:59:34Z</time></trkpt><trkpt lat="43.46962817064104" lon="3.2081567356971163"><ele>115.0</ele><time>2026-03-17T15:59:35Z</time></trkpt><trkpt lat="43.46954306002255" lon="3.2081377923483836"><ele>115.00000000000001</ele><time>2026-03-17T15:59:36Z</time></trkpt><trkpt lat="43.46947152395779" lon="3.208129044404393"><ele>115.0</ele><time>2026-03-17T15:59:37Z</time></trkpt><trkpt lat="43.46940054588147" lon="3.2081219441607964"><ele>114.4</ele><time>2026-03-17T15:59:38Z</time></trkpt><trkpt lat="43.46928242959563" lon="3.208115984801322"><ele>113.8</ele><time>2026-03-17T15:59:40Z</time></trkpt><trkpt lat="43.46916263036763" lon="3.2081161609857656"><ele>113.19999999999999</ele><time>2026-03-17T15:59:42Z</time></trkpt><trkpt lat="43.46909489499088" lon="3.208072872098124"><ele>112.6</ele><time>2026-03-17T15:59:43Z</time></trkpt><trkpt lat="43.46903826746707" lon="3.208010678811834"><ele>112.0</ele><time>2026-03-17T15:59:44Z</time></trkpt><trkpt lat="43.46897430321719" lon="3.207956247021622"><ele>112.00000000000001</ele><time>2026-03-17T15:59:45Z</time></trkpt><trkpt lat="43.46890066805646" lon="3.2079391579121896"><ele>112.0</ele><time>2026-03-17T15:59:46Z</time></trkpt><trkpt lat="43.46883371515046" lon="3.2079658742568586"><ele>112.0</ele><time>2026-03-17T15:59:47Z</time></trkpt><trkpt lat="43.46878017756996" lon="3.2080253313600227"><ele>112.0</ele><time>2026-03-17T15:59:48Z</time></trkpt><trkpt lat="43.46874439964026" lon="3.2081022993073836"><ele>112.00000000000001</ele><time>2026-03-17T15:59:49Z</time></trkpt><trkpt lat="43.46872626909853" lon="3.2082421166012454"><ele>112.0</ele><time>2026-03-17T15:59:51Z</time></trkpt><trkpt lat="43.46858475156374" lon="3.2082753333400604"><ele>111.8</ele><time>2026-03-17T15:59:53Z</time></trkpt><trkpt lat="43.46846228730737" lon="3.208257111713178"><ele>111.6</ele><time>2026-03-17T15:59:55Z</time></trkpt><trkpt lat="43.46839185932122" lon="3.208246754777233"><ele>111.39999999999999</ele><time>2026-03-17T15:59:56Z</time></trkpt><trkpt lat="43.46830614953886" lon="3.2082276748487417"><ele>111.19999999999999</ele><time>2026-03-17T15:59:58Z</time></trkpt><trkpt lat="43.46828219813801" lon="3.2081158176439257"><ele>111.0</ele><time>2026-03-17T15:59:59Z</time></trkpt><trkpt lat="43.46826039319326" lon="3.207991543371323"><ele>111.0</ele><time>2026-03-17T16:00:01Z</time></trkpt><trkpt lat="43.46826356483515" lon="3.207900502599514"><ele>111.0</ele><time>2026-03-17T16:00:02Z</time></trkpt><trkpt lat="43.46826469916151" lon="3.207801313870016"><ele>111.0</ele><time>2026-03-17T16:00:03Z</time></trkpt><trkpt lat="43.468259511905615" lon="3.2077044722815997"><ele>111.0</ele><time>2026-03-17T16:00:04Z</time></trkpt><trkpt lat="43.46826153388765" lon="3.2076160542967598"><ele>111.0</ele><time>2026-03-17T16:00:05Z</time></trkpt><trkpt lat="43.46826917133238" lon="3.20752341748476"><ele>111.0</ele><time>2026-03-17T16:00:06Z</time></trkpt><trkpt lat="43.46827148247347" lon="3.207430931738877"><ele>111.0</ele><time>2026-03-17T16:00:07Z</time></trkpt><trkpt lat="43.46823141561827" lon="3.207281761363088"><ele>111.0</ele><time>2026-03-17T16:00:09Z</time></trkpt><trkpt lat="43.468236050481984" lon="3.2071937550437375"><ele>111.0</ele><time>2026-03-17T16:00:11Z</time></trkpt><trkpt lat="43.46806374686469" lon="3.2071863084261034"><ele>111.0</ele><time>2026-03-17T16:00:12Z</time></trkpt><trkpt lat="43.46798627861677" lon="3.207184857424488"><ele>111.0</ele><time>2026-03-17T16:00:13Z</time></trkpt><trkpt lat="43.46790057877726" lon="3.2071891234509278"><ele>111.0</ele><time>2026-03-17T16:00:14Z</time></trkpt><trkpt lat="43.46781300085883" lon="3.207205810470906"><ele>110.71428571428571</ele><time>2026-03-17T16:00:15Z</time></trkpt><trkpt lat="43.4677413116035" lon="3.207229181465849"><ele>110.42857142857143</ele><time>2026-03-17T16:00:16.001Z</time></trkpt><trkpt lat="43.46768316117081" lon="3.2072742487023205"><ele>110.14285714285714</ele><time>2026-03-17T16:00:17.001Z</time></trkpt><trkpt lat="43.467636736132505" lon="3.207344690833021"><ele>109.85714285714286</ele><time>2026-03-17T16:00:18.001Z</time></trkpt><trkpt lat="43.46761882725794" lon="3.2074354677683017"><ele>109.57142857142858</ele><time>2026-03-17T16:00:19.001Z</time></trkpt><trkpt lat="43.46761178188719" lon="3.2075373725287117"><ele>109.28571428571429</ele><time>2026-03-17T16:00:20.001Z</time></trkpt><trkpt lat="43.46760556670947" lon="3.2076502853842577"><ele>109.0</ele><time>2026-03-17T16:00:21.001Z</time></trkpt><trkpt lat="43.46759998349074" lon="3.207772233129742"><ele>109.00000000000001</ele><time>2026-03-17T16:00:22.001Z</time></trkpt><trkpt lat="43.46759319749958" lon="3.2078890026844644"><ele>109.0</ele><time>2026-03-17T16:00:23.001Z</time></trkpt><trkpt lat="43.467587978477226" lon="3.2079932926104076"><ele>109.0</ele><time>2026-03-17T16:00:24.001Z</time></trkpt><trkpt lat="43.467600018109195" lon="3.2080899447497213"><ele>109.0</ele><time>2026-03-17T16:00:25.001Z</time></trkpt><trkpt lat="43.467633486777146" lon="3.2081720328912393"><ele>109.00000000000001</ele><time>2026-03-17T16:00:26.001Z</time></trkpt><trkpt lat="43.467749288482004" lon="3.2082571859305737"><ele>109.0</ele><time>2026-03-17T16:00:28.001Z</time></trkpt><trkpt lat="43.467825451136704" lon="3.2082592669599515"><ele>109.0</ele><time>2026-03-17T16:00:29.001Z</time></trkpt><trkpt lat="43.46790261603862" lon="3.2082598940195757"><ele>109.0</ele><time>2026-03-17T16:00:30.001Z</time></trkpt><trkpt lat="43.467984521746565" lon="3.2082670928304733"><ele>109.0</ele><time>2026-03-17T16:00:31.001Z</time></trkpt><trkpt lat="43.46806127709168" lon="3.2082763984205713"><ele>109.0</ele><time>2026-03-17T16:00:32.001Z</time></trkpt><trkpt lat="43.468178503729476" lon="3.208280851295723"><ele>109.0</ele><time>2026-03-17T16:00:34.001Z</time></trkpt><trkpt lat="43.46828324782425" lon="3.2082837301618627"><ele>109.2</ele><time>2026-03-17T16:00:36.001Z</time></trkpt><trkpt lat="43.468377417678205" lon="3.2082890537643"><ele>109.4</ele><time>2026-03-17T16:00:38.001Z</time></trkpt><trkpt lat="43.46844836602221" lon="3.2083088387659986"><ele>109.6</ele><time>2026-03-17T16:00:40.001Z</time></trkpt><trkpt lat="43.468446948911634" lon="3.2085348708279047"><ele>109.8</ele><time>2026-03-17T16:00:44.001Z</time></trkpt><trkpt lat="43.46844694891308" lon="3.2086775236904024"><ele>110.0</ele><time>2026-03-17T16:00:46.001Z</time></trkpt><trkpt lat="43.46847738957037" lon="3.2087907563429936"><ele>110.0</ele><time>2026-03-17T16:00:48.001Z</time></trkpt><trkpt lat="43.468540745616856" lon="3.2088224586116545"><ele>110.0</ele><time>2026-03-17T16:00:49.001Z</time></trkpt><trkpt lat="43.46853420146761" lon="3.2089096655986307"><ele>110.0</ele><time>2026-03-17T16:00:53.001Z</time></trkpt><trkpt lat="43.4685490731526" lon="3.208997573318162"><ele>110.0</ele><time>2026-03-17T16:06:05.001Z</time></trkpt><trkpt lat="43.46861940031854" lon="3.208835890326973"><ele>110.0</ele><time>2026-03-17T16:06:12.001Z</time></trkpt><trkpt lat="43.46861365108593" lon="3.2086707106277323"><ele>110.0</ele><time>2026-03-17T16:06:14.001Z</time></trkpt><trkpt lat="43.46861365108673" lon="3.2085212845372837"><ele>110.0</ele><time>2026-03-17T16:06:16.001Z</time></trkpt><trkpt lat="43.46848192988031" lon="3.208455650294436"><ele>110.0</ele><time>2026-03-17T16:06:17.001Z</time></trkpt><trkpt lat="43.468484134226344" lon="3.2083634414439404"><ele>110.0</ele><time>2026-03-17T16:06:20.001Z</time></trkpt><trkpt lat="43.46864594181525" lon="3.208290563235102"><ele>109.99999999999999</ele><time>2026-03-17T16:06:27.001Z</time></trkpt><trkpt lat="43.46871320753822" lon="3.2082920691225976"><ele>110.0</ele><time>2026-03-17T16:06:28.001Z</time></trkpt><trkpt lat="43.46879895728398" lon="3.2083548446201573"><ele>110.0</ele><time>2026-03-17T16:06:30.001Z</time></trkpt><trkpt lat="43.468915297887946" lon="3.2083878942075876"><ele>110.0</ele><time>2026-03-17T16:06:32.001Z</time></trkpt><trkpt lat="43.468983699184804" lon="3.208360535445075"><ele>109.99999999999999</ele><time>2026-03-17T16:06:33.001Z</time></trkpt><trkpt lat="43.46904119848996" lon="3.2083097527985496"><ele>110.0</ele><time>2026-03-17T16:06:34.001Z</time></trkpt><trkpt lat="43.46910880398435" lon="3.2082531780576238"><ele>110.4</ele><time>2026-03-17T16:06:35.001Z</time></trkpt><trkpt lat="43.46919263884894" lon="3.2082151826702874"><ele>110.8</ele><time>2026-03-17T16:06:36.001Z</time></trkpt><trkpt lat="43.46929003129022" lon="3.2081833462368516"><ele>111.19999999999999</ele><time>2026-03-17T16:06:37.001Z</time></trkpt><trkpt lat="43.469391483546175" lon="3.208143103205627"><ele>111.6</ele><time>2026-03-17T16:06:38.001Z</time></trkpt><trkpt lat="43.46951130394301" lon="3.208171979583957"><ele>112.0</ele><time>2026-03-17T16:06:39.001Z</time></trkpt><trkpt lat="43.46961372515018" lon="3.208192218985385"><ele>112.6</ele><time>2026-03-17T16:06:40.001Z</time></trkpt><trkpt lat="43.4697160361526" lon="3.2082392912748707"><ele>113.19999999999999</ele><time>2026-03-17T16:06:41.001Z</time></trkpt><trkpt lat="43.46980840335949" lon="3.20831752902253"><ele>113.8</ele><time>2026-03-17T16:06:42.001Z</time></trkpt><trkpt lat="43.46988991768049" lon="3.2084180876371717"><ele>114.4</ele><time>2026-03-17T16:06:43.001Z</time></trkpt><trkpt lat="43.46994526498111" lon="3.2085553053814113"><ele>115.0</ele><time>2026-03-17T16:06:44.001Z</time></trkpt><trkpt lat="43.46998762721214" lon="3.2087122876205103"><ele>115.0</ele><time>2026-03-17T16:06:45.001Z</time></trkpt><trkpt lat="43.47002219860886" lon="3.208883168432461"><ele>115.0</ele><time>2026-03-17T16:06:46.001Z</time></trkpt><trkpt lat="43.47005159390152" lon="3.2090650727194285"><ele>115.0</ele><time>2026-03-17T16:06:47.001Z</time></trkpt><trkpt lat="43.470084385678874" lon="3.2092521904431397"><ele>115.0</ele><time>2026-03-17T16:06:48.001Z</time></trkpt><trkpt lat="43.47012206899955" lon="3.209447567520452"><ele>113.75</ele><time>2026-03-17T16:06:49.001Z</time></trkpt><trkpt lat="43.4701590509655" lon="3.2096430999619314"><ele>112.5</ele><time>2026-03-17T16:06:50.001Z</time></trkpt><trkpt lat="43.47019694746668" lon="3.2098275116676516"><ele>111.25</ele><time>2026-03-17T16:06:51.001Z</time></trkpt><trkpt lat="43.470229313023346" lon="3.2099953245562447"><ele>110.0</ele><time>2026-03-17T16:06:52.001Z</time></trkpt><trkpt lat="43.470272459821" lon="3.210140216212262"><ele>109.8</ele><time>2026-03-17T16:06:53.001Z</time></trkpt><trkpt lat="43.47032826897553" lon="3.2102713677750643"><ele>109.6</ele><time>2026-03-17T16:06:54.001Z</time></trkpt><trkpt lat="43.47039080586772" lon="3.2103853604470287"><ele>109.4</ele><time>2026-03-17T16:06:55.001Z</time></trkpt><trkpt lat="43.47044932007958" lon="3.210491518702158"><ele>109.2</ele><time>2026-03-17T16:06:56.001Z</time></trkpt><trkpt lat="43.470502525692574" lon="3.210585844040174"><ele>109.0</ele><time>2026-03-17T16:06:57.001Z</time></trkpt><trkpt lat="43.47055173483426" lon="3.2106723533864585"><ele>108.0</ele><time>2026-03-17T16:06:58.001Z</time></trkpt><trkpt lat="43.470596186688866" lon="3.210754101836903"><ele>107.0</ele><time>2026-03-17T16:06:59.001Z</time></trkpt><trkpt lat="43.47063715876634" lon="3.2108387139101993"><ele>106.0</ele><time>2026-03-17T16:07:00.001Z</time></trkpt><trkpt lat="43.47067479833837" lon="3.210925645431862"><ele>105.0</ele><time>2026-03-17T16:07:01.001Z</time></trkpt><trkpt lat="43.47072056367204" lon="3.2110718113007803"><ele>104.0</ele><time>2026-03-17T16:07:03.001Z</time></trkpt><trkpt lat="43.47076260163581" lon="3.2112344547099667"><ele>103.99999999999999</ele><time>2026-03-17T16:07:05.001Z</time></trkpt><trkpt lat="43.47077005796011" lon="3.2113303335335996"><ele>104.0</ele><time>2026-03-17T16:07:06.001Z</time></trkpt><trkpt lat="43.47075622003025" lon="3.2114324781295323"><ele>104.0</ele><time>2026-03-17T16:07:07.002Z</time></trkpt><trkpt lat="43.470706761384754" lon="3.211526866893589"><ele>104.0</ele><time>2026-03-17T16:07:08.002Z</time></trkpt><trkpt lat="43.47065013486697" lon="3.2116062010380904"><ele>103.99999999999999</ele><time>2026-03-17T16:07:09.002Z</time></trkpt><trkpt lat="43.470539696594656" lon="3.2116001598900383"><ele>104.0</ele><time>2026-03-17T16:07:10.002Z</time></trkpt><trkpt lat="43.470438865941205" lon="3.211581534975003"><ele>103.25</ele><time>2026-03-17T16:07:11.002Z</time></trkpt><trkpt lat="43.470323476956004" lon="3.2115477122675626"><ele>102.5</ele><time>2026-03-17T16:07:12.002Z</time></trkpt><trkpt lat="43.470196801547466" lon="3.211494030296744"><ele>101.75</ele><time>2026-03-17T16:07:13.002Z</time></trkpt><trkpt lat="43.4700663029839" lon="3.2114166574119385"><ele>101.0</ele><time>2026-03-17T16:07:14.002Z</time></trkpt><trkpt lat="43.469940512607195" lon="3.2113440152802295"><ele>102.75</ele><time>2026-03-17T16:07:15.002Z</time></trkpt><trkpt lat="43.46981337952165" lon="3.2112712662926683"><ele>104.5</ele><time>2026-03-17T16:07:16.002Z</time></trkpt><trkpt lat="43.46969115989867" lon="3.211193488282392"><ele>106.25</ele><time>2026-03-17T16:07:17.002Z</time></trkpt><trkpt lat="43.46957562618993" lon="3.211111330051449"><ele>108.0</ele><time>2026-03-17T16:07:18.002Z</time></trkpt><trkpt lat="43.469467204657306" lon="3.2110334716667186"><ele>108.0</ele><time>2026-03-17T16:07:19.002Z</time></trkpt><trkpt lat="43.46936518331491" lon="3.210952578179503"><ele>108.0</ele><time>2026-03-17T16:07:20.002Z</time></trkpt><trkpt lat="43.469268982578456" lon="3.210851786216454"><ele>108.0</ele><time>2026-03-17T16:07:21.002Z</time></trkpt><trkpt lat="43.46917725604747" lon="3.2107411846370937"><ele>108.0</ele><time>2026-03-17T16:07:22.002Z</time></trkpt><trkpt lat="43.46908845058971" lon="3.2106230952164134"><ele>108.5</ele><time>2026-03-17T16:07:23.002Z</time></trkpt><trkpt lat="43.46900055021573" lon="3.210505068156889"><ele>109.0</ele><time>2026-03-17T16:07:24.002Z</time></trkpt><trkpt lat="43.468915589350736" lon="3.2103821646162136"><ele>109.5</ele><time>2026-03-17T16:07:25.002Z</time></trkpt><trkpt lat="43.46883776442418" lon="3.2102536038357354"><ele>110.0</ele><time>2026-03-17T16:07:26.002Z</time></trkpt><trkpt lat="43.46878138752643" lon="3.210120535504849"><ele>109.99999999999999</ele><time>2026-03-17T16:07:27.002Z</time></trkpt><trkpt lat="43.46875295853896" lon="3.209989649557672"><ele>110.0</ele><time>2026-03-17T16:07:28.002Z</time></trkpt><trkpt lat="43.46873820674618" lon="3.2098694774070937"><ele>110.0</ele><time>2026-03-17T16:07:29.002Z</time></trkpt><trkpt lat="43.468744467387594" lon="3.2097637859959702"><ele>110.0</ele><time>2026-03-17T16:07:30.002Z</time></trkpt><trkpt lat="43.46878359424108" lon="3.2096793423112477"><ele>109.99999999999999</ele><time>2026-03-17T16:07:31.002Z</time></trkpt><trkpt lat="43.46883279380118" lon="3.20960003248202"><ele>110.0</ele><time>2026-03-17T16:07:32Z</time></trkpt><trkpt lat="43.46892721517563" lon="3.2095961880348756"><ele>110.0</ele><time>2026-03-17T16:07:33Z</time></trkpt><trkpt lat="43.469023384065196" lon="3.209591677027776"><ele>110.0</ele><time>2026-03-17T16:07:34Z</time></trkpt><trkpt lat="43.46913589937715" lon="3.2096021735880442"><ele>110.0</ele><time>2026-03-17T16:07:35Z</time></trkpt><trkpt lat="43.469262884108915" lon="3.2096142553655826"><ele>110.0</ele><time>2026-03-17T16:07:36Z</time></trkpt><trkpt lat="43.46940591401359" lon="3.2096166154720533"><ele>110.0</ele><time>2026-03-17T16:07:37Z</time></trkpt><trkpt lat="43.469565923704636" lon="3.209604973667289"><ele>110.0</ele><time>2026-03-17T16:07:38Z</time></trkpt><trkpt lat="43.469725560661345" lon="3.20959600993879"><ele>110.0</ele><time>2026-03-17T16:07:39Z</time></trkpt><trkpt lat="43.46987604738069" lon="3.209598070600424"><ele>110.0</ele><time>2026-03-17T16:07:40Z</time></trkpt><trkpt lat="43.470029686664056" lon="3.209593399939993"><ele>110.0</ele><time>2026-03-17T16:07:41Z</time></trkpt><trkpt lat="43.47018521842537" lon="3.209575502468505"><ele>110.0</ele><time>2026-03-17T16:07:42Z</time></trkpt><trkpt lat="43.4703411272908" lon="3.2095442623420762"><ele>110.66666666666666</ele><time>2026-03-17T16:07:43Z</time></trkpt><trkpt lat="43.47050309338588" lon="3.2094986583872203"><ele>111.33333333333334</ele><time>2026-03-17T16:07:44Z</time></trkpt><trkpt lat="43.470671192591155" lon="3.2094454513194646"><ele>112.0</ele><time>2026-03-17T16:07:45Z</time></trkpt><trkpt lat="43.470848733258244" lon="3.2093725358593983"><ele>112.0</ele><time>2026-03-17T16:07:46Z</time></trkpt><trkpt lat="43.47103802938595" lon="3.2092764031517977"><ele>112.0</ele><time>2026-03-17T16:07:47Z</time></trkpt><trkpt lat="43.47124353252436" lon="3.209165649812531"><ele>112.0</ele><time>2026-03-17T16:07:48Z</time></trkpt><trkpt lat="43.47144928629602" lon="3.209056436057041"><ele>112.66666666666667</ele><time>2026-03-17T16:07:49Z</time></trkpt><trkpt lat="43.47163979337578" lon="3.20895624405212"><ele>113.33333333333334</ele><time>2026-03-17T16:07:50Z</time></trkpt><trkpt lat="43.47182615364623" lon="3.208860904675459"><ele>114.0</ele><time>2026-03-17T16:07:51Z</time></trkpt><trkpt lat="43.47201464798181" lon="3.2087679498851998"><ele>113.33333333333334</ele><time>2026-03-17T16:07:52Z</time></trkpt><trkpt lat="43.4721997982911" lon="3.208670261344166"><ele>112.66666666666667</ele><time>2026-03-17T16:07:53Z</time></trkpt><trkpt lat="43.47238418589232" lon="3.2085728460348792"><ele>112.0</ele><time>2026-03-17T16:07:54Z</time></trkpt><trkpt lat="43.47256747846335" lon="3.2084758601583285"><ele>112.0</ele><time>2026-03-17T16:07:55Z</time></trkpt><trkpt lat="43.472744537943896" lon="3.2083818550035765"><ele>112.0</ele><time>2026-03-17T16:07:56Z</time></trkpt><trkpt lat="43.47290954950111" lon="3.208297426613306"><ele>112.0</ele><time>2026-03-17T16:07:57Z</time></trkpt><trkpt lat="43.47307640909117" lon="3.2082120469394715"><ele>113.66666666666667</ele><time>2026-03-17T16:07:58Z</time></trkpt><trkpt lat="43.47325024665224" lon="3.208124683777075"><ele>115.33333333333334</ele><time>2026-03-17T16:07:59Z</time></trkpt><trkpt lat="43.47342130768897" lon="3.208032171397337"><ele>117.0</ele><time>2026-03-17T16:08:00Z</time></trkpt><trkpt lat="43.47359386742531" lon="3.207938143189107"><ele>117.0</ele><time>2026-03-17T16:08:01Z</time></trkpt><trkpt lat="43.47376752025747" lon="3.2078451210895347"><ele>117.0</ele><time>2026-03-17T16:08:02Z</time></trkpt><trkpt lat="43.473944964703556" lon="3.2077551650987868"><ele>117.0</ele><time>2026-03-17T16:08:03Z</time></trkpt><trkpt lat="43.474123196672096" lon="3.2076633892267616"><ele>116.33333333333334</ele><time>2026-03-17T16:08:04Z</time></trkpt><trkpt lat="43.47430785080574" lon="3.2075776854581775"><ele>115.66666666666667</ele><time>2026-03-17T16:08:05Z</time></trkpt><trkpt lat="43.47449912447925" lon="3.2075177930057084"><ele>115.0</ele><time>2026-03-17T16:08:06Z</time></trkpt><trkpt lat="43.474697580082434" lon="3.2074737890930614"><ele>112.66666666666667</ele><time>2026-03-17T16:08:07Z</time></trkpt><trkpt lat="43.47490950994463" lon="3.2074386148511955"><ele>110.33333333333334</ele><time>2026-03-17T16:08:08Z</time></trkpt><trkpt lat="43.47512661578527" lon="3.207408236331413"><ele>108.0</ele><time>2026-03-17T16:08:09Z</time></trkpt><trkpt lat="43.475350568615774" lon="3.2073821822275583"><ele>108.0</ele><time>2026-03-17T16:08:10Z</time></trkpt><trkpt lat="43.47558064284716" lon="3.207354001542973"><ele>108.0</ele><time>2026-03-17T16:08:11Z</time></trkpt><trkpt lat="43.475813098757314" lon="3.2073261047857122"><ele>113.0</ele><time>2026-03-17T16:08:12Z</time></trkpt><trkpt lat="43.47604201839919" lon="3.207295930066951"><ele>118.0</ele><time>2026-03-17T16:08:13Z</time></trkpt><trkpt lat="43.47626628014184" lon="3.2072646849315456"><ele>120.33333333333334</ele><time>2026-03-17T16:08:14Z</time></trkpt><trkpt lat="43.47648808397139" lon="3.20723595817931"><ele>122.66666666666666</ele><time>2026-03-17T16:08:15Z</time></trkpt><trkpt lat="43.47670783375913" lon="3.207209912027457"><ele>125.0</ele><time>2026-03-17T16:08:16Z</time></trkpt><trkpt lat="43.476926267192276" lon="3.207183341942988"><ele>126.0</ele><time>2026-03-17T16:08:17Z</time></trkpt><trkpt lat="43.47714496570075" lon="3.2071572864634903"><ele>127.0</ele><time>2026-03-17T16:08:18Z</time></trkpt><trkpt lat="43.477364030427346" lon="3.2071295754452533"><ele>128.0</ele><time>2026-03-17T16:08:19Z</time></trkpt><trkpt lat="43.4775804520076" lon="3.2070998134328277"><ele>128.0</ele><time>2026-03-17T16:08:20Z</time></trkpt><trkpt lat="43.47779711549377" lon="3.2070700228607376"><ele>128.0</ele><time>2026-03-17T16:08:21Z</time></trkpt><trkpt lat="43.47801212445682" lon="3.2070393253025324"><ele>128.0</ele><time>2026-03-17T16:08:22Z</time></trkpt><trkpt lat="43.478224043930794" lon="3.2070098925353183"><ele>125.0</ele><time>2026-03-17T16:08:23Z</time></trkpt><trkpt lat="43.47842061299814" lon="3.2069552500595058"><ele>122.0</ele><time>2026-03-17T16:08:24Z</time></trkpt><trkpt lat="43.478614673416295" lon="3.2068765088770426"><ele>119.0</ele><time>2026-03-17T16:08:25Z</time></trkpt><trkpt lat="43.47880240000796" lon="3.2067687156734186"><ele>119.33333333333333</ele><time>2026-03-17T16:08:26Z</time></trkpt><trkpt lat="43.478980200244706" lon="3.206631020420406"><ele>119.66666666666666</ele><time>2026-03-17T16:08:27Z</time></trkpt><trkpt lat="43.479143431213046" lon="3.206457949711612"><ele>120.0</ele><time>2026-03-17T16:08:28Z</time></trkpt><trkpt lat="43.479299285139945" lon="3.2062602128174875"><ele>120.0</ele><time>2026-03-17T16:08:29Z</time></trkpt><trkpt lat="43.47944444310408" lon="3.2060463276210167"><ele>120.0</ele><time>2026-03-17T16:08:30Z</time></trkpt><trkpt lat="43.479580427395874" lon="3.2058182189189632"><ele>120.0</ele><time>2026-03-17T16:08:31Z</time></trkpt><trkpt lat="43.47971162903788" lon="3.205578204111917"><ele>120.0</ele><time>2026-03-17T16:08:32.001Z</time></trkpt><trkpt lat="43.47984328010176" lon="3.205336360365431"><ele>120.0</ele><time>2026-03-17T16:08:33.001Z</time></trkpt><trkpt lat="43.47997833920982" lon="3.205091072109291"><ele>120.0</ele><time>2026-03-17T16:08:34.001Z</time></trkpt><trkpt lat="43.480117089358004" lon="3.2048469901197705"><ele>123.0</ele><time>2026-03-17T16:08:35.001Z</time></trkpt><trkpt lat="43.48025626688392" lon="3.2046001188619915"><ele>126.0</ele><time>2026-03-17T16:08:36.001Z</time></trkpt><trkpt lat="43.48039685846996" lon="3.2043483431493525"><ele>121.5</ele><time>2026-03-17T16:08:37.001Z</time></trkpt><trkpt lat="43.48053818159322" lon="3.204092234577585"><ele>117.0</ele><time>2026-03-17T16:08:38.001Z</time></trkpt><trkpt lat="43.48068093476081" lon="3.2038327471704346"><ele>117.0</ele><time>2026-03-17T16:08:39.001Z</time></trkpt><trkpt lat="43.48082589315746" lon="3.2035683607888172"><ele>117.0</ele><time>2026-03-17T16:08:40.001Z</time></trkpt><trkpt lat="43.4809705023875" lon="3.203302627645497"><ele>120.0</ele><time>2026-03-17T16:08:41.001Z</time></trkpt><trkpt lat="43.48111664495061" lon="3.2030428320884003"><ele>123.0</ele><time>2026-03-17T16:08:42.001Z</time></trkpt><trkpt lat="43.48126107517466" lon="3.2028003502434936"><ele>122.66666666666666</ele><time>2026-03-17T16:08:43.001Z</time></trkpt><trkpt lat="43.48140607732163" lon="3.2025817399285668"><ele>122.33333333333333</ele><time>2026-03-17T16:08:44.001Z</time></trkpt><trkpt lat="43.481567554986555" lon="3.202381757538615"><ele>122.0</ele><time>2026-03-17T16:08:45.001Z</time></trkpt><trkpt lat="43.48174518769045" lon="3.2022074560789964"><ele>122.0</ele><time>2026-03-17T16:08:46.001Z</time></trkpt><trkpt lat="43.48193678863016" lon="3.202055573460844"><ele>122.0</ele><time>2026-03-17T16:08:47.001Z</time></trkpt><trkpt lat="43.48214508994193" lon="3.201928854172178"><ele>122.0</ele><time>2026-03-17T16:08:48.001Z</time></trkpt><trkpt lat="43.48235973695431" lon="3.2017997007715695"><ele>118.5</ele><time>2026-03-17T16:08:49.001Z</time></trkpt><trkpt lat="43.48257884835705" lon="3.201659909927481"><ele>115.0</ele><time>2026-03-17T16:08:50.001Z</time></trkpt><trkpt lat="43.48280070954957" lon="3.2015157763092854"><ele>117.5</ele><time>2026-03-17T16:08:51.001Z</time></trkpt><trkpt lat="43.483024403908274" lon="3.201375474449293"><ele>120.0</ele><time>2026-03-17T16:08:52.001Z</time></trkpt><trkpt lat="43.483249388363234" lon="3.201233767742658"><ele>120.0</ele><time>2026-03-17T16:08:53.001Z</time></trkpt><trkpt lat="43.483471654760606" lon="3.2010914264166774"><ele>120.0</ele><time>2026-03-17T16:08:54.001Z</time></trkpt><trkpt lat="43.483693385074794" lon="3.2009468917598185"><ele>121.0</ele><time>2026-03-17T16:08:55.001Z</time></trkpt><trkpt lat="43.48391403684166" lon="3.2008038755082033"><ele>122.0</ele><time>2026-03-17T16:08:56.001Z</time></trkpt><trkpt lat="43.48413424699785" lon="3.200664461782636"><ele>122.0</ele><time>2026-03-17T16:08:57.001Z</time></trkpt><trkpt lat="43.48435322672896" lon="3.2005311680547868"><ele>122.0</ele><time>2026-03-17T16:08:58.001Z</time></trkpt><trkpt lat="43.48455736414931" lon="3.200408165368296"><ele>119.66666666666666</ele><time>2026-03-17T16:08:59.001Z</time></trkpt><trkpt lat="43.48475044482231" lon="3.2002881496438733"><ele>117.33333333333334</ele><time>2026-03-17T16:09:00.001Z</time></trkpt><trkpt lat="43.48493221346785" lon="3.2001755260970177"><ele>115.0</ele><time>2026-03-17T16:09:01.001Z</time></trkpt><trkpt lat="43.48510421421507" lon="3.2000645883900103"><ele>115.0</ele><time>2026-03-17T16:09:02.001Z</time></trkpt><trkpt lat="43.48526869472668" lon="3.1999582339017465"><ele>115.0</ele><time>2026-03-17T16:09:03.001Z</time></trkpt><trkpt lat="43.48542640954863" lon="3.19985950577371"><ele>115.0</ele><time>2026-03-17T16:09:04.001Z</time></trkpt><trkpt lat="43.485580827631594" lon="3.1997667923171087"><ele>115.66666666666667</ele><time>2026-03-17T16:09:05.001Z</time></trkpt><trkpt lat="43.48574475097076" lon="3.1996705425740326"><ele>116.33333333333334</ele><time>2026-03-17T16:09:06.001Z</time></trkpt><trkpt lat="43.48591199272418" lon="3.199563497074088"><ele>117.0</ele><time>2026-03-17T16:09:07.001Z</time></trkpt><trkpt lat="43.48608350019573" lon="3.199454050001238"><ele>117.0</ele><time>2026-03-17T16:09:08.001Z</time></trkpt><trkpt lat="43.48625941013445" lon="3.199341715035172"><ele>117.0</ele><time>2026-03-17T16:09:09.001Z</time></trkpt><trkpt lat="43.48644085152656" lon="3.1992330445224155"><ele>117.0</ele><time>2026-03-17T16:09:10.001Z</time></trkpt><trkpt lat="43.48662244732719" lon="3.199118183281675"><ele>117.33333333333334</ele><time>2026-03-17T16:09:11.001Z</time></trkpt><trkpt lat="43.48680029726557" lon="3.1989906838722573"><ele>117.66666666666667</ele><time>2026-03-17T16:09:12.001Z</time></trkpt><trkpt lat="43.48697355718115" lon="3.1988488864464384"><ele>118.0</ele><time>2026-03-17T16:09:13.001Z</time></trkpt><trkpt lat="43.48713952928929" lon="3.1986847905393647"><ele>118.33333333333334</ele><time>2026-03-17T16:09:14.001Z</time></trkpt><trkpt lat="43.487294343661674" lon="3.198497558104785"><ele>118.66666666666666</ele><time>2026-03-17T16:09:15.001Z</time></trkpt><trkpt lat="43.48743040067919" lon="3.198279741400583"><ele>119.0</ele><time>2026-03-17T16:09:16.001Z</time></trkpt><trkpt lat="43.487546127946054" lon="3.198038715185069"><ele>119.0</ele><time>2026-03-17T16:09:17.001Z</time></trkpt><trkpt lat="43.48764699929266" lon="3.197782250568736"><ele>119.0</ele><time>2026-03-17T16:09:18.001Z</time></trkpt><trkpt lat="43.48773204042352" lon="3.1975145888598164"><ele>119.0</ele><time>2026-03-17T16:09:19.001Z</time></trkpt><trkpt lat="43.48780589970898" lon="3.1972316953633206"><ele>119.0</ele><time>2026-03-17T16:09:20.001Z</time></trkpt><trkpt lat="43.487878125741" lon="3.19693495926642"><ele>119.0</ele><time>2026-03-17T16:09:21.001Z</time></trkpt><trkpt lat="43.48795884511935" lon="3.196628913232665"><ele>116.0</ele><time>2026-03-17T16:09:22.001Z</time></trkpt><trkpt lat="43.488042117898736" lon="3.1963147807164285"><ele>113.0</ele><time>2026-03-17T16:09:23.001Z</time></trkpt><trkpt lat="43.48812281884318" lon="3.196008830965937"><ele>113.0</ele><time>2026-03-17T16:09:24.001Z</time></trkpt><trkpt lat="43.48820785811031" lon="3.195693742946148"><ele>113.0</ele><time>2026-03-17T16:09:25.001Z</time></trkpt><trkpt lat="43.48829641489816" lon="3.195369485897089"><ele>113.5</ele><time>2026-03-17T16:09:26.001Z</time></trkpt><trkpt lat="43.48838279020009" lon="3.19504464411042"><ele>114.0</ele><time>2026-03-17T16:09:27.001Z</time></trkpt><trkpt lat="43.48846740033869" lon="3.1947127843327063"><ele>115.0</ele><time>2026-03-17T16:09:28.001Z</time></trkpt><trkpt lat="43.4885528437528" lon="3.194381184289387"><ele>116.0</ele><time>2026-03-17T16:09:29.001Z</time></trkpt><trkpt lat="43.48863836897181" lon="3.194048441446346"><ele>115.5</ele><time>2026-03-17T16:09:30.001Z</time></trkpt><trkpt lat="43.48872624047102" lon="3.193713233780763"><ele>115.0</ele><time>2026-03-17T16:09:31.001Z</time></trkpt><trkpt lat="43.4888179922357" lon="3.193386179408072"><ele>117.5</ele><time>2026-03-17T16:09:32.001Z</time></trkpt><trkpt lat="43.488908632911446" lon="3.1930783505501537"><ele>120.0</ele><time>2026-03-17T16:09:33.001Z</time></trkpt><trkpt lat="43.48900370918897" lon="3.192788822642803"><ele>120.0</ele><time>2026-03-17T16:09:34.001Z</time></trkpt><trkpt lat="43.48911293736829" lon="3.192527517093156"><ele>120.0</ele><time>2026-03-17T16:09:35.001Z</time></trkpt><trkpt lat="43.48924585625301" lon="3.19228844811278"><ele>120.0</ele><time>2026-03-17T16:09:36.001Z</time></trkpt><trkpt lat="43.489401223975484" lon="3.1920608841011755"><ele>118.5</ele><time>2026-03-17T16:09:37.001Z</time></trkpt><trkpt lat="43.48957744180518" lon="3.191843677454811"><ele>117.0</ele><time>2026-03-17T16:09:38Z</time></trkpt><trkpt lat="43.48976844686316" lon="3.191630913458346"><ele>117.0</ele><time>2026-03-17T16:09:39Z</time></trkpt><trkpt lat="43.48995692498248" lon="3.1914255875393343"><ele>117.0</ele><time>2026-03-17T16:09:40Z</time></trkpt><trkpt lat="43.4901436725644" lon="3.19121900699342"><ele>117.0</ele><time>2026-03-17T16:09:41Z</time></trkpt><trkpt lat="43.49033736165294" lon="3.1910079081262297"><ele>117.0</ele><time>2026-03-17T16:09:42Z</time></trkpt><trkpt lat="43.49054283103381" lon="3.1908004562684695"><ele>116.0</ele><time>2026-03-17T16:09:43Z</time></trkpt><trkpt lat="43.49076149921917" lon="3.190597510793522"><ele>115.0</ele><time>2026-03-17T16:09:44Z</time></trkpt><trkpt lat="43.490987393348085" lon="3.1904027602311813"><ele>115.0</ele><time>2026-03-17T16:09:45Z</time></trkpt><trkpt lat="43.491218529593" lon="3.190220288830303"><ele>115.0</ele><time>2026-03-17T16:09:46Z</time></trkpt><trkpt lat="43.491454920260196" lon="3.1900544846057377"><ele>115.0</ele><time>2026-03-17T16:09:47Z</time></trkpt><trkpt lat="43.49169751548445" lon="3.189906055649186"><ele>115.0</ele><time>2026-03-17T16:09:48Z</time></trkpt><trkpt lat="43.49194260275722" lon="3.1897799571126746"><ele>116.5</ele><time>2026-03-17T16:09:49Z</time></trkpt><trkpt lat="43.492189147563096" lon="3.189681455682125"><ele>118.0</ele><time>2026-03-17T16:09:50Z</time></trkpt><trkpt lat="43.492420160961444" lon="3.189598538980288"><ele>118.0</ele><time>2026-03-17T16:09:51Z</time></trkpt><trkpt lat="43.49264128045177" lon="3.189515106224388"><ele>118.0</ele><time>2026-03-17T16:09:52Z</time></trkpt><trkpt lat="43.49285947765838" lon="3.1894296794260018"><ele>118.0</ele><time>2026-03-17T16:09:53Z</time></trkpt><trkpt lat="43.49307894095264" lon="3.1893447511587003"><ele>118.0</ele><time>2026-03-17T16:09:54Z</time></trkpt><trkpt lat="43.49329666549485" lon="3.189257629777807"><ele>118.0</ele><time>2026-03-17T16:09:55Z</time></trkpt><trkpt lat="43.4935129081367" lon="3.1891713229533334"><ele>118.0</ele><time>2026-03-17T16:09:56Z</time></trkpt><trkpt lat="43.49372611202036" lon="3.189083544040539"><ele>118.0</ele><time>2026-03-17T16:09:57Z</time></trkpt><trkpt lat="43.49394554230705" lon="3.1889982922413225"><ele>118.0</ele><time>2026-03-17T16:09:58Z</time></trkpt><trkpt lat="43.4941746024775" lon="3.188910265225075"><ele>118.0</ele><time>2026-03-17T16:09:59Z</time></trkpt><trkpt lat="43.49440663407543" lon="3.1888204836424667"><ele>119.5</ele><time>2026-03-17T16:10:00Z</time></trkpt><trkpt lat="43.494643639817724" lon="3.1887279592166524"><ele>121.0</ele><time>2026-03-17T16:10:01Z</time></trkpt><trkpt lat="43.49488787608986" lon="3.1886343554759073"><ele>121.0</ele><time>2026-03-17T16:10:02Z</time></trkpt><trkpt lat="43.495134872439415" lon="3.188538753204896"><ele>121.0</ele><time>2026-03-17T16:10:03Z</time></trkpt><trkpt lat="43.49538299921039" lon="3.188442850019876"><ele>120.5</ele><time>2026-03-17T16:10:04Z</time></trkpt><trkpt lat="43.495631187187215" lon="3.1883473372946547"><ele>120.0</ele><time>2026-03-17T16:10:05Z</time></trkpt><trkpt lat="43.4958807406371" lon="3.188248561906691"><ele>121.0</ele><time>2026-03-17T16:10:06Z</time></trkpt><trkpt lat="43.4961295526841" lon="3.188148427193331"><ele>122.0</ele><time>2026-03-17T16:10:07Z</time></trkpt><trkpt lat="43.496374094222624" lon="3.188052020460351"><ele>122.5</ele><time>2026-03-17T16:10:08Z</time></trkpt><trkpt lat="43.496614925335464" lon="3.18795816161208"><ele>123.0</ele><time>2026-03-17T16:10:09Z</time></trkpt><trkpt lat="43.496845132701" lon="3.1878730619390296"><ele>123.0</ele><time>2026-03-17T16:10:10Z</time></trkpt><trkpt lat="43.49706534785867" lon="3.187796874861009"><ele>123.0</ele><time>2026-03-17T16:10:11Z</time></trkpt><trkpt lat="43.497286614925194" lon="3.187730754413443"><ele>121.5</ele><time>2026-03-17T16:10:12Z</time></trkpt><trkpt lat="43.4975124541761" lon="3.1876897078344975"><ele>120.0</ele><time>2026-03-17T16:10:13Z</time></trkpt><trkpt lat="43.49773785970957" lon="3.1876898395225157"><ele>120.0</ele><time>2026-03-17T16:10:14Z</time></trkpt><trkpt lat="43.49795877609615" lon="3.1877301143141312"><ele>120.0</ele><time>2026-03-17T16:10:15Z</time></trkpt><trkpt lat="43.49817767033216" lon="3.1877951796067423"><ele>120.0</ele><time>2026-03-17T16:10:16Z</time></trkpt><trkpt lat="43.49839270608215" lon="3.187883413084384"><ele>120.0</ele><time>2026-03-17T16:10:17Z</time></trkpt><trkpt lat="43.49860249997012" lon="3.187989115115877"><ele>120.0</ele><time>2026-03-17T16:10:18Z</time></trkpt><trkpt lat="43.49881098715667" lon="3.1880930741747937"><ele>120.0</ele><time>2026-03-17T16:10:19Z</time></trkpt><trkpt lat="43.499018718481985" lon="3.18818494155177"><ele>119.66666666666666</ele><time>2026-03-17T16:10:20Z</time></trkpt><trkpt lat="43.49922187270755" lon="3.1882751551689346"><ele>119.33333333333333</ele><time>2026-03-17T16:10:21Z</time></trkpt><trkpt lat="43.49941708557789" lon="3.1883638131792997"><ele>119.0</ele><time>2026-03-17T16:10:22Z</time></trkpt><trkpt lat="43.49960750718024" lon="3.188451422389397"><ele>119.66666666666666</ele><time>2026-03-17T16:10:23Z</time></trkpt><trkpt lat="43.49980686723577" lon="3.1885380535405923"><ele>120.33333333333334</ele><time>2026-03-17T16:10:24Z</time></trkpt><trkpt lat="43.50000501352541" lon="3.1886310377278826"><ele>121.0</ele><time>2026-03-17T16:10:25Z</time></trkpt><trkpt lat="43.50020473206032" lon="3.1887267653857805"><ele>121.0</ele><time>2026-03-17T16:10:26Z</time></trkpt><trkpt lat="43.500404601074834" lon="3.188822797189592"><ele>121.0</ele><time>2026-03-17T16:10:27Z</time></trkpt><trkpt lat="43.50060237898079" lon="3.188916491899591"><ele>121.0</ele><time>2026-03-17T16:10:28Z</time></trkpt><trkpt lat="43.500787270492104" lon="3.189002929603615"><ele>121.5</ele><time>2026-03-17T16:10:29Z</time></trkpt><trkpt lat="43.500961752012664" lon="3.1890810347574403"><ele>122.0</ele><time>2026-03-17T16:10:30Z</time></trkpt><trkpt lat="43.501101974255306" lon="3.18914906679556"><ele>122.5</ele><time>2026-03-17T16:10:31Z</time></trkpt><trkpt lat="43.50119261227399" lon="3.1891998380960973"><ele>123.0</ele><time>2026-03-17T16:10:32.001Z</time></trkpt><trkpt lat="43.50125144366496" lon="3.1892606861341215"><ele>123.4</ele><time>2026-03-17T16:10:33.001Z</time></trkpt><trkpt lat="43.50128793200564" lon="3.189342953579688"><ele>123.80000000000001</ele><time>2026-03-17T16:10:34.001Z</time></trkpt><trkpt lat="43.50134009269523" lon="3.189460264943742"><ele>124.2</ele><time>2026-03-17T16:10:36.001Z</time></trkpt><trkpt lat="43.50140786995772" lon="3.1895096906108966"><ele>124.6</ele><time>2026-03-17T16:10:38.001Z</time></trkpt><trkpt lat="43.50149852090562" lon="3.189550668171227"><ele>125.0</ele><time>2026-03-17T16:10:40.001Z</time></trkpt><trkpt lat="43.50161239855645" lon="3.1896052496198424"><ele>124.99999999999999</ele><time>2026-03-17T16:10:42.001Z</time></trkpt><trkpt lat="43.501682871299984" lon="3.18963611549271"><ele>125.0</ele><time>2026-03-17T16:10:43.001Z</time></trkpt><trkpt lat="43.50176119146749" lon="3.1896752142573965"><ele>125.0</ele><time>2026-03-17T16:10:44.001Z</time></trkpt><trkpt lat="43.501844399018026" lon="3.189716396230763"><ele>125.0</ele><time>2026-03-17T16:10:45.001Z</time></trkpt><trkpt lat="43.50193367698884" lon="3.1897564888022503"><ele>124.99999999999999</ele><time>2026-03-17T16:10:46.001Z</time></trkpt><trkpt lat="43.50202133845828" lon="3.1897989248570404"><ele>125.0</ele><time>2026-03-17T16:10:47.001Z</time></trkpt><trkpt lat="43.50210354378442" lon="3.1898359641112255"><ele>124.66666666666666</ele><time>2026-03-17T16:10:48.001Z</time></trkpt><trkpt lat="43.50217837997195" lon="3.1898719986888553"><ele>124.33333333333333</ele><time>2026-03-17T16:10:49.001Z</time></trkpt><trkpt lat="43.50224876473975" lon="3.189909639950007"><ele>124.0</ele><time>2026-03-17T16:10:50.001Z</time></trkpt><trkpt lat="43.50231160489269" lon="3.1899477355484005"><ele>123.66666666666666</ele><time>2026-03-17T16:10:51.001Z</time></trkpt><trkpt lat="43.50237064467707" lon="3.189982759042831"><ele>123.33333333333333</ele><time>2026-03-17T16:10:52.001Z</time></trkpt><trkpt lat="43.502462151132804" lon="3.19007991576045"><ele>123.0</ele><time>2026-03-17T16:10:54.001Z</time></trkpt><trkpt lat="43.502503311410095" lon="3.190151336777791"><ele>123.0</ele><time>2026-03-17T16:10:55.001Z</time></trkpt><trkpt lat="43.50254629070809" lon="3.190251807905953"><ele>123.00000000000001</ele><time>2026-03-17T16:10:56.001Z</time></trkpt><trkpt lat="43.502588422220335" lon="3.190369010499262"><ele>123.00000000000001</ele><time>2026-03-17T16:10:57.001Z</time></trkpt><trkpt lat="43.50263193740416" lon="3.1904974746975494"><ele>123.0</ele><time>2026-03-17T16:10:58.001Z</time></trkpt><trkpt lat="43.50267240752264" lon="3.190623506893687"><ele>123.0</ele><time>2026-03-17T16:10:59.001Z</time></trkpt><trkpt lat="43.502702221659796" lon="3.190756548817855"><ele>122.4</ele><time>2026-03-17T16:11:00.001Z</time></trkpt><trkpt lat="43.50271431558806" lon="3.190903438987487"><ele>121.80000000000001</ele><time>2026-03-17T16:11:01.001Z</time></trkpt><trkpt lat="43.502720714880915" lon="3.191054384165429"><ele>121.2</ele><time>2026-03-17T16:11:02.001Z</time></trkpt><trkpt lat="43.50273034467889" lon="3.1911870034306182"><ele>120.6</ele><time>2026-03-17T16:11:03.001Z</time></trkpt><trkpt lat="43.50273845307152" lon="3.1912992143509302"><ele>120.0</ele><time>2026-03-17T16:11:04.001Z</time></trkpt><trkpt lat="43.502735841592454" lon="3.191394476955075"><ele>120.0</ele><time>2026-03-17T16:11:05.001Z</time></trkpt><trkpt lat="43.50271903604458" lon="3.1914804332048017"><ele>120.0</ele><time>2026-03-17T16:11:06.001Z</time></trkpt><trkpt lat="43.50267734631964" lon="3.191568006477939"><ele>120.0</ele><time>2026-03-17T16:11:07.001Z</time></trkpt><trkpt lat="43.502612302468535" lon="3.1916563501847355"><ele>120.0</ele><time>2026-03-17T16:11:08.001Z</time></trkpt><trkpt lat="43.502543016852826" lon="3.191750393248516"><ele>120.0</ele><time>2026-03-17T16:11:09.001Z</time></trkpt><trkpt lat="43.50247148614858" lon="3.1918455616526127"><ele>120.0</ele><time>2026-03-17T16:11:10.001Z</time></trkpt><trkpt lat="43.50243172982577" lon="3.1919355291433416"><ele>120.33333333333333</ele><time>2026-03-17T16:11:11.001Z</time></trkpt><trkpt lat="43.502373828133905" lon="3.192023884989784"><ele>120.66666666666666</ele><time>2026-03-17T16:11:13.001Z</time></trkpt><trkpt lat="43.502361300614446" lon="3.192130474887024"><ele>121.0</ele><time>2026-03-17T16:11:17.001Z</time></trkpt><trkpt lat="43.502394572371195" lon="3.192228841422897"><ele>121.33333333333333</ele><time>2026-03-17T16:12:44.001Z</time></trkpt><trkpt lat="43.50250047371019" lon="3.192232011073555"><ele>121.66666666666666</ele><time>2026-03-17T16:12:46.001Z</time></trkpt><trkpt lat="43.50258373006494" lon="3.1922639029479325"><ele>122.0</ele><time>2026-03-17T16:12:48.001Z</time></trkpt><trkpt lat="43.50270097768675" lon="3.192363834993863"><ele>122.39999999999999</ele><time>2026-03-17T16:12:50.001Z</time></trkpt><trkpt lat="43.5027797441728" lon="3.19242812795594"><ele>122.79999999999998</ele><time>2026-03-17T16:12:51.001Z</time></trkpt><trkpt lat="43.50286033234612" lon="3.1924934119368618"><ele>123.2</ele><time>2026-03-17T16:12:52.001Z</time></trkpt><trkpt lat="43.50294537038024" lon="3.1925623010056348"><ele>123.6</ele><time>2026-03-17T16:12:53.001Z</time></trkpt><trkpt lat="43.50303366995751" lon="3.192633832309979"><ele>124.0</ele><time>2026-03-17T16:12:54.001Z</time></trkpt><trkpt lat="43.50313006166312" lon="3.1927104566420823"><ele>124.2</ele><time>2026-03-17T16:12:55.001Z</time></trkpt><trkpt lat="43.503225056636815" lon="3.1927857430378426"><ele>124.4</ele><time>2026-03-17T16:12:56.001Z</time></trkpt><trkpt lat="43.503313484900865" lon="3.1928558236203735"><ele>124.6</ele><time>2026-03-17T16:12:57.001Z</time></trkpt><trkpt lat="43.503394570053075" lon="3.1929200847700216"><ele>124.8</ele><time>2026-03-17T16:12:58.001Z</time></trkpt><trkpt lat="43.503462273981995" lon="3.1929737411083656"><ele>125.0</ele><time>2026-03-17T16:12:59.001Z</time></trkpt><trkpt lat="43.50352287297865" lon="3.193021766541421"><ele>125.0</ele><time>2026-03-17T16:13:00.001Z</time></trkpt><trkpt lat="43.50363209813622" lon="3.1930921819436833"><ele>125.0</ele><time>2026-03-17T16:13:02.001Z</time></trkpt><trkpt lat="43.5037140758302" lon="3.1931736189363438"><ele>125.0</ele><time>2026-03-17T16:13:04.001Z</time></trkpt><trkpt lat="43.50382525236835" lon="3.1930121726139955"><ele>125.0</ele><time>2026-03-17T16:13:07.001Z</time></trkpt><trkpt lat="43.50385653248739" lon="3.192926851964191"><ele>125.2</ele><time>2026-03-17T16:13:08.001Z</time></trkpt><trkpt lat="43.50388782852578" lon="3.1928483791249285"><ele>125.4</ele><time>2026-03-17T16:13:09.001Z</time></trkpt><trkpt lat="43.50395006496246" lon="3.192694416256251"><ele>125.6</ele><time>2026-03-17T16:13:11.001Z</time></trkpt><trkpt lat="43.5040275315874" lon="3.1926080924537334"><ele>125.8</ele><time>2026-03-17T16:13:13.001Z</time></trkpt><trkpt lat="43.50412546576879" lon="3.192621573913408"><ele>126.0</ele><time>2026-03-17T16:13:15.001Z</time></trkpt><trkpt lat="43.50423879420627" lon="3.1926360931471662"><ele>126.0</ele><time>2026-03-17T16:13:17.001Z</time></trkpt><trkpt lat="43.50430797866226" lon="3.1926261548019648"><ele>126.0</ele><time>2026-03-17T16:13:18.001Z</time></trkpt><trkpt lat="43.50437119378613" lon="3.192626947094308"><ele>126.0</ele><time>2026-03-17T16:13:19.001Z</time></trkpt><trkpt lat="43.504443320300446" lon="3.1926374316467987"><ele>126.0</ele><time>2026-03-17T16:13:20.001Z</time></trkpt><trkpt lat="43.5045221176453" lon="3.1926390519130754"><ele>126.0</ele><time>2026-03-17T16:13:21.001Z</time></trkpt><trkpt lat="43.50460488586753" lon="3.192635573250281"><ele>126.0</ele><time>2026-03-17T16:13:22.001Z</time></trkpt><trkpt lat="43.50468851407992" lon="3.192651648035851"><ele>126.16666666666667</ele><time>2026-03-17T16:13:23.001Z</time></trkpt><trkpt lat="43.504771284121" lon="3.1926498312171887"><ele>126.33333333333334</ele><time>2026-03-17T16:13:24.001Z</time></trkpt><trkpt lat="43.504860079463704" lon="3.19265387960266"><ele>126.5</ele><time>2026-03-17T16:13:25.001Z</time></trkpt><trkpt lat="43.5049493886522" lon="3.1926499853239516"><ele>126.66666666666667</ele><time>2026-03-17T16:13:26.001Z</time></trkpt><trkpt lat="43.505046492624125" lon="3.1926575717630117"><ele>126.83333333333334</ele><time>2026-03-17T16:13:27.001Z</time></trkpt><trkpt lat="43.505136873438744" lon="3.1926672217984917"><ele>127.0</ele><time>2026-03-17T16:13:28.001Z</time></trkpt><trkpt lat="43.505219108819155" lon="3.1926831640513718"><ele>127.00000000000001</ele><time>2026-03-17T16:13:29.001Z</time></trkpt><trkpt lat="43.50531013095871" lon="3.192722096626467"><ele>127.0</ele><time>2026-03-17T16:13:30.001Z</time></trkpt><trkpt lat="43.50539103837325" lon="3.1927604319841705"><ele>127.0</ele><time>2026-03-17T16:13:31.001Z</time></trkpt><trkpt lat="43.505472904995905" lon="3.192798787350537"><ele>127.0</ele><time>2026-03-17T16:13:32.001Z</time></trkpt><trkpt lat="43.50555325300306" lon="3.192842782075724"><ele>127.00000000000001</ele><time>2026-03-17T16:13:33.001Z</time></trkpt><trkpt lat="43.50563132123079" lon="3.192888291624192"><ele>127.0</ele><time>2026-03-17T16:13:34.001Z</time></trkpt><trkpt lat="43.50571032663671" lon="3.1929314807652096"><ele>126.66666666666667</ele><time>2026-03-17T16:13:35.002Z</time></trkpt><trkpt lat="43.50579249257304" lon="3.192970428902487"><ele>126.33333333333334</ele><time>2026-03-17T16:13:36.002Z</time></trkpt><trkpt lat="43.50587424627949" lon="3.193010622654975"><ele>126.0</ele><time>2026-03-17T16:13:37.002Z</time></trkpt><trkpt lat="43.505957534309964" lon="3.1930560550230274"><ele>125.66666666666666</ele><time>2026-03-17T16:13:38.002Z</time></trkpt><trkpt lat="43.506042875134646" lon="3.1931023772699296"><ele>125.33333333333333</ele><time>2026-03-17T16:13:39.002Z</time></trkpt><trkpt lat="43.50613143329091" lon="3.1931479673541334"><ele>125.0</ele><time>2026-03-17T16:13:40.002Z</time></trkpt><trkpt lat="43.50622185435973" lon="3.1931932543039547"><ele>125.0</ele><time>2026-03-17T16:13:41.002Z</time></trkpt><trkpt lat="43.50631562868418" lon="3.1932500259801753"><ele>125.0</ele><time>2026-03-17T16:13:42.002Z</time></trkpt><trkpt lat="43.50641188377838" lon="3.19330675266121"><ele>125.0</ele><time>2026-03-17T16:13:43.002Z</time></trkpt><trkpt lat="43.506507878317116" lon="3.193365065073256"><ele>125.0</ele><time>2026-03-17T16:13:44.002Z</time></trkpt><trkpt lat="43.50660400940484" lon="3.193420355977498"><ele>125.0</ele><time>2026-03-17T16:13:45.002Z</time></trkpt><trkpt lat="43.50670180609011" lon="3.1934760684859977"><ele>125.0</ele><time>2026-03-17T16:13:46.002Z</time></trkpt><trkpt lat="43.50680027151742" lon="3.1935310138421014"><ele>125.0</ele><time>2026-03-17T16:13:47.002Z</time></trkpt><trkpt lat="43.50689927044446" lon="3.1935855876201313"><ele>125.0</ele><time>2026-03-17T16:13:48.002Z</time></trkpt><trkpt lat="43.506997050826435" lon="3.1936388558070816"><ele>125.0</ele><time>2026-03-17T16:13:49.002Z</time></trkpt><trkpt lat="43.50708322230576" lon="3.193688354155494"><ele>125.0</ele><time>2026-03-17T16:13:50Z</time></trkpt><trkpt lat="43.50716988833685" lon="3.193732218673743"><ele>125.66666666666666</ele><time>2026-03-17T16:13:51Z</time></trkpt><trkpt lat="43.50725588082076" lon="3.193768778986314"><ele>126.33333333333333</ele><time>2026-03-17T16:13:52Z</time></trkpt><trkpt lat="43.507337702036786" lon="3.1937931802786"><ele>127.0</ele><time>2026-03-17T16:13:53Z</time></trkpt><trkpt lat="43.50741494946937" lon="3.1938299254084024"><ele>127.66666666666666</ele><time>2026-03-17T16:13:54Z</time></trkpt><trkpt lat="43.5074930208779" lon="3.1938490416552345"><ele>128.33333333333334</ele><time>2026-03-17T16:13:55Z</time></trkpt><trkpt lat="43.507569004106294" lon="3.1938363411666604"><ele>129.0</ele><time>2026-03-17T16:13:56Z</time></trkpt><trkpt lat="43.50764100706722" lon="3.1938573431526427"><ele>129.0</ele><time>2026-03-17T16:13:57Z</time></trkpt><trkpt lat="43.50771073285872" lon="3.1938665532414006"><ele>129.0</ele><time>2026-03-17T16:13:58Z</time></trkpt><trkpt lat="43.507842193216526" lon="3.1938867508416555"><ele>129.0</ele><time>2026-03-17T16:14:00Z</time></trkpt><trkpt lat="43.507961276958795" lon="3.1939025208449063"><ele>129.0</ele><time>2026-03-17T16:14:02Z</time></trkpt><trkpt lat="43.50807331106213" lon="3.1939216290812182"><ele>129.0</ele><time>2026-03-17T16:14:04Z</time></trkpt><trkpt lat="43.508142856080696" lon="3.193933414353471"><ele>128.8</ele><time>2026-03-17T16:14:05Z</time></trkpt><trkpt lat="43.50822134265596" lon="3.1939540080755733"><ele>128.60000000000002</ele><time>2026-03-17T16:14:06Z</time></trkpt><trkpt lat="43.508309917717945" lon="3.1939744014182505"><ele>128.4</ele><time>2026-03-17T16:14:07Z</time></trkpt><trkpt lat="43.5084051168309" lon="3.194006850360605"><ele>128.20000000000002</ele><time>2026-03-17T16:14:08Z</time></trkpt><trkpt lat="43.508509058753866" lon="3.1940420149411417"><ele>128.0</ele><time>2026-03-17T16:14:09Z</time></trkpt><trkpt lat="43.50862184217036" lon="3.1940770448101063"><ele>128.0</ele><time>2026-03-17T16:14:10Z</time></trkpt><trkpt lat="43.508739787450864" lon="3.1941213957956536"><ele>128.0</ele><time>2026-03-17T16:14:11Z</time></trkpt><trkpt lat="43.508863535718" lon="3.1941730691486714"><ele>128.0</ele><time>2026-03-17T16:14:12Z</time></trkpt><trkpt lat="43.50898361133423" lon="3.194230509415664"><ele>128.0</ele><time>2026-03-17T16:14:13Z</time></trkpt><trkpt lat="43.50910520428603" lon="3.194289739166915"><ele>128.5</ele><time>2026-03-17T16:14:14Z</time></trkpt><trkpt lat="43.509226972958324" lon="3.194347748440508"><ele>129.0</ele><time>2026-03-17T16:14:15Z</time></trkpt><trkpt lat="43.50934904176706" lon="3.1944057683913396"><ele>129.5</ele><time>2026-03-17T16:14:16Z</time></trkpt><trkpt lat="43.5094696106909" lon="3.1944630132082974"><ele>130.0</ele><time>2026-03-17T16:14:17Z</time></trkpt><trkpt lat="43.50957743238112" lon="3.194515730935906"><ele>130.0</ele><time>2026-03-17T16:14:18Z</time></trkpt><trkpt lat="43.50968066694223" lon="3.194583516157972"><ele>130.0</ele><time>2026-03-17T16:14:19Z</time></trkpt><trkpt lat="43.509800898832026" lon="3.194609754263386"><ele>130.0</ele><time>2026-03-17T16:14:20Z</time></trkpt><trkpt lat="43.50992651300947" lon="3.1946086150250554"><ele>130.0</ele><time>2026-03-17T16:14:21Z</time></trkpt><trkpt lat="43.5100553729505" lon="3.194609566020068"><ele>130.0</ele><time>2026-03-17T16:14:22Z</time></trkpt><trkpt lat="43.510189703526905" lon="3.1946124125328503"><ele>130.0</ele><time>2026-03-17T16:14:23Z</time></trkpt><trkpt lat="43.51032727024419" lon="3.19462170006607"><ele>130.0</ele><time>2026-03-17T16:14:24Z</time></trkpt><trkpt lat="43.510470380809636" lon="3.194638562703447"><ele>130.0</ele><time>2026-03-17T16:14:25Z</time></trkpt><trkpt lat="43.51061475079491" lon="3.194649391582906"><ele>130.5</ele><time>2026-03-17T16:14:26Z</time></trkpt><trkpt lat="43.510755789451494" lon="3.194646671949358"><ele>131.0</ele><time>2026-03-17T16:14:27Z</time></trkpt><trkpt lat="43.51089174248478" lon="3.1946414855013234"><ele>131.5</ele><time>2026-03-17T16:14:28.001Z</time></trkpt><trkpt lat="43.51102350456456" lon="3.1946322038325277"><ele>132.0</ele><time>2026-03-17T16:14:29.001Z</time></trkpt><trkpt lat="43.51115109449009" lon="3.194625441033386"><ele>132.4</ele><time>2026-03-17T16:14:30.001Z</time></trkpt><trkpt lat="43.51127596081551" lon="3.194605886846256"><ele>132.79999999999998</ele><time>2026-03-17T16:14:31.001Z</time></trkpt><trkpt lat="43.511392413826876" lon="3.1946120881554387"><ele>133.2</ele><time>2026-03-17T16:14:32.001Z</time></trkpt><trkpt lat="43.51149829582596" lon="3.1946216169163204"><ele>133.6</ele><time>2026-03-17T16:14:33.001Z</time></trkpt><trkpt lat="43.51159342804228" lon="3.1946515212484217"><ele>134.0</ele><time>2026-03-17T16:14:34.001Z</time></trkpt><trkpt lat="43.51168005768759" lon="3.1946956013367975"><ele>134.0</ele><time>2026-03-17T16:14:35.001Z</time></trkpt><trkpt lat="43.51176489574034" lon="3.1947637762994363"><ele>134.0</ele><time>2026-03-17T16:14:36.001Z</time></trkpt><trkpt lat="43.511846149127756" lon="3.1948479422236087"><ele>134.0</ele><time>2026-03-17T16:14:37.001Z</time></trkpt><trkpt lat="43.51193235455448" lon="3.194930725992475"><ele>134.0</ele><time>2026-03-17T16:14:38.001Z</time></trkpt><trkpt lat="43.512029094422424" lon="3.195000057311727"><ele>134.0</ele><time>2026-03-17T16:14:39.001Z</time></trkpt><trkpt lat="43.51214032365928" lon="3.195070108900384"><ele>134.75</ele><time>2026-03-17T16:14:40.001Z</time></trkpt><trkpt lat="43.51227152322165" lon="3.1951035283269027"><ele>135.5</ele><time>2026-03-17T16:14:41.001Z</time></trkpt><trkpt lat="43.51241380171678" lon="3.195131077129855"><ele>136.25</ele><time>2026-03-17T16:14:42.001Z</time></trkpt><trkpt lat="43.512562457916154" lon="3.195153247157511"><ele>137.0</ele><time>2026-03-17T16:14:43.001Z</time></trkpt><trkpt lat="43.51271671746538" lon="3.195161178736538"><ele>137.0</ele><time>2026-03-17T16:14:44.001Z</time></trkpt><trkpt lat="43.51286749963858" lon="3.1951289592024086"><ele>137.0</ele><time>2026-03-17T16:14:45.001Z</time></trkpt><trkpt lat="43.51301706118405" lon="3.195121909434546"><ele>137.0</ele><time>2026-03-17T16:14:46.001Z</time></trkpt><trkpt lat="43.51315782701568" lon="3.195090315752174"><ele>137.0</ele><time>2026-03-17T16:14:47.001Z</time></trkpt><trkpt lat="43.5132917436376" lon="3.19507081170494"><ele>137.75</ele><time>2026-03-17T16:14:48.001Z</time></trkpt><trkpt lat="43.51342355573407" lon="3.1950737501348754"><ele>138.5</ele><time>2026-03-17T16:14:49.001Z</time></trkpt><trkpt lat="43.51355422033651" lon="3.1950912932378226"><ele>139.25</ele><time>2026-03-17T16:14:50.001Z</time></trkpt><trkpt lat="43.513684901770844" lon="3.195111688176293"><ele>140.0</ele><time>2026-03-17T16:14:51.001Z</time></trkpt><trkpt lat="43.5138152917347" lon="3.195115280657738"><ele>140.0</ele><time>2026-03-17T16:14:52.001Z</time></trkpt><trkpt lat="43.513943979472174" lon="3.1951488336590046"><ele>140.0</ele><time>2026-03-17T16:14:53.001Z</time></trkpt><trkpt lat="43.51407411619191" lon="3.195182642777657"><ele>140.0</ele><time>2026-03-17T16:14:54.001Z</time></trkpt><trkpt lat="43.5142066869293" lon="3.195217486044893"><ele>140.0</ele><time>2026-03-17T16:14:55.001Z</time></trkpt><trkpt lat="43.51434141292823" lon="3.195253580620188"><ele>140.0</ele><time>2026-03-17T16:14:56.001Z</time></trkpt><trkpt lat="43.51447863809983" lon="3.1952823447219454"><ele>140.0</ele><time>2026-03-17T16:14:57.001Z</time></trkpt><trkpt lat="43.51461910796004" lon="3.1953105083333018"><ele>140.0</ele><time>2026-03-17T16:14:58.001Z</time></trkpt><trkpt lat="43.514760124638684" lon="3.195343629000955"><ele>140.0</ele><time>2026-03-17T16:14:59.001Z</time></trkpt><trkpt lat="43.51490288743227" lon="3.1953935308390164"><ele>140.0</ele><time>2026-03-17T16:15:00.001Z</time></trkpt><trkpt lat="43.51505361810892" lon="3.1953906329898576"><ele>140.0</ele><time>2026-03-17T16:15:01.001Z</time></trkpt><trkpt lat="43.51519941166616" lon="3.195418943574551"><ele>140.0</ele><time>2026-03-17T16:15:02.001Z</time></trkpt><trkpt lat="43.51534422091051" lon="3.1954607407277917"><ele>140.0</ele><time>2026-03-17T16:15:03.001Z</time></trkpt><trkpt lat="43.51548748446808" lon="3.195516982797468"><ele>140.5</ele><time>2026-03-17T16:15:04.001Z</time></trkpt><trkpt lat="43.51562911405425" lon="3.1955802610293373"><ele>141.0</ele><time>2026-03-17T16:15:05.001Z</time></trkpt><trkpt lat="43.51576565133828" lon="3.1956686108166297"><ele>141.5</ele><time>2026-03-17T16:15:06.001Z</time></trkpt><trkpt lat="43.515904217006394" lon="3.195734045517595"><ele>142.0</ele><time>2026-03-17T16:15:07.001Z</time></trkpt><trkpt lat="43.51603917888747" lon="3.1957977784078997"><ele>142.2</ele><time>2026-03-17T16:15:08.001Z</time></trkpt><trkpt lat="43.51616268532232" lon="3.1958561017024754"><ele>142.39999999999998</ele><time>2026-03-17T16:15:09.001Z</time></trkpt><trkpt lat="43.51627297682633" lon="3.195906302158094"><ele>142.60000000000002</ele><time>2026-03-17T16:15:10.001Z</time></trkpt><trkpt lat="43.516365768797854" lon="3.195947909258207"><ele>142.8</ele><time>2026-03-17T16:15:11.001Z</time></trkpt><trkpt lat="43.51645544528558" lon="3.195967074505602"><ele>143.0</ele><time>2026-03-17T16:15:12.001Z</time></trkpt><trkpt lat="43.5165307538286" lon="3.196014670304454"><ele>142.6</ele><time>2026-03-17T16:15:13.001Z</time></trkpt><trkpt lat="43.51660763952023" lon="3.1960780320503135"><ele>142.20000000000002</ele><time>2026-03-17T16:15:14.001Z</time></trkpt><trkpt lat="43.51668794866384" lon="3.1961449198437006"><ele>141.8</ele><time>2026-03-17T16:15:15.001Z</time></trkpt><trkpt lat="43.51677854722595" lon="3.1962005128715205"><ele>141.4</ele><time>2026-03-17T16:15:16.001Z</time></trkpt><trkpt lat="43.51687449499468" lon="3.1962513606641725"><ele>141.0</ele><time>2026-03-17T16:15:17.001Z</time></trkpt><trkpt lat="43.51697607749589" lon="3.1962994062870487"><ele>141.0</ele><time>2026-03-17T16:15:18.001Z</time></trkpt><trkpt lat="43.5170688046956" lon="3.1963458379104526"><ele>141.0</ele><time>2026-03-17T16:15:19.001Z</time></trkpt><trkpt lat="43.517139556000295" lon="3.196387225527524"><ele>141.0</ele><time>2026-03-17T16:15:20.001Z</time></trkpt><trkpt lat="43.51723130688727" lon="3.1964332872946977"><ele>141.0</ele><time>2026-03-17T16:15:22.001Z</time></trkpt><trkpt lat="43.51728774763143" lon="3.1964749301774638"><ele>141.0</ele><time>2026-03-17T16:15:48.002Z</time></trkpt><trkpt lat="43.517377054347484" lon="3.1965248588162942"><ele>141.0</ele><time>2026-03-17T16:15:50.002Z</time></trkpt><trkpt lat="43.517449959761215" lon="3.196565034141465"><ele>141.5</ele><time>2026-03-17T16:15:51.002Z</time></trkpt><trkpt lat="43.517521029753645" lon="3.196586663367684"><ele>142.0</ele><time>2026-03-17T16:15:52.002Z</time></trkpt><trkpt lat="43.51759098522295" lon="3.1966354111794644"><ele>142.5</ele><time>2026-03-17T16:15:53.002Z</time></trkpt><trkpt lat="43.51767014182078" lon="3.1966790691558513"><ele>143.0</ele><time>2026-03-17T16:15:54.002Z</time></trkpt><trkpt lat="43.51774283303284" lon="3.196749885143588"><ele>143.5</ele><time>2026-03-17T16:15:55.002Z</time></trkpt><trkpt lat="43.517821673444274" lon="3.1967798037648887"><ele>144.0</ele><time>2026-03-17T16:15:56.001Z</time></trkpt><trkpt lat="43.517882781676256" lon="3.196829726998284"><ele>144.16666666666666</ele><time>2026-03-17T16:15:57.001Z</time></trkpt><trkpt lat="43.51794049415204" lon="3.196867241628704"><ele>144.33333333333334</ele><time>2026-03-17T16:15:58.001Z</time></trkpt><trkpt lat="43.51805191878187" lon="3.196949999112226"><ele>144.5</ele><time>2026-03-17T16:16:00.001Z</time></trkpt><trkpt lat="43.5181166899529" lon="3.196991603372365"><ele>144.66666666666669</ele><time>2026-03-17T16:16:01.001Z</time></trkpt><trkpt lat="43.51819240611096" lon="3.1970263975421522"><ele>144.83333333333334</ele><time>2026-03-17T16:16:02.001Z</time></trkpt><trkpt lat="43.51826192488288" lon="3.1970906830001713"><ele>145.0</ele><time>2026-03-17T16:16:03.001Z</time></trkpt><trkpt lat="43.51834218124819" lon="3.1971340644202484"><ele>145.0</ele><time>2026-03-17T16:16:04.001Z</time></trkpt><trkpt lat="43.518426626548916" lon="3.1971717829272412"><ele>145.0</ele><time>2026-03-17T16:16:05.001Z</time></trkpt><trkpt lat="43.51851237949724" lon="3.1972164269221772"><ele>145.0</ele><time>2026-03-17T16:16:06.001Z</time></trkpt><trkpt lat="43.518603408835595" lon="3.197250245825262"><ele>145.0</ele><time>2026-03-17T16:16:07.001Z</time></trkpt><trkpt lat="43.51869780422002" lon="3.1972864876890292"><ele>145.0</ele><time>2026-03-17T16:16:08.001Z</time></trkpt><trkpt lat="43.51878852197684" lon="3.1973286598667854"><ele>145.6</ele><time>2026-03-17T16:16:09.001Z</time></trkpt><trkpt lat="43.518875087272455" lon="3.197377523242703"><ele>146.2</ele><time>2026-03-17T16:16:10.001Z</time></trkpt><trkpt lat="43.51896097153966" lon="3.1974227839184546"><ele>146.8</ele><time>2026-03-17T16:16:11.001Z</time></trkpt><trkpt lat="43.51904865645319" lon="3.1974678611220777"><ele>147.4</ele><time>2026-03-17T16:16:12.001Z</time></trkpt><trkpt lat="43.51913880491677" lon="3.197508707301247"><ele>148.0</ele><time>2026-03-17T16:16:13.001Z</time></trkpt><trkpt lat="43.51923190099948" lon="3.1975426778292197"><ele>148.0</ele><time>2026-03-17T16:16:14.001Z</time></trkpt><trkpt lat="43.51932869443027" lon="3.1975812490372615"><ele>148.0</ele><time>2026-03-17T16:16:15.001Z</time></trkpt><trkpt lat="43.519416553366895" lon="3.197620970444594"><ele>148.0</ele><time>2026-03-17T16:16:16.001Z</time></trkpt><trkpt lat="43.51948468771639" lon="3.197682711925848"><ele>148.0</ele><time>2026-03-17T16:16:17.001Z</time></trkpt><trkpt lat="43.519549383015054" lon="3.1977323521287406"><ele>148.0</ele><time>2026-03-17T16:16:18.001Z</time></trkpt><trkpt lat="43.51961131831802" lon="3.1977856309385255"><ele>148.0</ele><time>2026-03-17T16:16:19.001Z</time></trkpt><trkpt lat="43.519673599865854" lon="3.197845624910605"><ele>147.83333333333334</ele><time>2026-03-17T16:16:20.001Z</time></trkpt><trkpt lat="43.51973761242986" lon="3.1979151997562476"><ele>147.66666666666669</ele><time>2026-03-17T16:16:21.001Z</time></trkpt><trkpt lat="43.51979754225063" lon="3.1979952004581698"><ele>147.5</ele><time>2026-03-17T16:16:22.001Z</time></trkpt><trkpt lat="43.51985183872042" lon="3.1980874299710322"><ele>147.33333333333334</ele><time>2026-03-17T16:16:23.001Z</time></trkpt><trkpt lat="43.51991933885589" lon="3.198178081954035"><ele>147.16666666666666</ele><time>2026-03-17T16:16:24.001Z</time></trkpt><trkpt lat="43.51996976670609" lon="3.1982807812180005"><ele>147.0</ele><time>2026-03-17T16:16:25.001Z</time></trkpt><trkpt lat="43.52001318729353" lon="3.1983680925497264"><ele>147.0</ele><time>2026-03-17T16:16:26.001Z</time></trkpt><trkpt lat="43.5200503211384" lon="3.198443230839784"><ele>147.0</ele><time>2026-03-17T16:16:27.001Z</time></trkpt><trkpt lat="43.520096939027354" lon="3.19852920088295"><ele>147.0</ele><time>2026-03-17T16:16:29.001Z</time></trkpt><trkpt lat="43.520164994190594" lon="3.198632221385789"><ele>147.0</ele><time>2026-03-17T16:16:32.001Z</time></trkpt><trkpt lat="43.52029143383711" lon="3.198638065515632"><ele>147.0</ele><time>2026-03-17T16:16:34.001Z</time></trkpt><trkpt lat="43.52035461140698" lon="3.1986402001039775"><ele>147.0</ele><time>2026-03-17T16:16:35.001Z</time></trkpt><trkpt lat="43.520476040179496" lon="3.198646591215796"><ele>147.2</ele><time>2026-03-17T16:16:37.001Z</time></trkpt><trkpt lat="43.52057824068712" lon="3.19864400251189"><ele>147.39999999999998</ele><time>2026-03-17T16:16:39.001Z</time></trkpt><trkpt lat="43.52065977323995" lon="3.1986279735967136"><ele>147.60000000000002</ele><time>2026-03-17T16:16:41.001Z</time></trkpt><trkpt lat="43.520769415553275" lon="3.198624205151928"><ele>147.8</ele><time>2026-03-17T16:16:43.001Z</time></trkpt><trkpt lat="43.52086458770254" lon="3.1986339888316513"><ele>148.0</ele><time>2026-03-17T16:16:45.001Z</time></trkpt><trkpt lat="43.520927533654" lon="3.198645171674845"><ele>148.0</ele><time>2026-03-17T16:16:48.001Z</time></trkpt><trkpt lat="43.52097542944073" lon="3.1988207271260203"><ele>148.0</ele><time>2026-03-17T16:16:53.001Z</time></trkpt><trkpt lat="43.5209896963812" lon="3.198942166967248"><ele>148.0</ele><time>2026-03-17T16:16:54.001Z</time></trkpt><trkpt lat="43.5209957475015" lon="3.199080323739994"><ele>148.0</ele><time>2026-03-17T16:16:55.001Z</time></trkpt><trkpt lat="43.52099923147478" lon="3.199217672359237"><ele>148.0</ele><time>2026-03-17T16:16:56.001Z</time></trkpt><trkpt lat="43.52101085097343" lon="3.19936290055005"><ele>148.4</ele><time>2026-03-17T16:16:57.001Z</time></trkpt><trkpt lat="43.52102794695993" lon="3.1994969316500734"><ele>148.8</ele><time>2026-03-17T16:16:58.001Z</time></trkpt><trkpt lat="43.52104005187784" lon="3.199610040599296"><ele>149.2</ele><time>2026-03-17T16:16:59.001Z</time></trkpt><trkpt lat="43.52106592830406" lon="3.1997601119199572"><ele>149.6</ele><time>2026-03-17T16:17:01.001Z</time></trkpt><trkpt lat="43.521123228532105" lon="3.199919550948002"><ele>150.0</ele><time>2026-03-17T16:17:03.001Z</time></trkpt><trkpt lat="43.52115898532445" lon="3.2000187775257194"><ele>150.8</ele><time>2026-03-17T16:17:04.001Z</time></trkpt><trkpt lat="43.521205520578064" lon="3.2001264508191776"><ele>151.6</ele><time>2026-03-17T16:17:05.001Z</time></trkpt><trkpt lat="43.52125870350183" lon="3.2002382202333597"><ele>152.4</ele><time>2026-03-17T16:17:06.001Z</time></trkpt><trkpt lat="43.52131985526912" lon="3.200356773124826"><ele>153.2</ele><time>2026-03-17T16:17:07.001Z</time></trkpt><trkpt lat="43.521374780008124" lon="3.2004839364408646"><ele>154.0</ele><time>2026-03-17T16:17:08.001Z</time></trkpt><trkpt lat="43.521430099194134" lon="3.2006164096198466"><ele>154.5</ele><time>2026-03-17T16:17:09.001Z</time></trkpt><trkpt lat="43.52148118667806" lon="3.200756122147445"><ele>155.0</ele><time>2026-03-17T16:17:10.001Z</time></trkpt><trkpt lat="43.52151763587093" lon="3.200895015583879"><ele>155.5</ele><time>2026-03-17T16:17:11.001Z</time></trkpt><trkpt lat="43.52153772060486" lon="3.201050118499452"><ele>156.0</ele><time>2026-03-17T16:17:12.001Z</time></trkpt><trkpt lat="43.52153799529199" lon="3.201213359303545"><ele>156.0</ele><time>2026-03-17T16:17:13.001Z</time></trkpt><trkpt lat="43.52153091424843" lon="3.2014108330631066"><ele>156.0</ele><time>2026-03-17T16:17:14.001Z</time></trkpt><trkpt lat="43.5215147316026" lon="3.2016119394847187"><ele>156.0</ele><time>2026-03-17T16:17:15.001Z</time></trkpt><trkpt lat="43.521475390862435" lon="3.2018076090824845"><ele>156.0</ele><time>2026-03-17T16:17:16.001Z</time></trkpt><trkpt lat="43.52141681849124" lon="3.201986345792885"><ele>156.75</ele><time>2026-03-17T16:17:17.001Z</time></trkpt><trkpt lat="43.521338793635834" lon="3.202143548079523"><ele>157.5</ele><time>2026-03-17T16:17:18.001Z</time></trkpt><trkpt lat="43.52123839331762" lon="3.2022928793528105"><ele>158.25</ele><time>2026-03-17T16:17:19.001Z</time></trkpt><trkpt lat="43.52112963977054" lon="3.2024451854860176"><ele>159.0</ele><time>2026-03-17T16:17:20.001Z</time></trkpt><trkpt lat="43.52101901238135" lon="3.2026042143656883"><ele>160.66666666666666</ele><time>2026-03-17T16:17:21.001Z</time></trkpt><trkpt lat="43.52089841957638" lon="3.2027410998090176"><ele>162.33333333333331</ele><time>2026-03-17T16:17:22.001Z</time></trkpt><trkpt lat="43.52079667646191" lon="3.20289663992095"><ele>164.0</ele><time>2026-03-17T16:17:23.001Z</time></trkpt><trkpt lat="43.52070014412049" lon="3.2030585433765313"><ele>164.0</ele><time>2026-03-17T16:17:24.001Z</time></trkpt><trkpt lat="43.52062013764189" lon="3.2032341294094424"><ele>164.0</ele><time>2026-03-17T16:17:25.001Z</time></trkpt><trkpt lat="43.52053563175214" lon="3.2033917106138703"><ele>164.0</ele><time>2026-03-17T16:17:26.001Z</time></trkpt><trkpt lat="43.52045323770167" lon="3.2035364990938144"><ele>164.0</ele><time>2026-03-17T16:17:27.001Z</time></trkpt><trkpt lat="43.52037311801127" lon="3.203683597154234"><ele>164.0</ele><time>2026-03-17T16:17:28.001Z</time></trkpt><trkpt lat="43.52028112826799" lon="3.203819407757864"><ele>164.0</ele><time>2026-03-17T16:17:29.001Z</time></trkpt><trkpt lat="43.52020069785824" lon="3.2039674502292503"><ele>164.0</ele><time>2026-03-17T16:17:30.001Z</time></trkpt><trkpt lat="43.52012147914126" lon="3.2041192085865626"><ele>164.0</ele><time>2026-03-17T16:17:31.001Z</time></trkpt><trkpt lat="43.52004692645175" lon="3.2042642036285875"><ele>164.33333333333331</ele><time>2026-03-17T16:17:32.001Z</time></trkpt><trkpt lat="43.51998668088742" lon="3.204402519628149"><ele>164.66666666666666</ele><time>2026-03-17T16:17:33.001Z</time></trkpt><trkpt lat="43.51994108548696" lon="3.2045033820989612"><ele>165.0</ele><time>2026-03-17T16:17:34.001Z</time></trkpt><trkpt lat="43.51991357887248" lon="3.2045867757597035"><ele>165.33333333333334</ele><time>2026-03-17T16:17:35.001Z</time></trkpt><trkpt lat="43.51988400779634" lon="3.2046661122815787"><ele>165.66666666666669</ele><time>2026-03-17T16:17:36.001Z</time></trkpt><trkpt lat="43.51985401277302" lon="3.2047570858761905"><ele>166.0</ele><time>2026-03-17T16:17:37.001Z</time></trkpt><trkpt lat="43.51982612109361" lon="3.204855126975869"><ele>166.20000000000002</ele><time>2026-03-17T16:17:38.001Z</time></trkpt><trkpt lat="43.51979655100227" lon="3.2049657062393853"><ele>166.4</ele><time>2026-03-17T16:17:39.002Z</time></trkpt><trkpt lat="43.51978712809422" lon="3.2051150835245803"><ele>166.6</ele><time>2026-03-17T16:17:40.002Z</time></trkpt><trkpt lat="43.51976338018401" lon="3.205272970131222"><ele>166.8</ele><time>2026-03-17T16:17:41.002Z</time></trkpt><trkpt lat="43.51973655858978" lon="3.2054452933939155"><ele>167.0</ele><time>2026-03-17T16:17:42.002Z</time></trkpt><trkpt lat="43.51970475255397" lon="3.205622307938556"><ele>167.0</ele><time>2026-03-17T16:17:43.002Z</time></trkpt><trkpt lat="43.51967532483043" lon="3.205791246484986"><ele>167.0</ele><time>2026-03-17T16:17:44.002Z</time></trkpt><trkpt lat="43.51964733607397" lon="3.2059614551032567"><ele>167.0</ele><time>2026-03-17T16:17:45.002Z</time></trkpt><trkpt lat="43.5196215555641" lon="3.206138869278401"><ele>167.0</ele><time>2026-03-17T16:17:46.002Z</time></trkpt><trkpt lat="43.519596853747224" lon="3.2063207045001287"><ele>167.75</ele><time>2026-03-17T16:17:47.002Z</time></trkpt><trkpt lat="43.51956929297705" lon="3.206503161603377"><ele>168.5</ele><time>2026-03-17T16:17:48.002Z</time></trkpt><trkpt lat="43.51953972680742" lon="3.206688635150555"><ele>169.25</ele><time>2026-03-17T16:17:49.002Z</time></trkpt><trkpt lat="43.51951151606665" lon="3.2068772135776005"><ele>170.0</ele><time>2026-03-17T16:17:50.002Z</time></trkpt><trkpt lat="43.51948339224783" lon="3.2070668965037923"><ele>170.25</ele><time>2026-03-17T16:17:51.002Z</time></trkpt><trkpt lat="43.51945673258326" lon="3.2072517141486947"><ele>170.5</ele><time>2026-03-17T16:17:52.002Z</time></trkpt><trkpt lat="43.519436236864905" lon="3.2074209404515472"><ele>170.75</ele><time>2026-03-17T16:17:53.002Z</time></trkpt><trkpt lat="43.51940735635153" lon="3.2075767359781207"><ele>171.0</ele><time>2026-03-17T16:17:54.002Z</time></trkpt><trkpt lat="43.51939196008127" lon="3.2077368164376234"><ele>171.8</ele><time>2026-03-17T16:17:55.002Z</time></trkpt><trkpt lat="43.51937182835507" lon="3.207893087754722"><ele>172.60000000000002</ele><time>2026-03-17T16:17:56.002Z</time></trkpt><trkpt lat="43.51935919323123" lon="3.208047186432509"><ele>173.4</ele><time>2026-03-17T16:17:57.002Z</time></trkpt><trkpt lat="43.519328987732955" lon="3.2081777424472233"><ele>174.2</ele><time>2026-03-17T16:17:58.002Z</time></trkpt><trkpt lat="43.51929283743079" lon="3.208294476750411"><ele>175.0</ele><time>2026-03-17T16:17:59.002Z</time></trkpt><trkpt lat="43.51931186850941" lon="3.208413725326673"><ele>175.2</ele><time>2026-03-17T16:18:00.002Z</time></trkpt><trkpt lat="43.519331549918405" lon="3.2085241892485197"><ele>175.4</ele><time>2026-03-17T16:18:01.002Z</time></trkpt><trkpt lat="43.519369580937465" lon="3.208633474971532"><ele>175.60000000000002</ele><time>2026-03-17T16:18:02.001Z</time></trkpt><trkpt lat="43.51942031980367" lon="3.208744220464864"><ele>175.8</ele><time>2026-03-17T16:18:03Z</time></trkpt><trkpt lat="43.51947904379587" lon="3.208867187209996"><ele>176.0</ele><time>2026-03-17T16:18:04.001Z</time></trkpt><trkpt lat="43.51953335939831" lon="3.2090088845827442"><ele>177.5</ele><time>2026-03-17T16:18:05Z</time></trkpt><trkpt lat="43.51958338966071" lon="3.2091606576012497"><ele>179.0</ele><time>2026-03-17T16:18:06Z</time></trkpt><trkpt lat="43.51962463373786" lon="3.2093137318421228"><ele>180.5</ele><time>2026-03-17T16:18:07Z</time></trkpt><trkpt lat="43.519643424315795" lon="3.209461236111961"><ele>182.0</ele><time>2026-03-17T16:18:08Z</time></trkpt><trkpt lat="43.519641950073506" lon="3.20960737383278"><ele>182.0</ele><time>2026-03-17T16:18:09Z</time></trkpt><trkpt lat="43.51962764494632" lon="3.2097520932664327"><ele>182.0</ele><time>2026-03-17T16:18:10Z</time></trkpt><trkpt lat="43.5195996919195" lon="3.20989516528646"><ele>182.0</ele><time>2026-03-17T16:18:11Z</time></trkpt><trkpt lat="43.51957185430606" lon="3.2100225369604996"><ele>182.0</ele><time>2026-03-17T16:18:12Z</time></trkpt><trkpt lat="43.51955825337631" lon="3.2101463334392855"><ele>182.0</ele><time>2026-03-17T16:18:13Z</time></trkpt><trkpt lat="43.51954924737263" lon="3.2102658823902894"><ele>182.75</ele><time>2026-03-17T16:18:14Z</time></trkpt><trkpt lat="43.519603755783606" lon="3.21038936304551"><ele>183.5</ele><time>2026-03-17T16:18:15Z</time></trkpt><trkpt lat="43.519672706675365" lon="3.210503179894619"><ele>184.25</ele><time>2026-03-17T16:18:16Z</time></trkpt><trkpt lat="43.51976516305175" lon="3.2106045162997012"><ele>185.0</ele><time>2026-03-17T16:18:17Z</time></trkpt><trkpt lat="43.519879852794034" lon="3.2107079326488503"><ele>185.0</ele><time>2026-03-17T16:18:18Z</time></trkpt><trkpt lat="43.520009335481404" lon="3.210817870347065"><ele>185.0</ele><time>2026-03-17T16:18:19Z</time></trkpt><trkpt lat="43.520143711675715" lon="3.2109405263288884"><ele>185.0</ele><time>2026-03-17T16:18:20Z</time></trkpt><trkpt lat="43.520280114772" lon="3.211067676830658"><ele>186.33333333333331</ele><time>2026-03-17T16:18:21Z</time></trkpt><trkpt lat="43.52041100922512" lon="3.2111836927442257"><ele>187.66666666666666</ele><time>2026-03-17T16:18:22Z</time></trkpt><trkpt lat="43.520543121265405" lon="3.211299670818084"><ele>189.0</ele><time>2026-03-17T16:18:23Z</time></trkpt><trkpt lat="43.52066986563657" lon="3.2114136566648277"><ele>188.5</ele><time>2026-03-17T16:18:24Z</time></trkpt><trkpt lat="43.520790610625504" lon="3.211519476471361"><ele>188.0</ele><time>2026-03-17T16:18:25Z</time></trkpt><trkpt lat="43.52090682303134" lon="3.211622193184809"><ele>187.5</ele><time>2026-03-17T16:18:26Z</time></trkpt><trkpt lat="43.52102233761801" lon="3.2117210140961614"><ele>187.0</ele><time>2026-03-17T16:18:27Z</time></trkpt><trkpt lat="43.52113872136635" lon="3.2118218543985124"><ele>186.75</ele><time>2026-03-17T16:18:28Z</time></trkpt><trkpt lat="43.52125394788312" lon="3.2119288078333903"><ele>186.5</ele><time>2026-03-17T16:18:29Z</time></trkpt><trkpt lat="43.52137096794798" lon="3.2120340495858737"><ele>186.25</ele><time>2026-03-17T16:18:30Z</time></trkpt><trkpt lat="43.52149204033692" lon="3.2121383545938134"><ele>186.0</ele><time>2026-03-17T16:18:31Z</time></trkpt><trkpt lat="43.52161409372907" lon="3.2122495035854"><ele>186.33333333333334</ele><time>2026-03-17T16:18:32Z</time></trkpt><trkpt lat="43.521740613686624" lon="3.2123638472545757"><ele>186.66666666666669</ele><time>2026-03-17T16:18:33Z</time></trkpt><trkpt lat="43.52187213397407" lon="3.212480519551393"><ele>187.0</ele><time>2026-03-17T16:18:34.001Z</time></trkpt><trkpt lat="43.52200627626552" lon="3.212597976376124"><ele>186.5</ele><time>2026-03-17T16:18:35.001Z</time></trkpt><trkpt lat="43.52212807585362" lon="3.2127054339589627"><ele>186.0</ele><time>2026-03-17T16:18:36.001Z</time></trkpt><trkpt lat="43.522236794198875" lon="3.21280734909562"><ele>185.5</ele><time>2026-03-17T16:18:37.001Z</time></trkpt><trkpt lat="43.52233688196797" lon="3.212893265586332"><ele>185.0</ele><time>2026-03-17T16:18:38.001Z</time></trkpt><trkpt lat="43.522427325047275" lon="3.212951079822846"><ele>185.0</ele><time>2026-03-17T16:18:39.001Z</time></trkpt><trkpt lat="43.52252887013666" lon="3.2129879987214416"><ele>185.0</ele><time>2026-03-17T16:18:40.001Z</time></trkpt><trkpt lat="43.522645766556806" lon="3.2130099996585053"><ele>185.0</ele><time>2026-03-17T16:18:41.001Z</time></trkpt><trkpt lat="43.52277489726641" lon="3.213029328682112"><ele>185.0</ele><time>2026-03-17T16:18:42.001Z</time></trkpt><trkpt lat="43.52291614344515" lon="3.2130604725774274"><ele>186.75</ele><time>2026-03-17T16:18:43.001Z</time></trkpt><trkpt lat="43.52305641477743" lon="3.213092467450554"><ele>188.5</ele><time>2026-03-17T16:18:44.001Z</time></trkpt><trkpt lat="43.52318193228985" lon="3.2131278113904496"><ele>190.25</ele><time>2026-03-17T16:18:45.001Z</time></trkpt><trkpt lat="43.523296934622486" lon="3.2131845434666904"><ele>192.0</ele><time>2026-03-17T16:18:46.001Z</time></trkpt><trkpt lat="43.52341736828817" lon="3.213272577505652"><ele>193.0</ele><time>2026-03-17T16:18:47.001Z</time></trkpt><trkpt lat="43.52354899400805" lon="3.21337799464852"><ele>194.0</ele><time>2026-03-17T16:18:48.001Z</time></trkpt><trkpt lat="43.523680640341446" lon="3.213494485232485"><ele>195.0</ele><time>2026-03-17T16:18:49.001Z</time></trkpt><trkpt lat="43.52382964285616" lon="3.2136177846403875"><ele>196.66666666666669</ele><time>2026-03-17T16:18:50.001Z</time></trkpt><trkpt lat="43.523982567738706" lon="3.2137456905955224"><ele>198.33333333333334</ele><time>2026-03-17T16:18:51.001Z</time></trkpt><trkpt lat="43.52414065686343" lon="3.2138752858267203"><ele>200.0</ele><time>2026-03-17T16:18:52.001Z</time></trkpt><trkpt lat="43.52429880396062" lon="3.21400796775689"><ele>201.0</ele><time>2026-03-17T16:18:53.001Z</time></trkpt><trkpt lat="43.52445537930714" lon="3.2141379343389045"><ele>202.0</ele><time>2026-03-17T16:18:54.001Z</time></trkpt><trkpt lat="43.52461085695651" lon="3.214270118660436"><ele>203.0</ele><time>2026-03-17T16:18:55.001Z</time></trkpt><trkpt lat="43.52475820822075" lon="3.2143902017955504"><ele>203.5</ele><time>2026-03-17T16:18:56.001Z</time></trkpt><trkpt lat="43.52488930652906" lon="3.2145058611957387"><ele>204.0</ele><time>2026-03-17T16:18:57.001Z</time></trkpt><trkpt lat="43.52499320909347" lon="3.214624188154363"><ele>204.5</ele><time>2026-03-17T16:18:58.001Z</time></trkpt><trkpt lat="43.52506689455466" lon="3.2147557138619782"><ele>205.0</ele><time>2026-03-17T16:18:59.001Z</time></trkpt><trkpt lat="43.52512682859294" lon="3.2149070813486906"><ele>206.0</ele><time>2026-03-17T16:19:00.001Z</time></trkpt><trkpt lat="43.52517294342267" lon="3.2150837346842023"><ele>207.0</ele><time>2026-03-17T16:19:01.001Z</time></trkpt><trkpt lat="43.52520992052779" lon="3.215284525284182"><ele>208.0</ele><time>2026-03-17T16:19:02.001Z</time></trkpt><trkpt lat="43.525243573773196" lon="3.2155015589833997"><ele>209.0</ele><time>2026-03-17T16:19:03.001Z</time></trkpt><trkpt lat="43.525284704973025" lon="3.2157282953505386"><ele>209.0</ele><time>2026-03-17T16:19:04.001Z</time></trkpt><trkpt lat="43.52532922584366" lon="3.215965117370311"><ele>209.0</ele><time>2026-03-17T16:19:05.001Z</time></trkpt><trkpt lat="43.52537657252888" lon="3.2162083016404295"><ele>209.0</ele><time>2026-03-17T16:19:06.001Z</time></trkpt><trkpt lat="43.52542734022604" lon="3.2164589440242026"><ele>210.33333333333334</ele><time>2026-03-17T16:19:07.001Z</time></trkpt><trkpt lat="43.52547503009621" lon="3.216714851579711"><ele>211.66666666666669</ele><time>2026-03-17T16:19:08.001Z</time></trkpt><trkpt lat="43.525523382388435" lon="3.216967297638823"><ele>213.0</ele><time>2026-03-17T16:19:09.001Z</time></trkpt><trkpt lat="43.52555378372367" lon="3.2172125204111635"><ele>213.25</ele><time>2026-03-17T16:19:10.001Z</time></trkpt><trkpt lat="43.52560832719741" lon="3.2174248757114277"><ele>213.5</ele><time>2026-03-17T16:19:11.001Z</time></trkpt><trkpt lat="43.52564428501537" lon="3.2176230453715884"><ele>213.75</ele><time>2026-03-17T16:19:12.001Z</time></trkpt><trkpt lat="43.52568471096231" lon="3.2178035282578676"><ele>214.0</ele><time>2026-03-17T16:19:13.001Z</time></trkpt><trkpt lat="43.52573744138831" lon="3.2179743053482275"><ele>214.0</ele><time>2026-03-17T16:19:14.001Z</time></trkpt><trkpt lat="43.52581303593546" lon="3.2181299671800665"><ele>214.0</ele><time>2026-03-17T16:19:15.001Z</time></trkpt><trkpt lat="43.52590951131157" lon="3.218274593846867"><ele>214.0</ele><time>2026-03-17T16:19:16.001Z</time></trkpt><trkpt lat="43.526020702204" lon="3.218412140722596"><ele>214.0</ele><time>2026-03-17T16:19:17.001Z</time></trkpt><trkpt lat="43.52613779362032" lon="3.218550720817952"><ele>214.0</ele><time>2026-03-17T16:19:18.001Z</time></trkpt><trkpt lat="43.52626097705356" lon="3.2186839870277875"><ele>214.0</ele><time>2026-03-17T16:19:19.001Z</time></trkpt><trkpt lat="43.52637520245994" lon="3.2188102233585245"><ele>214.0</ele><time>2026-03-17T16:19:20.001Z</time></trkpt><trkpt lat="43.52646655907792" lon="3.218944799755545"><ele>214.0</ele><time>2026-03-17T16:19:21.001Z</time></trkpt><trkpt lat="43.52653254927719" lon="3.219098151311533"><ele>214.33333333333331</ele><time>2026-03-17T16:19:22.001Z</time></trkpt><trkpt lat="43.5265641983652" lon="3.219284540062822"><ele>214.66666666666669</ele><time>2026-03-17T16:19:23.001Z</time></trkpt><trkpt lat="43.52660147232981" lon="3.219487270330482"><ele>215.0</ele><time>2026-03-17T16:19:24.001Z</time></trkpt><trkpt lat="43.52664982918207" lon="3.219700720832976"><ele>214.66666666666669</ele><time>2026-03-17T16:19:25.001Z</time></trkpt><trkpt lat="43.52666465918397" lon="3.2199333094511156"><ele>214.33333333333331</ele><time>2026-03-17T16:19:26.001Z</time></trkpt><trkpt lat="43.52669841962109" lon="3.2201691040148006"><ele>214.0</ele><time>2026-03-17T16:19:27.001Z</time></trkpt><trkpt lat="43.52674865498962" lon="3.220396179102359"><ele>214.0</ele><time>2026-03-17T16:19:28.001Z</time></trkpt><trkpt lat="43.526788328319476" lon="3.2206207481841505"><ele>214.0</ele><time>2026-03-17T16:19:29.001Z</time></trkpt><trkpt lat="43.526833780697295" lon="3.220848759017345"><ele>214.0</ele><time>2026-03-17T16:19:30.001Z</time></trkpt><trkpt lat="43.52688656268264" lon="3.2210822477891874"><ele>213.33333333333331</ele><time>2026-03-17T16:19:31.001Z</time></trkpt><trkpt lat="43.52694244155486" lon="3.221318828676632"><ele>212.66666666666669</ele><time>2026-03-17T16:19:32.001Z</time></trkpt><trkpt lat="43.52699069414111" lon="3.2215565887574167"><ele>212.0</ele><time>2026-03-17T16:19:33.001Z</time></trkpt><trkpt lat="43.527030302118014" lon="3.2217908445265495"><ele>211.33333333333334</ele><time>2026-03-17T16:19:34.001Z</time></trkpt><trkpt lat="43.52706542775195" lon="3.2220224383337333"><ele>210.66666666666669</ele><time>2026-03-17T16:19:35.001Z</time></trkpt><trkpt lat="43.52710362545597" lon="3.222261265469501"><ele>210.0</ele><time>2026-03-17T16:19:36.001Z</time></trkpt><trkpt lat="43.527128567129374" lon="3.222516207325385"><ele>209.33333333333331</ele><time>2026-03-17T16:19:37.001Z</time></trkpt><trkpt lat="43.5271684213219" lon="3.2227760416243316"><ele>208.66666666666666</ele><time>2026-03-17T16:19:38.001Z</time></trkpt><trkpt lat="43.52720722214316" lon="3.2230358820116423"><ele>208.0</ele><time>2026-03-17T16:19:39.001Z</time></trkpt><trkpt lat="43.52723857051022" lon="3.223279802575055"><ele>207.66666666666666</ele><time>2026-03-17T16:19:40.001Z</time></trkpt><trkpt lat="43.52725952920139" lon="3.2235124144791327"><ele>207.33333333333331</ele><time>2026-03-17T16:19:41.001Z</time></trkpt><trkpt lat="43.5272888679497" lon="3.223736586170541"><ele>207.0</ele><time>2026-03-17T16:19:42.001Z</time></trkpt><trkpt lat="43.527310004795474" lon="3.2239507079569907"><ele>206.25</ele><time>2026-03-17T16:19:43.001Z</time></trkpt><trkpt lat="43.5273579583639" lon="3.224139143495086"><ele>205.5</ele><time>2026-03-17T16:19:44.001Z</time></trkpt><trkpt lat="43.5274295812139" lon="3.224299030537726"><ele>204.75</ele><time>2026-03-17T16:19:45.001Z</time></trkpt><trkpt lat="43.52751765464721" lon="3.2244330886308767"><ele>204.0</ele><time>2026-03-17T16:19:46.001Z</time></trkpt><trkpt lat="43.52761902686392" lon="3.224538418205902"><ele>204.0</ele><time>2026-03-17T16:19:47.001Z</time></trkpt><trkpt lat="43.52771283320389" lon="3.224605215270065"><ele>204.0</ele><time>2026-03-17T16:19:48.001Z</time></trkpt><trkpt lat="43.52780691950465" lon="3.2246325318107942"><ele>204.0</ele><time>2026-03-17T16:19:49.001Z</time></trkpt><trkpt lat="43.527914893367964" lon="3.2246377994204827"><ele>204.0</ele><time>2026-03-17T16:19:50.001Z</time></trkpt><trkpt lat="43.528041886469616" lon="3.224632707326354"><ele>204.0</ele><time>2026-03-17T16:19:51.001Z</time></trkpt><trkpt lat="43.52818019475705" lon="3.224642321150018"><ele>204.33333333333331</ele><time>2026-03-17T16:19:52.001Z</time></trkpt><trkpt lat="43.52833312410473" lon="3.2246662094543828"><ele>204.66666666666666</ele><time>2026-03-17T16:19:53.001Z</time></trkpt><trkpt lat="43.52849457341128" lon="3.2246926103607345"><ele>205.0</ele><time>2026-03-17T16:19:54.001Z</time></trkpt><trkpt lat="43.52866083863939" lon="3.2247221449135983"><ele>203.33333333333331</ele><time>2026-03-17T16:19:55.001Z</time></trkpt><trkpt lat="43.52882766665859" lon="3.2247473661861155"><ele>201.66666666666669</ele><time>2026-03-17T16:19:56.001Z</time></trkpt><trkpt lat="43.528987252982276" lon="3.224765558956854"><ele>200.0</ele><time>2026-03-17T16:19:57.001Z</time></trkpt><trkpt lat="43.52913964021975" lon="3.224768842135498"><ele>200.0</ele><time>2026-03-17T16:19:58.002Z</time></trkpt><trkpt lat="43.52929367523741" lon="3.2247439928216686"><ele>200.0</ele><time>2026-03-17T16:19:59.002Z</time></trkpt><trkpt lat="43.529453714175716" lon="3.224690222556721"><ele>200.0</ele><time>2026-03-17T16:20:00.002Z</time></trkpt><trkpt lat="43.52962048995498" lon="3.2246229676546445"><ele>198.0</ele><time>2026-03-17T16:20:01.002Z</time></trkpt><trkpt lat="43.529793564833604" lon="3.224560401817222"><ele>196.0</ele><time>2026-03-17T16:20:02.002Z</time></trkpt><trkpt lat="43.529957743450396" lon="3.2245150049395077"><ele>194.0</ele><time>2026-03-17T16:20:03.002Z</time></trkpt><trkpt lat="43.53011963721919" lon="3.2244929968497416"><ele>194.0</ele><time>2026-03-17T16:20:04.002Z</time></trkpt><trkpt lat="43.530268664853864" lon="3.2244966113992266"><ele>194.0</ele><time>2026-03-17T16:20:05.002Z</time></trkpt><trkpt lat="43.53038069574428" lon="3.224535562982585"><ele>194.0</ele><time>2026-03-17T16:20:06.002Z</time></trkpt><trkpt lat="43.53048089097085" lon="3.224610068215788"><ele>194.0</ele><time>2026-03-17T16:20:07.002Z</time></trkpt><trkpt lat="43.53055281061519" lon="3.2247430517509357"><ele>193.75</ele><time>2026-03-17T16:20:08Z</time></trkpt><trkpt lat="43.53064205306231" lon="3.2248817915293357"><ele>193.5</ele><time>2026-03-17T16:20:09Z</time></trkpt><trkpt lat="43.5307245380882" lon="3.225050380923091"><ele>193.25</ele><time>2026-03-17T16:20:10Z</time></trkpt><trkpt lat="43.53083191105501" lon="3.2252059459111657"><ele>193.0</ele><time>2026-03-17T16:20:11Z</time></trkpt><trkpt lat="43.53096212916256" lon="3.225347466648674"><ele>193.0</ele><time>2026-03-17T16:20:12Z</time></trkpt><trkpt lat="43.53108976665452" lon="3.2254737891260628"><ele>193.0</ele><time>2026-03-17T16:20:13Z</time></trkpt><trkpt lat="43.531206459062666" lon="3.225616855979035"><ele>193.0</ele><time>2026-03-17T16:20:14Z</time></trkpt><trkpt lat="43.53130386958863" lon="3.2258068764192647"><ele>192.0</ele><time>2026-03-17T16:20:15Z</time></trkpt><trkpt lat="43.531414924201236" lon="3.225957415148281"><ele>191.0</ele><time>2026-03-17T16:20:16Z</time></trkpt><trkpt lat="43.53151324284889" lon="3.226081181517752"><ele>190.0</ele><time>2026-03-17T16:20:17Z</time></trkpt><trkpt lat="43.531624393564655" lon="3.226193479534776"><ele>189.0</ele><time>2026-03-17T16:20:18Z</time></trkpt><trkpt lat="43.53172803179852" lon="3.226299593669337"><ele>189.0</ele><time>2026-03-17T16:20:19Z</time></trkpt><trkpt lat="43.53180891922774" lon="3.22639133988197"><ele>189.0</ele><time>2026-03-17T16:20:20Z</time></trkpt><trkpt lat="43.53186427716434" lon="3.2264770989224982"><ele>189.0</ele><time>2026-03-17T16:20:21Z</time></trkpt><trkpt lat="43.53190941962151" lon="3.2265948638351967"><ele>189.0</ele><time>2026-03-17T16:20:22Z</time></trkpt><trkpt lat="43.53193755734089" lon="3.226743709518976"><ele>189.0</ele><time>2026-03-17T16:20:23Z</time></trkpt><trkpt lat="43.53193332336194" lon="3.226920383926675"><ele>189.75</ele><time>2026-03-17T16:20:24Z</time></trkpt><trkpt lat="43.531959252605795" lon="3.227079205512706"><ele>190.5</ele><time>2026-03-17T16:20:25Z</time></trkpt><trkpt lat="43.53198478575203" lon="3.2272030008624086"><ele>191.25</ele><time>2026-03-17T16:20:26Z</time></trkpt><trkpt lat="43.53203844042798" lon="3.2273384523473405"><ele>192.0</ele><time>2026-03-17T16:20:27Z</time></trkpt><trkpt lat="43.53211252129694" lon="3.2274859447788096"><ele>189.66666666666666</ele><time>2026-03-17T16:20:28Z</time></trkpt><trkpt lat="43.53219839178147" lon="3.2276426532983002"><ele>187.33333333333331</ele><time>2026-03-17T16:20:29Z</time></trkpt><trkpt lat="43.53228891552099" lon="3.2278149940993135"><ele>185.0</ele><time>2026-03-17T16:20:30Z</time></trkpt><trkpt lat="43.532383023513525" lon="3.227993110127014"><ele>185.0</ele><time>2026-03-17T16:20:31Z</time></trkpt><trkpt lat="43.53247086886633" lon="3.2281611685687173"><ele>185.0</ele><time>2026-03-17T16:20:32Z</time></trkpt><trkpt lat="43.53255100637311" lon="3.228317942488876"><ele>185.0</ele><time>2026-03-17T16:20:33Z</time></trkpt><trkpt lat="43.53261915626576" lon="3.2284715550042864"><ele>185.0</ele><time>2026-03-17T16:20:34Z</time></trkpt><trkpt lat="43.532659547101574" lon="3.228617790819631"><ele>185.0</ele><time>2026-03-17T16:20:35Z</time></trkpt><trkpt lat="43.53269775839882" lon="3.228726773025043"><ele>185.0</ele><time>2026-03-17T16:20:36Z</time></trkpt><trkpt lat="43.53275124436165" lon="3.2288055255134362"><ele>185.0</ele><time>2026-03-17T16:20:37Z</time></trkpt><trkpt lat="43.53280537044881" lon="3.228860485406455"><ele>185.0</ele><time>2026-03-17T16:20:38Z</time></trkpt><trkpt lat="43.532877676447406" lon="3.2289190355036017"><ele>185.0</ele><time>2026-03-17T16:20:40Z</time></trkpt><trkpt lat="43.53292857457323" lon="3.2290277474631286"><ele>185.0</ele><time>2026-03-17T16:20:48Z</time></trkpt><trkpt lat="43.532911626834675" lon="3.229122225592975"><ele>186.0</ele><time>2026-03-17T16:20:49Z</time></trkpt><trkpt lat="43.53287690444119" lon="3.2292527503723303"><ele>187.0</ele><time>2026-03-17T16:20:50Z</time></trkpt><trkpt lat="43.532849322736546" lon="3.229407728163236"><ele>188.0</ele><time>2026-03-17T16:20:51.001Z</time></trkpt><trkpt lat="43.5328088375627" lon="3.229560362070985"><ele>189.0</ele><time>2026-03-17T16:20:52.001Z</time></trkpt><trkpt lat="43.53276199388534" lon="3.2297491387219908"><ele>188.33333333333334</ele><time>2026-03-17T16:20:53.001Z</time></trkpt><trkpt lat="43.53270531199854" lon="3.229956734933053"><ele>187.66666666666669</ele><time>2026-03-17T16:20:54.001Z</time></trkpt><trkpt lat="43.53265013678736" lon="3.2301623940845237"><ele>187.0</ele><time>2026-03-17T16:20:55.001Z</time></trkpt><trkpt lat="43.53259140937806" lon="3.230388927099223"><ele>187.0</ele><time>2026-03-17T16:20:56.001Z</time></trkpt><trkpt lat="43.53252907497826" lon="3.2306223170366586"><ele>187.0</ele><time>2026-03-17T16:20:57.001Z</time></trkpt><trkpt lat="43.53245672598551" lon="3.230861077936855"><ele>187.0</ele><time>2026-03-17T16:20:58.001Z</time></trkpt><trkpt lat="43.532349983551455" lon="3.2310806241100294"><ele>185.33333333333334</ele><time>2026-03-17T16:20:59.001Z</time></trkpt><trkpt lat="43.532250986284936" lon="3.2313136379639404"><ele>183.66666666666666</ele><time>2026-03-17T16:21:00.001Z</time></trkpt><trkpt lat="43.53212682303239" lon="3.231527187260262"><ele>182.0</ele><time>2026-03-17T16:21:01.001Z</time></trkpt><trkpt lat="43.531992062375686" lon="3.23173365196584"><ele>182.0</ele><time>2026-03-17T16:21:02.001Z</time></trkpt><trkpt lat="43.53183730732381" lon="3.2319164141641363"><ele>182.0</ele><time>2026-03-17T16:21:03.001Z</time></trkpt><trkpt lat="43.53167591228638" lon="3.23213627038392"><ele>182.0</ele><time>2026-03-17T16:21:04.001Z</time></trkpt><trkpt lat="43.531508607628716" lon="3.2323607982477323"><ele>180.0</ele><time>2026-03-17T16:21:05.001Z</time></trkpt><trkpt lat="43.531349353972786" lon="3.232574286421582"><ele>178.0</ele><time>2026-03-17T16:21:06.001Z</time></trkpt><trkpt lat="43.531210733566056" lon="3.2327670400566157"><ele>176.0</ele><time>2026-03-17T16:21:07.001Z</time></trkpt><trkpt lat="43.53110077405756" lon="3.232930240826424"><ele>176.0</ele><time>2026-03-17T16:21:08.001Z</time></trkpt><trkpt lat="43.531010436799825" lon="3.233076231499585"><ele>176.0</ele><time>2026-03-17T16:21:09.001Z</time></trkpt><trkpt lat="43.53093915560125" lon="3.2332006073874817"><ele>176.0</ele><time>2026-03-17T16:21:10.001Z</time></trkpt><trkpt lat="43.530890448635255" lon="3.2332867280500004"><ele>176.0</ele><time>2026-03-17T16:21:11.001Z</time></trkpt><trkpt lat="43.530847525680194" lon="3.2333949284266548"><ele>176.0</ele><time>2026-03-17T16:21:13.001Z</time></trkpt><trkpt lat="43.53098204608207" lon="3.2335518913674695"><ele>175.16666666666666</ele><time>2026-03-17T16:21:14.001Z</time></trkpt><trkpt lat="43.5310539033961" lon="3.2335932597775368"><ele>174.33333333333331</ele><time>2026-03-17T16:21:15.001Z</time></trkpt><trkpt lat="43.53113558555231" lon="3.2335967315414056"><ele>173.5</ele><time>2026-03-17T16:21:16.001Z</time></trkpt><trkpt lat="43.53121060929915" lon="3.2335600232809876"><ele>172.66666666666666</ele><time>2026-03-17T16:21:17.001Z</time></trkpt><trkpt lat="43.53128023332745" lon="3.233481781586262"><ele>171.83333333333334</ele><time>2026-03-17T16:21:18.001Z</time></trkpt><trkpt lat="43.53134463107978" lon="3.2333729886478544"><ele>171.0</ele><time>2026-03-17T16:21:19.001Z</time></trkpt><trkpt lat="43.53141165653966" lon="3.2332502416326214"><ele>170.25</ele><time>2026-03-17T16:21:20.001Z</time></trkpt><trkpt lat="43.53149580627114" lon="3.2331315467074235"><ele>169.5</ele><time>2026-03-17T16:21:21.001Z</time></trkpt><trkpt lat="43.53158907694697" lon="3.2330430613691448"><ele>168.75</ele><time>2026-03-17T16:21:22.001Z</time></trkpt><trkpt lat="43.53169061051136" lon="3.232986213362165"><ele>168.0</ele><time>2026-03-17T16:21:23.001Z</time></trkpt><trkpt lat="43.531809303006604" lon="3.2329844450238716"><ele>168.0</ele><time>2026-03-17T16:21:24.001Z</time></trkpt><trkpt lat="43.53193262632281" lon="3.2329524830716663"><ele>168.0</ele><time>2026-03-17T16:21:25.001Z</time></trkpt><trkpt lat="43.53206114570641" lon="3.232938503317439"><ele>168.0</ele><time>2026-03-17T16:21:26.001Z</time></trkpt><trkpt lat="43.53219151264888" lon="3.232941057991112"><ele>168.0</ele><time>2026-03-17T16:21:27.001Z</time></trkpt><trkpt lat="43.532312731988064" lon="3.232928591710675"><ele>166.60000000000002</ele><time>2026-03-17T16:21:28.001Z</time></trkpt><trkpt lat="43.53242656810642" lon="3.232904000727981"><ele>165.20000000000002</ele><time>2026-03-17T16:21:29.001Z</time></trkpt><trkpt lat="43.532527573146915" lon="3.2328922732848744"><ele>163.8</ele><time>2026-03-17T16:21:30.001Z</time></trkpt><trkpt lat="43.53261692067797" lon="3.232913893269881"><ele>162.4</ele><time>2026-03-17T16:21:31.001Z</time></trkpt><trkpt lat="43.532704510431195" lon="3.232971549636771"><ele>161.0</ele><time>2026-03-17T16:21:32.001Z</time></trkpt><trkpt lat="43.53277825779963" lon="3.2330813410374275"><ele>159.75</ele><time>2026-03-17T16:21:33.001Z</time></trkpt><trkpt lat="43.53285787193276" lon="3.2332072372404306"><ele>158.5</ele><time>2026-03-17T16:21:34.001Z</time></trkpt><trkpt lat="43.53295011245262" lon="3.2333395785403227"><ele>157.25</ele><time>2026-03-17T16:21:35.001Z</time></trkpt><trkpt lat="43.53304090562627" lon="3.2334990012918547"><ele>156.0</ele><time>2026-03-17T16:21:36.001Z</time></trkpt><trkpt lat="43.533142049431014" lon="3.2336655406572596"><ele>154.33333333333334</ele><time>2026-03-17T16:21:37.001Z</time></trkpt><trkpt lat="43.53324020819493" lon="3.2338497108564606"><ele>152.66666666666669</ele><time>2026-03-17T16:21:38.001Z</time></trkpt><trkpt lat="43.533341621548864" lon="3.234024614894446"><ele>151.0</ele><time>2026-03-17T16:21:39.001Z</time></trkpt><trkpt lat="43.53344699138536" lon="3.2342150559311706"><ele>151.0</ele><time>2026-03-17T16:21:40.001Z</time></trkpt><trkpt lat="43.53357805157495" lon="3.2343975329321824"><ele>151.0</ele><time>2026-03-17T16:21:41.001Z</time></trkpt><trkpt lat="43.533707388631214" lon="3.234597287357295"><ele>151.0</ele><time>2026-03-17T16:21:42.001Z</time></trkpt><trkpt lat="43.53382938116508" lon="3.234788291207697"><ele>150.33333333333334</ele><time>2026-03-17T16:21:43.001Z</time></trkpt><trkpt lat="43.53394110250218" lon="3.234969586705572"><ele>149.66666666666666</ele><time>2026-03-17T16:21:44.001Z</time></trkpt><trkpt lat="43.53404480556356" lon="3.2351434262648695"><ele>149.0</ele><time>2026-03-17T16:21:45.001Z</time></trkpt><trkpt lat="43.53413283818758" lon="3.2353007932512132"><ele>149.0</ele><time>2026-03-17T16:21:46.001Z</time></trkpt><trkpt lat="43.53420814074114" lon="3.235441701071562"><ele>149.0</ele><time>2026-03-17T16:21:47.001Z</time></trkpt><trkpt lat="43.53429097468006" lon="3.2355929071772933"><ele>149.0</ele><time>2026-03-17T16:21:48.001Z</time></trkpt><trkpt lat="43.53437667532607" lon="3.2357544198187878"><ele>149.0</ele><time>2026-03-17T16:21:49.001Z</time></trkpt><trkpt lat="43.534459977960786" lon="3.235906433247943"><ele>149.75</ele><time>2026-03-17T16:21:50.001Z</time></trkpt><trkpt lat="43.534558829665194" lon="3.2360314406845934"><ele>150.5</ele><time>2026-03-17T16:21:51.001Z</time></trkpt><trkpt lat="43.53468440487988" lon="3.236135144160939"><ele>151.25</ele><time>2026-03-17T16:21:52.001Z</time></trkpt><trkpt lat="43.534828600831965" lon="3.2362254634000442"><ele>152.0</ele><time>2026-03-17T16:21:53.001Z</time></trkpt><trkpt lat="43.53497951478437" lon="3.2363141845874615"><ele>152.0</ele><time>2026-03-17T16:21:54.001Z</time></trkpt><trkpt lat="43.53511786439691" lon="3.236410795442741"><ele>152.0</ele><time>2026-03-17T16:21:55.001Z</time></trkpt><trkpt lat="43.53524704246228" lon="3.236504070329382"><ele>152.0</ele><time>2026-03-17T16:21:56.001Z</time></trkpt><trkpt lat="43.535377086531874" lon="3.2365905267507715"><ele>152.0</ele><time>2026-03-17T16:21:57.001Z</time></trkpt><trkpt lat="43.535493292910374" lon="3.2366686186262514"><ele>152.5</ele><time>2026-03-17T16:21:58.001Z</time></trkpt><trkpt lat="43.53560643422926" lon="3.236730367715952"><ele>153.0</ele><time>2026-03-17T16:21:59.001Z</time></trkpt><trkpt lat="43.53573246495581" lon="3.2367747939367906"><ele>153.5</ele><time>2026-03-17T16:22:00.001Z</time></trkpt><trkpt lat="43.535874569576784" lon="3.2368001175540493"><ele>154.0</ele><time>2026-03-17T16:22:01.001Z</time></trkpt><trkpt lat="43.536028981875425" lon="3.236805749827525"><ele>154.0</ele><time>2026-03-17T16:22:02.001Z</time></trkpt><trkpt lat="43.53620012412796" lon="3.2368081045966304"><ele>154.0</ele><time>2026-03-17T16:22:03.001Z</time></trkpt><trkpt lat="43.53638074641511" lon="3.2368174569007984"><ele>154.0</ele><time>2026-03-17T16:22:04.001Z</time></trkpt><trkpt lat="43.53656561124986" lon="3.236825218930805"><ele>153.66666666666669</ele><time>2026-03-17T16:22:05.001Z</time></trkpt><trkpt lat="43.53675046741947" lon="3.236829177342203"><ele>153.33333333333334</ele><time>2026-03-17T16:22:06.001Z</time></trkpt><trkpt lat="43.536923917342015" lon="3.236839703683704"><ele>153.0</ele><time>2026-03-17T16:22:07.001Z</time></trkpt><trkpt lat="43.53709069693677" lon="3.236858085494747"><ele>152.33333333333334</ele><time>2026-03-17T16:22:08.001Z</time></trkpt><trkpt lat="43.53725251019832" lon="3.236901605661097"><ele>151.66666666666669</ele><time>2026-03-17T16:22:09.001Z</time></trkpt><trkpt lat="43.53740845620384" lon="3.236985756131736"><ele>151.0</ele><time>2026-03-17T16:22:10.001Z</time></trkpt><trkpt lat="43.537568794830705" lon="3.2371007965877365"><ele>151.0</ele><time>2026-03-17T16:22:11.001Z</time></trkpt><trkpt lat="43.537736455909204" lon="3.2372350276626904"><ele>151.0</ele><time>2026-03-17T16:22:12.001Z</time></trkpt><trkpt lat="43.537909435150794" lon="3.237379254095892"><ele>151.0</ele><time>2026-03-17T16:22:13.001Z</time></trkpt><trkpt lat="43.53809166024815" lon="3.237527921914649"><ele>152.5</ele><time>2026-03-17T16:22:14Z</time></trkpt><trkpt lat="43.53828237651781" lon="3.237685885903132"><ele>154.0</ele><time>2026-03-17T16:22:15Z</time></trkpt><trkpt lat="43.53848083482454" lon="3.23785146508433"><ele>154.0</ele><time>2026-03-17T16:22:16Z</time></trkpt><trkpt lat="43.53868615932823" lon="3.2380161693242493"><ele>154.0</ele><time>2026-03-17T16:22:17Z</time></trkpt><trkpt lat="43.538887418296916" lon="3.2381761461645744"><ele>154.0</ele><time>2026-03-17T16:22:18Z</time></trkpt><trkpt lat="43.53909724366159" lon="3.238343705498609"><ele>154.0</ele><time>2026-03-17T16:22:19Z</time></trkpt><trkpt lat="43.53930759789266" lon="3.238518267184011"><ele>154.0</ele><time>2026-03-17T16:22:20Z</time></trkpt><trkpt lat="43.53952036501541" lon="3.238692566709734"><ele>154.0</ele><time>2026-03-17T16:22:21Z</time></trkpt><trkpt lat="43.539735406530674" lon="3.238864493457596"><ele>156.0</ele><time>2026-03-17T16:22:22Z</time></trkpt><trkpt lat="43.53994473861533" lon="3.2390342177371787"><ele>158.0</ele><time>2026-03-17T16:22:23Z</time></trkpt><trkpt lat="43.54013908430107" lon="3.2391907130089694"><ele>158.0</ele><time>2026-03-17T16:22:24Z</time></trkpt><trkpt lat="43.540323313400684" lon="3.2393380846453077"><ele>158.0</ele><time>2026-03-17T16:22:25Z</time></trkpt><trkpt lat="43.54050232846345" lon="3.2394808780223974"><ele>158.0</ele><time>2026-03-17T16:22:26Z</time></trkpt><trkpt lat="43.54067856595943" lon="3.239626993420832"><ele>158.66666666666666</ele><time>2026-03-17T16:22:27Z</time></trkpt><trkpt lat="43.540853951803136" lon="3.2397700520424806"><ele>159.33333333333334</ele><time>2026-03-17T16:22:28Z</time></trkpt><trkpt lat="43.541028613837746" lon="3.2399122686874704"><ele>160.0</ele><time>2026-03-17T16:22:29Z</time></trkpt><trkpt lat="43.5411922077526" lon="3.2400493456475967"><ele>161.66666666666669</ele><time>2026-03-17T16:22:30Z</time></trkpt><trkpt lat="43.541344421850944" lon="3.240176335353347"><ele>163.33333333333334</ele><time>2026-03-17T16:22:31Z</time></trkpt><trkpt lat="43.54148822237219" lon="3.2402915486540405"><ele>165.0</ele><time>2026-03-17T16:22:32Z</time></trkpt><trkpt lat="43.54162911569363" lon="3.240393502610826"><ele>165.0</ele><time>2026-03-17T16:22:33Z</time></trkpt><trkpt lat="43.54176440259473" lon="3.240472103788449"><ele>165.0</ele><time>2026-03-17T16:22:34Z</time></trkpt><trkpt lat="43.54191075658171" lon="3.240526262516386"><ele>165.0</ele><time>2026-03-17T16:22:35Z</time></trkpt><trkpt lat="43.54207583910212" lon="3.240558345813992"><ele>165.66666666666666</ele><time>2026-03-17T16:22:36Z</time></trkpt><trkpt lat="43.54225862035207" lon="3.240588310901085"><ele>166.33333333333331</ele><time>2026-03-17T16:22:37Z</time></trkpt><trkpt lat="43.54245196508285" lon="3.2406310447749274"><ele>167.0</ele><time>2026-03-17T16:22:38Z</time></trkpt><trkpt lat="43.54265520461735" lon="3.2406782019990104"><ele>165.33333333333331</ele><time>2026-03-17T16:22:39Z</time></trkpt><trkpt lat="43.54286955376015" lon="3.240728864595989"><ele>163.66666666666666</ele><time>2026-03-17T16:22:40Z</time></trkpt><trkpt lat="43.54308487421293" lon="3.2407783557407654"><ele>162.0</ele><time>2026-03-17T16:22:41Z</time></trkpt><trkpt lat="43.54329791900057" lon="3.240820673682023"><ele>162.0</ele><time>2026-03-17T16:22:42Z</time></trkpt><trkpt lat="43.54349716229754" lon="3.2408617391933303"><ele>162.0</ele><time>2026-03-17T16:22:43Z</time></trkpt><trkpt lat="43.543684923723035" lon="3.240904296387768"><ele>162.0</ele><time>2026-03-17T16:22:44Z</time></trkpt><trkpt lat="43.54386326675508" lon="3.2409443071129447"><ele>163.0</ele><time>2026-03-17T16:22:45Z</time></trkpt><trkpt lat="43.54403015106483" lon="3.240985441052634"><ele>164.0</ele><time>2026-03-17T16:22:46Z</time></trkpt><trkpt lat="43.54415738226821" lon="3.241039238595287"><ele>165.0</ele><time>2026-03-17T16:22:47Z</time></trkpt><trkpt lat="43.544240373698045" lon="3.241107612015691"><ele>166.0</ele><time>2026-03-17T16:22:48Z</time></trkpt><trkpt lat="43.544310388054924" lon="3.2412087495940907"><ele>166.0</ele><time>2026-03-17T16:22:49Z</time></trkpt><trkpt lat="43.54436421376002" lon="3.2413376727557943"><ele>166.0</ele><time>2026-03-17T16:22:50Z</time></trkpt><trkpt lat="43.54441294659806" lon="3.2414728542269953"><ele>166.0</ele><time>2026-03-17T16:22:51Z</time></trkpt><trkpt lat="43.544470139847284" lon="3.2415859506290814"><ele>166.0</ele><time>2026-03-17T16:22:52Z</time></trkpt><trkpt lat="43.54454667071678" lon="3.241675232048895"><ele>166.0</ele><time>2026-03-17T16:22:53Z</time></trkpt><trkpt lat="43.54464088282354" lon="3.2417300727462854"><ele>165.0</ele><time>2026-03-17T16:22:54Z</time></trkpt><trkpt lat="43.54474477980672" lon="3.2417450686110754"><ele>164.0</ele><time>2026-03-17T16:22:55Z</time></trkpt><trkpt lat="43.54485464423785" lon="3.241717850939012"><ele>163.0</ele><time>2026-03-17T16:22:56Z</time></trkpt><trkpt lat="43.54497301501744" lon="3.2416643361964006"><ele>162.0</ele><time>2026-03-17T16:22:57Z</time></trkpt><trkpt lat="43.5450995385043" lon="3.2415886185171305"><ele>162.0</ele><time>2026-03-17T16:22:58Z</time></trkpt><trkpt lat="43.54522479719729" lon="3.2414915075488424"><ele>162.0</ele><time>2026-03-17T16:22:59Z</time></trkpt><trkpt lat="43.54535393952471" lon="3.2413837222477175"><ele>162.0</ele><time>2026-03-17T16:23:00Z</time></trkpt><trkpt lat="43.545496334869156" lon="3.2412953406396507"><ele>166.33333333333334</ele><time>2026-03-17T16:23:01Z</time></trkpt><trkpt lat="43.54565562488603" lon="3.2412359971175397"><ele>170.66666666666669</ele><time>2026-03-17T16:23:02Z</time></trkpt><trkpt lat="43.545817941213436" lon="3.241195695525576"><ele>175.0</ele><time>2026-03-17T16:23:03Z</time></trkpt><trkpt lat="43.54596716324953" lon="3.241163697881418"><ele>175.0</ele><time>2026-03-17T16:23:04Z</time></trkpt><trkpt lat="43.5461059468995" lon="3.241127078459121"><ele>175.0</ele><time>2026-03-17T16:23:05Z</time></trkpt><trkpt lat="43.546241173140956" lon="3.241065913487262"><ele>175.0</ele><time>2026-03-17T16:23:06Z</time></trkpt><trkpt lat="43.54637227031212" lon="3.2409739134738564"><ele>175.0</ele><time>2026-03-17T16:23:07Z</time></trkpt><trkpt lat="43.54649263917613" lon="3.2408538697140754"><ele>173.66666666666669</ele><time>2026-03-17T16:23:08Z</time></trkpt><trkpt lat="43.546603154181625" lon="3.2406992745466265"><ele>172.33333333333334</ele><time>2026-03-17T16:23:09.001Z</time></trkpt><trkpt lat="43.546708293564365" lon="3.2405159209379777"><ele>171.0</ele><time>2026-03-17T16:23:10.001Z</time></trkpt><trkpt lat="43.54681463612879" lon="3.240306532033"><ele>171.0</ele><time>2026-03-17T16:23:11.001Z</time></trkpt><trkpt lat="43.54692753725766" lon="3.2400962949351597"><ele>171.0</ele><time>2026-03-17T16:23:12.001Z</time></trkpt><trkpt lat="43.54704122645538" lon="3.239895338538377"><ele>171.0</ele><time>2026-03-17T16:23:13.001Z</time></trkpt><trkpt lat="43.547153466184945" lon="3.2397174167845835"><ele>169.66666666666666</ele><time>2026-03-17T16:23:14.001Z</time></trkpt><trkpt lat="43.54726734732547" lon="3.2395634702372127"><ele>168.33333333333331</ele><time>2026-03-17T16:23:15.001Z</time></trkpt><trkpt lat="43.547377793001175" lon="3.2394283147189125"><ele>167.0</ele><time>2026-03-17T16:23:16.001Z</time></trkpt><trkpt lat="43.54749350587385" lon="3.2393072655861084"><ele>167.0</ele><time>2026-03-17T16:23:17.001Z</time></trkpt><trkpt lat="43.54760744306753" lon="3.2392091428156853"><ele>167.0</ele><time>2026-03-17T16:23:18.001Z</time></trkpt><trkpt lat="43.54773585109413" lon="3.2391190642379923"><ele>167.0</ele><time>2026-03-17T16:23:19.001Z</time></trkpt><trkpt lat="43.54788096356928" lon="3.2390240436379285"><ele>167.0</ele><time>2026-03-17T16:23:20.001Z</time></trkpt><trkpt lat="43.54803155339927" lon="3.2389173556033786"><ele>168.25</ele><time>2026-03-17T16:23:21.001Z</time></trkpt><trkpt lat="43.54817235599324" lon="3.2388097461642342"><ele>169.5</ele><time>2026-03-17T16:23:22.001Z</time></trkpt><trkpt lat="43.54829535244864" lon="3.2386996077951835"><ele>170.75</ele><time>2026-03-17T16:23:23.001Z</time></trkpt><trkpt lat="43.54840294587407" lon="3.238576233840414"><ele>172.0</ele><time>2026-03-17T16:23:24.001Z</time></trkpt><trkpt lat="43.5484925182137" lon="3.2384443553401177"><ele>172.0</ele><time>2026-03-17T16:23:25.001Z</time></trkpt><trkpt lat="43.548566931324665" lon="3.238308164356047"><ele>172.0</ele><time>2026-03-17T16:23:26.001Z</time></trkpt><trkpt lat="43.54863594885063" lon="3.2381894219009295"><ele>172.0</ele><time>2026-03-17T16:23:27.001Z</time></trkpt><trkpt lat="43.548718404032265" lon="3.238117052303278"><ele>172.0</ele><time>2026-03-17T16:23:28.001Z</time></trkpt><trkpt lat="43.5488081396975" lon="3.2380962824069197"><ele>172.0</ele><time>2026-03-17T16:23:29.001Z</time></trkpt><trkpt lat="43.54889647250416" lon="3.23813274893852"><ele>171.66666666666669</ele><time>2026-03-17T16:23:30.001Z</time></trkpt><trkpt lat="43.54897862839408" lon="3.238143465091875"><ele>171.33333333333334</ele><time>2026-03-17T16:23:31.001Z</time></trkpt><trkpt lat="43.54904408571215" lon="3.2381778071873355"><ele>171.0</ele><time>2026-03-17T16:23:32.001Z</time></trkpt><trkpt lat="43.5491122639593" lon="3.2382036673309154"><ele>170.66666666666666</ele><time>2026-03-17T16:23:33.001Z</time></trkpt><trkpt lat="43.549191923699155" lon="3.2381936378988803"><ele>170.33333333333331</ele><time>2026-03-17T16:23:34.001Z</time></trkpt><trkpt lat="43.54926294819046" lon="3.238125520032198"><ele>170.0</ele><time>2026-03-17T16:23:35.001Z</time></trkpt><trkpt lat="43.54932116728318" lon="3.2380091528357386"><ele>171.0</ele><time>2026-03-17T16:23:36.001Z</time></trkpt><trkpt lat="43.54936682772379" lon="3.2378630952710825"><ele>172.0</ele><time>2026-03-17T16:23:37.001Z</time></trkpt><trkpt lat="43.54941948857418" lon="3.237696657705587"><ele>173.0</ele><time>2026-03-17T16:23:38.001Z</time></trkpt><trkpt lat="43.54948557477617" lon="3.237516843879876"><ele>174.0</ele><time>2026-03-17T16:23:39.001Z</time></trkpt><trkpt lat="43.5495650732015" lon="3.237320202385411"><ele>175.66666666666666</ele><time>2026-03-17T16:23:40.001Z</time></trkpt><trkpt lat="43.549648297780685" lon="3.2371223819196024"><ele>177.33333333333331</ele><time>2026-03-17T16:23:41.001Z</time></trkpt><trkpt lat="43.54972953590478" lon="3.2369221455676778"><ele>179.0</ele><time>2026-03-17T16:23:42.001Z</time></trkpt><trkpt lat="43.54981790165325" lon="3.2367000299781945"><ele>178.66666666666666</ele><time>2026-03-17T16:23:43.001Z</time></trkpt><trkpt lat="43.5499118025297" lon="3.236468804423983"><ele>178.33333333333334</ele><time>2026-03-17T16:23:44.001Z</time></trkpt><trkpt lat="43.550012275933504" lon="3.2362297860401257"><ele>178.0</ele><time>2026-03-17T16:23:45.001Z</time></trkpt><trkpt lat="43.5501082070636" lon="3.235992795954627"><ele>178.0</ele><time>2026-03-17T16:23:46.001Z</time></trkpt><trkpt lat="43.55019152203379" lon="3.235777195373127"><ele>178.0</ele><time>2026-03-17T16:23:47.001Z</time></trkpt><trkpt lat="43.55027347926795" lon="3.235582843392467"><ele>178.0</ele><time>2026-03-17T16:23:48.001Z</time></trkpt><trkpt lat="43.55036366643507" lon="3.2354103080107914"><ele>182.33333333333334</ele><time>2026-03-17T16:23:49.001Z</time></trkpt><trkpt lat="43.55046551300444" lon="3.2352388363681377"><ele>186.66666666666666</ele><time>2026-03-17T16:23:50.001Z</time></trkpt><trkpt lat="43.55056795635879" lon="3.2350731916592625"><ele>191.0</ele><time>2026-03-17T16:23:51.001Z</time></trkpt><trkpt lat="43.550659343213546" lon="3.234921632609975"><ele>189.0</ele><time>2026-03-17T16:23:52.001Z</time></trkpt><trkpt lat="43.55074036760626" lon="3.2347835582778712"><ele>187.0</ele><time>2026-03-17T16:23:53.001Z</time></trkpt><trkpt lat="43.55081661663302" lon="3.234660846854542"><ele>185.0</ele><time>2026-03-17T16:23:54.001Z</time></trkpt><trkpt lat="43.55090127762393" lon="3.234537822866867"><ele>183.0</ele><time>2026-03-17T16:23:55.001Z</time></trkpt><trkpt lat="43.55100131558096" lon="3.2344215127821605"><ele>183.0</ele><time>2026-03-17T16:23:56.001Z</time></trkpt><trkpt lat="43.55110766231156" lon="3.2343079608845673"><ele>183.0</ele><time>2026-03-17T16:23:57.001Z</time></trkpt><trkpt lat="43.55120855367603" lon="3.2341990368909643"><ele>183.0</ele><time>2026-03-17T16:23:58.001Z</time></trkpt><trkpt lat="43.55130245361823" lon="3.2341115604210473"><ele>183.0</ele><time>2026-03-17T16:23:59.001Z</time></trkpt><trkpt lat="43.55138869439355" lon="3.2340520849263643"><ele>185.0</ele><time>2026-03-17T16:24:00.001Z</time></trkpt><trkpt lat="43.55147425217778" lon="3.23401385164109"><ele>187.0</ele><time>2026-03-17T16:24:01.001Z</time></trkpt><trkpt lat="43.55156121733195" lon="3.2340055638180827"><ele>189.0</ele><time>2026-03-17T16:24:02.001Z</time></trkpt><trkpt lat="43.55165658607334" lon="3.2340297956885227"><ele>191.0</ele><time>2026-03-17T16:24:03.001Z</time></trkpt><trkpt lat="43.55176720560126" lon="3.2340711168521854"><ele>193.0</ele><time>2026-03-17T16:24:04.001Z</time></trkpt><trkpt lat="43.55188500420807" lon="3.2341095557705097"><ele>193.0</ele><time>2026-03-17T16:24:05.001Z</time></trkpt><trkpt lat="43.552013579352" lon="3.234141460071043"><ele>193.0</ele><time>2026-03-17T16:24:06.001Z</time></trkpt><trkpt lat="43.55215368908608" lon="3.2341714837964037"><ele>193.0</ele><time>2026-03-17T16:24:07.001Z</time></trkpt><trkpt lat="43.55229764380263" lon="3.234214558231634"><ele>193.0</ele><time>2026-03-17T16:24:08.001Z</time></trkpt><trkpt lat="43.5524420887571" lon="3.2342704509149027"><ele>194.33333333333331</ele><time>2026-03-17T16:24:09.001Z</time></trkpt><trkpt lat="43.552586523802624" lon="3.2343469732185026"><ele>195.66666666666669</ele><time>2026-03-17T16:24:10.001Z</time></trkpt><trkpt lat="43.55273051575187" lon="3.234432827523596"><ele>197.0</ele><time>2026-03-17T16:24:11.001Z</time></trkpt><trkpt lat="43.55287176606808" lon="3.2345039250619028"><ele>196.0</ele><time>2026-03-17T16:24:12.001Z</time></trkpt><trkpt lat="43.5530163087953" lon="3.2345471950188984"><ele>195.0</ele><time>2026-03-17T16:24:13.001Z</time></trkpt><trkpt lat="43.55314355345547" lon="3.2345719451118953"><ele>194.0</ele><time>2026-03-17T16:24:14.001Z</time></trkpt><trkpt lat="43.55324812484669" lon="3.234611566474925"><ele>193.0</ele><time>2026-03-17T16:24:15.001Z</time></trkpt><trkpt lat="43.55334588993915" lon="3.234670162970371"><ele>193.0</ele><time>2026-03-17T16:24:16.001Z</time></trkpt><trkpt lat="43.553438511269775" lon="3.2347617504949002"><ele>193.0</ele><time>2026-03-17T16:24:17.001Z</time></trkpt><trkpt lat="43.553525996537275" lon="3.2348740567143444"><ele>193.0</ele><time>2026-03-17T16:24:18.001Z</time></trkpt><trkpt lat="43.553613884192984" lon="3.2349869986786954"><ele>193.0</ele><time>2026-03-17T16:24:19.001Z</time></trkpt><trkpt lat="43.553721453222096" lon="3.2350761453133603"><ele>195.5</ele><time>2026-03-17T16:24:20Z</time></trkpt><trkpt lat="43.55384923672853" lon="3.2351390000395086"><ele>198.0</ele><time>2026-03-17T16:24:21Z</time></trkpt><trkpt lat="43.553987021497484" lon="3.235196457944916"><ele>200.5</ele><time>2026-03-17T16:24:22Z</time></trkpt><trkpt lat="43.55411686214228" lon="3.235277084375948"><ele>203.0</ele><time>2026-03-17T16:24:23Z</time></trkpt><trkpt lat="43.55423701551296" lon="3.2353877487495746"><ele>203.0</ele><time>2026-03-17T16:24:24Z</time></trkpt><trkpt lat="43.55435449210716" lon="3.235511814702669"><ele>203.0</ele><time>2026-03-17T16:24:25Z</time></trkpt><trkpt lat="43.55447570370081" lon="3.235636611401837"><ele>203.0</ele><time>2026-03-17T16:24:26Z</time></trkpt><trkpt lat="43.554592839594164" lon="3.2357625882590577"><ele>203.0</ele><time>2026-03-17T16:24:27Z</time></trkpt><trkpt lat="43.554705123289686" lon="3.235862631952038"><ele>204.5</ele><time>2026-03-17T16:24:28Z</time></trkpt><trkpt lat="43.55482067675353" lon="3.2359314899044525"><ele>206.0</ele><time>2026-03-17T16:24:29Z</time></trkpt><trkpt lat="43.554946428497544" lon="3.2359888582931773"><ele>207.5</ele><time>2026-03-17T16:24:30Z</time></trkpt><trkpt lat="43.55508520591395" lon="3.2360463846530783"><ele>209.0</ele><time>2026-03-17T16:24:31Z</time></trkpt><trkpt lat="43.555221446477624" lon="3.2361094257144947"><ele>209.0</ele><time>2026-03-17T16:24:32Z</time></trkpt><trkpt lat="43.55534005385152" lon="3.236176696439783"><ele>209.0</ele><time>2026-03-17T16:24:33Z</time></trkpt><trkpt lat="43.55543966318569" lon="3.236257094531403"><ele>209.0</ele><time>2026-03-17T16:24:34Z</time></trkpt><trkpt lat="43.555515795624494" lon="3.236364534764128"><ele>209.0</ele><time>2026-03-17T16:24:35Z</time></trkpt><trkpt lat="43.55555978087962" lon="3.2365129225769396"><ele>209.5</ele><time>2026-03-17T16:24:36Z</time></trkpt><trkpt lat="43.55562087676185" lon="3.236672037338584"><ele>210.0</ele><time>2026-03-17T16:24:37Z</time></trkpt><trkpt lat="43.55566459520605" lon="3.236856663402263"><ele>210.5</ele><time>2026-03-17T16:24:38Z</time></trkpt><trkpt lat="43.55570273041011" lon="3.23702057011083"><ele>211.0</ele><time>2026-03-17T16:24:39Z</time></trkpt><trkpt lat="43.55570391809957" lon="3.2371778170472743"><ele>214.5</ele><time>2026-03-17T16:24:40Z</time></trkpt><trkpt lat="43.55569997218999" lon="3.2373262337890325"><ele>218.0</ele><time>2026-03-17T16:24:41Z</time></trkpt><trkpt lat="43.555675582426574" lon="3.23748359143779"><ele>221.5</ele><time>2026-03-17T16:24:42Z</time></trkpt><trkpt lat="43.55564403176501" lon="3.237656688910531"><ele>225.0</ele><time>2026-03-17T16:24:43Z</time></trkpt><trkpt lat="43.55562758413811" lon="3.2378467112542153"><ele>225.0</ele><time>2026-03-17T16:24:44Z</time></trkpt><trkpt lat="43.55565157186657" lon="3.2380623901652656"><ele>225.0</ele><time>2026-03-17T16:24:45Z</time></trkpt><trkpt lat="43.555652086936995" lon="3.238298256387692"><ele>225.0</ele><time>2026-03-17T16:24:46Z</time></trkpt><trkpt lat="43.55566854313077" lon="3.238519993959765"><ele>226.2</ele><time>2026-03-17T16:24:47Z</time></trkpt><trkpt lat="43.55570072520576" lon="3.23870279457835"><ele>227.4</ele><time>2026-03-17T16:24:48Z</time></trkpt><trkpt lat="43.55572207517987" lon="3.2388468163568795"><ele>228.60000000000002</ele><time>2026-03-17T16:24:49Z</time></trkpt><trkpt lat="43.555760172955296" lon="3.2389500255029287"><ele>229.8</ele><time>2026-03-17T16:24:50Z</time></trkpt><trkpt lat="43.555817752304186" lon="3.239029770759205"><ele>231.0</ele><time>2026-03-17T16:24:51Z</time></trkpt><trkpt lat="43.55589810551532" lon="3.2390781871314247"><ele>231.0</ele><time>2026-03-17T16:24:52Z</time></trkpt><trkpt lat="43.55598515267799" lon="3.239073851989656"><ele>231.0</ele><time>2026-03-17T16:24:53Z</time></trkpt><trkpt lat="43.55606715220148" lon="3.2390237740421486"><ele>231.0</ele><time>2026-03-17T16:24:54Z</time></trkpt><trkpt lat="43.55613938813219" lon="3.2389448732013864"><ele>231.0</ele><time>2026-03-17T16:24:55Z</time></trkpt><trkpt lat="43.55618127023192" lon="3.2388415429323767"><ele>231.0</ele><time>2026-03-17T16:24:56Z</time></trkpt><trkpt lat="43.556186068338434" lon="3.2387289312798346"><ele>231.0</ele><time>2026-03-17T16:24:57Z</time></trkpt><trkpt lat="43.55616599115465" lon="3.2386152881590418"><ele>231.0</ele><time>2026-03-17T16:24:58Z</time></trkpt><trkpt lat="43.556144365502234" lon="3.2384955840045238"><ele>231.0</ele><time>2026-03-17T16:24:59Z</time></trkpt><trkpt lat="43.556143942810635" lon="3.2383786841713267"><ele>231.0</ele><time>2026-03-17T16:25:00Z</time></trkpt><trkpt lat="43.5561627029063" lon="3.2382673096039727"><ele>231.0</ele><time>2026-03-17T16:25:01Z</time></trkpt><trkpt lat="43.55621070968619" lon="3.2381767282128067"><ele>231.0</ele><time>2026-03-17T16:25:02Z</time></trkpt><trkpt lat="43.55628210503948" lon="3.238120861813042"><ele>231.0</ele><time>2026-03-17T16:25:03Z</time></trkpt><trkpt lat="43.55636622827837" lon="3.238105710187016"><ele>231.20000000000002</ele><time>2026-03-17T16:25:04Z</time></trkpt><trkpt lat="43.55645908519184" lon="3.238129692147248"><ele>231.40000000000003</ele><time>2026-03-17T16:25:05Z</time></trkpt><trkpt lat="43.55655670805775" lon="3.238183927563233"><ele>231.6</ele><time>2026-03-17T16:25:06Z</time></trkpt><trkpt lat="43.55665515564865" lon="3.238250708125269"><ele>231.8</ele><time>2026-03-17T16:25:07Z</time></trkpt><trkpt lat="43.55674914131699" lon="3.238339240006354"><ele>232.0</ele><time>2026-03-17T16:25:08Z</time></trkpt><trkpt lat="43.556836466025175" lon="3.2384495514231157"><ele>232.0</ele><time>2026-03-17T16:25:09Z</time></trkpt><trkpt lat="43.5569154217503" lon="3.238573095245092"><ele>232.0</ele><time>2026-03-17T16:25:10.001Z</time></trkpt><trkpt lat="43.55697551092316" lon="3.2387054913105824"><ele>232.0</ele><time>2026-03-17T16:25:11.001Z</time></trkpt><trkpt lat="43.55701306614557" lon="3.238834921108247"><ele>232.0</ele><time>2026-03-17T16:25:12.001Z</time></trkpt><trkpt lat="43.557027614123" lon="3.2389719859640262"><ele>232.0</ele><time>2026-03-17T16:25:13.001Z</time></trkpt><trkpt lat="43.55698606662966" lon="3.2390980626986967"><ele>233.5</ele><time>2026-03-17T16:25:14.001Z</time></trkpt><trkpt lat="43.556944001736575" lon="3.239229897008194"><ele>235.0</ele><time>2026-03-17T16:25:15.001Z</time></trkpt><trkpt lat="43.55688721678267" lon="3.239372847196013"><ele>236.5</ele><time>2026-03-17T16:25:16.001Z</time></trkpt><trkpt lat="43.556815255088814" lon="3.239520663834514"><ele>238.0</ele><time>2026-03-17T16:25:17.001Z</time></trkpt><trkpt lat="43.55676800626078" lon="3.2396815049584466"><ele>238.0</ele><time>2026-03-17T16:25:18.001Z</time></trkpt><trkpt lat="43.55671063583159" lon="3.239796759356967"><ele>238.0</ele><time>2026-03-17T16:25:19.001Z</time></trkpt><trkpt lat="43.556689302132106" lon="3.239906547715652"><ele>238.0</ele><time>2026-03-17T16:25:20.001Z</time></trkpt><trkpt lat="43.5567066305632" lon="3.240028783932946"><ele>238.0</ele><time>2026-03-17T16:25:21.001Z</time></trkpt><trkpt lat="43.5567617641696" lon="3.240145684036409"><ele>238.0</ele><time>2026-03-17T16:25:22.001Z</time></trkpt><trkpt lat="43.556850269354605" lon="3.240236153721536"><ele>239.25</ele><time>2026-03-17T16:25:23.001Z</time></trkpt><trkpt lat="43.55694108146397" lon="3.240330921815456"><ele>240.5</ele><time>2026-03-17T16:25:24.001Z</time></trkpt><trkpt lat="43.55704582030678" lon="3.2404264802482197"><ele>241.75</ele><time>2026-03-17T16:25:25.001Z</time></trkpt><trkpt lat="43.557154371073295" lon="3.24053245899635"><ele>243.0</ele><time>2026-03-17T16:25:26.001Z</time></trkpt><trkpt lat="43.557265822710036" lon="3.240654385338453"><ele>245.0</ele><time>2026-03-17T16:25:27.001Z</time></trkpt><trkpt lat="43.55736880818821" lon="3.240791099819167"><ele>247.0</ele><time>2026-03-17T16:25:28.001Z</time></trkpt><trkpt lat="43.55745069165289" lon="3.2409434116397717"><ele>249.0</ele><time>2026-03-17T16:25:29.001Z</time></trkpt><trkpt lat="43.55750612455704" lon="3.2410866575574264"><ele>251.0</ele><time>2026-03-17T16:25:30.001Z</time></trkpt><trkpt lat="43.55755728627436" lon="3.2412171296330783"><ele>251.0</ele><time>2026-03-17T16:25:31.001Z</time></trkpt><trkpt lat="43.55762947834558" lon="3.241328850023696"><ele>251.0</ele><time>2026-03-17T16:25:32.001Z</time></trkpt><trkpt lat="43.55772920666473" lon="3.241416292389156"><ele>251.0</ele><time>2026-03-17T16:25:33.001Z</time></trkpt><trkpt lat="43.55784362008047" lon="3.241471263751896"><ele>251.0</ele><time>2026-03-17T16:25:34.001Z</time></trkpt><trkpt lat="43.557960025624304" lon="3.2414984184520015"><ele>251.60000000000002</ele><time>2026-03-17T16:25:35.001Z</time></trkpt><trkpt lat="43.558041662630124" lon="3.241541101866159"><ele>252.20000000000002</ele><time>2026-03-17T16:25:36.001Z</time></trkpt><trkpt lat="43.55811005299398" lon="3.241607256734674"><ele>252.79999999999998</ele><time>2026-03-17T16:25:37.001Z</time></trkpt><trkpt lat="43.55817511740017" lon="3.241706352054218"><ele>253.39999999999998</ele><time>2026-03-17T16:25:38.001Z</time></trkpt><trkpt lat="43.55824341760556" lon="3.2418263864040764"><ele>254.0</ele><time>2026-03-17T16:25:39.001Z</time></trkpt><trkpt lat="43.55833316617973" lon="3.2419349927147754"><ele>254.0</ele><time>2026-03-17T16:25:40.001Z</time></trkpt><trkpt lat="43.55845595361353" lon="3.24202144078692"><ele>254.0</ele><time>2026-03-17T16:25:41.001Z</time></trkpt><trkpt lat="43.55858063275288" lon="3.242099173725646"><ele>254.0</ele><time>2026-03-17T16:25:42.001Z</time></trkpt><trkpt lat="43.55868128968295" lon="3.242184692465101"><ele>254.0</ele><time>2026-03-17T16:25:43.001Z</time></trkpt><trkpt lat="43.55874388514985" lon="3.242319735050322"><ele>255.75</ele><time>2026-03-17T16:25:44.001Z</time></trkpt><trkpt lat="43.55880675923702" lon="3.2424718391474454"><ele>257.5</ele><time>2026-03-17T16:25:45.001Z</time></trkpt><trkpt lat="43.55886526922873" lon="3.2426387522116986"><ele>259.25</ele><time>2026-03-17T16:25:46.001Z</time></trkpt><trkpt lat="43.55892894379368" lon="3.2427864829677815"><ele>261.0</ele><time>2026-03-17T16:25:47.001Z</time></trkpt><trkpt lat="43.558971276551645" lon="3.2429216263251295"><ele>261.0</ele><time>2026-03-17T16:25:48.001Z</time></trkpt><trkpt lat="43.55901138974997" lon="3.2430614451663304"><ele>261.0</ele><time>2026-03-17T16:25:49.001Z</time></trkpt><trkpt lat="43.55910287260961" lon="3.243180068123015"><ele>261.0</ele><time>2026-03-17T16:25:50.001Z</time></trkpt><trkpt lat="43.55918872780401" lon="3.243318386979667"><ele>261.0</ele><time>2026-03-17T16:25:51.001Z</time></trkpt><trkpt lat="43.559289677353405" lon="3.2434762771388423"><ele>258.6666666666667</ele><time>2026-03-17T16:25:52.001Z</time></trkpt><trkpt lat="43.55940845214998" lon="3.2436356144578893"><ele>256.33333333333337</ele><time>2026-03-17T16:25:53.001Z</time></trkpt><trkpt lat="43.55952177766556" lon="3.243788007730681"><ele>254.0</ele><time>2026-03-17T16:25:54.001Z</time></trkpt><trkpt lat="43.55963666728122" lon="3.2439547421841306"><ele>256.0</ele><time>2026-03-17T16:25:55.001Z</time></trkpt><trkpt lat="43.5597800275539" lon="3.244089328646187"><ele>258.0</ele><time>2026-03-17T16:25:56.001Z</time></trkpt><trkpt lat="43.55992027650523" lon="3.2442352840358044"><ele>260.0</ele><time>2026-03-17T16:25:57.001Z</time></trkpt><trkpt lat="43.5600680939098" lon="3.2443720588542533"><ele>260.0</ele><time>2026-03-17T16:25:58.001Z</time></trkpt><trkpt lat="43.56022613646815" lon="3.2444969395871217"><ele>260.0</ele><time>2026-03-17T16:25:59.001Z</time></trkpt><trkpt lat="43.56038394289607" lon="3.24461921606516"><ele>260.0</ele><time>2026-03-17T16:26:00.001Z</time></trkpt><trkpt lat="43.56053017326318" lon="3.2447421881129914"><ele>259.25</ele><time>2026-03-17T16:26:01.001Z</time></trkpt><trkpt lat="43.56066135508446" lon="3.2448508607989677"><ele>258.5</ele><time>2026-03-17T16:26:02.001Z</time></trkpt><trkpt lat="43.56078717232084" lon="3.244936224543559"><ele>257.75</ele><time>2026-03-17T16:26:03.001Z</time></trkpt><trkpt lat="43.56092638897694" lon="3.244998232225144"><ele>257.0</ele><time>2026-03-17T16:26:04.001Z</time></trkpt><trkpt lat="43.561079581531914" lon="3.245038958368762"><ele>259.33333333333337</ele><time>2026-03-17T16:26:05.001Z</time></trkpt><trkpt lat="43.56124359308277" lon="3.245072660671472"><ele>261.6666666666667</ele><time>2026-03-17T16:26:06.001Z</time></trkpt><trkpt lat="43.561411362322254" lon="3.245108745097577"><ele>264.0</ele><time>2026-03-17T16:26:07.001Z</time></trkpt><trkpt lat="43.561583913972804" lon="3.245149411025212"><ele>264.0</ele><time>2026-03-17T16:26:08.001Z</time></trkpt><trkpt lat="43.56176570077582" lon="3.2452096074475767"><ele>264.0</ele><time>2026-03-17T16:26:09.001Z</time></trkpt><trkpt lat="43.56194029104321" lon="3.2452718160828686"><ele>264.0</ele><time>2026-03-17T16:26:10.001Z</time></trkpt><trkpt lat="43.562104210302614" lon="3.2453160878287024"><ele>265.75</ele><time>2026-03-17T16:26:11.001Z</time></trkpt><trkpt lat="43.56224866156944" lon="3.245363097029074"><ele>267.5</ele><time>2026-03-17T16:26:12.001Z</time></trkpt><trkpt lat="43.56238880904531" lon="3.2453289957819718"><ele>269.25</ele><time>2026-03-17T16:26:13.001Z</time></trkpt><trkpt lat="43.56251662329898" lon="3.245288678854853"><ele>271.0</ele><time>2026-03-17T16:26:14.001Z</time></trkpt><trkpt lat="43.56262522335259" lon="3.2452414330986623"><ele>271.0</ele><time>2026-03-17T16:26:15.001Z</time></trkpt><trkpt lat="43.5627031567637" lon="3.2452562963233476"><ele>271.0</ele><time>2026-03-17T16:26:16.001Z</time></trkpt><trkpt lat="43.56280944850415" lon="3.2453388527366376"><ele>271.0</ele><time>2026-03-17T16:26:18.001Z</time></trkpt><trkpt lat="43.562832569339164" lon="3.2454752513619023"><ele>271.0</ele><time>2026-03-17T16:26:19.001Z</time></trkpt><trkpt lat="43.562878303647906" lon="3.24561689343156"><ele>271.0</ele><time>2026-03-17T16:26:20.001Z</time></trkpt><trkpt lat="43.562955369698614" lon="3.2457446008824196"><ele>271.75</ele><time>2026-03-17T16:26:21.001Z</time></trkpt><trkpt lat="43.563041437900026" lon="3.24587629188771"><ele>272.5</ele><time>2026-03-17T16:26:22.001Z</time></trkpt><trkpt lat="43.56314070413517" lon="3.246001393002681"><ele>273.25</ele><time>2026-03-17T16:26:23.001Z</time></trkpt><trkpt lat="43.56323967497258" lon="3.2461050720929507"><ele>274.0</ele><time>2026-03-17T16:26:24.001Z</time></trkpt><trkpt lat="43.56333490081623" lon="3.246179550660111"><ele>274.0</ele><time>2026-03-17T16:26:25.001Z</time></trkpt><trkpt lat="43.56344549894444" lon="3.246238083674608"><ele>274.0</ele><time>2026-03-17T16:26:26Z</time></trkpt><trkpt lat="43.56357303927954" lon="3.2462757835437075"><ele>274.0</ele><time>2026-03-17T16:26:27Z</time></trkpt><trkpt lat="43.563709054248285" lon="3.2463014880997947"><ele>274.0</ele><time>2026-03-17T16:26:28Z</time></trkpt><trkpt lat="43.563855879891904" lon="3.2463125548046268"><ele>275.0</ele><time>2026-03-17T16:26:29Z</time></trkpt><trkpt lat="43.56400306169538" lon="3.24633769530886"><ele>276.0</ele><time>2026-03-17T16:26:30Z</time></trkpt><trkpt lat="43.564147418964275" lon="3.246348854599652"><ele>277.0</ele><time>2026-03-17T16:26:31Z</time></trkpt><trkpt lat="43.56427854160506" lon="3.2463484619011393"><ele>278.0</ele><time>2026-03-17T16:26:32Z</time></trkpt><trkpt lat="43.56439558563899" lon="3.246340007553363"><ele>278.0</ele><time>2026-03-17T16:26:33Z</time></trkpt><trkpt lat="43.564503180635356" lon="3.246339081281232"><ele>278.0</ele><time>2026-03-17T16:26:34Z</time></trkpt><trkpt lat="43.56460289355239" lon="3.246340575989411"><ele>278.0</ele><time>2026-03-17T16:26:35Z</time></trkpt><trkpt lat="43.564689615679924" lon="3.2463470779130503"><ele>278.0</ele><time>2026-03-17T16:26:36Z</time></trkpt><trkpt lat="43.564773158312136" lon="3.246351091732054"><ele>278.0</ele><time>2026-03-17T16:26:37Z</time></trkpt><trkpt lat="43.5648461687812" lon="3.246355892546081"><ele>277.6666666666667</ele><time>2026-03-17T16:26:38Z</time></trkpt><trkpt lat="43.564921882090275" lon="3.246356642437831"><ele>277.33333333333337</ele><time>2026-03-17T16:26:39Z</time></trkpt><trkpt lat="43.565000115663004" lon="3.2463440648372206"><ele>277.0</ele><time>2026-03-17T16:26:40Z</time></trkpt><trkpt lat="43.56508177569935" lon="3.2463185237018877"><ele>276.6666666666667</ele><time>2026-03-17T16:26:41Z</time></trkpt><trkpt lat="43.5651616354056" lon="3.2462725540118766"><ele>276.3333333333333</ele><time>2026-03-17T16:26:42Z</time></trkpt><trkpt lat="43.56523402716164" lon="3.2462045613147423"><ele>276.0</ele><time>2026-03-17T16:26:43Z</time></trkpt><trkpt lat="43.56530211215055" lon="3.246134559148114"><ele>275.40000000000003</ele><time>2026-03-17T16:26:44Z</time></trkpt><trkpt lat="43.565374409383864" lon="3.2460636630958404"><ele>274.8</ele><time>2026-03-17T16:26:45Z</time></trkpt><trkpt lat="43.56545113772675" lon="3.245994946958521"><ele>274.20000000000005</ele><time>2026-03-17T16:26:46Z</time></trkpt><trkpt lat="43.56553032905525" lon="3.245920808316953"><ele>273.6</ele><time>2026-03-17T16:26:47Z</time></trkpt><trkpt lat="43.56561320883184" lon="3.2458471365726287"><ele>273.0</ele><time>2026-03-17T16:26:48Z</time></trkpt><trkpt lat="43.565696804602304" lon="3.245772135031094"><ele>273.0</ele><time>2026-03-17T16:26:49Z</time></trkpt><trkpt lat="43.56577941393212" lon="3.24570034307924"><ele>273.0</ele><time>2026-03-17T16:26:50Z</time></trkpt><trkpt lat="43.565852026834285" lon="3.245640708342773"><ele>273.0</ele><time>2026-03-17T16:26:51Z</time></trkpt><trkpt lat="43.56591916650606" lon="3.2455822543147703"><ele>273.0</ele><time>2026-03-17T16:26:52Z</time></trkpt><trkpt lat="43.56598261755711" lon="3.2455082358534066"><ele>273.0</ele><time>2026-03-17T16:26:53Z</time></trkpt><trkpt lat="43.56605402718679" lon="3.2454529567108987"><ele>273.0</ele><time>2026-03-17T16:26:54Z</time></trkpt><trkpt lat="43.566131826746755" lon="3.2454333887469877"><ele>274.1666666666667</ele><time>2026-03-17T16:26:55Z</time></trkpt><trkpt lat="43.56621501349775" lon="3.2454265181927613"><ele>275.3333333333333</ele><time>2026-03-17T16:26:56Z</time></trkpt><trkpt lat="43.5662996021012" lon="3.245414223266507"><ele>276.5</ele><time>2026-03-17T16:26:57Z</time></trkpt><trkpt lat="43.5663751599098" lon="3.245396499186242"><ele>277.66666666666663</ele><time>2026-03-17T16:26:58Z</time></trkpt><trkpt lat="43.5664597454922" lon="3.2454015801330662"><ele>278.8333333333333</ele><time>2026-03-17T16:26:59Z</time></trkpt><trkpt lat="43.56652271794655" lon="3.2454218132450787"><ele>280.0</ele><time>2026-03-17T16:27:00Z</time></trkpt><trkpt lat="43.566597679328076" lon="3.245538598338949"><ele>279.3333333333333</ele><time>2026-03-17T16:27:02Z</time></trkpt><trkpt lat="43.566653621660315" lon="3.24567316485944"><ele>278.66666666666663</ele><time>2026-03-17T16:27:04Z</time></trkpt><trkpt lat="43.56668101751215" lon="3.2457567895041572"><ele>278.0</ele><time>2026-03-17T16:27:05Z</time></trkpt><trkpt lat="43.5667079003591" lon="3.245844567784441"><ele>277.3333333333333</ele><time>2026-03-17T16:27:06Z</time></trkpt><trkpt lat="43.56675238373158" lon="3.245932091832841"><ele>276.6666666666667</ele><time>2026-03-17T16:27:07Z</time></trkpt><trkpt lat="43.56680365377032" lon="3.246026248358987"><ele>276.0</ele><time>2026-03-17T16:27:08Z</time></trkpt><trkpt lat="43.56689351702307" lon="3.2460530388178928"><ele>276.0</ele><time>2026-03-17T16:27:09Z</time></trkpt><trkpt lat="43.56697503361089" lon="3.246112384039566"><ele>276.0</ele><time>2026-03-17T16:27:10Z</time></trkpt><trkpt lat="43.56704977466459" lon="3.2461483322330964"><ele>276.0</ele><time>2026-03-17T16:27:11Z</time></trkpt><trkpt lat="43.567114855596756" lon="3.2461721899312166"><ele>276.0</ele><time>2026-03-17T16:27:12Z</time></trkpt><trkpt lat="43.5671537653509" lon="3.246243708430613"><ele>276.0</ele><time>2026-03-17T16:27:13Z</time></trkpt><trkpt lat="43.56715910793048" lon="3.246342416394555"><ele>276.0</ele><time>2026-03-17T16:27:14Z</time></trkpt><trkpt lat="43.56712201349321" lon="3.246431442933835"><ele>275.2</ele><time>2026-03-17T16:27:15Z</time></trkpt><trkpt lat="43.567062833193134" lon="3.2465168714961314"><ele>274.40000000000003</ele><time>2026-03-17T16:27:16Z</time></trkpt><trkpt lat="43.56697721322138" lon="3.2465796417519135"><ele>273.6</ele><time>2026-03-17T16:27:17Z</time></trkpt><trkpt lat="43.56688424685285" lon="3.2466602556477295"><ele>272.8</ele><time>2026-03-17T16:27:18Z</time></trkpt><trkpt lat="43.56679785529247" lon="3.2467578033718905"><ele>272.0</ele><time>2026-03-17T16:27:19Z</time></trkpt><trkpt lat="43.56672203523818" lon="3.246861369078994"><ele>272.0</ele><time>2026-03-17T16:27:20Z</time></trkpt><trkpt lat="43.56665883596728" lon="3.2469717949555563"><ele>272.0</ele><time>2026-03-17T16:27:21Z</time></trkpt><trkpt lat="43.56661870397016" lon="3.24710749589692"><ele>272.0</ele><time>2026-03-17T16:27:22Z</time></trkpt><trkpt lat="43.56660142902888" lon="3.2472577395987714"><ele>272.0</ele><time>2026-03-17T16:27:23Z</time></trkpt><trkpt lat="43.56660756959594" lon="3.2474064859992966"><ele>272.0</ele><time>2026-03-17T16:27:24Z</time></trkpt><trkpt lat="43.56664150720712" lon="3.2475536555743383"><ele>271.6</ele><time>2026-03-17T16:27:25Z</time></trkpt><trkpt lat="43.56669645104796" lon="3.247680224098755"><ele>271.2</ele><time>2026-03-17T16:27:26.001Z</time></trkpt><trkpt lat="43.566753902408735" lon="3.247785623075213"><ele>270.8</ele><time>2026-03-17T16:27:27.001Z</time></trkpt><trkpt lat="43.5668319850821" lon="3.247868333875787"><ele>270.4</ele><time>2026-03-17T16:27:28.001Z</time></trkpt><trkpt lat="43.56692026931528" lon="3.247953557986313"><ele>270.0</ele><time>2026-03-17T16:27:29.001Z</time></trkpt><trkpt lat="43.56701122642501" lon="3.248049683847349"><ele>269.5</ele><time>2026-03-17T16:27:30.001Z</time></trkpt><trkpt lat="43.56710482072284" lon="3.2481382550074342"><ele>269.0</ele><time>2026-03-17T16:27:31.001Z</time></trkpt><trkpt lat="43.56720174473777" lon="3.248208284223809"><ele>268.5</ele><time>2026-03-17T16:27:32.001Z</time></trkpt><trkpt lat="43.56730911994983" lon="3.2482548003755456"><ele>268.0</ele><time>2026-03-17T16:27:33.001Z</time></trkpt><trkpt lat="43.56742563543855" lon="3.2482835262580343"><ele>268.0</ele><time>2026-03-17T16:27:34.001Z</time></trkpt><trkpt lat="43.56754329139699" lon="3.248304369084681"><ele>268.0</ele><time>2026-03-17T16:27:35.001Z</time></trkpt><trkpt lat="43.567664469885074" lon="3.2483233499257658"><ele>268.0</ele><time>2026-03-17T16:27:36.001Z</time></trkpt><trkpt lat="43.56778416336536" lon="3.2483404643804"><ele>268.0</ele><time>2026-03-17T16:27:37.001Z</time></trkpt><trkpt lat="43.56788477960802" lon="3.2483543907863264"><ele>270.2</ele><time>2026-03-17T16:27:38.001Z</time></trkpt><trkpt lat="43.567965848149846" lon="3.2483793728687274"><ele>272.4</ele><time>2026-03-17T16:27:39.001Z</time></trkpt><trkpt lat="43.568052544991914" lon="3.2484944817131636"><ele>274.59999999999997</ele><time>2026-03-17T16:27:41.001Z</time></trkpt><trkpt lat="43.568052446558994" lon="3.2485994721276388"><ele>276.8</ele><time>2026-03-17T16:27:42.001Z</time></trkpt><trkpt lat="43.5680636258436" lon="3.2487145342090726"><ele>279.0</ele><time>2026-03-17T16:27:43.001Z</time></trkpt><trkpt lat="43.568072646316125" lon="3.248842996739988"><ele>279.0</ele><time>2026-03-17T16:27:44.001Z</time></trkpt><trkpt lat="43.56807886029802" lon="3.2489584105967566"><ele>279.0</ele><time>2026-03-17T16:27:45.001Z</time></trkpt><trkpt lat="43.56805173194804" lon="3.2491158765181316"><ele>279.0</ele><time>2026-03-17T16:27:47.001Z</time></trkpt><trkpt lat="43.568017093218884" lon="3.2491988643104004"><ele>279.0</ele><time>2026-03-17T16:27:48.001Z</time></trkpt><trkpt lat="43.56794588378049" lon="3.249261597095254"><ele>279.0</ele><time>2026-03-17T16:27:49.001Z</time></trkpt><trkpt lat="43.567873310223504" lon="3.2493252950042577"><ele>279.0</ele><time>2026-03-17T16:27:50.001Z</time></trkpt><trkpt lat="43.567813527051335" lon="3.249375473103555"><ele>279.8</ele><time>2026-03-17T16:27:51.001Z</time></trkpt><trkpt lat="43.56778230972503" lon="3.2494707433977568"><ele>280.59999999999997</ele><time>2026-03-17T16:27:52.001Z</time></trkpt><trkpt lat="43.56779538859418" lon="3.2495854757926597"><ele>281.4</ele><time>2026-03-17T16:27:53.001Z</time></trkpt><trkpt lat="43.56781609275746" lon="3.2497074518396536"><ele>282.2</ele><time>2026-03-17T16:27:54.001Z</time></trkpt><trkpt lat="43.56784720411217" lon="3.2498370934755334"><ele>283.0</ele><time>2026-03-17T16:27:55.001Z</time></trkpt><trkpt lat="43.56787601745668" lon="3.2499790934432298"><ele>283.0</ele><time>2026-03-17T16:27:56.001Z</time></trkpt><trkpt lat="43.56790362576768" lon="3.250134151575374"><ele>283.0</ele><time>2026-03-17T16:27:57.001Z</time></trkpt><trkpt lat="43.56792559679197" lon="3.2502967735554646"><ele>283.0</ele><time>2026-03-17T16:27:58.001Z</time></trkpt><trkpt lat="43.56797247297319" lon="3.2504346905006773"><ele>283.0</ele><time>2026-03-17T16:27:59.001Z</time></trkpt><trkpt lat="43.56801966964971" lon="3.2505610160671985"><ele>283.0</ele><time>2026-03-17T16:28:00.001Z</time></trkpt><trkpt lat="43.568081756426174" lon="3.2506845261599366"><ele>280.75</ele><time>2026-03-17T16:28:01.001Z</time></trkpt><trkpt lat="43.56816540319072" lon="3.2508049795704808"><ele>278.5</ele><time>2026-03-17T16:28:02.001Z</time></trkpt><trkpt lat="43.56826200400125" lon="3.250917721110668"><ele>276.25</ele><time>2026-03-17T16:28:03.001Z</time></trkpt><trkpt lat="43.56834015021832" lon="3.2510482576340825"><ele>274.0</ele><time>2026-03-17T16:28:04.001Z</time></trkpt><trkpt lat="43.56843667755038" lon="3.251147904133809"><ele>274.0</ele><time>2026-03-17T16:28:05.001Z</time></trkpt><trkpt lat="43.56851411805792" lon="3.251287759540686"><ele>274.0</ele><time>2026-03-17T16:28:06.001Z</time></trkpt><trkpt lat="43.56858985926817" lon="3.2513926705638125"><ele>274.0</ele><time>2026-03-17T16:28:07.001Z</time></trkpt><trkpt lat="43.568675823069356" lon="3.2514765296207337"><ele>274.0</ele><time>2026-03-17T16:28:08.001Z</time></trkpt><trkpt lat="43.56878098943409" lon="3.251543362530065"><ele>274.0</ele><time>2026-03-17T16:28:09.001Z</time></trkpt><trkpt lat="43.56889658373353" lon="3.251607728218771"><ele>274.0</ele><time>2026-03-17T16:28:10.001Z</time></trkpt><trkpt lat="43.569015424700176" lon="3.251693355203274"><ele>274.0</ele><time>2026-03-17T16:28:11.001Z</time></trkpt><trkpt lat="43.569139443993464" lon="3.25178754021191"><ele>274.0</ele><time>2026-03-17T16:28:12.001Z</time></trkpt><trkpt lat="43.569269134371645" lon="3.2518981228674533"><ele>274.0</ele><time>2026-03-17T16:28:13.001Z</time></trkpt><trkpt lat="43.56940155628655" lon="3.252015235109821"><ele>274.0</ele><time>2026-03-17T16:28:14.001Z</time></trkpt><trkpt lat="43.569527526133115" lon="3.2521152785638057"><ele>274.0</ele><time>2026-03-17T16:28:15.001Z</time></trkpt><trkpt lat="43.569648960820885" lon="3.2521976748681807"><ele>274.0</ele><time>2026-03-17T16:28:16.001Z</time></trkpt><trkpt lat="43.56976104871009" lon="3.2522651308664394"><ele>272.8</ele><time>2026-03-17T16:28:17.001Z</time></trkpt><trkpt lat="43.56986757612404" lon="3.2523275513984853"><ele>271.59999999999997</ele><time>2026-03-17T16:28:18.001Z</time></trkpt><trkpt lat="43.56995384372879" lon="3.2524020650442838"><ele>270.4</ele><time>2026-03-17T16:28:19.001Z</time></trkpt><trkpt lat="43.57000825870097" lon="3.252509142605561"><ele>269.2</ele><time>2026-03-17T16:28:20.001Z</time></trkpt><trkpt lat="43.57009018324322" lon="3.2525975212159057"><ele>268.0</ele><time>2026-03-17T16:28:21.001Z</time></trkpt><trkpt lat="43.57016785464936" lon="3.252712346886046"><ele>268.0</ele><time>2026-03-17T16:28:22.001Z</time></trkpt><trkpt lat="43.57025076819954" lon="3.252825022819847"><ele>268.0</ele><time>2026-03-17T16:28:23.001Z</time></trkpt><trkpt lat="43.5703381621676" lon="3.252937050600073"><ele>268.0</ele><time>2026-03-17T16:28:24.001Z</time></trkpt><trkpt lat="43.57041539622049" lon="3.253044438893812"><ele>268.0</ele><time>2026-03-17T16:28:25.001Z</time></trkpt><trkpt lat="43.57048369898464" lon="3.253166229246638"><ele>270.0</ele><time>2026-03-17T16:28:26.001Z</time></trkpt><trkpt lat="43.570541581944994" lon="3.253304699954216"><ele>272.0</ele><time>2026-03-17T16:28:27.001Z</time></trkpt><trkpt lat="43.570595293671936" lon="3.253452581469858"><ele>274.0</ele><time>2026-03-17T16:28:28.001Z</time></trkpt><trkpt lat="43.57064831246723" lon="3.253603242549539"><ele>276.0</ele><time>2026-03-17T16:28:29.001Z</time></trkpt><trkpt lat="43.570703856201426" lon="3.253754369913952"><ele>276.0</ele><time>2026-03-17T16:28:30.001Z</time></trkpt><trkpt lat="43.57075354679819" lon="3.253893358596011"><ele>276.0</ele><time>2026-03-17T16:28:31.001Z</time></trkpt><trkpt lat="43.570824479664466" lon="3.2540056136923847"><ele>276.0</ele><time>2026-03-17T16:28:32Z</time></trkpt><trkpt lat="43.570894068534244" lon="3.254097324002996"><ele>276.0</ele><time>2026-03-17T16:28:33Z</time></trkpt><trkpt lat="43.570978238911806" lon="3.2541691113327245"><ele>276.0</ele><time>2026-03-17T16:28:34Z</time></trkpt><trkpt lat="43.57107002861333" lon="3.254203164829936"><ele>276.2</ele><time>2026-03-17T16:28:35Z</time></trkpt><trkpt lat="43.571165559915904" lon="3.254204407505622"><ele>276.40000000000003</ele><time>2026-03-17T16:28:36Z</time></trkpt><trkpt lat="43.571268665928685" lon="3.2541804007967503"><ele>276.6</ele><time>2026-03-17T16:28:37Z</time></trkpt><trkpt lat="43.571375483003834" lon="3.254139958017101"><ele>276.8</ele><time>2026-03-17T16:28:38Z</time></trkpt><trkpt lat="43.57148797932348" lon="3.2541000550987254"><ele>277.0</ele><time>2026-03-17T16:28:39Z</time></trkpt><trkpt lat="43.571606234974425" lon="3.2540556279266717"><ele>277.0</ele><time>2026-03-17T16:28:40Z</time></trkpt><trkpt lat="43.57172500970789" lon="3.253999212740045"><ele>277.0</ele><time>2026-03-17T16:28:41Z</time></trkpt><trkpt lat="43.57184686462838" lon="3.2539169858353088"><ele>277.0</ele><time>2026-03-17T16:28:42Z</time></trkpt><trkpt lat="43.57196354464907" lon="3.2538134520964084"><ele>277.0</ele><time>2026-03-17T16:28:43Z</time></trkpt><trkpt lat="43.57208215449846" lon="3.2537017266758497"><ele>278.75</ele><time>2026-03-17T16:28:44Z</time></trkpt><trkpt lat="43.57219978309437" lon="3.2536012388452744"><ele>280.5</ele><time>2026-03-17T16:28:45Z</time></trkpt><trkpt lat="43.57232340064045" lon="3.2535306322047584"><ele>282.25</ele><time>2026-03-17T16:28:46Z</time></trkpt><trkpt lat="43.5724494411313" lon="3.2534658183755902"><ele>284.0</ele><time>2026-03-17T16:28:47Z</time></trkpt><trkpt lat="43.57257942658953" lon="3.2534061557943406"><ele>284.0</ele><time>2026-03-17T16:28:48Z</time></trkpt><trkpt lat="43.572716502457475" lon="3.2533430158101395"><ele>284.0</ele><time>2026-03-17T16:28:49Z</time></trkpt><trkpt lat="43.57285511812775" lon="3.253272946500984"><ele>284.0</ele><time>2026-03-17T16:28:50Z</time></trkpt><trkpt lat="43.572997431681685" lon="3.253198359721178"><ele>284.0</ele><time>2026-03-17T16:28:51Z</time></trkpt><trkpt lat="43.57314441811213" lon="3.25312433404759"><ele>287.75</ele><time>2026-03-17T16:28:52Z</time></trkpt><trkpt lat="43.57328701222922" lon="3.2530561331297148"><ele>291.5</ele><time>2026-03-17T16:28:53Z</time></trkpt><trkpt lat="43.573417058991176" lon="3.252993444877481"><ele>295.25</ele><time>2026-03-17T16:28:54Z</time></trkpt><trkpt lat="43.57353634182231" lon="3.2529410123148272"><ele>299.0</ele><time>2026-03-17T16:28:55Z</time></trkpt><trkpt lat="43.57364478880819" lon="3.25290994847024"><ele>299.75</ele><time>2026-03-17T16:28:56Z</time></trkpt><trkpt lat="43.573753077355576" lon="3.252905944705914"><ele>300.5</ele><time>2026-03-17T16:28:57Z</time></trkpt><trkpt lat="43.57386647628465" lon="3.2529324265109403"><ele>301.25</ele><time>2026-03-17T16:28:58Z</time></trkpt><trkpt lat="43.57398698384677" lon="3.252981629447639"><ele>302.0</ele><time>2026-03-17T16:28:59Z</time></trkpt><trkpt lat="43.57411530159201" lon="3.2530271083772995"><ele>302.0</ele><time>2026-03-17T16:29:00Z</time></trkpt><trkpt lat="43.574248819329775" lon="3.2530678310462813"><ele>302.0</ele><time>2026-03-17T16:29:01Z</time></trkpt><trkpt lat="43.57438527322548" lon="3.2531296784654007"><ele>302.0</ele><time>2026-03-17T16:29:02Z</time></trkpt><trkpt lat="43.57451979034529" lon="3.2532135893786758"><ele>302.0</ele><time>2026-03-17T16:29:03Z</time></trkpt><trkpt lat="43.574655593639946" lon="3.2533165114974913"><ele>300.75</ele><time>2026-03-17T16:29:04Z</time></trkpt><trkpt lat="43.57479364795014" lon="3.253420152544836"><ele>299.5</ele><time>2026-03-17T16:29:05Z</time></trkpt><trkpt lat="43.57492896985669" lon="3.2535226993359685"><ele>298.25</ele><time>2026-03-17T16:29:06Z</time></trkpt><trkpt lat="43.575046523906586" lon="3.2536102854306734"><ele>297.0</ele><time>2026-03-17T16:29:07Z</time></trkpt><trkpt lat="43.57515384380362" lon="3.253691565906297"><ele>297.0</ele><time>2026-03-17T16:29:08Z</time></trkpt><trkpt lat="43.575249866870415" lon="3.253763747652737"><ele>297.0</ele><time>2026-03-17T16:29:09Z</time></trkpt><trkpt lat="43.575338609316496" lon="3.2538319731642176"><ele>297.0</ele><time>2026-03-17T16:29:10Z</time></trkpt><trkpt lat="43.57542431888788" lon="3.2538993102064393"><ele>297.0</ele><time>2026-03-17T16:29:11Z</time></trkpt><trkpt lat="43.57551045526338" lon="3.253951088096331"><ele>297.0</ele><time>2026-03-17T16:29:12Z</time></trkpt><trkpt lat="43.57559744285998" lon="3.253978696008833"><ele>296.4</ele><time>2026-03-17T16:29:13Z</time></trkpt><trkpt lat="43.575684599961676" lon="3.2539853845152797"><ele>295.79999999999995</ele><time>2026-03-17T16:29:14Z</time></trkpt><trkpt lat="43.575773493556476" lon="3.2539534259634864"><ele>295.2</ele><time>2026-03-17T16:29:15Z</time></trkpt><trkpt lat="43.575853836896144" lon="3.253876624375677"><ele>294.59999999999997</ele><time>2026-03-17T16:29:16Z</time></trkpt><trkpt lat="43.5759182814518" lon="3.253779511407113"><ele>294.0</ele><time>2026-03-17T16:29:17Z</time></trkpt><trkpt lat="43.57598155335893" lon="3.2537164700384524"><ele>295.8</ele><time>2026-03-17T16:29:18Z</time></trkpt><trkpt lat="43.57605831095359" lon="3.2536872709702274"><ele>297.59999999999997</ele><time>2026-03-17T16:29:19Z</time></trkpt><trkpt lat="43.576143973092684" lon="3.2536846293538395"><ele>299.4</ele><time>2026-03-17T16:29:20Z</time></trkpt><trkpt lat="43.57623562855661" lon="3.2536921059742103"><ele>301.2</ele><time>2026-03-17T16:29:21Z</time></trkpt><trkpt lat="43.576347969142326" lon="3.2537118119183477"><ele>303.0</ele><time>2026-03-17T16:29:22Z</time></trkpt><trkpt lat="43.5764592683238" lon="3.253723249971691"><ele>303.0</ele><time>2026-03-17T16:29:23Z</time></trkpt><trkpt lat="43.57656873186775" lon="3.2537455397557844"><ele>303.0</ele><time>2026-03-17T16:29:24.001Z</time></trkpt><trkpt lat="43.576671674718106" lon="3.253781305687183"><ele>303.0</ele><time>2026-03-17T16:29:25.001Z</time></trkpt><trkpt lat="43.57676689941221" lon="3.2538291677470195"><ele>303.0</ele><time>2026-03-17T16:29:26.001Z</time></trkpt><trkpt lat="43.576858809766016" lon="3.253895698090971"><ele>303.0</ele><time>2026-03-17T16:29:27.001Z</time></trkpt><trkpt lat="43.576935077246105" lon="3.25399037565492"><ele>304.25</ele><time>2026-03-17T16:29:28.001Z</time></trkpt><trkpt lat="43.5770015492981" lon="3.2541044560568837"><ele>305.5</ele><time>2026-03-17T16:29:29.001Z</time></trkpt><trkpt lat="43.57704062920024" lon="3.2542471162780413"><ele>306.75</ele><time>2026-03-17T16:29:30.001Z</time></trkpt><trkpt lat="43.57710596644477" lon="3.2543848233169146"><ele>308.0</ele><time>2026-03-17T16:29:31.001Z</time></trkpt><trkpt lat="43.57716152034194" lon="3.254541286980713"><ele>308.0</ele><time>2026-03-17T16:29:32.001Z</time></trkpt><trkpt lat="43.57721438730953" lon="3.2547096181413964"><ele>308.0</ele><time>2026-03-17T16:29:33.001Z</time></trkpt><trkpt lat="43.57728329676557" lon="3.254881260972675"><ele>308.0</ele><time>2026-03-17T16:29:34.001Z</time></trkpt><trkpt lat="43.577369866658266" lon="3.255045846887854"><ele>308.0</ele><time>2026-03-17T16:29:35.001Z</time></trkpt><trkpt lat="43.57743406164666" lon="3.255235540221146"><ele>305.33333333333337</ele><time>2026-03-17T16:29:36.001Z</time></trkpt><trkpt lat="43.577500722577405" lon="3.255430592324224"><ele>302.6666666666667</ele><time>2026-03-17T16:29:37.001Z</time></trkpt><trkpt lat="43.577561634220025" lon="3.2556310269052924"><ele>300.0</ele><time>2026-03-17T16:29:38.001Z</time></trkpt><trkpt lat="43.57761984007877" lon="3.2558309013552895"><ele>300.0</ele><time>2026-03-17T16:29:39.001Z</time></trkpt><trkpt lat="43.57767424472521" lon="3.256019495919088"><ele>300.0</ele><time>2026-03-17T16:29:40.001Z</time></trkpt><trkpt lat="43.577722810592384" lon="3.2561910985679874"><ele>300.0</ele><time>2026-03-17T16:29:41.001Z</time></trkpt><trkpt lat="43.577768752160914" lon="3.2563444162351733"><ele>300.0</ele><time>2026-03-17T16:29:42.001Z</time></trkpt><trkpt lat="43.57781886798513" lon="3.256471085098242"><ele>301.4</ele><time>2026-03-17T16:29:43.001Z</time></trkpt><trkpt lat="43.577878112481784" lon="3.2565707000107005"><ele>302.8</ele><time>2026-03-17T16:29:44.001Z</time></trkpt><trkpt lat="43.577953561179804" lon="3.256642534048978"><ele>304.2</ele><time>2026-03-17T16:29:45.001Z</time></trkpt><trkpt lat="43.5780489970737" lon="3.256700189023472"><ele>305.6</ele><time>2026-03-17T16:29:46.001Z</time></trkpt><trkpt lat="43.578152625073656" lon="3.2567486664085044"><ele>307.0</ele><time>2026-03-17T16:29:47.001Z</time></trkpt><trkpt lat="43.578251332092165" lon="3.2568000598421536"><ele>307.0</ele><time>2026-03-17T16:29:48.001Z</time></trkpt><trkpt lat="43.578333074929034" lon="3.2568523142740284"><ele>307.0</ele><time>2026-03-17T16:29:49.001Z</time></trkpt><trkpt lat="43.57840489816263" lon="3.256917367693026"><ele>307.0</ele><time>2026-03-17T16:29:50.001Z</time></trkpt><trkpt lat="43.57846854097711" lon="3.2570101927771167"><ele>307.0</ele><time>2026-03-17T16:29:51.001Z</time></trkpt><trkpt lat="43.578522972919295" lon="3.2571277189832446"><ele>307.0</ele><time>2026-03-17T16:29:52.001Z</time></trkpt><trkpt lat="43.57857461822301" lon="3.257266842822213"><ele>306.75</ele><time>2026-03-17T16:29:53.001Z</time></trkpt><trkpt lat="43.57862576319998" lon="3.257414289838478"><ele>306.5</ele><time>2026-03-17T16:29:54.001Z</time></trkpt><trkpt lat="43.57868061233426" lon="3.2575747623713394"><ele>306.25</ele><time>2026-03-17T16:29:55.001Z</time></trkpt><trkpt lat="43.57874049414112" lon="3.2577441071767677"><ele>306.0</ele><time>2026-03-17T16:29:56.001Z</time></trkpt><trkpt lat="43.57879977546667" lon="3.25792134344738"><ele>308.0</ele><time>2026-03-17T16:29:57.001Z</time></trkpt><trkpt lat="43.57886121356931" lon="3.258096040430706"><ele>310.0</ele><time>2026-03-17T16:29:58.001Z</time></trkpt><trkpt lat="43.57891927619982" lon="3.258265445110409"><ele>312.0</ele><time>2026-03-17T16:29:59.001Z</time></trkpt><trkpt lat="43.578972123510944" lon="3.258429619805237"><ele>314.0</ele><time>2026-03-17T16:30:00.001Z</time></trkpt><trkpt lat="43.579017635109686" lon="3.258595439772416"><ele>314.0</ele><time>2026-03-17T16:30:01.001Z</time></trkpt><trkpt lat="43.57903327678435" lon="3.258770923120885"><ele>314.0</ele><time>2026-03-17T16:30:02.001Z</time></trkpt><trkpt lat="43.579052961784" lon="3.258944171551499"><ele>314.0</ele><time>2026-03-17T16:30:03.001Z</time></trkpt><trkpt lat="43.57908602967646" lon="3.2591193697173977"><ele>314.0</ele><time>2026-03-17T16:30:04.001Z</time></trkpt><trkpt lat="43.579096206018605" lon="3.2592961452381957"><ele>314.0</ele><time>2026-03-17T16:30:05.001Z</time></trkpt><trkpt lat="43.579113682592855" lon="3.2594732696600377"><ele>314.0</ele><time>2026-03-17T16:30:06.001Z</time></trkpt><trkpt lat="43.579130811002415" lon="3.2596444775263556"><ele>314.0</ele><time>2026-03-17T16:30:07.001Z</time></trkpt><trkpt lat="43.57914477592851" lon="3.259807049944181"><ele>314.0</ele><time>2026-03-17T16:30:08.001Z</time></trkpt><trkpt lat="43.57914418363405" lon="3.2599544295588365"><ele>314.0</ele><time>2026-03-17T16:30:09.001Z</time></trkpt><trkpt lat="43.579152681363745" lon="3.260082245461681"><ele>314.0</ele><time>2026-03-17T16:30:10.001Z</time></trkpt><trkpt lat="43.57915987844518" lon="3.260197435023011"><ele>314.0</ele><time>2026-03-17T16:30:11.001Z</time></trkpt><trkpt lat="43.57916868087628" lon="3.2603001963283487"><ele>314.0</ele><time>2026-03-17T16:30:12.001Z</time></trkpt><trkpt lat="43.57918206364884" lon="3.2604354090321683"><ele>314.0</ele><time>2026-03-17T16:30:14.001Z</time></trkpt><trkpt lat="43.579179894756685" lon="3.260531357966563"><ele>314.0</ele><time>2026-03-17T16:30:17.001Z</time></trkpt><trkpt lat="43.57921661485688" lon="3.2606273662486465"><ele>314.0</ele><time>2026-03-17T16:33:02.001Z</time></trkpt><trkpt lat="43.57931039215485" lon="3.26062130771576"><ele>314.0</ele><time>2026-03-17T16:33:04.001Z</time></trkpt><trkpt lat="43.57943567713626" lon="3.2606359756052643"><ele>314.0</ele><time>2026-03-17T16:33:06.001Z</time></trkpt><trkpt lat="43.57951489984495" lon="3.260661162806834"><ele>314.0</ele><time>2026-03-17T16:33:07.001Z</time></trkpt><trkpt lat="43.57959825749667" lon="3.260695329339861"><ele>314.0</ele><time>2026-03-17T16:33:08.001Z</time></trkpt><trkpt lat="43.57967203744306" lon="3.2607330126893515"><ele>314.0</ele><time>2026-03-17T16:33:09.001Z</time></trkpt><trkpt lat="43.579750175170155" lon="3.260775240132897"><ele>314.0</ele><time>2026-03-17T16:33:10.001Z</time></trkpt><trkpt lat="43.579828661590085" lon="3.260825472497753"><ele>314.0</ele><time>2026-03-17T16:33:11.001Z</time></trkpt><trkpt lat="43.579903064959744" lon="3.2608925755197884"><ele>314.0</ele><time>2026-03-17T16:33:12.001Z</time></trkpt><trkpt lat="43.579973633479774" lon="3.2609708151473393"><ele>314.0</ele><time>2026-03-17T16:33:13.001Z</time></trkpt><trkpt lat="43.580036255434436" lon="3.2610548178913796"><ele>314.0</ele><time>2026-03-17T16:33:14.001Z</time></trkpt><trkpt lat="43.58009881154469" lon="3.2611343937948485"><ele>314.0</ele><time>2026-03-17T16:33:15.001Z</time></trkpt><trkpt lat="43.58016164106003" lon="3.2612086090006396"><ele>314.0</ele><time>2026-03-17T16:33:16.001Z</time></trkpt><trkpt lat="43.5802288835948" lon="3.26127622980064"><ele>314.0</ele><time>2026-03-17T16:33:17.001Z</time></trkpt><trkpt lat="43.580295508501486" lon="3.2613472492471485"><ele>314.0</ele><time>2026-03-17T16:33:18.001Z</time></trkpt><trkpt lat="43.580359158972" lon="3.2614239128857454"><ele>314.0</ele><time>2026-03-17T16:33:19.001Z</time></trkpt><trkpt lat="43.58043770498596" lon="3.2615047834274686"><ele>314.0</ele><time>2026-03-17T16:33:20.001Z</time></trkpt><trkpt lat="43.580527564449355" lon="3.261583572484716"><ele>313.4</ele><time>2026-03-17T16:33:21.001Z</time></trkpt><trkpt lat="43.580620142297775" lon="3.2616525987062874"><ele>312.79999999999995</ele><time>2026-03-17T16:33:22.001Z</time></trkpt><trkpt lat="43.58071761783414" lon="3.2617190948643375"><ele>312.20000000000005</ele><time>2026-03-17T16:33:23.001Z</time></trkpt><trkpt lat="43.580818352165956" lon="3.261774487391845"><ele>311.6</ele><time>2026-03-17T16:33:24.001Z</time></trkpt><trkpt lat="43.580925950916274" lon="3.2618115570316544"><ele>311.0</ele><time>2026-03-17T16:33:25.001Z</time></trkpt><trkpt lat="43.58103777508639" lon="3.2618308085184977"><ele>311.0</ele><time>2026-03-17T16:33:26.001Z</time></trkpt><trkpt lat="43.581145284223716" lon="3.261826216510018"><ele>311.0</ele><time>2026-03-17T16:33:27.001Z</time></trkpt><trkpt lat="43.58125077660218" lon="3.2617931302543495"><ele>311.0</ele><time>2026-03-17T16:33:28.001Z</time></trkpt><trkpt lat="43.58135364855265" lon="3.261729790011094"><ele>311.0</ele><time>2026-03-17T16:33:29.001Z</time></trkpt><trkpt lat="43.58145490490379" lon="3.2616432855590736"><ele>311.0</ele><time>2026-03-17T16:33:30.001Z</time></trkpt><trkpt lat="43.581554491714016" lon="3.261533743487586"><ele>312.25</ele><time>2026-03-17T16:33:31.001Z</time></trkpt><trkpt lat="43.58165905784798" lon="3.2614214856510197"><ele>313.5</ele><time>2026-03-17T16:33:32.001Z</time></trkpt><trkpt lat="43.58174818501301" lon="3.2612823901237444"><ele>314.75</ele><time>2026-03-17T16:33:33.001Z</time></trkpt><trkpt lat="43.581823273779" lon="3.261122750935503"><ele>316.0</ele><time>2026-03-17T16:33:34.001Z</time></trkpt><trkpt lat="43.581900018731886" lon="3.260958535947924"><ele>316.0</ele><time>2026-03-17T16:33:35.001Z</time></trkpt><trkpt lat="43.58196953630417" lon="3.26078695134236"><ele>316.0</ele><time>2026-03-17T16:33:36.001Z</time></trkpt><trkpt lat="43.58203749707398" lon="3.260613363687872"><ele>316.0</ele><time>2026-03-17T16:33:37.001Z</time></trkpt><trkpt lat="43.58209876150829" lon="3.2604529010212837"><ele>316.0</ele><time>2026-03-17T16:33:38.001Z</time></trkpt><trkpt lat="43.58216064011057" lon="3.2603047718747153"><ele>317.0</ele><time>2026-03-17T16:33:39.001Z</time></trkpt><trkpt lat="43.58223248547199" lon="3.2601659866118564"><ele>318.0</ele><time>2026-03-17T16:33:40.001Z</time></trkpt><trkpt lat="43.5823195378006" lon="3.260020913799985"><ele>319.0</ele><time>2026-03-17T16:33:41.001Z</time></trkpt><trkpt lat="43.58241057053938" lon="3.259895061069454"><ele>320.0</ele><time>2026-03-17T16:33:42.001Z</time></trkpt><trkpt lat="43.58250468901141" lon="3.2597596936157514"><ele>320.0</ele><time>2026-03-17T16:33:43.001Z</time></trkpt><trkpt lat="43.58259734499929" lon="3.259627997184144"><ele>320.0</ele><time>2026-03-17T16:33:44.001Z</time></trkpt><trkpt lat="43.58269036181915" lon="3.2594972778471916"><ele>320.0</ele><time>2026-03-17T16:33:45.001Z</time></trkpt><trkpt lat="43.582779902409605" lon="3.259364694756342"><ele>320.0</ele><time>2026-03-17T16:33:46.001Z</time></trkpt><trkpt lat="43.58287344289601" lon="3.259238457833429"><ele>319.0</ele><time>2026-03-17T16:33:47.001Z</time></trkpt><trkpt lat="43.582973348093546" lon="3.2591205593854626"><ele>318.0</ele><time>2026-03-17T16:33:48.001Z</time></trkpt><trkpt lat="43.58307277233267" lon="3.2590118555093714"><ele>317.0</ele><time>2026-03-17T16:33:49.001Z</time></trkpt><trkpt lat="43.58317237551997" lon="3.258925158447868"><ele>316.0</ele><time>2026-03-17T16:33:50.001Z</time></trkpt><trkpt lat="43.58326226057752" lon="3.2588428835905185"><ele>316.0</ele><time>2026-03-17T16:33:51.001Z</time></trkpt><trkpt lat="43.583376731400605" lon="3.2587733746922924"><ele>316.0</ele><time>2026-03-17T16:33:52.001Z</time></trkpt><trkpt lat="43.58350770600894" lon="3.258704149584636"><ele>316.0</ele><time>2026-03-17T16:33:53.001Z</time></trkpt><trkpt lat="43.58363307496509" lon="3.258632846479514"><ele>316.0</ele><time>2026-03-17T16:33:54.001Z</time></trkpt><trkpt lat="43.58374069630495" lon="3.2585689488894283"><ele>312.25</ele><time>2026-03-17T16:33:55.001Z</time></trkpt><trkpt lat="43.58384788198906" lon="3.258491533195707"><ele>308.5</ele><time>2026-03-17T16:33:56.001Z</time></trkpt><trkpt lat="43.583965351282075" lon="3.2584801677516055"><ele>304.75</ele><time>2026-03-17T16:33:57.001Z</time></trkpt><trkpt lat="43.58409210562005" lon="3.2584460506202295"><ele>301.0</ele><time>2026-03-17T16:33:58.001Z</time></trkpt><trkpt lat="43.58422198450783" lon="3.2584664036402993"><ele>301.0</ele><time>2026-03-17T16:33:59.001Z</time></trkpt><trkpt lat="43.58434519379365" lon="3.2584781987743776"><ele>301.0</ele><time>2026-03-17T16:34:00.001Z</time></trkpt><trkpt lat="43.58446601250391" lon="3.2584974971206178"><ele>301.0</ele><time>2026-03-17T16:34:01.001Z</time></trkpt><trkpt lat="43.58459033673936" lon="3.2585229915625926"><ele>301.0</ele><time>2026-03-17T16:34:02.001Z</time></trkpt><trkpt lat="43.58472362839649" lon="3.2585453301831815"><ele>301.25</ele><time>2026-03-17T16:34:03.001Z</time></trkpt><trkpt lat="43.58485079735542" lon="3.258590838492201"><ele>301.5</ele><time>2026-03-17T16:34:04.001Z</time></trkpt><trkpt lat="43.584975009537345" lon="3.25865771628366"><ele>301.75</ele><time>2026-03-17T16:34:05.001Z</time></trkpt><trkpt lat="43.585085914218965" lon="3.2587229391750188"><ele>302.0</ele><time>2026-03-17T16:34:06.001Z</time></trkpt><trkpt lat="43.5851910611681" lon="3.258804378155584"><ele>302.0</ele><time>2026-03-17T16:34:07.001Z</time></trkpt><trkpt lat="43.58529336029685" lon="3.258888446088882"><ele>302.0</ele><time>2026-03-17T16:34:08.001Z</time></trkpt><trkpt lat="43.58540352503456" lon="3.2589663873309647"><ele>302.0</ele><time>2026-03-17T16:34:09.001Z</time></trkpt><trkpt lat="43.585493921126336" lon="3.2590901029601627"><ele>302.0</ele><time>2026-03-17T16:34:10.001Z</time></trkpt><trkpt lat="43.58558522615766" lon="3.2592067171247723"><ele>297.4</ele><time>2026-03-17T16:34:11.001Z</time></trkpt><trkpt lat="43.585675907811705" lon="3.259311379877772"><ele>292.79999999999995</ele><time>2026-03-17T16:34:12.001Z</time></trkpt><trkpt lat="43.5857570885943" lon="3.259406708877668"><ele>288.2</ele><time>2026-03-17T16:34:13.001Z</time></trkpt><trkpt lat="43.58584084429698" lon="3.2594659608563608"><ele>283.59999999999997</ele><time>2026-03-17T16:34:14.001Z</time></trkpt><trkpt lat="43.585928499272384" lon="3.259489224643525"><ele>279.0</ele><time>2026-03-17T16:34:15.001Z</time></trkpt><trkpt lat="43.58602577563427" lon="3.259480863118017"><ele>279.0</ele><time>2026-03-17T16:34:16.001Z</time></trkpt><trkpt lat="43.58612347120792" lon="3.259436726608572"><ele>279.0</ele><time>2026-03-17T16:34:17.001Z</time></trkpt><trkpt lat="43.58621366738135" lon="3.2593581569469317"><ele>279.0</ele><time>2026-03-17T16:34:18.001Z</time></trkpt><trkpt lat="43.58630672000707" lon="3.259256897510155"><ele>279.0</ele><time>2026-03-17T16:34:19.001Z</time></trkpt><trkpt lat="43.58640403138616" lon="3.2591505232433424"><ele>278.0</ele><time>2026-03-17T16:34:20.001Z</time></trkpt><trkpt lat="43.58650896299873" lon="3.2590427625257306"><ele>277.0</ele><time>2026-03-17T16:34:21.001Z</time></trkpt><trkpt lat="43.586608284736236" lon="3.2589299566340286"><ele>276.0</ele><time>2026-03-17T16:34:22.001Z</time></trkpt><trkpt lat="43.58669620833478" lon="3.2588020421105264"><ele>275.0</ele><time>2026-03-17T16:34:23.001Z</time></trkpt><trkpt lat="43.586777427517234" lon="3.258659629524012"><ele>275.0</ele><time>2026-03-17T16:34:24.001Z</time></trkpt><trkpt lat="43.58684839113064" lon="3.25850391328624"><ele>275.0</ele><time>2026-03-17T16:34:25.001Z</time></trkpt><trkpt lat="43.58691044715908" lon="3.2583485802809253"><ele>275.0</ele><time>2026-03-17T16:34:26.001Z</time></trkpt><trkpt lat="43.58694782951486" lon="3.2581929233650797"><ele>275.0</ele><time>2026-03-17T16:34:27.001Z</time></trkpt><trkpt lat="43.586968369646804" lon="3.2580392220127425"><ele>277.5</ele><time>2026-03-17T16:34:28.001Z</time></trkpt><trkpt lat="43.586970497394496" lon="3.2578681028006984"><ele>280.0</ele><time>2026-03-17T16:34:29.001Z</time></trkpt><trkpt lat="43.58696593260956" lon="3.257689537703084"><ele>282.5</ele><time>2026-03-17T16:34:30.001Z</time></trkpt><trkpt lat="43.586969368287306" lon="3.2575012974435027"><ele>285.0</ele><time>2026-03-17T16:34:31.001Z</time></trkpt><trkpt lat="43.586982563914496" lon="3.257309299318378"><ele>287.5</ele><time>2026-03-17T16:34:32.001Z</time></trkpt><trkpt lat="43.58700155095702" lon="3.257127205160741"><ele>290.0</ele><time>2026-03-17T16:34:33.001Z</time></trkpt><trkpt lat="43.58701929405497" lon="3.2569510479106105"><ele>292.5</ele><time>2026-03-17T16:34:34.001Z</time></trkpt><trkpt lat="43.58704082059655" lon="3.2567783149498766"><ele>295.0</ele><time>2026-03-17T16:34:35.001Z</time></trkpt><trkpt lat="43.58708010485279" lon="3.2566153900556047"><ele>287.25</ele><time>2026-03-17T16:34:36.001Z</time></trkpt><trkpt lat="43.58713912134917" lon="3.256461947751456"><ele>279.5</ele><time>2026-03-17T16:34:37.001Z</time></trkpt><trkpt lat="43.58721060766739" lon="3.2563223904702925"><ele>271.75</ele><time>2026-03-17T16:34:38.001Z</time></trkpt><trkpt lat="43.58729909818718" lon="3.256189999321424"><ele>264.0</ele><time>2026-03-17T16:34:39.001Z</time></trkpt><trkpt lat="43.587388547045755" lon="3.256062476314161"><ele>264.0</ele><time>2026-03-17T16:34:40.001Z</time></trkpt><trkpt lat="43.58747329217658" lon="3.255931852831699"><ele>264.0</ele><time>2026-03-17T16:34:41.001Z</time></trkpt><trkpt lat="43.587560755599725" lon="3.2558080505039397"><ele>264.0</ele><time>2026-03-17T16:34:42.001Z</time></trkpt><trkpt lat="43.58765538362743" lon="3.2556956188268003"><ele>264.0</ele><time>2026-03-17T16:34:43.001Z</time></trkpt><trkpt lat="43.58775685446295" lon="3.2555934120929244"><ele>262.0</ele><time>2026-03-17T16:34:44.001Z</time></trkpt><trkpt lat="43.587855221855285" lon="3.255490885462181"><ele>260.0</ele><time>2026-03-17T16:34:45.001Z</time></trkpt><trkpt lat="43.58795931881095" lon="3.2554001175526786"><ele>258.0</ele><time>2026-03-17T16:34:46.001Z</time></trkpt><trkpt lat="43.58806264641461" lon="3.255307939493709"><ele>256.0</ele><time>2026-03-17T16:34:47.001Z</time></trkpt><trkpt lat="43.58816331878803" lon="3.2552134392900265"><ele>256.0</ele><time>2026-03-17T16:34:48.001Z</time></trkpt><trkpt lat="43.58825800959024" lon="3.2551086475276207"><ele>256.0</ele><time>2026-03-17T16:34:49.001Z</time></trkpt><trkpt lat="43.5883443711171" lon="3.2549905472820404"><ele>256.0</ele><time>2026-03-17T16:34:50.001Z</time></trkpt><trkpt lat="43.588433377663954" lon="3.25487811608194"><ele>256.0</ele><time>2026-03-17T16:34:51.001Z</time></trkpt><trkpt lat="43.58852406383847" lon="3.2547695278482656"><ele>257.5</ele><time>2026-03-17T16:34:52.001Z</time></trkpt><trkpt lat="43.588615658845114" lon="3.2546606284511395"><ele>259.0</ele><time>2026-03-17T16:34:53.001Z</time></trkpt><trkpt lat="43.58870570722398" lon="3.2545493163886654"><ele>260.5</ele><time>2026-03-17T16:34:54.001Z</time></trkpt><trkpt lat="43.58879422567235" lon="3.254441239525031"><ele>262.0</ele><time>2026-03-17T16:34:55.001Z</time></trkpt><trkpt lat="43.588879214356545" lon="3.2543354493546355"><ele>258.8</ele><time>2026-03-17T16:34:56.001Z</time></trkpt><trkpt lat="43.58895348895112" lon="3.254232427996184"><ele>255.6</ele><time>2026-03-17T16:34:57.001Z</time></trkpt><trkpt lat="43.58901391731427" lon="3.254132475352202"><ele>252.40000000000003</ele><time>2026-03-17T16:34:58.001Z</time></trkpt><trkpt lat="43.58905928890917" lon="3.2540448418889376"><ele>249.20000000000002</ele><time>2026-03-17T16:34:59.001Z</time></trkpt><trkpt lat="43.58909182373283" lon="3.253877340342619"><ele>246.0</ele><time>2026-03-17T16:35:01.001Z</time></trkpt><trkpt lat="43.58909086015487" lon="3.253788330456852"><ele>246.0</ele><time>2026-03-17T16:35:02.001Z</time></trkpt><trkpt lat="43.589077972225745" lon="3.2537009803257515"><ele>246.0</ele><time>2026-03-17T16:35:03.001Z</time></trkpt><trkpt lat="43.58906018078986" lon="3.2536171871975825"><ele>246.0</ele><time>2026-03-17T16:35:04.001Z</time></trkpt><trkpt lat="43.58903295853777" lon="3.2535374607312804"><ele>246.0</ele><time>2026-03-17T16:35:05.001Z</time></trkpt><trkpt lat="43.588969552635184" lon="3.253386195191194"><ele>246.0</ele><time>2026-03-17T16:35:07.001Z</time></trkpt><trkpt lat="43.58891344419711" lon="3.25333906999333"><ele>246.0</ele><time>2026-03-17T16:35:08.001Z</time></trkpt><trkpt lat="43.58883701944075" lon="3.2532431510384408"><ele>246.0</ele><time>2026-03-17T16:35:10.001Z</time></trkpt><trkpt lat="43.58872689750001" lon="3.253173030275332"><ele>246.0</ele><time>2026-03-17T16:35:12.001Z</time></trkpt><trkpt lat="43.58869568319892" lon="3.2530931189729864"><ele>246.0</ele><time>2026-03-17T16:35:13.001Z</time></trkpt><trkpt lat="43.58868158647483" lon="3.2530025503929942"><ele>246.0</ele><time>2026-03-17T16:35:14.001Z</time></trkpt><trkpt lat="43.58867171615166" lon="3.252908339809612"><ele>246.0</ele><time>2026-03-17T16:35:15.001Z</time></trkpt><trkpt lat="43.58866000699062" lon="3.2528217018943444"><ele>246.0</ele><time>2026-03-17T16:35:16.001Z</time></trkpt><trkpt lat="43.58861149991346" lon="3.2527261091013915"><ele>246.14285714285717</ele><time>2026-03-17T16:35:18.001Z</time></trkpt><trkpt lat="43.58851991133062" lon="3.252683771936086"><ele>246.28571428571428</ele><time>2026-03-17T16:35:20.001Z</time></trkpt><trkpt lat="43.588456907938436" lon="3.252683850127976"><ele>246.42857142857144</ele><time>2026-03-17T16:35:21.001Z</time></trkpt><trkpt lat="43.58839362530574" lon="3.252689414738263"><ele>246.57142857142858</ele><time>2026-03-17T16:35:22.001Z</time></trkpt><trkpt lat="43.58832552828165" lon="3.2526949458571925"><ele>246.71428571428572</ele><time>2026-03-17T16:35:23.001Z</time></trkpt><trkpt lat="43.58825457538498" lon="3.252700196958431"><ele>246.85714285714286</ele><time>2026-03-17T16:35:24.001Z</time></trkpt><trkpt lat="43.58818920098121" lon="3.252705500719537"><ele>247.0</ele><time>2026-03-17T16:35:25.001Z</time></trkpt><trkpt lat="43.58812613703468" lon="3.25270598770336"><ele>247.0</ele><time>2026-03-17T16:35:26.001Z</time></trkpt><trkpt lat="43.58803161006713" lon="3.2526890831218718"><ele>247.0</ele><time>2026-03-17T16:35:28.001Z</time></trkpt><trkpt lat="43.587971067097854" lon="3.2526445098370447"><ele>247.0</ele><time>2026-03-17T16:35:30.001Z</time></trkpt><trkpt lat="43.58795634207605" lon="3.252520716411325"><ele>247.0</ele><time>2026-03-17T16:35:33.001Z</time></trkpt><trkpt lat="43.58799790981531" lon="3.2524003896462226"><ele>247.0</ele><time>2026-03-17T16:35:35.001Z</time></trkpt><trkpt lat="43.5880659557568" lon="3.2522955593540277"><ele>247.8</ele><time>2026-03-17T16:35:37.001Z</time></trkpt><trkpt lat="43.588144199982956" lon="3.25217091603083"><ele>248.6</ele><time>2026-03-17T16:35:39.001Z</time></trkpt><trkpt lat="43.58822263917648" lon="3.252066063831794"><ele>249.40000000000003</ele><time>2026-03-17T16:35:41.001Z</time></trkpt><trkpt lat="43.588298176094334" lon="3.251945421174398"><ele>250.20000000000002</ele><time>2026-03-17T16:35:43.001Z</time></trkpt><trkpt lat="43.58834074536638" lon="3.2518780842674717"><ele>251.0</ele><time>2026-03-17T16:35:44.001Z</time></trkpt><trkpt lat="43.58838744335765" lon="3.251816127463047"><ele>250.99999999999997</ele><time>2026-03-17T16:35:45.001Z</time></trkpt><trkpt lat="43.5884436472543" lon="3.2517594573071684"><ele>251.0</ele><time>2026-03-17T16:35:46.001Z</time></trkpt><trkpt lat="43.588505138318446" lon="3.2517057873720336"><ele>250.99999999999997</ele><time>2026-03-17T16:35:47.001Z</time></trkpt><trkpt lat="43.5885669228754" lon="3.251651583040735"><ele>250.99999999999997</ele><time>2026-03-17T16:35:48.001Z</time></trkpt><trkpt lat="43.588623757748195" lon="3.2515992628411805"><ele>251.0</ele><time>2026-03-17T16:35:49.001Z</time></trkpt><trkpt lat="43.58868411479417" lon="3.251547951572559"><ele>250.99999999999997</ele><time>2026-03-17T16:35:50.001Z</time></trkpt><trkpt lat="43.58874717991278" lon="3.2514958731254002"><ele>250.99999999999997</ele><time>2026-03-17T16:35:51.001Z</time></trkpt><trkpt lat="43.58881672669025" lon="3.25145509070541"><ele>251.33333333333334</ele><time>2026-03-17T16:35:52.001Z</time></trkpt><trkpt lat="43.588896991343546" lon="3.2514462540800344"><ele>251.66666666666669</ele><time>2026-03-17T16:35:53.001Z</time></trkpt><trkpt lat="43.58896767797646" lon="3.2514478130416644"><ele>252.0</ele><time>2026-03-17T16:35:54.001Z</time></trkpt><trkpt lat="43.58904328641532" lon="3.251469811424698"><ele>252.33333333333331</ele><time>2026-03-17T16:35:55.001Z</time></trkpt><trkpt lat="43.58912312939041" lon="3.251478087408131"><ele>252.66666666666666</ele><time>2026-03-17T16:35:56.001Z</time></trkpt><trkpt lat="43.58920534056438" lon="3.2514907988925006"><ele>253.0</ele><time>2026-03-17T16:35:57.001Z</time></trkpt><trkpt lat="43.58928543959301" lon="3.2514972279732044"><ele>252.99999999999997</ele><time>2026-03-17T16:35:58.001Z</time></trkpt><trkpt lat="43.58936543172148" lon="3.251504224812534"><ele>253.0</ele><time>2026-03-17T16:35:59.001Z</time></trkpt><trkpt lat="43.589443202035596" lon="3.251498266680965"><ele>253.0</ele><time>2026-03-17T16:36:00.001Z</time></trkpt><trkpt lat="43.58951886985549" lon="3.251472487808579"><ele>253.0</ele><time>2026-03-17T16:36:01.001Z</time></trkpt><trkpt lat="43.589591856581606" lon="3.251456397307002"><ele>252.99999999999997</ele><time>2026-03-17T16:36:02.001Z</time></trkpt><trkpt lat="43.5896641256499" lon="3.2514266114899018"><ele>253.0</ele><time>2026-03-17T16:36:03.001Z</time></trkpt><trkpt lat="43.58973854785696" lon="3.251396946907347"><ele>252.4</ele><time>2026-03-17T16:36:04.001Z</time></trkpt><trkpt lat="43.58980952995802" lon="3.2513482286300768"><ele>251.8</ele><time>2026-03-17T16:36:05.001Z</time></trkpt><trkpt lat="43.58987368178476" lon="3.251268342782724"><ele>251.2</ele><time>2026-03-17T16:36:06.001Z</time></trkpt><trkpt lat="43.589942784141535" lon="3.2511873344715037"><ele>250.6</ele><time>2026-03-17T16:36:07.001Z</time></trkpt><trkpt lat="43.59001427352319" lon="3.251093998959439"><ele>250.0</ele><time>2026-03-17T16:36:08.001Z</time></trkpt><trkpt lat="43.590081349169616" lon="3.2509890186462105"><ele>250.0</ele><time>2026-03-17T16:36:09.001Z</time></trkpt><trkpt lat="43.590163187899236" lon="3.2508997205818706"><ele>250.0</ele><time>2026-03-17T16:36:10.001Z</time></trkpt><trkpt lat="43.590248478548254" lon="3.250821063244758"><ele>250.0</ele><time>2026-03-17T16:36:11.001Z</time></trkpt><trkpt lat="43.5903431822065" lon="3.250750257896467"><ele>250.0</ele><time>2026-03-17T16:36:12.001Z</time></trkpt><trkpt lat="43.59044887815305" lon="3.2506935011813125"><ele>250.0</ele><time>2026-03-17T16:36:13.001Z</time></trkpt><trkpt lat="43.590554355198385" lon="3.250644691014647"><ele>249.4</ele><time>2026-03-17T16:36:14.001Z</time></trkpt><trkpt lat="43.59065437966082" lon="3.2506147758790136"><ele>248.8</ele><time>2026-03-17T16:36:15.001Z</time></trkpt><trkpt lat="43.590756602092675" lon="3.2505972298139207"><ele>248.2</ele><time>2026-03-17T16:36:16.001Z</time></trkpt><trkpt lat="43.59086456668217" lon="3.250583815426154"><ele>247.6</ele><time>2026-03-17T16:36:17.001Z</time></trkpt><trkpt lat="43.590972718649724" lon="3.2505656630081936"><ele>247.0</ele><time>2026-03-17T16:36:18.001Z</time></trkpt><trkpt lat="43.59108847431063" lon="3.250517778703986"><ele>248.75</ele><time>2026-03-17T16:36:19.001Z</time></trkpt><trkpt lat="43.5912187270118" lon="3.2504798911908845"><ele>250.5</ele><time>2026-03-17T16:36:20.001Z</time></trkpt><trkpt lat="43.59134822136872" lon="3.250394344475091"><ele>252.25</ele><time>2026-03-17T16:36:21.001Z</time></trkpt><trkpt lat="43.59146577954259" lon="3.250279886037534"><ele>254.0</ele><time>2026-03-17T16:36:22.001Z</time></trkpt><trkpt lat="43.59159106191584" lon="3.2501789280024145"><ele>254.0</ele><time>2026-03-17T16:36:23.001Z</time></trkpt><trkpt lat="43.5917115807266" lon="3.2500583618285024"><ele>254.0</ele><time>2026-03-17T16:36:24.001Z</time></trkpt><trkpt lat="43.59182465784586" lon="3.249943933926437"><ele>254.0</ele><time>2026-03-17T16:36:25.001Z</time></trkpt><trkpt lat="43.59193216464965" lon="3.249831854944518"><ele>254.0</ele><time>2026-03-17T16:36:26.001Z</time></trkpt><trkpt lat="43.5920437068397" lon="3.2497601342993505"><ele>253.0</ele><time>2026-03-17T16:36:27.001Z</time></trkpt><trkpt lat="43.59215396020066" lon="3.2497132635602752"><ele>252.0</ele><time>2026-03-17T16:36:28.001Z</time></trkpt><trkpt lat="43.59227134273681" lon="3.249684161857517"><ele>251.0</ele><time>2026-03-17T16:36:29.001Z</time></trkpt><trkpt lat="43.592394676442055" lon="3.2496805196221623"><ele>250.0</ele><time>2026-03-17T16:36:30.001Z</time></trkpt><trkpt lat="43.592508252157124" lon="3.249671169467401"><ele>250.0</ele><time>2026-03-17T16:36:31.001Z</time></trkpt><trkpt lat="43.59261810918861" lon="3.249663856278522"><ele>250.0</ele><time>2026-03-17T16:36:32.001Z</time></trkpt><trkpt lat="43.59272073258828" lon="3.249618592424715"><ele>250.0</ele><time>2026-03-17T16:36:33.001Z</time></trkpt><trkpt lat="43.5928061042837" lon="3.249534765289106"><ele>250.0</ele><time>2026-03-17T16:36:34.001Z</time></trkpt><trkpt lat="43.59289729439881" lon="3.2494978606161546"><ele>250.0</ele><time>2026-03-17T16:36:35.001Z</time></trkpt><trkpt lat="43.59298795777076" lon="3.249520906699853"><ele>250.0</ele><time>2026-03-17T16:36:36.001Z</time></trkpt><trkpt lat="43.59308827630192" lon="3.2495212759557894"><ele>250.0</ele><time>2026-03-17T16:36:37.001Z</time></trkpt><trkpt lat="43.593191447237544" lon="3.2495616027646634"><ele>250.0</ele><time>2026-03-17T16:36:38.001Z</time></trkpt><trkpt lat="43.59327496650443" lon="3.249599069809716"><ele>250.0</ele><time>2026-03-17T16:36:39.001Z</time></trkpt><trkpt lat="43.59339119612137" lon="3.249638377488126"><ele>250.0</ele><time>2026-03-17T16:36:41.001Z</time></trkpt><trkpt lat="43.59347174816132" lon="3.249669258406716"><ele>250.0</ele><time>2026-03-17T16:36:42.001Z</time></trkpt><trkpt lat="43.59355797527233" lon="3.249709126763283"><ele>250.0</ele><time>2026-03-17T16:36:43.001Z</time></trkpt><trkpt lat="43.59365453865537" lon="3.2497705952224587"><ele>250.0</ele><time>2026-03-17T16:36:44.001Z</time></trkpt><trkpt lat="43.59375870001442" lon="3.2498540080759533"><ele>250.0</ele><time>2026-03-17T16:36:45.001Z</time></trkpt><trkpt lat="43.593871611532556" lon="3.2499614289918224"><ele>253.66666666666666</ele><time>2026-03-17T16:36:46.001Z</time></trkpt><trkpt lat="43.59399689211965" lon="3.2500782708365192"><ele>257.3333333333333</ele><time>2026-03-17T16:36:47.001Z</time></trkpt><trkpt lat="43.594135423164055" lon="3.2501955966831937"><ele>261.0</ele><time>2026-03-17T16:36:48.001Z</time></trkpt><trkpt lat="43.5942682202507" lon="3.2503112267088023"><ele>261.0</ele><time>2026-03-17T16:36:49.001Z</time></trkpt><trkpt lat="43.5943883960669" lon="3.2504044896258777"><ele>261.0</ele><time>2026-03-17T16:36:50.001Z</time></trkpt><trkpt lat="43.594494702073206" lon="3.2504819655592705"><ele>261.0</ele><time>2026-03-17T16:36:51.001Z</time></trkpt><trkpt lat="43.59459300625043" lon="3.2505523227770508"><ele>261.0</ele><time>2026-03-17T16:36:52.001Z</time></trkpt><trkpt lat="43.594696099362025" lon="3.2506241986337066"><ele>262.0</ele><time>2026-03-17T16:36:53.001Z</time></trkpt><trkpt lat="43.59479490482767" lon="3.250718625135628"><ele>263.0</ele><time>2026-03-17T16:36:54.001Z</time></trkpt><trkpt lat="43.59487415735872" lon="3.2508457793635537"><ele>264.0</ele><time>2026-03-17T16:36:55.001Z</time></trkpt><trkpt lat="43.59497630729596" lon="3.2509507699979543"><ele>265.0</ele><time>2026-03-17T16:36:56.001Z</time></trkpt><trkpt lat="43.59506951527237" lon="3.2510700318732693"><ele>265.0</ele><time>2026-03-17T16:36:57.001Z</time></trkpt><trkpt lat="43.595171148044166" lon="3.2511806196295936"><ele>265.0</ele><time>2026-03-17T16:36:58.001Z</time></trkpt><trkpt lat="43.59527929709294" lon="3.2512817582818396"><ele>265.0</ele><time>2026-03-17T16:36:59.001Z</time></trkpt><trkpt lat="43.59538432875496" lon="3.2513886334353086"><ele>265.0</ele><time>2026-03-17T16:37:00.001Z</time></trkpt><trkpt lat="43.595485330245836" lon="3.2515011611753213"><ele>267.25</ele><time>2026-03-17T16:37:01.001Z</time></trkpt><trkpt lat="43.595592382616395" lon="3.2515975237678565"><ele>269.5</ele><time>2026-03-17T16:37:02.001Z</time></trkpt><trkpt lat="43.59570303268824" lon="3.251681187394183"><ele>271.75</ele><time>2026-03-17T16:37:03.001Z</time></trkpt><trkpt lat="43.59579264819109" lon="3.251797791906677"><ele>274.0</ele><time>2026-03-17T16:37:04.001Z</time></trkpt><trkpt lat="43.59589174505107" lon="3.251900726679658"><ele>274.0</ele><time>2026-03-17T16:37:05.001Z</time></trkpt><trkpt lat="43.59598962462944" lon="3.2519957819840073"><ele>274.0</ele><time>2026-03-17T16:37:06.001Z</time></trkpt><trkpt lat="43.59606667364149" lon="3.252106428434885"><ele>274.0</ele><time>2026-03-17T16:37:07.001Z</time></trkpt><trkpt lat="43.596153300786085" lon="3.252188194093987"><ele>274.0</ele><time>2026-03-17T16:37:08.001Z</time></trkpt><trkpt lat="43.59625057131845" lon="3.2522390261086995"><ele>274.0</ele><time>2026-03-17T16:37:09.001Z</time></trkpt><trkpt lat="43.59635210561141" lon="3.2522652771910243"><ele>275.2</ele><time>2026-03-17T16:37:10.001Z</time></trkpt><trkpt lat="43.59643353253991" lon="3.2523286540774405"><ele>276.4</ele><time>2026-03-17T16:37:11.001Z</time></trkpt><trkpt lat="43.596514762402236" lon="3.2523292154927974"><ele>277.6</ele><time>2026-03-17T16:37:12.001Z</time></trkpt><trkpt lat="43.59657554051191" lon="3.2523682121197153"><ele>278.8</ele><time>2026-03-17T16:37:13Z</time></trkpt><trkpt lat="43.59666025760974" lon="3.2524370552419803"><ele>280.0</ele><time>2026-03-17T16:37:15Z</time></trkpt><trkpt lat="43.59675536340364" lon="3.252514512592827"><ele>280.0</ele><time>2026-03-17T16:37:17Z</time></trkpt><trkpt lat="43.59681847706503" lon="3.252570445083591"><ele>280.0</ele><time>2026-03-17T16:37:18Z</time></trkpt><trkpt lat="43.596875508837314" lon="3.252626523547985"><ele>280.0</ele><time>2026-03-17T16:37:19Z</time></trkpt><trkpt lat="43.59696250098463" lon="3.252738487198003"><ele>280.0</ele><time>2026-03-17T16:37:21Z</time></trkpt><trkpt lat="43.59701918772799" lon="3.25280028821581"><ele>280.0</ele><time>2026-03-17T16:37:22Z</time></trkpt><trkpt lat="43.5970815442072" lon="3.2528607092632646"><ele>280.0</ele><time>2026-03-17T16:37:23Z</time></trkpt><trkpt lat="43.5971334019789" lon="3.2529190983180287"><ele>280.14285714285717</ele><time>2026-03-17T16:37:24Z</time></trkpt><trkpt lat="43.59718473714294" lon="3.252976964415709"><ele>280.2857142857143</ele><time>2026-03-17T16:37:25Z</time></trkpt><trkpt lat="43.597233850246276" lon="3.2530410376234955"><ele>280.42857142857144</ele><time>2026-03-17T16:37:26Z</time></trkpt><trkpt lat="43.59728757410757" lon="3.253103070197801"><ele>280.57142857142856</ele><time>2026-03-17T16:37:27Z</time></trkpt><trkpt lat="43.59736372324461" lon="3.2531212584755655"><ele>280.7142857142857</ele><time>2026-03-17T16:37:28Z</time></trkpt><trkpt lat="43.597422659031345" lon="3.2531789186778264"><ele>280.8571428571429</ele><time>2026-03-17T16:37:29Z</time></trkpt><trkpt lat="43.597494732139715" lon="3.253210785051964"><ele>281.0</ele><time>2026-03-17T16:37:30Z</time></trkpt><trkpt lat="43.59755772341173" lon="3.253247211755898"><ele>281.0</ele><time>2026-03-17T16:37:31Z</time></trkpt><trkpt lat="43.59761997655719" lon="3.253293204607617"><ele>281.0</ele><time>2026-03-17T16:37:32Z</time></trkpt><trkpt lat="43.597663928863604" lon="3.253359466276114"><ele>281.0</ele><time>2026-03-17T16:37:33Z</time></trkpt><trkpt lat="43.59770769934358" lon="3.2534256049153214"><ele>281.0</ele><time>2026-03-17T16:37:34Z</time></trkpt><trkpt lat="43.59775153613651" lon="3.2534883157884695"><ele>281.0</ele><time>2026-03-17T16:37:35Z</time></trkpt><trkpt lat="43.59786311159265" lon="3.253564294842739"><ele>281.0</ele><time>2026-03-17T16:37:37Z</time></trkpt><trkpt lat="43.59793672211491" lon="3.2535770810573448"><ele>279.0</ele><time>2026-03-17T16:37:38Z</time></trkpt><trkpt lat="43.59801576689107" lon="3.2535815017597844"><ele>277.0</ele><time>2026-03-17T16:37:39Z</time></trkpt><trkpt lat="43.59809434073026" lon="3.2535842341890735"><ele>275.0</ele><time>2026-03-17T16:37:40Z</time></trkpt><trkpt lat="43.598163733526654" lon="3.2536111100683343"><ele>273.0</ele><time>2026-03-17T16:37:41Z</time></trkpt><trkpt lat="43.59823403260946" lon="3.253656505142196"><ele>271.0</ele><time>2026-03-17T16:37:42Z</time></trkpt><trkpt lat="43.5983042168213" lon="3.253699352958858"><ele>269.0</ele><time>2026-03-17T16:37:43Z</time></trkpt><trkpt lat="43.59837974447106" lon="3.253742332318348"><ele>269.0</ele><time>2026-03-17T16:37:44Z</time></trkpt><trkpt lat="43.5984546213895" lon="3.2537845579091025"><ele>269.0</ele><time>2026-03-17T16:37:45Z</time></trkpt><trkpt lat="43.59851812961259" lon="3.253830853945127"><ele>269.0</ele><time>2026-03-17T16:37:46Z</time></trkpt><trkpt lat="43.59858614838781" lon="3.2538898458334526"><ele>269.0</ele><time>2026-03-17T16:37:47Z</time></trkpt><trkpt lat="43.59865441028867" lon="3.253948903065707"><ele>269.0</ele><time>2026-03-17T16:37:48Z</time></trkpt><trkpt lat="43.598729799342586" lon="3.254007903197428"><ele>269.0</ele><time>2026-03-17T16:37:49Z</time></trkpt><trkpt lat="43.59880327566068" lon="3.2540405326629975"><ele>269.2</ele><time>2026-03-17T16:37:50Z</time></trkpt><trkpt lat="43.59887825118413" lon="3.2541039566905208"><ele>269.4</ele><time>2026-03-17T16:37:51Z</time></trkpt><trkpt lat="43.59896035078667" lon="3.254159313282333"><ele>269.6</ele><time>2026-03-17T16:37:52Z</time></trkpt><trkpt lat="43.59904673133556" lon="3.254213506473355"><ele>269.8</ele><time>2026-03-17T16:37:53Z</time></trkpt><trkpt lat="43.599131557893934" lon="3.2542602346821075"><ele>270.0</ele><time>2026-03-17T16:37:54Z</time></trkpt><trkpt lat="43.59921203231302" lon="3.254300889632807"><ele>270.0</ele><time>2026-03-17T16:37:55Z</time></trkpt><trkpt lat="43.59930327903207" lon="3.2543315786232068"><ele>270.0</ele><time>2026-03-17T16:37:56Z</time></trkpt><trkpt lat="43.599385682057" lon="3.2543693432953584"><ele>270.0</ele><time>2026-03-17T16:37:57Z</time></trkpt><trkpt lat="43.599466368595195" lon="3.254404289808674"><ele>270.0</ele><time>2026-03-17T16:37:58Z</time></trkpt><trkpt lat="43.59954573724996" lon="3.2544372954257117"><ele>270.0</ele><time>2026-03-17T16:37:59Z</time></trkpt><trkpt lat="43.599624905955054" lon="3.254473524071064"><ele>270.0</ele><time>2026-03-17T16:38:00Z</time></trkpt><trkpt lat="43.59969739074275" lon="3.2545314822475904"><ele>269.1666666666667</ele><time>2026-03-17T16:38:01Z</time></trkpt><trkpt lat="43.59978142123247" lon="3.2545782260030505"><ele>268.3333333333333</ele><time>2026-03-17T16:38:02Z</time></trkpt><trkpt lat="43.59985424821408" lon="3.254651596835717"><ele>267.5</ele><time>2026-03-17T16:38:03Z</time></trkpt><trkpt lat="43.599928673546465" lon="3.2547202084041027"><ele>266.66666666666663</ele><time>2026-03-17T16:38:04Z</time></trkpt><trkpt lat="43.60001057719557" lon="3.2547607103325693"><ele>265.8333333333333</ele><time>2026-03-17T16:38:05Z</time></trkpt><trkpt lat="43.60008991490744" lon="3.2548014838564967"><ele>265.0</ele><time>2026-03-17T16:38:06Z</time></trkpt><trkpt lat="43.60016292714041" lon="3.254833851597809"><ele>266.3333333333333</ele><time>2026-03-17T16:38:07Z</time></trkpt><trkpt lat="43.60023031238572" lon="3.2548710376831567"><ele>267.66666666666663</ele><time>2026-03-17T16:38:08Z</time></trkpt><trkpt lat="43.600292325251" lon="3.254909579896389"><ele>269.0</ele><time>2026-03-17T16:38:09Z</time></trkpt><trkpt lat="43.60035392524745" lon="3.2549475415622853"><ele>270.3333333333333</ele><time>2026-03-17T16:38:10Z</time></trkpt><trkpt lat="43.60041480386065" lon="3.254979458546078"><ele>271.6666666666667</ele><time>2026-03-17T16:38:11Z</time></trkpt><trkpt lat="43.600504957315785" lon="3.254979922307644"><ele>273.0</ele><time>2026-03-17T16:38:13Z</time></trkpt><trkpt lat="43.60060144915884" lon="3.2549408969352256"><ele>273.0</ele><time>2026-03-17T16:38:15Z</time></trkpt><trkpt lat="43.600642820326186" lon="3.254809003355925"><ele>273.0</ele><time>2026-03-17T16:38:17Z</time></trkpt><trkpt lat="43.600655532004126" lon="3.2547155547563613"><ele>273.0</ele><time>2026-03-17T16:38:19Z</time></trkpt><trkpt lat="43.60060307764893" lon="3.2546134183127995"><ele>273.0</ele><time>2026-03-17T16:38:21Z</time></trkpt><trkpt lat="43.60050210539537" lon="3.2545318513180375"><ele>273.0</ele><time>2026-03-17T16:38:23Z</time></trkpt><trkpt lat="43.600433269726985" lon="3.254427665240811"><ele>273.2</ele><time>2026-03-17T16:38:25Z</time></trkpt><trkpt lat="43.600362801561744" lon="3.2542970197795014"><ele>273.4</ele><time>2026-03-17T16:38:27Z</time></trkpt><trkpt lat="43.60035520577078" lon="3.2542035218865095"><ele>273.59999999999997</ele><time>2026-03-17T16:38:28Z</time></trkpt><trkpt lat="43.60036812896857" lon="3.2540483926548998"><ele>273.8</ele><time>2026-03-17T16:38:30Z</time></trkpt><trkpt lat="43.600436573758714" lon="3.2539336511311827"><ele>274.0</ele><time>2026-03-17T16:38:32Z</time></trkpt><trkpt lat="43.6005514412078" lon="3.2538720793022655"><ele>274.0</ele><time>2026-03-17T16:38:34Z</time></trkpt><trkpt lat="43.60060073177297" lon="3.2538024331686124"><ele>274.0</ele><time>2026-03-17T16:38:35Z</time></trkpt><trkpt lat="43.60066059670082" lon="3.2537472266605656"><ele>274.0</ele><time>2026-03-17T16:38:36Z</time></trkpt><trkpt lat="43.60072909930448" lon="3.2537054947287403"><ele>274.0</ele><time>2026-03-17T16:38:37Z</time></trkpt><trkpt lat="43.60078617811248" lon="3.253646366215754"><ele>274.0</ele><time>2026-03-17T16:38:38Z</time></trkpt><trkpt lat="43.600849576516005" lon="3.2535767875569257"><ele>274.0</ele><time>2026-03-17T16:38:39Z</time></trkpt><trkpt lat="43.600914669485206" lon="3.25349712944727"><ele>274.0</ele><time>2026-03-17T16:38:40Z</time></trkpt><trkpt lat="43.600978249612965" lon="3.253407188318408"><ele>274.0</ele><time>2026-03-17T16:38:41Z</time></trkpt><trkpt lat="43.601025723650814" lon="3.253307627441149"><ele>274.0</ele><time>2026-03-17T16:38:42Z</time></trkpt><trkpt lat="43.60108161188996" lon="3.2532153129466925"><ele>274.0</ele><time>2026-03-17T16:38:43Z</time></trkpt><trkpt lat="43.601141638886475" lon="3.2531133255190063"><ele>274.0</ele><time>2026-03-17T16:38:44Z</time></trkpt><trkpt lat="43.60120662945166" lon="3.252997957985407"><ele>275.59999999999997</ele><time>2026-03-17T16:38:45Z</time></trkpt><trkpt lat="43.6012741011694" lon="3.2528829078517676"><ele>277.2</ele><time>2026-03-17T16:38:46Z</time></trkpt><trkpt lat="43.60134218684833" lon="3.2527728216828913"><ele>278.79999999999995</ele><time>2026-03-17T16:38:47Z</time></trkpt><trkpt lat="43.60140137895848" lon="3.252658288496535"><ele>280.4</ele><time>2026-03-17T16:38:48Z</time></trkpt><trkpt lat="43.60146237373177" lon="3.2525464123745578"><ele>282.0</ele><time>2026-03-17T16:38:49Z</time></trkpt><trkpt lat="43.601519940229956" lon="3.252440121361136"><ele>282.0</ele><time>2026-03-17T16:38:50Z</time></trkpt><trkpt lat="43.60158395914584" lon="3.2523436178444265"><ele>282.0</ele><time>2026-03-17T16:38:51Z</time></trkpt><trkpt lat="43.60165076961775" lon="3.2522577231302314"><ele>282.0</ele><time>2026-03-17T16:38:52Z</time></trkpt><trkpt lat="43.601718290080804" lon="3.2521795382238494"><ele>282.0</ele><time>2026-03-17T16:38:53Z</time></trkpt><trkpt lat="43.601775669144835" lon="3.2521197593426865"><ele>282.0</ele><time>2026-03-17T16:38:54Z</time></trkpt><trkpt lat="43.60182284636997" lon="3.252059271727541"><ele>282.0</ele><time>2026-03-17T16:38:55Z</time></trkpt><trkpt lat="43.6018999528032" lon="3.251960586513867"><ele>281.6</ele><time>2026-03-17T16:38:57Z</time></trkpt><trkpt lat="43.60194016966824" lon="3.2518662663534985"><ele>281.2</ele><time>2026-03-17T16:38:59Z</time></trkpt><trkpt lat="43.60191160002548" lon="3.251725806655925"><ele>280.8</ele><time>2026-03-17T16:39:01Z</time></trkpt><trkpt lat="43.601836708374655" lon="3.251589499405214"><ele>280.4</ele><time>2026-03-17T16:39:03Z</time></trkpt><trkpt lat="43.60179881204592" lon="3.25144627370337"><ele>280.0</ele><time>2026-03-17T16:39:05Z</time></trkpt><trkpt lat="43.601814433171" lon="3.251287225631927"><ele>280.0</ele><time>2026-03-17T16:39:07Z</time></trkpt><trkpt lat="43.60182549087752" lon="3.2511785951642738"><ele>280.0</ele><time>2026-03-17T16:39:08Z</time></trkpt><trkpt lat="43.60184472768481" lon="3.251062768307412"><ele>280.0</ele><time>2026-03-17T16:39:09Z</time></trkpt><trkpt lat="43.60186509510848" lon="3.250935640202426"><ele>280.0</ele><time>2026-03-17T16:39:10Z</time></trkpt><trkpt lat="43.60188800589508" lon="3.2508013479276094"><ele>280.0</ele><time>2026-03-17T16:39:11Z</time></trkpt><trkpt lat="43.60190803709918" lon="3.2506663236141056"><ele>280.6</ele><time>2026-03-17T16:39:12Z</time></trkpt><trkpt lat="43.601928550935995" lon="3.2505300033479294"><ele>281.2</ele><time>2026-03-17T16:39:13Z</time></trkpt><trkpt lat="43.601946943908" lon="3.250397647333045"><ele>281.8</ele><time>2026-03-17T16:39:14Z</time></trkpt><trkpt lat="43.601967768192175" lon="3.2502642661544288"><ele>282.4</ele><time>2026-03-17T16:39:15Z</time></trkpt><trkpt lat="43.60198771900171" lon="3.2501515278460436"><ele>283.0</ele><time>2026-03-17T16:39:16Z</time></trkpt><trkpt lat="43.60200859776586" lon="3.250054078426232"><ele>283.16666666666663</ele><time>2026-03-17T16:39:17Z</time></trkpt><trkpt lat="43.60203332084416" lon="3.2499668769484993"><ele>283.3333333333333</ele><time>2026-03-17T16:39:18Z</time></trkpt><trkpt lat="43.602067489891816" lon="3.249886674991721"><ele>283.5</ele><time>2026-03-17T16:39:19Z</time></trkpt><trkpt lat="43.60211906317064" lon="3.249806749695314"><ele>283.6666666666667</ele><time>2026-03-17T16:39:20Z</time></trkpt><trkpt lat="43.60218266257035" lon="3.249727228207778"><ele>283.83333333333337</ele><time>2026-03-17T16:39:21Z</time></trkpt><trkpt lat="43.602246287105686" lon="3.249641600461174"><ele>284.0</ele><time>2026-03-17T16:39:22Z</time></trkpt><trkpt lat="43.60230925603392" lon="3.2495370602553972"><ele>284.0</ele><time>2026-03-17T16:39:23Z</time></trkpt><trkpt lat="43.60237293600252" lon="3.249433592314124"><ele>284.0</ele><time>2026-03-17T16:39:24Z</time></trkpt><trkpt lat="43.60243395042695" lon="3.2493377789046733"><ele>284.0</ele><time>2026-03-17T16:39:25Z</time></trkpt><trkpt lat="43.60249293173331" lon="3.249261466577707"><ele>284.0</ele><time>2026-03-17T16:39:26Z</time></trkpt><trkpt lat="43.60253805924402" lon="3.249187535549242"><ele>284.0</ele><time>2026-03-17T16:39:27Z</time></trkpt><trkpt lat="43.60260101801385" lon="3.249159797274417"><ele>284.0</ele><time>2026-03-17T16:39:28Z</time></trkpt><trkpt lat="43.60267722926901" lon="3.249045910895614"><ele>284.0</ele><time>2026-03-17T16:39:30Z</time></trkpt><trkpt lat="43.60269145029115" lon="3.2488808868887484"><ele>284.0</ele><time>2026-03-17T16:39:32Z</time></trkpt><trkpt lat="43.60267067154567" lon="3.24879601801365"><ele>284.0</ele><time>2026-03-17T16:39:33Z</time></trkpt><trkpt lat="43.60265820974335" lon="3.2486912422189276"><ele>284.0</ele><time>2026-03-17T16:39:34Z</time></trkpt><trkpt lat="43.602647616309525" lon="3.24856503126052"><ele>284.0</ele><time>2026-03-17T16:39:35Z</time></trkpt><trkpt lat="43.60263318564501" lon="3.2484328137755707"><ele>284.0</ele><time>2026-03-17T16:39:36Z</time></trkpt><trkpt lat="43.60261719678424" lon="3.2482903188723418"><ele>284.0</ele><time>2026-03-17T16:39:37Z</time></trkpt><trkpt lat="43.602610789765755" lon="3.248149832129843"><ele>284.0</ele><time>2026-03-17T16:39:38Z</time></trkpt><trkpt lat="43.60261740024274" lon="3.2480388578240076"><ele>284.0</ele><time>2026-03-17T16:39:39Z</time></trkpt><trkpt lat="43.60263377735066" lon="3.247933377106522"><ele>284.0</ele><time>2026-03-17T16:39:40Z</time></trkpt><trkpt lat="43.602664954586125" lon="3.247825191796807"><ele>284.0</ele><time>2026-03-17T16:39:41Z</time></trkpt><trkpt lat="43.60270428735842" lon="3.2477137721400586"><ele>285.0</ele><time>2026-03-17T16:39:42Z</time></trkpt><trkpt lat="43.602745012363904" lon="3.2475970768849605"><ele>286.0</ele><time>2026-03-17T16:39:43Z</time></trkpt><trkpt lat="43.602782076124996" lon="3.247481444397625"><ele>287.0</ele><time>2026-03-17T16:39:44Z</time></trkpt><trkpt lat="43.602808529856965" lon="3.247382396591731"><ele>288.0</ele><time>2026-03-17T16:39:45Z</time></trkpt><trkpt lat="43.60284046634535" lon="3.247228163628606"><ele>289.0</ele><time>2026-03-17T16:39:47Z</time></trkpt><trkpt lat="43.602849731045126" lon="3.247080297973686"><ele>289.0</ele><time>2026-03-17T16:39:49Z</time></trkpt><trkpt lat="43.602833179840815" lon="3.2469144214293015"><ele>289.0</ele><time>2026-03-17T16:39:51Z</time></trkpt><trkpt lat="43.602817976147065" lon="3.246823393113249"><ele>289.0</ele><time>2026-03-17T16:39:52Z</time></trkpt><trkpt lat="43.60279145105247" lon="3.246732347792892"><ele>289.0</ele><time>2026-03-17T16:39:53Z</time></trkpt><trkpt lat="43.602757664539745" lon="3.246639571427704"><ele>289.0</ele><time>2026-03-17T16:39:54Z</time></trkpt><trkpt lat="43.60273287146128" lon="3.246552320472144"><ele>289.0</ele><time>2026-03-17T16:39:55Z</time></trkpt><trkpt lat="43.602697294105766" lon="3.246418266491459"><ele>289.5</ele><time>2026-03-17T16:39:57Z</time></trkpt><trkpt lat="43.60266767165142" lon="3.2462723371952142"><ele>290.0</ele><time>2026-03-17T16:39:59Z</time></trkpt><trkpt lat="43.60266248690464" lon="3.2461821468081142"><ele>290.5</ele><time>2026-03-17T16:40:00Z</time></trkpt><trkpt lat="43.60266826770319" lon="3.2460843419940573"><ele>291.0</ele><time>2026-03-17T16:40:01Z</time></trkpt><trkpt lat="43.60267319879495" lon="3.2459738245386176"><ele>291.5</ele><time>2026-03-17T16:40:02Z</time></trkpt><trkpt lat="43.60267956330301" lon="3.245876235857352"><ele>292.0</ele><time>2026-03-17T16:40:03Z</time></trkpt><trkpt lat="43.60271253011993" lon="3.2457424710267206"><ele>292.8</ele><time>2026-03-17T16:40:05Z</time></trkpt><trkpt lat="43.602783240282704" lon="3.2456205252301635"><ele>293.6</ele><time>2026-03-17T16:40:07Z</time></trkpt><trkpt lat="43.602850061396495" lon="3.245588424969914"><ele>294.40000000000003</ele><time>2026-03-17T16:40:08Z</time></trkpt><trkpt lat="43.60289761138423" lon="3.245469497777488"><ele>295.2</ele><time>2026-03-17T16:40:10Z</time></trkpt><trkpt lat="43.602920453433306" lon="3.2453173662702732"><ele>296.0</ele><time>2026-03-17T16:40:12Z</time></trkpt><trkpt lat="43.602915727518074" lon="3.245223360688055"><ele>296.0</ele><time>2026-03-17T16:40:13Z</time></trkpt><trkpt lat="43.602901598617066" lon="3.2451373756487283"><ele>296.0</ele><time>2026-03-17T16:40:14Z</time></trkpt><trkpt lat="43.602869250256624" lon="3.245046741149875"><ele>296.0</ele><time>2026-03-17T16:40:15Z</time></trkpt><trkpt lat="43.602818764244375" lon="3.244959565273719"><ele>296.0</ele><time>2026-03-17T16:40:16Z</time></trkpt><trkpt lat="43.602761476009704" lon="3.244881380534684"><ele>296.0</ele><time>2026-03-17T16:40:17Z</time></trkpt><trkpt lat="43.60271661659611" lon="3.244809472855877"><ele>296.0</ele><time>2026-03-17T16:40:18Z</time></trkpt><trkpt lat="43.60269392147724" lon="3.2446709530000795"><ele>296.0</ele><time>2026-03-17T16:40:20Z</time></trkpt><trkpt lat="43.60272255709677" lon="3.2445161246698038"><ele>296.0</ele><time>2026-03-17T16:40:22Z</time></trkpt><trkpt lat="43.602754176823396" lon="3.2444168609915156"><ele>296.0</ele><time>2026-03-17T16:40:23Z</time></trkpt><trkpt lat="43.602800737747074" lon="3.2443197771546144"><ele>296.0</ele><time>2026-03-17T16:40:24Z</time></trkpt><trkpt lat="43.60287321433724" lon="3.244238195570685"><ele>296.0</ele><time>2026-03-17T16:40:25Z</time></trkpt><trkpt lat="43.6029295256023" lon="3.2441277237857"><ele>296.0</ele><time>2026-03-17T16:40:26Z</time></trkpt><trkpt lat="43.60298437488263" lon="3.24400035302465"><ele>296.0</ele><time>2026-03-17T16:40:27Z</time></trkpt><trkpt lat="43.603037504701994" lon="3.243874086338659"><ele>296.0</ele><time>2026-03-17T16:40:28Z</time></trkpt><trkpt lat="43.6030983144887" lon="3.2437395608791397"><ele>296.0</ele><time>2026-03-17T16:40:29Z</time></trkpt><trkpt lat="43.603161490172205" lon="3.243612038849077"><ele>296.0</ele><time>2026-03-17T16:40:30Z</time></trkpt><trkpt lat="43.60321750376852" lon="3.243484677224896"><ele>296.0</ele><time>2026-03-17T16:40:31Z</time></trkpt><trkpt lat="43.60327097407785" lon="3.2433699770710214"><ele>296.0</ele><time>2026-03-17T16:40:32Z</time></trkpt><trkpt lat="43.603329584366705" lon="3.243264695421753"><ele>296.0</ele><time>2026-03-17T16:40:33Z</time></trkpt><trkpt lat="43.603399992202995" lon="3.2431672023511977"><ele>296.0</ele><time>2026-03-17T16:40:34Z</time></trkpt><trkpt lat="43.603474644593675" lon="3.2430693472901604"><ele>296.0</ele><time>2026-03-17T16:40:35Z</time></trkpt><trkpt lat="43.603554111008236" lon="3.2429680537066923"><ele>297.0</ele><time>2026-03-17T16:40:36Z</time></trkpt><trkpt lat="43.60363716024833" lon="3.2428634464111803"><ele>298.0</ele><time>2026-03-17T16:40:37Z</time></trkpt><trkpt lat="43.60372703148027" lon="3.2427872680165306"><ele>299.0</ele><time>2026-03-17T16:40:38Z</time></trkpt><trkpt lat="43.60379852486503" lon="3.2427122593572153"><ele>300.0</ele><time>2026-03-17T16:40:39Z</time></trkpt><trkpt lat="43.60386378953719" lon="3.242637118595723"><ele>301.0</ele><time>2026-03-17T16:40:40Z</time></trkpt><trkpt lat="43.60391414046046" lon="3.242554736659413"><ele>301.0</ele><time>2026-03-17T16:40:41Z</time></trkpt><trkpt lat="43.603963474512796" lon="3.2424938862110317"><ele>301.0</ele><time>2026-03-17T16:40:42Z</time></trkpt><trkpt lat="43.60401314498765" lon="3.2423354748230797"><ele>301.0</ele><time>2026-03-17T16:40:44Z</time></trkpt><trkpt lat="43.60400136995902" lon="3.242159552127909"><ele>301.0</ele><time>2026-03-17T16:40:46Z</time></trkpt><trkpt lat="43.603972371470505" lon="3.2420728953721856"><ele>301.0</ele><time>2026-03-17T16:40:47Z</time></trkpt><trkpt lat="43.60393128508503" lon="3.2419893135111075"><ele>302.3333333333333</ele><time>2026-03-17T16:40:48Z</time></trkpt><trkpt lat="43.603886225530275" lon="3.2418984007704728"><ele>303.66666666666663</ele><time>2026-03-17T16:40:49Z</time></trkpt><trkpt lat="43.60383972625156" lon="3.2418156273006367"><ele>305.0</ele><time>2026-03-17T16:40:50Z</time></trkpt><trkpt lat="43.60380949529017" lon="3.241737571903314"><ele>306.3333333333333</ele><time>2026-03-17T16:40:51Z</time></trkpt><trkpt lat="43.603796578218635" lon="3.241640755373146"><ele>307.6666666666667</ele><time>2026-03-17T16:40:52Z</time></trkpt><trkpt lat="43.60381294976746" lon="3.241504814134063"><ele>309.0</ele><time>2026-03-17T16:40:54Z</time></trkpt><trkpt lat="43.603836059547056" lon="3.2413604797481033"><ele>310.0</ele><time>2026-03-17T16:40:56Z</time></trkpt><trkpt lat="43.6037871019876" lon="3.2412448697625607"><ele>311.0</ele><time>2026-03-17T16:40:58Z</time></trkpt><trkpt lat="43.60368619356082" lon="3.2412278521121825"><ele>312.0</ele><time>2026-03-17T16:41:00Z</time></trkpt><trkpt lat="43.60360591293611" lon="3.241316193157332"><ele>313.0</ele><time>2026-03-17T16:41:02Z</time></trkpt><trkpt lat="43.6035592494941" lon="3.2413848941132164"><ele>314.0</ele><time>2026-03-17T16:41:03Z</time></trkpt><trkpt lat="43.60349661231423" lon="3.241445292712109"><ele>315.0</ele><time>2026-03-17T16:41:04Z</time></trkpt><trkpt lat="43.60344295031531" lon="3.2415288264173974"><ele>315.0</ele><time>2026-03-17T16:41:05Z</time></trkpt><trkpt lat="43.60336220380408" lon="3.241572129182539"><ele>315.0</ele><time>2026-03-17T16:41:06Z</time></trkpt><trkpt lat="43.603284870791526" lon="3.2416302432881485"><ele>315.0</ele><time>2026-03-17T16:41:07Z</time></trkpt><trkpt lat="43.60320137877354" lon="3.2417064495396835"><ele>315.0</ele><time>2026-03-17T16:41:08Z</time></trkpt><trkpt lat="43.60310640062255" lon="3.2417669700343605"><ele>315.0</ele><time>2026-03-17T16:41:09Z</time></trkpt><trkpt lat="43.603005400046946" lon="3.2418330387627754"><ele>315.0</ele><time>2026-03-17T16:41:10Z</time></trkpt><trkpt lat="43.602897316818435" lon="3.2418947831265847"><ele>315.0</ele><time>2026-03-17T16:41:11Z</time></trkpt><trkpt lat="43.60279154288057" lon="3.2419609219606813"><ele>315.0</ele><time>2026-03-17T16:41:12Z</time></trkpt><trkpt lat="43.60268738907071" lon="3.242025576652542"><ele>315.0</ele><time>2026-03-17T16:41:13Z</time></trkpt><trkpt lat="43.60258653396579" lon="3.2420884204345177"><ele>316.8</ele><time>2026-03-17T16:41:14Z</time></trkpt><trkpt lat="43.602497935317004" lon="3.2421832566367073"><ele>318.6</ele><time>2026-03-17T16:41:15Z</time></trkpt><trkpt lat="43.602409895828295" lon="3.2422872203947852"><ele>320.4</ele><time>2026-03-17T16:41:16Z</time></trkpt><trkpt lat="43.602328228834985" lon="3.242392754420516"><ele>322.2</ele><time>2026-03-17T16:41:17Z</time></trkpt><trkpt lat="43.6022525359549" lon="3.2424765419085175"><ele>324.0</ele><time>2026-03-17T16:41:18Z</time></trkpt><trkpt lat="43.60221517299274" lon="3.242607067502558"><ele>324.0</ele><time>2026-03-17T16:41:19Z</time></trkpt><trkpt lat="43.602172594900914" lon="3.2427350075546095"><ele>324.0</ele><time>2026-03-17T16:41:20Z</time></trkpt><trkpt lat="43.60213166916322" lon="3.242867419305159"><ele>324.0</ele><time>2026-03-17T16:41:21Z</time></trkpt><trkpt lat="43.60208614475997" lon="3.2430068733119537"><ele>324.0</ele><time>2026-03-17T16:41:22Z</time></trkpt><trkpt lat="43.60202149336504" lon="3.2431269480488396"><ele>324.0</ele><time>2026-03-17T16:41:23Z</time></trkpt><trkpt lat="43.60197606767818" lon="3.2432495822294234"><ele>326.4</ele><time>2026-03-17T16:41:24Z</time></trkpt><trkpt lat="43.60191733755939" lon="3.2433565734007646"><ele>328.79999999999995</ele><time>2026-03-17T16:41:25Z</time></trkpt><trkpt lat="43.60185353240793" lon="3.243458278277242"><ele>331.20000000000005</ele><time>2026-03-17T16:41:26Z</time></trkpt><trkpt lat="43.60178301853632" lon="3.243551758691256"><ele>333.6</ele><time>2026-03-17T16:41:27Z</time></trkpt><trkpt lat="43.60170956115798" lon="3.2436376237513964"><ele>336.0</ele><time>2026-03-17T16:41:28Z</time></trkpt><trkpt lat="43.60164172932983" lon="3.243701154788387"><ele>336.0</ele><time>2026-03-17T16:41:29Z</time></trkpt><trkpt lat="43.60154654686587" lon="3.2437837655762163"><ele>336.0</ele><time>2026-03-17T16:41:31Z</time></trkpt><trkpt lat="43.60148234645133" lon="3.243803589958082"><ele>336.0</ele><time>2026-03-17T16:41:33Z</time></trkpt><trkpt lat="43.60143133017553" lon="3.243744803307881"><ele>336.0</ele><time>2026-03-17T16:41:36Z</time></trkpt><trkpt lat="43.60145454954518" lon="3.2436383748066113"><ele>336.0</ele><time>2026-03-17T16:41:42Z</time></trkpt><trkpt lat="43.6015154061634" lon="3.24349098131384"><ele>336.0</ele><time>2026-03-17T16:41:44Z</time></trkpt><trkpt lat="43.601542951118205" lon="3.2433892070755492"><ele>336.0</ele><time>2026-03-17T16:41:45Z</time></trkpt><trkpt lat="43.60156558245584" lon="3.243300045243393"><ele>336.0</ele><time>2026-03-17T16:41:46Z</time></trkpt><trkpt lat="43.60158853914082" lon="3.2432153024922314"><ele>336.0</ele><time>2026-03-17T16:41:47Z</time></trkpt><trkpt lat="43.60160553617389" lon="3.243126869711087"><ele>336.0</ele><time>2026-03-17T16:41:48Z</time></trkpt><trkpt lat="43.601626456977414" lon="3.2429873102660984"><ele>336.0</ele><time>2026-03-17T16:41:50Z</time></trkpt><trkpt lat="43.60164618723763" lon="3.2429027016842196"><ele>336.0</ele><time>2026-03-17T16:41:53Z</time></trkpt><trkpt lat="43.60153837469992" lon="3.2428712054017597"><ele>335.6666666666667</ele><time>2026-03-17T16:41:55Z</time></trkpt><trkpt lat="43.60145301662361" lon="3.2428009242617244"><ele>335.3333333333333</ele><time>2026-03-17T16:41:57Z</time></trkpt><trkpt lat="43.601399659968656" lon="3.24275218771738"><ele>335.0</ele><time>2026-03-17T16:41:58Z</time></trkpt><trkpt lat="43.601333048906476" lon="3.242698424157066"><ele>334.66666666666663</ele><time>2026-03-17T16:42:00Z</time></trkpt><trkpt lat="43.60123869080978" lon="3.242643553507648"><ele>334.3333333333333</ele><time>2026-03-17T16:42:03Z</time></trkpt><trkpt lat="43.60116567026735" lon="3.242592220109997"><ele>334.0</ele><time>2026-03-17T16:42:05Z</time></trkpt><trkpt lat="43.60113732008942" lon="3.242487491435237"><ele>334.0</ele><time>2026-03-17T16:42:07Z</time></trkpt><trkpt lat="43.60112117837112" lon="3.2423822697348768"><ele>334.0</ele><time>2026-03-17T16:42:09Z</time></trkpt><trkpt lat="43.60112536843429" lon="3.24226707200266"><ele>334.0</ele><time>2026-03-17T16:42:12Z</time></trkpt><trkpt lat="43.60117347323532" lon="3.242197038958763"><ele>334.0</ele><time>2026-03-17T16:42:15Z</time></trkpt><trkpt lat="43.60122037634238" lon="3.2421070624892607"><ele>334.0</ele><time>2026-03-17T16:42:28Z</time></trkpt><trkpt lat="43.60118815696929" lon="3.242030549480164"><ele>334.0</ele><time>2026-03-17T16:42:29Z</time></trkpt><trkpt lat="43.60117806941449" lon="3.2419363658315934"><ele>334.0</ele><time>2026-03-17T16:42:33Z</time></trkpt><trkpt lat="43.60118314838076" lon="3.242032041000658"><ele>348.0</ele><time>2026-03-17T16:46:35Z</time></trkpt><trkpt lat="43.601095055151326" lon="3.2420637715048057"><ele>331.0</ele><time>2026-03-17T16:47:32Z</time></trkpt></trkseg><trkseg><trkpt lat="43.601103260987124" lon="3.242033970608671"><ele>345.3</ele><time>2026-03-25T11:28:16Z</time></trkpt></trkseg><trkseg><trkpt lat="43.601193990661066" lon="3.2418989515018493"><ele>348.0</ele><time>2026-03-25T11:39:57.999Z</time></trkpt><trkpt lat="43.60120473536376" lon="3.2420158457344725"><ele>348.0</ele><time>2026-03-25T11:40:15Z</time></trkpt><trkpt lat="43.601178238195914" lon="3.2421220828188484"><ele>348.0</ele><time>2026-03-25T11:40:18Z</time></trkpt><trkpt lat="43.601141446763734" lon="3.242241961656551"><ele>348.0</ele><time>2026-03-25T11:42:15.999Z</time></trkpt><trkpt lat="43.601124013471754" lon="3.2423499801979396"><ele>348.0</ele><time>2026-03-25T11:42:17.999Z</time></trkpt><trkpt lat="43.601133996318026" lon="3.2424551800678056"><ele>348.0</ele><time>2026-03-25T11:42:19.999Z</time></trkpt><trkpt lat="43.60118039753924" lon="3.2425567700119973"><ele>347.2</ele><time>2026-03-25T11:42:22Z</time></trkpt><trkpt lat="43.60122610930626" lon="3.2426670593819464"><ele>346.4</ele><time>2026-03-25T11:42:24Z</time></trkpt><trkpt lat="43.601307392656494" lon="3.242727380034105"><ele>345.59999999999997</ele><time>2026-03-25T11:42:26Z</time></trkpt><trkpt lat="43.601391933462786" lon="3.242788436021366"><ele>344.79999999999995</ele><time>2026-03-25T11:42:28Z</time></trkpt><trkpt lat="43.601492763001716" lon="3.2428662312666705"><ele>344.0</ele><time>2026-03-25T11:42:30Z</time></trkpt><trkpt lat="43.601565785212394" lon="3.242910585770063"><ele>344.0</ele><time>2026-03-25T11:42:32Z</time></trkpt><trkpt lat="43.60165211763313" lon="3.242841538199214"><ele>344.0</ele><time>2026-03-25T11:42:35Z</time></trkpt><trkpt lat="43.60168456152065" lon="3.2427483474991727"><ele>344.0</ele><time>2026-03-25T11:42:36Z</time></trkpt><trkpt lat="43.60170175479282" lon="3.242655449431159"><ele>344.0</ele><time>2026-03-25T11:42:37Z</time></trkpt><trkpt lat="43.6017299813256" lon="3.2425311987291097"><ele>344.0</ele><time>2026-03-25T11:42:38Z</time></trkpt><trkpt lat="43.60175779296569" lon="3.2423949172662274"><ele>344.0</ele><time>2026-03-25T11:42:39Z</time></trkpt><trkpt lat="43.60178601985249" lon="3.2422599972236066"><ele>344.79999999999995</ele><time>2026-03-25T11:42:40Z</time></trkpt><trkpt lat="43.6018207998777" lon="3.2421231287437235"><ele>345.59999999999997</ele><time>2026-03-25T11:42:41Z</time></trkpt><trkpt lat="43.60186433797257" lon="3.2419991163466264"><ele>346.4</ele><time>2026-03-25T11:42:42Z</time></trkpt><trkpt lat="43.60191732003295" lon="3.2418834454958207"><ele>347.2</ele><time>2026-03-25T11:42:43Z</time></trkpt><trkpt lat="43.60197334518053" lon="3.241776413853412"><ele>348.0</ele><time>2026-03-25T11:42:44Z</time></trkpt><trkpt lat="43.602040726908264" lon="3.2416729761835903"><ele>348.79999999999995</ele><time>2026-03-25T11:42:45Z</time></trkpt><trkpt lat="43.60210481199889" lon="3.241574726905308"><ele>349.6</ele><time>2026-03-25T11:42:46Z</time></trkpt><trkpt lat="43.602165393167894" lon="3.2414775004170258"><ele>350.4</ele><time>2026-03-25T11:42:47Z</time></trkpt><trkpt lat="43.602233394891876" lon="3.2413759635860258"><ele>351.20000000000005</ele><time>2026-03-25T11:42:48Z</time></trkpt><trkpt lat="43.60230379828019" lon="3.241271175652927"><ele>352.0</ele><time>2026-03-25T11:42:49Z</time></trkpt><trkpt lat="43.602375981262135" lon="3.241166334359068"><ele>352.0</ele><time>2026-03-25T11:42:50Z</time></trkpt><trkpt lat="43.602449467873704" lon="3.2410558626321873"><ele>352.0</ele><time>2026-03-25T11:42:51Z</time></trkpt><trkpt lat="43.60251918069075" lon="3.240937829615483"><ele>352.0</ele><time>2026-03-25T11:42:52Z</time></trkpt><trkpt lat="43.60258956011359" lon="3.2408000897576743"><ele>352.0</ele><time>2026-03-25T11:42:53Z</time></trkpt><trkpt lat="43.60264820716029" lon="3.2406506572572904"><ele>349.25</ele><time>2026-03-25T11:42:54Z</time></trkpt><trkpt lat="43.60271207724827" lon="3.2404924013167764"><ele>346.5</ele><time>2026-03-25T11:42:55Z</time></trkpt><trkpt lat="43.60277633392002" lon="3.240328593039965"><ele>343.75</ele><time>2026-03-25T11:42:56Z</time></trkpt><trkpt lat="43.60283794868592" lon="3.2401719335934764"><ele>341.0</ele><time>2026-03-25T11:42:57Z</time></trkpt><trkpt lat="43.602896495385764" lon="3.2400099949089993"><ele>341.0</ele><time>2026-03-25T11:42:58Z</time></trkpt><trkpt lat="43.60295247828141" lon="3.23984781438823"><ele>341.0</ele><time>2026-03-25T11:42:59Z</time></trkpt><trkpt lat="43.60298758739868" lon="3.2396843877636052"><ele>341.0</ele><time>2026-03-25T11:43:00Z</time></trkpt><trkpt lat="43.60302387297386" lon="3.239524269560382"><ele>341.0</ele><time>2026-03-25T11:43:01Z</time></trkpt><trkpt lat="43.60305234397273" lon="3.239392593982866"><ele>342.6</ele><time>2026-03-25T11:43:02Z</time></trkpt><trkpt lat="43.6030721194531" lon="3.2392773839538553"><ele>344.20000000000005</ele><time>2026-03-25T11:43:03Z</time></trkpt><trkpt lat="43.60308906070321" lon="3.239155378251038"><ele>345.79999999999995</ele><time>2026-03-25T11:43:04Z</time></trkpt><trkpt lat="43.60310660853148" lon="3.2390091848302314"><ele>347.4</ele><time>2026-03-25T11:43:05Z</time></trkpt><trkpt lat="43.60313296552449" lon="3.238857186885384"><ele>349.0</ele><time>2026-03-25T11:43:06Z</time></trkpt><trkpt lat="43.60316245148802" lon="3.238697932843741"><ele>350.6</ele><time>2026-03-25T11:43:07Z</time></trkpt><trkpt lat="43.60319348554901" lon="3.2385544262153116"><ele>352.2</ele><time>2026-03-25T11:43:08Z</time></trkpt><trkpt lat="43.60322574123639" lon="3.2384162260454286"><ele>353.8</ele><time>2026-03-25T11:43:09Z</time></trkpt><trkpt lat="43.603263722163916" lon="3.2382978145331416"><ele>355.40000000000003</ele><time>2026-03-25T11:43:10Z</time></trkpt><trkpt lat="43.603317296787935" lon="3.2381857170091006"><ele>357.0</ele><time>2026-03-25T11:43:11Z</time></trkpt><trkpt lat="43.60338359333693" lon="3.2380704996940266"><ele>357.0</ele><time>2026-03-25T11:43:12Z</time></trkpt><trkpt lat="43.60345394921593" lon="3.2379570149960206"><ele>357.0</ele><time>2026-03-25T11:43:13Z</time></trkpt><trkpt lat="43.603529655980395" lon="3.237845932190434"><ele>357.0</ele><time>2026-03-25T11:43:14Z</time></trkpt><trkpt lat="43.60359943928085" lon="3.2377364210023307"><ele>357.0</ele><time>2026-03-25T11:43:15Z</time></trkpt><trkpt lat="43.60366296060773" lon="3.2376505244294576"><ele>357.0</ele><time>2026-03-25T11:43:16Z</time></trkpt><trkpt lat="43.60372664048233" lon="3.237588421755022"><ele>357.8333333333333</ele><time>2026-03-25T11:43:17Z</time></trkpt><trkpt lat="43.60379493085183" lon="3.2375571104451417"><ele>358.6666666666667</ele><time>2026-03-25T11:43:18Z</time></trkpt><trkpt lat="43.60386677048778" lon="3.2375399457584106"><ele>359.5</ele><time>2026-03-25T11:43:19Z</time></trkpt><trkpt lat="43.603942374032734" lon="3.23754109136449"><ele>360.33333333333337</ele><time>2026-03-25T11:43:20Z</time></trkpt><trkpt lat="43.60401925315018" lon="3.2375646760131485"><ele>361.1666666666667</ele><time>2026-03-25T11:43:20.999Z</time></trkpt><trkpt lat="43.604107970538415" lon="3.23760853802178"><ele>362.0</ele><time>2026-03-25T11:43:21.999Z</time></trkpt><trkpt lat="43.60418835506893" lon="3.2376298173717477"><ele>362.0</ele><time>2026-03-25T11:43:22.999Z</time></trkpt><trkpt lat="43.604273542115386" lon="3.237642937720551"><ele>362.0</ele><time>2026-03-25T11:43:23.999Z</time></trkpt><trkpt lat="43.60435168928171" lon="3.2376397668348313"><ele>362.0</ele><time>2026-03-25T11:43:24.999Z</time></trkpt><trkpt lat="43.60442366114002" lon="3.2376117157862563"><ele>362.0</ele><time>2026-03-25T11:43:25.999Z</time></trkpt><trkpt lat="43.60449400917173" lon="3.2375589813069183"><ele>362.0</ele><time>2026-03-25T11:43:26.999Z</time></trkpt><trkpt lat="43.60455445262424" lon="3.237484883349539"><ele>362.0</ele><time>2026-03-25T11:43:27.999Z</time></trkpt><trkpt lat="43.60461281132072" lon="3.2374020243279067"><ele>360.40000000000003</ele><time>2026-03-25T11:43:28.999Z</time></trkpt><trkpt lat="43.60467767727063" lon="3.237324729471762"><ele>358.8</ele><time>2026-03-25T11:43:29.999Z</time></trkpt><trkpt lat="43.60475389932305" lon="3.2372654831515444"><ele>357.2</ele><time>2026-03-25T11:43:30.999Z</time></trkpt><trkpt lat="43.60484456647538" lon="3.2372297672087393"><ele>355.6</ele><time>2026-03-25T11:43:31.999Z</time></trkpt><trkpt lat="43.60494438104417" lon="3.2371930867025265"><ele>354.0</ele><time>2026-03-25T11:43:32.999Z</time></trkpt><trkpt lat="43.60504247102885" lon="3.2371534540961737"><ele>354.0</ele><time>2026-03-25T11:43:33.999Z</time></trkpt><trkpt lat="43.60513716970587" lon="3.237109885961345"><ele>354.0</ele><time>2026-03-25T11:43:34.999Z</time></trkpt><trkpt lat="43.605222134612646" lon="3.2370798219897656"><ele>354.0</ele><time>2026-03-25T11:43:35.999Z</time></trkpt><trkpt lat="43.60530400961767" lon="3.237067451713432"><ele>354.0</ele><time>2026-03-25T11:43:36.999Z</time></trkpt><trkpt lat="43.60538646792486" lon="3.2370886421247183"><ele>354.0</ele><time>2026-03-25T11:43:37.999Z</time></trkpt><trkpt lat="43.60546908539441" lon="3.237123814382306"><ele>354.0</ele><time>2026-03-25T11:43:38.999Z</time></trkpt><trkpt lat="43.605544636325874" lon="3.237145526097858"><ele>355.8333333333333</ele><time>2026-03-25T11:43:39.999Z</time></trkpt><trkpt lat="43.60562533677084" lon="3.2371319237870217"><ele>357.6666666666667</ele><time>2026-03-25T11:43:40.999Z</time></trkpt><trkpt lat="43.60569187341769" lon="3.2370879403186645"><ele>359.5</ele><time>2026-03-25T11:43:41.999Z</time></trkpt><trkpt lat="43.60575079642783" lon="3.2370128443017214"><ele>361.33333333333337</ele><time>2026-03-25T11:43:42.999Z</time></trkpt><trkpt lat="43.60579369577296" lon="3.236906280866673"><ele>363.1666666666667</ele><time>2026-03-25T11:43:43.999Z</time></trkpt><trkpt lat="43.60583759158347" lon="3.2367821672481343"><ele>365.0</ele><time>2026-03-25T11:43:44.999Z</time></trkpt><trkpt lat="43.605889192616225" lon="3.23665797080877"><ele>365.0</ele><time>2026-03-25T11:43:45.999Z</time></trkpt><trkpt lat="43.60595196674856" lon="3.2365408964027176"><ele>365.0</ele><time>2026-03-25T11:43:46.999Z</time></trkpt><trkpt lat="43.60602667320011" lon="3.2364365883338575"><ele>365.0</ele><time>2026-03-25T11:43:47.999Z</time></trkpt><trkpt lat="43.60610725329847" lon="3.236344761978247"><ele>365.0</ele><time>2026-03-25T11:43:48.999Z</time></trkpt><trkpt lat="43.60618758249088" lon="3.236267846653739"><ele>365.0</ele><time>2026-03-25T11:43:49.999Z</time></trkpt><trkpt lat="43.60627445688781" lon="3.236216996123806"><ele>365.4</ele><time>2026-03-25T11:43:50.999Z</time></trkpt><trkpt lat="43.606370656193135" lon="3.2361867509987916"><ele>365.8</ele><time>2026-03-25T11:43:51.999Z</time></trkpt><trkpt lat="43.606466082868344" lon="3.236157638802761"><ele>366.20000000000005</ele><time>2026-03-25T11:43:52.999Z</time></trkpt><trkpt lat="43.60655809112675" lon="3.2360891652757067"><ele>366.6</ele><time>2026-03-25T11:43:53.999Z</time></trkpt><trkpt lat="43.60664100353975" lon="3.2359982549349335"><ele>367.0</ele><time>2026-03-25T11:43:54.999Z</time></trkpt><trkpt lat="43.60671804995115" lon="3.235902172075796"><ele>367.0</ele><time>2026-03-25T11:43:55.999Z</time></trkpt><trkpt lat="43.606787666546566" lon="3.2358077813632424"><ele>367.0</ele><time>2026-03-25T11:43:56.999Z</time></trkpt><trkpt lat="43.60683452168691" lon="3.2356965949064267"><ele>367.0</ele><time>2026-03-25T11:43:57.999Z</time></trkpt><trkpt lat="43.6068709422813" lon="3.2355724504266794"><ele>367.0</ele><time>2026-03-25T11:43:58.999Z</time></trkpt><trkpt lat="43.606895492151175" lon="3.2354534941939943"><ele>367.0</ele><time>2026-03-25T11:43:59.999Z</time></trkpt><trkpt lat="43.60690028745747" lon="3.2353352283907326"><ele>365.8</ele><time>2026-03-25T11:44:00.999Z</time></trkpt><trkpt lat="43.606898473818404" lon="3.235202581620054"><ele>364.6</ele><time>2026-03-25T11:44:01.999Z</time></trkpt><trkpt lat="43.60689720953211" lon="3.2350656577266967"><ele>363.40000000000003</ele><time>2026-03-25T11:44:02.999Z</time></trkpt><trkpt lat="43.60689985476581" lon="3.234927273359834"><ele>362.20000000000005</ele><time>2026-03-25T11:44:03.999Z</time></trkpt><trkpt lat="43.6069125508539" lon="3.2348022041000966"><ele>361.0</ele><time>2026-03-25T11:44:04.999Z</time></trkpt><trkpt lat="43.60694402379406" lon="3.2346805607166496"><ele>360.0</ele><time>2026-03-25T11:44:05.999Z</time></trkpt><trkpt lat="43.60698640074841" lon="3.2345521535347466"><ele>359.0</ele><time>2026-03-25T11:44:06.999Z</time></trkpt><trkpt lat="43.60704843892092" lon="3.234418952240408"><ele>358.0</ele><time>2026-03-25T11:44:07.999Z</time></trkpt><trkpt lat="43.60712109476021" lon="3.234289117925671"><ele>357.0</ele><time>2026-03-25T11:44:08.999Z</time></trkpt><trkpt lat="43.60719568124743" lon="3.2341710494188303"><ele>356.0</ele><time>2026-03-25T11:44:09.999Z</time></trkpt><trkpt lat="43.607255150880675" lon="3.2340518922816837"><ele>357.0</ele><time>2026-03-25T11:44:10.999Z</time></trkpt><trkpt lat="43.60729763615783" lon="3.233919429119532"><ele>358.0</ele><time>2026-03-25T11:44:11.999Z</time></trkpt><trkpt lat="43.60735595804269" lon="3.2337832752885833"><ele>359.0</ele><time>2026-03-25T11:44:12.999Z</time></trkpt><trkpt lat="43.607397449225886" lon="3.233628102559813"><ele>360.0</ele><time>2026-03-25T11:44:13.999Z</time></trkpt><trkpt lat="43.6074298128339" lon="3.2334809446798918"><ele>360.0</ele><time>2026-03-25T11:44:14.999Z</time></trkpt><trkpt lat="43.60744437664913" lon="3.2333336726239796"><ele>360.0</ele><time>2026-03-25T11:44:15.999Z</time></trkpt><trkpt lat="43.607425316302155" lon="3.233189089344743"><ele>360.0</ele><time>2026-03-25T11:44:16.999Z</time></trkpt><trkpt lat="43.60739036395085" lon="3.233045285492933"><ele>360.0</ele><time>2026-03-25T11:44:17.999Z</time></trkpt><trkpt lat="43.60735812371014" lon="3.2328895955866637"><ele>360.0</ele><time>2026-03-25T11:44:18.999Z</time></trkpt><trkpt lat="43.60732856611205" lon="3.232738154549289"><ele>360.0</ele><time>2026-03-25T11:44:19.999Z</time></trkpt><trkpt lat="43.60728977739986" lon="3.2325900368564784"><ele>360.0</ele><time>2026-03-25T11:44:20.999Z</time></trkpt><trkpt lat="43.60727931282027" lon="3.2324308446052576"><ele>360.0</ele><time>2026-03-25T11:44:21.999Z</time></trkpt><trkpt lat="43.607274229400026" lon="3.23227531497485"><ele>360.0</ele><time>2026-03-25T11:44:22.999Z</time></trkpt><trkpt lat="43.60727269539262" lon="3.23213522560148"><ele>360.0</ele><time>2026-03-25T11:44:23.999Z</time></trkpt><trkpt lat="43.60727120403331" lon="3.232007636630317"><ele>359.6</ele><time>2026-03-25T11:44:24.999Z</time></trkpt><trkpt lat="43.607283227295234" lon="3.2319175872312025"><ele>359.2</ele><time>2026-03-25T11:44:25.999Z</time></trkpt><trkpt lat="43.607284450052994" lon="3.2318088779309946"><ele>358.79999999999995</ele><time>2026-03-25T11:44:27.999Z</time></trkpt><trkpt lat="43.60729053037101" lon="3.2317207610162564"><ele>358.4</ele><time>2026-03-25T11:44:30.999Z</time></trkpt><trkpt lat="43.60740598777611" lon="3.2316821462767584"><ele>358.0</ele><time>2026-03-25T11:44:31.999Z</time></trkpt><trkpt lat="43.60753257654366" lon="3.23163039353561"><ele>358.0</ele><time>2026-03-25T11:44:33.999Z</time></trkpt><trkpt lat="43.60759859668141" lon="3.231587162603328"><ele>358.0</ele><time>2026-03-25T11:44:34.999Z</time></trkpt><trkpt lat="43.60766279901592" lon="3.2315383889259492"><ele>358.0</ele><time>2026-03-25T11:44:35.999Z</time></trkpt><trkpt lat="43.607715019052925" lon="3.231460007241134"><ele>358.0</ele><time>2026-03-25T11:44:36.999Z</time></trkpt><trkpt lat="43.607766502074575" lon="3.231368319190074"><ele>358.0</ele><time>2026-03-25T11:44:37.999Z</time></trkpt><trkpt lat="43.607823267414" lon="3.231275061958411"><ele>358.0</ele><time>2026-03-25T11:44:38.999Z</time></trkpt><trkpt lat="43.607882490009054" lon="3.231186161925902"><ele>359.79999999999995</ele><time>2026-03-25T11:44:39.999Z</time></trkpt><trkpt lat="43.6079542256785" lon="3.231087513391768"><ele>361.6</ele><time>2026-03-25T11:44:40.999Z</time></trkpt><trkpt lat="43.608030025887004" lon="3.2309884364899517"><ele>363.4</ele><time>2026-03-25T11:44:41.999Z</time></trkpt><trkpt lat="43.608097209595215" lon="3.230892176127089"><ele>365.20000000000005</ele><time>2026-03-25T11:44:42.999Z</time></trkpt><trkpt lat="43.608162198039054" lon="3.2307828054111853"><ele>367.0</ele><time>2026-03-25T11:44:43.999Z</time></trkpt><trkpt lat="43.608233950009385" lon="3.230687410737091"><ele>366.0</ele><time>2026-03-25T11:44:44.999Z</time></trkpt><trkpt lat="43.608295193669946" lon="3.2305696743485095"><ele>365.0</ele><time>2026-03-25T11:44:45.999Z</time></trkpt><trkpt lat="43.60835826252041" lon="3.2304507292459714"><ele>364.0</ele><time>2026-03-25T11:44:46.999Z</time></trkpt><trkpt lat="43.60842928506175" lon="3.230336769233218"><ele>363.0</ele><time>2026-03-25T11:44:47.999Z</time></trkpt><trkpt lat="43.608510139259806" lon="3.230227412495439"><ele>362.0</ele><time>2026-03-25T11:44:48.999Z</time></trkpt><trkpt lat="43.60859553183959" lon="3.230123958924739"><ele>364.0</ele><time>2026-03-25T11:44:49.999Z</time></trkpt><trkpt lat="43.60869192830856" lon="3.230024522849312"><ele>366.0</ele><time>2026-03-25T11:44:50.999Z</time></trkpt><trkpt lat="43.60879042072176" lon="3.2299258981346006"><ele>368.0</ele><time>2026-03-25T11:44:51.999Z</time></trkpt><trkpt lat="43.60888864965202" lon="3.2298275794763485"><ele>370.0</ele><time>2026-03-25T11:44:52.999Z</time></trkpt><trkpt lat="43.608982960818516" lon="3.22973357083142"><ele>370.0</ele><time>2026-03-25T11:44:53.999Z</time></trkpt><trkpt lat="43.609063971183694" lon="3.2296437244401677"><ele>370.0</ele><time>2026-03-25T11:44:54.999Z</time></trkpt><trkpt lat="43.60913775925441" lon="3.229553074064979"><ele>370.0</ele><time>2026-03-25T11:44:55.999Z</time></trkpt><trkpt lat="43.609190004438624" lon="3.229453425907735"><ele>370.0</ele><time>2026-03-25T11:44:56.999Z</time></trkpt><trkpt lat="43.60923712560885" lon="3.2293419791204383"><ele>370.0</ele><time>2026-03-25T11:44:57.999Z</time></trkpt><trkpt lat="43.60928224604444" lon="3.229215510826726"><ele>370.0</ele><time>2026-03-25T11:44:58.999Z</time></trkpt><trkpt lat="43.60932624271505" lon="3.2290836865118897"><ele>370.0</ele><time>2026-03-25T11:44:59.999Z</time></trkpt><trkpt lat="43.6093811860896" lon="3.2289424302384027"><ele>370.0</ele><time>2026-03-25T11:45:00.999Z</time></trkpt><trkpt lat="43.609431740951756" lon="3.2288000465011395"><ele>370.0</ele><time>2026-03-25T11:45:01.999Z</time></trkpt><trkpt lat="43.609484176208284" lon="3.2286554580464113"><ele>370.2</ele><time>2026-03-25T11:45:02.999Z</time></trkpt><trkpt lat="43.609534844187365" lon="3.228505619340046"><ele>370.4</ele><time>2026-03-25T11:45:03.999Z</time></trkpt><trkpt lat="43.60959558250642" lon="3.2283673849541072"><ele>370.6</ele><time>2026-03-25T11:45:04.999Z</time></trkpt><trkpt lat="43.609640778191505" lon="3.228241420450792"><ele>370.8</ele><time>2026-03-25T11:45:05.999Z</time></trkpt><trkpt lat="43.60967129633828" lon="3.228117823113947"><ele>371.0</ele><time>2026-03-25T11:45:06.999Z</time></trkpt><trkpt lat="43.609700737700656" lon="3.2280196796161786"><ele>371.0</ele><time>2026-03-25T11:45:07.999Z</time></trkpt><trkpt lat="43.60974494921128" lon="3.2279312215911276"><ele>371.0</ele><time>2026-03-25T11:45:08.999Z</time></trkpt><trkpt lat="43.60979512431944" lon="3.22785429475984"><ele>371.0</ele><time>2026-03-25T11:45:09.999Z</time></trkpt><trkpt lat="43.60985672926483" lon="3.2277953314494203"><ele>371.0</ele><time>2026-03-25T11:45:10.999Z</time></trkpt><trkpt lat="43.60993027131041" lon="3.2277569249102345"><ele>371.0</ele><time>2026-03-25T11:45:11.999Z</time></trkpt><trkpt lat="43.610014486483514" lon="3.2277303735322653"><ele>371.0</ele><time>2026-03-25T11:45:12.999Z</time></trkpt><trkpt lat="43.61011257521833" lon="3.2277111511320427"><ele>371.0</ele><time>2026-03-25T11:45:13.999Z</time></trkpt><trkpt lat="43.61021842223656" lon="3.227690676080788"><ele>371.0</ele><time>2026-03-25T11:45:14.999Z</time></trkpt><trkpt lat="43.61033467397533" lon="3.2276662584879765"><ele>371.0</ele><time>2026-03-25T11:45:15.999Z</time></trkpt><trkpt lat="43.610456727552496" lon="3.2276440396189052"><ele>371.0</ele><time>2026-03-25T11:45:16.999Z</time></trkpt><trkpt lat="43.61058208836153" lon="3.227623997330697"><ele>371.75</ele><time>2026-03-25T11:45:17.999Z</time></trkpt><trkpt lat="43.61071218977232" lon="3.2276078395416263"><ele>372.5</ele><time>2026-03-25T11:45:18.999Z</time></trkpt><trkpt lat="43.61084776850743" lon="3.2275951074510036"><ele>373.25</ele><time>2026-03-25T11:45:19.999Z</time></trkpt><trkpt lat="43.61097878701104" lon="3.227589043313534"><ele>374.0</ele><time>2026-03-25T11:45:20.999Z</time></trkpt><trkpt lat="43.611106742241304" lon="3.2275903884466284"><ele>373.5</ele><time>2026-03-25T11:45:21.999Z</time></trkpt><trkpt lat="43.61122021497571" lon="3.227597995576213"><ele>373.0</ele><time>2026-03-25T11:45:22.999Z</time></trkpt><trkpt lat="43.611327097690705" lon="3.2276173756034665"><ele>372.5</ele><time>2026-03-25T11:45:23.999Z</time></trkpt><trkpt lat="43.611436551680484" lon="3.227656706895321"><ele>372.0</ele><time>2026-03-25T11:45:24.999Z</time></trkpt><trkpt lat="43.611543225574614" lon="3.2277164491216275"><ele>372.0</ele><time>2026-03-25T11:45:25.999Z</time></trkpt><trkpt lat="43.61165439160223" lon="3.227778952528609"><ele>372.0</ele><time>2026-03-25T11:45:26.999Z</time></trkpt><trkpt lat="43.61177092094875" lon="3.227847366623208"><ele>372.0</ele><time>2026-03-25T11:45:27.999Z</time></trkpt><trkpt lat="43.611891209419746" lon="3.2279195741541766"><ele>372.0</ele><time>2026-03-25T11:45:28.999Z</time></trkpt><trkpt lat="43.61201205951396" lon="3.227990659858163"><ele>372.75</ele><time>2026-03-25T11:45:29.999Z</time></trkpt><trkpt lat="43.61213165070174" lon="3.2280671855519585"><ele>373.5</ele><time>2026-03-25T11:45:30.999Z</time></trkpt><trkpt lat="43.61225209082924" lon="3.22814470645509"><ele>374.25</ele><time>2026-03-25T11:45:31.999Z</time></trkpt><trkpt lat="43.612371259353196" lon="3.228219577093236"><ele>375.0</ele><time>2026-03-25T11:45:32.999Z</time></trkpt><trkpt lat="43.61248409643973" lon="3.228284697527661"><ele>376.2</ele><time>2026-03-25T11:45:33.999Z</time></trkpt><trkpt lat="43.61258707684474" lon="3.2283480331399494"><ele>377.4</ele><time>2026-03-25T11:45:34.999Z</time></trkpt><trkpt lat="43.61268226667319" lon="3.2284093665892852"><ele>378.6</ele><time>2026-03-25T11:45:35.999Z</time></trkpt><trkpt lat="43.612771085036286" lon="3.228462376775572"><ele>379.8</ele><time>2026-03-25T11:45:36.999Z</time></trkpt><trkpt lat="43.612853301218244" lon="3.2285072234428758"><ele>381.0</ele><time>2026-03-25T11:45:37.999Z</time></trkpt><trkpt lat="43.61292293665994" lon="3.2285560594259297"><ele>381.3333333333333</ele><time>2026-03-25T11:45:38.999Z</time></trkpt><trkpt lat="43.612993058697526" lon="3.2285563762131084"><ele>381.6666666666667</ele><time>2026-03-25T11:45:39.999Z</time></trkpt><trkpt lat="43.61306697917019" lon="3.2285523401619227"><ele>382.0</ele><time>2026-03-25T11:45:40.999Z</time></trkpt><trkpt lat="43.61314743269292" lon="3.228542147826699"><ele>382.33333333333337</ele><time>2026-03-25T11:45:41.999Z</time></trkpt><trkpt lat="43.613239567420074" lon="3.2285307967887693"><ele>382.6666666666667</ele><time>2026-03-25T11:45:42.999Z</time></trkpt><trkpt lat="43.613332811560866" lon="3.228518886272606"><ele>383.0</ele><time>2026-03-25T11:45:43.999Z</time></trkpt><trkpt lat="43.61343370958088" lon="3.228508855557244"><ele>383.0</ele><time>2026-03-25T11:45:44.999Z</time></trkpt><trkpt lat="43.61352971397622" lon="3.2285014987159664"><ele>383.0</ele><time>2026-03-25T11:45:45.999Z</time></trkpt><trkpt lat="43.61361155776118" lon="3.2284937538060006"><ele>383.0</ele><time>2026-03-25T11:45:46.999Z</time></trkpt><trkpt lat="43.613681422294555" lon="3.228467037789471"><ele>383.0</ele><time>2026-03-25T11:45:47.999Z</time></trkpt><trkpt lat="43.61373934259784" lon="3.228429768634278"><ele>383.0</ele><time>2026-03-25T11:45:48.999Z</time></trkpt><trkpt lat="43.61379675588303" lon="3.228379490734586"><ele>383.0</ele><time>2026-03-25T11:45:49.999Z</time></trkpt><trkpt lat="43.613847275889114" lon="3.2283158484048227"><ele>383.6666666666667</ele><time>2026-03-25T11:45:50.999Z</time></trkpt><trkpt lat="43.613895481269886" lon="3.228247966752146"><ele>384.33333333333337</ele><time>2026-03-25T11:45:51.999Z</time></trkpt><trkpt lat="43.61393782021318" lon="3.2281752389920544"><ele>385.0</ele><time>2026-03-25T11:45:52.999Z</time></trkpt><trkpt lat="43.61401929523044" lon="3.2280659924893427"><ele>385.6666666666667</ele><time>2026-03-25T11:45:54.999Z</time></trkpt><trkpt lat="43.614096253351526" lon="3.228019273219656"><ele>386.3333333333333</ele><time>2026-03-25T11:45:56.999Z</time></trkpt><trkpt lat="43.614182378474545" lon="3.2279882992124636"><ele>387.0</ele><time>2026-03-25T11:45:59.999Z</time></trkpt><trkpt lat="43.61422621448965" lon="3.2280616515603002"><ele>387.0</ele><time>2026-03-25T11:46:01.999Z</time></trkpt><trkpt lat="43.61425766567177" lon="3.228175656190364"><ele>387.0</ele><time>2026-03-25T11:46:03.999Z</time></trkpt><trkpt lat="43.61430291225846" lon="3.2283018734412177"><ele>387.0</ele><time>2026-03-25T11:46:05.999Z</time></trkpt><trkpt lat="43.61437995234993" lon="3.2284147585992193"><ele>387.0</ele><time>2026-03-25T11:46:07.999Z</time></trkpt><trkpt lat="43.61447911787133" lon="3.2285092415948458"><ele>387.0</ele><time>2026-03-25T11:46:09.999Z</time></trkpt><trkpt lat="43.61458861730388" lon="3.2285964301845387"><ele>387.5</ele><time>2026-03-25T11:46:11.999Z</time></trkpt><trkpt lat="43.61465489441136" lon="3.228656100943365"><ele>388.0</ele><time>2026-03-25T11:46:12.999Z</time></trkpt><trkpt lat="43.6147283432287" lon="3.2287339382182605"><ele>388.5</ele><time>2026-03-25T11:46:13.999Z</time></trkpt><trkpt lat="43.61479649746044" lon="3.228815275737278"><ele>389.0</ele><time>2026-03-25T11:46:14.999Z</time></trkpt><trkpt lat="43.61486828446867" lon="3.2289009959266872"><ele>389.5</ele><time>2026-03-25T11:46:15.999Z</time></trkpt><trkpt lat="43.614935090667764" lon="3.2289838911316866"><ele>390.0</ele><time>2026-03-25T11:46:16.999Z</time></trkpt><trkpt lat="43.615016452433665" lon="3.22907079568581"><ele>390.0</ele><time>2026-03-25T11:46:17.999Z</time></trkpt><trkpt lat="43.6150952537116" lon="3.2291544873156335"><ele>390.0</ele><time>2026-03-25T11:46:18.999Z</time></trkpt><trkpt lat="43.61516787239402" lon="3.2292313615116117"><ele>390.0</ele><time>2026-03-25T11:46:19.999Z</time></trkpt><trkpt lat="43.615243181599844" lon="3.2293201859746485"><ele>390.0</ele><time>2026-03-25T11:46:20.999Z</time></trkpt><trkpt lat="43.61531138396975" lon="3.2294007911340556"><ele>390.0</ele><time>2026-03-25T11:46:21.999Z</time></trkpt><trkpt lat="43.615386543463664" lon="3.229479045148677"><ele>391.4</ele><time>2026-03-25T11:46:22.999Z</time></trkpt><trkpt lat="43.61545116896242" lon="3.229558012692103"><ele>392.8</ele><time>2026-03-25T11:46:23.999Z</time></trkpt><trkpt lat="43.61553426057026" lon="3.229630074176288"><ele>394.20000000000005</ele><time>2026-03-25T11:46:24.998Z</time></trkpt><trkpt lat="43.61562265021893" lon="3.2296841488186563"><ele>395.6</ele><time>2026-03-25T11:46:25.998Z</time></trkpt><trkpt lat="43.61571245175225" lon="3.229741206576411"><ele>397.0</ele><time>2026-03-25T11:46:26.998Z</time></trkpt><trkpt lat="43.61581004866071" lon="3.2297926820070417"><ele>396.6</ele><time>2026-03-25T11:46:27.998Z</time></trkpt><trkpt lat="43.615905725680804" lon="3.229841346880067"><ele>396.20000000000005</ele><time>2026-03-25T11:46:28.998Z</time></trkpt><trkpt lat="43.61599818643951" lon="3.229894379964414"><ele>395.8</ele><time>2026-03-25T11:46:29.998Z</time></trkpt><trkpt lat="43.61608893295838" lon="3.2299470101252314"><ele>395.4</ele><time>2026-03-25T11:46:30.998Z</time></trkpt><trkpt lat="43.61618447787516" lon="3.2299997924542385"><ele>395.0</ele><time>2026-03-25T11:46:31.998Z</time></trkpt><trkpt lat="43.61627323798511" lon="3.2300523859895467"><ele>397.0</ele><time>2026-03-25T11:46:32.998Z</time></trkpt><trkpt lat="43.616359911300044" lon="3.23010952164487"><ele>399.0</ele><time>2026-03-25T11:46:33.998Z</time></trkpt><trkpt lat="43.616453598619486" lon="3.2301925172778443"><ele>401.0</ele><time>2026-03-25T11:46:34.998Z</time></trkpt><trkpt lat="43.61655038738139" lon="3.230248748757054"><ele>403.0</ele><time>2026-03-25T11:46:35.998Z</time></trkpt><trkpt lat="43.616636284897105" lon="3.2303030385258773"><ele>405.0</ele><time>2026-03-25T11:46:36.998Z</time></trkpt><trkpt lat="43.616713993017534" lon="3.2303632572553624"><ele>405.0</ele><time>2026-03-25T11:46:37.998Z</time></trkpt><trkpt lat="43.61678443915223" lon="3.2304257357121418"><ele>405.0</ele><time>2026-03-25T11:46:38.998Z</time></trkpt><trkpt lat="43.616855564953376" lon="3.2304678610300592"><ele>405.0</ele><time>2026-03-25T11:46:39.998Z</time></trkpt><trkpt lat="43.61692811065344" lon="3.230498261718344"><ele>405.0</ele><time>2026-03-25T11:46:40.998Z</time></trkpt><trkpt lat="43.617011323100286" lon="3.230528131564024"><ele>405.0</ele><time>2026-03-25T11:46:41.998Z</time></trkpt><trkpt lat="43.61709005855308" lon="3.2305469994885145"><ele>405.0</ele><time>2026-03-25T11:46:42.999Z</time></trkpt><trkpt lat="43.61718079763123" lon="3.2305385769796335"><ele>407.2</ele><time>2026-03-25T11:46:43.999Z</time></trkpt><trkpt lat="43.61726387037026" lon="3.230513576725631"><ele>409.4</ele><time>2026-03-25T11:46:44.999Z</time></trkpt><trkpt lat="43.617360557170464" lon="3.2305261896661874"><ele>411.6</ele><time>2026-03-25T11:46:45.999Z</time></trkpt><trkpt lat="43.617459781783204" lon="3.2305238597745847"><ele>413.8</ele><time>2026-03-25T11:46:46.999Z</time></trkpt><trkpt lat="43.6175459783772" lon="3.2305215195565165"><ele>416.0</ele><time>2026-03-25T11:46:47.999Z</time></trkpt><trkpt lat="43.61764150119114" lon="3.2305195183747286"><ele>416.0</ele><time>2026-03-25T11:46:48.999Z</time></trkpt><trkpt lat="43.617727294160126" lon="3.230519046627889"><ele>416.0</ele><time>2026-03-25T11:46:49.999Z</time></trkpt><trkpt lat="43.61782451605031" lon="3.2305010361202022"><ele>416.0</ele><time>2026-03-25T11:46:50.999Z</time></trkpt><trkpt lat="43.617916254890496" lon="3.2305153726668414"><ele>416.0</ele><time>2026-03-25T11:46:51.999Z</time></trkpt><trkpt lat="43.61800873847341" lon="3.2305162294234524"><ele>416.0</ele><time>2026-03-25T11:46:52.999Z</time></trkpt><trkpt lat="43.618105952599" lon="3.230537325996398"><ele>418.0</ele><time>2026-03-25T11:46:53.999Z</time></trkpt><trkpt lat="43.61819055106544" lon="3.2305457986161796"><ele>420.0</ele><time>2026-03-25T11:46:54.999Z</time></trkpt><trkpt lat="43.61828713642069" lon="3.2305594501509076"><ele>422.0</ele><time>2026-03-25T11:46:55.999Z</time></trkpt><trkpt lat="43.61837924417882" lon="3.2305775195495214"><ele>424.0</ele><time>2026-03-25T11:46:56.999Z</time></trkpt><trkpt lat="43.6184746636965" lon="3.230591985043823"><ele>426.0</ele><time>2026-03-25T11:46:57.999Z</time></trkpt><trkpt lat="43.61856770485628" lon="3.230616160310889"><ele>427.0</ele><time>2026-03-25T11:46:58.999Z</time></trkpt><trkpt lat="43.61866735806882" lon="3.230645791498871"><ele>428.0</ele><time>2026-03-25T11:46:59.999Z</time></trkpt><trkpt lat="43.61876895714778" lon="3.2306601687500485"><ele>429.0</ele><time>2026-03-25T11:47:00.999Z</time></trkpt><trkpt lat="43.61885569659136" lon="3.2306643580918757"><ele>430.0</ele><time>2026-03-25T11:47:01.999Z</time></trkpt><trkpt lat="43.6189450723473" lon="3.23063540174252"><ele>431.0</ele><time>2026-03-25T11:47:02.999Z</time></trkpt><trkpt lat="43.61902762007734" lon="3.2306350851356416"><ele>432.0</ele><time>2026-03-25T11:47:03.999Z</time></trkpt><trkpt lat="43.61912326114318" lon="3.2306214075324444"><ele>433.0</ele><time>2026-03-25T11:47:04.999Z</time></trkpt><trkpt lat="43.619214143411" lon="3.2306129057671193"><ele>434.0</ele><time>2026-03-25T11:47:05.999Z</time></trkpt><trkpt lat="43.61930906582377" lon="3.230588078712826"><ele>435.0</ele><time>2026-03-25T11:47:06.999Z</time></trkpt><trkpt lat="43.61939299624572" lon="3.2306134560003694"><ele>436.0</ele><time>2026-03-25T11:47:07.999Z</time></trkpt><trkpt lat="43.6194795360792" lon="3.2306344618969125"><ele>437.00000000000006</ele><time>2026-03-25T11:47:08.999Z</time></trkpt><trkpt lat="43.619570585129104" lon="3.230639802236416"><ele>438.0</ele><time>2026-03-25T11:47:09.999Z</time></trkpt><trkpt lat="43.61965418784153" lon="3.230620499240231"><ele>439.0</ele><time>2026-03-25T11:47:10.999Z</time></trkpt><trkpt lat="43.61973230308394" lon="3.230592889285567"><ele>440.0</ele><time>2026-03-25T11:47:11.999Z</time></trkpt><trkpt lat="43.61981711400995" lon="3.230557018496515"><ele>441.00000000000006</ele><time>2026-03-25T11:47:12.999Z</time></trkpt><trkpt lat="43.61991132483308" lon="3.230532242559"><ele>442.0</ele><time>2026-03-25T11:47:13.999Z</time></trkpt><trkpt lat="43.61999375117658" lon="3.2304696744569372"><ele>442.0</ele><time>2026-03-25T11:47:14.999Z</time></trkpt><trkpt lat="43.62008558696996" lon="3.2304277376306296"><ele>442.00000000000006</ele><time>2026-03-25T11:47:15.999Z</time></trkpt><trkpt lat="43.62017474290871" lon="3.2303697219852014"><ele>442.00000000000006</ele><time>2026-03-25T11:47:16.999Z</time></trkpt><trkpt lat="43.620264113497996" lon="3.2303039149204116"><ele>442.0</ele><time>2026-03-25T11:47:17.999Z</time></trkpt><trkpt lat="43.62036506267717" lon="3.2302538628872783"><ele>442.0</ele><time>2026-03-25T11:47:18.999Z</time></trkpt><trkpt lat="43.62046746832062" lon="3.230231942856901"><ele>442.6666666666667</ele><time>2026-03-25T11:47:19.999Z</time></trkpt><trkpt lat="43.62057253100984" lon="3.2302144956898005"><ele>443.33333333333337</ele><time>2026-03-25T11:47:20.999Z</time></trkpt><trkpt lat="43.6206584326827" lon="3.2302176118486714"><ele>444.0</ele><time>2026-03-25T11:47:21.999Z</time></trkpt><trkpt lat="43.62074477276894" lon="3.2302407153879713"><ele>444.66666666666663</ele><time>2026-03-25T11:47:22.999Z</time></trkpt><trkpt lat="43.62081667143989" lon="3.230273600575903"><ele>445.3333333333333</ele><time>2026-03-25T11:47:23.999Z</time></trkpt><trkpt lat="43.620899162409984" lon="3.230327845177325"><ele>446.0</ele><time>2026-03-25T11:47:24.999Z</time></trkpt><trkpt lat="43.620989160037404" lon="3.2303929443735098"><ele>446.0</ele><time>2026-03-25T11:47:25.999Z</time></trkpt><trkpt lat="43.62108294275592" lon="3.2304660689451152"><ele>446.0</ele><time>2026-03-25T11:47:26.999Z</time></trkpt><trkpt lat="43.62118027882835" lon="3.2305449414748013"><ele>446.0</ele><time>2026-03-25T11:47:27.999Z</time></trkpt><trkpt lat="43.6212822000989" lon="3.2306299177182285"><ele>446.0</ele><time>2026-03-25T11:47:28.999Z</time></trkpt><trkpt lat="43.62138733362555" lon="3.230729606900509"><ele>446.0</ele><time>2026-03-25T11:47:29.999Z</time></trkpt><trkpt lat="43.62149112338502" lon="3.2308284348034824"><ele>446.0</ele><time>2026-03-25T11:47:30.999Z</time></trkpt><trkpt lat="43.62159778415892" lon="3.2309292111336085"><ele>446.0</ele><time>2026-03-25T11:47:31.999Z</time></trkpt><trkpt lat="43.621707631021216" lon="3.231019838567176"><ele>446.0</ele><time>2026-03-25T11:47:32.999Z</time></trkpt><trkpt lat="43.62181833492241" lon="3.231118431578981"><ele>446.0</ele><time>2026-03-25T11:47:33.999Z</time></trkpt><trkpt lat="43.62191955761977" lon="3.2312131854473316"><ele>446.0</ele><time>2026-03-25T11:47:34.999Z</time></trkpt><trkpt lat="43.622006733015986" lon="3.231301073909792"><ele>446.0</ele><time>2026-03-25T11:47:35.999Z</time></trkpt><trkpt lat="43.62208969770805" lon="3.2313771473856225"><ele>446.0</ele><time>2026-03-25T11:47:36.999Z</time></trkpt><trkpt lat="43.62216312937001" lon="3.2314490969042065"><ele>446.0</ele><time>2026-03-25T11:47:37.999Z</time></trkpt><trkpt lat="43.62223147529243" lon="3.231520487723725"><ele>444.8333333333333</ele><time>2026-03-25T11:47:38.999Z</time></trkpt><trkpt lat="43.62229267306112" lon="3.2315920074294278"><ele>443.66666666666663</ele><time>2026-03-25T11:47:39.999Z</time></trkpt><trkpt lat="43.6223484938809" lon="3.2316556832218977"><ele>442.5</ele><time>2026-03-25T11:47:40.999Z</time></trkpt><trkpt lat="43.62243050817951" lon="3.231781816479914"><ele>441.33333333333337</ele><time>2026-03-25T11:47:42.999Z</time></trkpt><trkpt lat="43.62247011109736" lon="3.2318676917813107"><ele>440.1666666666667</ele><time>2026-03-25T11:47:43.999Z</time></trkpt><trkpt lat="43.622504950287606" lon="3.231974862228756"><ele>439.0</ele><time>2026-03-25T11:47:44.999Z</time></trkpt><trkpt lat="43.622544292191" lon="3.2320926245813224"><ele>439.00000000000006</ele><time>2026-03-25T11:47:45.999Z</time></trkpt><trkpt lat="43.62257068190763" lon="3.232214990187346"><ele>439.0</ele><time>2026-03-25T11:47:46.999Z</time></trkpt><trkpt lat="43.622589994069834" lon="3.232326895408638"><ele>439.0</ele><time>2026-03-25T11:47:47.999Z</time></trkpt><trkpt lat="43.622580220432425" lon="3.232436582058269"><ele>439.0</ele><time>2026-03-25T11:47:48.999Z</time></trkpt><trkpt lat="43.622573942333865" lon="3.232540912150941"><ele>439.00000000000006</ele><time>2026-03-25T11:47:49.999Z</time></trkpt><trkpt lat="43.62255776217117" lon="3.232653685415156"><ele>439.0</ele><time>2026-03-25T11:47:50.999Z</time></trkpt><trkpt lat="43.6225365996599" lon="3.232771163330703"><ele>438.4</ele><time>2026-03-25T11:47:51.999Z</time></trkpt><trkpt lat="43.622511691935244" lon="3.232876835876056"><ele>437.79999999999995</ele><time>2026-03-25T11:47:52.999Z</time></trkpt><trkpt lat="43.62247899983645" lon="3.232981636367682"><ele>437.20000000000005</ele><time>2026-03-25T11:47:53.999Z</time></trkpt><trkpt lat="43.62242202415748" lon="3.2331281003405508"><ele>436.6</ele><time>2026-03-25T11:47:55.999Z</time></trkpt><trkpt lat="43.62234029458154" lon="3.2332521552444122"><ele>436.0</ele><time>2026-03-25T11:47:57.999Z</time></trkpt><trkpt lat="43.62229074653684" lon="3.2333125831015312"><ele>434.6666666666667</ele><time>2026-03-25T11:47:58.999Z</time></trkpt><trkpt lat="43.6221922158182" lon="3.2334251469823445"><ele>433.33333333333337</ele><time>2026-03-25T11:48:01Z</time></trkpt><trkpt lat="43.622144284654844" lon="3.2335022890401257"><ele>432.0</ele><time>2026-03-25T11:48:02Z</time></trkpt><trkpt lat="43.62210764035024" lon="3.2335756839896517"><ele>430.66666666666663</ele><time>2026-03-25T11:48:03Z</time></trkpt><trkpt lat="43.622107318482335" lon="3.233707199747584"><ele>429.3333333333333</ele><time>2026-03-25T11:48:05Z</time></trkpt><trkpt lat="43.622186413740934" lon="3.2337534065052096"><ele>428.0</ele><time>2026-03-25T11:48:06Z</time></trkpt><trkpt lat="43.62228899834061" lon="3.233705920580115"><ele>428.00000000000006</ele><time>2026-03-25T11:48:08Z</time></trkpt><trkpt lat="43.62234830494788" lon="3.2336533144832953"><ele>428.0</ele><time>2026-03-25T11:48:09Z</time></trkpt><trkpt lat="43.62241137616751" lon="3.2335978266045164"><ele>428.0</ele><time>2026-03-25T11:48:10Z</time></trkpt><trkpt lat="43.62246720003178" lon="3.233547334061895"><ele>428.0</ele><time>2026-03-25T11:48:11Z</time></trkpt><trkpt lat="43.622530827362255" lon="3.2335217654839408"><ele>428.0</ele><time>2026-03-25T11:48:12Z</time></trkpt><trkpt lat="43.62259015483158" lon="3.233551820051592"><ele>428.00000000000006</ele><time>2026-03-25T11:48:13Z</time></trkpt><trkpt lat="43.62266060082877" lon="3.2335965870437517"><ele>428.0</ele><time>2026-03-25T11:48:14Z</time></trkpt><trkpt lat="43.62270715678469" lon="3.233660497292013"><ele>428.0</ele><time>2026-03-25T11:48:15Z</time></trkpt><trkpt lat="43.62281329886149" lon="3.233734091014759"><ele>428.0</ele><time>2026-03-25T11:48:17Z</time></trkpt><trkpt lat="43.622926858177145" lon="3.2338022984472654"><ele>428.0</ele><time>2026-03-25T11:48:19Z</time></trkpt><trkpt lat="43.62300570651395" lon="3.233877701481235"><ele>428.0</ele><time>2026-03-25T11:48:21Z</time></trkpt><trkpt lat="43.62312875145552" lon="3.233934228980893"><ele>425.25</ele><time>2026-03-25T11:48:24Z</time></trkpt><trkpt lat="43.62325259332778" lon="3.2337748050468775"><ele>422.5</ele><time>2026-03-25T11:48:26Z</time></trkpt><trkpt lat="43.62330935468368" lon="3.2336700423496483"><ele>419.75</ele><time>2026-03-25T11:48:27Z</time></trkpt><trkpt lat="43.62336753973833" lon="3.2335461726521584"><ele>417.0</ele><time>2026-03-25T11:48:28Z</time></trkpt><trkpt lat="43.62343248492525" lon="3.233417502403889"><ele>417.0</ele><time>2026-03-25T11:48:29Z</time></trkpt><trkpt lat="43.62351250828151" lon="3.2332840734647563"><ele>417.0</ele><time>2026-03-25T11:48:30Z</time></trkpt><trkpt lat="43.62360502017317" lon="3.2331542577492387"><ele>417.0</ele><time>2026-03-25T11:48:30.998Z</time></trkpt><trkpt lat="43.62371009324198" lon="3.233026891244583"><ele>417.0</ele><time>2026-03-25T11:48:31.998Z</time></trkpt><trkpt lat="43.62382912582516" lon="3.232902901035319"><ele>416.0</ele><time>2026-03-25T11:48:32.998Z</time></trkpt><trkpt lat="43.62396268011065" lon="3.232778357755295"><ele>415.0</ele><time>2026-03-25T11:48:33.998Z</time></trkpt><trkpt lat="43.62410850542673" lon="3.2326450767433466"><ele>414.0</ele><time>2026-03-25T11:48:34.998Z</time></trkpt><trkpt lat="43.62426376519496" lon="3.2325023061830294"><ele>414.0</ele><time>2026-03-25T11:48:35.998Z</time></trkpt><trkpt lat="43.62442275514176" lon="3.232357660509211"><ele>414.0</ele><time>2026-03-25T11:48:36.998Z</time></trkpt><trkpt lat="43.624573223110126" lon="3.2322183315041673"><ele>414.0</ele><time>2026-03-25T11:48:37.998Z</time></trkpt><trkpt lat="43.62471640595116" lon="3.2320803426551583"><ele>411.0</ele><time>2026-03-25T11:48:38.998Z</time></trkpt><trkpt lat="43.62485902841183" lon="3.231943584960522"><ele>408.0</ele><time>2026-03-25T11:48:39.998Z</time></trkpt><trkpt lat="43.6250023142068" lon="3.231807722951906"><ele>405.0</ele><time>2026-03-25T11:48:40.998Z</time></trkpt><trkpt lat="43.6251421840512" lon="3.231670424975385"><ele>405.0</ele><time>2026-03-25T11:48:41.998Z</time></trkpt><trkpt lat="43.625277414253546" lon="3.231532707255626"><ele>405.0</ele><time>2026-03-25T11:48:42.998Z</time></trkpt><trkpt lat="43.625408665276105" lon="3.2313859044182878"><ele>405.0</ele><time>2026-03-25T11:48:43.998Z</time></trkpt><trkpt lat="43.6255290161163" lon="3.2312253711966394"><ele>403.0</ele><time>2026-03-25T11:48:44.998Z</time></trkpt><trkpt lat="43.62564349441191" lon="3.231044445168186"><ele>401.0</ele><time>2026-03-25T11:48:45.999Z</time></trkpt><trkpt lat="43.625749469930525" lon="3.2308435994736002"><ele>399.0</ele><time>2026-03-25T11:48:46.999Z</time></trkpt><trkpt lat="43.62584757393057" lon="3.230631663547043"><ele>396.0</ele><time>2026-03-25T11:48:47.999Z</time></trkpt><trkpt lat="43.62593610526295" lon="3.2304048566506216"><ele>393.0</ele><time>2026-03-25T11:48:48.999Z</time></trkpt><trkpt lat="43.626016402360385" lon="3.2301677350284472"><ele>390.0</ele><time>2026-03-25T11:48:49.999Z</time></trkpt><trkpt lat="43.62609762272571" lon="3.22992278364316"><ele>391.0</ele><time>2026-03-25T11:48:50.999Z</time></trkpt><trkpt lat="43.62618387564282" lon="3.2296744257933203"><ele>392.0</ele><time>2026-03-25T11:48:51.999Z</time></trkpt><trkpt lat="43.62627393828614" lon="3.229422960255108"><ele>393.0</ele><time>2026-03-25T11:48:52.999Z</time></trkpt><trkpt lat="43.62636358701553" lon="3.229163525838827"><ele>390.33333333333337</ele><time>2026-03-25T11:48:53.999Z</time></trkpt><trkpt lat="43.62645336389412" lon="3.2289026575366058"><ele>387.6666666666667</ele><time>2026-03-25T11:48:54.999Z</time></trkpt><trkpt lat="43.62654167344442" lon="3.2286487645908615"><ele>385.0</ele><time>2026-03-25T11:48:55.999Z</time></trkpt><trkpt lat="43.62662727025618" lon="3.2284034552067227"><ele>385.0</ele><time>2026-03-25T11:48:56.999Z</time></trkpt><trkpt lat="43.626714147350775" lon="3.228166361625621"><ele>385.0</ele><time>2026-03-25T11:48:57.999Z</time></trkpt><trkpt lat="43.626807732771056" lon="3.227939457334168"><ele>385.0</ele><time>2026-03-25T11:48:58.999Z</time></trkpt><trkpt lat="43.626906548291096" lon="3.2277244358202037"><ele>386.6666666666667</ele><time>2026-03-25T11:48:59.999Z</time></trkpt><trkpt lat="43.62701719554518" lon="3.2275264525416456"><ele>388.33333333333337</ele><time>2026-03-25T11:49:00.999Z</time></trkpt><trkpt lat="43.62714316481433" lon="3.227343332251241"><ele>390.0</ele><time>2026-03-25T11:49:01.999Z</time></trkpt><trkpt lat="43.62728445436531" lon="3.227177498415012"><ele>384.0</ele><time>2026-03-25T11:49:02.999Z</time></trkpt><trkpt lat="43.62744096047614" lon="3.2270345023086433"><ele>378.0</ele><time>2026-03-25T11:49:03.999Z</time></trkpt><trkpt lat="43.62760347958808" lon="3.226899377715608"><ele>372.0</ele><time>2026-03-25T11:49:04.999Z</time></trkpt><trkpt lat="43.62776344129064" lon="3.22675890971408"><ele>370.3333333333333</ele><time>2026-03-25T11:49:05.999Z</time></trkpt><trkpt lat="43.62791308426093" lon="3.226610568866289"><ele>368.66666666666663</ele><time>2026-03-25T11:49:06.999Z</time></trkpt><trkpt lat="43.62804998473156" lon="3.2264615700895853"><ele>367.0</ele><time>2026-03-25T11:49:07.999Z</time></trkpt><trkpt lat="43.62816780139655" lon="3.226318323770155"><ele>367.0</ele><time>2026-03-25T11:49:08.999Z</time></trkpt><trkpt lat="43.62825718944083" lon="3.2261943578943457"><ele>367.0</ele><time>2026-03-25T11:49:09.999Z</time></trkpt><trkpt lat="43.628333159738816" lon="3.226091552018795"><ele>367.0</ele><time>2026-03-25T11:49:10.999Z</time></trkpt><trkpt lat="43.62842008324549" lon="3.2260155435618207"><ele>367.0</ele><time>2026-03-25T11:49:11.999Z</time></trkpt><trkpt lat="43.628478395775765" lon="3.225902701794165"><ele>367.0</ele><time>2026-03-25T11:49:12.999Z</time></trkpt><trkpt lat="43.62860732756091" lon="3.225846101910354"><ele>367.75</ele><time>2026-03-25T11:49:13.999Z</time></trkpt><trkpt lat="43.62869280645487" lon="3.22572222507231"><ele>368.5</ele><time>2026-03-25T11:49:14.999Z</time></trkpt><trkpt lat="43.62877250716366" lon="3.2255901633547786"><ele>369.25</ele><time>2026-03-25T11:49:15.999Z</time></trkpt><trkpt lat="43.628848653344086" lon="3.225456757262083"><ele>370.0</ele><time>2026-03-25T11:49:16.999Z</time></trkpt><trkpt lat="43.62892470261358" lon="3.2253527563290576"><ele>370.0</ele><time>2026-03-25T11:49:17.999Z</time></trkpt><trkpt lat="43.62899235255335" lon="3.225284080470115"><ele>370.0</ele><time>2026-03-25T11:49:18.999Z</time></trkpt><trkpt lat="43.629078304441045" lon="3.225213421158562"><ele>370.0</ele><time>2026-03-25T11:49:19.999Z</time></trkpt><trkpt lat="43.629184759901534" lon="3.2251565384715533"><ele>370.0</ele><time>2026-03-25T11:49:20.999Z</time></trkpt><trkpt lat="43.629301617682216" lon="3.2251075672668987"><ele>370.0</ele><time>2026-03-25T11:49:21.999Z</time></trkpt><trkpt lat="43.629421304592015" lon="3.2250586853135927"><ele>373.0</ele><time>2026-03-25T11:49:22.999Z</time></trkpt><trkpt lat="43.62954052721478" lon="3.2250129747106553"><ele>376.0</ele><time>2026-03-25T11:49:23.999Z</time></trkpt><trkpt lat="43.62965842200895" lon="3.2249594042113823"><ele>379.0</ele><time>2026-03-25T11:49:25Z</time></trkpt><trkpt lat="43.629775914365304" lon="3.2249001949569704"><ele>382.0</ele><time>2026-03-25T11:49:26Z</time></trkpt><trkpt lat="43.62987999307437" lon="3.2248495445664287"><ele>382.0</ele><time>2026-03-25T11:49:27Z</time></trkpt><trkpt lat="43.62996939207925" lon="3.2248153220575237"><ele>382.0</ele><time>2026-03-25T11:49:28Z</time></trkpt><trkpt lat="43.630053706164574" lon="3.2247946270028423"><ele>382.0</ele><time>2026-03-25T11:49:29Z</time></trkpt><trkpt lat="43.63013392462396" lon="3.2247997472523156"><ele>382.0</ele><time>2026-03-25T11:49:30Z</time></trkpt><trkpt lat="43.630209769757585" lon="3.2248322022785834"><ele>382.0</ele><time>2026-03-25T11:49:31Z</time></trkpt><trkpt lat="43.63028011662017" lon="3.2248970424575285"><ele>382.0</ele><time>2026-03-25T11:49:32Z</time></trkpt><trkpt lat="43.63034003339566" lon="3.2249771959641658"><ele>383.8333333333333</ele><time>2026-03-25T11:49:33Z</time></trkpt><trkpt lat="43.63039935325527" lon="3.2250573310899715"><ele>385.66666666666663</ele><time>2026-03-25T11:49:34Z</time></trkpt><trkpt lat="43.63046448024423" lon="3.2251134362270677"><ele>387.5</ele><time>2026-03-25T11:49:35Z</time></trkpt><trkpt lat="43.63055025154674" lon="3.225126830152568"><ele>389.3333333333333</ele><time>2026-03-25T11:49:36Z</time></trkpt><trkpt lat="43.63064018547813" lon="3.2251228875413704"><ele>391.1666666666667</ele><time>2026-03-25T11:49:37Z</time></trkpt><trkpt lat="43.63073985050927" lon="3.225114461398972"><ele>393.0</ele><time>2026-03-25T11:49:38Z</time></trkpt><trkpt lat="43.63082613195258" lon="3.2251158710949626"><ele>393.0</ele><time>2026-03-25T11:49:39Z</time></trkpt><trkpt lat="43.63089640167668" lon="3.225107600012321"><ele>393.0</ele><time>2026-03-25T11:49:40Z</time></trkpt><trkpt lat="43.63100290114892" lon="3.2250196899611008"><ele>393.0</ele><time>2026-03-25T11:49:42Z</time></trkpt><trkpt lat="43.63105461915736" lon="3.2249460383530986"><ele>393.0</ele><time>2026-03-25T11:49:43Z</time></trkpt><trkpt lat="43.63109478593382" lon="3.224837475956126"><ele>393.0</ele><time>2026-03-25T11:49:44Z</time></trkpt><trkpt lat="43.631087319053464" lon="3.224700948569446"><ele>391.59999999999997</ele><time>2026-03-25T11:49:45Z</time></trkpt><trkpt lat="43.63109572330833" lon="3.2245604738404006"><ele>390.2</ele><time>2026-03-25T11:49:46Z</time></trkpt><trkpt lat="43.6311002591938" lon="3.2244140709722027"><ele>388.8</ele><time>2026-03-25T11:49:47Z</time></trkpt><trkpt lat="43.631108450122355" lon="3.224265421500975"><ele>387.4</ele><time>2026-03-25T11:49:48Z</time></trkpt><trkpt lat="43.63113257300051" lon="3.224120878482951"><ele>386.0</ele><time>2026-03-25T11:49:49Z</time></trkpt><trkpt lat="43.631170385040996" lon="3.2239786577496203"><ele>391.25</ele><time>2026-03-25T11:49:50Z</time></trkpt><trkpt lat="43.63121315791616" lon="3.2238323527978436"><ele>396.5</ele><time>2026-03-25T11:49:51Z</time></trkpt><trkpt lat="43.631264260603764" lon="3.2236893671802247"><ele>401.75</ele><time>2026-03-25T11:49:52Z</time></trkpt><trkpt lat="43.63132757577539" lon="3.2235558452666093"><ele>407.0</ele><time>2026-03-25T11:49:53Z</time></trkpt><trkpt lat="43.631398388744984" lon="3.2234317374514654"><ele>407.0</ele><time>2026-03-25T11:49:54Z</time></trkpt><trkpt lat="43.63147560733365" lon="3.2233129045159505"><ele>407.0</ele><time>2026-03-25T11:49:55Z</time></trkpt><trkpt lat="43.631556035975905" lon="3.223192791947244"><ele>407.0</ele><time>2026-03-25T11:49:56Z</time></trkpt><trkpt lat="43.63164030263895" lon="3.2230785005552405"><ele>407.0</ele><time>2026-03-25T11:49:57Z</time></trkpt><trkpt lat="43.631721019317915" lon="3.222955706367389"><ele>408.40000000000003</ele><time>2026-03-25T11:49:58Z</time></trkpt><trkpt lat="43.63179094275396" lon="3.2228178659808457"><ele>409.8</ele><time>2026-03-25T11:49:59Z</time></trkpt><trkpt lat="43.63185160525498" lon="3.222679432523395"><ele>411.2</ele><time>2026-03-25T11:50:00Z</time></trkpt><trkpt lat="43.63189829492026" lon="3.222568617462493"><ele>412.6</ele><time>2026-03-25T11:50:01Z</time></trkpt><trkpt lat="43.631937070796354" lon="3.222498794762326"><ele>414.0</ele><time>2026-03-25T11:50:02Z</time></trkpt><trkpt lat="43.632004621762405" lon="3.222393233062093"><ele>414.0</ele><time>2026-03-25T11:50:04Z</time></trkpt><trkpt lat="43.632069377077414" lon="3.2223706354368624"><ele>414.0</ele><time>2026-03-25T11:50:06Z</time></trkpt><trkpt lat="43.63212922137126" lon="3.2224222599048904"><ele>414.0</ele><time>2026-03-25T11:50:08Z</time></trkpt><trkpt lat="43.63203996795706" lon="3.2225540262825594"><ele>414.0</ele><time>2026-03-25T11:50:11Z</time></trkpt><trkpt lat="43.63199802065514" lon="3.2226359592047675"><ele>414.0</ele><time>2026-03-25T11:50:12Z</time></trkpt><trkpt lat="43.631960778713854" lon="3.2227298026788196"><ele>414.0</ele><time>2026-03-25T11:50:13Z</time></trkpt><trkpt lat="43.63192479742865" lon="3.2228394518924337"><ele>412.8333333333333</ele><time>2026-03-25T11:50:14Z</time></trkpt><trkpt lat="43.6318856416773" lon="3.2229468641534478"><ele>411.66666666666663</ele><time>2026-03-25T11:50:15Z</time></trkpt><trkpt lat="43.63184117114506" lon="3.2230482209547686"><ele>410.5</ele><time>2026-03-25T11:50:16Z</time></trkpt><trkpt lat="43.63180066936099" lon="3.2231366217446675"><ele>409.3333333333333</ele><time>2026-03-25T11:50:17Z</time></trkpt><trkpt lat="43.631763123679086" lon="3.2232589697251792"><ele>408.16666666666663</ele><time>2026-03-25T11:50:19Z</time></trkpt><trkpt lat="43.63178446818865" lon="3.2233475156027485"><ele>407.0</ele><time>2026-03-25T11:50:21Z</time></trkpt><trkpt lat="43.631877523308646" lon="3.2233611443193535"><ele>407.0</ele><time>2026-03-25T11:50:23Z</time></trkpt><trkpt lat="43.63195413077831" lon="3.2232544958031424"><ele>407.0</ele><time>2026-03-25T11:50:25Z</time></trkpt><trkpt lat="43.631986143513416" lon="3.223163997099461"><ele>407.0</ele><time>2026-03-25T11:50:26Z</time></trkpt><trkpt lat="43.632027368837946" lon="3.2230643242277996"><ele>407.0</ele><time>2026-03-25T11:50:27Z</time></trkpt><trkpt lat="43.63208449035242" lon="3.2229575503281422"><ele>407.0</ele><time>2026-03-25T11:50:28Z</time></trkpt><trkpt lat="43.632154451664405" lon="3.2228529051027124"><ele>408.40000000000003</ele><time>2026-03-25T11:50:29Z</time></trkpt><trkpt lat="43.63222581907275" lon="3.222768614725917"><ele>409.8</ele><time>2026-03-25T11:50:30Z</time></trkpt><trkpt lat="43.63231013275644" lon="3.2226899172237875"><ele>411.2</ele><time>2026-03-25T11:50:31Z</time></trkpt><trkpt lat="43.63241165126445" lon="3.2226277111487494"><ele>412.6</ele><time>2026-03-25T11:50:32Z</time></trkpt><trkpt lat="43.63252746095251" lon="3.222577580124581"><ele>414.0</ele><time>2026-03-25T11:50:33Z</time></trkpt><trkpt lat="43.632656198357616" lon="3.222534811202185"><ele>414.0</ele><time>2026-03-25T11:50:34Z</time></trkpt><trkpt lat="43.63276531927915" lon="3.222499866303449"><ele>414.0</ele><time>2026-03-25T11:50:35Z</time></trkpt><trkpt lat="43.63285712687681" lon="3.222474957720179"><ele>414.0</ele><time>2026-03-25T11:50:36Z</time></trkpt><trkpt lat="43.632933254315695" lon="3.2224705145175436"><ele>414.0</ele><time>2026-03-25T11:50:36.998Z</time></trkpt><trkpt lat="43.63299836011751" lon="3.2224974622775124"><ele>414.0</ele><time>2026-03-25T11:50:37.998Z</time></trkpt><trkpt lat="43.63305958161071" lon="3.2225491604184837"><ele>414.0</ele><time>2026-03-25T11:50:38.998Z</time></trkpt><trkpt lat="43.63311200177892" lon="3.222615127273099"><ele>414.6</ele><time>2026-03-25T11:50:39.998Z</time></trkpt><trkpt lat="43.633154611289115" lon="3.222707606175155"><ele>415.2</ele><time>2026-03-25T11:50:40.998Z</time></trkpt><trkpt lat="43.63314920509051" lon="3.2228442195625053"><ele>415.8</ele><time>2026-03-25T11:50:41.998Z</time></trkpt><trkpt lat="43.63318632126148" lon="3.222974821884299"><ele>416.40000000000003</ele><time>2026-03-25T11:50:42.998Z</time></trkpt><trkpt lat="43.63324870985293" lon="3.2230994857125363"><ele>417.0</ele><time>2026-03-25T11:50:43.998Z</time></trkpt><trkpt lat="43.633300323207486" lon="3.2232355163045026"><ele>418.6</ele><time>2026-03-25T11:50:44.998Z</time></trkpt><trkpt lat="43.63335959955716" lon="3.2233624408732733"><ele>420.20000000000005</ele><time>2026-03-25T11:50:45.998Z</time></trkpt><trkpt lat="43.63342595928893" lon="3.2234807742134413"><ele>421.8</ele><time>2026-03-25T11:50:46.998Z</time></trkpt><trkpt lat="43.633498646548276" lon="3.2235865213949273"><ele>423.4</ele><time>2026-03-25T11:50:47.998Z</time></trkpt><trkpt lat="43.63357581374426" lon="3.223681708829661"><ele>425.0</ele><time>2026-03-25T11:50:48.998Z</time></trkpt><trkpt lat="43.633659212757955" lon="3.2237558166155753"><ele>425.0</ele><time>2026-03-25T11:50:49.998Z</time></trkpt><trkpt lat="43.633752889580485" lon="3.2238003060783345"><ele>425.0</ele><time>2026-03-25T11:50:50.999Z</time></trkpt><trkpt lat="43.6338506791295" lon="3.2238378112614363"><ele>425.0</ele><time>2026-03-25T11:50:51.999Z</time></trkpt><trkpt lat="43.63395059724646" lon="3.223865589271492"><ele>425.0</ele><time>2026-03-25T11:50:52.999Z</time></trkpt><trkpt lat="43.63405798028606" lon="3.22388967262731"><ele>425.0</ele><time>2026-03-25T11:50:53.999Z</time></trkpt><trkpt lat="43.63416971304027" lon="3.2239051172391844"><ele>425.0</ele><time>2026-03-25T11:50:54.999Z</time></trkpt><trkpt lat="43.634284697342" lon="3.2239239619205695"><ele>425.0</ele><time>2026-03-25T11:50:55.999Z</time></trkpt><trkpt lat="43.63439876081831" lon="3.223947425071371"><ele>425.0</ele><time>2026-03-25T11:50:56.999Z</time></trkpt><trkpt lat="43.63449811344504" lon="3.223963447217283"><ele>425.0</ele><time>2026-03-25T11:50:57.999Z</time></trkpt><trkpt lat="43.634580839402155" lon="3.2239764218295193"><ele>425.0</ele><time>2026-03-25T11:50:58.999Z</time></trkpt><trkpt lat="43.63465291370113" lon="3.2240016875391087"><ele>427.42857142857144</ele><time>2026-03-25T11:50:59.999Z</time></trkpt><trkpt lat="43.63471896062995" lon="3.224042425398626"><ele>429.85714285714283</ele><time>2026-03-25T11:51:00.999Z</time></trkpt><trkpt lat="43.63477441089797" lon="3.2240935794570387"><ele>432.28571428571433</ele><time>2026-03-25T11:51:01.999Z</time></trkpt><trkpt lat="43.63481806561883" lon="3.2241660884827614"><ele>434.7142857142857</ele><time>2026-03-25T11:51:02.999Z</time></trkpt><trkpt lat="43.634844990253534" lon="3.224248393565858"><ele>437.14285714285717</ele><time>2026-03-25T11:51:03.999Z</time></trkpt><trkpt lat="43.634849000809226" lon="3.2243436007657422"><ele>439.5714285714286</ele><time>2026-03-25T11:51:04.999Z</time></trkpt><trkpt lat="43.63483105553607" lon="3.224441733595061"><ele>442.0</ele><time>2026-03-25T11:51:05.999Z</time></trkpt><trkpt lat="43.63477934451976" lon="3.2245344591789173"><ele>442.0</ele><time>2026-03-25T11:51:06.999Z</time></trkpt><trkpt lat="43.6347221146773" lon="3.22464065327107"><ele>442.00000000000006</ele><time>2026-03-25T11:51:07.999Z</time></trkpt><trkpt lat="43.634662636999764" lon="3.224748639325784"><ele>442.00000000000006</ele><time>2026-03-25T11:51:08.999Z</time></trkpt><trkpt lat="43.63459994986859" lon="3.2248342204135163"><ele>442.0</ele><time>2026-03-25T11:51:09.999Z</time></trkpt><trkpt lat="43.63452695536286" lon="3.2249004789974056"><ele>442.0</ele><time>2026-03-25T11:51:10.999Z</time></trkpt><trkpt lat="43.6344470589019" lon="3.2249414908064686"><ele>442.6</ele><time>2026-03-25T11:51:11.999Z</time></trkpt><trkpt lat="43.63436542096099" lon="3.224958708978266"><ele>443.20000000000005</ele><time>2026-03-25T11:51:12.999Z</time></trkpt><trkpt lat="43.634280109840404" lon="3.2249630782576406"><ele>443.8</ele><time>2026-03-25T11:51:13.999Z</time></trkpt><trkpt lat="43.63420628176082" lon="3.224960807635607"><ele>444.4</ele><time>2026-03-25T11:51:14.999Z</time></trkpt><trkpt lat="43.634093205374654" lon="3.2249605052506696"><ele>445.0</ele><time>2026-03-25T11:51:16.999Z</time></trkpt><trkpt lat="43.633992960748934" lon="3.224961190056212"><ele>445.0</ele><time>2026-03-25T11:51:19Z</time></trkpt><trkpt lat="43.63387498182321" lon="3.224966946367191"><ele>445.0</ele><time>2026-03-25T11:51:21Z</time></trkpt><trkpt lat="43.63379313620756" lon="3.224985380372264"><ele>445.0</ele><time>2026-03-25T11:51:22Z</time></trkpt><trkpt lat="43.63370079710102" lon="3.2250289247896524"><ele>445.0</ele><time>2026-03-25T11:51:23Z</time></trkpt><trkpt lat="43.63360534186885" lon="3.2250849240670947"><ele>445.0</ele><time>2026-03-25T11:51:24Z</time></trkpt><trkpt lat="43.633507191215024" lon="3.225155056691587"><ele>446.2</ele><time>2026-03-25T11:51:25Z</time></trkpt><trkpt lat="43.63341116936578" lon="3.225230844172011"><ele>447.4</ele><time>2026-03-25T11:51:26Z</time></trkpt><trkpt lat="43.63331765943939" lon="3.2253046490099533"><ele>448.6</ele><time>2026-03-25T11:51:27Z</time></trkpt><trkpt lat="43.63323634265252" lon="3.2253642174262898"><ele>449.8</ele><time>2026-03-25T11:51:28Z</time></trkpt><trkpt lat="43.633171599942024" lon="3.2254273510082987"><ele>451.0</ele><time>2026-03-25T11:51:29Z</time></trkpt><trkpt lat="43.63311095620105" lon="3.2254598885519745"><ele>451.0</ele><time>2026-03-25T11:51:30Z</time></trkpt><trkpt lat="43.633053650414176" lon="3.225521561596481"><ele>451.0</ele><time>2026-03-25T11:51:32Z</time></trkpt><trkpt lat="43.63308844149696" lon="3.2256943161551104"><ele>451.0</ele><time>2026-03-25T11:51:33Z</time></trkpt><trkpt lat="43.63301244131641" lon="3.2258219472092278"><ele>451.0</ele><time>2026-03-25T11:51:35Z</time></trkpt><trkpt lat="43.63296273747339" lon="3.225888483952453"><ele>451.0</ele><time>2026-03-25T11:51:36Z</time></trkpt><trkpt lat="43.63290365003575" lon="3.2259579027019667"><ele>451.1428571428571</ele><time>2026-03-25T11:51:37Z</time></trkpt><trkpt lat="43.632857526153835" lon="3.2260213862285334"><ele>451.28571428571433</ele><time>2026-03-25T11:51:38Z</time></trkpt><trkpt lat="43.632816359802206" lon="3.226103482181141"><ele>451.42857142857144</ele><time>2026-03-25T11:51:41Z</time></trkpt><trkpt lat="43.63284788929933" lon="3.2261923382807303"><ele>451.57142857142856</ele><time>2026-03-25T11:51:45Z</time></trkpt><trkpt lat="43.632901858666855" lon="3.226249785169053"><ele>451.71428571428567</ele><time>2026-03-25T11:51:46Z</time></trkpt><trkpt lat="43.63294992139182" lon="3.226333285624309"><ele>451.8571428571429</ele><time>2026-03-25T11:51:47Z</time></trkpt><trkpt lat="43.633008208785974" lon="3.226418925150186"><ele>452.0</ele><time>2026-03-25T11:51:48Z</time></trkpt><trkpt lat="43.6330609303778" lon="3.2264997117035286"><ele>451.49999999999994</ele><time>2026-03-25T11:51:49Z</time></trkpt><trkpt lat="43.63311533873052" lon="3.226559142205674"><ele>451.0</ele><time>2026-03-25T11:51:50Z</time></trkpt><trkpt lat="43.633153453596044" lon="3.226629999642834"><ele>450.5</ele><time>2026-03-25T11:51:51Z</time></trkpt><trkpt lat="43.633228022716665" lon="3.22676637567523"><ele>450.0</ele><time>2026-03-25T11:51:53Z</time></trkpt><trkpt lat="43.63328878570437" lon="3.2269155592071668"><ele>449.49999999999994</ele><time>2026-03-25T11:51:55Z</time></trkpt><trkpt lat="43.633304795261694" lon="3.226999862219689"><ele>449.0</ele><time>2026-03-25T11:51:56Z</time></trkpt><trkpt lat="43.633307912558884" lon="3.227095140058878"><ele>448.99999999999994</ele><time>2026-03-25T11:51:57Z</time></trkpt><trkpt lat="43.63331197841192" lon="3.2271995506065734"><ele>449.0</ele><time>2026-03-25T11:51:58Z</time></trkpt><trkpt lat="43.63332453135909" lon="3.2272980687967894"><ele>449.0</ele><time>2026-03-25T11:51:59Z</time></trkpt><trkpt lat="43.633371512466134" lon="3.2274441460885"><ele>449.0</ele><time>2026-03-25T11:52:01Z</time></trkpt><trkpt lat="43.63346763745373" lon="3.22752548585219"><ele>448.99999999999994</ele><time>2026-03-25T11:52:03Z</time></trkpt><trkpt lat="43.63352834415534" lon="3.227552988975438"><ele>449.0</ele><time>2026-03-25T11:52:04Z</time></trkpt><trkpt lat="43.63359903920923" lon="3.227578396132774"><ele>448.16666666666663</ele><time>2026-03-25T11:52:05Z</time></trkpt><trkpt lat="43.63367308869268" lon="3.2276002043875818"><ele>447.3333333333333</ele><time>2026-03-25T11:52:06Z</time></trkpt><trkpt lat="43.633749969458556" lon="3.227625680531167"><ele>446.5</ele><time>2026-03-25T11:52:07Z</time></trkpt><trkpt lat="43.633827801798425" lon="3.2276779252954335"><ele>445.66666666666663</ele><time>2026-03-25T11:52:08Z</time></trkpt><trkpt lat="43.633901046986054" lon="3.227749036980428"><ele>444.8333333333333</ele><time>2026-03-25T11:52:09Z</time></trkpt><trkpt lat="43.63397164732776" lon="3.2278334334376035"><ele>444.0</ele><time>2026-03-25T11:52:10Z</time></trkpt><trkpt lat="43.63404442502077" lon="3.2279265616370427"><ele>444.0</ele><time>2026-03-25T11:52:11Z</time></trkpt><trkpt lat="43.634104138756946" lon="3.228016803771314"><ele>444.0</ele><time>2026-03-25T11:52:12Z</time></trkpt><trkpt lat="43.63416439591563" lon="3.22810651145459"><ele>444.0</ele><time>2026-03-25T11:52:13Z</time></trkpt><trkpt lat="43.63419768720477" lon="3.2282218071448185"><ele>444.0</ele><time>2026-03-25T11:52:14Z</time></trkpt><trkpt lat="43.634249138841504" lon="3.2283289323989663"><ele>444.0</ele><time>2026-03-25T11:52:15Z</time></trkpt><trkpt lat="43.634304830376884" lon="3.2284367415536335"><ele>445.0</ele><time>2026-03-25T11:52:16Z</time></trkpt><trkpt lat="43.63438357394409" lon="3.2285330025911336"><ele>446.0</ele><time>2026-03-25T11:52:17Z</time></trkpt><trkpt lat="43.63446399095126" lon="3.2286497600001596"><ele>447.0</ele><time>2026-03-25T11:52:18Z</time></trkpt><trkpt lat="43.63455709686267" lon="3.228767577687922"><ele>448.0</ele><time>2026-03-25T11:52:19.001Z</time></trkpt><trkpt lat="43.634653852259866" lon="3.228883487994585"><ele>450.0</ele><time>2026-03-25T11:52:20.001Z</time></trkpt><trkpt lat="43.63474873417587" lon="3.2290020220305755"><ele>452.0</ele><time>2026-03-25T11:52:21.001Z</time></trkpt><trkpt lat="43.63484134921953" lon="3.2291286685445315"><ele>454.0</ele><time>2026-03-25T11:52:22.001Z</time></trkpt><trkpt lat="43.63493867174737" lon="3.229239125910782"><ele>456.0</ele><time>2026-03-25T11:52:23.001Z</time></trkpt><trkpt lat="43.635033859768626" lon="3.2293355804081596"><ele>456.0</ele><time>2026-03-25T11:52:24.001Z</time></trkpt><trkpt lat="43.63512121007334" lon="3.2294261780291333"><ele>456.0</ele><time>2026-03-25T11:52:25.001Z</time></trkpt><trkpt lat="43.635199086226926" lon="3.229506334245331"><ele>456.0</ele><time>2026-03-25T11:52:26.001Z</time></trkpt><trkpt lat="43.635269658479324" lon="3.229579858379904"><ele>456.0</ele><time>2026-03-25T11:52:27.001Z</time></trkpt><trkpt lat="43.63532937451399" lon="3.229651838827631"><ele>456.0</ele><time>2026-03-25T11:52:28.001Z</time></trkpt><trkpt lat="43.635383951353255" lon="3.2297325110540225"><ele>455.1666666666667</ele><time>2026-03-25T11:52:29.001Z</time></trkpt><trkpt lat="43.63543334854014" lon="3.2298135435746156"><ele>454.33333333333337</ele><time>2026-03-25T11:52:30.001Z</time></trkpt><trkpt lat="43.6354841879353" lon="3.229896621593561"><ele>453.5</ele><time>2026-03-25T11:52:31.001Z</time></trkpt><trkpt lat="43.63553406854328" lon="3.2299861986293714"><ele>452.6666666666667</ele><time>2026-03-25T11:52:32.001Z</time></trkpt><trkpt lat="43.63557845918663" lon="3.23008195171079"><ele>451.83333333333337</ele><time>2026-03-25T11:52:33.001Z</time></trkpt><trkpt lat="43.63561733011504" lon="3.2301901748414883"><ele>451.0</ele><time>2026-03-25T11:52:34.001Z</time></trkpt><trkpt lat="43.63565079405877" lon="3.230302116117747"><ele>451.0</ele><time>2026-03-25T11:52:35.001Z</time></trkpt><trkpt lat="43.63568140165769" lon="3.2304275727236083"><ele>451.0</ele><time>2026-03-25T11:52:36.001Z</time></trkpt><trkpt lat="43.63571162889561" lon="3.230554358780831"><ele>451.0</ele><time>2026-03-25T11:52:37.001Z</time></trkpt><trkpt lat="43.635740913482365" lon="3.23068357845218"><ele>451.0</ele><time>2026-03-25T11:52:38.001Z</time></trkpt><trkpt lat="43.635770963377446" lon="3.2308069682215534"><ele>451.0</ele><time>2026-03-25T11:52:39.001Z</time></trkpt><trkpt lat="43.63580761936455" lon="3.2309282501083363"><ele>450.4</ele><time>2026-03-25T11:52:40.001Z</time></trkpt><trkpt lat="43.63585875689805" lon="3.2310483099438505"><ele>449.8</ele><time>2026-03-25T11:52:41.001Z</time></trkpt><trkpt lat="43.635918655462305" lon="3.231161724128617"><ele>449.19999999999993</ele><time>2026-03-25T11:52:42.001Z</time></trkpt><trkpt lat="43.63598431163399" lon="3.2312738518486754"><ele>448.59999999999997</ele><time>2026-03-25T11:52:42.998Z</time></trkpt><trkpt lat="43.636051338300724" lon="3.2313890929637474"><ele>448.0</ele><time>2026-03-25T11:52:43.998Z</time></trkpt><trkpt lat="43.63611762476823" lon="3.2315064362786"><ele>446.59999999999997</ele><time>2026-03-25T11:52:44.998Z</time></trkpt><trkpt lat="43.636177043777316" lon="3.2316190339286393"><ele>445.19999999999993</ele><time>2026-03-25T11:52:45.998Z</time></trkpt><trkpt lat="43.63623034870209" lon="3.231723693877915"><ele>443.8</ele><time>2026-03-25T11:52:46.998Z</time></trkpt><trkpt lat="43.63627911163542" lon="3.2318279199296276"><ele>442.4</ele><time>2026-03-25T11:52:47.998Z</time></trkpt><trkpt lat="43.63630492384656" lon="3.2319452417771095"><ele>441.0</ele><time>2026-03-25T11:52:48.998Z</time></trkpt><trkpt lat="43.63635544385702" lon="3.23202841956473"><ele>441.0</ele><time>2026-03-25T11:52:49.998Z</time></trkpt><trkpt lat="43.636398510483225" lon="3.2321002629801763"><ele>441.0</ele><time>2026-03-25T11:52:50.998Z</time></trkpt><trkpt lat="43.63644800527279" lon="3.2321541184217333"><ele>441.0</ele><time>2026-03-25T11:52:51.998Z</time></trkpt><trkpt lat="43.63654815216367" lon="3.232209853198796"><ele>441.0</ele><time>2026-03-25T11:52:53.999Z</time></trkpt><trkpt lat="43.636674218223874" lon="3.232170023742716"><ele>441.0</ele><time>2026-03-25T11:52:55.999Z</time></trkpt><trkpt lat="43.6367462923823" lon="3.232130136756687"><ele>441.0</ele><time>2026-03-25T11:52:56.999Z</time></trkpt><trkpt lat="43.63682015142151" lon="3.232092900411782"><ele>441.0</ele><time>2026-03-25T11:52:57.999Z</time></trkpt><trkpt lat="43.63688802516431" lon="3.232064284986921"><ele>441.0</ele><time>2026-03-25T11:52:58.999Z</time></trkpt><trkpt lat="43.63695311870765" lon="3.2320644768389313"><ele>441.0</ele><time>2026-03-25T11:52:59.999Z</time></trkpt><trkpt lat="43.63702634138869" lon="3.232074980713493"><ele>441.0</ele><time>2026-03-25T11:53:00.999Z</time></trkpt><trkpt lat="43.637103474147004" lon="3.232090429816487"><ele>441.0</ele><time>2026-03-25T11:53:01.999Z</time></trkpt><trkpt lat="43.637191486401456" lon="3.2321110624318012"><ele>441.0</ele><time>2026-03-25T11:53:02.999Z</time></trkpt><trkpt lat="43.63728575747581" lon="3.232130818538052"><ele>439.1666666666667</ele><time>2026-03-25T11:53:03.999Z</time></trkpt><trkpt lat="43.637374092253815" lon="3.2321524878240133"><ele>437.33333333333337</ele><time>2026-03-25T11:53:04.999Z</time></trkpt><trkpt lat="43.637449441403234" lon="3.232170776515291"><ele>435.5</ele><time>2026-03-25T11:53:05.999Z</time></trkpt><trkpt lat="43.63752218821211" lon="3.2321910243342273"><ele>433.6666666666667</ele><time>2026-03-25T11:53:06.999Z</time></trkpt><trkpt lat="43.63758889168579" lon="3.232212589427784"><ele>431.83333333333337</ele><time>2026-03-25T11:53:07.999Z</time></trkpt><trkpt lat="43.6376592124018" lon="3.2322436749037164"><ele>430.0</ele><time>2026-03-25T11:53:08.999Z</time></trkpt><trkpt lat="43.63773340855219" lon="3.2322877228290996"><ele>430.0</ele><time>2026-03-25T11:53:09.999Z</time></trkpt><trkpt lat="43.63780793267054" lon="3.232342169941529"><ele>430.0</ele><time>2026-03-25T11:53:10.999Z</time></trkpt><trkpt lat="43.63788467547081" lon="3.232409857263904"><ele>430.0</ele><time>2026-03-25T11:53:11.999Z</time></trkpt><trkpt lat="43.63796455104253" lon="3.2324710590669237"><ele>430.0</ele><time>2026-03-25T11:53:12.999Z</time></trkpt><trkpt lat="43.638049117345176" lon="3.23252540331761"><ele>430.0</ele><time>2026-03-25T11:53:13.999Z</time></trkpt><trkpt lat="43.63814193845007" lon="3.23255833983376"><ele>430.0</ele><time>2026-03-25T11:53:14.999Z</time></trkpt><trkpt lat="43.63823334838298" lon="3.2325803937934703"><ele>430.0</ele><time>2026-03-25T11:53:15.999Z</time></trkpt><trkpt lat="43.63832463034571" lon="3.232601494282889"><ele>430.0</ele><time>2026-03-25T11:53:16.999Z</time></trkpt><trkpt lat="43.638418251891366" lon="3.232610746154743"><ele>430.0</ele><time>2026-03-25T11:53:17.999Z</time></trkpt><trkpt lat="43.638514904235954" lon="3.2326270871911293"><ele>430.0</ele><time>2026-03-25T11:53:19Z</time></trkpt><trkpt lat="43.63861076874337" lon="3.2326487274203566"><ele>428.8</ele><time>2026-03-25T11:53:20Z</time></trkpt><trkpt lat="43.63870244233889" lon="3.232668535701046"><ele>427.6</ele><time>2026-03-25T11:53:21Z</time></trkpt><trkpt lat="43.638796364787275" lon="3.232682763879186"><ele>426.4</ele><time>2026-03-25T11:53:22Z</time></trkpt><trkpt lat="43.63888890670811" lon="3.232693862989538"><ele>425.2</ele><time>2026-03-25T11:53:23Z</time></trkpt><trkpt lat="43.638977546628226" lon="3.2327267148957475"><ele>424.0</ele><time>2026-03-25T11:53:24Z</time></trkpt><trkpt lat="43.63907745392274" lon="3.2327147145053154"><ele>424.00000000000006</ele><time>2026-03-25T11:53:25Z</time></trkpt><trkpt lat="43.6391671286672" lon="3.232669606078998"><ele>424.0</ele><time>2026-03-25T11:53:26Z</time></trkpt><trkpt lat="43.63926198897317" lon="3.2326533150578194"><ele>424.0</ele><time>2026-03-25T11:53:27Z</time></trkpt><trkpt lat="43.63935505316782" lon="3.232623490162045"><ele>424.0</ele><time>2026-03-25T11:53:28Z</time></trkpt><trkpt lat="43.63943259860945" lon="3.2325994100942266"><ele>424.00000000000006</ele><time>2026-03-25T11:53:29Z</time></trkpt><trkpt lat="43.63949608993952" lon="3.232581393760317"><ele>424.0</ele><time>2026-03-25T11:53:30Z</time></trkpt><trkpt lat="43.63962843346772" lon="3.232567830854896"><ele>425.79999999999995</ele><time>2026-03-25T11:53:32Z</time></trkpt><trkpt lat="43.63970441495364" lon="3.2325480514863814"><ele>427.59999999999997</ele><time>2026-03-25T11:53:33Z</time></trkpt><trkpt lat="43.6397894963874" lon="3.2325107356929244"><ele>429.4</ele><time>2026-03-25T11:53:34Z</time></trkpt><trkpt lat="43.63988310644513" lon="3.2324638793549587"><ele>431.2</ele><time>2026-03-25T11:53:35Z</time></trkpt><trkpt lat="43.63997418828801" lon="3.232409808333012"><ele>433.0</ele><time>2026-03-25T11:53:36Z</time></trkpt><trkpt lat="43.64005789286735" lon="3.2323565554241105"><ele>432.6666666666667</ele><time>2026-03-25T11:53:37Z</time></trkpt><trkpt lat="43.640127551044756" lon="3.2323057109998885"><ele>432.33333333333337</ele><time>2026-03-25T11:53:38Z</time></trkpt><trkpt lat="43.64020113260205" lon="3.2322500814469"><ele>432.0</ele><time>2026-03-25T11:53:39Z</time></trkpt><trkpt lat="43.640270416191385" lon="3.2321949478885856"><ele>431.66666666666663</ele><time>2026-03-25T11:53:40Z</time></trkpt><trkpt lat="43.640335494567275" lon="3.2321278544839354"><ele>431.3333333333333</ele><time>2026-03-25T11:53:41Z</time></trkpt><trkpt lat="43.640397196713494" lon="3.2320496199156086"><ele>431.0</ele><time>2026-03-25T11:53:42Z</time></trkpt><trkpt lat="43.64045648885448" lon="3.2319624071931643"><ele>431.0</ele><time>2026-03-25T11:53:43Z</time></trkpt><trkpt lat="43.64051187347757" lon="3.231862504633833"><ele>431.0</ele><time>2026-03-25T11:53:44Z</time></trkpt><trkpt lat="43.64056799887301" lon="3.231753487974073"><ele>431.0</ele><time>2026-03-25T11:53:45Z</time></trkpt><trkpt lat="43.640629991732176" lon="3.2316457445698727"><ele>431.0</ele><time>2026-03-25T11:53:46Z</time></trkpt><trkpt lat="43.64069062454335" lon="3.231541006045535"><ele>431.0</ele><time>2026-03-25T11:53:47Z</time></trkpt><trkpt lat="43.64075535448187" lon="3.23143611838663"><ele>428.20000000000005</ele><time>2026-03-25T11:53:48Z</time></trkpt><trkpt lat="43.640819780275145" lon="3.2313369303036072"><ele>425.40000000000003</ele><time>2026-03-25T11:53:49Z</time></trkpt><trkpt lat="43.64088657871653" lon="3.231237889940649"><ele>422.6</ele><time>2026-03-25T11:53:50Z</time></trkpt><trkpt lat="43.64095586035979" lon="3.2311448845237227"><ele>419.8</ele><time>2026-03-25T11:53:51Z</time></trkpt><trkpt lat="43.641022071688745" lon="3.2310546197486296"><ele>417.0</ele><time>2026-03-25T11:53:52Z</time></trkpt><trkpt lat="43.641088821789275" lon="3.230967896437404"><ele>417.5</ele><time>2026-03-25T11:53:53Z</time></trkpt><trkpt lat="43.64115062721648" lon="3.2308900203511866"><ele>418.0</ele><time>2026-03-25T11:53:54Z</time></trkpt><trkpt lat="43.64121125495548" lon="3.230822316599973"><ele>418.5</ele><time>2026-03-25T11:53:55Z</time></trkpt><trkpt lat="43.641272309908395" lon="3.2307638496817837"><ele>419.0</ele><time>2026-03-25T11:53:56Z</time></trkpt><trkpt lat="43.641338241134314" lon="3.2307189014365405"><ele>419.5</ele><time>2026-03-25T11:53:57Z</time></trkpt><trkpt lat="43.64140830125621" lon="3.230686829700939"><ele>420.0</ele><time>2026-03-25T11:53:58Z</time></trkpt><trkpt lat="43.641480266789856" lon="3.2306700442544285"><ele>420.0</ele><time>2026-03-25T11:53:59Z</time></trkpt><trkpt lat="43.64154548221969" lon="3.2306656073305575"><ele>420.0</ele><time>2026-03-25T11:54:00Z</time></trkpt><trkpt lat="43.641674575803656" lon="3.230708173731123"><ele>420.0</ele><time>2026-03-25T11:54:02Z</time></trkpt><trkpt lat="43.641745930802436" lon="3.2307484575093945"><ele>420.0</ele><time>2026-03-25T11:54:03Z</time></trkpt><trkpt lat="43.64181922525902" lon="3.2307950735129776"><ele>420.0</ele><time>2026-03-25T11:54:04.001Z</time></trkpt><trkpt lat="43.64189481351029" lon="3.2308394665500564"><ele>420.0</ele><time>2026-03-25T11:54:05.001Z</time></trkpt><trkpt lat="43.6419720902482" lon="3.230891390448699"><ele>418.1666666666667</ele><time>2026-03-25T11:54:06.001Z</time></trkpt><trkpt lat="43.642047453662805" lon="3.2309573614130858"><ele>416.33333333333337</ele><time>2026-03-25T11:54:07.001Z</time></trkpt><trkpt lat="43.642121036915455" lon="3.2310234965595988"><ele>414.5</ele><time>2026-03-25T11:54:08.001Z</time></trkpt><trkpt lat="43.64219455560041" lon="3.231084973179191"><ele>412.6666666666667</ele><time>2026-03-25T11:54:09.001Z</time></trkpt><trkpt lat="43.64226920950427" lon="3.231134596539376"><ele>410.83333333333337</ele><time>2026-03-25T11:54:10.001Z</time></trkpt><trkpt lat="43.64233964627671" lon="3.231173622109004"><ele>409.0</ele><time>2026-03-25T11:54:11.001Z</time></trkpt><trkpt lat="43.642410856125764" lon="3.2312032940616686"><ele>409.0</ele><time>2026-03-25T11:54:12.001Z</time></trkpt><trkpt lat="43.64248477049297" lon="3.231225716042605"><ele>409.0</ele><time>2026-03-25T11:54:13.001Z</time></trkpt><trkpt lat="43.642587303867636" lon="3.231252368928168"><ele>409.0</ele><time>2026-03-25T11:54:15.001Z</time></trkpt><trkpt lat="43.64269089821489" lon="3.231267528742569"><ele>409.0</ele><time>2026-03-25T11:54:17.001Z</time></trkpt><trkpt lat="43.64279650479372" lon="3.2312600833886735"><ele>409.0</ele><time>2026-03-25T11:54:19.001Z</time></trkpt><trkpt lat="43.64288636864942" lon="3.231239189077703"><ele>409.6666666666667</ele><time>2026-03-25T11:54:21.001Z</time></trkpt><trkpt lat="43.64295351777592" lon="3.231225525785858"><ele>410.33333333333337</ele><time>2026-03-25T11:54:23.001Z</time></trkpt><trkpt lat="43.64302380441744" lon="3.231209252954949"><ele>411.0</ele><time>2026-03-25T11:54:25.001Z</time></trkpt><trkpt lat="43.64314233533557" lon="3.231198843465162"><ele>411.66666666666663</ele><time>2026-03-25T11:54:27.001Z</time></trkpt><trkpt lat="43.643206422350694" lon="3.2311967181901573"><ele>412.3333333333333</ele><time>2026-03-25T11:54:28.001Z</time></trkpt><trkpt lat="43.64327306878657" lon="3.2311966053786194"><ele>413.0</ele><time>2026-03-25T11:54:29.001Z</time></trkpt><trkpt lat="43.6433414523883" lon="3.231195997490684"><ele>413.0</ele><time>2026-03-25T11:54:30.001Z</time></trkpt><trkpt lat="43.64342666205795" lon="3.231189112899227"><ele>413.0</ele><time>2026-03-25T11:54:31.001Z</time></trkpt><trkpt lat="43.64353116395421" lon="3.2311936794478853"><ele>413.0</ele><time>2026-03-25T11:54:32.001Z</time></trkpt><trkpt lat="43.64363836978496" lon="3.231205152694631"><ele>413.0</ele><time>2026-03-25T11:54:33.001Z</time></trkpt><trkpt lat="43.64376855032203" lon="3.2312146211671"><ele>413.0</ele><time>2026-03-25T11:54:34.001Z</time></trkpt><trkpt lat="43.643916653325206" lon="3.231223762816303"><ele>414.5</ele><time>2026-03-25T11:54:35.001Z</time></trkpt><trkpt lat="43.64405922402594" lon="3.231234156897749"><ele>416.0</ele><time>2026-03-25T11:54:36.001Z</time></trkpt><trkpt lat="43.64419517813097" lon="3.231246804556976"><ele>417.5</ele><time>2026-03-25T11:54:37.001Z</time></trkpt><trkpt lat="43.64431812323335" lon="3.2312540485384345"><ele>419.0</ele><time>2026-03-25T11:54:38.001Z</time></trkpt><trkpt lat="43.64442565798136" lon="3.2312480211899564"><ele>417.25</ele><time>2026-03-25T11:54:39.001Z</time></trkpt><trkpt lat="43.64453209713703" lon="3.231236721739204"><ele>415.5</ele><time>2026-03-25T11:54:40.001Z</time></trkpt><trkpt lat="43.64465162141011" lon="3.23122868122831"><ele>413.75</ele><time>2026-03-25T11:54:41.001Z</time></trkpt><trkpt lat="43.644782096445034" lon="3.2312203217717976"><ele>412.0</ele><time>2026-03-25T11:54:42.001Z</time></trkpt><trkpt lat="43.64492242792669" lon="3.231211464447097"><ele>412.0</ele><time>2026-03-25T11:54:43.001Z</time></trkpt><trkpt lat="43.64506392269352" lon="3.2311942790007744"><ele>412.0</ele><time>2026-03-25T11:54:44.001Z</time></trkpt><trkpt lat="43.645194502315064" lon="3.2311667679599725"><ele>412.0</ele><time>2026-03-25T11:54:45.001Z</time></trkpt><trkpt lat="43.64532006035519" lon="3.231145382744047"><ele>412.0</ele><time>2026-03-25T11:54:46.001Z</time></trkpt><trkpt lat="43.64544361166232" lon="3.231120584893894"><ele>410.25</ele><time>2026-03-25T11:54:47.001Z</time></trkpt><trkpt lat="43.64557237424699" lon="3.2310999704017975"><ele>408.5</ele><time>2026-03-25T11:54:48.001Z</time></trkpt><trkpt lat="43.64570461088201" lon="3.231089140769949"><ele>406.75</ele><time>2026-03-25T11:54:48.999Z</time></trkpt><trkpt lat="43.64584092580743" lon="3.2310914640786"><ele>405.0</ele><time>2026-03-25T11:54:49.999Z</time></trkpt><trkpt lat="43.64598197246037" lon="3.231097569961881"><ele>405.0</ele><time>2026-03-25T11:54:50.999Z</time></trkpt><trkpt lat="43.646124206680504" lon="3.231110094490151"><ele>405.0</ele><time>2026-03-25T11:54:51.999Z</time></trkpt><trkpt lat="43.64626487584115" lon="3.231120781270971"><ele>405.0</ele><time>2026-03-25T11:54:52.999Z</time></trkpt><trkpt lat="43.64640647853655" lon="3.2311335520222597"><ele>405.0</ele><time>2026-03-25T11:54:53.999Z</time></trkpt><trkpt lat="43.646542030410174" lon="3.2311422833218417"><ele>403.75</ele><time>2026-03-25T11:54:54.999Z</time></trkpt><trkpt lat="43.64667612087022" lon="3.2311429096079665"><ele>402.5</ele><time>2026-03-25T11:54:55.999Z</time></trkpt><trkpt lat="43.64680140695997" lon="3.2311350454258716"><ele>401.25</ele><time>2026-03-25T11:54:56.999Z</time></trkpt><trkpt lat="43.64692132839778" lon="3.231125204530937"><ele>400.0</ele><time>2026-03-25T11:54:57.999Z</time></trkpt><trkpt lat="43.64703861679127" lon="3.231121859485501"><ele>398.75</ele><time>2026-03-25T11:54:58.999Z</time></trkpt><trkpt lat="43.64715563972015" lon="3.231121458831869"><ele>397.5</ele><time>2026-03-25T11:54:59.999Z</time></trkpt><trkpt lat="43.64727217753917" lon="3.2311335717466254"><ele>396.25</ele><time>2026-03-25T11:55:00.999Z</time></trkpt><trkpt lat="43.647383912574526" lon="3.2311646051529466"><ele>395.0</ele><time>2026-03-25T11:55:01.999Z</time></trkpt><trkpt lat="43.64749571432877" lon="3.231200829974812"><ele>395.0</ele><time>2026-03-25T11:55:02.999Z</time></trkpt><trkpt lat="43.647604200688505" lon="3.2312317293139"><ele>395.0</ele><time>2026-03-25T11:55:03.999Z</time></trkpt><trkpt lat="43.647705959525005" lon="3.2312608236342757"><ele>395.0</ele><time>2026-03-25T11:55:04.999Z</time></trkpt><trkpt lat="43.6477974905028" lon="3.231269577372893"><ele>395.0</ele><time>2026-03-25T11:55:05.999Z</time></trkpt><trkpt lat="43.647882764227084" lon="3.2312512799171134"><ele>395.0</ele><time>2026-03-25T11:55:06.999Z</time></trkpt><trkpt lat="43.64795905286546" lon="3.2312240176990326"><ele>395.99999999999994</ele><time>2026-03-25T11:55:07.999Z</time></trkpt><trkpt lat="43.64801941378346" lon="3.231194465502351"><ele>397.0</ele><time>2026-03-25T11:55:08.999Z</time></trkpt><trkpt lat="43.64813762672989" lon="3.2312037571371794"><ele>398.0</ele><time>2026-03-25T11:55:10.999Z</time></trkpt><trkpt lat="43.64820188218915" lon="3.231250483844528"><ele>399.0</ele><time>2026-03-25T11:55:11.999Z</time></trkpt><trkpt lat="43.64826042895346" lon="3.231321479694273"><ele>399.99999999999994</ele><time>2026-03-25T11:55:13Z</time></trkpt><trkpt lat="43.64832834928778" lon="3.2313823247585853"><ele>401.0</ele><time>2026-03-25T11:55:14Z</time></trkpt><trkpt lat="43.64840349431091" lon="3.231434782526864"><ele>398.8</ele><time>2026-03-25T11:55:15Z</time></trkpt><trkpt lat="43.64847659470896" lon="3.2314835311928563"><ele>396.6</ele><time>2026-03-25T11:55:16Z</time></trkpt><trkpt lat="43.6485423246575" lon="3.231570653084064"><ele>394.4</ele><time>2026-03-25T11:55:17Z</time></trkpt><trkpt lat="43.648599335999684" lon="3.2316858769952557"><ele>392.2</ele><time>2026-03-25T11:55:18Z</time></trkpt><trkpt lat="43.64865453410154" lon="3.2318212360698455"><ele>390.0</ele><time>2026-03-25T11:55:19Z</time></trkpt><trkpt lat="43.64875354297584" lon="3.231916610922019"><ele>390.0</ele><time>2026-03-25T11:55:20Z</time></trkpt><trkpt lat="43.648851030453656" lon="3.232024372144909"><ele>390.0</ele><time>2026-03-25T11:55:21Z</time></trkpt><trkpt lat="43.64894051533264" lon="3.232131664042056"><ele>390.0</ele><time>2026-03-25T11:55:22Z</time></trkpt><trkpt lat="43.64902564694168" lon="3.2322269341119294"><ele>390.0</ele><time>2026-03-25T11:55:23Z</time></trkpt><trkpt lat="43.64911549184277" lon="3.2323049944897333"><ele>388.2</ele><time>2026-03-25T11:55:24Z</time></trkpt><trkpt lat="43.64921375548463" lon="3.2323707907020878"><ele>386.4</ele><time>2026-03-25T11:55:25Z</time></trkpt><trkpt lat="43.649305156634036" lon="3.232433781882708"><ele>384.6</ele><time>2026-03-25T11:55:26Z</time></trkpt><trkpt lat="43.649391941335764" lon="3.232498063503194"><ele>382.8</ele><time>2026-03-25T11:55:27Z</time></trkpt><trkpt lat="43.64947286604219" lon="3.232562942966842"><ele>381.0</ele><time>2026-03-25T11:55:28Z</time></trkpt><trkpt lat="43.649554579423636" lon="3.2326188551473303"><ele>381.0</ele><time>2026-03-25T11:55:29Z</time></trkpt><trkpt lat="43.64964348925447" lon="3.2326600446051246"><ele>381.0</ele><time>2026-03-25T11:55:30Z</time></trkpt><trkpt lat="43.649734337359675" lon="3.232683005074185"><ele>381.0</ele><time>2026-03-25T11:55:31Z</time></trkpt><trkpt lat="43.64982391394305" lon="3.2326858190600647"><ele>381.0</ele><time>2026-03-25T11:55:32Z</time></trkpt><trkpt lat="43.64991854578034" lon="3.2326682273056337"><ele>381.0</ele><time>2026-03-25T11:55:33Z</time></trkpt><trkpt lat="43.65001413401646" lon="3.2326392990765016"><ele>381.0</ele><time>2026-03-25T11:55:34Z</time></trkpt><trkpt lat="43.650107691442166" lon="3.2326064496217284"><ele>381.0</ele><time>2026-03-25T11:55:35Z</time></trkpt><trkpt lat="43.650195772477645" lon="3.2325925348402085"><ele>381.0</ele><time>2026-03-25T11:55:36Z</time></trkpt><trkpt lat="43.65027264534982" lon="3.232587396216485"><ele>381.0</ele><time>2026-03-25T11:55:37Z</time></trkpt><trkpt lat="43.650348303090006" lon="3.23259246299258"><ele>381.0</ele><time>2026-03-25T11:55:38Z</time></trkpt><trkpt lat="43.65042728896428" lon="3.2325995216288788"><ele>381.0</ele><time>2026-03-25T11:55:39Z</time></trkpt><trkpt lat="43.65050906444368" lon="3.2325965570038253"><ele>379.8333333333333</ele><time>2026-03-25T11:55:40Z</time></trkpt><trkpt lat="43.65059362446517" lon="3.2325886278590286"><ele>378.6666666666667</ele><time>2026-03-25T11:55:41Z</time></trkpt><trkpt lat="43.65067880694873" lon="3.232572682477113"><ele>377.5</ele><time>2026-03-25T11:55:42Z</time></trkpt><trkpt lat="43.650764387889154" lon="3.2325460961147754"><ele>376.33333333333337</ele><time>2026-03-25T11:55:43Z</time></trkpt><trkpt lat="43.650838514494275" lon="3.232516818555443"><ele>375.1666666666667</ele><time>2026-03-25T11:55:44Z</time></trkpt><trkpt lat="43.65090472849304" lon="3.232484588131767"><ele>374.0</ele><time>2026-03-25T11:55:45Z</time></trkpt><trkpt lat="43.6510233084889" lon="3.2324648886788894"><ele>374.0</ele><time>2026-03-25T11:55:47.001Z</time></trkpt><trkpt lat="43.651109119678054" lon="3.2325037580430687"><ele>374.0</ele><time>2026-03-25T11:55:49.001Z</time></trkpt><trkpt lat="43.651167704157906" lon="3.232559202348377"><ele>374.0</ele><time>2026-03-25T11:55:51.001Z</time></trkpt><trkpt lat="43.65129099435322" lon="3.2324866270754877"><ele>374.0</ele><time>2026-03-25T11:55:53.001Z</time></trkpt><trkpt lat="43.65135770517227" lon="3.232430390026945"><ele>374.0</ele><time>2026-03-25T11:55:54.001Z</time></trkpt><trkpt lat="43.65143546425755" lon="3.232368609022536"><ele>372.6</ele><time>2026-03-25T11:55:55.001Z</time></trkpt><trkpt lat="43.651508002520686" lon="3.232304236508463"><ele>371.2</ele><time>2026-03-25T11:55:56.001Z</time></trkpt><trkpt lat="43.651584009766964" lon="3.232241949841162"><ele>369.8</ele><time>2026-03-25T11:55:57.001Z</time></trkpt><trkpt lat="43.65166368547" lon="3.2321719761041705"><ele>368.40000000000003</ele><time>2026-03-25T11:55:58.001Z</time></trkpt><trkpt lat="43.65174613936498" lon="3.2321093361359945"><ele>367.0</ele><time>2026-03-25T11:55:59.001Z</time></trkpt><trkpt lat="43.65183640911882" lon="3.2320604168027094"><ele>367.0</ele><time>2026-03-25T11:56:00.001Z</time></trkpt><trkpt lat="43.65193030025675" lon="3.2320258966466957"><ele>367.0</ele><time>2026-03-25T11:56:01.001Z</time></trkpt><trkpt lat="43.65202526878953" lon="3.2319906137368233"><ele>367.0</ele><time>2026-03-25T11:56:02.001Z</time></trkpt><trkpt lat="43.65211982170188" lon="3.231952161332374"><ele>367.0</ele><time>2026-03-25T11:56:03.001Z</time></trkpt><trkpt lat="43.65221548628439" lon="3.231911627834173"><ele>367.0</ele><time>2026-03-25T11:56:04.001Z</time></trkpt><trkpt lat="43.65231067832598" lon="3.231872725310783"><ele>365.40000000000003</ele><time>2026-03-25T11:56:05.001Z</time></trkpt><trkpt lat="43.65240843494345" lon="3.2318473040387476"><ele>363.8</ele><time>2026-03-25T11:56:06.001Z</time></trkpt><trkpt lat="43.652506223044554" lon="3.23183800506155"><ele>362.2</ele><time>2026-03-25T11:56:07.001Z</time></trkpt><trkpt lat="43.65260655917031" lon="3.231846713976794"><ele>360.6</ele><time>2026-03-25T11:56:08.001Z</time></trkpt><trkpt lat="43.65271742390577" lon="3.23186406881262"><ele>359.0</ele><time>2026-03-25T11:56:09.001Z</time></trkpt><trkpt lat="43.65283684243555" lon="3.2318794019916877"><ele>357.0</ele><time>2026-03-25T11:56:10.001Z</time></trkpt><trkpt lat="43.65296060606763" lon="3.231904309157023"><ele>355.0</ele><time>2026-03-25T11:56:11.001Z</time></trkpt><trkpt lat="43.65308697485" lon="3.231931006390408"><ele>353.0</ele><time>2026-03-25T11:56:12.001Z</time></trkpt><trkpt lat="43.6532090403378" lon="3.2319532016500534"><ele>351.0</ele><time>2026-03-25T11:56:13.001Z</time></trkpt><trkpt lat="43.653324631143974" lon="3.2319771121794725"><ele>351.0</ele><time>2026-03-25T11:56:14.001Z</time></trkpt><trkpt lat="43.65343575677992" lon="3.232010215716291"><ele>351.0</ele><time>2026-03-25T11:56:15.001Z</time></trkpt><trkpt lat="43.65354461097137" lon="3.232063324083774"><ele>351.0</ele><time>2026-03-25T11:56:16.001Z</time></trkpt><trkpt lat="43.65364538198982" lon="3.232128893558528"><ele>351.0</ele><time>2026-03-25T11:56:17.001Z</time></trkpt><trkpt lat="43.65374334755188" lon="3.23219805391672"><ele>354.0</ele><time>2026-03-25T11:56:18.001Z</time></trkpt><trkpt lat="43.65384883271151" lon="3.232260458924108"><ele>357.0</ele><time>2026-03-25T11:56:19.001Z</time></trkpt><trkpt lat="43.65396334946767" lon="3.232305832628582"><ele>360.0</ele><time>2026-03-25T11:56:20.001Z</time></trkpt><trkpt lat="43.6540815883631" lon="3.232330508431584"><ele>363.0</ele><time>2026-03-25T11:56:21.001Z</time></trkpt><trkpt lat="43.65419979637733" lon="3.232342847192472"><ele>363.0</ele><time>2026-03-25T11:56:22.001Z</time></trkpt><trkpt lat="43.6543206605602" lon="3.232354175881458"><ele>363.0</ele><time>2026-03-25T11:56:23.001Z</time></trkpt><trkpt lat="43.654437973530804" lon="3.232374439573968"><ele>363.0</ele><time>2026-03-25T11:56:24.001Z</time></trkpt><trkpt lat="43.654555069854126" lon="3.2324038622355453"><ele>363.0</ele><time>2026-03-25T11:56:25.001Z</time></trkpt><trkpt lat="43.654668247253085" lon="3.2324405911054837"><ele>360.4</ele><time>2026-03-25T11:56:26.001Z</time></trkpt><trkpt lat="43.654771967486234" lon="3.232491664880536"><ele>357.79999999999995</ele><time>2026-03-25T11:56:27.001Z</time></trkpt><trkpt lat="43.654865472619896" lon="3.232557979525067"><ele>355.2</ele><time>2026-03-25T11:56:28.001Z</time></trkpt><trkpt lat="43.65494329548287" lon="3.2326367860285337"><ele>352.6</ele><time>2026-03-25T11:56:29.001Z</time></trkpt><trkpt lat="43.65501694491308" lon="3.2327139131535305"><ele>350.0</ele><time>2026-03-25T11:56:30.002Z</time></trkpt><trkpt lat="43.65509467283645" lon="3.2327725885815877"><ele>350.0</ele><time>2026-03-25T11:56:31.002Z</time></trkpt><trkpt lat="43.65518701933682" lon="3.232806876895824"><ele>350.0</ele><time>2026-03-25T11:56:32.002Z</time></trkpt><trkpt lat="43.6552951770725" lon="3.2328036749700093"><ele>350.0</ele><time>2026-03-25T11:56:33.002Z</time></trkpt><trkpt lat="43.65540838562779" lon="3.232781593859212"><ele>350.0</ele><time>2026-03-25T11:56:34.002Z</time></trkpt><trkpt lat="43.65552981540014" lon="3.232749928836061"><ele>350.0</ele><time>2026-03-25T11:56:35.002Z</time></trkpt><trkpt lat="43.65566224234304" lon="3.2327198496997305"><ele>349.25</ele><time>2026-03-25T11:56:36.002Z</time></trkpt><trkpt lat="43.65579931918075" lon="3.2326946173200404"><ele>348.5</ele><time>2026-03-25T11:56:37.002Z</time></trkpt><trkpt lat="43.65593092617263" lon="3.23267257322854"><ele>347.75</ele><time>2026-03-25T11:56:38.002Z</time></trkpt><trkpt lat="43.65605680172923" lon="3.2326512634180844"><ele>347.0</ele><time>2026-03-25T11:56:39.002Z</time></trkpt><trkpt lat="43.65617750467333" lon="3.2326346909446597"><ele>346.8</ele><time>2026-03-25T11:56:40.002Z</time></trkpt><trkpt lat="43.65628948443265" lon="3.2326305739886196"><ele>346.6</ele><time>2026-03-25T11:56:41.002Z</time></trkpt><trkpt lat="43.65639886035459" lon="3.2326357466915145"><ele>346.40000000000003</ele><time>2026-03-25T11:56:42.002Z</time></trkpt><trkpt lat="43.656501923173806" lon="3.232649112643008"><ele>346.20000000000005</ele><time>2026-03-25T11:56:43.002Z</time></trkpt><trkpt lat="43.65660048539059" lon="3.2326721660891007"><ele>346.0</ele><time>2026-03-25T11:56:44.002Z</time></trkpt><trkpt lat="43.656695704483084" lon="3.2326931201530686"><ele>346.0</ele><time>2026-03-25T11:56:45.002Z</time></trkpt><trkpt lat="43.656787841761265" lon="3.232722274294022"><ele>346.0</ele><time>2026-03-25T11:56:46.002Z</time></trkpt><trkpt lat="43.65687218272602" lon="3.2327577413621364"><ele>346.0</ele><time>2026-03-25T11:56:47.002Z</time></trkpt><trkpt lat="43.65694325070414" lon="3.23279819014758"><ele>346.0</ele><time>2026-03-25T11:56:48.002Z</time></trkpt><trkpt lat="43.65705134825064" lon="3.232848863154084"><ele>346.0</ele><time>2026-03-25T11:56:50.002Z</time></trkpt><trkpt lat="43.65714993402016" lon="3.232809471756319"><ele>346.3333333333333</ele><time>2026-03-25T11:56:52.002Z</time></trkpt><trkpt lat="43.65719561468773" lon="3.2327492337854142"><ele>346.66666666666663</ele><time>2026-03-25T11:56:53.002Z</time></trkpt><trkpt lat="43.657234692320486" lon="3.232670360650537"><ele>347.0</ele><time>2026-03-25T11:56:54.002Z</time></trkpt><trkpt lat="43.65726566784133" lon="3.232580592138464"><ele>347.3333333333333</ele><time>2026-03-25T11:56:55Z</time></trkpt><trkpt lat="43.65729636220759" lon="3.232491344804384"><ele>347.6666666666667</ele><time>2026-03-25T11:56:56Z</time></trkpt><trkpt lat="43.65732516989624" lon="3.2324085005189005"><ele>348.0</ele><time>2026-03-25T11:56:57Z</time></trkpt><trkpt lat="43.65733261823032" lon="3.2322468598767373"><ele>349.3333333333333</ele><time>2026-03-25T11:56:59Z</time></trkpt><trkpt lat="43.657310434070894" lon="3.232156752665719"><ele>350.6666666666667</ele><time>2026-03-25T11:57:00Z</time></trkpt><trkpt lat="43.65722918310794" lon="3.2321125190835707"><ele>352.0</ele><time>2026-03-25T11:57:01Z</time></trkpt><trkpt lat="43.657152076758656" lon="3.2320726403402142"><ele>353.33333333333337</ele><time>2026-03-25T11:57:02Z</time></trkpt><trkpt lat="43.65706499993586" lon="3.232033195944363"><ele>354.6666666666667</ele><time>2026-03-25T11:57:03Z</time></trkpt><trkpt lat="43.656971052355175" lon="3.231990439924674"><ele>356.0</ele><time>2026-03-25T11:57:04Z</time></trkpt><trkpt lat="43.6568689220788" lon="3.231939137696573"><ele>356.0</ele><time>2026-03-25T11:57:05Z</time></trkpt><trkpt lat="43.65675936551948" lon="3.2318778002957367"><ele>356.0</ele><time>2026-03-25T11:57:06Z</time></trkpt><trkpt lat="43.65663973499097" lon="3.231817499229687"><ele>356.0</ele><time>2026-03-25T11:57:07Z</time></trkpt><trkpt lat="43.656518980006965" lon="3.231757532960406"><ele>356.0</ele><time>2026-03-25T11:57:08Z</time></trkpt><trkpt lat="43.65640105825655" lon="3.231697809435749"><ele>356.0</ele><time>2026-03-25T11:57:09Z</time></trkpt><trkpt lat="43.656300186772626" lon="3.231643129462019"><ele>356.0</ele><time>2026-03-25T11:57:10Z</time></trkpt><trkpt lat="43.65620668179797" lon="3.2315968027043844"><ele>356.0</ele><time>2026-03-25T11:57:11Z</time></trkpt><trkpt lat="43.65610946599576" lon="3.2315528233976547"><ele>356.0</ele><time>2026-03-25T11:57:12Z</time></trkpt><trkpt lat="43.656012322426456" lon="3.231521386938728"><ele>356.0</ele><time>2026-03-25T11:57:13Z</time></trkpt><trkpt lat="43.655909943360484" lon="3.2315092745056697"><ele>358.8</ele><time>2026-03-25T11:57:14Z</time></trkpt><trkpt lat="43.655816119190575" lon="3.2314548546891886"><ele>361.6</ele><time>2026-03-25T11:57:15Z</time></trkpt><trkpt lat="43.65571584407756" lon="3.231428992117793"><ele>364.4</ele><time>2026-03-25T11:57:16Z</time></trkpt><trkpt lat="43.65562670713298" lon="3.231388093918391"><ele>367.2</ele><time>2026-03-25T11:57:17Z</time></trkpt><trkpt lat="43.65555176741961" lon="3.2313459160565925"><ele>370.0</ele><time>2026-03-25T11:57:18Z</time></trkpt><trkpt lat="43.655486417287094" lon="3.2313040180317856"><ele>370.0</ele><time>2026-03-25T11:57:19Z</time></trkpt><trkpt lat="43.65538641493194" lon="3.2312398376580624"><ele>370.0</ele><time>2026-03-25T11:57:21Z</time></trkpt><trkpt lat="43.65529213858748" lon="3.23117000145591"><ele>370.0</ele><time>2026-03-25T11:57:23Z</time></trkpt><trkpt lat="43.65522328214445" lon="3.2311218097510035"><ele>370.0</ele><time>2026-03-25T11:57:24Z</time></trkpt><trkpt lat="43.65515460134208" lon="3.231037825931352"><ele>370.0</ele><time>2026-03-25T11:57:25Z</time></trkpt><trkpt lat="43.65505789367082" lon="3.230985305277461"><ele>364.5</ele><time>2026-03-25T11:57:26Z</time></trkpt><trkpt lat="43.654958504052445" lon="3.230904254863709"><ele>359.0</ele><time>2026-03-25T11:57:27Z</time></trkpt><trkpt lat="43.65485653600335" lon="3.2308311405458428"><ele>353.5</ele><time>2026-03-25T11:57:28Z</time></trkpt><trkpt lat="43.65474745882713" lon="3.2307497166510664"><ele>348.0</ele><time>2026-03-25T11:57:29Z</time></trkpt><trkpt lat="43.654642541916786" lon="3.230645512610669"><ele>346.0</ele><time>2026-03-25T11:57:30Z</time></trkpt><trkpt lat="43.65453485872454" lon="3.2305318541303536"><ele>344.0</ele><time>2026-03-25T11:57:31Z</time></trkpt><trkpt lat="43.65442443184284" lon="3.2304035848729518"><ele>342.0</ele><time>2026-03-25T11:57:32Z</time></trkpt><trkpt lat="43.65431577000602" lon="3.230273042260665"><ele>340.0</ele><time>2026-03-25T11:57:33Z</time></trkpt><trkpt lat="43.654215231990335" lon="3.2301429774156043"><ele>340.0</ele><time>2026-03-25T11:57:34Z</time></trkpt><trkpt lat="43.6541240676151" lon="3.230015393697886"><ele>340.0</ele><time>2026-03-25T11:57:35Z</time></trkpt><trkpt lat="43.654040104476564" lon="3.22987574727001"><ele>340.0</ele><time>2026-03-25T11:57:36Z</time></trkpt><trkpt lat="43.65397883819316" lon="3.2297063096910437"><ele>340.0</ele><time>2026-03-25T11:57:37Z</time></trkpt><trkpt lat="43.65389513599195" lon="3.229544052150909"><ele>342.0</ele><time>2026-03-25T11:57:38Z</time></trkpt><trkpt lat="43.65378474316256" lon="3.229426341412935"><ele>344.0</ele><time>2026-03-25T11:57:39.001Z</time></trkpt><trkpt lat="43.65369144882565" lon="3.2293091360216497"><ele>346.0</ele><time>2026-03-25T11:57:40.001Z</time></trkpt><trkpt lat="43.65360606569875" lon="3.2292006490188725"><ele>348.0</ele><time>2026-03-25T11:57:41.001Z</time></trkpt><trkpt lat="43.653547664313386" lon="3.229083100091202"><ele>344.4</ele><time>2026-03-25T11:57:42.001Z</time></trkpt><trkpt lat="43.65349822638741" lon="3.228955721001637"><ele>340.79999999999995</ele><time>2026-03-25T11:57:43.001Z</time></trkpt><trkpt lat="43.653460780662726" lon="3.2288106071941467"><ele>337.2</ele><time>2026-03-25T11:57:44.001Z</time></trkpt><trkpt lat="43.653433805799985" lon="3.228661032562917"><ele>333.6</ele><time>2026-03-25T11:57:45.001Z</time></trkpt><trkpt lat="43.653402803295485" lon="3.2285136766728106"><ele>330.0</ele><time>2026-03-25T11:57:46.001Z</time></trkpt><trkpt lat="43.65337761646491" lon="3.2283653774968912"><ele>330.0</ele><time>2026-03-25T11:57:47.001Z</time></trkpt><trkpt lat="43.65336595723495" lon="3.22821895741269"><ele>330.0</ele><time>2026-03-25T11:57:48.001Z</time></trkpt><trkpt lat="43.65337214161125" lon="3.228070162559105"><ele>330.0</ele><time>2026-03-25T11:57:49.001Z</time></trkpt><trkpt lat="43.65338900844927" lon="3.22791577667529"><ele>330.0</ele><time>2026-03-25T11:57:50.001Z</time></trkpt><trkpt lat="43.65341831879092" lon="3.2277592046835117"><ele>330.0</ele><time>2026-03-25T11:57:51.001Z</time></trkpt><trkpt lat="43.65345391289933" lon="3.227597146688376"><ele>329.5</ele><time>2026-03-25T11:57:52.001Z</time></trkpt><trkpt lat="43.653483369508066" lon="3.227428807994827"><ele>329.0</ele><time>2026-03-25T11:57:53.001Z</time></trkpt><trkpt lat="43.65349832725759" lon="3.2272551505174225"><ele>328.5</ele><time>2026-03-25T11:57:54.001Z</time></trkpt><trkpt lat="43.65349215085971" lon="3.227074837762949"><ele>328.0</ele><time>2026-03-25T11:57:55.001Z</time></trkpt><trkpt lat="43.65347386405354" lon="3.226908170749816"><ele>326.5</ele><time>2026-03-25T11:57:56.001Z</time></trkpt><trkpt lat="43.65347023886764" lon="3.2267518875679877"><ele>325.0</ele><time>2026-03-25T11:57:57.001Z</time></trkpt><trkpt lat="43.65348610195706" lon="3.226587408110448"><ele>323.5</ele><time>2026-03-25T11:57:58.001Z</time></trkpt><trkpt lat="43.653519073250735" lon="3.2264165559268774"><ele>322.0</ele><time>2026-03-25T11:57:59.001Z</time></trkpt><trkpt lat="43.653559359089044" lon="3.2262437685482803"><ele>321.5</ele><time>2026-03-25T11:58:00.001Z</time></trkpt><trkpt lat="43.65359789593533" lon="3.2260664475318253"><ele>321.0</ele><time>2026-03-25T11:58:01.001Z</time></trkpt><trkpt lat="43.65363713167172" lon="3.225884489627765"><ele>320.5</ele><time>2026-03-25T11:58:02.001Z</time></trkpt><trkpt lat="43.653676704960866" lon="3.225708613398936"><ele>320.0</ele><time>2026-03-25T11:58:03.001Z</time></trkpt><trkpt lat="43.653712528273786" lon="3.2255304769737143"><ele>325.0</ele><time>2026-03-25T11:58:04.001Z</time></trkpt><trkpt lat="43.65375580991199" lon="3.2253470148118364"><ele>330.0</ele><time>2026-03-25T11:58:05.001Z</time></trkpt><trkpt lat="43.653767161740795" lon="3.225151202605445"><ele>335.0</ele><time>2026-03-25T11:58:06.001Z</time></trkpt><trkpt lat="43.65378304046972" lon="3.2249701855868147"><ele>340.0</ele><time>2026-03-25T11:58:07.001Z</time></trkpt><trkpt lat="43.65379202524895" lon="3.2248000067306664"><ele>340.0</ele><time>2026-03-25T11:58:08.001Z</time></trkpt><trkpt lat="43.65379037251986" lon="3.224643101427796"><ele>340.0</ele><time>2026-03-25T11:58:09.001Z</time></trkpt><trkpt lat="43.65376525883307" lon="3.224488941522619"><ele>340.0</ele><time>2026-03-25T11:58:10.001Z</time></trkpt><trkpt lat="43.653710316593966" lon="3.224338976513742"><ele>340.0</ele><time>2026-03-25T11:58:11.001Z</time></trkpt><trkpt lat="43.653638873469056" lon="3.2241954044847456"><ele>333.5</ele><time>2026-03-25T11:58:12.001Z</time></trkpt><trkpt lat="43.65356945460692" lon="3.2240497346098276"><ele>327.0</ele><time>2026-03-25T11:58:13.001Z</time></trkpt><trkpt lat="43.65351294209046" lon="3.2239082808076116"><ele>320.5</ele><time>2026-03-25T11:58:14.001Z</time></trkpt><trkpt lat="43.65347239374062" lon="3.2237710446958867"><ele>314.0</ele><time>2026-03-25T11:58:15.001Z</time></trkpt><trkpt lat="43.653440300760714" lon="3.223639899236423"><ele>313.8</ele><time>2026-03-25T11:58:16.001Z</time></trkpt><trkpt lat="43.653418285016954" lon="3.223509707896493"><ele>313.59999999999997</ele><time>2026-03-25T11:58:17.001Z</time></trkpt><trkpt lat="43.65341450280608" lon="3.2233823710640674"><ele>313.4</ele><time>2026-03-25T11:58:18.001Z</time></trkpt><trkpt lat="43.65343261601156" lon="3.223244547320323"><ele>313.2</ele><time>2026-03-25T11:58:19.001Z</time></trkpt><trkpt lat="43.65346106588307" lon="3.2230994789808745"><ele>313.0</ele><time>2026-03-25T11:58:20.001Z</time></trkpt><trkpt lat="43.65349554584295" lon="3.222955018103408"><ele>311.0</ele><time>2026-03-25T11:58:21.002Z</time></trkpt><trkpt lat="43.65353870076048" lon="3.222814119827199"><ele>309.0</ele><time>2026-03-25T11:58:22.002Z</time></trkpt><trkpt lat="43.65359865400253" lon="3.222679129995941"><ele>307.0</ele><time>2026-03-25T11:58:23.002Z</time></trkpt><trkpt lat="43.653672738616315" lon="3.222548989440397"><ele>305.0</ele><time>2026-03-25T11:58:24.002Z</time></trkpt><trkpt lat="43.653754801615456" lon="3.2224198878498247"><ele>306.0</ele><time>2026-03-25T11:58:25.002Z</time></trkpt><trkpt lat="43.65384266292388" lon="3.2222864671083973"><ele>307.0</ele><time>2026-03-25T11:58:26.002Z</time></trkpt><trkpt lat="43.653925641946735" lon="3.222146931521632"><ele>308.0</ele><time>2026-03-25T11:58:27.002Z</time></trkpt><trkpt lat="43.654003185863765" lon="3.2220100740081907"><ele>309.0</ele><time>2026-03-25T11:58:28.002Z</time></trkpt><trkpt lat="43.65407505002927" lon="3.221873713917575"><ele>309.0</ele><time>2026-03-25T11:58:29.002Z</time></trkpt><trkpt lat="43.65413489441145" lon="3.221728507373529"><ele>309.0</ele><time>2026-03-25T11:58:30.002Z</time></trkpt><trkpt lat="43.65418850118448" lon="3.221579912556454"><ele>309.0</ele><time>2026-03-25T11:58:31.002Z</time></trkpt><trkpt lat="43.65423403964164" lon="3.2214294069408176"><ele>309.0</ele><time>2026-03-25T11:58:32.002Z</time></trkpt><trkpt lat="43.654274786741716" lon="3.2212817274139205"><ele>308.2</ele><time>2026-03-25T11:58:33.002Z</time></trkpt><trkpt lat="43.654311700480754" lon="3.2211370565625517"><ele>307.4</ele><time>2026-03-25T11:58:34.002Z</time></trkpt><trkpt lat="43.654354019319456" lon="3.221006869860158"><ele>306.6</ele><time>2026-03-25T11:58:35.002Z</time></trkpt><trkpt lat="43.65441422731412" lon="3.220899136358001"><ele>305.8</ele><time>2026-03-25T11:58:36.002Z</time></trkpt><trkpt lat="43.65448740261253" lon="3.2208080962812127"><ele>305.0</ele><time>2026-03-25T11:58:37.002Z</time></trkpt><trkpt lat="43.65457224536971" lon="3.220733314263721"><ele>305.0</ele><time>2026-03-25T11:58:38.002Z</time></trkpt><trkpt lat="43.654668702488074" lon="3.220678540892536"><ele>305.0</ele><time>2026-03-25T11:58:39.002Z</time></trkpt><trkpt lat="43.654770427265625" lon="3.2206382684395596"><ele>305.0</ele><time>2026-03-25T11:58:40.002Z</time></trkpt><trkpt lat="43.65487535985536" lon="3.2205965092909925"><ele>305.0</ele><time>2026-03-25T11:58:41.002Z</time></trkpt><trkpt lat="43.65498464687235" lon="3.220552643060611"><ele>305.0</ele><time>2026-03-25T11:58:42.002Z</time></trkpt><trkpt lat="43.65509932064173" lon="3.2205054614114115"><ele>303.0</ele><time>2026-03-25T11:58:43.002Z</time></trkpt><trkpt lat="43.655219170654725" lon="3.2204563076572685"><ele>301.0</ele><time>2026-03-25T11:58:44.002Z</time></trkpt><trkpt lat="43.655346021146464" lon="3.2204129179360526"><ele>299.0</ele><time>2026-03-25T11:58:45.002Z</time></trkpt><trkpt lat="43.65547821870858" lon="3.2203697070215536"><ele>297.0</ele><time>2026-03-25T11:58:46.002Z</time></trkpt><trkpt lat="43.6556150352852" lon="3.2203282655515877"><ele>296.5</ele><time>2026-03-25T11:58:47.002Z</time></trkpt><trkpt lat="43.65575491246351" lon="3.2202929781087284"><ele>296.0</ele><time>2026-03-25T11:58:48.002Z</time></trkpt><trkpt lat="43.65589666921452" lon="3.220260206206488"><ele>295.5</ele><time>2026-03-25T11:58:49.002Z</time></trkpt><trkpt lat="43.656034007066495" lon="3.220225880554436"><ele>295.0</ele><time>2026-03-25T11:58:50.002Z</time></trkpt><trkpt lat="43.65616160892286" lon="3.2201920377910414"><ele>295.0</ele><time>2026-03-25T11:58:51.002Z</time></trkpt><trkpt lat="43.656279655423575" lon="3.2201577120804994"><ele>295.0</ele><time>2026-03-25T11:58:52.002Z</time></trkpt><trkpt lat="43.65639053812828" lon="3.2201179975041883"><ele>295.0</ele><time>2026-03-25T11:58:53.002Z</time></trkpt><trkpt lat="43.65649310808094" lon="3.2200727201425687"><ele>295.0</ele><time>2026-03-25T11:58:54.002Z</time></trkpt><trkpt lat="43.656586864352775" lon="3.2200152060454634"><ele>295.0</ele><time>2026-03-25T11:58:55.002Z</time></trkpt><trkpt lat="43.65666664352504" lon="3.2199369083131235"><ele>295.0</ele><time>2026-03-25T11:58:56.002Z</time></trkpt><trkpt lat="43.65672457161093" lon="3.2198392999867904"><ele>295.0</ele><time>2026-03-25T11:58:57.002Z</time></trkpt><trkpt lat="43.656762572687846" lon="3.219707111058855"><ele>295.0</ele><time>2026-03-25T11:58:58.002Z</time></trkpt><trkpt lat="43.65678282139023" lon="3.2195587443996647"><ele>295.0</ele><time>2026-03-25T11:58:59.002Z</time></trkpt><trkpt lat="43.656793356265496" lon="3.219395485127056"><ele>295.0</ele><time>2026-03-25T11:59:00.002Z</time></trkpt><trkpt lat="43.6568053955974" lon="3.2192242594058675"><ele>293.75</ele><time>2026-03-25T11:59:01Z</time></trkpt><trkpt lat="43.6568207051727" lon="3.2190450441795426"><ele>292.5</ele><time>2026-03-25T11:59:02Z</time></trkpt><trkpt lat="43.65684078559486" lon="3.2188584897801227"><ele>291.25</ele><time>2026-03-25T11:59:03Z</time></trkpt><trkpt lat="43.65686701853845" lon="3.2186696602481604"><ele>290.0</ele><time>2026-03-25T11:59:04Z</time></trkpt><trkpt lat="43.65689916593973" lon="3.218482037968047"><ele>288.5</ele><time>2026-03-25T11:59:05Z</time></trkpt><trkpt lat="43.65693136467341" lon="3.218297603803693"><ele>287.0</ele><time>2026-03-25T11:59:06Z</time></trkpt><trkpt lat="43.656961692846615" lon="3.2181270723691293"><ele>285.5</ele><time>2026-03-25T11:59:07Z</time></trkpt><trkpt lat="43.656989764505326" lon="3.217968116300973"><ele>284.0</ele><time>2026-03-25T11:59:08Z</time></trkpt><trkpt lat="43.657017544664306" lon="3.2178209750795084"><ele>283.8</ele><time>2026-03-25T11:59:09Z</time></trkpt><trkpt lat="43.65705380455383" lon="3.2176914673142742"><ele>283.59999999999997</ele><time>2026-03-25T11:59:10Z</time></trkpt><trkpt lat="43.657107579142185" lon="3.217578796205607"><ele>283.4</ele><time>2026-03-25T11:59:11Z</time></trkpt><trkpt lat="43.65717820329503" lon="3.2174759413154814"><ele>283.2</ele><time>2026-03-25T11:59:12Z</time></trkpt><trkpt lat="43.65726133590326" lon="3.2173872986912095"><ele>283.0</ele><time>2026-03-25T11:59:13Z</time></trkpt><trkpt lat="43.6573386658726" lon="3.2173003775905356"><ele>282.66666666666663</ele><time>2026-03-25T11:59:14Z</time></trkpt><trkpt lat="43.657399661501735" lon="3.2172082323108344"><ele>282.3333333333333</ele><time>2026-03-25T11:59:15Z</time></trkpt><trkpt lat="43.65743154620102" lon="3.2171022255008332"><ele>282.0</ele><time>2026-03-25T11:59:16Z</time></trkpt><trkpt lat="43.6574401512116" lon="3.2169927291241116"><ele>281.6666666666667</ele><time>2026-03-25T11:59:17Z</time></trkpt><trkpt lat="43.657420594317635" lon="3.2168815770575114"><ele>281.33333333333337</ele><time>2026-03-25T11:59:18Z</time></trkpt><trkpt lat="43.65738085247885" lon="3.21678122337862"><ele>281.0</ele><time>2026-03-25T11:59:19Z</time></trkpt><trkpt lat="43.65734373992855" lon="3.216675675296011"><ele>281.0</ele><time>2026-03-25T11:59:20Z</time></trkpt><trkpt lat="43.657281001412045" lon="3.216606035165436"><ele>281.0</ele><time>2026-03-25T11:59:21Z</time></trkpt><trkpt lat="43.6572475110681" lon="3.2165125030079667"><ele>281.0</ele><time>2026-03-25T11:59:22Z</time></trkpt><trkpt lat="43.65720393883556" lon="3.2164357810074544"><ele>281.0</ele><time>2026-03-25T11:59:23Z</time></trkpt><trkpt lat="43.65713458894515" lon="3.2163237538082425"><ele>281.0</ele><time>2026-03-25T11:59:25Z</time></trkpt><trkpt lat="43.65716360700425" lon="3.216171261607945"><ele>281.0</ele><time>2026-03-25T11:59:27Z</time></trkpt><trkpt lat="43.65724121838054" lon="3.2160716034147017"><ele>281.2</ele><time>2026-03-25T11:59:29Z</time></trkpt><trkpt lat="43.65733190333332" lon="3.216053211055468"><ele>281.40000000000003</ele><time>2026-03-25T11:59:31Z</time></trkpt><trkpt lat="43.657428879621854" lon="3.2161592005030744"><ele>281.6</ele><time>2026-03-25T11:59:33Z</time></trkpt><trkpt lat="43.65746383009277" lon="3.2162495657302985"><ele>281.8</ele><time>2026-03-25T11:59:34Z</time></trkpt><trkpt lat="43.65750814306864" lon="3.2163375768645404"><ele>282.0</ele><time>2026-03-25T11:59:35Z</time></trkpt><trkpt lat="43.65757545439535" lon="3.2164132685825266"><ele>282.0</ele><time>2026-03-25T11:59:36Z</time></trkpt><trkpt lat="43.6576375892363" lon="3.2164757841552913"><ele>282.0</ele><time>2026-03-25T11:59:37.001Z</time></trkpt><trkpt lat="43.657696963659305" lon="3.216538762355546"><ele>282.0</ele><time>2026-03-25T11:59:38.001Z</time></trkpt><trkpt lat="43.6577653425596" lon="3.216596329842164"><ele>282.0</ele><time>2026-03-25T11:59:39.001Z</time></trkpt><trkpt lat="43.657840310580816" lon="3.2166500014533495"><ele>282.0</ele><time>2026-03-25T11:59:40.001Z</time></trkpt><trkpt lat="43.65791713541726" lon="3.2167033372630027"><ele>282.0</ele><time>2026-03-25T11:59:41.001Z</time></trkpt><trkpt lat="43.65799775278203" lon="3.216757453502558"><ele>283.8</ele><time>2026-03-25T11:59:42.001Z</time></trkpt><trkpt lat="43.658077856523704" lon="3.216815292583622"><ele>285.6</ele><time>2026-03-25T11:59:43.001Z</time></trkpt><trkpt lat="43.65816038312751" lon="3.216874521889284"><ele>287.40000000000003</ele><time>2026-03-25T11:59:44.001Z</time></trkpt><trkpt lat="43.65824606959465" lon="3.2169322655372077"><ele>289.2</ele><time>2026-03-25T11:59:45.001Z</time></trkpt><trkpt lat="43.65833455124165" lon="3.216985609004848"><ele>291.0</ele><time>2026-03-25T11:59:46.001Z</time></trkpt><trkpt lat="43.65842479897129" lon="3.2170300158239775"><ele>291.0</ele><time>2026-03-25T11:59:47.001Z</time></trkpt><trkpt lat="43.65852020442247" lon="3.2170676953981383"><ele>291.0</ele><time>2026-03-25T11:59:48.001Z</time></trkpt><trkpt lat="43.658626694860246" lon="3.2171095584429565"><ele>291.0</ele><time>2026-03-25T11:59:49.001Z</time></trkpt><trkpt lat="43.658741564944556" lon="3.2171519158696364"><ele>291.0</ele><time>2026-03-25T11:59:50.001Z</time></trkpt><trkpt lat="43.65886418970792" lon="3.217185139019318"><ele>293.75</ele><time>2026-03-25T11:59:51.001Z</time></trkpt><trkpt lat="43.65899479298575" lon="3.21720494520548"><ele>296.5</ele><time>2026-03-25T11:59:52.001Z</time></trkpt><trkpt lat="43.65912828720398" lon="3.2172104484368336"><ele>299.25</ele><time>2026-03-25T11:59:53.001Z</time></trkpt><trkpt lat="43.659263110490926" lon="3.217199919852028"><ele>302.0</ele><time>2026-03-25T11:59:54.001Z</time></trkpt><trkpt lat="43.659411769723626" lon="3.217173236866579"><ele>305.6666666666667</ele><time>2026-03-25T11:59:55.001Z</time></trkpt><trkpt lat="43.65957091042316" lon="3.217135191527724"><ele>309.3333333333333</ele><time>2026-03-25T11:59:56.001Z</time></trkpt><trkpt lat="43.65973705903782" lon="3.2170887111321105"><ele>313.0</ele><time>2026-03-25T11:59:57.001Z</time></trkpt><trkpt lat="43.65988665717734" lon="3.217050661307615"><ele>313.0</ele><time>2026-03-25T11:59:58.001Z</time></trkpt><trkpt lat="43.66001123263791" lon="3.217013980740772"><ele>313.0</ele><time>2026-03-25T11:59:59.001Z</time></trkpt><trkpt lat="43.66011957574911" lon="3.216977006370517"><ele>313.0</ele><time>2026-03-25T12:00:00.001Z</time></trkpt><trkpt lat="43.660226595624664" lon="3.2169470187180793"><ele>313.0</ele><time>2026-03-25T12:00:01.001Z</time></trkpt><trkpt lat="43.660334639162336" lon="3.2169173253927155"><ele>313.75</ele><time>2026-03-25T12:00:02.001Z</time></trkpt><trkpt lat="43.66044451241546" lon="3.216887985029516"><ele>314.5</ele><time>2026-03-25T12:00:03.001Z</time></trkpt><trkpt lat="43.6605561943001" lon="3.216857984819665"><ele>315.25</ele><time>2026-03-25T12:00:04.001Z</time></trkpt><trkpt lat="43.660670477105775" lon="3.21682706382895"><ele>316.0</ele><time>2026-03-25T12:00:05.001Z</time></trkpt><trkpt lat="43.66078525256819" lon="3.2167988700755275"><ele>316.0</ele><time>2026-03-25T12:00:06.001Z</time></trkpt><trkpt lat="43.66089980829119" lon="3.216770067697008"><ele>316.0</ele><time>2026-03-25T12:00:07.001Z</time></trkpt><trkpt lat="43.661015508940814" lon="3.216739842920803"><ele>316.0</ele><time>2026-03-25T12:00:08.001Z</time></trkpt><trkpt lat="43.66112933132299" lon="3.2167048778688034"><ele>316.0</ele><time>2026-03-25T12:00:09.001Z</time></trkpt><trkpt lat="43.661241185920495" lon="3.216670529169875"><ele>314.5</ele><time>2026-03-25T12:00:10.001Z</time></trkpt><trkpt lat="43.66135060425545" lon="3.216624613210902"><ele>313.0</ele><time>2026-03-25T12:00:11.001Z</time></trkpt><trkpt lat="43.66145880670935" lon="3.2165624938267476"><ele>311.5</ele><time>2026-03-25T12:00:12.001Z</time></trkpt><trkpt lat="43.661567426548366" lon="3.2164853534266773"><ele>310.0</ele><time>2026-03-25T12:00:13.001Z</time></trkpt><trkpt lat="43.66167102754624" lon="3.2163887251999013"><ele>311.5</ele><time>2026-03-25T12:00:14.001Z</time></trkpt><trkpt lat="43.6617747080151" lon="3.2162799847475365"><ele>313.0</ele><time>2026-03-25T12:00:15.001Z</time></trkpt><trkpt lat="43.66187863395644" lon="3.2161624160280957"><ele>314.5</ele><time>2026-03-25T12:00:16.001Z</time></trkpt><trkpt lat="43.66198665179631" lon="3.2160411703015463"><ele>316.0</ele><time>2026-03-25T12:00:17.001Z</time></trkpt><trkpt lat="43.662095815546394" lon="3.2159154479582686"><ele>316.0</ele><time>2026-03-25T12:00:18.001Z</time></trkpt><trkpt lat="43.662206310841384" lon="3.2157889713177923"><ele>316.0</ele><time>2026-03-25T12:00:19.001Z</time></trkpt><trkpt lat="43.66231555582666" lon="3.2156628402786205"><ele>316.0</ele><time>2026-03-25T12:00:20.002Z</time></trkpt><trkpt lat="43.6624159596359" lon="3.2155375611944694"><ele>316.0</ele><time>2026-03-25T12:00:21.002Z</time></trkpt><trkpt lat="43.66250310658243" lon="3.2154066181813237"><ele>318.25</ele><time>2026-03-25T12:00:22.002Z</time></trkpt><trkpt lat="43.662587623793975" lon="3.2152707442972197"><ele>320.5</ele><time>2026-03-25T12:00:23.002Z</time></trkpt><trkpt lat="43.66266564272574" lon="3.2151202773487677"><ele>322.75</ele><time>2026-03-25T12:00:24.002Z</time></trkpt><trkpt lat="43.66274271169369" lon="3.214956064363005"><ele>325.0</ele><time>2026-03-25T12:00:25.002Z</time></trkpt><trkpt lat="43.66281474432273" lon="3.214778753419062"><ele>325.0</ele><time>2026-03-25T12:00:26.002Z</time></trkpt><trkpt lat="43.66288626381996" lon="3.214593505307627"><ele>325.0</ele><time>2026-03-25T12:00:27.002Z</time></trkpt><trkpt lat="43.66295867594558" lon="3.2143976249142923"><ele>325.0</ele><time>2026-03-25T12:00:28.002Z</time></trkpt><trkpt lat="43.66303011587579" lon="3.214193805442716"><ele>325.0</ele><time>2026-03-25T12:00:29.002Z</time></trkpt><trkpt lat="43.663099060367614" lon="3.213994516060115"><ele>325.0</ele><time>2026-03-25T12:00:30.002Z</time></trkpt><trkpt lat="43.66316912259317" lon="3.213796417829476"><ele>325.0</ele><time>2026-03-25T12:00:31.002Z</time></trkpt><trkpt lat="43.66324001569016" lon="3.2135987524017615"><ele>326.3333333333333</ele><time>2026-03-25T12:00:32.002Z</time></trkpt><trkpt lat="43.663309960648355" lon="3.2134013989586547"><ele>327.6666666666667</ele><time>2026-03-25T12:00:33.002Z</time></trkpt><trkpt lat="43.66337882492253" lon="3.213207181735782"><ele>329.0</ele><time>2026-03-25T12:00:34.002Z</time></trkpt><trkpt lat="43.663449418278184" lon="3.2130172600194657"><ele>330.25</ele><time>2026-03-25T12:00:35.002Z</time></trkpt><trkpt lat="43.6635163786552" lon="3.212828742113011"><ele>331.5</ele><time>2026-03-25T12:00:36.002Z</time></trkpt><trkpt lat="43.66358141598518" lon="3.212643158339467"><ele>332.75</ele><time>2026-03-25T12:00:37.002Z</time></trkpt><trkpt lat="43.663645418879796" lon="3.2124613170319525"><ele>334.0</ele><time>2026-03-25T12:00:38.002Z</time></trkpt><trkpt lat="43.66370917662978" lon="3.2122866022975582"><ele>334.79999999999995</ele><time>2026-03-25T12:00:39.002Z</time></trkpt><trkpt lat="43.66376856689532" lon="3.2121272775872476"><ele>335.59999999999997</ele><time>2026-03-25T12:00:40.002Z</time></trkpt><trkpt lat="43.66381954063649" lon="3.2119942994127597"><ele>336.4</ele><time>2026-03-25T12:00:41.002Z</time></trkpt><trkpt lat="43.663864859869754" lon="3.211881627381519"><ele>337.2</ele><time>2026-03-25T12:00:42.002Z</time></trkpt><trkpt lat="43.663905356406154" lon="3.2117684891323037"><ele>338.0</ele><time>2026-03-25T12:00:43.002Z</time></trkpt><trkpt lat="43.663942908861735" lon="3.2116453133319074"><ele>338.0</ele><time>2026-03-25T12:00:44.002Z</time></trkpt><trkpt lat="43.663977589685686" lon="3.211502620227432"><ele>338.0</ele><time>2026-03-25T12:00:45.002Z</time></trkpt><trkpt lat="43.66401179439267" lon="3.2113409315158052"><ele>338.0</ele><time>2026-03-25T12:00:46.002Z</time></trkpt><trkpt lat="43.66404747070567" lon="3.2111639569134085"><ele>338.0</ele><time>2026-03-25T12:00:47.002Z</time></trkpt><trkpt lat="43.66408512228557" lon="3.2109774927272725"><ele>336.0</ele><time>2026-03-25T12:00:48.002Z</time></trkpt><trkpt lat="43.66412343979768" lon="3.21078214417579"><ele>334.0</ele><time>2026-03-25T12:00:49.002Z</time></trkpt><trkpt lat="43.66415128264868" lon="3.2105890054957005"><ele>332.0</ele><time>2026-03-25T12:00:50.002Z</time></trkpt><trkpt lat="43.664168423651695" lon="3.210397651303639"><ele>330.0</ele><time>2026-03-25T12:00:51.002Z</time></trkpt><trkpt lat="43.66417052435094" lon="3.2101990852427247"><ele>328.0</ele><time>2026-03-25T12:00:52.002Z</time></trkpt><trkpt lat="43.66415851811563" lon="3.2099956789875272"><ele>326.0</ele><time>2026-03-25T12:00:53.002Z</time></trkpt><trkpt lat="43.664131033465274" lon="3.209789189078449"><ele>324.0</ele><time>2026-03-25T12:00:54.002Z</time></trkpt><trkpt lat="43.664100173140525" lon="3.2095779463165766"><ele>323.3333333333333</ele><time>2026-03-25T12:00:55.002Z</time></trkpt><trkpt lat="43.66406989823825" lon="3.209365138847126"><ele>322.66666666666663</ele><time>2026-03-25T12:00:56.002Z</time></trkpt><trkpt lat="43.66403616597606" lon="3.2091554487218685"><ele>322.0</ele><time>2026-03-25T12:00:57.002Z</time></trkpt><trkpt lat="43.664005912169706" lon="3.2089469511252617"><ele>321.0</ele><time>2026-03-25T12:00:58.002Z</time></trkpt><trkpt lat="43.66397787109257" lon="3.2087512329397456"><ele>320.0</ele><time>2026-03-25T12:00:59.002Z</time></trkpt><trkpt lat="43.663950736999126" lon="3.20855722393875"><ele>319.0</ele><time>2026-03-25T12:01:00.002Z</time></trkpt><trkpt lat="43.66392158772083" lon="3.2083622713465347"><ele>318.0</ele><time>2026-03-25T12:01:01.002Z</time></trkpt><trkpt lat="43.66389191490999" lon="3.2081640680882093"><ele>316.25</ele><time>2026-03-25T12:01:02.002Z</time></trkpt><trkpt lat="43.66385902206018" lon="3.2079651110093423"><ele>314.5</ele><time>2026-03-25T12:01:03.003Z</time></trkpt><trkpt lat="43.66382718806461" lon="3.2077663419581666"><ele>312.75</ele><time>2026-03-25T12:01:04.003Z</time></trkpt><trkpt lat="43.66378613150751" lon="3.2075801193745805"><ele>311.0</ele><time>2026-03-25T12:01:05.003Z</time></trkpt><trkpt lat="43.66373384516579" lon="3.2074020210035625"><ele>311.0</ele><time>2026-03-25T12:01:06.003Z</time></trkpt><trkpt lat="43.66366681956238" lon="3.207225935243131"><ele>311.0</ele><time>2026-03-25T12:01:07Z</time></trkpt><trkpt lat="43.663585272233306" lon="3.2070511219649527"><ele>311.0</ele><time>2026-03-25T12:01:08Z</time></trkpt><trkpt lat="43.66349734813394" lon="3.206874035483166"><ele>311.0</ele><time>2026-03-25T12:01:09Z</time></trkpt><trkpt lat="43.66340964304784" lon="3.2066918346308526"><ele>311.0</ele><time>2026-03-25T12:01:10Z</time></trkpt><trkpt lat="43.663325909723774" lon="3.206504508932979"><ele>311.0</ele><time>2026-03-25T12:01:11Z</time></trkpt><trkpt lat="43.663245390193254" lon="3.206312840578598"><ele>309.33333333333337</ele><time>2026-03-25T12:01:12Z</time></trkpt><trkpt lat="43.66317070627391" lon="3.2061152686234426"><ele>307.6666666666667</ele><time>2026-03-25T12:01:13Z</time></trkpt><trkpt lat="43.66310823974062" lon="3.2059137696273488"><ele>306.0</ele><time>2026-03-25T12:01:14Z</time></trkpt><trkpt lat="43.663059254662606" lon="3.2057043530049985"><ele>305.0</ele><time>2026-03-25T12:01:15Z</time></trkpt><trkpt lat="43.663017445387574" lon="3.2054887146917563"><ele>304.0</ele><time>2026-03-25T12:01:16Z</time></trkpt><trkpt lat="43.662977376889266" lon="3.205268880818521"><ele>303.0</ele><time>2026-03-25T12:01:17Z</time></trkpt><trkpt lat="43.662941355097274" lon="3.2050459521087262"><ele>302.3333333333333</ele><time>2026-03-25T12:01:18Z</time></trkpt><trkpt lat="43.6629029889385" lon="3.20481823630797"><ele>301.66666666666663</ele><time>2026-03-25T12:01:19Z</time></trkpt><trkpt lat="43.66286566595582" lon="3.204602274840266"><ele>301.0</ele><time>2026-03-25T12:01:20Z</time></trkpt><trkpt lat="43.662830279210525" lon="3.2043961523310185"><ele>301.0</ele><time>2026-03-25T12:01:21Z</time></trkpt><trkpt lat="43.662794249064575" lon="3.204197518581158"><ele>301.0</ele><time>2026-03-25T12:01:22Z</time></trkpt><trkpt lat="43.66275136356383" lon="3.2039984439414826"><ele>301.0</ele><time>2026-03-25T12:01:23Z</time></trkpt><trkpt lat="43.66269589741586" lon="3.203801547331931"><ele>301.0</ele><time>2026-03-25T12:01:24Z</time></trkpt><trkpt lat="43.66263198951587" lon="3.2036040425500625"><ele>301.0</ele><time>2026-03-25T12:01:25Z</time></trkpt><trkpt lat="43.66255452620269" lon="3.2034111639638576"><ele>301.0</ele><time>2026-03-25T12:01:26Z</time></trkpt><trkpt lat="43.66247332015792" lon="3.2032150558095362"><ele>300.3333333333333</ele><time>2026-03-25T12:01:27Z</time></trkpt><trkpt lat="43.6623957971037" lon="3.2030182928759774"><ele>299.6666666666667</ele><time>2026-03-25T12:01:28Z</time></trkpt><trkpt lat="43.66231611468811" lon="3.2028221645409825"><ele>299.0</ele><time>2026-03-25T12:01:29Z</time></trkpt><trkpt lat="43.662238804030835" lon="3.2026263838726465"><ele>299.0</ele><time>2026-03-25T12:01:30Z</time></trkpt><trkpt lat="43.66215670688073" lon="3.2024325880851494"><ele>299.0</ele><time>2026-03-25T12:01:31Z</time></trkpt><trkpt lat="43.66208479188357" lon="3.2022497443227773"><ele>299.0</ele><time>2026-03-25T12:01:32Z</time></trkpt><trkpt lat="43.662021567993776" lon="3.2020676718045413"><ele>298.0</ele><time>2026-03-25T12:01:33Z</time></trkpt><trkpt lat="43.66198550066584" lon="3.2018663270052885"><ele>297.0</ele><time>2026-03-25T12:01:34Z</time></trkpt><trkpt lat="43.66195689372463" lon="3.2016420211289347"><ele>296.0</ele><time>2026-03-25T12:01:35Z</time></trkpt><trkpt lat="43.661929876377464" lon="3.2014052686123775"><ele>295.6666666666667</ele><time>2026-03-25T12:01:36Z</time></trkpt><trkpt lat="43.66190290032167" lon="3.201149788087424"><ele>295.3333333333333</ele><time>2026-03-25T12:01:37Z</time></trkpt><trkpt lat="43.66188167905187" lon="3.2008892274667597"><ele>295.0</ele><time>2026-03-25T12:01:38Z</time></trkpt><trkpt lat="43.66186142775157" lon="3.200633990545038"><ele>293.3333333333333</ele><time>2026-03-25T12:01:39Z</time></trkpt><trkpt lat="43.66183983242816" lon="3.200381876893204"><ele>291.6666666666667</ele><time>2026-03-25T12:01:40Z</time></trkpt><trkpt lat="43.661815668184005" lon="3.200137256043255"><ele>290.0</ele><time>2026-03-25T12:01:41Z</time></trkpt><trkpt lat="43.661794036555435" lon="3.199900182377144"><ele>290.6666666666667</ele><time>2026-03-25T12:01:42Z</time></trkpt><trkpt lat="43.66177863393732" lon="3.199675909976368"><ele>291.3333333333333</ele><time>2026-03-25T12:01:43.001Z</time></trkpt><trkpt lat="43.66176404252545" lon="3.1994643128231317"><ele>292.0</ele><time>2026-03-25T12:01:44.001Z</time></trkpt><trkpt lat="43.66175669768626" lon="3.199263207133307"><ele>292.0</ele><time>2026-03-25T12:01:45.001Z</time></trkpt><trkpt lat="43.66175611881667" lon="3.199063734863932"><ele>292.0</ele><time>2026-03-25T12:01:46.001Z</time></trkpt><trkpt lat="43.66176694621094" lon="3.1988632684845895"><ele>292.0</ele><time>2026-03-25T12:01:47.001Z</time></trkpt><trkpt lat="43.661784213219576" lon="3.1986629387528613"><ele>292.0</ele><time>2026-03-25T12:01:48.001Z</time></trkpt><trkpt lat="43.661800627811196" lon="3.1984555644638033"><ele>291.3333333333333</ele><time>2026-03-25T12:01:49.001Z</time></trkpt><trkpt lat="43.661815346613785" lon="3.198243092191791"><ele>290.6666666666667</ele><time>2026-03-25T12:01:50.001Z</time></trkpt><trkpt lat="43.66183037360053" lon="3.1980234455685985"><ele>290.0</ele><time>2026-03-25T12:01:51.001Z</time></trkpt><trkpt lat="43.66184653736555" lon="3.197805493167446"><ele>289.33333333333337</ele><time>2026-03-25T12:01:52.001Z</time></trkpt><trkpt lat="43.66186166501669" lon="3.1975901401505187"><ele>288.6666666666667</ele><time>2026-03-25T12:01:53.001Z</time></trkpt><trkpt lat="43.66187669710517" lon="3.1973725972455003"><ele>288.0</ele><time>2026-03-25T12:01:54.001Z</time></trkpt><trkpt lat="43.661892344011655" lon="3.1971522465195528"><ele>287.0</ele><time>2026-03-25T12:01:55.001Z</time></trkpt><trkpt lat="43.661908710698974" lon="3.1969319209446825"><ele>286.0</ele><time>2026-03-25T12:01:56.001Z</time></trkpt><trkpt lat="43.66192323349349" lon="3.1967096798110597"><ele>285.0</ele><time>2026-03-25T12:01:57.001Z</time></trkpt><trkpt lat="43.66193842796917" lon="3.1964856361021954"><ele>285.6666666666667</ele><time>2026-03-25T12:01:58.001Z</time></trkpt><trkpt lat="43.66195343574731" lon="3.1962641062895445"><ele>286.33333333333337</ele><time>2026-03-25T12:01:59.001Z</time></trkpt><trkpt lat="43.66196943086517" lon="3.196045375720813"><ele>287.0</ele><time>2026-03-25T12:02:00.001Z</time></trkpt><trkpt lat="43.66198660948683" lon="3.195828309706686"><ele>287.0</ele><time>2026-03-25T12:02:01.001Z</time></trkpt><trkpt lat="43.66200293535513" lon="3.19561129723109"><ele>287.0</ele><time>2026-03-25T12:02:02.001Z</time></trkpt><trkpt lat="43.662018254603105" lon="3.1953907327013993"><ele>287.0</ele><time>2026-03-25T12:02:03.001Z</time></trkpt><trkpt lat="43.662034893526226" lon="3.1951689663048177"><ele>287.0</ele><time>2026-03-25T12:02:04.001Z</time></trkpt><trkpt lat="43.662049950703" lon="3.194948839311148"><ele>287.0</ele><time>2026-03-25T12:02:05.001Z</time></trkpt><trkpt lat="43.66206481095694" lon="3.19472356068204"><ele>287.0</ele><time>2026-03-25T12:02:06.001Z</time></trkpt><trkpt lat="43.66208119147911" lon="3.194498453888489"><ele>286.0</ele><time>2026-03-25T12:02:07.001Z</time></trkpt><trkpt lat="43.66209649584567" lon="3.1942730214438333"><ele>285.0</ele><time>2026-03-25T12:02:08.001Z</time></trkpt><trkpt lat="43.66211138474131" lon="3.1940487842091776"><ele>284.0</ele><time>2026-03-25T12:02:09.001Z</time></trkpt><trkpt lat="43.66212596077095" lon="3.1938348491023443"><ele>283.75</ele><time>2026-03-25T12:02:10.001Z</time></trkpt><trkpt lat="43.662139830003966" lon="3.1936286792190938"><ele>283.5</ele><time>2026-03-25T12:02:11.001Z</time></trkpt><trkpt lat="43.66215360569011" lon="3.19342998179928"><ele>283.25</ele><time>2026-03-25T12:02:12.001Z</time></trkpt><trkpt lat="43.66216932134539" lon="3.193237498982361"><ele>283.0</ele><time>2026-03-25T12:02:13.001Z</time></trkpt><trkpt lat="43.66219589697743" lon="3.193051958190208"><ele>282.25</ele><time>2026-03-25T12:02:14.001Z</time></trkpt><trkpt lat="43.662235781856744" lon="3.1928728045279575"><ele>281.5</ele><time>2026-03-25T12:02:15.001Z</time></trkpt><trkpt lat="43.662295812043055" lon="3.1926988731084704"><ele>280.75</ele><time>2026-03-25T12:02:16.001Z</time></trkpt><trkpt lat="43.66237151211026" lon="3.1925254088186086"><ele>280.0</ele><time>2026-03-25T12:02:17.001Z</time></trkpt><trkpt lat="43.66246102709468" lon="3.1923528099565046"><ele>278.3333333333333</ele><time>2026-03-25T12:02:18.001Z</time></trkpt><trkpt lat="43.662560600410664" lon="3.192176770546467"><ele>276.6666666666667</ele><time>2026-03-25T12:02:19.001Z</time></trkpt><trkpt lat="43.6626623666904" lon="3.1919945520130364"><ele>275.0</ele><time>2026-03-25T12:02:20.001Z</time></trkpt><trkpt lat="43.662765879958336" lon="3.191807918776624"><ele>275.33333333333337</ele><time>2026-03-25T12:02:21.001Z</time></trkpt><trkpt lat="43.6628738314816" lon="3.191617056181316"><ele>275.6666666666667</ele><time>2026-03-25T12:02:22.001Z</time></trkpt><trkpt lat="43.66298357354602" lon="3.1914229708972073"><ele>276.0</ele><time>2026-03-25T12:02:23.001Z</time></trkpt><trkpt lat="43.66309050021528" lon="3.19122878187812"><ele>274.6666666666667</ele><time>2026-03-25T12:02:24.002Z</time></trkpt><trkpt lat="43.663189139364405" lon="3.1910473736123586"><ele>273.33333333333337</ele><time>2026-03-25T12:02:25.002Z</time></trkpt><trkpt lat="43.6632861719093" lon="3.190879685020541"><ele>272.0</ele><time>2026-03-25T12:02:26.002Z</time></trkpt><trkpt lat="43.663389533127365" lon="3.1907212610211104"><ele>271.6666666666667</ele><time>2026-03-25T12:02:27.002Z</time></trkpt><trkpt lat="43.66350208692896" lon="3.1905688900441644"><ele>271.3333333333333</ele><time>2026-03-25T12:02:28.002Z</time></trkpt><trkpt lat="43.6636216762507" lon="3.1904199725100537"><ele>271.0</ele><time>2026-03-25T12:02:29.002Z</time></trkpt><trkpt lat="43.66374421712413" lon="3.1902719693418424"><ele>271.0</ele><time>2026-03-25T12:02:30.002Z</time></trkpt><trkpt lat="43.66386544928847" lon="3.1901238552835234"><ele>271.0</ele><time>2026-03-25T12:02:31.002Z</time></trkpt><trkpt lat="43.663986061096715" lon="3.1899719702898883"><ele>271.0</ele><time>2026-03-25T12:02:32.002Z</time></trkpt><trkpt lat="43.66410411008379" lon="3.1898125422027688"><ele>271.0</ele><time>2026-03-25T12:02:33.002Z</time></trkpt><trkpt lat="43.664214405632556" lon="3.18963991882077"><ele>271.0</ele><time>2026-03-25T12:02:34.002Z</time></trkpt><trkpt lat="43.66431727238403" lon="3.189457246288643"><ele>271.0</ele><time>2026-03-25T12:02:35.002Z</time></trkpt><trkpt lat="43.66441403400178" lon="3.1892718011466155"><ele>271.0</ele><time>2026-03-25T12:02:36.002Z</time></trkpt><trkpt lat="43.664511933496165" lon="3.1890875390167466"><ele>271.0</ele><time>2026-03-25T12:02:37.002Z</time></trkpt><trkpt lat="43.66460608530273" lon="3.1889082086969354"><ele>271.0</ele><time>2026-03-25T12:02:38.002Z</time></trkpt><trkpt lat="43.66469856608664" lon="3.188729331760171"><ele>270.0</ele><time>2026-03-25T12:02:39.002Z</time></trkpt><trkpt lat="43.66479187215055" lon="3.188550795116144"><ele>269.0</ele><time>2026-03-25T12:02:40.002Z</time></trkpt><trkpt lat="43.664886571489944" lon="3.1883723924357796"><ele>268.0</ele><time>2026-03-25T12:02:41.002Z</time></trkpt><trkpt lat="43.664983069044965" lon="3.18819334558472"><ele>267.0</ele><time>2026-03-25T12:02:42.002Z</time></trkpt><trkpt lat="43.66507991915305" lon="3.1880105698897525"><ele>266.0</ele><time>2026-03-25T12:02:43.002Z</time></trkpt><trkpt lat="43.66517956298264" lon="3.187829278589708"><ele>265.0</ele><time>2026-03-25T12:02:44.002Z</time></trkpt><trkpt lat="43.66527831859477" lon="3.187647236632841"><ele>265.66666666666663</ele><time>2026-03-25T12:02:45.002Z</time></trkpt><trkpt lat="43.665374789351176" lon="3.18745793860319"><ele>266.3333333333333</ele><time>2026-03-25T12:02:46.002Z</time></trkpt><trkpt lat="43.665472355839526" lon="3.187270157773571"><ele>267.0</ele><time>2026-03-25T12:02:47.002Z</time></trkpt><trkpt lat="43.6655723432441" lon="3.1870839607570556"><ele>265.3333333333333</ele><time>2026-03-25T12:02:48.002Z</time></trkpt><trkpt lat="43.66567121719623" lon="3.1868981654252235"><ele>263.66666666666663</ele><time>2026-03-25T12:02:49.002Z</time></trkpt><trkpt lat="43.66576964705918" lon="3.1867073192127178"><ele>262.0</ele><time>2026-03-25T12:02:50.002Z</time></trkpt><trkpt lat="43.66586940877663" lon="3.186519864439128"><ele>261.75</ele><time>2026-03-25T12:02:51.002Z</time></trkpt><trkpt lat="43.665971801835475" lon="3.186339247338925"><ele>261.5</ele><time>2026-03-25T12:02:52.002Z</time></trkpt><trkpt lat="43.66606145761097" lon="3.186172078238234"><ele>261.25</ele><time>2026-03-25T12:02:53.002Z</time></trkpt><trkpt lat="43.666130335709255" lon="3.1860358158136113"><ele>261.0</ele><time>2026-03-25T12:02:54.002Z</time></trkpt><trkpt lat="43.66619404610537" lon="3.185911666650387"><ele>261.5</ele><time>2026-03-25T12:02:55.002Z</time></trkpt><trkpt lat="43.666261131090394" lon="3.18578309279195"><ele>262.0</ele><time>2026-03-25T12:02:56.002Z</time></trkpt><trkpt lat="43.66633099006549" lon="3.185649790442575"><ele>262.5</ele><time>2026-03-25T12:02:57.002Z</time></trkpt><trkpt lat="43.66640273340403" lon="3.1855098002054607"><ele>263.0</ele><time>2026-03-25T12:02:58.002Z</time></trkpt><trkpt lat="43.66648012771828" lon="3.1853636819479147"><ele>263.0</ele><time>2026-03-25T12:02:59.002Z</time></trkpt><trkpt lat="43.66656157438774" lon="3.1852116701436497"><ele>263.0</ele><time>2026-03-25T12:03:00.002Z</time></trkpt><trkpt lat="43.666646339343075" lon="3.1850546773443513"><ele>263.0</ele><time>2026-03-25T12:03:01.002Z</time></trkpt><trkpt lat="43.666733373359286" lon="3.1848880764039276"><ele>263.0</ele><time>2026-03-25T12:03:02.002Z</time></trkpt><trkpt lat="43.66682132186115" lon="3.1847164124817104"><ele>261.6666666666667</ele><time>2026-03-25T12:03:03.002Z</time></trkpt><trkpt lat="43.66691396854355" lon="3.184539841600531"><ele>260.3333333333333</ele><time>2026-03-25T12:03:04.002Z</time></trkpt><trkpt lat="43.66701046000192" lon="3.1843625696699327"><ele>259.0</ele><time>2026-03-25T12:03:05.002Z</time></trkpt><trkpt lat="43.66710707476074" lon="3.1841800577255435"><ele>257.3333333333333</ele><time>2026-03-25T12:03:06.003Z</time></trkpt><trkpt lat="43.66720493167976" lon="3.1839965475776077"><ele>255.66666666666669</ele><time>2026-03-25T12:03:07.003Z</time></trkpt><trkpt lat="43.667296910930546" lon="3.1838261064181754"><ele>254.0</ele><time>2026-03-25T12:03:08.003Z</time></trkpt><trkpt lat="43.667381946556944" lon="3.183665064892014"><ele>254.0</ele><time>2026-03-25T12:03:09.003Z</time></trkpt><trkpt lat="43.667464327676775" lon="3.1835154799349135"><ele>254.0</ele><time>2026-03-25T12:03:10.003Z</time></trkpt><trkpt lat="43.667550965797034" lon="3.183384740196141"><ele>254.0</ele><time>2026-03-25T12:03:11.003Z</time></trkpt><trkpt lat="43.66764942997732" lon="3.183264739553781"><ele>254.0</ele><time>2026-03-25T12:03:12.003Z</time></trkpt><trkpt lat="43.667760229566085" lon="3.183157629044692"><ele>253.0</ele><time>2026-03-25T12:03:13Z</time></trkpt><trkpt lat="43.667882072287654" lon="3.1830531183412716"><ele>252.0</ele><time>2026-03-25T12:03:14Z</time></trkpt><trkpt lat="43.668014596366184" lon="3.1829520032627014"><ele>251.0</ele><time>2026-03-25T12:03:15Z</time></trkpt><trkpt lat="43.66815560607949" lon="3.182858109378221"><ele>251.0</ele><time>2026-03-25T12:03:16Z</time></trkpt><trkpt lat="43.668298695710945" lon="3.182756182869589"><ele>251.0</ele><time>2026-03-25T12:03:17Z</time></trkpt><trkpt lat="43.668446887237806" lon="3.1826567631779614"><ele>251.0</ele><time>2026-03-25T12:03:18Z</time></trkpt><trkpt lat="43.668596194953096" lon="3.182555441726847"><ele>251.33333333333334</ele><time>2026-03-25T12:03:19Z</time></trkpt><trkpt lat="43.66874526840432" lon="3.182447689690424"><ele>251.66666666666669</ele><time>2026-03-25T12:03:20Z</time></trkpt><trkpt lat="43.66889829233584" lon="3.182342201037724"><ele>252.0</ele><time>2026-03-25T12:03:21Z</time></trkpt><trkpt lat="43.6690508987261" lon="3.18223525393817"><ele>250.33333333333331</ele><time>2026-03-25T12:03:22Z</time></trkpt><trkpt lat="43.669205675564264" lon="3.18212841789254"><ele>248.66666666666666</ele><time>2026-03-25T12:03:23Z</time></trkpt><trkpt lat="43.669363548354056" lon="3.182023830528127"><ele>247.0</ele><time>2026-03-25T12:03:24Z</time></trkpt><trkpt lat="43.669519373496364" lon="3.1819154416082784"><ele>247.0</ele><time>2026-03-25T12:03:25Z</time></trkpt><trkpt lat="43.66967000324612" lon="3.1818130272596865"><ele>247.0</ele><time>2026-03-25T12:03:26Z</time></trkpt><trkpt lat="43.66980839043588" lon="3.18171866086269"><ele>247.0</ele><time>2026-03-25T12:03:27Z</time></trkpt><trkpt lat="43.6699379311743" lon="3.1816284217063715"><ele>247.0</ele><time>2026-03-25T12:03:28Z</time></trkpt><trkpt lat="43.6700667371365" lon="3.1815370470478794"><ele>247.0</ele><time>2026-03-25T12:03:29Z</time></trkpt><trkpt lat="43.67019633185943" lon="3.1814466357527085"><ele>247.0</ele><time>2026-03-25T12:03:30Z</time></trkpt><trkpt lat="43.67032524422046" lon="3.181359760700041"><ele>247.0</ele><time>2026-03-25T12:03:31Z</time></trkpt><trkpt lat="43.6704559196244" lon="3.1812781944783777"><ele>247.0</ele><time>2026-03-25T12:03:32Z</time></trkpt><trkpt lat="43.67058659570838" lon="3.181199129239724"><ele>247.0</ele><time>2026-03-25T12:03:33Z</time></trkpt><trkpt lat="43.67071842211765" lon="3.1811254682129406"><ele>247.0</ele><time>2026-03-25T12:03:34Z</time></trkpt><trkpt lat="43.67085623653466" lon="3.1810697802730785"><ele>247.0</ele><time>2026-03-25T12:03:35Z</time></trkpt><trkpt lat="43.670995677997645" lon="3.1810328001241532"><ele>247.0</ele><time>2026-03-25T12:03:36Z</time></trkpt><trkpt lat="43.67113796734619" lon="3.181007741891674"><ele>247.0</ele><time>2026-03-25T12:03:37Z</time></trkpt><trkpt lat="43.67128164068945" lon="3.180992437834817"><ele>247.0</ele><time>2026-03-25T12:03:38Z</time></trkpt><trkpt lat="43.67142164532171" lon="3.180983798919186"><ele>247.0</ele><time>2026-03-25T12:03:39Z</time></trkpt><trkpt lat="43.671545313175244" lon="3.180979312258594"><ele>247.0</ele><time>2026-03-25T12:03:40Z</time></trkpt><trkpt lat="43.671648555066774" lon="3.1809720948684315"><ele>247.0</ele><time>2026-03-25T12:03:41Z</time></trkpt><trkpt lat="43.67175443774214" lon="3.1809657176903423"><ele>247.0</ele><time>2026-03-25T12:03:42Z</time></trkpt><trkpt lat="43.67186146290041" lon="3.1809599504909154"><ele>247.0</ele><time>2026-03-25T12:03:43Z</time></trkpt><trkpt lat="43.67196424335786" lon="3.1809522547882922"><ele>247.0</ele><time>2026-03-25T12:03:44Z</time></trkpt><trkpt lat="43.67206993647893" lon="3.1809460916649965"><ele>247.39999999999998</ele><time>2026-03-25T12:03:45Z</time></trkpt><trkpt lat="43.672164709291685" lon="3.180939059391495"><ele>247.79999999999998</ele><time>2026-03-25T12:03:46Z</time></trkpt><trkpt lat="43.67224711312064" lon="3.180929950221788"><ele>248.2</ele><time>2026-03-25T12:03:47Z</time></trkpt><trkpt lat="43.67233397433858" lon="3.1809213777821856"><ele>248.6</ele><time>2026-03-25T12:03:48Z</time></trkpt><trkpt lat="43.67243164280489" lon="3.180911307044948"><ele>249.0</ele><time>2026-03-25T12:03:49Z</time></trkpt><trkpt lat="43.67254059293902" lon="3.180904807403541"><ele>249.0</ele><time>2026-03-25T12:03:50.001Z</time></trkpt><trkpt lat="43.6726595464781" lon="3.180898489663902"><ele>249.0</ele><time>2026-03-25T12:03:51.001Z</time></trkpt><trkpt lat="43.672786650651524" lon="3.180891000922238"><ele>249.0</ele><time>2026-03-25T12:03:52.001Z</time></trkpt><trkpt lat="43.67292148863722" lon="3.180880057733089"><ele>249.0</ele><time>2026-03-25T12:03:53.001Z</time></trkpt><trkpt lat="43.673065285287315" lon="3.180870176906241"><ele>248.66666666666669</ele><time>2026-03-25T12:03:54.001Z</time></trkpt><trkpt lat="43.673215152668014" lon="3.180858370346801"><ele>248.33333333333334</ele><time>2026-03-25T12:03:55.001Z</time></trkpt><trkpt lat="43.67336955044253" lon="3.1808449961886316"><ele>248.0</ele><time>2026-03-25T12:03:56.001Z</time></trkpt><trkpt lat="43.67353199579275" lon="3.1808318952420596"><ele>247.33333333333334</ele><time>2026-03-25T12:03:57.001Z</time></trkpt><trkpt lat="43.673699700297156" lon="3.1808216301696572"><ele>246.66666666666669</ele><time>2026-03-25T12:03:58.001Z</time></trkpt><trkpt lat="43.67387459726407" lon="3.1808117459072527"><ele>246.0</ele><time>2026-03-25T12:03:59.001Z</time></trkpt><trkpt lat="43.674052183468355" lon="3.180796592316836"><ele>246.0</ele><time>2026-03-25T12:04:00.001Z</time></trkpt><trkpt lat="43.67423174029641" lon="3.1807788830701815"><ele>246.0</ele><time>2026-03-25T12:04:01.001Z</time></trkpt><trkpt lat="43.67441119804924" lon="3.180762249091801"><ele>246.0</ele><time>2026-03-25T12:04:02.001Z</time></trkpt><trkpt lat="43.67459136885474" lon="3.180748755538092"><ele>246.66666666666669</ele><time>2026-03-25T12:04:03.001Z</time></trkpt><trkpt lat="43.67476980275035" lon="3.1807297289883336"><ele>247.33333333333334</ele><time>2026-03-25T12:04:04.001Z</time></trkpt><trkpt lat="43.67494800307468" lon="3.180707543259269"><ele>248.0</ele><time>2026-03-25T12:04:05.001Z</time></trkpt><trkpt lat="43.67512313191305" lon="3.1806845272392352"><ele>248.66666666666669</ele><time>2026-03-25T12:04:06.001Z</time></trkpt><trkpt lat="43.67529612421618" lon="3.1806615545245545"><ele>249.33333333333331</ele><time>2026-03-25T12:04:07.001Z</time></trkpt><trkpt lat="43.675467208585545" lon="3.1806334529696265"><ele>250.0</ele><time>2026-03-25T12:04:08.001Z</time></trkpt><trkpt lat="43.6756383144285" lon="3.1806056337290904"><ele>250.0</ele><time>2026-03-25T12:04:09.001Z</time></trkpt><trkpt lat="43.675800456230014" lon="3.1805839394073163"><ele>250.0</ele><time>2026-03-25T12:04:10.001Z</time></trkpt><trkpt lat="43.675949156141975" lon="3.1805615493507524"><ele>250.0</ele><time>2026-03-25T12:04:11.001Z</time></trkpt><trkpt lat="43.67608645173037" lon="3.1805417723490423"><ele>250.75</ele><time>2026-03-25T12:04:12.001Z</time></trkpt><trkpt lat="43.67621008910794" lon="3.180519626602599"><ele>251.5</ele><time>2026-03-25T12:04:13.001Z</time></trkpt><trkpt lat="43.676331760660894" lon="3.180494381563161"><ele>252.25</ele><time>2026-03-25T12:04:14.001Z</time></trkpt><trkpt lat="43.676451705313326" lon="3.180477541457151"><ele>253.0</ele><time>2026-03-25T12:04:15.001Z</time></trkpt><trkpt lat="43.67657117456822" lon="3.1804629455424505"><ele>253.0</ele><time>2026-03-25T12:04:16.001Z</time></trkpt><trkpt lat="43.67668920214733" lon="3.180451445738716"><ele>253.0</ele><time>2026-03-25T12:04:17.001Z</time></trkpt><trkpt lat="43.6768100198107" lon="3.180440164877011"><ele>253.0</ele><time>2026-03-25T12:04:18.001Z</time></trkpt><trkpt lat="43.676931522787854" lon="3.1804291503904336"><ele>253.0</ele><time>2026-03-25T12:04:19.001Z</time></trkpt><trkpt lat="43.67705294931629" lon="3.1804112003840035"><ele>253.75</ele><time>2026-03-25T12:04:20.001Z</time></trkpt><trkpt lat="43.677175471738614" lon="3.180397776251658"><ele>254.5</ele><time>2026-03-25T12:04:21.001Z</time></trkpt><trkpt lat="43.677297144266845" lon="3.1803867355896354"><ele>255.25</ele><time>2026-03-25T12:04:22.001Z</time></trkpt><trkpt lat="43.67741650427732" lon="3.180377139359434"><ele>256.0</ele><time>2026-03-25T12:04:23.001Z</time></trkpt><trkpt lat="43.67753416746911" lon="3.180366732076986"><ele>256.0</ele><time>2026-03-25T12:04:24.001Z</time></trkpt><trkpt lat="43.67764885839622" lon="3.180348823566698"><ele>256.0</ele><time>2026-03-25T12:04:25.001Z</time></trkpt><trkpt lat="43.67776296244361" lon="3.1803250050066874"><ele>256.0</ele><time>2026-03-25T12:04:26.001Z</time></trkpt><trkpt lat="43.677875961243856" lon="3.18030326454414"><ele>256.0</ele><time>2026-03-25T12:04:27.001Z</time></trkpt><trkpt lat="43.67798926467168" lon="3.1802876382406704"><ele>255.5</ele><time>2026-03-25T12:04:28.001Z</time></trkpt><trkpt lat="43.67810761286368" lon="3.1802779255510694"><ele>255.0</ele><time>2026-03-25T12:04:29.001Z</time></trkpt><trkpt lat="43.67822909852605" lon="3.1802734505898775"><ele>254.5</ele><time>2026-03-25T12:04:30.002Z</time></trkpt><trkpt lat="43.67835440485631" lon="3.1802735411454623"><ele>254.0</ele><time>2026-03-25T12:04:31.002Z</time></trkpt><trkpt lat="43.67848341948239" lon="3.1802786052286742"><ele>253.75</ele><time>2026-03-25T12:04:32.002Z</time></trkpt><trkpt lat="43.67861622530624" lon="3.180289534289176"><ele>253.5</ele><time>2026-03-25T12:04:33.002Z</time></trkpt><trkpt lat="43.67875099864482" lon="3.1803060631703466"><ele>253.25</ele><time>2026-03-25T12:04:34.002Z</time></trkpt><trkpt lat="43.6788866267252" lon="3.180328404737253"><ele>253.0</ele><time>2026-03-25T12:04:35.002Z</time></trkpt><trkpt lat="43.679026987760466" lon="3.18035350498087"><ele>253.0</ele><time>2026-03-25T12:04:36.002Z</time></trkpt><trkpt lat="43.6791673091189" lon="3.180385420534193"><ele>253.0</ele><time>2026-03-25T12:04:37.002Z</time></trkpt><trkpt lat="43.679308197546355" lon="3.1804217179032186"><ele>253.0</ele><time>2026-03-25T12:04:38.002Z</time></trkpt><trkpt lat="43.6794497266328" lon="3.1804653847608866"><ele>253.0</ele><time>2026-03-25T12:04:39.002Z</time></trkpt><trkpt lat="43.67959070541592" lon="3.1805189470718442"><ele>252.33333333333331</ele><time>2026-03-25T12:04:40.002Z</time></trkpt><trkpt lat="43.6797336671782" lon="3.180574542763583"><ele>251.66666666666669</ele><time>2026-03-25T12:04:41.002Z</time></trkpt><trkpt lat="43.679877277681314" lon="3.1806260192632423"><ele>251.0</ele><time>2026-03-25T12:04:42.002Z</time></trkpt><trkpt lat="43.68002558485485" lon="3.1806761284127814"><ele>251.25</ele><time>2026-03-25T12:04:43.002Z</time></trkpt><trkpt lat="43.6801688767503" lon="3.180725762276608"><ele>251.5</ele><time>2026-03-25T12:04:44.002Z</time></trkpt><trkpt lat="43.68030587697299" lon="3.1807675515515212"><ele>251.75</ele><time>2026-03-25T12:04:45.002Z</time></trkpt><trkpt lat="43.680434401409286" lon="3.1807902354015427"><ele>252.0</ele><time>2026-03-25T12:04:46.002Z</time></trkpt><trkpt lat="43.68055746750951" lon="3.1807940612424477"><ele>252.0</ele><time>2026-03-25T12:04:47.002Z</time></trkpt><trkpt lat="43.68068104172058" lon="3.1807802574942765"><ele>252.0</ele><time>2026-03-25T12:04:48.002Z</time></trkpt><trkpt lat="43.680806374837" lon="3.1807535407033933"><ele>252.0</ele><time>2026-03-25T12:04:49.002Z</time></trkpt><trkpt lat="43.68093370335182" lon="3.1807120190535656"><ele>252.0</ele><time>2026-03-25T12:04:50.002Z</time></trkpt><trkpt lat="43.68106245794848" lon="3.180649230382638"><ele>250.75</ele><time>2026-03-25T12:04:51.002Z</time></trkpt><trkpt lat="43.68118855489903" lon="3.180557079776968"><ele>249.5</ele><time>2026-03-25T12:04:52.002Z</time></trkpt><trkpt lat="43.681313696556224" lon="3.180451412360128"><ele>248.25</ele><time>2026-03-25T12:04:53.002Z</time></trkpt><trkpt lat="43.68144251538747" lon="3.1803377558727672"><ele>247.0</ele><time>2026-03-25T12:04:54.002Z</time></trkpt><trkpt lat="43.68157906173522" lon="3.1802207465586205"><ele>247.0</ele><time>2026-03-25T12:04:55.002Z</time></trkpt><trkpt lat="43.68171829794968" lon="3.1801036659916533"><ele>247.0</ele><time>2026-03-25T12:04:56.002Z</time></trkpt><trkpt lat="43.68186119390669" lon="3.179983196765144"><ele>247.0</ele><time>2026-03-25T12:04:57.002Z</time></trkpt><trkpt lat="43.682009826389525" lon="3.1798590928662946"><ele>245.66666666666666</ele><time>2026-03-25T12:04:58.002Z</time></trkpt><trkpt lat="43.682159078444904" lon="3.179732758329501"><ele>244.33333333333331</ele><time>2026-03-25T12:04:59.002Z</time></trkpt><trkpt lat="43.682307691952325" lon="3.1796067776785746"><ele>243.0</ele><time>2026-03-25T12:05:00.002Z</time></trkpt><trkpt lat="43.68245444824116" lon="3.179486991010734"><ele>243.0</ele><time>2026-03-25T12:05:01.002Z</time></trkpt><trkpt lat="43.68259792904104" lon="3.179383838116131"><ele>243.0</ele><time>2026-03-25T12:05:02.002Z</time></trkpt><trkpt lat="43.682744276413445" lon="3.179297403049242"><ele>243.0</ele><time>2026-03-25T12:05:03.002Z</time></trkpt><trkpt lat="43.6828928645623" lon="3.179217956427773"><ele>243.0</ele><time>2026-03-25T12:05:04.002Z</time></trkpt><trkpt lat="43.68304497592063" lon="3.179133096269426"><ele>243.0</ele><time>2026-03-25T12:05:05.002Z</time></trkpt><trkpt lat="43.68319843889012" lon="3.1790474757908282"><ele>243.0</ele><time>2026-03-25T12:05:06.002Z</time></trkpt><trkpt lat="43.68335450799335" lon="3.178963736466095"><ele>242.66666666666669</ele><time>2026-03-25T12:05:07.002Z</time></trkpt><trkpt lat="43.68350863467282" lon="3.1788818300065045"><ele>242.33333333333334</ele><time>2026-03-25T12:05:08.002Z</time></trkpt><trkpt lat="43.68366020241471" lon="3.178801227092714"><ele>242.0</ele><time>2026-03-25T12:05:09.002Z</time></trkpt><trkpt lat="43.68380756983047" lon="3.178717498829186"><ele>242.0</ele><time>2026-03-25T12:05:10.002Z</time></trkpt><trkpt lat="43.68395096420019" lon="3.1786352521358503"><ele>242.0</ele><time>2026-03-25T12:05:11.002Z</time></trkpt><trkpt lat="43.68409342732946" lon="3.178561976624229"><ele>242.0</ele><time>2026-03-25T12:05:12.003Z</time></trkpt><trkpt lat="43.684237169578616" lon="3.1784947999153443"><ele>242.0</ele><time>2026-03-25T12:05:13.003Z</time></trkpt><trkpt lat="43.68438127777769" lon="3.1784344114066516"><ele>242.0</ele><time>2026-03-25T12:05:14.003Z</time></trkpt><trkpt lat="43.68452487890548" lon="3.1783804647536753"><ele>242.0</ele><time>2026-03-25T12:05:15.003Z</time></trkpt><trkpt lat="43.68466825750207" lon="3.1783344182093414"><ele>242.0</ele><time>2026-03-25T12:05:16.003Z</time></trkpt><trkpt lat="43.68481090488696" lon="3.178283664309284"><ele>242.0</ele><time>2026-03-25T12:05:17.003Z</time></trkpt><trkpt lat="43.68495113730747" lon="3.17822884736972"><ele>242.0</ele><time>2026-03-25T12:05:18.003Z</time></trkpt><trkpt lat="43.685090592636726" lon="3.1781759138099868"><ele>242.0</ele><time>2026-03-25T12:05:19Z</time></trkpt><trkpt lat="43.68522995104905" lon="3.1781339811903573"><ele>242.0</ele><time>2026-03-25T12:05:20Z</time></trkpt><trkpt lat="43.685370870275726" lon="3.178094933118725"><ele>242.0</ele><time>2026-03-25T12:05:21Z</time></trkpt><trkpt lat="43.6855126858485" lon="3.1780549411435137"><ele>242.0</ele><time>2026-03-25T12:05:22Z</time></trkpt><trkpt lat="43.68565047898552" lon="3.1780048182392644"><ele>242.0</ele><time>2026-03-25T12:05:23Z</time></trkpt><trkpt lat="43.68578355587928" lon="3.1779426036909806"><ele>242.0</ele><time>2026-03-25T12:05:24Z</time></trkpt><trkpt lat="43.685914846205584" lon="3.1778828467713325"><ele>242.0</ele><time>2026-03-25T12:05:25Z</time></trkpt><trkpt lat="43.68604265914999" lon="3.1778191167152254"><ele>242.0</ele><time>2026-03-25T12:05:26Z</time></trkpt><trkpt lat="43.686168869988244" lon="3.1777595890160835"><ele>242.0</ele><time>2026-03-25T12:05:27Z</time></trkpt><trkpt lat="43.6862968228835" lon="3.177701137946858"><ele>242.0</ele><time>2026-03-25T12:05:28Z</time></trkpt><trkpt lat="43.6864248047039" lon="3.177642467110586"><ele>243.25</ele><time>2026-03-25T12:05:29Z</time></trkpt><trkpt lat="43.686556115182114" lon="3.1775788727715675"><ele>244.5</ele><time>2026-03-25T12:05:30Z</time></trkpt><trkpt lat="43.68668989395207" lon="3.1775280348213095"><ele>245.75</ele><time>2026-03-25T12:05:31Z</time></trkpt><trkpt lat="43.68682545604282" lon="3.17749044979663"><ele>247.0</ele><time>2026-03-25T12:05:32Z</time></trkpt><trkpt lat="43.68696520023403" lon="3.1774590328335446"><ele>248.0</ele><time>2026-03-25T12:05:33Z</time></trkpt><trkpt lat="43.68711008836833" lon="3.177436663340924"><ele>249.0</ele><time>2026-03-25T12:05:34Z</time></trkpt><trkpt lat="43.68725768130094" lon="3.1774222004981527"><ele>250.0</ele><time>2026-03-25T12:05:35Z</time></trkpt><trkpt lat="43.68740695674693" lon="3.1774159026748006"><ele>251.0</ele><time>2026-03-25T12:05:36Z</time></trkpt><trkpt lat="43.68755786962506" lon="3.1774095457414733"><ele>251.0</ele><time>2026-03-25T12:05:37Z</time></trkpt><trkpt lat="43.68770622452948" lon="3.177396732028171"><ele>251.0</ele><time>2026-03-25T12:05:38Z</time></trkpt><trkpt lat="43.687852605718795" lon="3.1773822726922414"><ele>251.0</ele><time>2026-03-25T12:05:39Z</time></trkpt><trkpt lat="43.687994799682656" lon="3.177365234859683"><ele>251.0</ele><time>2026-03-25T12:05:40Z</time></trkpt><trkpt lat="43.68813525730613" lon="3.177344088800523"><ele>250.0</ele><time>2026-03-25T12:05:41Z</time></trkpt><trkpt lat="43.68827182825758" lon="3.1773189668418294"><ele>249.0</ele><time>2026-03-25T12:05:42Z</time></trkpt><trkpt lat="43.68840867105741" lon="3.177286555478366"><ele>248.0</ele><time>2026-03-25T12:05:43Z</time></trkpt><trkpt lat="43.68854070486472" lon="3.177237561701156"><ele>247.0</ele><time>2026-03-25T12:05:44Z</time></trkpt><trkpt lat="43.688670642958215" lon="3.1771711948396875"><ele>247.0</ele><time>2026-03-25T12:05:45Z</time></trkpt><trkpt lat="43.68879730711751" lon="3.1770885594855574"><ele>247.0</ele><time>2026-03-25T12:05:46Z</time></trkpt><trkpt lat="43.688921561000406" lon="3.176991455620743"><ele>247.0</ele><time>2026-03-25T12:05:47Z</time></trkpt><trkpt lat="43.6890415700571" lon="3.176881642630703"><ele>247.0</ele><time>2026-03-25T12:05:48Z</time></trkpt><trkpt lat="43.689154396374654" lon="3.176756537317867"><ele>247.0</ele><time>2026-03-25T12:05:49Z</time></trkpt><trkpt lat="43.689259374076336" lon="3.1766176400799546"><ele>247.0</ele><time>2026-03-25T12:05:50Z</time></trkpt><trkpt lat="43.68935901875706" lon="3.176466175563727"><ele>247.0</ele><time>2026-03-25T12:05:51Z</time></trkpt><trkpt lat="43.68945175460739" lon="3.176306456715871"><ele>247.0</ele><time>2026-03-25T12:05:52Z</time></trkpt><trkpt lat="43.68953593256469" lon="3.176139211618038"><ele>248.25</ele><time>2026-03-25T12:05:53.001Z</time></trkpt><trkpt lat="43.68960782149066" lon="3.1759602573142507"><ele>249.5</ele><time>2026-03-25T12:05:54.001Z</time></trkpt><trkpt lat="43.68966662325621" lon="3.1757683245935917"><ele>250.75</ele><time>2026-03-25T12:05:55.001Z</time></trkpt><trkpt lat="43.68971032480482" lon="3.175570554681135"><ele>252.0</ele><time>2026-03-25T12:05:56.001Z</time></trkpt><trkpt lat="43.68974396485808" lon="3.175366463705906"><ele>252.0</ele><time>2026-03-25T12:05:57.001Z</time></trkpt><trkpt lat="43.689770786973604" lon="3.1751615662928363"><ele>252.0</ele><time>2026-03-25T12:05:58.001Z</time></trkpt><trkpt lat="43.68979798106349" lon="3.1749546734590983"><ele>252.0</ele><time>2026-03-25T12:05:59.001Z</time></trkpt><trkpt lat="43.68983054983648" lon="3.174747022626056"><ele>252.0</ele><time>2026-03-25T12:06:00.001Z</time></trkpt><trkpt lat="43.68986686088701" lon="3.1745500163917186"><ele>252.0</ele><time>2026-03-25T12:06:01.001Z</time></trkpt><trkpt lat="43.689913556829104" lon="3.1743699136450343"><ele>252.0</ele><time>2026-03-25T12:06:02.001Z</time></trkpt><trkpt lat="43.68997044880114" lon="3.174203280449805"><ele>252.0</ele><time>2026-03-25T12:06:03.001Z</time></trkpt><trkpt lat="43.690043247036755" lon="3.174056611080762"><ele>252.0</ele><time>2026-03-25T12:06:04.001Z</time></trkpt><trkpt lat="43.690130609439066" lon="3.173927997252953"><ele>252.0</ele><time>2026-03-25T12:06:05.001Z</time></trkpt><trkpt lat="43.69023808365703" lon="3.1738199810851646"><ele>252.0</ele><time>2026-03-25T12:06:06.001Z</time></trkpt><trkpt lat="43.69035253612675" lon="3.173718440100926"><ele>252.0</ele><time>2026-03-25T12:06:07.001Z</time></trkpt><trkpt lat="43.69047443322995" lon="3.173623685502675"><ele>252.0</ele><time>2026-03-25T12:06:08.001Z</time></trkpt><trkpt lat="43.69061382439627" lon="3.1735501190575373"><ele>252.0</ele><time>2026-03-25T12:06:09.001Z</time></trkpt><trkpt lat="43.69075880710794" lon="3.1734878677229785"><ele>252.0</ele><time>2026-03-25T12:06:10.001Z</time></trkpt><trkpt lat="43.69090979976558" lon="3.1734380360724903"><ele>252.0</ele><time>2026-03-25T12:06:11.001Z</time></trkpt><trkpt lat="43.69106236594883" lon="3.173393226799976"><ele>252.0</ele><time>2026-03-25T12:06:12.001Z</time></trkpt><trkpt lat="43.691217643955824" lon="3.173351769439022"><ele>252.0</ele><time>2026-03-25T12:06:13.001Z</time></trkpt><trkpt lat="43.69137311607313" lon="3.1733106629633934"><ele>250.0</ele><time>2026-03-25T12:06:14.001Z</time></trkpt><trkpt lat="43.691530480282374" lon="3.1732662024762877"><ele>248.0</ele><time>2026-03-25T12:06:15.001Z</time></trkpt><trkpt lat="43.691687604715256" lon="3.173220028953468"><ele>246.0</ele><time>2026-03-25T12:06:16.001Z</time></trkpt><trkpt lat="43.69184305898302" lon="3.1731709233099252"><ele>247.0</ele><time>2026-03-25T12:06:17.001Z</time></trkpt><trkpt lat="43.69199811376514" lon="3.1731174626840093"><ele>248.0</ele><time>2026-03-25T12:06:18.001Z</time></trkpt><trkpt lat="43.69215076723507" lon="3.173055520399113"><ele>249.0</ele><time>2026-03-25T12:06:19.001Z</time></trkpt><trkpt lat="43.692300417487424" lon="3.1729886638871587"><ele>249.0</ele><time>2026-03-25T12:06:20.001Z</time></trkpt><trkpt lat="43.69245030134578" lon="3.1729202995711487"><ele>249.0</ele><time>2026-03-25T12:06:21.001Z</time></trkpt><trkpt lat="43.69259835843078" lon="3.1728509676665184"><ele>249.0</ele><time>2026-03-25T12:06:22.001Z</time></trkpt><trkpt lat="43.69274401625262" lon="3.1727742029962505"><ele>250.66666666666669</ele><time>2026-03-25T12:06:23.001Z</time></trkpt><trkpt lat="43.692891309986024" lon="3.172696931956992"><ele>252.33333333333334</ele><time>2026-03-25T12:06:24.001Z</time></trkpt><trkpt lat="43.69304048406137" lon="3.1726296108822507"><ele>254.0</ele><time>2026-03-25T12:06:25.001Z</time></trkpt><trkpt lat="43.69319116113073" lon="3.172564544498908"><ele>254.0</ele><time>2026-03-25T12:06:26.001Z</time></trkpt><trkpt lat="43.69334184616541" lon="3.1724944160858337"><ele>254.0</ele><time>2026-03-25T12:06:27.001Z</time></trkpt><trkpt lat="43.69348845407825" lon="3.172424374534597"><ele>254.0</ele><time>2026-03-25T12:06:28.001Z</time></trkpt><trkpt lat="43.69362454201998" lon="3.17236395596639"><ele>252.5</ele><time>2026-03-25T12:06:29.001Z</time></trkpt><trkpt lat="43.69375268662318" lon="3.172313461013403"><ele>251.0</ele><time>2026-03-25T12:06:30.001Z</time></trkpt><trkpt lat="43.6938728390673" lon="3.172271806782664"><ele>249.5</ele><time>2026-03-25T12:06:31.001Z</time></trkpt><trkpt lat="43.693997517043314" lon="3.172246637248639"><ele>248.0</ele><time>2026-03-25T12:06:32.001Z</time></trkpt><trkpt lat="43.69412644079793" lon="3.1722435048924247"><ele>248.0</ele><time>2026-03-25T12:06:33.002Z</time></trkpt><trkpt lat="43.69425065506015" lon="3.172242297023466"><ele>248.0</ele><time>2026-03-25T12:06:34.002Z</time></trkpt><trkpt lat="43.69437368292018" lon="3.172225678805328"><ele>248.0</ele><time>2026-03-25T12:06:35.002Z</time></trkpt><trkpt lat="43.69449673883715" lon="3.1721942607454485"><ele>248.0</ele><time>2026-03-25T12:06:36.002Z</time></trkpt><trkpt lat="43.69461595269233" lon="3.1721413095328543"><ele>248.5</ele><time>2026-03-25T12:06:37.002Z</time></trkpt><trkpt lat="43.694732494301356" lon="3.172073971283773"><ele>249.0</ele><time>2026-03-25T12:06:38.002Z</time></trkpt><trkpt lat="43.69484431626255" lon="3.172005545562223"><ele>249.5</ele><time>2026-03-25T12:06:39.002Z</time></trkpt><trkpt lat="43.694948134143715" lon="3.171940438262261"><ele>250.0</ele><time>2026-03-25T12:06:40.002Z</time></trkpt><trkpt lat="43.69504599919121" lon="3.1718842900176702"><ele>250.0</ele><time>2026-03-25T12:06:41.002Z</time></trkpt><trkpt lat="43.69513480132028" lon="3.171838148926454"><ele>250.0</ele><time>2026-03-25T12:06:42.002Z</time></trkpt><trkpt lat="43.695201063895475" lon="3.171808238611521"><ele>250.0</ele><time>2026-03-25T12:06:43.002Z</time></trkpt><trkpt lat="43.69531425458084" lon="3.1718100368540565"><ele>250.0</ele><time>2026-03-25T12:06:45.002Z</time></trkpt><trkpt lat="43.69546140840652" lon="3.171890249260664"><ele>250.0</ele><time>2026-03-25T12:06:47.002Z</time></trkpt><trkpt lat="43.69555271196617" lon="3.1719346715569"><ele>250.2</ele><time>2026-03-25T12:06:48.002Z</time></trkpt><trkpt lat="43.695649574591435" lon="3.1719607800687966"><ele>250.4</ele><time>2026-03-25T12:06:49.002Z</time></trkpt><trkpt lat="43.69575160687551" lon="3.1719940527002146"><ele>250.60000000000002</ele><time>2026-03-25T12:06:50.002Z</time></trkpt><trkpt lat="43.69585552475491" lon="3.172033081889689"><ele>250.8</ele><time>2026-03-25T12:06:51.002Z</time></trkpt><trkpt lat="43.69596500110937" lon="3.1720680936991505"><ele>251.0</ele><time>2026-03-25T12:06:52.002Z</time></trkpt><trkpt lat="43.69607946318641" lon="3.172102284509283"><ele>251.0</ele><time>2026-03-25T12:06:53.002Z</time></trkpt><trkpt lat="43.69619786369164" lon="3.1721403459654747"><ele>251.0</ele><time>2026-03-25T12:06:54.002Z</time></trkpt><trkpt lat="43.69631812242573" lon="3.172179183884042"><ele>251.0</ele><time>2026-03-25T12:06:55.002Z</time></trkpt><trkpt lat="43.69644209649346" lon="3.172219897735733"><ele>251.0</ele><time>2026-03-25T12:06:56.002Z</time></trkpt><trkpt lat="43.69656970533272" lon="3.1722626945997927"><ele>251.0</ele><time>2026-03-25T12:06:57.002Z</time></trkpt><trkpt lat="43.69669564677978" lon="3.172304144840586"><ele>251.0</ele><time>2026-03-25T12:06:58.002Z</time></trkpt><trkpt lat="43.69681409704008" lon="3.172350314844074"><ele>251.0</ele><time>2026-03-25T12:06:59.002Z</time></trkpt><trkpt lat="43.696924880081994" lon="3.172408059679627"><ele>251.0</ele><time>2026-03-25T12:07:00.002Z</time></trkpt><trkpt lat="43.69703283615183" lon="3.172483352385396"><ele>252.0</ele><time>2026-03-25T12:07:01.002Z</time></trkpt><trkpt lat="43.6971355114751" lon="3.172570638667844"><ele>253.0</ele><time>2026-03-25T12:07:02.002Z</time></trkpt><trkpt lat="43.69723640013624" lon="3.172669049885989"><ele>254.0</ele><time>2026-03-25T12:07:03.002Z</time></trkpt><trkpt lat="43.69733000775619" lon="3.172788314921372"><ele>255.0</ele><time>2026-03-25T12:07:04.002Z</time></trkpt><trkpt lat="43.69742023959869" lon="3.1729213091008"><ele>255.0</ele><time>2026-03-25T12:07:05.002Z</time></trkpt><trkpt lat="43.69750674810174" lon="3.1730660808818967"><ele>255.0</ele><time>2026-03-25T12:07:06.002Z</time></trkpt><trkpt lat="43.69757257697928" lon="3.173242671930065"><ele>255.0</ele><time>2026-03-25T12:07:07.002Z</time></trkpt><trkpt lat="43.69765196166698" lon="3.173424848866514"><ele>255.0</ele><time>2026-03-25T12:07:08.002Z</time></trkpt><trkpt lat="43.69772922776115" lon="3.173614512297801"><ele>254.66666666666669</ele><time>2026-03-25T12:07:09.002Z</time></trkpt><trkpt lat="43.697802507632424" lon="3.1737977724249298"><ele>254.33333333333334</ele><time>2026-03-25T12:07:10.002Z</time></trkpt><trkpt lat="43.69787819376852" lon="3.173981441714399"><ele>254.0</ele><time>2026-03-25T12:07:11.002Z</time></trkpt><trkpt lat="43.69796133645321" lon="3.174159494634113"><ele>255.0</ele><time>2026-03-25T12:07:12.002Z</time></trkpt><trkpt lat="43.698055504904644" lon="3.17433755907656"><ele>256.0</ele><time>2026-03-25T12:07:13.002Z</time></trkpt><trkpt lat="43.69817578575804" lon="3.1745003097364046"><ele>257.0</ele><time>2026-03-25T12:07:14.003Z</time></trkpt><trkpt lat="43.69828920230737" lon="3.1746830889562787"><ele>256.0</ele><time>2026-03-25T12:07:15.003Z</time></trkpt><trkpt lat="43.69839840088978" lon="3.174888976252364"><ele>255.0</ele><time>2026-03-25T12:07:16.003Z</time></trkpt><trkpt lat="43.69852055403176" lon="3.1750823719427017"><ele>254.0</ele><time>2026-03-25T12:07:17.003Z</time></trkpt><trkpt lat="43.69865617672289" lon="3.175264181814901"><ele>254.0</ele><time>2026-03-25T12:07:18.003Z</time></trkpt><trkpt lat="43.69877220995868" lon="3.175481314853296"><ele>254.0</ele><time>2026-03-25T12:07:19.003Z</time></trkpt><trkpt lat="43.6989012885478" lon="3.1756776992014153"><ele>254.0</ele><time>2026-03-25T12:07:20.003Z</time></trkpt><trkpt lat="43.699032491341455" lon="3.1758588348916277"><ele>254.66666666666669</ele><time>2026-03-25T12:07:21.003Z</time></trkpt><trkpt lat="43.699175719026876" lon="3.1760151284587237"><ele>255.33333333333331</ele><time>2026-03-25T12:07:22.003Z</time></trkpt><trkpt lat="43.69930969232035" lon="3.1761722122823235"><ele>256.0</ele><time>2026-03-25T12:07:23.003Z</time></trkpt><trkpt lat="43.69943940516801" lon="3.1763268469393386"><ele>256.0</ele><time>2026-03-25T12:07:24.003Z</time></trkpt><trkpt lat="43.69956919430267" lon="3.1764832943328165"><ele>256.0</ele><time>2026-03-25T12:07:25Z</time></trkpt><trkpt lat="43.69968501427874" lon="3.1766548855625585"><ele>256.0</ele><time>2026-03-25T12:07:26Z</time></trkpt><trkpt lat="43.699808814144596" lon="3.176805329150502"><ele>257.3333333333333</ele><time>2026-03-25T12:07:27Z</time></trkpt><trkpt lat="43.699932008749585" lon="3.176953651417335"><ele>258.6666666666667</ele><time>2026-03-25T12:07:28Z</time></trkpt><trkpt lat="43.7000645671655" lon="3.177079251210849"><ele>260.0</ele><time>2026-03-25T12:07:29Z</time></trkpt><trkpt lat="43.700178535630286" lon="3.177213041307647"><ele>259.5</ele><time>2026-03-25T12:07:30Z</time></trkpt><trkpt lat="43.70028030612734" lon="3.1773525876749704"><ele>259.0</ele><time>2026-03-25T12:07:31Z</time></trkpt><trkpt lat="43.700358753555555" lon="3.177519021590201"><ele>258.5</ele><time>2026-03-25T12:07:32Z</time></trkpt><trkpt lat="43.70043593016006" lon="3.177687216712976"><ele>258.0</ele><time>2026-03-25T12:07:33Z</time></trkpt><trkpt lat="43.70050692805133" lon="3.177861109818701"><ele>258.0</ele><time>2026-03-25T12:07:34Z</time></trkpt><trkpt lat="43.70057097457955" lon="3.1780190709376375"><ele>258.0</ele><time>2026-03-25T12:07:35Z</time></trkpt><trkpt lat="43.70064367982409" lon="3.178155644720351"><ele>258.0</ele><time>2026-03-25T12:07:36Z</time></trkpt><trkpt lat="43.700729352634546" lon="3.178276456115078"><ele>258.0</ele><time>2026-03-25T12:07:37Z</time></trkpt><trkpt lat="43.70082343684016" lon="3.1783913719872605"><ele>258.5</ele><time>2026-03-25T12:07:38Z</time></trkpt><trkpt lat="43.70092967700011" lon="3.178493530944805"><ele>259.0</ele><time>2026-03-25T12:07:39Z</time></trkpt><trkpt lat="43.701050683364976" lon="3.1785663785167135"><ele>259.5</ele><time>2026-03-25T12:07:40Z</time></trkpt><trkpt lat="43.70117995172177" lon="3.178596022230183"><ele>260.0</ele><time>2026-03-25T12:07:41Z</time></trkpt><trkpt lat="43.70130807308482" lon="3.1786256309417533"><ele>260.0</ele><time>2026-03-25T12:07:42Z</time></trkpt><trkpt lat="43.70143602362482" lon="3.1786540973248014"><ele>260.0</ele><time>2026-03-25T12:07:43Z</time></trkpt><trkpt lat="43.701560819678235" lon="3.1787094283492365"><ele>260.0</ele><time>2026-03-25T12:07:44Z</time></trkpt><trkpt lat="43.70166973537668" lon="3.1788076210292853"><ele>260.0</ele><time>2026-03-25T12:07:45Z</time></trkpt><trkpt lat="43.70178798736575" lon="3.1788793147701373"><ele>260.0</ele><time>2026-03-25T12:07:46Z</time></trkpt><trkpt lat="43.701896215571054" lon="3.17897225375633"><ele>260.0</ele><time>2026-03-25T12:07:47Z</time></trkpt><trkpt lat="43.702011485864716" lon="3.1790555880939277"><ele>260.0</ele><time>2026-03-25T12:07:48Z</time></trkpt><trkpt lat="43.702123452584175" lon="3.1791501996418705"><ele>260.0</ele><time>2026-03-25T12:07:49Z</time></trkpt><trkpt lat="43.702214945290756" lon="3.179279735731628"><ele>260.25</ele><time>2026-03-25T12:07:50Z</time></trkpt><trkpt lat="43.7023176388472" lon="3.179390232459622"><ele>260.5</ele><time>2026-03-25T12:07:51Z</time></trkpt><trkpt lat="43.70239910288087" lon="3.179525735974644"><ele>260.75</ele><time>2026-03-25T12:07:52Z</time></trkpt><trkpt lat="43.70246513779111" lon="3.1796757362683663"><ele>261.0</ele><time>2026-03-25T12:07:53Z</time></trkpt><trkpt lat="43.7024919368404" lon="3.179846201661672"><ele>262.25</ele><time>2026-03-25T12:07:54Z</time></trkpt><trkpt lat="43.7025173673256" lon="3.180013721257944"><ele>263.5</ele><time>2026-03-25T12:07:55Z</time></trkpt><trkpt lat="43.70254439126106" lon="3.180192452981033"><ele>264.75</ele><time>2026-03-25T12:07:56Z</time></trkpt><trkpt lat="43.7025615990447" lon="3.1803796830253885"><ele>266.0</ele><time>2026-03-25T12:07:57Z</time></trkpt><trkpt lat="43.702557095472756" lon="3.1805773710758025"><ele>268.0</ele><time>2026-03-25T12:07:58Z</time></trkpt><trkpt lat="43.70256923785455" lon="3.180781594007355"><ele>270.0</ele><time>2026-03-25T12:07:59Z</time></trkpt><trkpt lat="43.702591509103975" lon="3.1809914233068284"><ele>272.0</ele><time>2026-03-25T12:08:00.001Z</time></trkpt><trkpt lat="43.70261551394241" lon="3.18119943495501"><ele>272.0</ele><time>2026-03-25T12:08:01.001Z</time></trkpt><trkpt lat="43.70263881940785" lon="3.1814077371390717"><ele>272.0</ele><time>2026-03-25T12:08:02.001Z</time></trkpt><trkpt lat="43.7026587700604" lon="3.181608595359794"><ele>272.0</ele><time>2026-03-25T12:08:03.001Z</time></trkpt><trkpt lat="43.70267858080539" lon="3.1818042224898373"><ele>272.0</ele><time>2026-03-25T12:08:04.001Z</time></trkpt><trkpt lat="43.702699645452654" lon="3.1819954383522613"><ele>271.75</ele><time>2026-03-25T12:08:05.001Z</time></trkpt><trkpt lat="43.70273209535606" lon="3.1821837730520706"><ele>271.5</ele><time>2026-03-25T12:08:06.001Z</time></trkpt><trkpt lat="43.702790096163106" lon="3.1823617009178644"><ele>271.25</ele><time>2026-03-25T12:08:07.001Z</time></trkpt><trkpt lat="43.702858528892236" lon="3.1825336915430826"><ele>271.0</ele><time>2026-03-25T12:08:08.001Z</time></trkpt><trkpt lat="43.70293464860457" lon="3.182708528150568"><ele>269.3333333333333</ele><time>2026-03-25T12:08:09.001Z</time></trkpt><trkpt lat="43.70301574711238" lon="3.1828885148738912"><ele>267.6666666666667</ele><time>2026-03-25T12:08:10.001Z</time></trkpt><trkpt lat="43.703098130383694" lon="3.1830721793207895"><ele>266.0</ele><time>2026-03-25T12:08:11.001Z</time></trkpt><trkpt lat="43.703182238776904" lon="3.1832624484778766"><ele>266.0</ele><time>2026-03-25T12:08:12.001Z</time></trkpt><trkpt lat="43.703270340567805" lon="3.183449995173218"><ele>266.0</ele><time>2026-03-25T12:08:13.001Z</time></trkpt><trkpt lat="43.703371549837264" lon="3.183622955701862"><ele>266.0</ele><time>2026-03-25T12:08:14.001Z</time></trkpt><trkpt lat="43.703439912520494" lon="3.183817656409621"><ele>266.0</ele><time>2026-03-25T12:08:15.001Z</time></trkpt><trkpt lat="43.70351035982919" lon="3.183995451103327"><ele>266.0</ele><time>2026-03-25T12:08:16.001Z</time></trkpt><trkpt lat="43.70356205482834" lon="3.184183668847618"><ele>266.0</ele><time>2026-03-25T12:08:17.001Z</time></trkpt><trkpt lat="43.70360000232646" lon="3.1843838308039576"><ele>266.0</ele><time>2026-03-25T12:08:18.001Z</time></trkpt><trkpt lat="43.703628673862305" lon="3.1845905623866084"><ele>266.0</ele><time>2026-03-25T12:08:19.001Z</time></trkpt><trkpt lat="43.70365788437322" lon="3.1848041033670036"><ele>266.0</ele><time>2026-03-25T12:08:20.001Z</time></trkpt><trkpt lat="43.703687061421384" lon="3.1850173997348517"><ele>266.0</ele><time>2026-03-25T12:08:21.001Z</time></trkpt><trkpt lat="43.7037161996255" lon="3.185234260436351"><ele>266.0</ele><time>2026-03-25T12:08:22.001Z</time></trkpt><trkpt lat="43.7037465541852" lon="3.1854513252694914"><ele>266.0</ele><time>2026-03-25T12:08:23.001Z</time></trkpt><trkpt lat="43.70377799575046" lon="3.185654231735073"><ele>266.0</ele><time>2026-03-25T12:08:24.001Z</time></trkpt><trkpt lat="43.70381881971721" lon="3.185842170594883"><ele>266.25</ele><time>2026-03-25T12:08:25.001Z</time></trkpt><trkpt lat="43.70387275167928" lon="3.1860132371100844"><ele>266.5</ele><time>2026-03-25T12:08:26.001Z</time></trkpt><trkpt lat="43.703946909450046" lon="3.1861734214676694"><ele>266.75</ele><time>2026-03-25T12:08:27.001Z</time></trkpt><trkpt lat="43.70404472996338" lon="3.186306193930754"><ele>267.0</ele><time>2026-03-25T12:08:28.001Z</time></trkpt><trkpt lat="43.704128567215555" lon="3.1864431308623233"><ele>267.75</ele><time>2026-03-25T12:08:29.001Z</time></trkpt><trkpt lat="43.70421251054747" lon="3.1865782440962374"><ele>268.5</ele><time>2026-03-25T12:08:30.001Z</time></trkpt><trkpt lat="43.704277043104874" lon="3.1867189736085355"><ele>269.25</ele><time>2026-03-25T12:08:31.001Z</time></trkpt><trkpt lat="43.70435250068166" lon="3.1868290519066598"><ele>270.0</ele><time>2026-03-25T12:08:32.001Z</time></trkpt><trkpt lat="43.70436045673076" lon="3.186976493086172"><ele>270.0</ele><time>2026-03-25T12:08:33.001Z</time></trkpt><trkpt lat="43.70435385638021" lon="3.187117350285305"><ele>270.0</ele><time>2026-03-25T12:08:34.001Z</time></trkpt><trkpt lat="43.704332258622145" lon="3.187274028320957"><ele>270.0</ele><time>2026-03-25T12:08:35.001Z</time></trkpt><trkpt lat="43.70431290062951" lon="3.187438765295679"><ele>270.0</ele><time>2026-03-25T12:08:36.001Z</time></trkpt><trkpt lat="43.704299396639975" lon="3.187606420270995"><ele>270.0</ele><time>2026-03-25T12:08:37.001Z</time></trkpt><trkpt lat="43.704299649996244" lon="3.1877729128963717"><ele>270.0</ele><time>2026-03-25T12:08:38.001Z</time></trkpt><trkpt lat="43.70436414791031" lon="3.18794597385927"><ele>270.0</ele><time>2026-03-25T12:08:39.001Z</time></trkpt><trkpt lat="43.70441509931393" lon="3.188112860610141"><ele>270.0</ele><time>2026-03-25T12:08:40.001Z</time></trkpt><trkpt lat="43.70446932776753" lon="3.1882872513610634"><ele>269.75</ele><time>2026-03-25T12:08:41.002Z</time></trkpt><trkpt lat="43.704529872124354" lon="3.1884672426288367"><ele>269.5</ele><time>2026-03-25T12:08:42.002Z</time></trkpt><trkpt lat="43.70460762724341" lon="3.1886399552892377"><ele>269.25</ele><time>2026-03-25T12:08:43.002Z</time></trkpt><trkpt lat="43.70469777118474" lon="3.18880516427495"><ele>269.0</ele><time>2026-03-25T12:08:44.002Z</time></trkpt><trkpt lat="43.704801025429354" lon="3.188962974152732"><ele>269.0</ele><time>2026-03-25T12:08:45.002Z</time></trkpt><trkpt lat="43.70490961431831" lon="3.18911146049859"><ele>269.0</ele><time>2026-03-25T12:08:46.002Z</time></trkpt><trkpt lat="43.70501927152984" lon="3.189260323758402"><ele>269.0</ele><time>2026-03-25T12:08:47.002Z</time></trkpt><trkpt lat="43.705128523190204" lon="3.189408636515535"><ele>269.0</ele><time>2026-03-25T12:08:48.002Z</time></trkpt><trkpt lat="43.70523737641245" lon="3.189556408486263"><ele>269.0</ele><time>2026-03-25T12:08:49.002Z</time></trkpt><trkpt lat="43.705340846031866" lon="3.1897006323919403"><ele>269.0</ele><time>2026-03-25T12:08:50.002Z</time></trkpt><trkpt lat="43.705429447760125" lon="3.189850306402418"><ele>269.0</ele><time>2026-03-25T12:08:51.002Z</time></trkpt><trkpt lat="43.705509443482434" lon="3.1900061029231925"><ele>269.25</ele><time>2026-03-25T12:08:52.002Z</time></trkpt><trkpt lat="43.70558432462585" lon="3.1901599448801092"><ele>269.5</ele><time>2026-03-25T12:08:53.002Z</time></trkpt><trkpt lat="43.70567114235562" lon="3.1903052385018245"><ele>269.75</ele><time>2026-03-25T12:08:54.002Z</time></trkpt><trkpt lat="43.70574456190456" lon="3.1904628431977655"><ele>270.0</ele><time>2026-03-25T12:08:55.002Z</time></trkpt><trkpt lat="43.70582208216183" lon="3.190616409276123"><ele>270.25</ele><time>2026-03-25T12:08:56.002Z</time></trkpt><trkpt lat="43.70588399129302" lon="3.1907853650106786"><ele>270.5</ele><time>2026-03-25T12:08:57.002Z</time></trkpt><trkpt lat="43.7059584696882" lon="3.1909426708235"><ele>270.75</ele><time>2026-03-25T12:08:58.002Z</time></trkpt><trkpt lat="43.70603343311034" lon="3.191098445993755"><ele>271.0</ele><time>2026-03-25T12:08:59.002Z</time></trkpt><trkpt lat="43.70611252381291" lon="3.191249012124696"><ele>271.0</ele><time>2026-03-25T12:09:00.002Z</time></trkpt><trkpt lat="43.70619599064503" lon="3.1913942014944174"><ele>271.0</ele><time>2026-03-25T12:09:01.002Z</time></trkpt><trkpt lat="43.70627989995573" lon="3.191536478497419"><ele>271.0</ele><time>2026-03-25T12:09:02.002Z</time></trkpt><trkpt lat="43.706354843385064" lon="3.191666357220651"><ele>271.0</ele><time>2026-03-25T12:09:03.002Z</time></trkpt><trkpt lat="43.70641943032267" lon="3.1917952110062333"><ele>271.6</ele><time>2026-03-25T12:09:04.002Z</time></trkpt><trkpt lat="43.706479342427514" lon="3.191926619549166"><ele>272.20000000000005</ele><time>2026-03-25T12:09:05.002Z</time></trkpt><trkpt lat="43.70654914393621" lon="3.192047843708921"><ele>272.79999999999995</ele><time>2026-03-25T12:09:06.002Z</time></trkpt><trkpt lat="43.70660174093352" lon="3.1921833258309444"><ele>273.4</ele><time>2026-03-25T12:09:07.002Z</time></trkpt><trkpt lat="43.70663578270619" lon="3.192329672843729"><ele>274.0</ele><time>2026-03-25T12:09:08.002Z</time></trkpt><trkpt lat="43.70668175733847" lon="3.1924670223273095"><ele>274.4</ele><time>2026-03-25T12:09:09.002Z</time></trkpt><trkpt lat="43.70672692009278" lon="3.1926044389410713"><ele>274.79999999999995</ele><time>2026-03-25T12:09:10.002Z</time></trkpt><trkpt lat="43.70676800467018" lon="3.192740923960498"><ele>275.20000000000005</ele><time>2026-03-25T12:09:11.002Z</time></trkpt><trkpt lat="43.70681013014776" lon="3.1928786230719677"><ele>275.6</ele><time>2026-03-25T12:09:12.002Z</time></trkpt><trkpt lat="43.70686732515412" lon="3.19301056025551"><ele>276.0</ele><time>2026-03-25T12:09:13.002Z</time></trkpt><trkpt lat="43.70690464392223" lon="3.1931367013915324"><ele>277.0</ele><time>2026-03-25T12:09:14.002Z</time></trkpt><trkpt lat="43.70693210962552" lon="3.1932339334137043"><ele>278.0</ele><time>2026-03-25T12:09:15.002Z</time></trkpt><trkpt lat="43.70696772219499" lon="3.193356795117806"><ele>279.0</ele><time>2026-03-25T12:09:17.002Z</time></trkpt><trkpt lat="43.707046083368176" lon="3.1934179162675203"><ele>280.0</ele><time>2026-03-25T12:09:20.002Z</time></trkpt><trkpt lat="43.70711857381356" lon="3.1933931664891415"><ele>281.0</ele><time>2026-03-25T12:09:21.002Z</time></trkpt><trkpt lat="43.7071829976462" lon="3.1933470283748937"><ele>282.0</ele><time>2026-03-25T12:09:22.003Z</time></trkpt><trkpt lat="43.70728235502992" lon="3.193317894681609"><ele>282.0</ele><time>2026-03-25T12:09:24.003Z</time></trkpt><trkpt lat="43.70736443224613" lon="3.1933541197975095"><ele>282.0</ele><time>2026-03-25T12:09:34Z</time></trkpt><trkpt lat="43.70740040211893" lon="3.19347434252776"><ele>282.0</ele><time>2026-03-25T12:09:36Z</time></trkpt><trkpt lat="43.70743077284396" lon="3.1935653406271696"><ele>282.0</ele><time>2026-03-25T12:09:37Z</time></trkpt><trkpt lat="43.707492029934194" lon="3.1936466613032732"><ele>282.0</ele><time>2026-03-25T12:09:38Z</time></trkpt><trkpt lat="43.707532398281835" lon="3.1937574782645184"><ele>282.0</ele><time>2026-03-25T12:09:39Z</time></trkpt><trkpt lat="43.7075719180271" lon="3.193872880125753"><ele>282.0</ele><time>2026-03-25T12:09:40Z</time></trkpt><trkpt lat="43.70762189106874" lon="3.1939814974760563"><ele>282.0</ele><time>2026-03-25T12:09:41Z</time></trkpt><trkpt lat="43.70767786683769" lon="3.1940946479814865"><ele>282.0</ele><time>2026-03-25T12:09:42Z</time></trkpt><trkpt lat="43.70771887007368" lon="3.1942239316165955"><ele>282.0</ele><time>2026-03-25T12:09:43Z</time></trkpt><trkpt lat="43.70777306322124" lon="3.194343165901259"><ele>282.0</ele><time>2026-03-25T12:09:44Z</time></trkpt><trkpt lat="43.70785468847337" lon="3.194421338950171"><ele>284.1666666666667</ele><time>2026-03-25T12:09:45Z</time></trkpt><trkpt lat="43.70791726844702" lon="3.194488984444358"><ele>286.3333333333333</ele><time>2026-03-25T12:09:46Z</time></trkpt><trkpt lat="43.707975805733476" lon="3.194542380899189"><ele>288.5</ele><time>2026-03-25T12:09:47Z</time></trkpt><trkpt lat="43.7080940971475" lon="3.194600166842009"><ele>290.66666666666663</ele><time>2026-03-25T12:09:49Z</time></trkpt><trkpt lat="43.70816359384705" lon="3.194630810239743"><ele>292.8333333333333</ele><time>2026-03-25T12:09:50Z</time></trkpt><trkpt lat="43.70823478385639" lon="3.194671498652343"><ele>295.0</ele><time>2026-03-25T12:09:51Z</time></trkpt><trkpt lat="43.70831218599555" lon="3.194705323945617"><ele>295.0</ele><time>2026-03-25T12:09:52Z</time></trkpt><trkpt lat="43.70839798045691" lon="3.1947262347246648"><ele>295.0</ele><time>2026-03-25T12:09:53Z</time></trkpt><trkpt lat="43.70847823210899" lon="3.194753898802021"><ele>295.0</ele><time>2026-03-25T12:09:54Z</time></trkpt><trkpt lat="43.70855838474045" lon="3.1947802191323853"><ele>295.0</ele><time>2026-03-25T12:09:55Z</time></trkpt><trkpt lat="43.70862364593652" lon="3.194829891458377"><ele>295.0</ele><time>2026-03-25T12:09:56Z</time></trkpt><trkpt lat="43.70868552162907" lon="3.194886910286421"><ele>295.0</ele><time>2026-03-25T12:09:57Z</time></trkpt><trkpt lat="43.70872853585147" lon="3.1949600729930805"><ele>293.0</ele><time>2026-03-25T12:09:58.001Z</time></trkpt><trkpt lat="43.70878144128708" lon="3.1950340167897733"><ele>291.0</ele><time>2026-03-25T12:09:59.001Z</time></trkpt><trkpt lat="43.70879413382138" lon="3.1951493638294113"><ele>289.0</ele><time>2026-03-25T12:10:00.001Z</time></trkpt><trkpt lat="43.708805831921985" lon="3.1952677650278476"><ele>287.0</ele><time>2026-03-25T12:10:01.001Z</time></trkpt><trkpt lat="43.70881775101968" lon="3.195390112105004"><ele>285.0</ele><time>2026-03-25T12:10:02.001Z</time></trkpt><trkpt lat="43.70882736245144" lon="3.195513828788124"><ele>283.0</ele><time>2026-03-25T12:10:03.001Z</time></trkpt><trkpt lat="43.70883516408718" lon="3.195644931888045"><ele>282.66666666666663</ele><time>2026-03-25T12:10:04.001Z</time></trkpt><trkpt lat="43.70881894719268" lon="3.1957674144254096"><ele>282.3333333333333</ele><time>2026-03-25T12:10:05.001Z</time></trkpt><trkpt lat="43.708842021487854" lon="3.195871074278048"><ele>282.0</ele><time>2026-03-25T12:10:06.001Z</time></trkpt><trkpt lat="43.708855519067995" lon="3.196016278445573"><ele>281.6666666666667</ele><time>2026-03-25T12:10:08.001Z</time></trkpt><trkpt lat="43.70888474037895" lon="3.196119993414094"><ele>281.33333333333337</ele><time>2026-03-25T12:10:10.001Z</time></trkpt><trkpt lat="43.70897667831525" lon="3.1960981840119773"><ele>281.0</ele><time>2026-03-25T12:10:11.001Z</time></trkpt><trkpt lat="43.70905113523308" lon="3.19608156438558"><ele>281.0</ele><time>2026-03-25T12:10:12.001Z</time></trkpt><trkpt lat="43.70913458519603" lon="3.1960891240889944"><ele>281.0</ele><time>2026-03-25T12:10:13.001Z</time></trkpt><trkpt lat="43.70921862035133" lon="3.1960720116882024"><ele>281.0</ele><time>2026-03-25T12:10:14.001Z</time></trkpt><trkpt lat="43.70930321507021" lon="3.196046748360943"><ele>281.0</ele><time>2026-03-25T12:10:15.001Z</time></trkpt><trkpt lat="43.70939335408851" lon="3.1960183425998303"><ele>281.0</ele><time>2026-03-25T12:10:16.001Z</time></trkpt><trkpt lat="43.709483853559135" lon="3.1959994254150965"><ele>281.0</ele><time>2026-03-25T12:10:17.001Z</time></trkpt><trkpt lat="43.70958770810521" lon="3.19597661692136"><ele>282.2</ele><time>2026-03-25T12:10:18.001Z</time></trkpt><trkpt lat="43.70969190046425" lon="3.1959581652424225"><ele>283.40000000000003</ele><time>2026-03-25T12:10:19.001Z</time></trkpt><trkpt lat="43.70979469898646" lon="3.1959433725075694"><ele>284.6</ele><time>2026-03-25T12:10:20.001Z</time></trkpt><trkpt lat="43.70990238954149" lon="3.1959288127726073"><ele>285.8</ele><time>2026-03-25T12:10:21.001Z</time></trkpt><trkpt lat="43.710013832182305" lon="3.195911235960488"><ele>287.0</ele><time>2026-03-25T12:10:22.001Z</time></trkpt><trkpt lat="43.71012839796258" lon="3.1958978173742394"><ele>287.0</ele><time>2026-03-25T12:10:23.001Z</time></trkpt><trkpt lat="43.71024690384704" lon="3.1958944277629446"><ele>287.0</ele><time>2026-03-25T12:10:24.001Z</time></trkpt><trkpt lat="43.7103624219439" lon="3.195897311740574"><ele>287.0</ele><time>2026-03-25T12:10:25.001Z</time></trkpt><trkpt lat="43.71048007663445" lon="3.1959082887171046"><ele>287.0</ele><time>2026-03-25T12:10:26.001Z</time></trkpt><trkpt lat="43.710597828678054" lon="3.1959177091276065"><ele>287.0</ele><time>2026-03-25T12:10:27.001Z</time></trkpt><trkpt lat="43.710713341575016" lon="3.1959284146616467"><ele>287.0</ele><time>2026-03-25T12:10:28.001Z</time></trkpt><trkpt lat="43.71082781014838" lon="3.195948238494514"><ele>287.0</ele><time>2026-03-25T12:10:29.001Z</time></trkpt><trkpt lat="43.71093985303526" lon="3.195977860670359"><ele>287.0</ele><time>2026-03-25T12:10:30.001Z</time></trkpt><trkpt lat="43.7110501664492" lon="3.196021638038638"><ele>286.75</ele><time>2026-03-25T12:10:31.001Z</time></trkpt><trkpt lat="43.71116336148" lon="3.1960659303949783"><ele>286.5</ele><time>2026-03-25T12:10:32.001Z</time></trkpt><trkpt lat="43.711273495211074" lon="3.1961132657817117"><ele>286.25</ele><time>2026-03-25T12:10:33.001Z</time></trkpt><trkpt lat="43.71138095010325" lon="3.196177715471012"><ele>286.0</ele><time>2026-03-25T12:10:34.001Z</time></trkpt><trkpt lat="43.711476295562015" lon="3.196254687320819"><ele>286.0</ele><time>2026-03-25T12:10:35.001Z</time></trkpt><trkpt lat="43.711558724291386" lon="3.1963556134190143"><ele>286.0</ele><time>2026-03-25T12:10:36.001Z</time></trkpt><trkpt lat="43.71163498486667" lon="3.196470807948129"><ele>286.0</ele><time>2026-03-25T12:10:37.001Z</time></trkpt><trkpt lat="43.71170598215256" lon="3.1965978568724225"><ele>286.0</ele><time>2026-03-25T12:10:38.001Z</time></trkpt><trkpt lat="43.71176828006099" lon="3.196741436694469"><ele>287.0</ele><time>2026-03-25T12:10:39.001Z</time></trkpt><trkpt lat="43.71181695544398" lon="3.1969021836152476"><ele>288.0</ele><time>2026-03-25T12:10:40.001Z</time></trkpt><trkpt lat="43.71185684721672" lon="3.1970796442805542"><ele>289.0</ele><time>2026-03-25T12:10:41.001Z</time></trkpt><trkpt lat="43.711889437793936" lon="3.1972747418147103"><ele>290.0</ele><time>2026-03-25T12:10:42.002Z</time></trkpt><trkpt lat="43.71191704536728" lon="3.1974897535223032"><ele>290.0</ele><time>2026-03-25T12:10:43.002Z</time></trkpt><trkpt lat="43.711938421981955" lon="3.197714650449654"><ele>290.0</ele><time>2026-03-25T12:10:44.002Z</time></trkpt><trkpt lat="43.711955009408555" lon="3.197937053642789"><ele>290.0</ele><time>2026-03-25T12:10:45.002Z</time></trkpt><trkpt lat="43.71197033015883" lon="3.198160070279038"><ele>290.6666666666667</ele><time>2026-03-25T12:10:46.002Z</time></trkpt><trkpt lat="43.71197725545632" lon="3.19838543123447"><ele>291.3333333333333</ele><time>2026-03-25T12:10:47.002Z</time></trkpt><trkpt lat="43.71197794795942" lon="3.198608739612773"><ele>292.0</ele><time>2026-03-25T12:10:48.002Z</time></trkpt><trkpt lat="43.711973311875575" lon="3.198831584997078"><ele>292.0</ele><time>2026-03-25T12:10:49.002Z</time></trkpt><trkpt lat="43.71195810065967" lon="3.1990569240918045"><ele>292.0</ele><time>2026-03-25T12:10:50.002Z</time></trkpt><trkpt lat="43.71193246035731" lon="3.199289578176165"><ele>292.0</ele><time>2026-03-25T12:10:51.002Z</time></trkpt><trkpt lat="43.71190234382258" lon="3.199533306819957"><ele>301.0</ele><time>2026-03-25T12:10:52.002Z</time></trkpt><trkpt lat="43.71186780651558" lon="3.1997874927040924"><ele>310.0</ele><time>2026-03-25T12:10:53.002Z</time></trkpt><trkpt lat="43.711829223516965" lon="3.2000498883996156"><ele>319.0</ele><time>2026-03-25T12:10:54.002Z</time></trkpt><trkpt lat="43.71178937097288" lon="3.200317444501908"><ele>319.0</ele><time>2026-03-25T12:10:55.002Z</time></trkpt><trkpt lat="43.711751763538736" lon="3.2005804272772207"><ele>319.0</ele><time>2026-03-25T12:10:56.002Z</time></trkpt><trkpt lat="43.71171568059373" lon="3.2008380406550083"><ele>319.0</ele><time>2026-03-25T12:10:57.002Z</time></trkpt><trkpt lat="43.71167691447634" lon="3.20109321585981"><ele>318.0</ele><time>2026-03-25T12:10:58.002Z</time></trkpt><trkpt lat="43.71163435470755" lon="3.2013436571087848"><ele>317.0</ele><time>2026-03-25T12:10:59.002Z</time></trkpt><trkpt lat="43.71158677337805" lon="3.2015912719590713"><ele>316.0</ele><time>2026-03-25T12:11:00.002Z</time></trkpt><trkpt lat="43.71153682795902" lon="3.201833069005059"><ele>314.0</ele><time>2026-03-25T12:11:01.002Z</time></trkpt><trkpt lat="43.71148598450656" lon="3.2020695665314585"><ele>312.0</ele><time>2026-03-25T12:11:02.002Z</time></trkpt><trkpt lat="43.71142546243361" lon="3.2022942611561476"><ele>310.0</ele><time>2026-03-25T12:11:03.002Z</time></trkpt><trkpt lat="43.711388159342" lon="3.2025397720911863"><ele>309.3333333333333</ele><time>2026-03-25T12:11:04.002Z</time></trkpt><trkpt lat="43.71137786662496" lon="3.2027871250106967"><ele>308.6666666666667</ele><time>2026-03-25T12:11:05.002Z</time></trkpt><trkpt lat="43.7113656019783" lon="3.2030307962534947"><ele>308.0</ele><time>2026-03-25T12:11:06.002Z</time></trkpt><trkpt lat="43.711366745568306" lon="3.203273011950281"><ele>308.0</ele><time>2026-03-25T12:11:07.002Z</time></trkpt><trkpt lat="43.711354788835024" lon="3.203519657389398"><ele>308.0</ele><time>2026-03-25T12:11:08.002Z</time></trkpt><trkpt lat="43.71137323467863" lon="3.2037711797721165"><ele>308.0</ele><time>2026-03-25T12:11:09.002Z</time></trkpt><trkpt lat="43.711374580560914" lon="3.204028612069466"><ele>308.6666666666667</ele><time>2026-03-25T12:11:10.002Z</time></trkpt><trkpt lat="43.71138021217618" lon="3.2042877534309406"><ele>309.3333333333333</ele><time>2026-03-25T12:11:11.002Z</time></trkpt><trkpt lat="43.711383294927714" lon="3.20455236477504"><ele>310.0</ele><time>2026-03-25T12:11:12.002Z</time></trkpt><trkpt lat="43.711384730318024" lon="3.2048187831312793"><ele>310.3333333333333</ele><time>2026-03-25T12:11:13.002Z</time></trkpt><trkpt lat="43.71138311464322" lon="3.2050849339609306"><ele>310.6666666666667</ele><time>2026-03-25T12:11:14.002Z</time></trkpt><trkpt lat="43.71135878702158" lon="3.2053475067345985"><ele>311.0</ele><time>2026-03-25T12:11:15.002Z</time></trkpt><trkpt lat="43.71134209246279" lon="3.2056086171670892"><ele>310.0</ele><time>2026-03-25T12:11:16.002Z</time></trkpt><trkpt lat="43.71132584172381" lon="3.205861733023311"><ele>309.0</ele><time>2026-03-25T12:11:17.002Z</time></trkpt><trkpt lat="43.711326057585964" lon="3.206106632062257"><ele>308.0</ele><time>2026-03-25T12:11:18.002Z</time></trkpt><trkpt lat="43.71133718002702" lon="3.206350805875528"><ele>309.33333333333337</ele><time>2026-03-25T12:11:19.002Z</time></trkpt><trkpt lat="43.711362077286196" lon="3.2065894895407983"><ele>310.6666666666667</ele><time>2026-03-25T12:11:20.002Z</time></trkpt><trkpt lat="43.711416216577454" lon="3.206814815007347"><ele>312.0</ele><time>2026-03-25T12:11:21.002Z</time></trkpt><trkpt lat="43.71146344133816" lon="3.2070371975015717"><ele>312.0</ele><time>2026-03-25T12:11:22.002Z</time></trkpt><trkpt lat="43.71152067685112" lon="3.2072584792074275"><ele>312.0</ele><time>2026-03-25T12:11:23.002Z</time></trkpt><trkpt lat="43.7115891041389" lon="3.207480268752439"><ele>312.0</ele><time>2026-03-25T12:11:24.003Z</time></trkpt><trkpt lat="43.711665121344" lon="3.2076999997739835"><ele>315.6666666666667</ele><time>2026-03-25T12:11:25.003Z</time></trkpt><trkpt lat="43.71172862029015" lon="3.2079301363829145"><ele>319.33333333333337</ele><time>2026-03-25T12:11:26.003Z</time></trkpt><trkpt lat="43.71180901421586" lon="3.2081463073840073"><ele>323.0</ele><time>2026-03-25T12:11:27.003Z</time></trkpt><trkpt lat="43.711890712380935" lon="3.2083525373405317"><ele>320.0</ele><time>2026-03-25T12:11:28.003Z</time></trkpt><trkpt lat="43.71197783665905" lon="3.2085496524617096"><ele>317.0</ele><time>2026-03-25T12:11:29.003Z</time></trkpt><trkpt lat="43.712080255325894" lon="3.2087282009392237"><ele>314.0</ele><time>2026-03-25T12:11:30.003Z</time></trkpt><trkpt lat="43.71216468630473" lon="3.208922743644323"><ele>318.0</ele><time>2026-03-25T12:11:31.003Z</time></trkpt><trkpt lat="43.71224848072672" lon="3.2091162709601466"><ele>322.0</ele><time>2026-03-25T12:11:32.003Z</time></trkpt><trkpt lat="43.7123257509076" lon="3.2093168067556115"><ele>326.0</ele><time>2026-03-25T12:11:33.003Z</time></trkpt><trkpt lat="43.712378748780495" lon="3.2095207530570824"><ele>326.0</ele><time>2026-03-25T12:11:34.003Z</time></trkpt><trkpt lat="43.71244670684967" lon="3.209707973508505"><ele>326.0</ele><time>2026-03-25T12:11:35.003Z</time></trkpt><trkpt lat="43.712532610455106" lon="3.2098848668180135"><ele>326.0</ele><time>2026-03-25T12:11:36.003Z</time></trkpt><trkpt lat="43.71260436575972" lon="3.2100770395625444"><ele>325.6666666666667</ele><time>2026-03-25T12:11:37Z</time></trkpt><trkpt lat="43.71266952668108" lon="3.2102840092579292"><ele>325.3333333333333</ele><time>2026-03-25T12:11:38Z</time></trkpt><trkpt lat="43.71272327194928" lon="3.2105003352696957"><ele>325.0</ele><time>2026-03-25T12:11:39Z</time></trkpt><trkpt lat="43.71275854642622" lon="3.210730847681996"><ele>325.0</ele><time>2026-03-25T12:11:40Z</time></trkpt><trkpt lat="43.712808568529525" lon="3.210960888224826"><ele>325.0</ele><time>2026-03-25T12:11:41Z</time></trkpt><trkpt lat="43.712867254036055" lon="3.2111955227444713"><ele>325.0</ele><time>2026-03-25T12:11:42Z</time></trkpt><trkpt lat="43.71294166115357" lon="3.211426879051078"><ele>327.0</ele><time>2026-03-25T12:11:43Z</time></trkpt><trkpt lat="43.71302331446345" lon="3.2116553958270897"><ele>329.0</ele><time>2026-03-25T12:11:44Z</time></trkpt><trkpt lat="43.7131086268605" lon="3.2118812303014557"><ele>331.0</ele><time>2026-03-25T12:11:45Z</time></trkpt><trkpt lat="43.71319473812172" lon="3.2121040507375005"><ele>337.66666666666663</ele><time>2026-03-25T12:11:46Z</time></trkpt><trkpt lat="43.71327573996477" lon="3.21233245261447"><ele>344.3333333333333</ele><time>2026-03-25T12:11:47Z</time></trkpt><trkpt lat="43.71334984025514" lon="3.212568695754494"><ele>351.0</ele><time>2026-03-25T12:11:48Z</time></trkpt><trkpt lat="43.713411472637475" lon="3.212818292148147"><ele>351.0</ele><time>2026-03-25T12:11:49Z</time></trkpt><trkpt lat="43.713466952069474" lon="3.213076036235146"><ele>351.0</ele><time>2026-03-25T12:11:50Z</time></trkpt><trkpt lat="43.713515037758874" lon="3.2133355941810713"><ele>351.0</ele><time>2026-03-25T12:11:51Z</time></trkpt><trkpt lat="43.713573454003814" lon="3.2135864413263957"><ele>344.6666666666667</ele><time>2026-03-25T12:11:52Z</time></trkpt><trkpt lat="43.7136321079673" lon="3.2138324886873737"><ele>338.33333333333337</ele><time>2026-03-25T12:11:53Z</time></trkpt><trkpt lat="43.713699587996686" lon="3.2140752811171542"><ele>332.0</ele><time>2026-03-25T12:11:54Z</time></trkpt><trkpt lat="43.713742109584594" lon="3.214332219847458"><ele>332.0</ele><time>2026-03-25T12:11:55Z</time></trkpt><trkpt lat="43.71376800137666" lon="3.2145945203104014"><ele>332.0</ele><time>2026-03-25T12:11:56Z</time></trkpt><trkpt lat="43.71380639749723" lon="3.2148601407010213"><ele>332.0</ele><time>2026-03-25T12:11:57Z</time></trkpt><trkpt lat="43.71384448079583" lon="3.2151235970093284"><ele>337.33333333333337</ele><time>2026-03-25T12:11:58Z</time></trkpt><trkpt lat="43.71389807028256" lon="3.2153833738968562"><ele>342.6666666666667</ele><time>2026-03-25T12:11:59Z</time></trkpt><trkpt lat="43.713932667221734" lon="3.2156426026296465"><ele>348.0</ele><time>2026-03-25T12:12:00.001Z</time></trkpt><trkpt lat="43.713958595129085" lon="3.2159026599233544"><ele>351.0</ele><time>2026-03-25T12:12:01.001Z</time></trkpt><trkpt lat="43.713980391637904" lon="3.2161543110795363"><ele>354.0</ele><time>2026-03-25T12:12:02.001Z</time></trkpt><trkpt lat="43.71399520675222" lon="3.2164065713218224"><ele>357.0</ele><time>2026-03-25T12:12:03.001Z</time></trkpt><trkpt lat="43.71400409886767" lon="3.2166582883268586"><ele>359.3333333333333</ele><time>2026-03-25T12:12:04.001Z</time></trkpt><trkpt lat="43.713991003036604" lon="3.2169099523192446"><ele>361.66666666666663</ele><time>2026-03-25T12:12:05.001Z</time></trkpt><trkpt lat="43.713981803162916" lon="3.217167726770564"><ele>364.0</ele><time>2026-03-25T12:12:06.001Z</time></trkpt><trkpt lat="43.713971816082804" lon="3.217429944055722"><ele>365.0</ele><time>2026-03-25T12:12:07.001Z</time></trkpt><trkpt lat="43.71396162878485" lon="3.217697417570703"><ele>366.0</ele><time>2026-03-25T12:12:08.001Z</time></trkpt><trkpt lat="43.71395148263403" lon="3.217963811068738"><ele>367.0</ele><time>2026-03-25T12:12:09.001Z</time></trkpt><trkpt lat="43.71394220066953" lon="3.2182385521740824"><ele>369.0</ele><time>2026-03-25T12:12:10.001Z</time></trkpt><trkpt lat="43.713940280071064" lon="3.2185168655330663"><ele>371.0</ele><time>2026-03-25T12:12:11.001Z</time></trkpt><trkpt lat="43.71395506627978" lon="3.2188122454941106"><ele>373.0</ele><time>2026-03-25T12:12:12.001Z</time></trkpt><trkpt lat="43.713974392271005" lon="3.219088863931961"><ele>373.3333333333333</ele><time>2026-03-25T12:12:13.001Z</time></trkpt><trkpt lat="43.71399064352205" lon="3.2193681202070823"><ele>373.6666666666667</ele><time>2026-03-25T12:12:14.001Z</time></trkpt><trkpt lat="43.71400383974892" lon="3.2196464890147594"><ele>374.0</ele><time>2026-03-25T12:12:15.001Z</time></trkpt><trkpt lat="43.71401463696618" lon="3.219921870922546"><ele>376.0</ele><time>2026-03-25T12:12:16.001Z</time></trkpt><trkpt lat="43.714020250341136" lon="3.2201969627505487"><ele>378.0</ele><time>2026-03-25T12:12:17.001Z</time></trkpt><trkpt lat="43.71401912362861" lon="3.220469305061141"><ele>380.0</ele><time>2026-03-25T12:12:18.001Z</time></trkpt><trkpt lat="43.71401339371522" lon="3.220736946056812"><ele>381.0</ele><time>2026-03-25T12:12:19.001Z</time></trkpt><trkpt lat="43.714002387618535" lon="3.221001342835545"><ele>382.0</ele><time>2026-03-25T12:12:20.001Z</time></trkpt><trkpt lat="43.71398210522148" lon="3.22125586272033"><ele>383.0</ele><time>2026-03-25T12:12:21.001Z</time></trkpt><trkpt lat="43.71395193211298" lon="3.221511469137852"><ele>383.0</ele><time>2026-03-25T12:12:22.001Z</time></trkpt><trkpt lat="43.71391153292834" lon="3.2217618608730563"><ele>383.0</ele><time>2026-03-25T12:12:23.001Z</time></trkpt><trkpt lat="43.71385833034525" lon="3.2220126498467763"><ele>383.0</ele><time>2026-03-25T12:12:24.001Z</time></trkpt><trkpt lat="43.71380026642575" lon="3.2222661306905493"><ele>381.0</ele><time>2026-03-25T12:12:25.001Z</time></trkpt><trkpt lat="43.71375256886417" lon="3.222528751767664"><ele>379.0</ele><time>2026-03-25T12:12:26.001Z</time></trkpt><trkpt lat="43.71371399258161" lon="3.222797515447747"><ele>377.0</ele><time>2026-03-25T12:12:27.001Z</time></trkpt><trkpt lat="43.713678314906566" lon="3.2230669114628436"><ele>375.6666666666667</ele><time>2026-03-25T12:12:28.001Z</time></trkpt><trkpt lat="43.713644709775345" lon="3.223340434134671"><ele>374.3333333333333</ele><time>2026-03-25T12:12:29.001Z</time></trkpt><trkpt lat="43.71361503317366" lon="3.2236131681337596"><ele>373.0</ele><time>2026-03-25T12:12:30.001Z</time></trkpt><trkpt lat="43.71359532805534" lon="3.223882190602621"><ele>372.66666666666663</ele><time>2026-03-25T12:12:31.001Z</time></trkpt><trkpt lat="43.71358131804438" lon="3.2241401182462024"><ele>372.3333333333333</ele><time>2026-03-25T12:12:32.001Z</time></trkpt><trkpt lat="43.713572187690396" lon="3.2243902306873227"><ele>372.0</ele><time>2026-03-25T12:12:33.001Z</time></trkpt><trkpt lat="43.71357533251211" lon="3.2246345336749234"><ele>373.0</ele><time>2026-03-25T12:12:34.001Z</time></trkpt><trkpt lat="43.7135914085581" lon="3.2248711398324077"><ele>374.0</ele><time>2026-03-25T12:12:35.001Z</time></trkpt><trkpt lat="43.71362388193158" lon="3.2251038372066314"><ele>375.0</ele><time>2026-03-25T12:12:36.001Z</time></trkpt><trkpt lat="43.71366914181543" lon="3.2253379570512735"><ele>375.0</ele><time>2026-03-25T12:12:37.001Z</time></trkpt><trkpt lat="43.713727760865304" lon="3.225572180822723"><ele>375.0</ele><time>2026-03-25T12:12:38.001Z</time></trkpt><trkpt lat="43.7137966050397" lon="3.225809657207259"><ele>375.0</ele><time>2026-03-25T12:12:39.001Z</time></trkpt><trkpt lat="43.71387311096276" lon="3.226048635173155"><ele>380.33333333333337</ele><time>2026-03-25T12:12:40.001Z</time></trkpt><trkpt lat="43.71395619702225" lon="3.2262893218675406"><ele>385.6666666666667</ele><time>2026-03-25T12:12:41.001Z</time></trkpt><trkpt lat="43.7140444344243" lon="3.226535106218597"><ele>391.0</ele><time>2026-03-25T12:12:42.001Z</time></trkpt><trkpt lat="43.714134535075594" lon="3.2267850714236155"><ele>390.6666666666667</ele><time>2026-03-25T12:12:43.001Z</time></trkpt><trkpt lat="43.71422591460758" lon="3.227038584971966"><ele>390.33333333333337</ele><time>2026-03-25T12:12:44.001Z</time></trkpt><trkpt lat="43.71431904569035" lon="3.2272969575638775"><ele>390.0</ele><time>2026-03-25T12:12:45.001Z</time></trkpt><trkpt lat="43.71441168818563" lon="3.227553974760874"><ele>390.0</ele><time>2026-03-25T12:12:46.001Z</time></trkpt><trkpt lat="43.71450448678286" lon="3.2278114249881953"><ele>390.0</ele><time>2026-03-25T12:12:47.001Z</time></trkpt><trkpt lat="43.71458941554056" lon="3.228060954384336"><ele>390.0</ele><time>2026-03-25T12:12:48.002Z</time></trkpt><trkpt lat="43.71466553484641" lon="3.228307465005665"><ele>395.33333333333337</ele><time>2026-03-25T12:12:49.002Z</time></trkpt><trkpt lat="43.71473797653593" lon="3.2285611978065574"><ele>400.6666666666667</ele><time>2026-03-25T12:12:50.002Z</time></trkpt><trkpt lat="43.714821643504685" lon="3.228809073023973"><ele>406.0</ele><time>2026-03-25T12:12:51.002Z</time></trkpt><trkpt lat="43.71487016833621" lon="3.229075749865107"><ele>413.33333333333337</ele><time>2026-03-25T12:12:52.002Z</time></trkpt><trkpt lat="43.714929390166965" lon="3.2293425237484743"><ele>420.66666666666663</ele><time>2026-03-25T12:12:53.002Z</time></trkpt><trkpt lat="43.7149880747943" lon="3.2296085387851496"><ele>428.0</ele><time>2026-03-25T12:12:54.002Z</time></trkpt><trkpt lat="43.71504915606428" lon="3.2298727172537802"><ele>433.66666666666663</ele><time>2026-03-25T12:12:55.002Z</time></trkpt><trkpt lat="43.71511290519252" lon="3.2301334761970084"><ele>439.33333333333337</ele><time>2026-03-25T12:12:56.002Z</time></trkpt><trkpt lat="43.715192670084434" lon="3.230381259914326"><ele>445.0</ele><time>2026-03-25T12:12:57.002Z</time></trkpt><trkpt lat="43.715241539631954" lon="3.230625689440241"><ele>433.33333333333337</ele><time>2026-03-25T12:12:58.002Z</time></trkpt><trkpt lat="43.71530134169074" lon="3.2308418127880785"><ele>421.66666666666663</ele><time>2026-03-25T12:12:59.002Z</time></trkpt><trkpt lat="43.71536287971424" lon="3.2310372191229573"><ele>410.0</ele><time>2026-03-25T12:13:00.002Z</time></trkpt><trkpt lat="43.71544705929267" lon="3.2312076033961104"><ele>410.0</ele><time>2026-03-25T12:13:01.002Z</time></trkpt><trkpt lat="43.71552650596425" lon="3.2313824521714256"><ele>410.0</ele><time>2026-03-25T12:13:02.002Z</time></trkpt><trkpt lat="43.71560415922482" lon="3.231551565101539"><ele>410.0</ele><time>2026-03-25T12:13:03.002Z</time></trkpt><trkpt lat="43.71565635750676" lon="3.231722256162376"><ele>410.0</ele><time>2026-03-25T12:13:04.002Z</time></trkpt><trkpt lat="43.71570141423293" lon="3.2318865791607294"><ele>414.25</ele><time>2026-03-25T12:13:05.002Z</time></trkpt><trkpt lat="43.71572050792876" lon="3.2320643569356613"><ele>418.5</ele><time>2026-03-25T12:13:06.002Z</time></trkpt><trkpt lat="43.715723993865794" lon="3.232254815171473"><ele>422.75</ele><time>2026-03-25T12:13:07.002Z</time></trkpt><trkpt lat="43.71571979648435" lon="3.232447423889861"><ele>427.0</ele><time>2026-03-25T12:13:08.002Z</time></trkpt><trkpt lat="43.715722746647636" lon="3.2326402868751094"><ele>429.5</ele><time>2026-03-25T12:13:09.002Z</time></trkpt><trkpt lat="43.71574263750608" lon="3.2328347853438464"><ele>432.0</ele><time>2026-03-25T12:13:10.002Z</time></trkpt><trkpt lat="43.715788180921145" lon="3.233022982406576"><ele>434.5</ele><time>2026-03-25T12:13:11.002Z</time></trkpt><trkpt lat="43.71587387205283" lon="3.233186475342915"><ele>437.0</ele><time>2026-03-25T12:13:12.002Z</time></trkpt><trkpt lat="43.71594870744566" lon="3.233362114857666"><ele>441.66666666666663</ele><time>2026-03-25T12:13:13.002Z</time></trkpt><trkpt lat="43.716029527707796" lon="3.2335383730947536"><ele>446.33333333333337</ele><time>2026-03-25T12:13:14.002Z</time></trkpt><trkpt lat="43.7160967254689" lon="3.233731859272133"><ele>451.0</ele><time>2026-03-25T12:13:15.002Z</time></trkpt><trkpt lat="43.71619113872548" lon="3.233912956943275"><ele>444.33333333333337</ele><time>2026-03-25T12:13:16.002Z</time></trkpt><trkpt lat="43.716266869495186" lon="3.234118023858478"><ele>437.66666666666663</ele><time>2026-03-25T12:13:17.002Z</time></trkpt><trkpt lat="43.71632049720329" lon="3.2343459142130357"><ele>431.0</ele><time>2026-03-25T12:13:18.002Z</time></trkpt><trkpt lat="43.71638467117224" lon="3.2345666003912736"><ele>431.0</ele><time>2026-03-25T12:13:19.002Z</time></trkpt><trkpt lat="43.71646160146889" lon="3.2347860788717027"><ele>431.0</ele><time>2026-03-25T12:13:20.002Z</time></trkpt><trkpt lat="43.716548672514314" lon="3.2349971145265632"><ele>431.0</ele><time>2026-03-25T12:13:21.002Z</time></trkpt><trkpt lat="43.71665078591744" lon="3.235199854996918"><ele>438.0</ele><time>2026-03-25T12:13:22.002Z</time></trkpt><trkpt lat="43.716725464642856" lon="3.235425804724079"><ele>445.0</ele><time>2026-03-25T12:13:23.002Z</time></trkpt><trkpt lat="43.71680693738829" lon="3.2356488009670668"><ele>452.0</ele><time>2026-03-25T12:13:24.002Z</time></trkpt><trkpt lat="43.71688888945896" lon="3.2358755583445773"><ele>452.0</ele><time>2026-03-25T12:13:25.002Z</time></trkpt><trkpt lat="43.716985700766294" lon="3.2360929974314923"><ele>452.0</ele><time>2026-03-25T12:13:26.002Z</time></trkpt><trkpt lat="43.71705682366473" lon="3.236333253265611"><ele>452.0</ele><time>2026-03-25T12:13:27.002Z</time></trkpt><trkpt lat="43.71715053145333" lon="3.2365650189906887"><ele>452.0</ele><time>2026-03-25T12:13:28.002Z</time></trkpt><trkpt lat="43.717263962835275" lon="3.236781502387315"><ele>452.0</ele><time>2026-03-25T12:13:29.002Z</time></trkpt><trkpt lat="43.71736261740143" lon="3.2369933544268443"><ele>452.0</ele><time>2026-03-25T12:13:30.002Z</time></trkpt><trkpt lat="43.71746617667241" lon="3.237202316971095"><ele>447.3333333333333</ele><time>2026-03-25T12:13:31.002Z</time></trkpt><trkpt lat="43.717566121454205" lon="3.237410322140914"><ele>442.66666666666663</ele><time>2026-03-25T12:13:32.002Z</time></trkpt><trkpt lat="43.71766514634455" lon="3.237623105349692"><ele>438.0</ele><time>2026-03-25T12:13:33.003Z</time></trkpt><trkpt lat="43.717764559164515" lon="3.2378425277246943"><ele>438.0</ele><time>2026-03-25T12:13:34.003Z</time></trkpt><trkpt lat="43.71787076511998" lon="3.2380647092842776"><ele>438.0</ele><time>2026-03-25T12:13:35.003Z</time></trkpt><trkpt lat="43.71798302814523" lon="3.238290157222303"><ele>438.0</ele><time>2026-03-25T12:13:36.003Z</time></trkpt><trkpt lat="43.718094769767106" lon="3.238523339098782"><ele>445.33333333333337</ele><time>2026-03-25T12:13:37.003Z</time></trkpt><trkpt lat="43.71820740628967" lon="3.2387641700481926"><ele>452.6666666666667</ele><time>2026-03-25T12:13:38.003Z</time></trkpt><trkpt lat="43.71832082571709" lon="3.2390077179630525"><ele>460.0</ele><time>2026-03-25T12:13:39.003Z</time></trkpt><trkpt lat="43.71843583301082" lon="3.2392558248242214"><ele>461.0</ele><time>2026-03-25T12:13:40.003Z</time></trkpt><trkpt lat="43.71855493564339" lon="3.23950901363451"><ele>462.0</ele><time>2026-03-25T12:13:41.003Z</time></trkpt><trkpt lat="43.71867846122221" lon="3.2397686417387415"><ele>463.0</ele><time>2026-03-25T12:13:42.003Z</time></trkpt><trkpt lat="43.71880141524405" lon="3.240031904315708"><ele>463.0</ele><time>2026-03-25T12:13:43.001Z</time></trkpt><trkpt lat="43.71892395387124" lon="3.240293896434282"><ele>463.0</ele><time>2026-03-25T12:13:44.001Z</time></trkpt><trkpt lat="43.71904555368368" lon="3.2405533730429683"><ele>463.0</ele><time>2026-03-25T12:13:45.001Z</time></trkpt><trkpt lat="43.71916648845546" lon="3.2408088965438897"><ele>466.6666666666667</ele><time>2026-03-25T12:13:46.001Z</time></trkpt><trkpt lat="43.71928636465248" lon="3.241056993200127"><ele>470.33333333333337</ele><time>2026-03-25T12:13:47.001Z</time></trkpt><trkpt lat="43.71938733966954" lon="3.241300283623193"><ele>474.0</ele><time>2026-03-25T12:13:48.001Z</time></trkpt><trkpt lat="43.71949028770573" lon="3.241512508359902"><ele>474.0</ele><time>2026-03-25T12:13:49Z</time></trkpt><trkpt lat="43.719584700116364" lon="3.241709939496343"><ele>474.0</ele><time>2026-03-25T12:13:50Z</time></trkpt><trkpt lat="43.71966743397094" lon="3.2418843450939057"><ele>474.0</ele><time>2026-03-25T12:13:51Z</time></trkpt><trkpt lat="43.71973356232751" lon="3.242049191597494"><ele>474.0</ele><time>2026-03-25T12:13:52Z</time></trkpt><trkpt lat="43.71978782112109" lon="3.2422198099045008"><ele>474.0</ele><time>2026-03-25T12:13:53Z</time></trkpt><trkpt lat="43.71983537347308" lon="3.242400345862332"><ele>474.0</ele><time>2026-03-25T12:13:54Z</time></trkpt><trkpt lat="43.719873907604686" lon="3.2425878607547367"><ele>474.0</ele><time>2026-03-25T12:13:55Z</time></trkpt><trkpt lat="43.71990537072142" lon="3.242783870480048"><ele>479.0</ele><time>2026-03-25T12:13:56Z</time></trkpt><trkpt lat="43.71993430992506" lon="3.242972822493043"><ele>484.0</ele><time>2026-03-25T12:13:57Z</time></trkpt><trkpt lat="43.7199579896067" lon="3.2431411927402696"><ele>489.0</ele><time>2026-03-25T12:13:58Z</time></trkpt><trkpt lat="43.71997381198943" lon="3.243295191188543"><ele>494.0</ele><time>2026-03-25T12:13:59Z</time></trkpt><trkpt lat="43.719975578924256" lon="3.2434362666042227"><ele>495.79999999999995</ele><time>2026-03-25T12:14:00Z</time></trkpt><trkpt lat="43.719961768670494" lon="3.243576603593679"><ele>497.59999999999997</ele><time>2026-03-25T12:14:01Z</time></trkpt><trkpt lat="43.71992414984041" lon="3.243701745848426"><ele>499.4</ele><time>2026-03-25T12:14:02Z</time></trkpt><trkpt lat="43.71986335346287" lon="3.2438073042244273"><ele>501.2</ele><time>2026-03-25T12:14:03Z</time></trkpt><trkpt lat="43.7197932123717" lon="3.2439105106892847"><ele>503.0</ele><time>2026-03-25T12:14:04Z</time></trkpt><trkpt lat="43.719687106091456" lon="3.243960096642698"><ele>501.4</ele><time>2026-03-25T12:14:05.001Z</time></trkpt><trkpt lat="43.71958111914861" lon="3.2440296073481942"><ele>499.79999999999995</ele><time>2026-03-25T12:14:06.001Z</time></trkpt><trkpt lat="43.719475958836824" lon="3.244098040405265"><ele>498.2</ele><time>2026-03-25T12:14:07.001Z</time></trkpt><trkpt lat="43.71938288741856" lon="3.2441771821490155"><ele>496.6</ele><time>2026-03-25T12:14:08.001Z</time></trkpt><trkpt lat="43.71931387866013" lon="3.2442617457543803"><ele>495.0</ele><time>2026-03-25T12:14:09.001Z</time></trkpt><trkpt lat="43.719275778665995" lon="3.2443860372350777"><ele>495.0</ele><time>2026-03-25T12:14:10.001Z</time></trkpt><trkpt lat="43.71926810487962" lon="3.244506647622279"><ele>495.0</ele><time>2026-03-25T12:14:11.001Z</time></trkpt><trkpt lat="43.71929984154336" lon="3.2446250613483043"><ele>495.0</ele><time>2026-03-25T12:14:12.001Z</time></trkpt><trkpt lat="43.71934605892905" lon="3.2447228727923108"><ele>495.0</ele><time>2026-03-25T12:14:13.001Z</time></trkpt><trkpt lat="43.71940133421317" lon="3.244786698931426"><ele>495.0</ele><time>2026-03-25T12:14:14.001Z</time></trkpt><trkpt lat="43.71945321197657" lon="3.244876332388703"><ele>495.0</ele><time>2026-03-25T12:14:15.001Z</time></trkpt><trkpt lat="43.71950828376399" lon="3.2449724492253553"><ele>495.8333333333333</ele><time>2026-03-25T12:14:16.001Z</time></trkpt><trkpt lat="43.7195528049928" lon="3.2450753992068244"><ele>496.66666666666663</ele><time>2026-03-25T12:14:17.001Z</time></trkpt><trkpt lat="43.71955296394504" lon="3.245194082167734"><ele>497.5</ele><time>2026-03-25T12:14:18.001Z</time></trkpt><trkpt lat="43.71953598744465" lon="3.2452975552532064"><ele>498.3333333333333</ele><time>2026-03-25T12:14:19.001Z</time></trkpt><trkpt lat="43.7194970110061" lon="3.2453926329781866"><ele>499.16666666666663</ele><time>2026-03-25T12:14:20.001Z</time></trkpt><trkpt lat="43.71944401385197" lon="3.245489314605856"><ele>500.0</ele><time>2026-03-25T12:14:21.001Z</time></trkpt><trkpt lat="43.719382185352345" lon="3.2455984881929396"><ele>507.0</ele><time>2026-03-25T12:14:22.001Z</time></trkpt><trkpt lat="43.71931340997534" lon="3.2457125258240147"><ele>514.0</ele><time>2026-03-25T12:14:23.001Z</time></trkpt><trkpt lat="43.71924206938937" lon="3.245832423879686"><ele>521.0</ele><time>2026-03-25T12:14:24.001Z</time></trkpt><trkpt lat="43.71917815752384" lon="3.2459542501011924"><ele>528.0</ele><time>2026-03-25T12:14:25.001Z</time></trkpt><trkpt lat="43.71912746443985" lon="3.2460747966733274"><ele>535.0</ele><time>2026-03-25T12:14:26.001Z</time></trkpt><trkpt lat="43.71909348624415" lon="3.2461920620185105"><ele>535.0</ele><time>2026-03-25T12:14:27.001Z</time></trkpt><trkpt lat="43.7190887509231" lon="3.246324069430104"><ele>535.0</ele><time>2026-03-25T12:14:28.001Z</time></trkpt><trkpt lat="43.71911091426023" lon="3.2464528652185756"><ele>535.0</ele><time>2026-03-25T12:14:29.001Z</time></trkpt><trkpt lat="43.71915054679026" lon="3.2465717768966904"><ele>535.0</ele><time>2026-03-25T12:14:30.001Z</time></trkpt><trkpt lat="43.71920766063893" lon="3.2466796792202146"><ele>535.0</ele><time>2026-03-25T12:14:31.001Z</time></trkpt><trkpt lat="43.7193015265943" lon="3.2467500503061264"><ele>535.8</ele><time>2026-03-25T12:14:32.001Z</time></trkpt><trkpt lat="43.71938981068585" lon="3.246820040741161"><ele>536.6</ele><time>2026-03-25T12:14:33.001Z</time></trkpt><trkpt lat="43.719487294513264" lon="3.246878603964991"><ele>537.4</ele><time>2026-03-25T12:14:34.001Z</time></trkpt><trkpt lat="43.71958872399862" lon="3.246940698872349"><ele>538.2</ele><time>2026-03-25T12:14:35.001Z</time></trkpt><trkpt lat="43.71968382451258" lon="3.2470190432005204"><ele>539.0</ele><time>2026-03-25T12:14:36.001Z</time></trkpt><trkpt lat="43.71977896671443" lon="3.2471171536629813"><ele>537.5</ele><time>2026-03-25T12:14:37.001Z</time></trkpt><trkpt lat="43.71987159058052" lon="3.2472276617531657"><ele>536.0</ele><time>2026-03-25T12:14:38.001Z</time></trkpt><trkpt lat="43.719957012036765" lon="3.247351079321146"><ele>534.5</ele><time>2026-03-25T12:14:39.001Z</time></trkpt><trkpt lat="43.720017904075426" lon="3.247500088920858"><ele>533.0</ele><time>2026-03-25T12:14:40.001Z</time></trkpt><trkpt lat="43.72007167188098" lon="3.247650972211041"><ele>533.0</ele><time>2026-03-25T12:14:41.001Z</time></trkpt><trkpt lat="43.72010515880836" lon="3.2478127666961423"><ele>533.0</ele><time>2026-03-25T12:14:42.001Z</time></trkpt><trkpt lat="43.72012272986773" lon="3.2479800560488337"><ele>533.0</ele><time>2026-03-25T12:14:43.001Z</time></trkpt><trkpt lat="43.72012519300063" lon="3.248153234120557"><ele>533.0</ele><time>2026-03-25T12:14:44.001Z</time></trkpt><trkpt lat="43.72011094529759" lon="3.2483377493529004"><ele>536.75</ele><time>2026-03-25T12:14:45.001Z</time></trkpt><trkpt lat="43.72008977686894" lon="3.248529703992085"><ele>540.5</ele><time>2026-03-25T12:14:46.001Z</time></trkpt><trkpt lat="43.720069231741206" lon="3.2487199012285037"><ele>544.25</ele><time>2026-03-25T12:14:47.001Z</time></trkpt><trkpt lat="43.72006735298162" lon="3.248918445988011"><ele>548.0</ele><time>2026-03-25T12:14:48.001Z</time></trkpt><trkpt lat="43.72009469279087" lon="3.2491150676218377"><ele>550.3333333333333</ele><time>2026-03-25T12:14:49.001Z</time></trkpt><trkpt lat="43.72014156898757" lon="3.249321210822743"><ele>552.6666666666666</ele><time>2026-03-25T12:14:50.001Z</time></trkpt><trkpt lat="43.72018721487884" lon="3.2495222869935847"><ele>555.0</ele><time>2026-03-25T12:14:51.001Z</time></trkpt><trkpt lat="43.72021537579279" lon="3.2497286530607448"><ele>556.5</ele><time>2026-03-25T12:14:52.001Z</time></trkpt><trkpt lat="43.72022863039819" lon="3.2499451611659746"><ele>558.0</ele><time>2026-03-25T12:14:53.001Z</time></trkpt><trkpt lat="43.72023219040483" lon="3.250149288365194"><ele>559.5</ele><time>2026-03-25T12:14:54.001Z</time></trkpt><trkpt lat="43.72024452216745" lon="3.2503227825272396"><ele>561.0</ele><time>2026-03-25T12:14:55.001Z</time></trkpt><trkpt lat="43.72027321808843" lon="3.250462239589698"><ele>561.0</ele><time>2026-03-25T12:14:56.001Z</time></trkpt><trkpt lat="43.720350429994696" lon="3.2505536730946196"><ele>561.0</ele><time>2026-03-25T12:14:57.002Z</time></trkpt><trkpt lat="43.72043142474559" lon="3.250636028496882"><ele>561.0</ele><time>2026-03-25T12:14:58.002Z</time></trkpt><trkpt lat="43.72053087013191" lon="3.2506800959784656"><ele>561.0</ele><time>2026-03-25T12:14:59.002Z</time></trkpt><trkpt lat="43.72063809200924" lon="3.250685926238102"><ele>561.0</ele><time>2026-03-25T12:15:00.002Z</time></trkpt><trkpt lat="43.720756849063434" lon="3.2506627328901123"><ele>561.0</ele><time>2026-03-25T12:15:01.002Z</time></trkpt><trkpt lat="43.720879233651885" lon="3.2506283709939665"><ele>561.0</ele><time>2026-03-25T12:15:02.002Z</time></trkpt><trkpt lat="43.721005530943025" lon="3.2506130014937633"><ele>561.0</ele><time>2026-03-25T12:15:03.002Z</time></trkpt><trkpt lat="43.72113485195074" lon="3.250623884694049"><ele>561.0</ele><time>2026-03-25T12:15:04.002Z</time></trkpt><trkpt lat="43.721254936604815" lon="3.2506557506851257"><ele>557.5</ele><time>2026-03-25T12:15:05.002Z</time></trkpt><trkpt lat="43.72135844856335" lon="3.250714783047886"><ele>554.0</ele><time>2026-03-25T12:15:06.002Z</time></trkpt><trkpt lat="43.72144020186036" lon="3.2508284927895743"><ele>550.5</ele><time>2026-03-25T12:15:07.002Z</time></trkpt><trkpt lat="43.72153442511133" lon="3.2509292222907495"><ele>547.0</ele><time>2026-03-25T12:15:08.002Z</time></trkpt><trkpt lat="43.72159739901943" lon="3.2510816556242954"><ele>547.0</ele><time>2026-03-25T12:15:09.002Z</time></trkpt><trkpt lat="43.72166850393714" lon="3.2512371001414944"><ele>547.0</ele><time>2026-03-25T12:15:10.002Z</time></trkpt><trkpt lat="43.72173432283049" lon="3.2514037108375358"><ele>547.0</ele><time>2026-03-25T12:15:11.002Z</time></trkpt><trkpt lat="43.72180013877099" lon="3.251580599176879"><ele>547.0</ele><time>2026-03-25T12:15:12.002Z</time></trkpt><trkpt lat="43.72187301311683" lon="3.2517531864892875"><ele>547.0</ele><time>2026-03-25T12:15:13.002Z</time></trkpt><trkpt lat="43.72196597271413" lon="3.2519124863359057"><ele>547.0</ele><time>2026-03-25T12:15:14.002Z</time></trkpt><trkpt lat="43.722079526294586" lon="3.2520475818988754"><ele>547.0</ele><time>2026-03-25T12:15:15.002Z</time></trkpt><trkpt lat="43.72222147116079" lon="3.2521481538182466"><ele>547.0</ele><time>2026-03-25T12:15:16.002Z</time></trkpt><trkpt lat="43.722359510422685" lon="3.252264438954322"><ele>547.0</ele><time>2026-03-25T12:15:17.002Z</time></trkpt><trkpt lat="43.722498381594484" lon="3.2523850942086328"><ele>547.0</ele><time>2026-03-25T12:15:18.002Z</time></trkpt><trkpt lat="43.72263424531499" lon="3.2525298534799156"><ele>550.3333333333334</ele><time>2026-03-25T12:15:19.002Z</time></trkpt><trkpt lat="43.722764716087795" lon="3.25269540238534"><ele>553.6666666666666</ele><time>2026-03-25T12:15:20.002Z</time></trkpt><trkpt lat="43.72289338643453" lon="3.252863585265357"><ele>557.0</ele><time>2026-03-25T12:15:21.002Z</time></trkpt><trkpt lat="43.72302082768876" lon="3.253020483260176"><ele>565.3333333333333</ele><time>2026-03-25T12:15:22.002Z</time></trkpt><trkpt lat="43.72313835129875" lon="3.253176818934173"><ele>573.6666666666666</ele><time>2026-03-25T12:15:23.002Z</time></trkpt><trkpt lat="43.723282084216024" lon="3.2532622756933414"><ele>582.0</ele><time>2026-03-25T12:15:24.002Z</time></trkpt><trkpt lat="43.72342628321441" lon="3.2533436885368325"><ele>580.0</ele><time>2026-03-25T12:15:25.002Z</time></trkpt><trkpt lat="43.723583466039166" lon="3.2534046519551323"><ele>578.0</ele><time>2026-03-25T12:15:26.002Z</time></trkpt><trkpt lat="43.723751004665026" lon="3.253466622760144"><ele>576.0</ele><time>2026-03-25T12:15:27.002Z</time></trkpt><trkpt lat="43.72392436711403" lon="3.2535210837703032"><ele>576.0</ele><time>2026-03-25T12:15:28.002Z</time></trkpt><trkpt lat="43.724094084426774" lon="3.2535681979940176"><ele>576.0</ele><time>2026-03-25T12:15:29.002Z</time></trkpt><trkpt lat="43.724263297851074" lon="3.2536077783258053"><ele>576.0</ele><time>2026-03-25T12:15:30.002Z</time></trkpt><trkpt lat="43.72443327435292" lon="3.253645806430636"><ele>577.0</ele><time>2026-03-25T12:15:31.002Z</time></trkpt><trkpt lat="43.72461218076395" lon="3.2536739609700747"><ele>578.0</ele><time>2026-03-25T12:15:32.002Z</time></trkpt><trkpt lat="43.72479872174003" lon="3.2536908312404966"><ele>579.0</ele><time>2026-03-25T12:15:33.002Z</time></trkpt><trkpt lat="43.72498433673467" lon="3.253692835347624"><ele>579.0</ele><time>2026-03-25T12:15:34.002Z</time></trkpt><trkpt lat="43.725166796193726" lon="3.253684391225815"><ele>579.0</ele><time>2026-03-25T12:15:35.002Z</time></trkpt><trkpt lat="43.725344865171444" lon="3.2536733409458436"><ele>579.0</ele><time>2026-03-25T12:15:36.002Z</time></trkpt><trkpt lat="43.72551910385754" lon="3.2536590585147085"><ele>583.0</ele><time>2026-03-25T12:15:37.002Z</time></trkpt><trkpt lat="43.72568822601194" lon="3.2536290593135897"><ele>587.0</ele><time>2026-03-25T12:15:38.002Z</time></trkpt><trkpt lat="43.72584525599941" lon="3.253593538741885"><ele>591.0</ele><time>2026-03-25T12:15:39.002Z</time></trkpt><trkpt lat="43.72598467799009" lon="3.253548619042677"><ele>593.75</ele><time>2026-03-25T12:15:40.002Z</time></trkpt><trkpt lat="43.72612401942262" lon="3.253492994105715"><ele>596.5</ele><time>2026-03-25T12:15:41.002Z</time></trkpt><trkpt lat="43.72626306461646" lon="3.2534385112048243"><ele>599.25</ele><time>2026-03-25T12:15:42.002Z</time></trkpt><trkpt lat="43.72640099894607" lon="3.253387541551377"><ele>602.0</ele><time>2026-03-25T12:15:43.002Z</time></trkpt><trkpt lat="43.72653858996325" lon="3.2533444129626963"><ele>602.0</ele><time>2026-03-25T12:15:44.003Z</time></trkpt><trkpt lat="43.72667177256819" lon="3.2533238126620767"><ele>602.0</ele><time>2026-03-25T12:15:45.003Z</time></trkpt><trkpt lat="43.72678924495782" lon="3.2533317390318595"><ele>602.0</ele><time>2026-03-25T12:15:46.003Z</time></trkpt><trkpt lat="43.72688806018257" lon="3.2533597470209235"><ele>602.0</ele><time>2026-03-25T12:15:47.003Z</time></trkpt><trkpt lat="43.726972360868906" lon="3.2533799583150507"><ele>602.0</ele><time>2026-03-25T12:15:48.003Z</time></trkpt><trkpt lat="43.727032305212724" lon="3.253427183175005"><ele>603.6</ele><time>2026-03-25T12:15:49Z</time></trkpt><trkpt lat="43.727108101005925" lon="3.253509935838591"><ele>605.2</ele><time>2026-03-25T12:15:51Z</time></trkpt><trkpt lat="43.72713768963644" lon="3.253599892692203"><ele>606.8</ele><time>2026-03-25T12:15:53Z</time></trkpt><trkpt lat="43.72728963030847" lon="3.25360824305793"><ele>608.4</ele><time>2026-03-25T12:15:56Z</time></trkpt><trkpt lat="43.727333545555766" lon="3.2535274951799096"><ele>610.0</ele><time>2026-03-25T12:15:57Z</time></trkpt><trkpt lat="43.72738683343475" lon="3.2534589997964396"><ele>610.0</ele><time>2026-03-25T12:15:58Z</time></trkpt><trkpt lat="43.72745351918323" lon="3.253389341213008"><ele>610.0</ele><time>2026-03-25T12:15:59Z</time></trkpt><trkpt lat="43.727527294778334" lon="3.2533129220390964"><ele>610.0</ele><time>2026-03-25T12:16:00Z</time></trkpt><trkpt lat="43.727605056934195" lon="3.253234353893869"><ele>610.0</ele><time>2026-03-25T12:16:01Z</time></trkpt><trkpt lat="43.727689329632305" lon="3.2531575702838533"><ele>610.0</ele><time>2026-03-25T12:16:02Z</time></trkpt><trkpt lat="43.727768672243286" lon="3.2530967708974137"><ele>610.8</ele><time>2026-03-25T12:16:03Z</time></trkpt><trkpt lat="43.727854798441406" lon="3.253033846264735"><ele>611.6</ele><time>2026-03-25T12:16:04Z</time></trkpt><trkpt lat="43.727942193908824" lon="3.2529654890440813"><ele>612.4</ele><time>2026-03-25T12:16:05Z</time></trkpt><trkpt lat="43.72803475624015" lon="3.2528986743002486"><ele>613.2</ele><time>2026-03-25T12:16:06Z</time></trkpt><trkpt lat="43.72814045689615" lon="3.2528354940855873"><ele>614.0</ele><time>2026-03-25T12:16:07Z</time></trkpt><trkpt lat="43.72825320348426" lon="3.2527642510600385"><ele>614.0</ele><time>2026-03-25T12:16:08Z</time></trkpt><trkpt lat="43.72836963873943" lon="3.252683431657421"><ele>614.0</ele><time>2026-03-25T12:16:09Z</time></trkpt><trkpt lat="43.7284796869054" lon="3.252604643746029"><ele>614.0</ele><time>2026-03-25T12:16:10Z</time></trkpt><trkpt lat="43.728593407759774" lon="3.252525700945515"><ele>614.0</ele><time>2026-03-25T12:16:11Z</time></trkpt><trkpt lat="43.72871106900111" lon="3.252439819125183"><ele>616.0</ele><time>2026-03-25T12:16:12Z</time></trkpt><trkpt lat="43.7288398166395" lon="3.2523490225804927"><ele>618.0</ele><time>2026-03-25T12:16:13Z</time></trkpt><trkpt lat="43.728975263696825" lon="3.252248122353634"><ele>620.0</ele><time>2026-03-25T12:16:14Z</time></trkpt><trkpt lat="43.7291117191503" lon="3.2521447422157155"><ele>620.0</ele><time>2026-03-25T12:16:15Z</time></trkpt><trkpt lat="43.72924687246766" lon="3.2520471156664517"><ele>620.0</ele><time>2026-03-25T12:16:16Z</time></trkpt><trkpt lat="43.72938326048844" lon="3.251951866927312"><ele>620.0</ele><time>2026-03-25T12:16:17Z</time></trkpt><trkpt lat="43.72952263230155" lon="3.251865108621393"><ele>623.75</ele><time>2026-03-25T12:16:18Z</time></trkpt><trkpt lat="43.72966157652793" lon="3.2517887293923216"><ele>627.5</ele><time>2026-03-25T12:16:19Z</time></trkpt><trkpt lat="43.72980206848086" lon="3.25172832172287"><ele>631.25</ele><time>2026-03-25T12:16:20Z</time></trkpt><trkpt lat="43.72994624732294" lon="3.2516763519647975"><ele>635.0</ele><time>2026-03-25T12:16:21Z</time></trkpt><trkpt lat="43.73008464246615" lon="3.251627247944166"><ele>635.0</ele><time>2026-03-25T12:16:22Z</time></trkpt><trkpt lat="43.73020905659217" lon="3.251566631867806"><ele>635.0</ele><time>2026-03-25T12:16:23Z</time></trkpt><trkpt lat="43.730326633045536" lon="3.251483721468093"><ele>635.0</ele><time>2026-03-25T12:16:24.001Z</time></trkpt><trkpt lat="43.73043789490707" lon="3.251382802219356"><ele>635.0</ele><time>2026-03-25T12:16:25.001Z</time></trkpt><trkpt lat="43.73054333802167" lon="3.2512637195177967"><ele>636.25</ele><time>2026-03-25T12:16:26.001Z</time></trkpt><trkpt lat="43.73065214502164" lon="3.251142050391545"><ele>637.5</ele><time>2026-03-25T12:16:27.001Z</time></trkpt><trkpt lat="43.73076042406702" lon="3.251016601533764"><ele>638.75</ele><time>2026-03-25T12:16:28.001Z</time></trkpt><trkpt lat="43.73086834364131" lon="3.2508955170026663"><ele>640.0</ele><time>2026-03-25T12:16:29.001Z</time></trkpt><trkpt lat="43.73097799404393" lon="3.2507926841061328"><ele>639.0</ele><time>2026-03-25T12:16:30.001Z</time></trkpt><trkpt lat="43.73109330997841" lon="3.2507144039793343"><ele>638.0</ele><time>2026-03-25T12:16:31.001Z</time></trkpt><trkpt lat="43.731207578976196" lon="3.250646137832746"><ele>637.0</ele><time>2026-03-25T12:16:32.001Z</time></trkpt><trkpt lat="43.731329542342166" lon="3.250600762583417"><ele>636.0</ele><time>2026-03-25T12:16:33.001Z</time></trkpt><trkpt lat="43.7314589189587" lon="3.250562357994454"><ele>636.0</ele><time>2026-03-25T12:16:34.001Z</time></trkpt><trkpt lat="43.73159571764617" lon="3.25053222184906"><ele>636.0</ele><time>2026-03-25T12:16:35.001Z</time></trkpt><trkpt lat="43.7317425786998" lon="3.250506151498178"><ele>636.0</ele><time>2026-03-25T12:16:36.001Z</time></trkpt><trkpt lat="43.731891726022866" lon="3.2504822003201643"><ele>636.0</ele><time>2026-03-25T12:16:37.001Z</time></trkpt><trkpt lat="43.73203414330849" lon="3.250459769537685"><ele>640.75</ele><time>2026-03-25T12:16:38.001Z</time></trkpt><trkpt lat="43.73216800540813" lon="3.2504197816652405"><ele>645.5</ele><time>2026-03-25T12:16:39.001Z</time></trkpt><trkpt lat="43.732292386445195" lon="3.2503540188407203"><ele>650.25</ele><time>2026-03-25T12:16:40.001Z</time></trkpt><trkpt lat="43.73240790586954" lon="3.2502684069051866"><ele>655.0</ele><time>2026-03-25T12:16:41.001Z</time></trkpt><trkpt lat="43.732514458945666" lon="3.2501553426213348"><ele>655.0</ele><time>2026-03-25T12:16:42.001Z</time></trkpt><trkpt lat="43.73261739759959" lon="3.2500320570263117"><ele>655.0</ele><time>2026-03-25T12:16:43.001Z</time></trkpt><trkpt lat="43.73272483630911" lon="3.2499190041953927"><ele>655.0</ele><time>2026-03-25T12:16:44.001Z</time></trkpt><trkpt lat="43.732837786074725" lon="3.2498288495771814"><ele>655.0</ele><time>2026-03-25T12:16:45.001Z</time></trkpt><trkpt lat="43.73295644747102" lon="3.2497618723163892"><ele>652.5</ele><time>2026-03-25T12:16:46.001Z</time></trkpt><trkpt lat="43.733076323058356" lon="3.24971296869349"><ele>650.0</ele><time>2026-03-25T12:16:47.001Z</time></trkpt><trkpt lat="43.73319876176601" lon="3.24967836977786"><ele>647.5</ele><time>2026-03-25T12:16:48.001Z</time></trkpt><trkpt lat="43.73332553451768" lon="3.249666591491769"><ele>645.0</ele><time>2026-03-25T12:16:49.001Z</time></trkpt><trkpt lat="43.73345794891089" lon="3.2496702887215396"><ele>645.75</ele><time>2026-03-25T12:16:50.001Z</time></trkpt><trkpt lat="43.73359393237725" lon="3.249699217591649"><ele>646.5</ele><time>2026-03-25T12:16:51.001Z</time></trkpt><trkpt lat="43.73373578825112" lon="3.2497529705331205"><ele>647.25</ele><time>2026-03-25T12:16:52.001Z</time></trkpt><trkpt lat="43.73388391251559" lon="3.2498278203297546"><ele>648.0</ele><time>2026-03-25T12:16:53.001Z</time></trkpt><trkpt lat="43.7340353044401" lon="3.249907074562739"><ele>656.3333333333334</ele><time>2026-03-25T12:16:54.001Z</time></trkpt><trkpt lat="43.73418431272643" lon="3.2499747313830305"><ele>664.6666666666667</ele><time>2026-03-25T12:16:55.001Z</time></trkpt><trkpt lat="43.73433407751758" lon="3.250028314098799"><ele>673.0</ele><time>2026-03-25T12:16:56.001Z</time></trkpt><trkpt lat="43.734480856033535" lon="3.2500615159195556"><ele>674.0</ele><time>2026-03-25T12:16:57.001Z</time></trkpt><trkpt lat="43.734628346137946" lon="3.2500756402669198"><ele>675.0</ele><time>2026-03-25T12:16:58.001Z</time></trkpt><trkpt lat="43.73477748609485" lon="3.2500741452283184"><ele>676.0</ele><time>2026-03-25T12:16:59.001Z</time></trkpt><trkpt lat="43.734933206094944" lon="3.250054425363695"><ele>676.0</ele><time>2026-03-25T12:17:00.001Z</time></trkpt><trkpt lat="43.735095834789064" lon="3.2500171078880475"><ele>676.0</ele><time>2026-03-25T12:17:01.001Z</time></trkpt><trkpt lat="43.735263590925335" lon="3.2499745293987763"><ele>676.0</ele><time>2026-03-25T12:17:02.001Z</time></trkpt><trkpt lat="43.735431318200746" lon="3.2499437819764783"><ele>679.3333333333334</ele><time>2026-03-25T12:17:03.001Z</time></trkpt><trkpt lat="43.735594965963976" lon="3.249920765154432"><ele>682.6666666666666</ele><time>2026-03-25T12:17:04.001Z</time></trkpt><trkpt lat="43.735757248854334" lon="3.249902056397258"><ele>686.0</ele><time>2026-03-25T12:17:05.001Z</time></trkpt><trkpt lat="43.73591947645795" lon="3.249903926363206"><ele>687.0</ele><time>2026-03-25T12:17:06.001Z</time></trkpt><trkpt lat="43.736082324663485" lon="3.2499236856687608"><ele>688.0</ele><time>2026-03-25T12:17:07.001Z</time></trkpt><trkpt lat="43.73624661816744" lon="3.249950317959873"><ele>689.0</ele><time>2026-03-25T12:17:08.001Z</time></trkpt><trkpt lat="43.73641169073851" lon="3.249979853044448"><ele>689.0</ele><time>2026-03-25T12:17:09.001Z</time></trkpt><trkpt lat="43.736579601626765" lon="3.250005636821933"><ele>689.0</ele><time>2026-03-25T12:17:10.001Z</time></trkpt><trkpt lat="43.73674048341866" lon="3.2500322293556727"><ele>689.0</ele><time>2026-03-25T12:17:11.001Z</time></trkpt><trkpt lat="43.73690220257604" lon="3.25005885502687"><ele>691.0</ele><time>2026-03-25T12:17:12.002Z</time></trkpt><trkpt lat="43.73705233806976" lon="3.2500851238836965"><ele>693.0</ele><time>2026-03-25T12:17:13.002Z</time></trkpt><trkpt lat="43.73718609467196" lon="3.25010423708854"><ele>695.0</ele><time>2026-03-25T12:17:14.002Z</time></trkpt><trkpt lat="43.73730701098777" lon="3.2501148465907"><ele>697.0</ele><time>2026-03-25T12:17:15.002Z</time></trkpt><trkpt lat="43.73742149096805" lon="3.25011541892562"><ele>697.0</ele><time>2026-03-25T12:17:16.002Z</time></trkpt><trkpt lat="43.7375397218064" lon="3.2501021703670174"><ele>697.0</ele><time>2026-03-25T12:17:17.002Z</time></trkpt><trkpt lat="43.737657540535714" lon="3.2500700443215345"><ele>697.0</ele><time>2026-03-25T12:17:18.002Z</time></trkpt><trkpt lat="43.737774429095026" lon="3.250029089155909"><ele>697.0</ele><time>2026-03-25T12:17:19.002Z</time></trkpt><trkpt lat="43.737890685945565" lon="3.249976714768071"><ele>698.5</ele><time>2026-03-25T12:17:20.002Z</time></trkpt><trkpt lat="43.73800818759497" lon="3.2499375183503245"><ele>700.0</ele><time>2026-03-25T12:17:21.002Z</time></trkpt><trkpt lat="43.73812846214937" lon="3.249915430888557"><ele>701.5</ele><time>2026-03-25T12:17:22.002Z</time></trkpt><trkpt lat="43.73824927054132" lon="3.2499139684036438"><ele>703.0</ele><time>2026-03-25T12:17:23.002Z</time></trkpt><trkpt lat="43.738372225185536" lon="3.249934904535645"><ele>703.0</ele><time>2026-03-25T12:17:24.002Z</time></trkpt><trkpt lat="43.738499526972724" lon="3.2499730509842406"><ele>703.0</ele><time>2026-03-25T12:17:25.002Z</time></trkpt><trkpt lat="43.73862939924793" lon="3.2500274030466394"><ele>703.0</ele><time>2026-03-25T12:17:26.002Z</time></trkpt><trkpt lat="43.73876344841863" lon="3.250101112147743"><ele>703.0</ele><time>2026-03-25T12:17:27.002Z</time></trkpt><trkpt lat="43.738897808888" lon="3.2501726801346553"><ele>703.25</ele><time>2026-03-25T12:17:28.002Z</time></trkpt><trkpt lat="43.73902473625479" lon="3.2502344115288895"><ele>703.5</ele><time>2026-03-25T12:17:29.002Z</time></trkpt><trkpt lat="43.73913655823145" lon="3.2502783790756076"><ele>703.75</ele><time>2026-03-25T12:17:30.002Z</time></trkpt><trkpt lat="43.739240852847026" lon="3.250335911755407"><ele>704.0</ele><time>2026-03-25T12:17:31.002Z</time></trkpt><trkpt lat="43.73935580115941" lon="3.250343095348722"><ele>706.6</ele><time>2026-03-25T12:17:32.002Z</time></trkpt><trkpt lat="43.73946280265232" lon="3.2503495072141066"><ele>709.2</ele><time>2026-03-25T12:17:33.002Z</time></trkpt><trkpt lat="43.739570299658766" lon="3.250342968216921"><ele>711.8000000000001</ele><time>2026-03-25T12:17:34.002Z</time></trkpt><trkpt lat="43.739674346436516" lon="3.250315992274267"><ele>714.4000000000001</ele><time>2026-03-25T12:17:35.002Z</time></trkpt><trkpt lat="43.73977452132383" lon="3.2502717109479393"><ele>717.0</ele><time>2026-03-25T12:17:36.002Z</time></trkpt><trkpt lat="43.73987146400502" lon="3.250218868506495"><ele>717.0</ele><time>2026-03-25T12:17:37.002Z</time></trkpt><trkpt lat="43.73996111746183" lon="3.250151276787761"><ele>717.0</ele><time>2026-03-25T12:17:38.002Z</time></trkpt><trkpt lat="43.74004184730342" lon="3.2500755588195913"><ele>717.0</ele><time>2026-03-25T12:17:39.002Z</time></trkpt><trkpt lat="43.74011173701439" lon="3.2499832887120585"><ele>717.0</ele><time>2026-03-25T12:17:40.002Z</time></trkpt><trkpt lat="43.740167919603195" lon="3.2498772334541197"><ele>717.0</ele><time>2026-03-25T12:17:41.002Z</time></trkpt><trkpt lat="43.74021493697188" lon="3.249754217083691"><ele>720.5</ele><time>2026-03-25T12:17:42.002Z</time></trkpt><trkpt lat="43.74025565601716" lon="3.2496197050752906"><ele>724.0</ele><time>2026-03-25T12:17:43.002Z</time></trkpt><trkpt lat="43.740281174649134" lon="3.249470761475838"><ele>727.5</ele><time>2026-03-25T12:17:44.002Z</time></trkpt><trkpt lat="43.7402926149949" lon="3.249308713901837"><ele>731.0</ele><time>2026-03-25T12:17:45.002Z</time></trkpt><trkpt lat="43.74029463354885" lon="3.24914207198157"><ele>731.0</ele><time>2026-03-25T12:17:46.002Z</time></trkpt><trkpt lat="43.74029045821932" lon="3.248968779943823"><ele>731.0</ele><time>2026-03-25T12:17:47.002Z</time></trkpt><trkpt lat="43.74028717574534" lon="3.24879432810649"><ele>731.0</ele><time>2026-03-25T12:17:48.002Z</time></trkpt><trkpt lat="43.74028520002963" lon="3.2486304369731833"><ele>731.0</ele><time>2026-03-25T12:17:49.002Z</time></trkpt><trkpt lat="43.74028671655862" lon="3.248492852027829"><ele>730.8</ele><time>2026-03-25T12:17:50.002Z</time></trkpt><trkpt lat="43.74030589128884" lon="3.2483701599279784"><ele>730.5999999999999</ele><time>2026-03-25T12:17:51.002Z</time></trkpt><trkpt lat="43.74034597212815" lon="3.248253442004362"><ele>730.4</ele><time>2026-03-25T12:17:52.002Z</time></trkpt><trkpt lat="43.740405785340606" lon="3.2481468240435283"><ele>730.2</ele><time>2026-03-25T12:17:53.002Z</time></trkpt><trkpt lat="43.740485061548256" lon="3.248059913193071"><ele>730.0</ele><time>2026-03-25T12:17:54.002Z</time></trkpt><trkpt lat="43.74057638321712" lon="3.2479907339242877"><ele>726.75</ele><time>2026-03-25T12:17:55Z</time></trkpt><trkpt lat="43.74068317397908" lon="3.2479550590080906"><ele>723.5</ele><time>2026-03-25T12:17:56Z</time></trkpt><trkpt lat="43.7407958168837" lon="3.2479442253021884"><ele>720.25</ele><time>2026-03-25T12:17:57Z</time></trkpt><trkpt lat="43.74091406791302" lon="3.247952822780419"><ele>717.0</ele><time>2026-03-25T12:17:58Z</time></trkpt><trkpt lat="43.74103395171747" lon="3.2479674978544693"><ele>716.5</ele><time>2026-03-25T12:17:59Z</time></trkpt><trkpt lat="43.741155323259065" lon="3.2479881762716816"><ele>716.0</ele><time>2026-03-25T12:18:00Z</time></trkpt><trkpt lat="43.74127589622425" lon="3.248024587303023"><ele>715.5</ele><time>2026-03-25T12:18:01Z</time></trkpt><trkpt lat="43.741394252325705" lon="3.248078414231668"><ele>715.0</ele><time>2026-03-25T12:18:02Z</time></trkpt><trkpt lat="43.74150896236042" lon="3.2481472823763955"><ele>715.25</ele><time>2026-03-25T12:18:03Z</time></trkpt><trkpt lat="43.74161496522523" lon="3.2482317012200626"><ele>715.5</ele><time>2026-03-25T12:18:04Z</time></trkpt><trkpt lat="43.741713788428704" lon="3.2483385646618177"><ele>715.75</ele><time>2026-03-25T12:18:05Z</time></trkpt><trkpt lat="43.74180515710887" lon="3.2484647372847872"><ele>716.0</ele><time>2026-03-25T12:18:06Z</time></trkpt><trkpt lat="43.74188995867654" lon="3.2486096481804356"><ele>716.0</ele><time>2026-03-25T12:18:07Z</time></trkpt><trkpt lat="43.74197134487876" lon="3.2487791702153817"><ele>716.0</ele><time>2026-03-25T12:18:08Z</time></trkpt><trkpt lat="43.74203498509414" lon="3.2489770922627343"><ele>716.0</ele><time>2026-03-25T12:18:09Z</time></trkpt><trkpt lat="43.74211272761" lon="3.2491729851084785"><ele>719.3333333333333</ele><time>2026-03-25T12:18:10Z</time></trkpt><trkpt lat="43.742193701166904" lon="3.249371251457998"><ele>722.6666666666666</ele><time>2026-03-25T12:18:11Z</time></trkpt><trkpt lat="43.74229171494861" lon="3.249540947652205"><ele>726.0</ele><time>2026-03-25T12:18:12Z</time></trkpt><trkpt lat="43.74238761209851" lon="3.2497091440835773"><ele>727.3333333333334</ele><time>2026-03-25T12:18:13Z</time></trkpt><trkpt lat="43.74249023440657" lon="3.249865307026227"><ele>728.6666666666667</ele><time>2026-03-25T12:18:14Z</time></trkpt><trkpt lat="43.74260369231231" lon="3.250002581955983"><ele>730.0</ele><time>2026-03-25T12:18:15Z</time></trkpt><trkpt lat="43.74272575701149" lon="3.2501225033122023"><ele>730.0</ele><time>2026-03-25T12:18:16Z</time></trkpt><trkpt lat="43.742855341924" lon="3.250224014277168"><ele>730.0</ele><time>2026-03-25T12:18:17Z</time></trkpt><trkpt lat="43.74299044712069" lon="3.2503134236607822"><ele>730.0</ele><time>2026-03-25T12:18:18Z</time></trkpt><trkpt lat="43.74313243402105" lon="3.2503918810164376"><ele>730.0</ele><time>2026-03-25T12:18:19Z</time></trkpt><trkpt lat="43.743278118843946" lon="3.2504638362657596"><ele>730.0</ele><time>2026-03-25T12:18:20Z</time></trkpt><trkpt lat="43.743422823886775" lon="3.2505384174368954"><ele>730.0</ele><time>2026-03-25T12:18:21Z</time></trkpt><trkpt lat="43.743565124467345" lon="3.250617508527116"><ele>733.25</ele><time>2026-03-25T12:18:22Z</time></trkpt><trkpt lat="43.74369742803794" lon="3.2506937923646406"><ele>736.5</ele><time>2026-03-25T12:18:23Z</time></trkpt><trkpt lat="43.74382517641119" lon="3.2507547431615635"><ele>739.75</ele><time>2026-03-25T12:18:24Z</time></trkpt><trkpt lat="43.74395012771778" lon="3.2508006952267885"><ele>743.0</ele><time>2026-03-25T12:18:25Z</time></trkpt><trkpt lat="43.74407501904183" lon="3.250830463207493"><ele>743.0</ele><time>2026-03-25T12:18:26Z</time></trkpt><trkpt lat="43.74420426031584" lon="3.2508456703713775"><ele>743.0</ele><time>2026-03-25T12:18:27Z</time></trkpt><trkpt lat="43.7443371796547" lon="3.250840731521833"><ele>743.0</ele><time>2026-03-25T12:18:28Z</time></trkpt><trkpt lat="43.74447175443975" lon="3.2508174567723374"><ele>743.0</ele><time>2026-03-25T12:18:29Z</time></trkpt><trkpt lat="43.74460865728874" lon="3.250781175360338"><ele>743.5</ele><time>2026-03-25T12:18:30Z</time></trkpt><trkpt lat="43.74474488732032" lon="3.2507417323307375"><ele>744.0</ele><time>2026-03-25T12:18:31Z</time></trkpt><trkpt lat="43.74487864470326" lon="3.2506978049077615"><ele>744.5</ele><time>2026-03-25T12:18:32Z</time></trkpt><trkpt lat="43.74499934214616" lon="3.2506444886930708"><ele>745.0</ele><time>2026-03-25T12:18:33.001Z</time></trkpt><trkpt lat="43.745108325209536" lon="3.2505728112136962"><ele>745.5</ele><time>2026-03-25T12:18:34.001Z</time></trkpt><trkpt lat="43.74520836929174" lon="3.250475010177567"><ele>746.0</ele><time>2026-03-25T12:18:35.001Z</time></trkpt><trkpt lat="43.745299696513754" lon="3.250354553493246"><ele>746.5</ele><time>2026-03-25T12:18:36.001Z</time></trkpt><trkpt lat="43.74538274734326" lon="3.2502132576575513"><ele>747.0</ele><time>2026-03-25T12:18:37.001Z</time></trkpt><trkpt lat="43.74546116797503" lon="3.2500599772170458"><ele>747.0</ele><time>2026-03-25T12:18:38.001Z</time></trkpt><trkpt lat="43.74552791751263" lon="3.249894760193045"><ele>747.0</ele><time>2026-03-25T12:18:39.001Z</time></trkpt><trkpt lat="43.74557539326583" lon="3.249715153415273"><ele>747.0</ele><time>2026-03-25T12:18:40.001Z</time></trkpt><trkpt lat="43.745603199898845" lon="3.249527263502082"><ele>747.0</ele><time>2026-03-25T12:18:41.001Z</time></trkpt><trkpt lat="43.74560237218281" lon="3.249327121398632"><ele>747.0</ele><time>2026-03-25T12:18:42.001Z</time></trkpt><trkpt lat="43.74559353222073" lon="3.2491263353102577"><ele>747.0</ele><time>2026-03-25T12:18:43.001Z</time></trkpt><trkpt lat="43.74557181795916" lon="3.2489204541946193"><ele>747.0</ele><time>2026-03-25T12:18:44.001Z</time></trkpt><trkpt lat="43.745562993859124" lon="3.2487027953014898"><ele>747.0</ele><time>2026-03-25T12:18:45.001Z</time></trkpt><trkpt lat="43.74557038460184" lon="3.2484811098647226"><ele>747.0</ele><time>2026-03-25T12:18:46.001Z</time></trkpt><trkpt lat="43.74559069695026" lon="3.2482584234348977"><ele>747.0</ele><time>2026-03-25T12:18:47.001Z</time></trkpt><trkpt lat="43.74561989997263" lon="3.2480328989074185"><ele>746.6666666666666</ele><time>2026-03-25T12:18:48.001Z</time></trkpt><trkpt lat="43.74565094084095" lon="3.247805397753487"><ele>746.3333333333333</ele><time>2026-03-25T12:18:49.001Z</time></trkpt><trkpt lat="43.74569182502848" lon="3.2475769929433063"><ele>746.0</ele><time>2026-03-25T12:18:50.001Z</time></trkpt><trkpt lat="43.74573594801004" lon="3.247342975977632"><ele>745.0</ele><time>2026-03-25T12:18:51.001Z</time></trkpt><trkpt lat="43.74577655899326" lon="3.2471116183902597"><ele>744.0</ele><time>2026-03-25T12:18:52.001Z</time></trkpt><trkpt lat="43.74580873551222" lon="3.246896875192006"><ele>743.0</ele><time>2026-03-25T12:18:53.001Z</time></trkpt><trkpt lat="43.745835949725866" lon="3.2466971406856167"><ele>743.0</ele><time>2026-03-25T12:18:54.001Z</time></trkpt><trkpt lat="43.745871387994995" lon="3.246529767458639"><ele>743.0</ele><time>2026-03-25T12:18:55.001Z</time></trkpt><trkpt lat="43.74591913560757" lon="3.2463922036965407"><ele>743.0</ele><time>2026-03-25T12:18:56.001Z</time></trkpt><trkpt lat="43.74597986401632" lon="3.246275424494804"><ele>743.0</ele><time>2026-03-25T12:18:57.001Z</time></trkpt><trkpt lat="43.746060876080456" lon="3.2461750402645686"><ele>743.0</ele><time>2026-03-25T12:18:58.001Z</time></trkpt><trkpt lat="43.74616266910256" lon="3.246101460232394"><ele>742.0</ele><time>2026-03-25T12:18:59.001Z</time></trkpt><trkpt lat="43.74627710679618" lon="3.2460645710819414"><ele>741.0</ele><time>2026-03-25T12:19:00.001Z</time></trkpt><trkpt lat="43.7463939911572" lon="3.246060228495096"><ele>740.0</ele><time>2026-03-25T12:19:01.001Z</time></trkpt><trkpt lat="43.746516039206604" lon="3.2460778607605865"><ele>739.0</ele><time>2026-03-25T12:19:02.001Z</time></trkpt><trkpt lat="43.74664234491581" lon="3.246121733131099"><ele>739.0</ele><time>2026-03-25T12:19:03.001Z</time></trkpt><trkpt lat="43.74677145175735" lon="3.246175588531422"><ele>739.0</ele><time>2026-03-25T12:19:04.001Z</time></trkpt><trkpt lat="43.74690412874965" lon="3.2462260248020924"><ele>739.0</ele><time>2026-03-25T12:19:05.001Z</time></trkpt><trkpt lat="43.74703462787287" lon="3.246263401979323"><ele>739.0</ele><time>2026-03-25T12:19:06.001Z</time></trkpt><trkpt lat="43.747143804531824" lon="3.2462947226421033"><ele>736.0</ele><time>2026-03-25T12:19:07.001Z</time></trkpt><trkpt lat="43.74725180908088" lon="3.24631724397753"><ele>733.0</ele><time>2026-03-25T12:19:08.001Z</time></trkpt><trkpt lat="43.74737111237042" lon="3.2463267334613843"><ele>730.0</ele><time>2026-03-25T12:19:09.001Z</time></trkpt><trkpt lat="43.74749512947626" lon="3.246323852673183"><ele>727.0</ele><time>2026-03-25T12:19:10.001Z</time></trkpt><trkpt lat="43.74761966016149" lon="3.246314820190023"><ele>727.75</ele><time>2026-03-25T12:19:11.001Z</time></trkpt><trkpt lat="43.74774555704645" lon="3.2462929571471726"><ele>728.5</ele><time>2026-03-25T12:19:12.001Z</time></trkpt><trkpt lat="43.747872314814096" lon="3.2462552199050365"><ele>729.25</ele><time>2026-03-25T12:19:13.001Z</time></trkpt><trkpt lat="43.74800273114851" lon="3.2462129576558825"><ele>730.0</ele><time>2026-03-25T12:19:14.001Z</time></trkpt><trkpt lat="43.74813665933107" lon="3.2461774082223673"><ele>730.0</ele><time>2026-03-25T12:19:15.001Z</time></trkpt><trkpt lat="43.74826808726661" lon="3.2461408872936395"><ele>730.0</ele><time>2026-03-25T12:19:16.001Z</time></trkpt><trkpt lat="43.74838809089907" lon="3.2461153801215747"><ele>730.0</ele><time>2026-03-25T12:19:17.001Z</time></trkpt><trkpt lat="43.748500269216194" lon="3.2461019451598725"><ele>730.0</ele><time>2026-03-25T12:19:18.001Z</time></trkpt><trkpt lat="43.748608006577975" lon="3.2461193662881187"><ele>728.5</ele><time>2026-03-25T12:19:19.002Z</time></trkpt><trkpt lat="43.748718763703266" lon="3.2461667106517584"><ele>727.0</ele><time>2026-03-25T12:19:20.002Z</time></trkpt><trkpt lat="43.74882791141826" lon="3.246236765108578"><ele>725.5</ele><time>2026-03-25T12:19:21.002Z</time></trkpt><trkpt lat="43.74893537802441" lon="3.246329463370744"><ele>724.0</ele><time>2026-03-25T12:19:22.002Z</time></trkpt><trkpt lat="43.74904088191332" lon="3.246436062953587"><ele>725.0</ele><time>2026-03-25T12:19:23.002Z</time></trkpt><trkpt lat="43.749146626878115" lon="3.246548098479829"><ele>726.0</ele><time>2026-03-25T12:19:24.002Z</time></trkpt><trkpt lat="43.74925673457595" lon="3.2466584308328783"><ele>727.0</ele><time>2026-03-25T12:19:25.002Z</time></trkpt><trkpt lat="43.74937094713417" lon="3.246768310474136"><ele>728.0</ele><time>2026-03-25T12:19:26.002Z</time></trkpt><trkpt lat="43.74948099591493" lon="3.2468632926421557"><ele>728.0</ele><time>2026-03-25T12:19:27.002Z</time></trkpt><trkpt lat="43.749586716456854" lon="3.2469467346494265"><ele>728.0</ele><time>2026-03-25T12:19:28.002Z</time></trkpt><trkpt lat="43.74969231476939" lon="3.247022912908323"><ele>728.0</ele><time>2026-03-25T12:19:29.002Z</time></trkpt><trkpt lat="43.74979130681512" lon="3.247083138640257"><ele>728.0</ele><time>2026-03-25T12:19:30.002Z</time></trkpt><trkpt lat="43.74988242240818" lon="3.24712544992945"><ele>728.0</ele><time>2026-03-25T12:19:31.002Z</time></trkpt><trkpt lat="43.749959713443516" lon="3.24716519816541"><ele>728.0</ele><time>2026-03-25T12:19:32.002Z</time></trkpt><trkpt lat="43.750027250451815" lon="3.247191644323391"><ele>728.0</ele><time>2026-03-25T12:19:33.002Z</time></trkpt><trkpt lat="43.75009501032855" lon="3.247211768824081"><ele>728.0</ele><time>2026-03-25T12:19:34.002Z</time></trkpt><trkpt lat="43.75017170483668" lon="3.2472269216720675"><ele>728.0</ele><time>2026-03-25T12:19:35.002Z</time></trkpt><trkpt lat="43.75025128491387" lon="3.2472367173036885"><ele>728.0</ele><time>2026-03-25T12:19:36.002Z</time></trkpt><trkpt lat="43.75034329861714" lon="3.247240044280385"><ele>728.0</ele><time>2026-03-25T12:19:37.002Z</time></trkpt><trkpt lat="43.75043921138592" lon="3.2472453965215187"><ele>727.5999999999999</ele><time>2026-03-25T12:19:38.002Z</time></trkpt><trkpt lat="43.750535382513384" lon="3.247246380259463"><ele>727.1999999999999</ele><time>2026-03-25T12:19:39.002Z</time></trkpt><trkpt lat="43.75064165866093" lon="3.2472310456933076"><ele>726.8</ele><time>2026-03-25T12:19:40.002Z</time></trkpt><trkpt lat="43.75075555695987" lon="3.2472123791945346"><ele>726.4</ele><time>2026-03-25T12:19:41.002Z</time></trkpt><trkpt lat="43.750845992813495" lon="3.2471944899835714"><ele>726.0</ele><time>2026-03-25T12:19:42.002Z</time></trkpt><trkpt lat="43.75092779475791" lon="3.2471701142341662"><ele>726.0</ele><time>2026-03-25T12:19:43.002Z</time></trkpt><trkpt lat="43.751019549727566" lon="3.247129539861838"><ele>726.0</ele><time>2026-03-25T12:19:44.002Z</time></trkpt><trkpt lat="43.751118819986644" lon="3.2470803207997454"><ele>726.0</ele><time>2026-03-25T12:19:45.002Z</time></trkpt><trkpt lat="43.751217114329705" lon="3.2470285625594966"><ele>726.0</ele><time>2026-03-25T12:19:46.002Z</time></trkpt><trkpt lat="43.75131953493547" lon="3.246970268098757"><ele>726.0</ele><time>2026-03-25T12:19:47.002Z</time></trkpt><trkpt lat="43.75142988377707" lon="3.2469129117527995"><ele>726.75</ele><time>2026-03-25T12:19:48.002Z</time></trkpt><trkpt lat="43.75154870987575" lon="3.246859208095259"><ele>727.5</ele><time>2026-03-25T12:19:49.002Z</time></trkpt><trkpt lat="43.75167531203754" lon="3.246808591633855"><ele>728.25</ele><time>2026-03-25T12:19:50.002Z</time></trkpt><trkpt lat="43.75180601974602" lon="3.2467658632080685"><ele>729.0</ele><time>2026-03-25T12:19:51.002Z</time></trkpt><trkpt lat="43.75194468964495" lon="3.246730474842305"><ele>729.75</ele><time>2026-03-25T12:19:52.002Z</time></trkpt><trkpt lat="43.752089293199624" lon="3.2467066405252636"><ele>730.5</ele><time>2026-03-25T12:19:53.002Z</time></trkpt><trkpt lat="43.75223107713624" lon="3.2466979966318767"><ele>731.25</ele><time>2026-03-25T12:19:54.002Z</time></trkpt><trkpt lat="43.75237618539877" lon="3.2466974184069937"><ele>732.0</ele><time>2026-03-25T12:19:55.002Z</time></trkpt><trkpt lat="43.75252093287739" lon="3.2466930704952017"><ele>732.0</ele><time>2026-03-25T12:19:56.002Z</time></trkpt><trkpt lat="43.752659345160524" lon="3.246686947923966"><ele>732.0</ele><time>2026-03-25T12:19:57.002Z</time></trkpt><trkpt lat="43.752796268775185" lon="3.246671527261871"><ele>732.0</ele><time>2026-03-25T12:19:58.002Z</time></trkpt><trkpt lat="43.75292907935246" lon="3.2466453989240556"><ele>732.0</ele><time>2026-03-25T12:19:59.002Z</time></trkpt><trkpt lat="43.7530585375075" lon="3.2466066438333194"><ele>731.0</ele><time>2026-03-25T12:20:00.002Z</time></trkpt><trkpt lat="43.75318718961258" lon="3.246558289413808"><ele>730.0</ele><time>2026-03-25T12:20:01Z</time></trkpt><trkpt lat="43.75329313912275" lon="3.246513415740978"><ele>729.0</ele><time>2026-03-25T12:20:02Z</time></trkpt><trkpt lat="43.753398006017534" lon="3.24645108258092"><ele>728.0</ele><time>2026-03-25T12:20:03Z</time></trkpt><trkpt lat="43.753508432960885" lon="3.246380957179221"><ele>728.25</ele><time>2026-03-25T12:20:04Z</time></trkpt><trkpt lat="43.75362510973817" lon="3.246306979374706"><ele>728.5</ele><time>2026-03-25T12:20:05Z</time></trkpt><trkpt lat="43.753747045646016" lon="3.2462309684957984"><ele>728.75</ele><time>2026-03-25T12:20:06Z</time></trkpt><trkpt lat="43.75387579045167" lon="3.2461477722100476"><ele>729.0</ele><time>2026-03-25T12:20:07Z</time></trkpt><trkpt lat="43.754007989304945" lon="3.246060792322865"><ele>729.0</ele><time>2026-03-25T12:20:08Z</time></trkpt><trkpt lat="43.75412869795128" lon="3.2459785584088867"><ele>729.0</ele><time>2026-03-25T12:20:09Z</time></trkpt><trkpt lat="43.754235372620045" lon="3.245900207228336"><ele>729.0</ele><time>2026-03-25T12:20:10Z</time></trkpt><trkpt lat="43.754326185954476" lon="3.2458123377838892"><ele>729.0</ele><time>2026-03-25T12:20:11Z</time></trkpt><trkpt lat="43.75440926784658" lon="3.2457059710905822"><ele>731.75</ele><time>2026-03-25T12:20:12Z</time></trkpt><trkpt lat="43.7544880834736" lon="3.245585221484902"><ele>734.5</ele><time>2026-03-25T12:20:13Z</time></trkpt><trkpt lat="43.75456477938895" lon="3.2454522950892923"><ele>737.25</ele><time>2026-03-25T12:20:14Z</time></trkpt><trkpt lat="43.754639578770224" lon="3.245314077454652"><ele>740.0</ele><time>2026-03-25T12:20:15Z</time></trkpt><trkpt lat="43.754713178203644" lon="3.2451716913527706"><ele>740.0</ele><time>2026-03-25T12:20:16Z</time></trkpt><trkpt lat="43.75478642385729" lon="3.2450306457503166"><ele>740.0</ele><time>2026-03-25T12:20:17Z</time></trkpt><trkpt lat="43.75486054674703" lon="3.2448856833513267"><ele>740.0</ele><time>2026-03-25T12:20:18Z</time></trkpt><trkpt lat="43.75493151026235" lon="3.2447621099382173"><ele>740.0</ele><time>2026-03-25T12:20:19Z</time></trkpt><trkpt lat="43.755005306299324" lon="3.2446544321808246"><ele>738.5</ele><time>2026-03-25T12:20:20Z</time></trkpt><trkpt lat="43.75508695342798" lon="3.2445595672287015"><ele>737.0</ele><time>2026-03-25T12:20:21Z</time></trkpt><trkpt lat="43.75517850346547" lon="3.2444754357913417"><ele>735.5</ele><time>2026-03-25T12:20:22Z</time></trkpt><trkpt lat="43.75528053102523" lon="3.2444008486483824"><ele>734.0</ele><time>2026-03-25T12:20:23.001Z</time></trkpt><trkpt lat="43.75539226305211" lon="3.244341846415726"><ele>734.0</ele><time>2026-03-25T12:20:24.001Z</time></trkpt><trkpt lat="43.75551474275877" lon="3.2443024562993337"><ele>734.0</ele><time>2026-03-25T12:20:25.001Z</time></trkpt><trkpt lat="43.75564571415326" lon="3.2442773272412215"><ele>734.0</ele><time>2026-03-25T12:20:26.001Z</time></trkpt><trkpt lat="43.75578337590944" lon="3.2442659891353527"><ele>734.0</ele><time>2026-03-25T12:20:27.001Z</time></trkpt><trkpt lat="43.75592064717518" lon="3.2442566867869886"><ele>734.8000000000001</ele><time>2026-03-25T12:20:28.001Z</time></trkpt><trkpt lat="43.75604561148781" lon="3.244241168614997"><ele>735.6</ele><time>2026-03-25T12:20:29.001Z</time></trkpt><trkpt lat="43.756156515949634" lon="3.244219327952839"><ele>736.4</ele><time>2026-03-25T12:20:30.001Z</time></trkpt><trkpt lat="43.75625370597384" lon="3.244193918298922"><ele>737.2</ele><time>2026-03-25T12:20:31.001Z</time></trkpt><trkpt lat="43.756339937779885" lon="3.2441536060666527"><ele>738.0</ele><time>2026-03-25T12:20:32.001Z</time></trkpt><trkpt lat="43.75642680595205" lon="3.24409785098804"><ele>738.0</ele><time>2026-03-25T12:20:33.001Z</time></trkpt><trkpt lat="43.7565110149235" lon="3.2440190203497754"><ele>738.0</ele><time>2026-03-25T12:20:34.001Z</time></trkpt><trkpt lat="43.75659013939025" lon="3.2439197881857385"><ele>738.0</ele><time>2026-03-25T12:20:35.001Z</time></trkpt><trkpt lat="43.75666336427724" lon="3.24380543616067"><ele>738.0</ele><time>2026-03-25T12:20:36.001Z</time></trkpt><trkpt lat="43.75672692480206" lon="3.243678516277783"><ele>738.0</ele><time>2026-03-25T12:20:37.001Z</time></trkpt><trkpt lat="43.75678245312641" lon="3.243534836485915"><ele>738.25</ele><time>2026-03-25T12:20:38.001Z</time></trkpt><trkpt lat="43.75683605794374" lon="3.2433800146452696"><ele>738.5</ele><time>2026-03-25T12:20:39.001Z</time></trkpt><trkpt lat="43.756891338372306" lon="3.243221564969978"><ele>738.75</ele><time>2026-03-25T12:20:40.001Z</time></trkpt><trkpt lat="43.75694513857949" lon="3.2430653268021787"><ele>739.0</ele><time>2026-03-25T12:20:41.001Z</time></trkpt><trkpt lat="43.75697503914136" lon="3.242923866238006"><ele>744.0</ele><time>2026-03-25T12:20:42.001Z</time></trkpt><trkpt lat="43.75698991462863" lon="3.242780408799996"><ele>749.0</ele><time>2026-03-25T12:20:43.001Z</time></trkpt><trkpt lat="43.75699469627883" lon="3.2426397534003075"><ele>754.0</ele><time>2026-03-25T12:20:44.001Z</time></trkpt><trkpt lat="43.75699357167992" lon="3.242492769052968"><ele>759.0</ele><time>2026-03-25T12:20:45.001Z</time></trkpt><trkpt lat="43.756987861960994" lon="3.242344726909558"><ele>764.0</ele><time>2026-03-25T12:20:46.001Z</time></trkpt><trkpt lat="43.75697379349249" lon="3.2421953972744797"><ele>765.0</ele><time>2026-03-25T12:20:47.001Z</time></trkpt><trkpt lat="43.756955404053755" lon="3.242036129650503"><ele>766.0</ele><time>2026-03-25T12:20:48.001Z</time></trkpt><trkpt lat="43.75693777966293" lon="3.24186995099873"><ele>767.0</ele><time>2026-03-25T12:20:49.001Z</time></trkpt><trkpt lat="43.756920693407174" lon="3.2416948048326453"><ele>768.0</ele><time>2026-03-25T12:20:50.001Z</time></trkpt><trkpt lat="43.75690349134083" lon="3.2415178869061423"><ele>767.2</ele><time>2026-03-25T12:20:51.001Z</time></trkpt><trkpt lat="43.7568812017514" lon="3.24134096362437"><ele>766.4</ele><time>2026-03-25T12:20:52.001Z</time></trkpt><trkpt lat="43.75686074938037" lon="3.241180752015967"><ele>765.6</ele><time>2026-03-25T12:20:53.001Z</time></trkpt><trkpt lat="43.756853118084976" lon="3.241040151138806"><ele>764.8000000000001</ele><time>2026-03-25T12:20:54.001Z</time></trkpt><trkpt lat="43.7568565584343" lon="3.2409149633381578"><ele>764.0</ele><time>2026-03-25T12:20:55.001Z</time></trkpt><trkpt lat="43.7568801665914" lon="3.2408112598719914"><ele>764.0</ele><time>2026-03-25T12:20:56.001Z</time></trkpt><trkpt lat="43.75691611838709" lon="3.24072673271978"><ele>764.0</ele><time>2026-03-25T12:20:57.001Z</time></trkpt><trkpt lat="43.75697271784035" lon="3.240663679743728"><ele>764.0</ele><time>2026-03-25T12:20:58.001Z</time></trkpt><trkpt lat="43.75704474750082" lon="3.2406206782030087"><ele>764.0</ele><time>2026-03-25T12:20:59.001Z</time></trkpt><trkpt lat="43.75712176113942" lon="3.2406061991368995"><ele>764.0</ele><time>2026-03-25T12:21:00.001Z</time></trkpt><trkpt lat="43.757201306323935" lon="3.240624999801185"><ele>764.0</ele><time>2026-03-25T12:21:01.001Z</time></trkpt><trkpt lat="43.757282060252834" lon="3.240671962040415"><ele>764.0</ele><time>2026-03-25T12:21:02.001Z</time></trkpt><trkpt lat="43.757369542270446" lon="3.240743203000237"><ele>764.0</ele><time>2026-03-25T12:21:03.001Z</time></trkpt><trkpt lat="43.75746882571182" lon="3.2408202769955454"><ele>764.0</ele><time>2026-03-25T12:21:04.001Z</time></trkpt><trkpt lat="43.757578358348354" lon="3.240900123281788"><ele>764.0</ele><time>2026-03-25T12:21:05.001Z</time></trkpt><trkpt lat="43.75769534012019" lon="3.2409864372050152"><ele>765.0</ele><time>2026-03-25T12:21:06.001Z</time></trkpt><trkpt lat="43.75781422936742" lon="3.241077924677074"><ele>766.0</ele><time>2026-03-25T12:21:07.001Z</time></trkpt><trkpt lat="43.757927231428745" lon="3.2411614387513814"><ele>767.0</ele><time>2026-03-25T12:21:08.001Z</time></trkpt><trkpt lat="43.75803802625911" lon="3.241236471648885"><ele>768.0</ele><time>2026-03-25T12:21:09.001Z</time></trkpt><trkpt lat="43.75814388400229" lon="3.2413189440578996"><ele>768.0</ele><time>2026-03-25T12:21:10.001Z</time></trkpt><trkpt lat="43.75825373794652" lon="3.2413943921774293"><ele>768.0</ele><time>2026-03-25T12:21:11.001Z</time></trkpt><trkpt lat="43.75836069163558" lon="3.2414677423169636"><ele>768.0</ele><time>2026-03-25T12:21:12.001Z</time></trkpt><trkpt lat="43.758469395175396" lon="3.2415355346034413"><ele>768.0</ele><time>2026-03-25T12:21:13.001Z</time></trkpt><trkpt lat="43.75858170190324" lon="3.2415935911102594"><ele>771.25</ele><time>2026-03-25T12:21:14.001Z</time></trkpt><trkpt lat="43.758699793071976" lon="3.241640094814881"><ele>774.5</ele><time>2026-03-25T12:21:15.001Z</time></trkpt><trkpt lat="43.75882248753611" lon="3.241673579154351"><ele>777.75</ele><time>2026-03-25T12:21:16.001Z</time></trkpt><trkpt lat="43.75894964547584" lon="3.2416911617140975"><ele>781.0</ele><time>2026-03-25T12:21:17.001Z</time></trkpt><trkpt lat="43.75907880302402" lon="3.241681845428261"><ele>781.0</ele><time>2026-03-25T12:21:18.002Z</time></trkpt><trkpt lat="43.75920629084879" lon="3.2416460621094694"><ele>781.0</ele><time>2026-03-25T12:21:19.002Z</time></trkpt><trkpt lat="43.75933060688446" lon="3.2415895890492434"><ele>781.0</ele><time>2026-03-25T12:21:20.002Z</time></trkpt><trkpt lat="43.75945712487701" lon="3.241513608315854"><ele>781.0</ele><time>2026-03-25T12:21:21.002Z</time></trkpt><trkpt lat="43.759585566095105" lon="3.241414879576731"><ele>783.0</ele><time>2026-03-25T12:21:22.002Z</time></trkpt><trkpt lat="43.759719700410045" lon="3.241297237116739"><ele>785.0</ele><time>2026-03-25T12:21:23.002Z</time></trkpt><trkpt lat="43.75986006111152" lon="3.2411677791028146"><ele>787.0</ele><time>2026-03-25T12:21:24.002Z</time></trkpt><trkpt lat="43.759997795506514" lon="3.241036838858405"><ele>787.0</ele><time>2026-03-25T12:21:25.002Z</time></trkpt><trkpt lat="43.76012913249915" lon="3.240910862405139"><ele>787.0</ele><time>2026-03-25T12:21:26.002Z</time></trkpt><trkpt lat="43.76026212107623" lon="3.2407844165360915"><ele>787.0</ele><time>2026-03-25T12:21:27.002Z</time></trkpt><trkpt lat="43.76039764218033" lon="3.240659242352295"><ele>787.3333333333333</ele><time>2026-03-25T12:21:28.002Z</time></trkpt><trkpt lat="43.76053377561325" lon="3.2405309659850894"><ele>787.6666666666667</ele><time>2026-03-25T12:21:29.002Z</time></trkpt><trkpt lat="43.760668192017796" lon="3.2404013873010364"><ele>788.0</ele><time>2026-03-25T12:21:30.002Z</time></trkpt><trkpt lat="43.76079046935093" lon="3.240271634299798"><ele>788.0</ele><time>2026-03-25T12:21:31.002Z</time></trkpt><trkpt lat="43.76089890445072" lon="3.240133620772013"><ele>788.0</ele><time>2026-03-25T12:21:32.002Z</time></trkpt><trkpt lat="43.76099993036495" lon="3.2399843029184336"><ele>788.0</ele><time>2026-03-25T12:21:33.002Z</time></trkpt><trkpt lat="43.76109202565321" lon="3.239821153218325"><ele>788.0</ele><time>2026-03-25T12:21:34.002Z</time></trkpt><trkpt lat="43.761176687955206" lon="3.2396422229950685"><ele>791.0</ele><time>2026-03-25T12:21:35.002Z</time></trkpt><trkpt lat="43.76125209177203" lon="3.2394513601970045"><ele>794.0</ele><time>2026-03-25T12:21:36.002Z</time></trkpt><trkpt lat="43.7613181682455" lon="3.239250685386263"><ele>797.0</ele><time>2026-03-25T12:21:37.002Z</time></trkpt><trkpt lat="43.761372805004996" lon="3.239039935236594"><ele>795.3333333333334</ele><time>2026-03-25T12:21:38.002Z</time></trkpt><trkpt lat="43.76141974884815" lon="3.238816372001203"><ele>793.6666666666667</ele><time>2026-03-25T12:21:39.002Z</time></trkpt><trkpt lat="43.7614580107606" lon="3.2385812990979717"><ele>792.0</ele><time>2026-03-25T12:21:40.002Z</time></trkpt><trkpt lat="43.76149614142078" lon="3.2383447998499313"><ele>791.6666666666667</ele><time>2026-03-25T12:21:41.002Z</time></trkpt><trkpt lat="43.761531832805986" lon="3.238118969543982"><ele>791.3333333333334</ele><time>2026-03-25T12:21:42.002Z</time></trkpt><trkpt lat="43.76156773411612" lon="3.2379123861582406"><ele>791.0</ele><time>2026-03-25T12:21:43.002Z</time></trkpt><trkpt lat="43.76161135561567" lon="3.2377272085908424"><ele>791.0</ele><time>2026-03-25T12:21:44.002Z</time></trkpt><trkpt lat="43.76166620796732" lon="3.23755675911784"><ele>791.0</ele><time>2026-03-25T12:21:45.002Z</time></trkpt><trkpt lat="43.761730769425576" lon="3.2373904870311887"><ele>791.0</ele><time>2026-03-25T12:21:46.002Z</time></trkpt><trkpt lat="43.761806701360285" lon="3.2372253101948663"><ele>791.0</ele><time>2026-03-25T12:21:47.002Z</time></trkpt><trkpt lat="43.76188875538821" lon="3.2370535970127348"><ele>790.75</ele><time>2026-03-25T12:21:48.002Z</time></trkpt><trkpt lat="43.761970593845234" lon="3.236874295093545"><ele>790.5</ele><time>2026-03-25T12:21:49.002Z</time></trkpt><trkpt lat="43.76204653429296" lon="3.236693951596175"><ele>790.25</ele><time>2026-03-25T12:21:50.002Z</time></trkpt><trkpt lat="43.76211678653485" lon="3.236520512693529"><ele>790.0</ele><time>2026-03-25T12:21:51.002Z</time></trkpt><trkpt lat="43.762178517618985" lon="3.2363472547012786"><ele>789.25</ele><time>2026-03-25T12:21:52.002Z</time></trkpt><trkpt lat="43.76223318961222" lon="3.2361745928357832"><ele>788.5</ele><time>2026-03-25T12:21:53.002Z</time></trkpt><trkpt lat="43.7622724378483" lon="3.2360037383616165"><ele>787.75</ele><time>2026-03-25T12:21:54.002Z</time></trkpt><trkpt lat="43.76229380472428" lon="3.2358266501800843"><ele>787.0</ele><time>2026-03-25T12:21:55.002Z</time></trkpt><trkpt lat="43.76230402461351" lon="3.2356469535007597"><ele>786.5</ele><time>2026-03-25T12:21:56.002Z</time></trkpt><trkpt lat="43.762303840424806" lon="3.2354641761261003"><ele>786.0</ele><time>2026-03-25T12:21:57.002Z</time></trkpt><trkpt lat="43.7623015587624" lon="3.2352805315565125"><ele>785.5</ele><time>2026-03-25T12:21:58.002Z</time></trkpt><trkpt lat="43.76230614273524" lon="3.235101754698712"><ele>785.0</ele><time>2026-03-25T12:21:59.002Z</time></trkpt><trkpt lat="43.76232431190756" lon="3.2349402285584046"><ele>782.8</ele><time>2026-03-25T12:22:00.002Z</time></trkpt><trkpt lat="43.76235664588608" lon="3.2347945740469775"><ele>780.6</ele><time>2026-03-25T12:22:01.002Z</time></trkpt><trkpt lat="43.76240725410107" lon="3.234672096082366"><ele>778.4000000000001</ele><time>2026-03-25T12:22:02.002Z</time></trkpt><trkpt lat="43.76247823769725" lon="3.2345751695616043"><ele>776.2</ele><time>2026-03-25T12:22:03.002Z</time></trkpt><trkpt lat="43.76256433634362" lon="3.2345116330658743"><ele>774.0</ele><time>2026-03-25T12:22:04.002Z</time></trkpt><trkpt lat="43.76266064742049" lon="3.234479584140099"><ele>770.75</ele><time>2026-03-25T12:22:05.002Z</time></trkpt><trkpt lat="43.76276541333336" lon="3.2344863894309404"><ele>767.5</ele><time>2026-03-25T12:22:06.002Z</time></trkpt><trkpt lat="43.76287599836757" lon="3.234519157222085"><ele>764.25</ele><time>2026-03-25T12:22:07.001Z</time></trkpt><trkpt lat="43.762976219679814" lon="3.234606188386851"><ele>761.0</ele><time>2026-03-25T12:22:08.001Z</time></trkpt><trkpt lat="43.7630841292127" lon="3.2346947323110236"><ele>761.0</ele><time>2026-03-25T12:22:09.001Z</time></trkpt><trkpt lat="43.76320162761202" lon="3.234784170862974"><ele>761.0</ele><time>2026-03-25T12:22:10.001Z</time></trkpt><trkpt lat="43.763325993544605" lon="3.2348605320228776"><ele>761.0</ele><time>2026-03-25T12:22:11.001Z</time></trkpt><trkpt lat="43.76345838759797" lon="3.2349454575241965"><ele>761.0</ele><time>2026-03-25T12:22:12.001Z</time></trkpt><trkpt lat="43.763606820216474" lon="3.2350279765660863"><ele>766.6666666666666</ele><time>2026-03-25T12:22:13.001Z</time></trkpt><trkpt lat="43.76376034357415" lon="3.2351075059844505"><ele>772.3333333333333</ele><time>2026-03-25T12:22:14.001Z</time></trkpt><trkpt lat="43.76392072398861" lon="3.235193055103417"><ele>778.0</ele><time>2026-03-25T12:22:15.001Z</time></trkpt><trkpt lat="43.76408201047739" lon="3.2352793710700776"><ele>778.0</ele><time>2026-03-25T12:22:16.001Z</time></trkpt><trkpt lat="43.764246280497524" lon="3.2353588589405753"><ele>778.0</ele><time>2026-03-25T12:22:17.001Z</time></trkpt><trkpt lat="43.76441348629145" lon="3.2354246562538913"><ele>778.0</ele><time>2026-03-25T12:22:18.001Z</time></trkpt><trkpt lat="43.76458493737479" lon="3.2354752049251814"><ele>774.6666666666666</ele><time>2026-03-25T12:22:19.001Z</time></trkpt><trkpt lat="43.76475722205791" lon="3.235516356648376"><ele>771.3333333333333</ele><time>2026-03-25T12:22:20.001Z</time></trkpt><trkpt lat="43.764929828250395" lon="3.235550276262134"><ele>768.0</ele><time>2026-03-25T12:22:21.001Z</time></trkpt><trkpt lat="43.765100518148" lon="3.235579943036494"><ele>768.3333333333333</ele><time>2026-03-25T12:22:22.001Z</time></trkpt><trkpt lat="43.76526171956821" lon="3.2355992482836617"><ele>768.6666666666666</ele><time>2026-03-25T12:22:23.001Z</time></trkpt><trkpt lat="43.76541356923197" lon="3.2355995266753657"><ele>769.0</ele><time>2026-03-25T12:22:24.001Z</time></trkpt><trkpt lat="43.7655650881329" lon="3.2355751160595165"><ele>769.0</ele><time>2026-03-25T12:22:25.001Z</time></trkpt><trkpt lat="43.76571729844435" lon="3.235540606727145"><ele>769.0</ele><time>2026-03-25T12:22:26.001Z</time></trkpt><trkpt lat="43.76586746735795" lon="3.235493554098087"><ele>769.0</ele><time>2026-03-25T12:22:27.001Z</time></trkpt><trkpt lat="43.76600653362012" lon="3.235437824429574"><ele>769.25</ele><time>2026-03-25T12:22:28.001Z</time></trkpt><trkpt lat="43.76613529305632" lon="3.2353882048165477"><ele>769.5</ele><time>2026-03-25T12:22:29.001Z</time></trkpt><trkpt lat="43.76625731547105" lon="3.2353645713298618"><ele>769.75</ele><time>2026-03-25T12:22:30.001Z</time></trkpt><trkpt lat="43.76638448626848" lon="3.235373906963228"><ele>770.0</ele><time>2026-03-25T12:22:31.001Z</time></trkpt><trkpt lat="43.766510599679386" lon="3.2354028078185837"><ele>770.0</ele><time>2026-03-25T12:22:32.001Z</time></trkpt><trkpt lat="43.766636744245176" lon="3.235459099436081"><ele>770.0</ele><time>2026-03-25T12:22:33.001Z</time></trkpt><trkpt lat="43.76675655558783" lon="3.235536469132428"><ele>770.0</ele><time>2026-03-25T12:22:34.001Z</time></trkpt><trkpt lat="43.76687564091303" lon="3.2356399947863115"><ele>770.0</ele><time>2026-03-25T12:22:35.001Z</time></trkpt><trkpt lat="43.76699404658955" lon="3.2357617830062764"><ele>772.6666666666667</ele><time>2026-03-25T12:22:36.001Z</time></trkpt><trkpt lat="43.76711478712799" lon="3.2358928657080015"><ele>775.3333333333333</ele><time>2026-03-25T12:22:37.001Z</time></trkpt><trkpt lat="43.76724294798388" lon="3.2360305212210103"><ele>778.0</ele><time>2026-03-25T12:22:38.001Z</time></trkpt><trkpt lat="43.76736756095066" lon="3.2361868169250814"><ele>778.0</ele><time>2026-03-25T12:22:39.001Z</time></trkpt><trkpt lat="43.76750325799595" lon="3.2363054348838687"><ele>778.0</ele><time>2026-03-25T12:22:40.001Z</time></trkpt><trkpt lat="43.767638155584095" lon="3.236384942053036"><ele>778.0</ele><time>2026-03-25T12:22:41.001Z</time></trkpt><trkpt lat="43.76776199581173" lon="3.236466932924812"><ele>778.0</ele><time>2026-03-25T12:22:42.001Z</time></trkpt><trkpt lat="43.767884515491694" lon="3.2365248007548395"><ele>781.5</ele><time>2026-03-25T12:22:43.001Z</time></trkpt><trkpt lat="43.76801704908602" lon="3.236556017862553"><ele>785.0</ele><time>2026-03-25T12:22:44.001Z</time></trkpt><trkpt lat="43.76815186200914" lon="3.2365631257528595"><ele>788.5</ele><time>2026-03-25T12:22:45.001Z</time></trkpt><trkpt lat="43.76828970784738" lon="3.2365523060868666"><ele>792.0</ele><time>2026-03-25T12:22:46.001Z</time></trkpt><trkpt lat="43.76843060648502" lon="3.2365278445715435"><ele>792.3333333333333</ele><time>2026-03-25T12:22:47.001Z</time></trkpt><trkpt lat="43.76857853763159" lon="3.2365042884827213"><ele>792.6666666666666</ele><time>2026-03-25T12:22:48.001Z</time></trkpt><trkpt lat="43.768733574471035" lon="3.2364821518790245"><ele>793.0</ele><time>2026-03-25T12:22:49.001Z</time></trkpt><trkpt lat="43.768895134417534" lon="3.236461152312638"><ele>788.6666666666666</ele><time>2026-03-25T12:22:50.001Z</time></trkpt><trkpt lat="43.76906466124834" lon="3.2364397856888445"><ele>784.3333333333333</ele><time>2026-03-25T12:22:51.001Z</time></trkpt><trkpt lat="43.76923923579495" lon="3.2364134416701495"><ele>780.0</ele><time>2026-03-25T12:22:52.001Z</time></trkpt><trkpt lat="43.76941653306542" lon="3.2363836489348037"><ele>780.0</ele><time>2026-03-25T12:22:53.001Z</time></trkpt><trkpt lat="43.76959647902004" lon="3.2363516704231143"><ele>780.0</ele><time>2026-03-25T12:22:54.001Z</time></trkpt><trkpt lat="43.76977819056781" lon="3.236319177836254"><ele>780.0</ele><time>2026-03-25T12:22:55.001Z</time></trkpt><trkpt lat="43.76995798824464" lon="3.236290207061764"><ele>780.0</ele><time>2026-03-25T12:22:56.001Z</time></trkpt><trkpt lat="43.77013467442575" lon="3.236265410084531"><ele>780.0</ele><time>2026-03-25T12:22:57.001Z</time></trkpt><trkpt lat="43.77029832295338" lon="3.2362464639647466"><ele>780.0</ele><time>2026-03-25T12:22:58.001Z</time></trkpt><trkpt lat="43.77044974982179" lon="3.2362341980886478"><ele>780.75</ele><time>2026-03-25T12:22:59.001Z</time></trkpt><trkpt lat="43.77058574012628" lon="3.2362376749444377"><ele>781.5</ele><time>2026-03-25T12:23:00.001Z</time></trkpt><trkpt lat="43.770718924175185" lon="3.2362611348174024"><ele>782.25</ele><time>2026-03-25T12:23:01.001Z</time></trkpt><trkpt lat="43.77085063125027" lon="3.2363061221910145"><ele>783.0</ele><time>2026-03-25T12:23:02.001Z</time></trkpt><trkpt lat="43.7709813631807" lon="3.2363692714532335"><ele>783.75</ele><time>2026-03-25T12:23:03.001Z</time></trkpt><trkpt lat="43.7711113213612" lon="3.2364430562811712"><ele>784.5</ele><time>2026-03-25T12:23:04.001Z</time></trkpt><trkpt lat="43.77124228552539" lon="3.2365279425814752"><ele>785.25</ele><time>2026-03-25T12:23:05.001Z</time></trkpt><trkpt lat="43.77137028751684" lon="3.2366270362787555"><ele>786.0</ele><time>2026-03-25T12:23:06.001Z</time></trkpt><trkpt lat="43.771496668105314" lon="3.236736305672209"><ele>786.0</ele><time>2026-03-25T12:23:07.001Z</time></trkpt><trkpt lat="43.771623858194" lon="3.236852016309509"><ele>786.0</ele><time>2026-03-25T12:23:08.001Z</time></trkpt><trkpt lat="43.77173885539299" lon="3.2369979321659357"><ele>786.0</ele><time>2026-03-25T12:23:09.001Z</time></trkpt><trkpt lat="43.77184874960087" lon="3.237122449128927"><ele>785.25</ele><time>2026-03-25T12:23:10.001Z</time></trkpt><trkpt lat="43.77194768961954" lon="3.2372486502445885"><ele>784.5</ele><time>2026-03-25T12:23:11.001Z</time></trkpt><trkpt lat="43.77203304897169" lon="3.237386822884599"><ele>783.75</ele><time>2026-03-25T12:23:12.001Z</time></trkpt><trkpt lat="43.77210617739323" lon="3.2375389736506093"><ele>783.0</ele><time>2026-03-25T12:23:13.001Z</time></trkpt><trkpt lat="43.772171816615604" lon="3.2377058189173864"><ele>783.0</ele><time>2026-03-25T12:23:14.001Z</time></trkpt><trkpt lat="43.77222639321368" lon="3.237892105143895"><ele>783.0</ele><time>2026-03-25T12:23:15.001Z</time></trkpt><trkpt lat="43.7722758872908" lon="3.2380907254630533"><ele>783.0</ele><time>2026-03-25T12:23:16.001Z</time></trkpt><trkpt lat="43.772331079595745" lon="3.238297326700314"><ele>784.6666666666667</ele><time>2026-03-25T12:23:17.001Z</time></trkpt><trkpt lat="43.772402224199396" lon="3.238495320199669"><ele>786.3333333333334</ele><time>2026-03-25T12:23:18.001Z</time></trkpt><trkpt lat="43.772491520271494" lon="3.2386844945482682"><ele>788.0</ele><time>2026-03-25T12:23:19.001Z</time></trkpt><trkpt lat="43.77259224404652" lon="3.2388615656251605"><ele>787.6666666666667</ele><time>2026-03-25T12:23:20.001Z</time></trkpt><trkpt lat="43.77269520819547" lon="3.239028692703024"><ele>787.3333333333333</ele><time>2026-03-25T12:23:21.001Z</time></trkpt><trkpt lat="43.772808247173536" lon="3.23918847192371"><ele>787.0</ele><time>2026-03-25T12:23:22.002Z</time></trkpt><trkpt lat="43.77292395293614" lon="3.2393388360942463"><ele>787.0</ele><time>2026-03-25T12:23:23.002Z</time></trkpt><trkpt lat="43.77304386856091" lon="3.239473324420373"><ele>787.0</ele><time>2026-03-25T12:23:24.002Z</time></trkpt><trkpt lat="43.77316801798713" lon="3.23959105764773"><ele>787.0</ele><time>2026-03-25T12:23:25.002Z</time></trkpt><trkpt lat="43.77329847953555" lon="3.23967153993252"><ele>787.0</ele><time>2026-03-25T12:23:26.002Z</time></trkpt><trkpt lat="43.77341823801743" lon="3.2397479451550293"><ele>787.75</ele><time>2026-03-25T12:23:27.002Z</time></trkpt><trkpt lat="43.773544903658" lon="3.239805205400368"><ele>788.5</ele><time>2026-03-25T12:23:28.002Z</time></trkpt><trkpt lat="43.77367675306405" lon="3.2398450266688"><ele>789.25</ele><time>2026-03-25T12:23:29.002Z</time></trkpt><trkpt lat="43.77380949346259" lon="3.2398728047618874"><ele>790.0</ele><time>2026-03-25T12:23:30.002Z</time></trkpt><trkpt lat="43.77394225890579" lon="3.239883636218853"><ele>790.0</ele><time>2026-03-25T12:23:31.002Z</time></trkpt><trkpt lat="43.77407401747642" lon="3.239883209798703"><ele>790.0</ele><time>2026-03-25T12:23:32.002Z</time></trkpt><trkpt lat="43.774201437044425" lon="3.2398700548330055"><ele>790.0</ele><time>2026-03-25T12:23:33.002Z</time></trkpt><trkpt lat="43.77431850261158" lon="3.2398399367256463"><ele>790.0</ele><time>2026-03-25T12:23:34.002Z</time></trkpt><trkpt lat="43.77442531142329" lon="3.239784422957476"><ele>790.2</ele><time>2026-03-25T12:23:35.002Z</time></trkpt><trkpt lat="43.774534974311095" lon="3.2397201204859583"><ele>790.4</ele><time>2026-03-25T12:23:36.002Z</time></trkpt><trkpt lat="43.77462916986082" lon="3.2396507907390855"><ele>790.5999999999999</ele><time>2026-03-25T12:23:37.002Z</time></trkpt><trkpt lat="43.77472100591984" lon="3.239576070678173"><ele>790.8</ele><time>2026-03-25T12:23:38.002Z</time></trkpt><trkpt lat="43.77482104279644" lon="3.239498688532325"><ele>791.0</ele><time>2026-03-25T12:23:39.002Z</time></trkpt><trkpt lat="43.7749279373891" lon="3.2394173844512455"><ele>791.0</ele><time>2026-03-25T12:23:40.002Z</time></trkpt><trkpt lat="43.77504107645488" lon="3.2393343428643777"><ele>791.0</ele><time>2026-03-25T12:23:41.002Z</time></trkpt><trkpt lat="43.77515712377613" lon="3.2392498226777966"><ele>791.0</ele><time>2026-03-25T12:23:42.002Z</time></trkpt><trkpt lat="43.77527871532826" lon="3.2391656553923647"><ele>791.0</ele><time>2026-03-25T12:23:43.002Z</time></trkpt><trkpt lat="43.775402431032276" lon="3.2390774774367896"><ele>791.5</ele><time>2026-03-25T12:23:44.002Z</time></trkpt><trkpt lat="43.77552528783166" lon="3.238989818698804"><ele>792.0</ele><time>2026-03-25T12:23:45.002Z</time></trkpt><trkpt lat="43.77564980540923" lon="3.238901562898616"><ele>792.5</ele><time>2026-03-25T12:23:46.002Z</time></trkpt><trkpt lat="43.77577157631679" lon="3.238812706691976"><ele>793.0</ele><time>2026-03-25T12:23:47.002Z</time></trkpt><trkpt lat="43.77588978887083" lon="3.2387273069790394"><ele>793.0</ele><time>2026-03-25T12:23:48.002Z</time></trkpt><trkpt lat="43.77599149198714" lon="3.238643638273555"><ele>793.0</ele><time>2026-03-25T12:23:49.002Z</time></trkpt><trkpt lat="43.77608610890715" lon="3.23855872180571"><ele>793.0</ele><time>2026-03-25T12:23:50.002Z</time></trkpt><trkpt lat="43.77618081763453" lon="3.238473604546498"><ele>793.0</ele><time>2026-03-25T12:23:51.002Z</time></trkpt><trkpt lat="43.77627409596635" lon="3.2383953435582455"><ele>794.4</ele><time>2026-03-25T12:23:52.002Z</time></trkpt><trkpt lat="43.77636886746404" lon="3.238321959387663"><ele>795.8</ele><time>2026-03-25T12:23:53.002Z</time></trkpt><trkpt lat="43.77646710890888" lon="3.2382562896027767"><ele>797.2</ele><time>2026-03-25T12:23:54.002Z</time></trkpt><trkpt lat="43.7765698056783" lon="3.2382034571323652"><ele>798.6</ele><time>2026-03-25T12:23:55.002Z</time></trkpt><trkpt lat="43.77667807698284" lon="3.238164361740939"><ele>800.0</ele><time>2026-03-25T12:23:56.002Z</time></trkpt><trkpt lat="43.77679088632773" lon="3.2381377646901046"><ele>796.5</ele><time>2026-03-25T12:23:57.002Z</time></trkpt><trkpt lat="43.77690706303015" lon="3.2381226753923413"><ele>793.0</ele><time>2026-03-25T12:23:58.002Z</time></trkpt><trkpt lat="43.77702557706636" lon="3.238113596223693"><ele>789.5</ele><time>2026-03-25T12:23:59.002Z</time></trkpt><trkpt lat="43.77714202132475" lon="3.2381058352977856"><ele>786.0</ele><time>2026-03-25T12:24:00.002Z</time></trkpt><trkpt lat="43.777246572738" lon="3.2381137266523"><ele>786.0</ele><time>2026-03-25T12:24:01.002Z</time></trkpt><trkpt lat="43.77734284962773" lon="3.238134893432466"><ele>786.0</ele><time>2026-03-25T12:24:02.002Z</time></trkpt><trkpt lat="43.777433827780975" lon="3.2381837145362224"><ele>786.0</ele><time>2026-03-25T12:24:03.002Z</time></trkpt><trkpt lat="43.77752292550056" lon="3.2382623822448346"><ele>786.0</ele><time>2026-03-25T12:24:04.002Z</time></trkpt><trkpt lat="43.77759001945292" lon="3.238383422619285"><ele>786.0</ele><time>2026-03-25T12:24:05.002Z</time></trkpt><trkpt lat="43.777663581011865" lon="3.2385052736017563"><ele>788.25</ele><time>2026-03-25T12:24:06.002Z</time></trkpt><trkpt lat="43.777741591321835" lon="3.2386247720799397"><ele>790.5</ele><time>2026-03-25T12:24:07.002Z</time></trkpt><trkpt lat="43.77782925714241" lon="3.238723027563113"><ele>792.75</ele><time>2026-03-25T12:24:08.002Z</time></trkpt><trkpt lat="43.77793185812393" lon="3.2387791078735138"><ele>795.0</ele><time>2026-03-25T12:24:09.002Z</time></trkpt><trkpt lat="43.7780329355585" lon="3.238841892769197"><ele>795.0</ele><time>2026-03-25T12:24:10.002Z</time></trkpt><trkpt lat="43.778140210311655" lon="3.2388899073613793"><ele>795.0</ele><time>2026-03-25T12:24:11.002Z</time></trkpt><trkpt lat="43.77825231196572" lon="3.238925855606172"><ele>795.0</ele><time>2026-03-25T12:24:12.002Z</time></trkpt><trkpt lat="43.77836918265099" lon="3.2389458052994673"><ele>795.0</ele><time>2026-03-25T12:24:13.001Z</time></trkpt><trkpt lat="43.77848748146474" lon="3.2389555583278566"><ele>796.0</ele><time>2026-03-25T12:24:14.001Z</time></trkpt><trkpt lat="43.77860444938633" lon="3.2389518306578706"><ele>797.0</ele><time>2026-03-25T12:24:15.001Z</time></trkpt><trkpt lat="43.77871663037828" lon="3.2389346873967813"><ele>798.0</ele><time>2026-03-25T12:24:16.001Z</time></trkpt><trkpt lat="43.77883435680897" lon="3.2389197208435663"><ele>799.0</ele><time>2026-03-25T12:24:17.001Z</time></trkpt><trkpt lat="43.778954744408416" lon="3.2389062407404494"><ele>799.0</ele><time>2026-03-25T12:24:18.001Z</time></trkpt><trkpt lat="43.77907663601707" lon="3.2388937404909317"><ele>799.0</ele><time>2026-03-25T12:24:19.001Z</time></trkpt><trkpt lat="43.77919732811969" lon="3.238882841655689"><ele>799.0</ele><time>2026-03-25T12:24:20.001Z</time></trkpt><trkpt lat="43.779305326381255" lon="3.2388833475069796"><ele>799.0</ele><time>2026-03-25T12:24:21.001Z</time></trkpt><trkpt lat="43.77940648723113" lon="3.2388945388365595"><ele>800.0</ele><time>2026-03-25T12:24:22.001Z</time></trkpt><trkpt lat="43.77950600265254" lon="3.238922695814447"><ele>801.0</ele><time>2026-03-25T12:24:23.001Z</time></trkpt><trkpt lat="43.77960535235366" lon="3.238963689424497"><ele>802.0</ele><time>2026-03-25T12:24:24.001Z</time></trkpt><trkpt lat="43.77970541393395" lon="3.2390231997797034"><ele>803.0</ele><time>2026-03-25T12:24:25.001Z</time></trkpt><trkpt lat="43.779802068434705" lon="3.2390966117476214"><ele>804.0</ele><time>2026-03-25T12:24:26.001Z</time></trkpt><trkpt lat="43.77989357294566" lon="3.239189496011874"><ele>804.0</ele><time>2026-03-25T12:24:27.001Z</time></trkpt><trkpt lat="43.779966064181544" lon="3.23931701677916"><ele>804.0</ele><time>2026-03-25T12:24:28.001Z</time></trkpt><trkpt lat="43.780045403335656" lon="3.2394491292708834"><ele>804.0</ele><time>2026-03-25T12:24:29.001Z</time></trkpt><trkpt lat="43.78012192765943" lon="3.23958998139015"><ele>804.0</ele><time>2026-03-25T12:24:30.001Z</time></trkpt><trkpt lat="43.780207366195334" lon="3.2397340785871176"><ele>805.5</ele><time>2026-03-25T12:24:31.001Z</time></trkpt><trkpt lat="43.780299550508225" lon="3.239877118857526"><ele>807.0</ele><time>2026-03-25T12:24:32.001Z</time></trkpt><trkpt lat="43.78040911071478" lon="3.2400043228741757"><ele>808.5</ele><time>2026-03-25T12:24:33.001Z</time></trkpt><trkpt lat="43.780505346557646" lon="3.2401442291696987"><ele>810.0</ele><time>2026-03-25T12:24:34.001Z</time></trkpt><trkpt lat="43.78059436810907" lon="3.2402704064633383"><ele>810.0</ele><time>2026-03-25T12:24:35.001Z</time></trkpt><trkpt lat="43.78067948498726" lon="3.2403741589041744"><ele>810.0</ele><time>2026-03-25T12:24:36.001Z</time></trkpt><trkpt lat="43.780747255141804" lon="3.2404874170837243"><ele>810.0</ele><time>2026-03-25T12:24:37.001Z</time></trkpt><trkpt lat="43.78082932248087" lon="3.2405878721277026"><ele>810.0</ele><time>2026-03-25T12:24:38.001Z</time></trkpt><trkpt lat="43.78091569644997" lon="3.2406890691090555"><ele>810.0</ele><time>2026-03-25T12:24:39.001Z</time></trkpt><trkpt lat="43.78101439451018" lon="3.240773980799748"><ele>810.5</ele><time>2026-03-25T12:24:40.001Z</time></trkpt><trkpt lat="43.781110908850614" lon="3.2408662529174976"><ele>811.0</ele><time>2026-03-25T12:24:41.001Z</time></trkpt><trkpt lat="43.78121346793713" lon="3.2409612902092224"><ele>811.5</ele><time>2026-03-25T12:24:42.001Z</time></trkpt><trkpt lat="43.78131807896776" lon="3.2410613727444644"><ele>812.0</ele><time>2026-03-25T12:24:43.001Z</time></trkpt><trkpt lat="43.78143168984805" lon="3.2411566632585846"><ele>812.0</ele><time>2026-03-25T12:24:44.001Z</time></trkpt><trkpt lat="43.7815482452062" lon="3.2412547677851986"><ele>812.0</ele><time>2026-03-25T12:24:45.001Z</time></trkpt><trkpt lat="43.78166982224171" lon="3.241349650697112"><ele>812.0</ele><time>2026-03-25T12:24:46.001Z</time></trkpt><trkpt lat="43.781792358215135" lon="3.2414547316143514"><ele>812.0</ele><time>2026-03-25T12:24:47.001Z</time></trkpt><trkpt lat="43.7819187094972" lon="3.2415615220614358"><ele>812.5</ele><time>2026-03-25T12:24:48.001Z</time></trkpt><trkpt lat="43.78204491444663" lon="3.2416703627603374"><ele>813.0</ele><time>2026-03-25T12:24:49.001Z</time></trkpt><trkpt lat="43.78216037547146" lon="3.241770028148314"><ele>813.5</ele><time>2026-03-25T12:24:50.001Z</time></trkpt><trkpt lat="43.78226557267279" lon="3.2418546320203157"><ele>814.0</ele><time>2026-03-25T12:24:51.001Z</time></trkpt><trkpt lat="43.78236873752383" lon="3.241924886492972"><ele>814.0</ele><time>2026-03-25T12:24:52.001Z</time></trkpt><trkpt lat="43.78247226413085" lon="3.2419821070685133"><ele>814.0</ele><time>2026-03-25T12:24:53.001Z</time></trkpt><trkpt lat="43.78258390734419" lon="3.2420186120177936"><ele>814.0</ele><time>2026-03-25T12:24:54.001Z</time></trkpt><trkpt lat="43.78270327680009" lon="3.242033404753234"><ele>814.0</ele><time>2026-03-25T12:24:55.001Z</time></trkpt><trkpt lat="43.78283089420283" lon="3.242031355232616"><ele>814.5</ele><time>2026-03-25T12:24:56.001Z</time></trkpt><trkpt lat="43.782966391456156" lon="3.242021886366116"><ele>815.0</ele><time>2026-03-25T12:24:57.001Z</time></trkpt><trkpt lat="43.78310916476104" lon="3.2420098762812275"><ele>815.5</ele><time>2026-03-25T12:24:58.001Z</time></trkpt><trkpt lat="43.7832569876955" lon="3.2419896084400004"><ele>816.0</ele><time>2026-03-25T12:24:59.001Z</time></trkpt><trkpt lat="43.78340834077012" lon="3.241966587706487"><ele>816.0</ele><time>2026-03-25T12:25:00.001Z</time></trkpt><trkpt lat="43.78356583960009" lon="3.241942841372022"><ele>816.0</ele><time>2026-03-25T12:25:01.001Z</time></trkpt><trkpt lat="43.78372331804059" lon="3.241915529242335"><ele>816.0</ele><time>2026-03-25T12:25:02.001Z</time></trkpt><trkpt lat="43.78387840061602" lon="3.2418877806536774"><ele>816.0</ele><time>2026-03-25T12:25:03.001Z</time></trkpt><trkpt lat="43.78402288224468" lon="3.2418644760174176"><ele>816.0</ele><time>2026-03-25T12:25:04.001Z</time></trkpt><trkpt lat="43.784153298751" lon="3.2418443889664044"><ele>816.0</ele><time>2026-03-25T12:25:05.001Z</time></trkpt><trkpt lat="43.78426934606291" lon="3.241834710458214"><ele>816.0</ele><time>2026-03-25T12:25:06.001Z</time></trkpt><trkpt lat="43.78437610758371" lon="3.24184845871084"><ele>817.25</ele><time>2026-03-25T12:25:07.001Z</time></trkpt><trkpt lat="43.78448653257835" lon="3.241879700987323"><ele>818.5</ele><time>2026-03-25T12:25:08.001Z</time></trkpt><trkpt lat="43.78459317550204" lon="3.2419362013315385"><ele>819.75</ele><time>2026-03-25T12:25:09.001Z</time></trkpt><trkpt lat="43.78469499222128" lon="3.242010092178454"><ele>821.0</ele><time>2026-03-25T12:25:10.001Z</time></trkpt><trkpt lat="43.784799607490676" lon="3.2420944043510667"><ele>821.0</ele><time>2026-03-25T12:25:11.001Z</time></trkpt><trkpt lat="43.78490939497265" lon="3.242191447223047"><ele>821.0</ele><time>2026-03-25T12:25:12.001Z</time></trkpt><trkpt lat="43.78502465465003" lon="3.2422930626710245"><ele>821.0</ele><time>2026-03-25T12:25:13.001Z</time></trkpt><trkpt lat="43.78514906972737" lon="3.242392715634015"><ele>821.0</ele><time>2026-03-25T12:25:14.001Z</time></trkpt><trkpt lat="43.78527459614115" lon="3.2424964154766664"><ele>822.6666666666667</ele><time>2026-03-25T12:25:15.001Z</time></trkpt><trkpt lat="43.78541264389053" lon="3.2425971275680268"><ele>824.3333333333333</ele><time>2026-03-25T12:25:16.001Z</time></trkpt><trkpt lat="43.785560246267934" lon="3.2426881334284166"><ele>826.0</ele><time>2026-03-25T12:25:17.001Z</time></trkpt><trkpt lat="43.785709728109936" lon="3.2427761811980167"><ele>826.0</ele><time>2026-03-25T12:25:18.001Z</time></trkpt><trkpt lat="43.78585849728924" lon="3.2428548847736933"><ele>826.0</ele><time>2026-03-25T12:25:19.001Z</time></trkpt><trkpt lat="43.78600660689676" lon="3.242923424255855"><ele>826.0</ele><time>2026-03-25T12:25:20.001Z</time></trkpt><trkpt lat="43.78614978507469" lon="3.2429860344190415"><ele>825.5</ele><time>2026-03-25T12:25:21.001Z</time></trkpt><trkpt lat="43.786295945053425" lon="3.2430305803606445"><ele>825.0</ele><time>2026-03-25T12:25:22.001Z</time></trkpt><trkpt lat="43.78644202159199" lon="3.2430670245932247"><ele>824.5</ele><time>2026-03-25T12:25:23.001Z</time></trkpt><trkpt lat="43.786587845330935" lon="3.2431069493776743"><ele>824.0</ele><time>2026-03-25T12:25:24.001Z</time></trkpt><trkpt lat="43.78674037403627" lon="3.2431426306323234"><ele>823.3333333333334</ele><time>2026-03-25T12:25:25.001Z</time></trkpt><trkpt lat="43.786893783231044" lon="3.2431792743344827"><ele>822.6666666666667</ele><time>2026-03-25T12:25:26.001Z</time></trkpt><trkpt lat="43.78704576497453" lon="3.2432245639354513"><ele>822.0</ele><time>2026-03-25T12:25:27.001Z</time></trkpt><trkpt lat="43.78719659028323" lon="3.2432773418648475"><ele>822.0</ele><time>2026-03-25T12:25:28.001Z</time></trkpt><trkpt lat="43.78734559522131" lon="3.243334236409947"><ele>822.0</ele><time>2026-03-25T12:25:29.001Z</time></trkpt><trkpt lat="43.78749276780884" lon="3.2433902137272264"><ele>822.0</ele><time>2026-03-25T12:25:30.001Z</time></trkpt><trkpt lat="43.78763755842405" lon="3.2434434919371973"><ele>820.25</ele><time>2026-03-25T12:25:31.001Z</time></trkpt><trkpt lat="43.7877794096296" lon="3.2434897855134817"><ele>818.5</ele><time>2026-03-25T12:25:32.001Z</time></trkpt><trkpt lat="43.7879179630742" lon="3.2435345730562126"><ele>816.75</ele><time>2026-03-25T12:25:33.001Z</time></trkpt><trkpt lat="43.78805722389275" lon="3.243566394272421"><ele>815.0</ele><time>2026-03-25T12:25:34.001Z</time></trkpt><trkpt lat="43.78819088234008" lon="3.243574434376177"><ele>815.0</ele><time>2026-03-25T12:25:35.001Z</time></trkpt><trkpt lat="43.788322379333565" lon="3.2435614012956187"><ele>815.0</ele><time>2026-03-25T12:25:36.001Z</time></trkpt><trkpt lat="43.78845640342731" lon="3.2435467269987353"><ele>815.0</ele><time>2026-03-25T12:25:37.001Z</time></trkpt><trkpt lat="43.78858506362399" lon="3.2435391763411485"><ele>815.0</ele><time>2026-03-25T12:25:38.002Z</time></trkpt><trkpt lat="43.788714771055936" lon="3.2435396417994333"><ele>813.75</ele><time>2026-03-25T12:25:39.002Z</time></trkpt><trkpt lat="43.788839040280145" lon="3.243541472869325"><ele>812.5</ele><time>2026-03-25T12:25:40.002Z</time></trkpt><trkpt lat="43.78895141750692" lon="3.2435646708363963"><ele>811.25</ele><time>2026-03-25T12:25:41.002Z</time></trkpt><trkpt lat="43.78906163443053" lon="3.2436095181938627"><ele>810.0</ele><time>2026-03-25T12:25:42.002Z</time></trkpt><trkpt lat="43.789163175858825" lon="3.2437013078203067"><ele>810.0</ele><time>2026-03-25T12:25:43.002Z</time></trkpt><trkpt lat="43.78926719555915" lon="3.2437947788040895"><ele>810.0</ele><time>2026-03-25T12:25:44.002Z</time></trkpt><trkpt lat="43.78937405753879" lon="3.243900118278435"><ele>810.0</ele><time>2026-03-25T12:25:45.002Z</time></trkpt><trkpt lat="43.78949385274807" lon="3.243993529775724"><ele>810.0</ele><time>2026-03-25T12:25:46.002Z</time></trkpt><trkpt lat="43.78960978311285" lon="3.2441000002957416"><ele>809.6</ele><time>2026-03-25T12:25:47.002Z</time></trkpt><trkpt lat="43.78972089338746" lon="3.2441784138541725"><ele>809.2</ele><time>2026-03-25T12:25:48.002Z</time></trkpt><trkpt lat="43.7898112437497" lon="3.244225495973892"><ele>808.8</ele><time>2026-03-25T12:25:49.002Z</time></trkpt><trkpt lat="43.78990943967804" lon="3.2442667837572414"><ele>808.4</ele><time>2026-03-25T12:25:50.002Z</time></trkpt><trkpt lat="43.790011111461276" lon="3.244311410992076"><ele>808.0</ele><time>2026-03-25T12:25:51.002Z</time></trkpt><trkpt lat="43.79011836894622" lon="3.24435778936372"><ele>808.5999999999999</ele><time>2026-03-25T12:25:52.002Z</time></trkpt><trkpt lat="43.790224775712964" lon="3.244397488427349"><ele>809.1999999999999</ele><time>2026-03-25T12:25:53.002Z</time></trkpt><trkpt lat="43.79032137168331" lon="3.2444183045998924"><ele>809.8</ele><time>2026-03-25T12:25:54.002Z</time></trkpt><trkpt lat="43.790411943089055" lon="3.2444191011973764"><ele>810.4</ele><time>2026-03-25T12:25:55.002Z</time></trkpt><trkpt lat="43.790499811428234" lon="3.244396123710856"><ele>811.0</ele><time>2026-03-25T12:25:56.002Z</time></trkpt><trkpt lat="43.79058133901574" lon="3.2443557939948264"><ele>811.0</ele><time>2026-03-25T12:25:57.002Z</time></trkpt><trkpt lat="43.79066040535719" lon="3.244301998663964"><ele>811.0</ele><time>2026-03-25T12:25:58.002Z</time></trkpt><trkpt lat="43.79074046198317" lon="3.244241165871803"><ele>811.0</ele><time>2026-03-25T12:25:59.002Z</time></trkpt><trkpt lat="43.79082673528936" lon="3.2441730631685015"><ele>811.0</ele><time>2026-03-25T12:26:00.002Z</time></trkpt><trkpt lat="43.790916906991576" lon="3.244105635278785"><ele>811.0</ele><time>2026-03-25T12:26:01.002Z</time></trkpt><trkpt lat="43.79101313624195" lon="3.2440382039520363"><ele>812.5</ele><time>2026-03-25T12:26:02.002Z</time></trkpt><trkpt lat="43.79111240031728" lon="3.24396636657047"><ele>814.0</ele><time>2026-03-25T12:26:03.002Z</time></trkpt><trkpt lat="43.79121598429042" lon="3.24389616456034"><ele>815.5</ele><time>2026-03-25T12:26:04.002Z</time></trkpt><trkpt lat="43.7913209314117" lon="3.2438258523037597"><ele>817.0</ele><time>2026-03-25T12:26:05.002Z</time></trkpt><trkpt lat="43.79142366789686" lon="3.243749538400893"><ele>817.0</ele><time>2026-03-25T12:26:06.002Z</time></trkpt><trkpt lat="43.79152240407323" lon="3.2436619845097296"><ele>817.0</ele><time>2026-03-25T12:26:07.002Z</time></trkpt><trkpt lat="43.791617918886345" lon="3.2435593058144487"><ele>817.0</ele><time>2026-03-25T12:26:08.002Z</time></trkpt><trkpt lat="43.79171311803727" lon="3.2434463088600016"><ele>817.0</ele><time>2026-03-25T12:26:09.002Z</time></trkpt><trkpt lat="43.791805057825464" lon="3.2433223493794445"><ele>817.0</ele><time>2026-03-25T12:26:10.002Z</time></trkpt><trkpt lat="43.79189403294324" lon="3.243189526824396"><ele>817.0</ele><time>2026-03-25T12:26:11.002Z</time></trkpt><trkpt lat="43.791983232083965" lon="3.243050241795786"><ele>817.0</ele><time>2026-03-25T12:26:12.002Z</time></trkpt><trkpt lat="43.79207317523203" lon="3.2429131567058525"><ele>817.0</ele><time>2026-03-25T12:26:13.002Z</time></trkpt><trkpt lat="43.79216281983978" lon="3.2427866998753205"><ele>817.5</ele><time>2026-03-25T12:26:14.002Z</time></trkpt><trkpt lat="43.792246172397924" lon="3.2426782194074564"><ele>818.0</ele><time>2026-03-25T12:26:15.002Z</time></trkpt><trkpt lat="43.79233169949656" lon="3.2425792729620673"><ele>818.5</ele><time>2026-03-25T12:26:16.002Z</time></trkpt><trkpt lat="43.792428274060185" lon="3.2424945690209754"><ele>819.0</ele><time>2026-03-25T12:26:17.002Z</time></trkpt><trkpt lat="43.792532306738366" lon="3.242421572055855"><ele>819.0</ele><time>2026-03-25T12:26:18.002Z</time></trkpt><trkpt lat="43.79264261233363" lon="3.242361230327586"><ele>819.0</ele><time>2026-03-25T12:26:19.001Z</time></trkpt><trkpt lat="43.792763300157596" lon="3.2423108486572914"><ele>819.0</ele><time>2026-03-25T12:26:20.001Z</time></trkpt><trkpt lat="43.79289262329017" lon="3.2422680803950783"><ele>819.0</ele><time>2026-03-25T12:26:21.001Z</time></trkpt><trkpt lat="43.793029517288915" lon="3.242235286006431"><ele>822.3333333333333</ele><time>2026-03-25T12:26:22.001Z</time></trkpt><trkpt lat="43.79317360394888" lon="3.2422121200970464"><ele>825.6666666666666</ele><time>2026-03-25T12:26:23.001Z</time></trkpt><trkpt lat="43.793325771032265" lon="3.242199106605536"><ele>829.0</ele><time>2026-03-25T12:26:24.001Z</time></trkpt><trkpt lat="43.79348129179715" lon="3.242189659827787"><ele>829.3333333333333</ele><time>2026-03-25T12:26:25.001Z</time></trkpt><trkpt lat="43.79363969391737" lon="3.2421776197719456"><ele>829.6666666666667</ele><time>2026-03-25T12:26:26.001Z</time></trkpt><trkpt lat="43.79380285292285" lon="3.242164410190738"><ele>830.0</ele><time>2026-03-25T12:26:27.001Z</time></trkpt><trkpt lat="43.79396696177889" lon="3.242149819288499"><ele>830.0</ele><time>2026-03-25T12:26:28.001Z</time></trkpt><trkpt lat="43.79413272780275" lon="3.2421329717534415"><ele>830.0</ele><time>2026-03-25T12:26:29.001Z</time></trkpt><trkpt lat="43.794298833126" lon="3.242111070211787"><ele>830.0</ele><time>2026-03-25T12:26:30.001Z</time></trkpt><trkpt lat="43.794463449223436" lon="3.2420846783825183"><ele>830.25</ele><time>2026-03-25T12:26:31.001Z</time></trkpt><trkpt lat="43.79462316805464" lon="3.242059474921207"><ele>830.5</ele><time>2026-03-25T12:26:32.001Z</time></trkpt><trkpt lat="43.79476601202982" lon="3.2420384292787503"><ele>830.75</ele><time>2026-03-25T12:26:33.001Z</time></trkpt><trkpt lat="43.79489336042256" lon="3.2420218071331974"><ele>831.0</ele><time>2026-03-25T12:26:34.001Z</time></trkpt><trkpt lat="43.795007764946966" lon="3.2420083027972417"><ele>831.0</ele><time>2026-03-25T12:26:35.001Z</time></trkpt><trkpt lat="43.795112646639" lon="3.2419968094743066"><ele>831.0</ele><time>2026-03-25T12:26:36.001Z</time></trkpt><trkpt lat="43.79521430639598" lon="3.2419822370706264"><ele>831.0</ele><time>2026-03-25T12:26:37.001Z</time></trkpt><trkpt lat="43.795309627929534" lon="3.2419592630562635"><ele>831.0</ele><time>2026-03-25T12:26:38.001Z</time></trkpt><trkpt lat="43.795397677562974" lon="3.241929675801111"><ele>831.0</ele><time>2026-03-25T12:26:39.001Z</time></trkpt><trkpt lat="43.795478280179985" lon="3.241894155496898"><ele>830.3333333333334</ele><time>2026-03-25T12:26:40.001Z</time></trkpt><trkpt lat="43.7955545506047" lon="3.2418574709415666"><ele>829.6666666666667</ele><time>2026-03-25T12:26:41.001Z</time></trkpt><trkpt lat="43.79562543392675" lon="3.2418266915264327"><ele>829.0</ele><time>2026-03-25T12:26:42.001Z</time></trkpt><trkpt lat="43.79569302294088" lon="3.241799621990284"><ele>828.3333333333334</ele><time>2026-03-25T12:26:43.001Z</time></trkpt><trkpt lat="43.795761320161965" lon="3.24177512996314"><ele>827.6666666666667</ele><time>2026-03-25T12:26:44.001Z</time></trkpt><trkpt lat="43.79584429817939" lon="3.2417502283787196"><ele>827.0</ele><time>2026-03-25T12:26:45.001Z</time></trkpt><trkpt lat="43.795937852414994" lon="3.24172268310514"><ele>828.0</ele><time>2026-03-25T12:26:46.001Z</time></trkpt><trkpt lat="43.796041524858154" lon="3.2416948495299183"><ele>829.0</ele><time>2026-03-25T12:26:47.001Z</time></trkpt><trkpt lat="43.79615592482372" lon="3.241662075031258"><ele>830.0</ele><time>2026-03-25T12:26:48.001Z</time></trkpt><trkpt lat="43.79627715031616" lon="3.2416231979750196"><ele>831.0</ele><time>2026-03-25T12:26:49.001Z</time></trkpt><trkpt lat="43.7964068565709" lon="3.24158413844133"><ele>831.0</ele><time>2026-03-25T12:26:50.001Z</time></trkpt><trkpt lat="43.79654079519476" lon="3.2415425799270103"><ele>831.0</ele><time>2026-03-25T12:26:51.001Z</time></trkpt><trkpt lat="43.79667837588736" lon="3.241507053371317"><ele>831.0</ele><time>2026-03-25T12:26:52.001Z</time></trkpt><trkpt lat="43.79681231232976" lon="3.2414712427121724"><ele>831.0</ele><time>2026-03-25T12:26:53.001Z</time></trkpt><trkpt lat="43.79693526561197" lon="3.241432306589749"><ele>828.0</ele><time>2026-03-25T12:26:54.001Z</time></trkpt><trkpt lat="43.7970619696642" lon="3.24139692296841"><ele>825.0</ele><time>2026-03-25T12:26:55.001Z</time></trkpt><trkpt lat="43.797195621277595" lon="3.2413767475159587"><ele>822.0</ele><time>2026-03-25T12:26:56.001Z</time></trkpt><trkpt lat="43.79733346754965" lon="3.2413662319004897"><ele>819.0</ele><time>2026-03-25T12:26:57.001Z</time></trkpt><trkpt lat="43.79747538603181" lon="3.24136232660375"><ele>819.0</ele><time>2026-03-25T12:26:58.001Z</time></trkpt><trkpt lat="43.79761817603732" lon="3.2413641231124397"><ele>819.0</ele><time>2026-03-25T12:26:59.001Z</time></trkpt><trkpt lat="43.79776347176991" lon="3.241367441046132"><ele>819.0</ele><time>2026-03-25T12:27:00.001Z</time></trkpt><trkpt lat="43.79790807490854" lon="3.241379993496298"><ele>819.0</ele><time>2026-03-25T12:27:01.001Z</time></trkpt><trkpt lat="43.79804700615355" lon="3.2413970428796524"><ele>820.0</ele><time>2026-03-25T12:27:02.001Z</time></trkpt><trkpt lat="43.798169337573725" lon="3.241414229831381"><ele>821.0</ele><time>2026-03-25T12:27:03.001Z</time></trkpt><trkpt lat="43.798276831596525" lon="3.2414098242487475"><ele>822.0</ele><time>2026-03-25T12:27:04.001Z</time></trkpt><trkpt lat="43.7983748817302" lon="3.2413716190818147"><ele>823.0</ele><time>2026-03-25T12:27:05.001Z</time></trkpt><trkpt lat="43.79846926121423" lon="3.2412950077589326"><ele>824.0</ele><time>2026-03-25T12:27:06.001Z</time></trkpt><trkpt lat="43.79856115046675" lon="3.241195443891276"><ele>827.0</ele><time>2026-03-25T12:27:07.001Z</time></trkpt><trkpt lat="43.79865558668872" lon="3.241083993026102"><ele>830.0</ele><time>2026-03-25T12:27:08.001Z</time></trkpt><trkpt lat="43.79875919223152" lon="3.2409742822664707"><ele>833.0</ele><time>2026-03-25T12:27:09.001Z</time></trkpt><trkpt lat="43.79887252984173" lon="3.240867839006817"><ele>836.0</ele><time>2026-03-25T12:27:10.001Z</time></trkpt><trkpt lat="43.79899074637716" lon="3.2407657810715946"><ele>836.0</ele><time>2026-03-25T12:27:11.001Z</time></trkpt><trkpt lat="43.799108806646075" lon="3.2406587060476237"><ele>836.0</ele><time>2026-03-25T12:27:12.001Z</time></trkpt><trkpt lat="43.79921223484619" lon="3.2405454066708534"><ele>836.0</ele><time>2026-03-25T12:27:13.001Z</time></trkpt><trkpt lat="43.799298828049196" lon="3.2404180456730436"><ele>836.0</ele><time>2026-03-25T12:27:14.001Z</time></trkpt><trkpt lat="43.79937092773397" lon="3.240288038083961"><ele>835.25</ele><time>2026-03-25T12:27:15.001Z</time></trkpt><trkpt lat="43.7994409300522" lon="3.240162897973791"><ele>834.5</ele><time>2026-03-25T12:27:16.001Z</time></trkpt><trkpt lat="43.799521884381186" lon="3.2400544640278155"><ele>833.75</ele><time>2026-03-25T12:27:17.001Z</time></trkpt><trkpt lat="43.799616792650205" lon="3.239969786434669"><ele>833.0</ele><time>2026-03-25T12:27:18.001Z</time></trkpt><trkpt lat="43.799717374972694" lon="3.2399012042510993"><ele>833.0</ele><time>2026-03-25T12:27:19.001Z</time></trkpt><trkpt lat="43.79982159292536" lon="3.2398453039294033"><ele>833.0</ele><time>2026-03-25T12:27:20.001Z</time></trkpt><trkpt lat="43.79993118040333" lon="3.239830544905685"><ele>833.0</ele><time>2026-03-25T12:27:21.001Z</time></trkpt><trkpt lat="43.80004534053729" lon="3.239856954841225"><ele>833.0</ele><time>2026-03-25T12:27:22.001Z</time></trkpt><trkpt lat="43.800156215684545" lon="3.23991583533356"><ele>831.25</ele><time>2026-03-25T12:27:23.001Z</time></trkpt><trkpt lat="43.800261974564194" lon="3.240003347590925"><ele>829.5</ele><time>2026-03-25T12:27:24.001Z</time></trkpt><trkpt lat="43.800351349865466" lon="3.2401225650906724"><ele>827.75</ele><time>2026-03-25T12:27:25.001Z</time></trkpt><trkpt lat="43.800441015608584" lon="3.240253885992592"><ele>826.0</ele><time>2026-03-25T12:27:26.001Z</time></trkpt><trkpt lat="43.800531217663945" lon="3.240386496758343"><ele>826.0</ele><time>2026-03-25T12:27:27.001Z</time></trkpt><trkpt lat="43.80062497416934" lon="3.2404895036679298"><ele>826.0</ele><time>2026-03-25T12:27:28.001Z</time></trkpt><trkpt lat="43.80072137595677" lon="3.240570715896278"><ele>826.0</ele><time>2026-03-25T12:27:29.001Z</time></trkpt><trkpt lat="43.8008305276586" lon="3.240608496129433"><ele>826.0</ele><time>2026-03-25T12:27:30.001Z</time></trkpt><trkpt lat="43.80093725626973" lon="3.240640482280729"><ele>825.75</ele><time>2026-03-25T12:27:31.001Z</time></trkpt><trkpt lat="43.80105015300919" lon="3.240647393601443"><ele>825.5</ele><time>2026-03-25T12:27:32.001Z</time></trkpt><trkpt lat="43.80116460730554" lon="3.2406277788177076"><ele>825.25</ele><time>2026-03-25T12:27:33.001Z</time></trkpt><trkpt lat="43.801275120437644" lon="3.240584026757337"><ele>825.0</ele><time>2026-03-25T12:27:34.001Z</time></trkpt><trkpt lat="43.80137830695267" lon="3.240545220824502"><ele>825.0</ele><time>2026-03-25T12:27:35.001Z</time></trkpt><trkpt lat="43.801476879226236" lon="3.240542525415173"><ele>825.0</ele><time>2026-03-25T12:27:36.001Z</time></trkpt><trkpt lat="43.80157462400708" lon="3.240588647127206"><ele>825.0</ele><time>2026-03-25T12:27:37.001Z</time></trkpt><trkpt lat="43.80166772567303" lon="3.2406633365683977"><ele>825.0</ele><time>2026-03-25T12:27:38.001Z</time></trkpt><trkpt lat="43.8017380644983" lon="3.2407822585617354"><ele>825.0</ele><time>2026-03-25T12:27:39.001Z</time></trkpt><trkpt lat="43.80178976832883" lon="3.240911969296766"><ele>826.5</ele><time>2026-03-25T12:27:40.001Z</time></trkpt><trkpt lat="43.80181515737573" lon="3.2410536361827353"><ele>828.0</ele><time>2026-03-25T12:27:41.001Z</time></trkpt><trkpt lat="43.80182727274396" lon="3.241207091497618"><ele>829.5</ele><time>2026-03-25T12:27:42.001Z</time></trkpt><trkpt lat="43.801808125616816" lon="3.241358145695756"><ele>831.0</ele><time>2026-03-25T12:27:43.001Z</time></trkpt><trkpt lat="43.801782784779256" lon="3.2415250681146235"><ele>831.25</ele><time>2026-03-25T12:27:44.001Z</time></trkpt><trkpt lat="43.80176284328398" lon="3.2416895622966395"><ele>831.5</ele><time>2026-03-25T12:27:45.001Z</time></trkpt><trkpt lat="43.80175674967321" lon="3.241866163132601"><ele>831.75</ele><time>2026-03-25T12:27:46.001Z</time></trkpt><trkpt lat="43.80176394774945" lon="3.242036597027061"><ele>832.0</ele><time>2026-03-25T12:27:47.001Z</time></trkpt><trkpt lat="43.801809470236726" lon="3.2422003862143365"><ele>830.5</ele><time>2026-03-25T12:27:48.001Z</time></trkpt><trkpt lat="43.80188762848269" lon="3.2423259115022818"><ele>829.0</ele><time>2026-03-25T12:27:49.001Z</time></trkpt><trkpt lat="43.801972179546866" lon="3.2424416689559163"><ele>827.5</ele><time>2026-03-25T12:27:50.001Z</time></trkpt><trkpt lat="43.802068061258716" lon="3.2425413180380107"><ele>826.0</ele><time>2026-03-25T12:27:51.001Z</time></trkpt><trkpt lat="43.802171056732504" lon="3.242634653910657"><ele>826.0</ele><time>2026-03-25T12:27:52.001Z</time></trkpt><trkpt lat="43.802269806432534" lon="3.2427515827373563"><ele>826.0</ele><time>2026-03-25T12:27:53.001Z</time></trkpt><trkpt lat="43.802391205188584" lon="3.24283238407551"><ele>826.0</ele><time>2026-03-25T12:27:54.002Z</time></trkpt><trkpt lat="43.802509018705" lon="3.2429315312256994"><ele>826.0</ele><time>2026-03-25T12:27:55.002Z</time></trkpt><trkpt lat="43.80263049321465" lon="3.2430282447781758"><ele>825.75</ele><time>2026-03-25T12:27:56.002Z</time></trkpt><trkpt lat="43.80275659024565" lon="3.243120101513403"><ele>825.5</ele><time>2026-03-25T12:27:57.002Z</time></trkpt><trkpt lat="43.80288395684509" lon="3.243223783089088"><ele>825.25</ele><time>2026-03-25T12:27:58.002Z</time></trkpt><trkpt lat="43.80301115604395" lon="3.243340590271489"><ele>825.0</ele><time>2026-03-25T12:27:59.002Z</time></trkpt><trkpt lat="43.803137653289966" lon="3.2434632025323906"><ele>825.0</ele><time>2026-03-25T12:28:00.002Z</time></trkpt><trkpt lat="43.803265700280974" lon="3.243586538324224"><ele>825.0</ele><time>2026-03-25T12:28:01.002Z</time></trkpt><trkpt lat="43.80339777882607" lon="3.243705790695897"><ele>825.0</ele><time>2026-03-25T12:28:02.002Z</time></trkpt><trkpt lat="43.80352817609627" lon="3.243815755859652"><ele>825.3333333333333</ele><time>2026-03-25T12:28:03.002Z</time></trkpt><trkpt lat="43.80366344476853" lon="3.2439189146473857"><ele>825.6666666666666</ele><time>2026-03-25T12:28:04.002Z</time></trkpt><trkpt lat="43.80380886308495" lon="3.2440190066834904"><ele>826.0</ele><time>2026-03-25T12:28:05.002Z</time></trkpt><trkpt lat="43.80395937268608" lon="3.2441148029126756"><ele>826.0</ele><time>2026-03-25T12:28:06.002Z</time></trkpt><trkpt lat="43.80411508356575" lon="3.244211278930304"><ele>826.0</ele><time>2026-03-25T12:28:07.002Z</time></trkpt><trkpt lat="43.80427435910906" lon="3.2443075383090685"><ele>826.0</ele><time>2026-03-25T12:28:08.002Z</time></trkpt><trkpt lat="43.80443759765667" lon="3.244405534095708"><ele>826.6666666666666</ele><time>2026-03-25T12:28:09.002Z</time></trkpt><trkpt lat="43.80460363697514" lon="3.2445101173494915"><ele>827.3333333333333</ele><time>2026-03-25T12:28:10.002Z</time></trkpt><trkpt lat="43.804769942368765" lon="3.2446138254545454"><ele>828.0</ele><time>2026-03-25T12:28:11.002Z</time></trkpt><trkpt lat="43.804936587726914" lon="3.2447188775462044"><ele>828.3333333333333</ele><time>2026-03-25T12:28:12.002Z</time></trkpt><trkpt lat="43.80509994000967" lon="3.244829626390172"><ele>828.6666666666666</ele><time>2026-03-25T12:28:13.002Z</time></trkpt><trkpt lat="43.80525831804884" lon="3.2449442460893287"><ele>829.0</ele><time>2026-03-25T12:28:14.002Z</time></trkpt><trkpt lat="43.80540740187642" lon="3.2450625910186734"><ele>829.0</ele><time>2026-03-25T12:28:15.002Z</time></trkpt><trkpt lat="43.80554766547275" lon="3.245177953719232"><ele>829.0</ele><time>2026-03-25T12:28:16.002Z</time></trkpt><trkpt lat="43.8056815282286" lon="3.2452695948274326"><ele>829.0</ele><time>2026-03-25T12:28:17.002Z</time></trkpt><trkpt lat="43.8058101450184" lon="3.2453335436114257"><ele>829.0</ele><time>2026-03-25T12:28:18.002Z</time></trkpt><trkpt lat="43.80593745472381" lon="3.2453759717156108"><ele>827.75</ele><time>2026-03-25T12:28:19.002Z</time></trkpt><trkpt lat="43.80606886481772" lon="3.245405226971162"><ele>826.5</ele><time>2026-03-25T12:28:20.002Z</time></trkpt><trkpt lat="43.806207197287044" lon="3.2454303344158806"><ele>825.25</ele><time>2026-03-25T12:28:21.002Z</time></trkpt><trkpt lat="43.80635162038764" lon="3.245462090361226"><ele>824.0</ele><time>2026-03-25T12:28:22.002Z</time></trkpt><trkpt lat="43.80649182047134" lon="3.2454981983497393"><ele>824.0</ele><time>2026-03-25T12:28:23.002Z</time></trkpt><trkpt lat="43.80662492855869" lon="3.2455454598598195"><ele>824.0</ele><time>2026-03-25T12:28:24.002Z</time></trkpt><trkpt lat="43.80674007223032" lon="3.245614720879184"><ele>824.0</ele><time>2026-03-25T12:28:25.001Z</time></trkpt><trkpt lat="43.80684454715371" lon="3.2456969776763143"><ele>824.0</ele><time>2026-03-25T12:28:26.001Z</time></trkpt><trkpt lat="43.80693823529727" lon="3.2458003518589615"><ele>821.0</ele><time>2026-03-25T12:28:27.001Z</time></trkpt><trkpt lat="43.80702214183098" lon="3.245919565986674"><ele>818.0</ele><time>2026-03-25T12:28:28.001Z</time></trkpt><trkpt lat="43.80709225001446" lon="3.24605592110611"><ele>815.0</ele><time>2026-03-25T12:28:29.001Z</time></trkpt><trkpt lat="43.80714572323736" lon="3.246195184358046"><ele>812.0</ele><time>2026-03-25T12:28:30.001Z</time></trkpt><trkpt lat="43.807183957711345" lon="3.2463348094392264"><ele>813.5</ele><time>2026-03-25T12:28:31.001Z</time></trkpt><trkpt lat="43.80719382110162" lon="3.2464825419536507"><ele>815.0</ele><time>2026-03-25T12:28:32.001Z</time></trkpt><trkpt lat="43.80718099929454" lon="3.246640680421077"><ele>816.5</ele><time>2026-03-25T12:28:33.001Z</time></trkpt><trkpt lat="43.80715557295464" lon="3.2468079364662175"><ele>818.0</ele><time>2026-03-25T12:28:34.001Z</time></trkpt><trkpt lat="43.80712609759906" lon="3.2469846557484265"><ele>818.0</ele><time>2026-03-25T12:28:35.001Z</time></trkpt><trkpt lat="43.80709470857947" lon="3.2471712231296417"><ele>818.0</ele><time>2026-03-25T12:28:36.001Z</time></trkpt><trkpt lat="43.807056552311046" lon="3.247354309715199"><ele>818.0</ele><time>2026-03-25T12:28:37.001Z</time></trkpt><trkpt lat="43.807030931711445" lon="3.2475177745849275"><ele>818.0</ele><time>2026-03-25T12:28:38.001Z</time></trkpt><trkpt lat="43.80702739498439" lon="3.2476546543776212"><ele>818.0000000000001</ele><time>2026-03-25T12:28:39.001Z</time></trkpt><trkpt lat="43.80704128240678" lon="3.247764340415482"><ele>818.0</ele><time>2026-03-25T12:28:40.001Z</time></trkpt><trkpt lat="43.80707527617638" lon="3.2478623587697397"><ele>818.0</ele><time>2026-03-25T12:28:41.001Z</time></trkpt><trkpt lat="43.807128120200495" lon="3.247958120417044"><ele>818.0</ele><time>2026-03-25T12:28:42.001Z</time></trkpt><trkpt lat="43.807202840472286" lon="3.248036080564335"><ele>818.0000000000001</ele><time>2026-03-25T12:28:43.001Z</time></trkpt><trkpt lat="43.80729138747032" lon="3.2480896208352616"><ele>818.0</ele><time>2026-03-25T12:28:44.001Z</time></trkpt><trkpt lat="43.80738845564081" lon="3.248102353279411"><ele>818.0</ele><time>2026-03-25T12:28:45.001Z</time></trkpt><trkpt lat="43.807491118070764" lon="3.2480860474066726"><ele>818.0</ele><time>2026-03-25T12:28:46.001Z</time></trkpt><trkpt lat="43.807593467836746" lon="3.248051230916617"><ele>818.0</ele><time>2026-03-25T12:28:47.001Z</time></trkpt><trkpt lat="43.807696954637045" lon="3.2480003944095412"><ele>818.0</ele><time>2026-03-25T12:28:48.001Z</time></trkpt><trkpt lat="43.807797968615375" lon="3.247928587735483"><ele>818.0</ele><time>2026-03-25T12:28:49.001Z</time></trkpt><trkpt lat="43.807891380050215" lon="3.247841995840414"><ele>817.75</ele><time>2026-03-25T12:28:50.001Z</time></trkpt><trkpt lat="43.80797357501875" lon="3.2477305480506016"><ele>817.5</ele><time>2026-03-25T12:28:51.001Z</time></trkpt><trkpt lat="43.80804429820605" lon="3.247605535486884"><ele>817.25</ele><time>2026-03-25T12:28:52.001Z</time></trkpt><trkpt lat="43.808101733694215" lon="3.247463576431285"><ele>817.0</ele><time>2026-03-25T12:28:53.001Z</time></trkpt><trkpt lat="43.80814696630064" lon="3.2472972851839326"><ele>815.75</ele><time>2026-03-25T12:28:54.001Z</time></trkpt><trkpt lat="43.808191823876264" lon="3.24712360106946"><ele>814.5</ele><time>2026-03-25T12:28:55.001Z</time></trkpt><trkpt lat="43.80824124601894" lon="3.2469448420039817"><ele>813.25</ele><time>2026-03-25T12:28:56.001Z</time></trkpt><trkpt lat="43.80829062819733" lon="3.246766264778585"><ele>812.0</ele><time>2026-03-25T12:28:57.001Z</time></trkpt><trkpt lat="43.808338825543025" lon="3.246599733727917"><ele>809.5</ele><time>2026-03-25T12:28:58.001Z</time></trkpt><trkpt lat="43.8083918003929" lon="3.2464398864019475"><ele>807.0</ele><time>2026-03-25T12:28:59.001Z</time></trkpt><trkpt lat="43.808458842700574" lon="3.2462818557807616"><ele>804.5</ele><time>2026-03-25T12:29:00.001Z</time></trkpt><trkpt lat="43.8085336931523" lon="3.246124500869931"><ele>802.0</ele><time>2026-03-25T12:29:01.001Z</time></trkpt><trkpt lat="43.80861918952249" lon="3.2459711525681056"><ele>800.5</ele><time>2026-03-25T12:29:02.001Z</time></trkpt><trkpt lat="43.808718025785474" lon="3.2458263330557213"><ele>799.0</ele><time>2026-03-25T12:29:03.001Z</time></trkpt><trkpt lat="43.80882611111756" lon="3.2456893041282746"><ele>797.5</ele><time>2026-03-25T12:29:04.001Z</time></trkpt><trkpt lat="43.80893766605368" lon="3.2455516125418433"><ele>796.0</ele><time>2026-03-25T12:29:05.001Z</time></trkpt><trkpt lat="43.80905114898216" lon="3.245417475000119"><ele>795.75</ele><time>2026-03-25T12:29:06.001Z</time></trkpt><trkpt lat="43.80916299337431" lon="3.24529152471805"><ele>795.5</ele><time>2026-03-25T12:29:07.001Z</time></trkpt><trkpt lat="43.809272320466775" lon="3.245182157006377"><ele>795.25</ele><time>2026-03-25T12:29:08.001Z</time></trkpt><trkpt lat="43.80938359705756" lon="3.245094134526455"><ele>795.0</ele><time>2026-03-25T12:29:09.001Z</time></trkpt><trkpt lat="43.809500450059716" lon="3.245022917279401"><ele>794.25</ele><time>2026-03-25T12:29:10.001Z</time></trkpt><trkpt lat="43.80962736846151" lon="3.2449588927755517"><ele>793.5</ele><time>2026-03-25T12:29:11.001Z</time></trkpt><trkpt lat="43.809761717766435" lon="3.2448997983314274"><ele>792.75</ele><time>2026-03-25T12:29:12.001Z</time></trkpt><trkpt lat="43.80990136482997" lon="3.244840813257207"><ele>792.0</ele><time>2026-03-25T12:29:13.001Z</time></trkpt><trkpt lat="43.81004520776823" lon="3.244780056052605"><ele>789.5</ele><time>2026-03-25T12:29:14.001Z</time></trkpt><trkpt lat="43.81018815322809" lon="3.244727493536046"><ele>787.0</ele><time>2026-03-25T12:29:15.001Z</time></trkpt><trkpt lat="43.810320043379946" lon="3.2446701868694388"><ele>784.5</ele><time>2026-03-25T12:29:16.001Z</time></trkpt><trkpt lat="43.810446802636605" lon="3.244609595565706"><ele>782.0</ele><time>2026-03-25T12:29:17.001Z</time></trkpt><trkpt lat="43.81057183892226" lon="3.2445426148402396"><ele>782.0</ele><time>2026-03-25T12:29:18.001Z</time></trkpt><trkpt lat="43.81069734250612" lon="3.2444803162766536"><ele>782.0</ele><time>2026-03-25T12:29:19.001Z</time></trkpt><trkpt lat="43.81082176524878" lon="3.244420651893374"><ele>782.0</ele><time>2026-03-25T12:29:20.001Z</time></trkpt><trkpt lat="43.81094584705062" lon="3.244370440580362"><ele>782.0</ele><time>2026-03-25T12:29:21.001Z</time></trkpt><trkpt lat="43.81107270785853" lon="3.2443375197499593"><ele>780.25</ele><time>2026-03-25T12:29:22.001Z</time></trkpt><trkpt lat="43.811206595017914" lon="3.244314906442305"><ele>778.5</ele><time>2026-03-25T12:29:23.001Z</time></trkpt><trkpt lat="43.81134313788432" lon="3.244301653321395"><ele>776.75</ele><time>2026-03-25T12:29:24.001Z</time></trkpt><trkpt lat="43.81148287810864" lon="3.244292401961479"><ele>775.0</ele><time>2026-03-25T12:29:25.001Z</time></trkpt><trkpt lat="43.8116228523169" lon="3.244292619839323"><ele>775.0</ele><time>2026-03-25T12:29:26.001Z</time></trkpt><trkpt lat="43.811764113912446" lon="3.244305788430866"><ele>775.0</ele><time>2026-03-25T12:29:27.001Z</time></trkpt><trkpt lat="43.81190214625421" lon="3.2443300972864804"><ele>775.0</ele><time>2026-03-25T12:29:28.001Z</time></trkpt><trkpt lat="43.81203801217306" lon="3.2443718532738655"><ele>775.0</ele><time>2026-03-25T12:29:29.001Z</time></trkpt><trkpt lat="43.812168314981676" lon="3.2444282298961973"><ele>773.0</ele><time>2026-03-25T12:29:30.001Z</time></trkpt><trkpt lat="43.81229939375535" lon="3.244483876436245"><ele>771.0</ele><time>2026-03-25T12:29:31.001Z</time></trkpt><trkpt lat="43.81242850635265" lon="3.244540747698433"><ele>769.0</ele><time>2026-03-25T12:29:32.001Z</time></trkpt><trkpt lat="43.812570556576915" lon="3.244602356035753"><ele>767.0</ele><time>2026-03-25T12:29:33.001Z</time></trkpt><trkpt lat="43.812717569343924" lon="3.2446589045949223"><ele>767.0</ele><time>2026-03-25T12:29:34.001Z</time></trkpt><trkpt lat="43.81287134240343" lon="3.2447101697733034"><ele>767.0</ele><time>2026-03-25T12:29:35.001Z</time></trkpt><trkpt lat="43.81303014872671" lon="3.2447646697763"><ele>767.0</ele><time>2026-03-25T12:29:36.001Z</time></trkpt><trkpt lat="43.8131924230423" lon="3.244819157983077"><ele>768.3333333333333</ele><time>2026-03-25T12:29:37.001Z</time></trkpt><trkpt lat="43.8133590126974" lon="3.2448805218862895"><ele>769.6666666666666</ele><time>2026-03-25T12:29:38.001Z</time></trkpt><trkpt lat="43.81352825430116" lon="3.2449487571658233"><ele>771.0</ele><time>2026-03-25T12:29:39.001Z</time></trkpt><trkpt lat="43.81369550952499" lon="3.245014797233717"><ele>771.0</ele><time>2026-03-25T12:29:40.001Z</time></trkpt><trkpt lat="43.81384911432161" lon="3.245081683239986"><ele>771.0</ele><time>2026-03-25T12:29:41.001Z</time></trkpt><trkpt lat="43.813994378550355" lon="3.245144912898877"><ele>771.0</ele><time>2026-03-25T12:29:42.001Z</time></trkpt><trkpt lat="43.81413488708412" lon="3.2452051058215163"><ele>771.0</ele><time>2026-03-25T12:29:43.001Z</time></trkpt><trkpt lat="43.81427489773397" lon="3.245271594342122"><ele>771.0</ele><time>2026-03-25T12:29:44.001Z</time></trkpt><trkpt lat="43.81441492810291" lon="3.2453376784354573"><ele>771.0</ele><time>2026-03-25T12:29:45.001Z</time></trkpt><trkpt lat="43.814555963199176" lon="3.2453993223909734"><ele>771.0</ele><time>2026-03-25T12:29:46.001Z</time></trkpt><trkpt lat="43.81468663335255" lon="3.2454619537529257"><ele>771.0</ele><time>2026-03-25T12:29:47.001Z</time></trkpt><trkpt lat="43.81479891589452" lon="3.245527067506663"><ele>771.0</ele><time>2026-03-25T12:29:48.001Z</time></trkpt><trkpt lat="43.814902225719024" lon="3.2455936734243473"><ele>771.0</ele><time>2026-03-25T12:29:49.001Z</time></trkpt><trkpt lat="43.81499261567079" lon="3.2456681564157845"><ele>771.0</ele><time>2026-03-25T12:29:50.001Z</time></trkpt><trkpt lat="43.81507111990656" lon="3.2457642305968823"><ele>771.0</ele><time>2026-03-25T12:29:51.001Z</time></trkpt><trkpt lat="43.81513302625324" lon="3.2458821935487965"><ele>770.5999999999999</ele><time>2026-03-25T12:29:52.001Z</time></trkpt><trkpt lat="43.815170555811115" lon="3.2460432800710164"><ele>770.2</ele><time>2026-03-25T12:29:53.001Z</time></trkpt><trkpt lat="43.81515795022887" lon="3.24615535171328"><ele>769.8</ele><time>2026-03-25T12:29:54.001Z</time></trkpt><trkpt lat="43.81514344595712" lon="3.246282275618722"><ele>769.4000000000001</ele><time>2026-03-25T12:29:55.001Z</time></trkpt><trkpt lat="43.81514983136702" lon="3.2464146656186648"><ele>769.0</ele><time>2026-03-25T12:29:56.001Z</time></trkpt><trkpt lat="43.81513019972598" lon="3.246546599457159"><ele>769.0</ele><time>2026-03-25T12:29:57.001Z</time></trkpt><trkpt lat="43.81514984978608" lon="3.246683130860312"><ele>769.0</ele><time>2026-03-25T12:29:58.001Z</time></trkpt><trkpt lat="43.81519211784863" lon="3.2468106843988838"><ele>769.0</ele><time>2026-03-25T12:29:59.001Z</time></trkpt><trkpt lat="43.815253517701144" lon="3.246908602519337"><ele>769.0</ele><time>2026-03-25T12:30:00.001Z</time></trkpt><trkpt lat="43.815327617349546" lon="3.246977043599637"><ele>769.0</ele><time>2026-03-25T12:30:01.001Z</time></trkpt><trkpt lat="43.81541446752091" lon="3.246997466655057"><ele>770.6</ele><time>2026-03-25T12:30:02.001Z</time></trkpt><trkpt lat="43.81550506437609" lon="3.2470186358669104"><ele>772.2</ele><time>2026-03-25T12:30:03.001Z</time></trkpt><trkpt lat="43.815603653965496" lon="3.2470128003405043"><ele>773.8000000000001</ele><time>2026-03-25T12:30:04.001Z</time></trkpt><trkpt lat="43.815707793343144" lon="3.246993636372385"><ele>775.4000000000001</ele><time>2026-03-25T12:30:05.001Z</time></trkpt><trkpt lat="43.81581286789777" lon="3.2469669135635155"><ele>777.0</ele><time>2026-03-25T12:30:06.001Z</time></trkpt><trkpt lat="43.815917955286494" lon="3.246932330037271"><ele>778.2</ele><time>2026-03-25T12:30:07.001Z</time></trkpt><trkpt lat="43.81602424572635" lon="3.246899810373229"><ele>779.4000000000001</ele><time>2026-03-25T12:30:08.001Z</time></trkpt><trkpt lat="43.816131192194696" lon="3.2468757017601533"><ele>780.5999999999999</ele><time>2026-03-25T12:30:09.001Z</time></trkpt><trkpt lat="43.816235608083446" lon="3.2468595361478254"><ele>781.8</ele><time>2026-03-25T12:30:10.001Z</time></trkpt><trkpt lat="43.81633962589842" lon="3.246859033338172"><ele>783.0</ele><time>2026-03-25T12:30:11.001Z</time></trkpt><trkpt lat="43.81644512472884" lon="3.2468660805355305"><ele>783.0</ele><time>2026-03-25T12:30:12.001Z</time></trkpt><trkpt lat="43.816556642559725" lon="3.246887800813449"><ele>783.0</ele><time>2026-03-25T12:30:13.001Z</time></trkpt><trkpt lat="43.81666644144716" lon="3.246948247212995"><ele>783.0</ele><time>2026-03-25T12:30:14.001Z</time></trkpt><trkpt lat="43.816785195476065" lon="3.2469928506313632"><ele>783.0</ele><time>2026-03-25T12:30:15.001Z</time></trkpt><trkpt lat="43.81690705084197" lon="3.2470159112642754"><ele>784.75</ele><time>2026-03-25T12:30:16.001Z</time></trkpt><trkpt lat="43.817026700790066" lon="3.2470533796587384"><ele>786.5</ele><time>2026-03-25T12:30:17.001Z</time></trkpt><trkpt lat="43.817148150248805" lon="3.2470878206743303"><ele>788.25</ele><time>2026-03-25T12:30:18.001Z</time></trkpt><trkpt lat="43.81727361424449" lon="3.2471116606814494"><ele>790.0</ele><time>2026-03-25T12:30:19.001Z</time></trkpt><trkpt lat="43.817399668425814" lon="3.2471317523990737"><ele>790.0</ele><time>2026-03-25T12:30:20.001Z</time></trkpt><trkpt lat="43.81752312708758" lon="3.2471415195306603"><ele>790.0</ele><time>2026-03-25T12:30:21.001Z</time></trkpt><trkpt lat="43.81763931955662" lon="3.2471376967759524"><ele>790.0</ele><time>2026-03-25T12:30:22.001Z</time></trkpt><trkpt lat="43.81774859635256" lon="3.2471135999134173"><ele>790.0</ele><time>2026-03-25T12:30:23.001Z</time></trkpt><trkpt lat="43.81785540597387" lon="3.247073291742648"><ele>791.0</ele><time>2026-03-25T12:30:24.001Z</time></trkpt><trkpt lat="43.81795714632671" lon="3.24701274533602"><ele>792.0</ele><time>2026-03-25T12:30:25.001Z</time></trkpt><trkpt lat="43.81805260479937" lon="3.2469296473681166"><ele>793.0</ele><time>2026-03-25T12:30:26.001Z</time></trkpt><trkpt lat="43.818142751667914" lon="3.246831906923423"><ele>794.0</ele><time>2026-03-25T12:30:27.001Z</time></trkpt><trkpt lat="43.81823120160874" lon="3.2467306007839283"><ele>794.0</ele><time>2026-03-25T12:30:28.001Z</time></trkpt><trkpt lat="43.818312860626136" lon="3.246627345440011"><ele>794.0</ele><time>2026-03-25T12:30:29.001Z</time></trkpt><trkpt lat="43.8183981949845" lon="3.2465302906932845"><ele>794.0</ele><time>2026-03-25T12:30:30.001Z</time></trkpt><trkpt lat="43.8184896150837" lon="3.246450029819059"><ele>794.0</ele><time>2026-03-25T12:30:31.001Z</time></trkpt><trkpt lat="43.81858775841827" lon="3.2463823847621147"><ele>794.0</ele><time>2026-03-25T12:30:32.001Z</time></trkpt><trkpt lat="43.81869321885097" lon="3.246326453571301"><ele>797.5</ele><time>2026-03-25T12:30:33.001Z</time></trkpt><trkpt lat="43.81880384554457" lon="3.2462783049364057"><ele>801.0</ele><time>2026-03-25T12:30:34.001Z</time></trkpt><trkpt lat="43.81891645220402" lon="3.2462284948825646"><ele>804.5</ele><time>2026-03-25T12:30:35.001Z</time></trkpt><trkpt lat="43.819032302002974" lon="3.246177298090892"><ele>808.0</ele><time>2026-03-25T12:30:36.001Z</time></trkpt><trkpt lat="43.81915006977673" lon="3.2461278625952996"><ele>808.0</ele><time>2026-03-25T12:30:37.001Z</time></trkpt><trkpt lat="43.81926936471499" lon="3.2460755642679575"><ele>808.0</ele><time>2026-03-25T12:30:38.001Z</time></trkpt><trkpt lat="43.81938848725212" lon="3.2460234221163256"><ele>808.0</ele><time>2026-03-25T12:30:39.001Z</time></trkpt><trkpt lat="43.81950686480456" lon="3.2459755600198164"><ele>808.0</ele><time>2026-03-25T12:30:40.001Z</time></trkpt><trkpt lat="43.81962439440566" lon="3.2459265143224987"><ele>808.75</ele><time>2026-03-25T12:30:41.001Z</time></trkpt><trkpt lat="43.81974101636428" lon="3.245879629495021"><ele>809.5</ele><time>2026-03-25T12:30:42.001Z</time></trkpt><trkpt lat="43.81985805853835" lon="3.2458442241623984"><ele>810.25</ele><time>2026-03-25T12:30:43.001Z</time></trkpt><trkpt lat="43.81997737349616" lon="3.245831434432752"><ele>811.0</ele><time>2026-03-25T12:30:44.001Z</time></trkpt><trkpt lat="43.82009259836748" lon="3.2458476000678247"><ele>813.25</ele><time>2026-03-25T12:30:45.001Z</time></trkpt><trkpt lat="43.82020298677318" lon="3.2458885967251296"><ele>815.5</ele><time>2026-03-25T12:30:46.001Z</time></trkpt><trkpt lat="43.82030696659063" lon="3.245949319524566"><ele>817.75</ele><time>2026-03-25T12:30:47.001Z</time></trkpt><trkpt lat="43.82041028963734" lon="3.246017673156571"><ele>820.0</ele><time>2026-03-25T12:30:48.001Z</time></trkpt><trkpt lat="43.82050814243098" lon="3.2461011611265587"><ele>820.0</ele><time>2026-03-25T12:30:49.001Z</time></trkpt><trkpt lat="43.82059395829859" lon="3.2462030137250424"><ele>820.0</ele><time>2026-03-25T12:30:50.001Z</time></trkpt><trkpt lat="43.82066855783345" lon="3.2463194372872692"><ele>820.0</ele><time>2026-03-25T12:30:51.001Z</time></trkpt><trkpt lat="43.82073312535193" lon="3.2464526889175844"><ele>820.0</ele><time>2026-03-25T12:30:52.001Z</time></trkpt><trkpt lat="43.82077208338652" lon="3.2466113895265494"><ele>819.75</ele><time>2026-03-25T12:30:53.001Z</time></trkpt><trkpt lat="43.82081548156755" lon="3.2467689619466453"><ele>819.5</ele><time>2026-03-25T12:30:54.001Z</time></trkpt><trkpt lat="43.820867732805176" lon="3.2469290928748835"><ele>819.25</ele><time>2026-03-25T12:30:55.001Z</time></trkpt><trkpt lat="43.82089111585644" lon="3.2471065558537826"><ele>819.0</ele><time>2026-03-25T12:30:56.001Z</time></trkpt><trkpt lat="43.82093363865325" lon="3.247257827352692"><ele>820.2</ele><time>2026-03-25T12:30:57.001Z</time></trkpt><trkpt lat="43.82098268555521" lon="3.2473870775556106"><ele>821.4000000000001</ele><time>2026-03-25T12:30:58.001Z</time></trkpt><trkpt lat="43.82104897520177" lon="3.2474976188104714"><ele>822.6</ele><time>2026-03-25T12:30:59.001Z</time></trkpt><trkpt lat="43.82112668470532" lon="3.24759106641138"><ele>823.8</ele><time>2026-03-25T12:31:00.001Z</time></trkpt><trkpt lat="43.82122563194004" lon="3.247649597449181"><ele>825.0</ele><time>2026-03-25T12:31:01.001Z</time></trkpt><trkpt lat="43.821320409282926" lon="3.2477093619736155"><ele>825.0</ele><time>2026-03-25T12:31:02.001Z</time></trkpt><trkpt lat="43.8214170792748" lon="3.2477484052011274"><ele>825.0</ele><time>2026-03-25T12:31:03.001Z</time></trkpt><trkpt lat="43.82152511304038" lon="3.2477713623141176"><ele>825.0</ele><time>2026-03-25T12:31:04.001Z</time></trkpt><trkpt lat="43.82163939216423" lon="3.247787140839968"><ele>825.0</ele><time>2026-03-25T12:31:05.001Z</time></trkpt><trkpt lat="43.82175859398173" lon="3.2477918754573696"><ele>825.0</ele><time>2026-03-25T12:31:06.001Z</time></trkpt><trkpt lat="43.82188154703087" lon="3.2477896317770045"><ele>825.5</ele><time>2026-03-25T12:31:07.001Z</time></trkpt><trkpt lat="43.82200502919586" lon="3.247784561366929"><ele>826.0</ele><time>2026-03-25T12:31:08.001Z</time></trkpt><trkpt lat="43.82213443644966" lon="3.2477619256462193"><ele>826.5</ele><time>2026-03-25T12:31:09.001Z</time></trkpt><trkpt lat="43.822263050339444" lon="3.247731739774408"><ele>827.0</ele><time>2026-03-25T12:31:10.001Z</time></trkpt><trkpt lat="43.82238837074476" lon="3.2476917103202414"><ele>827.0</ele><time>2026-03-25T12:31:11.001Z</time></trkpt><trkpt lat="43.822509622034524" lon="3.247641234550807"><ele>827.0</ele><time>2026-03-25T12:31:12.001Z</time></trkpt><trkpt lat="43.822623615317085" lon="3.2475817122140493"><ele>827.0</ele><time>2026-03-25T12:31:13.001Z</time></trkpt><trkpt lat="43.822734208287834" lon="3.247518545545041"><ele>827.0</ele><time>2026-03-25T12:31:14.001Z</time></trkpt><trkpt lat="43.82284152583381" lon="3.2474562912471012"><ele>827.75</ele><time>2026-03-25T12:31:15.001Z</time></trkpt><trkpt lat="43.8229508759826" lon="3.247405771317794"><ele>828.5</ele><time>2026-03-25T12:31:16.001Z</time></trkpt><trkpt lat="43.82306177669092" lon="3.247387440953234"><ele>829.25</ele><time>2026-03-25T12:31:17.001Z</time></trkpt><trkpt lat="43.82317332922907" lon="3.2473830623348814"><ele>830.0</ele><time>2026-03-25T12:31:18.001Z</time></trkpt><trkpt lat="43.82328709340893" lon="3.247399270864345"><ele>830.0</ele><time>2026-03-25T12:31:19.001Z</time></trkpt><trkpt lat="43.82339741974461" lon="3.247441255543498"><ele>830.0</ele><time>2026-03-25T12:31:20.001Z</time></trkpt><trkpt lat="43.82350532294293" lon="3.247504391179511"><ele>830.0</ele><time>2026-03-25T12:31:21.001Z</time></trkpt><trkpt lat="43.82361801948399" lon="3.2475561320047706"><ele>830.0</ele><time>2026-03-25T12:31:22.001Z</time></trkpt><trkpt lat="43.82372290089389" lon="3.2476268364905563"><ele>831.5</ele><time>2026-03-25T12:31:23.001Z</time></trkpt><trkpt lat="43.82382261356013" lon="3.2477190763082024"><ele>833.0</ele><time>2026-03-25T12:31:24.001Z</time></trkpt><trkpt lat="43.82391207671208" lon="3.2478323974889562"><ele>834.5</ele><time>2026-03-25T12:31:25.001Z</time></trkpt><trkpt lat="43.82398976511733" lon="3.2479636323828545"><ele>836.0</ele><time>2026-03-25T12:31:26.001Z</time></trkpt><trkpt lat="43.82405748028788" lon="3.248112423473349"><ele>835.0</ele><time>2026-03-25T12:31:27.001Z</time></trkpt><trkpt lat="43.824109617169974" lon="3.24827634371638"><ele>834.0</ele><time>2026-03-25T12:31:28.001Z</time></trkpt><trkpt lat="43.82415695319533" lon="3.248453927195538"><ele>833.0</ele><time>2026-03-25T12:31:29.001Z</time></trkpt><trkpt lat="43.82420716290162" lon="3.248642090307912"><ele>832.0</ele><time>2026-03-25T12:31:30.001Z</time></trkpt><trkpt lat="43.82426128025291" lon="3.2488341139375256"><ele>831.75</ele><time>2026-03-25T12:31:31.001Z</time></trkpt><trkpt lat="43.82430493772269" lon="3.2490348736359573"><ele>831.5</ele><time>2026-03-25T12:31:32.001Z</time></trkpt><trkpt lat="43.824376350946324" lon="3.2492164000773687"><ele>831.25</ele><time>2026-03-25T12:31:33.001Z</time></trkpt><trkpt lat="43.824436354837346" lon="3.2493851348358573"><ele>831.0</ele><time>2026-03-25T12:31:34.001Z</time></trkpt><trkpt lat="43.824496215919154" lon="3.249528122658681"><ele>832.0</ele><time>2026-03-25T12:31:35.001Z</time></trkpt><trkpt lat="43.824560009287104" lon="3.249653817488021"><ele>833.0</ele><time>2026-03-25T12:31:36.001Z</time></trkpt><trkpt lat="43.824631445072626" lon="3.249760382287719"><ele>834.0</ele><time>2026-03-25T12:31:37.001Z</time></trkpt><trkpt lat="43.82471272274316" lon="3.2498519570558257"><ele>835.0</ele><time>2026-03-25T12:31:38.001Z</time></trkpt><trkpt lat="43.82480603708148" lon="3.249918423084743"><ele>836.0</ele><time>2026-03-25T12:31:39.001Z</time></trkpt><trkpt lat="43.82490836950333" lon="3.249968984477065"><ele>836.0</ele><time>2026-03-25T12:31:40.001Z</time></trkpt><trkpt lat="43.825013895526816" lon="3.2499999802329227"><ele>836.0</ele><time>2026-03-25T12:31:41.001Z</time></trkpt><trkpt lat="43.8251245361575" lon="3.249999365666105"><ele>836.0</ele><time>2026-03-25T12:31:42.001Z</time></trkpt><trkpt lat="43.82523488268516" lon="3.2499752615560196"><ele>836.0</ele><time>2026-03-25T12:31:43.001Z</time></trkpt><trkpt lat="43.825347884355786" lon="3.249926876777211"><ele>836.0</ele><time>2026-03-25T12:31:44.001Z</time></trkpt><trkpt lat="43.82546356849096" lon="3.249864167796226"><ele>836.25</ele><time>2026-03-25T12:31:45.001Z</time></trkpt><trkpt lat="43.82558251361094" lon="3.249797342449837"><ele>836.5</ele><time>2026-03-25T12:31:46.001Z</time></trkpt><trkpt lat="43.82570818493533" lon="3.2497144330041112"><ele>836.75</ele><time>2026-03-25T12:31:47.001Z</time></trkpt><trkpt lat="43.825843264653116" lon="3.249630956837377"><ele>837.0</ele><time>2026-03-25T12:31:48.001Z</time></trkpt><trkpt lat="43.82598351182019" lon="3.2495596725475435"><ele>835.3333333333333</ele><time>2026-03-25T12:31:49.001Z</time></trkpt><trkpt lat="43.82613119796337" lon="3.2495008869936037"><ele>833.6666666666666</ele><time>2026-03-25T12:31:50.001Z</time></trkpt><trkpt lat="43.82628550700406" lon="3.24945347109323"><ele>832.0</ele><time>2026-03-25T12:31:51.001Z</time></trkpt><trkpt lat="43.826446789675316" lon="3.249421417317449"><ele>832.0</ele><time>2026-03-25T12:31:52.001Z</time></trkpt><trkpt lat="43.826611650929365" lon="3.249402548128676"><ele>832.0</ele><time>2026-03-25T12:31:53.001Z</time></trkpt><trkpt lat="43.82677544290473" lon="3.2493962233103355"><ele>832.0</ele><time>2026-03-25T12:31:54.001Z</time></trkpt><trkpt lat="43.82693313008487" lon="3.2493932207352283"><ele>830.75</ele><time>2026-03-25T12:31:55.001Z</time></trkpt><trkpt lat="43.827082221841664" lon="3.249382048967014"><ele>829.5</ele><time>2026-03-25T12:31:56.001Z</time></trkpt><trkpt lat="43.82722666845591" lon="3.249361791098268"><ele>828.25</ele><time>2026-03-25T12:31:57.001Z</time></trkpt><trkpt lat="43.82736937153533" lon="3.249332808067422"><ele>827.0</ele><time>2026-03-25T12:31:58.001Z</time></trkpt><trkpt lat="43.82751318056868" lon="3.24928911424122"><ele>826.3333333333334</ele><time>2026-03-25T12:31:59.001Z</time></trkpt><trkpt lat="43.827656306620604" lon="3.2492284401343072"><ele>825.6666666666667</ele><time>2026-03-25T12:32:00.001Z</time></trkpt><trkpt lat="43.82780086100154" lon="3.24916567343474"><ele>825.0</ele><time>2026-03-25T12:32:01.001Z</time></trkpt><trkpt lat="43.827950906178174" lon="3.249112637724708"><ele>825.0</ele><time>2026-03-25T12:32:02.001Z</time></trkpt><trkpt lat="43.82810639762033" lon="3.2490790016375795"><ele>825.0</ele><time>2026-03-25T12:32:03.001Z</time></trkpt><trkpt lat="43.82826305374256" lon="3.249066471538135"><ele>825.0</ele><time>2026-03-25T12:32:04.001Z</time></trkpt><trkpt lat="43.82842116815633" lon="3.249071856039419"><ele>824.6666666666667</ele><time>2026-03-25T12:32:05.001Z</time></trkpt><trkpt lat="43.828578146390846" lon="3.249078959727772"><ele>824.3333333333334</ele><time>2026-03-25T12:32:06.001Z</time></trkpt><trkpt lat="43.828731080997976" lon="3.249086099909188"><ele>824.0</ele><time>2026-03-25T12:32:07.001Z</time></trkpt><trkpt lat="43.82888262233507" lon="3.2490964462583465"><ele>824.0</ele><time>2026-03-25T12:32:08.001Z</time></trkpt><trkpt lat="43.8290311511394" lon="3.2491086237885383"><ele>824.0</ele><time>2026-03-25T12:32:09.001Z</time></trkpt><trkpt lat="43.829176341554785" lon="3.249121026607586"><ele>824.0</ele><time>2026-03-25T12:32:10.001Z</time></trkpt><trkpt lat="43.82932294996724" lon="3.249128705153165"><ele>824.0</ele><time>2026-03-25T12:32:11.001Z</time></trkpt><trkpt lat="43.82946749122171" lon="3.249140479472805"><ele>824.75</ele><time>2026-03-25T12:32:12.001Z</time></trkpt><trkpt lat="43.82961258473244" lon="3.2491521181351106"><ele>825.5</ele><time>2026-03-25T12:32:13.001Z</time></trkpt><trkpt lat="43.82976214323312" lon="3.249165547569466"><ele>826.25</ele><time>2026-03-25T12:32:14.001Z</time></trkpt><trkpt lat="43.82991189090805" lon="3.2491790713961866"><ele>827.0</ele><time>2026-03-25T12:32:15.001Z</time></trkpt><trkpt lat="43.83006030225575" lon="3.249192156225478"><ele>827.75</ele><time>2026-03-25T12:32:16.001Z</time></trkpt><trkpt lat="43.830208441075065" lon="3.2492095299609742"><ele>828.5</ele><time>2026-03-25T12:32:17.001Z</time></trkpt><trkpt lat="43.83035758919077" lon="3.249230337210855"><ele>829.25</ele><time>2026-03-25T12:32:18.001Z</time></trkpt><trkpt lat="43.830505878506" lon="3.2492555165361994"><ele>830.0</ele><time>2026-03-25T12:32:19.001Z</time></trkpt><trkpt lat="43.830654376985514" lon="3.2492875517896898"><ele>830.0</ele><time>2026-03-25T12:32:20.001Z</time></trkpt><trkpt lat="43.83080385882387" lon="3.249321663478259"><ele>830.0</ele><time>2026-03-25T12:32:21.001Z</time></trkpt><trkpt lat="43.83095393240376" lon="3.2493475833740533"><ele>830.0</ele><time>2026-03-25T12:32:22.001Z</time></trkpt><trkpt lat="43.831104638257266" lon="3.249376799079162"><ele>831.3333333333334</ele><time>2026-03-25T12:32:23.001Z</time></trkpt><trkpt lat="43.831254984067265" lon="3.2494126187310806"><ele>832.6666666666667</ele><time>2026-03-25T12:32:24.001Z</time></trkpt><trkpt lat="43.83140304217737" lon="3.2494521469355733"><ele>834.0</ele><time>2026-03-25T12:32:25.001Z</time></trkpt><trkpt lat="43.83154815913997" lon="3.2494956788520217"><ele>834.0</ele><time>2026-03-25T12:32:26.001Z</time></trkpt><trkpt lat="43.831689309832505" lon="3.249544302322292"><ele>834.0</ele><time>2026-03-25T12:32:27.001Z</time></trkpt><trkpt lat="43.83182621383789" lon="3.2495930593126117"><ele>834.0</ele><time>2026-03-25T12:32:28.001Z</time></trkpt><trkpt lat="43.83196354711495" lon="3.249644271709349"><ele>834.0</ele><time>2026-03-25T12:32:29.001Z</time></trkpt><trkpt lat="43.83210148076543" lon="3.2496902278198956"><ele>834.25</ele><time>2026-03-25T12:32:30.001Z</time></trkpt><trkpt lat="43.83224107934451" lon="3.249733047901505"><ele>834.5</ele><time>2026-03-25T12:32:31.001Z</time></trkpt><trkpt lat="43.832379946577454" lon="3.249769300367324"><ele>834.75</ele><time>2026-03-25T12:32:32.001Z</time></trkpt><trkpt lat="43.83251935312773" lon="3.2498009332429296"><ele>835.0</ele><time>2026-03-25T12:32:33.001Z</time></trkpt><trkpt lat="43.83265922832096" lon="3.2498358309661612"><ele>835.0</ele><time>2026-03-25T12:32:34.001Z</time></trkpt><trkpt lat="43.83279935853077" lon="3.249869095724782"><ele>835.0</ele><time>2026-03-25T12:32:35.001Z</time></trkpt><trkpt lat="43.832934704720905" lon="3.249899597393722"><ele>835.0</ele><time>2026-03-25T12:32:36.001Z</time></trkpt><trkpt lat="43.833075755794276" lon="3.2499284088735534"><ele>835.0</ele><time>2026-03-25T12:32:37.001Z</time></trkpt><trkpt lat="43.8332091891852" lon="3.249951837841869"><ele>835.0</ele><time>2026-03-25T12:32:38.001Z</time></trkpt><trkpt lat="43.83332650765401" lon="3.2499678648924446"><ele>835.0</ele><time>2026-03-25T12:32:39.001Z</time></trkpt><trkpt lat="43.833432454601606" lon="3.2499812453377115"><ele>835.0</ele><time>2026-03-25T12:32:40.001Z</time></trkpt><trkpt lat="43.83352152426918" lon="3.2499968995455073"><ele>835.0</ele><time>2026-03-25T12:32:41.001Z</time></trkpt><trkpt lat="43.833597388356964" lon="3.2500318951055096"><ele>835.0</ele><time>2026-03-25T12:32:42.001Z</time></trkpt><trkpt lat="43.83366606813878" lon="3.250087188787406"><ele>835.6666666666666</ele><time>2026-03-25T12:32:43.001Z</time></trkpt><trkpt lat="43.83372690811521" lon="3.250170755409522"><ele>836.3333333333333</ele><time>2026-03-25T12:32:44.001Z</time></trkpt><trkpt lat="43.833777545010975" lon="3.2502692370922084"><ele>837.0</ele><time>2026-03-25T12:32:45.001Z</time></trkpt><trkpt lat="43.83379843903606" lon="3.250388870973429"><ele>837.6666666666667</ele><time>2026-03-25T12:32:46.001Z</time></trkpt><trkpt lat="43.833808957851176" lon="3.2505051489611647"><ele>838.3333333333334</ele><time>2026-03-25T12:32:47.001Z</time></trkpt><trkpt lat="43.833793082216566" lon="3.2506093943618692"><ele>839.0</ele><time>2026-03-25T12:32:48.001Z</time></trkpt><trkpt lat="43.833772229652624" lon="3.2507415450402024"><ele>839.0</ele><time>2026-03-25T12:32:49.001Z</time></trkpt><trkpt lat="43.83374755770744" lon="3.25089871939318"><ele>839.0</ele><time>2026-03-25T12:32:50.001Z</time></trkpt><trkpt lat="43.83372165664802" lon="3.2510697267290087"><ele>839.0</ele><time>2026-03-25T12:32:51.001Z</time></trkpt><trkpt lat="43.83369292458626" lon="3.2512525095246754"><ele>839.0</ele><time>2026-03-25T12:32:52.001Z</time></trkpt><trkpt lat="43.83366257802453" lon="3.2514440687225434"><ele>839.0</ele><time>2026-03-25T12:32:53.001Z</time></trkpt><trkpt lat="43.833629272359126" lon="3.251648660087264"><ele>839.0</ele><time>2026-03-25T12:32:54.001Z</time></trkpt><trkpt lat="43.833598148424414" lon="3.2518529355214008"><ele>839.0</ele><time>2026-03-25T12:32:55.001Z</time></trkpt><trkpt lat="43.833570105309136" lon="3.2520482431980615"><ele>839.0</ele><time>2026-03-25T12:32:56.001Z</time></trkpt><trkpt lat="43.83355057698373" lon="3.2522301209575293"><ele>839.25</ele><time>2026-03-25T12:32:57.001Z</time></trkpt><trkpt lat="43.83354555187207" lon="3.252404149585835"><ele>839.5</ele><time>2026-03-25T12:32:58.001Z</time></trkpt><trkpt lat="43.83355847483237" lon="3.252564812819237"><ele>839.75</ele><time>2026-03-25T12:32:59.001Z</time></trkpt><trkpt lat="43.833588571010715" lon="3.2527134916892138"><ele>840.0</ele><time>2026-03-25T12:33:00.001Z</time></trkpt><trkpt lat="43.833657038581585" lon="3.252848163593475"><ele>840.0</ele><time>2026-03-25T12:33:01.001Z</time></trkpt><trkpt lat="43.8337061412031" lon="3.2530020862504543"><ele>840.0</ele><time>2026-03-25T12:33:02.001Z</time></trkpt><trkpt lat="43.83378203432839" lon="3.253129862173708"><ele>840.0</ele><time>2026-03-25T12:33:03.001Z</time></trkpt><trkpt lat="43.83387136422015" lon="3.2532287919012806"><ele>840.0</ele><time>2026-03-25T12:33:04.001Z</time></trkpt><trkpt lat="43.833942793379144" lon="3.2533356368339694"><ele>838.8</ele><time>2026-03-25T12:33:05.001Z</time></trkpt><trkpt lat="43.83401413742696" lon="3.2534443106964277"><ele>837.6</ele><time>2026-03-25T12:33:06.001Z</time></trkpt><trkpt lat="43.834089591287345" lon="3.2535537185527303"><ele>836.4000000000001</ele><time>2026-03-25T12:33:07.001Z</time></trkpt><trkpt lat="43.834164515487856" lon="3.2536624512149612"><ele>835.2</ele><time>2026-03-25T12:33:08.001Z</time></trkpt><trkpt lat="43.834240046373004" lon="3.2537715000823555"><ele>834.0</ele><time>2026-03-25T12:33:09.001Z</time></trkpt><trkpt lat="43.83432318434617" lon="3.2538935158649642"><ele>832.0</ele><time>2026-03-25T12:33:10.001Z</time></trkpt><trkpt lat="43.83440347253791" lon="3.2540444024345816"><ele>830.0</ele><time>2026-03-25T12:33:11.001Z</time></trkpt><trkpt lat="43.83449623757052" lon="3.254196198902685"><ele>828.0</ele><time>2026-03-25T12:33:12.001Z</time></trkpt><trkpt lat="43.8345927726675" lon="3.2543607004546042"><ele>826.0</ele><time>2026-03-25T12:33:13.001Z</time></trkpt><trkpt lat="43.83469017269669" lon="3.254536681773743"><ele>826.0</ele><time>2026-03-25T12:33:14.001Z</time></trkpt><trkpt lat="43.83479134700086" lon="3.254724601259066"><ele>826.0</ele><time>2026-03-25T12:33:15.001Z</time></trkpt><trkpt lat="43.83489893278408" lon="3.254907593230619"><ele>826.0</ele><time>2026-03-25T12:33:16.001Z</time></trkpt><trkpt lat="43.83498879407371" lon="3.2551095037804356"><ele>826.0</ele><time>2026-03-25T12:33:17.001Z</time></trkpt><trkpt lat="43.83505890613098" lon="3.255337327338085"><ele>826.0</ele><time>2026-03-25T12:33:18.001Z</time></trkpt><trkpt lat="43.835133626474416" lon="3.255565822710376"><ele>826.0</ele><time>2026-03-25T12:33:19.001Z</time></trkpt><trkpt lat="43.83520344601173" lon="3.255810059397217"><ele>823.0</ele><time>2026-03-25T12:33:20.001Z</time></trkpt><trkpt lat="43.83527131751055" lon="3.256052772711069"><ele>820.0</ele><time>2026-03-25T12:33:21.001Z</time></trkpt><trkpt lat="43.83533894522244" lon="3.2562874504320796"><ele>817.0</ele><time>2026-03-25T12:33:22.001Z</time></trkpt><trkpt lat="43.835404978346084" lon="3.256509803204003"><ele>817.0</ele><time>2026-03-25T12:33:23.001Z</time></trkpt><trkpt lat="43.83546582098095" lon="3.256726903074737"><ele>817.0</ele><time>2026-03-25T12:33:24.001Z</time></trkpt><trkpt lat="43.83550874002671" lon="3.2569386368131377"><ele>817.0</ele><time>2026-03-25T12:33:25.001Z</time></trkpt><trkpt lat="43.83553446300549" lon="3.257148910267195"><ele>816.6666666666666</ele><time>2026-03-25T12:33:26.001Z</time></trkpt><trkpt lat="43.83555404226663" lon="3.257357214572732"><ele>816.3333333333333</ele><time>2026-03-25T12:33:27.001Z</time></trkpt><trkpt lat="43.8355702386771" lon="3.257564627933034"><ele>816.0</ele><time>2026-03-25T12:33:28.001Z</time></trkpt><trkpt lat="43.83557926205113" lon="3.2577738412572974"><ele>816.0</ele><time>2026-03-25T12:33:29.001Z</time></trkpt><trkpt lat="43.83557017146399" lon="3.2579971949276985"><ele>816.0</ele><time>2026-03-25T12:33:30.001Z</time></trkpt><trkpt lat="43.83554932992319" lon="3.2582326001350297"><ele>816.0</ele><time>2026-03-25T12:33:31.001Z</time></trkpt><trkpt lat="43.83552933201659" lon="3.2584792675908156"><ele>815.0</ele><time>2026-03-25T12:33:32.001Z</time></trkpt><trkpt lat="43.83551953002463" lon="3.258733803783722"><ele>814.0</ele><time>2026-03-25T12:33:33.001Z</time></trkpt><trkpt lat="43.8355111839403" lon="3.2589932554868692"><ele>813.0</ele><time>2026-03-25T12:33:34.001Z</time></trkpt><trkpt lat="43.83550364521526" lon="3.259257221998477"><ele>812.0</ele><time>2026-03-25T12:33:35.001Z</time></trkpt><trkpt lat="43.835494597361105" lon="3.2595225288594762"><ele>811.0</ele><time>2026-03-25T12:33:36.001Z</time></trkpt><trkpt lat="43.83548274732414" lon="3.259772683056832"><ele>810.0</ele><time>2026-03-25T12:33:37.001Z</time></trkpt><trkpt lat="43.83545592585271" lon="3.2600034217306386"><ele>808.6666666666667</ele><time>2026-03-25T12:33:38.001Z</time></trkpt><trkpt lat="43.83541327989404" lon="3.260217757169214"><ele>807.3333333333334</ele><time>2026-03-25T12:33:39.001Z</time></trkpt><trkpt lat="43.835354007419504" lon="3.2604354607678214"><ele>806.0</ele><time>2026-03-25T12:33:40.001Z</time></trkpt><trkpt lat="43.835284392878215" lon="3.260642681310271"><ele>803.6666666666667</ele><time>2026-03-25T12:33:41.001Z</time></trkpt><trkpt lat="43.83521752698965" lon="3.2608444474100353"><ele>801.3333333333333</ele><time>2026-03-25T12:33:42.001Z</time></trkpt><trkpt lat="43.835166851616606" lon="3.2610483990443613"><ele>799.0</ele><time>2026-03-25T12:33:43.001Z</time></trkpt><trkpt lat="43.83514674707916" lon="3.2612678541951836"><ele>799.0</ele><time>2026-03-25T12:33:44.001Z</time></trkpt><trkpt lat="43.83514485179108" lon="3.2614876539547564"><ele>799.0</ele><time>2026-03-25T12:33:45.001Z</time></trkpt><trkpt lat="43.83514966498632" lon="3.261714843763402"><ele>799.0</ele><time>2026-03-25T12:33:46.001Z</time></trkpt><trkpt lat="43.83515555956766" lon="3.2619442379991708"><ele>799.0</ele><time>2026-03-25T12:33:47.001Z</time></trkpt><trkpt lat="43.835169095168546" lon="3.262163886843722"><ele>799.0</ele><time>2026-03-25T12:33:48.001Z</time></trkpt><trkpt lat="43.83519736963397" lon="3.2623600764517833"><ele>799.0</ele><time>2026-03-25T12:33:49.001Z</time></trkpt><trkpt lat="43.835254210556464" lon="3.26253322512293"><ele>799.0</ele><time>2026-03-25T12:33:50.001Z</time></trkpt><trkpt lat="43.83533361843666" lon="3.262679981986038"><ele>799.0</ele><time>2026-03-25T12:33:51.001Z</time></trkpt><trkpt lat="43.83541792936273" lon="3.2628170531110747"><ele>799.0</ele><time>2026-03-25T12:33:52.001Z</time></trkpt><trkpt lat="43.835516213318456" lon="3.262938151047704"><ele>799.0</ele><time>2026-03-25T12:33:53.001Z</time></trkpt><trkpt lat="43.83563389352146" lon="3.2630325524658184"><ele>799.0</ele><time>2026-03-25T12:33:54.001Z</time></trkpt><trkpt lat="43.83576719814043" lon="3.2631261231753017"><ele>799.3333333333333</ele><time>2026-03-25T12:33:55.001Z</time></trkpt><trkpt lat="43.83590960185781" lon="3.2632340237890896"><ele>799.6666666666667</ele><time>2026-03-25T12:33:56.001Z</time></trkpt><trkpt lat="43.83606009165618" lon="3.263347301833133"><ele>800.0</ele><time>2026-03-25T12:33:57.001Z</time></trkpt><trkpt lat="43.83621293693148" lon="3.2634577931170186"><ele>799.3333333333334</ele><time>2026-03-25T12:33:58.001Z</time></trkpt><trkpt lat="43.836364447788156" lon="3.2635673574729167"><ele>798.6666666666667</ele><time>2026-03-25T12:33:59.001Z</time></trkpt><trkpt lat="43.83651675987919" lon="3.2636832246737653"><ele>798.0</ele><time>2026-03-25T12:34:00.001Z</time></trkpt><trkpt lat="43.83667310948291" lon="3.2637980969666365"><ele>797.0</ele><time>2026-03-25T12:34:01.001Z</time></trkpt><trkpt lat="43.83683296544714" lon="3.2639119003595134"><ele>796.0</ele><time>2026-03-25T12:34:02.001Z</time></trkpt><trkpt lat="43.83697990573" lon="3.264018334203138"><ele>795.0</ele><time>2026-03-25T12:34:03.001Z</time></trkpt><trkpt lat="43.837114613229026" lon="3.264119670840558"><ele>795.0</ele><time>2026-03-25T12:34:04.001Z</time></trkpt><trkpt lat="43.83723954689009" lon="3.264215526171839"><ele>795.0</ele><time>2026-03-25T12:34:05.001Z</time></trkpt><trkpt lat="43.8373391462702" lon="3.2643420990316874"><ele>795.0</ele><time>2026-03-25T12:34:06.001Z</time></trkpt><trkpt lat="43.83743111488273" lon="3.2644695267826243"><ele>795.0</ele><time>2026-03-25T12:34:07.001Z</time></trkpt><trkpt lat="43.83752062169195" lon="3.2646087934294967"><ele>795.0</ele><time>2026-03-25T12:34:08.001Z</time></trkpt><trkpt lat="43.837620719557535" lon="3.264739672657163"><ele>795.0</ele><time>2026-03-25T12:34:09.001Z</time></trkpt><trkpt lat="43.83769873283979" lon="3.264881732479862"><ele>795.0</ele><time>2026-03-25T12:34:10.001Z</time></trkpt><trkpt lat="43.8377746544316" lon="3.2650159643910244"><ele>795.0</ele><time>2026-03-25T12:34:11.001Z</time></trkpt><trkpt lat="43.837830664645864" lon="3.2651567153625694"><ele>795.25</ele><time>2026-03-25T12:34:12.001Z</time></trkpt><trkpt lat="43.83789431495593" lon="3.265290025154302"><ele>795.5</ele><time>2026-03-25T12:34:13.001Z</time></trkpt><trkpt lat="43.837920875535964" lon="3.265459657579546"><ele>795.75</ele><time>2026-03-25T12:34:14.001Z</time></trkpt><trkpt lat="43.83796204858876" lon="3.265637482169804"><ele>796.0</ele><time>2026-03-25T12:34:15.001Z</time></trkpt><trkpt lat="43.83800324575507" lon="3.2658223768938095"><ele>796.0</ele><time>2026-03-25T12:34:16.001Z</time></trkpt><trkpt lat="43.838059525274915" lon="3.2660167511965588"><ele>796.0</ele><time>2026-03-25T12:34:17.001Z</time></trkpt><trkpt lat="43.838103875974454" lon="3.266228431409817"><ele>796.0</ele><time>2026-03-25T12:34:18.001Z</time></trkpt><trkpt lat="43.83815034186503" lon="3.266446881156349"><ele>795.25</ele><time>2026-03-25T12:34:19.001Z</time></trkpt><trkpt lat="43.83819684268122" lon="3.2666541685300157"><ele>794.5</ele><time>2026-03-25T12:34:20.001Z</time></trkpt><trkpt lat="43.83824126428571" lon="3.2668503748614257"><ele>793.75</ele><time>2026-03-25T12:34:21.001Z</time></trkpt><trkpt lat="43.83828503233845" lon="3.267031214412256"><ele>793.0</ele><time>2026-03-25T12:34:22.001Z</time></trkpt><trkpt lat="43.83832317445426" lon="3.267194207769301"><ele>792.4</ele><time>2026-03-25T12:34:23.001Z</time></trkpt><trkpt lat="43.838355976000436" lon="3.267314260241938"><ele>791.8</ele><time>2026-03-25T12:34:24.001Z</time></trkpt><trkpt lat="43.83839529953053" lon="3.267406190899717"><ele>791.2</ele><time>2026-03-25T12:34:25.001Z</time></trkpt><trkpt lat="43.83843995157001" lon="3.267505122358612"><ele>790.6</ele><time>2026-03-25T12:34:26.001Z</time></trkpt><trkpt lat="43.83851335776506" lon="3.2675815153969863"><ele>790.0</ele><time>2026-03-25T12:34:27.001Z</time></trkpt><trkpt lat="43.83861601999812" lon="3.2676139356934164"><ele>789.25</ele><time>2026-03-25T12:34:28.001Z</time></trkpt><trkpt lat="43.83871727024008" lon="3.267660184529006"><ele>788.5</ele><time>2026-03-25T12:34:29.001Z</time></trkpt><trkpt lat="43.838833153248615" lon="3.2677039004856807"><ele>787.75</ele><time>2026-03-25T12:34:30.001Z</time></trkpt><trkpt lat="43.838956782427076" lon="3.267751429208292"><ele>787.0</ele><time>2026-03-25T12:34:31.001Z</time></trkpt><trkpt lat="43.839092532112794" lon="3.267797958784494"><ele>787.0</ele><time>2026-03-25T12:34:32.001Z</time></trkpt><trkpt lat="43.839231522720866" lon="3.2678521740193243"><ele>787.0</ele><time>2026-03-25T12:34:33.001Z</time></trkpt><trkpt lat="43.83937001891662" lon="3.2679015866773384"><ele>787.0</ele><time>2026-03-25T12:34:34.001Z</time></trkpt><trkpt lat="43.83950995174729" lon="3.2679398799275243"><ele>787.0</ele><time>2026-03-25T12:34:35.001Z</time></trkpt><trkpt lat="43.839650783402384" lon="3.267975127323496"><ele>785.5</ele><time>2026-03-25T12:34:36.001Z</time></trkpt><trkpt lat="43.83979069329994" lon="3.2680090612651855"><ele>784.0</ele><time>2026-03-25T12:34:37.001Z</time></trkpt><trkpt lat="43.83992936058754" lon="3.2680445183429487"><ele>782.5</ele><time>2026-03-25T12:34:38.001Z</time></trkpt><trkpt lat="43.84005930188835" lon="3.268071325415072"><ele>781.0</ele><time>2026-03-25T12:34:39.001Z</time></trkpt><trkpt lat="43.84018523542088" lon="3.2680881909941877"><ele>779.25</ele><time>2026-03-25T12:34:40.001Z</time></trkpt><trkpt lat="43.84030523414327" lon="3.2681000747830864"><ele>777.5</ele><time>2026-03-25T12:34:41.001Z</time></trkpt><trkpt lat="43.8404185156063" lon="3.268101075716321"><ele>775.75</ele><time>2026-03-25T12:34:42.001Z</time></trkpt><trkpt lat="43.84053249169629" lon="3.268097479237576"><ele>774.0</ele><time>2026-03-25T12:34:43.001Z</time></trkpt><trkpt lat="43.84065082534195" lon="3.268084915835588"><ele>774.0</ele><time>2026-03-25T12:34:44.001Z</time></trkpt><trkpt lat="43.840767091113754" lon="3.268065108320065"><ele>774.0</ele><time>2026-03-25T12:34:45.001Z</time></trkpt><trkpt lat="43.84087569074038" lon="3.2680443963556494"><ele>774.0</ele><time>2026-03-25T12:34:46.001Z</time></trkpt><trkpt lat="43.84097056780926" lon="3.2680106604032737"><ele>774.0</ele><time>2026-03-25T12:34:47.001Z</time></trkpt><trkpt lat="43.84105706359134" lon="3.2679645574048135"><ele>774.0</ele><time>2026-03-25T12:34:48.001Z</time></trkpt><trkpt lat="43.84113104646154" lon="3.267900739462226"><ele>773.0</ele><time>2026-03-25T12:34:49.001Z</time></trkpt><trkpt lat="43.84119488432827" lon="3.2678210973671185"><ele>772.0</ele><time>2026-03-25T12:34:50.001Z</time></trkpt><trkpt lat="43.8412509721228" lon="3.2677331740960796"><ele>771.0</ele><time>2026-03-25T12:34:51.001Z</time></trkpt><trkpt lat="43.8413071156985" lon="3.2676473813434264"><ele>770.0</ele><time>2026-03-25T12:34:52.001Z</time></trkpt><trkpt lat="43.84135768104924" lon="3.2675625605562897"><ele>769.0</ele><time>2026-03-25T12:34:53.001Z</time></trkpt><trkpt lat="43.841409764326905" lon="3.2674967870814697"><ele>768.0</ele><time>2026-03-25T12:34:54.001Z</time></trkpt><trkpt lat="43.84151661593895" lon="3.2674353670200245"><ele>768.0</ele><time>2026-03-25T12:34:56.001Z</time></trkpt><trkpt lat="43.84163034589616" lon="3.267461478469816"><ele>768.0</ele><time>2026-03-25T12:34:58Z</time></trkpt><trkpt lat="43.84173701143208" lon="3.267556509771623"><ele>768.0</ele><time>2026-03-25T12:35:00Z</time></trkpt><trkpt lat="43.84178896562306" lon="3.267620855348469"><ele>768.0</ele><time>2026-03-25T12:35:01Z</time></trkpt><trkpt lat="43.84184836090636" lon="3.2676890506043463"><ele>768.0</ele><time>2026-03-25T12:35:02Z</time></trkpt><trkpt lat="43.841913665940794" lon="3.2677666255120617"><ele>767.3333333333334</ele><time>2026-03-25T12:35:03Z</time></trkpt><trkpt lat="43.84197975387651" lon="3.2678489166848586"><ele>766.6666666666666</ele><time>2026-03-25T12:35:04Z</time></trkpt><trkpt lat="43.842044166172855" lon="3.267933328289604"><ele>766.0</ele><time>2026-03-25T12:35:05Z</time></trkpt><trkpt lat="43.842103675568424" lon="3.268016208003244"><ele>765.3333333333333</ele><time>2026-03-25T12:35:06Z</time></trkpt><trkpt lat="43.8421536651529" lon="3.2680948980294295"><ele>764.6666666666666</ele><time>2026-03-25T12:35:07Z</time></trkpt><trkpt lat="43.84219807170604" lon="3.2681703730135436"><ele>764.0</ele><time>2026-03-25T12:35:08Z</time></trkpt><trkpt lat="43.8422371751851" lon="3.268253723081898"><ele>764.0</ele><time>2026-03-25T12:35:09Z</time></trkpt><trkpt lat="43.84226814418824" lon="3.2683435032297283"><ele>764.0</ele><time>2026-03-25T12:35:10Z</time></trkpt><trkpt lat="43.842273786399595" lon="3.2684463775368506"><ele>764.0</ele><time>2026-03-25T12:35:11Z</time></trkpt><trkpt lat="43.842296704251815" lon="3.2685380942152116"><ele>764.0</ele><time>2026-03-25T12:35:12Z</time></trkpt><trkpt lat="43.842314774775126" lon="3.268623292303457"><ele>764.0</ele><time>2026-03-25T12:35:13Z</time></trkpt><trkpt lat="43.8423675836995" lon="3.2687521501866406"><ele>764.0</ele><time>2026-03-25T12:35:15Z</time></trkpt><trkpt lat="43.842414512012745" lon="3.26884305805823"><ele>764.0</ele><time>2026-03-25T12:35:18Z</time></trkpt><trkpt lat="43.84246831595454" lon="3.268900407104949"><ele>764.0</ele><time>2026-03-25T12:35:20Z</time></trkpt><trkpt lat="43.84259666588183" lon="3.2689295377595045"><ele>764.0</ele><time>2026-03-25T12:35:22Z</time></trkpt><trkpt lat="43.84265978827186" lon="3.268928806702284"><ele>764.0</ele><time>2026-03-25T12:35:23Z</time></trkpt><trkpt lat="43.84276753481005" lon="3.2688883503661743"><ele>764.0</ele><time>2026-03-25T12:35:25Z</time></trkpt><trkpt lat="43.842850818026434" lon="3.26880115630222"><ele>762.4000000000001</ele><time>2026-03-25T12:35:27Z</time></trkpt><trkpt lat="43.842906763291005" lon="3.268657242358084"><ele>760.8</ele><time>2026-03-25T12:35:29Z</time></trkpt><trkpt lat="43.842950051223376" lon="3.268490596557581"><ele>759.2</ele><time>2026-03-25T12:35:31Z</time></trkpt><trkpt lat="43.842978815649104" lon="3.268400425668116"><ele>757.5999999999999</ele><time>2026-03-25T12:35:32Z</time></trkpt><trkpt lat="43.842997134668735" lon="3.2683040765791835"><ele>756.0</ele><time>2026-03-25T12:35:33Z</time></trkpt><trkpt lat="43.84301649058303" lon="3.268207714168924"><ele>756.0</ele><time>2026-03-25T12:35:34Z</time></trkpt><trkpt lat="43.84303895131917" lon="3.2681134837931722"><ele>756.0</ele><time>2026-03-25T12:35:35Z</time></trkpt><trkpt lat="43.84306752908601" lon="3.267993320166887"><ele>756.0</ele><time>2026-03-25T12:35:37Z</time></trkpt><trkpt lat="43.84310538562612" lon="3.2678685351099492"><ele>756.0</ele><time>2026-03-25T12:35:40Z</time></trkpt><trkpt lat="43.84314732609977" lon="3.2677774185228476"><ele>756.0</ele><time>2026-03-25T12:35:41Z</time></trkpt><trkpt lat="43.84319264346371" lon="3.2676796570514237"><ele>756.0</ele><time>2026-03-25T12:35:42Z</time></trkpt><trkpt lat="43.84323602092917" lon="3.2675876401634256"><ele>756.0</ele><time>2026-03-25T12:35:43Z</time></trkpt><trkpt lat="43.84328037151265" lon="3.2674892089159737"><ele>756.0</ele><time>2026-03-25T12:35:44Z</time></trkpt><trkpt lat="43.84332383768556" lon="3.2673973639079823"><ele>756.0</ele><time>2026-03-25T12:35:45Z</time></trkpt><trkpt lat="43.84336994012113" lon="3.2673079784724077"><ele>756.0</ele><time>2026-03-25T12:35:46Z</time></trkpt><trkpt lat="43.84341426926178" lon="3.2672267611422887"><ele>756.0</ele><time>2026-03-25T12:35:47Z</time></trkpt><trkpt lat="43.84346081214493" lon="3.267159827734996"><ele>756.0</ele><time>2026-03-25T12:35:48Z</time></trkpt><trkpt lat="43.843519523698205" lon="3.267126338322943"><ele>756.0</ele><time>2026-03-25T12:35:49Z</time></trkpt><trkpt lat="43.843635870892626" lon="3.267103722771969"><ele>756.4285714285714</ele><time>2026-03-25T12:35:51Z</time></trkpt><trkpt lat="43.84370039626824" lon="3.2671031234697683"><ele>756.8571428571429</ele><time>2026-03-25T12:35:52Z</time></trkpt><trkpt lat="43.84376979165045" lon="3.267113292265779"><ele>757.2857142857142</ele><time>2026-03-25T12:35:53Z</time></trkpt><trkpt lat="43.84384379021782" lon="3.2671236946040207"><ele>757.7142857142858</ele><time>2026-03-25T12:35:54Z</time></trkpt><trkpt lat="43.84392123447321" lon="3.2671314227602144"><ele>758.1428571428571</ele><time>2026-03-25T12:35:55Z</time></trkpt><trkpt lat="43.84399716623361" lon="3.2671417183025286"><ele>758.5714285714286</ele><time>2026-03-25T12:35:56Z</time></trkpt><trkpt lat="43.84407031362839" lon="3.2671753928454277"><ele>759.0</ele><time>2026-03-25T12:35:57Z</time></trkpt><trkpt lat="43.844131082849586" lon="3.267231415736078"><ele>758.5714285714286</ele><time>2026-03-25T12:35:58Z</time></trkpt><trkpt lat="43.844186788835145" lon="3.2672915931503157"><ele>758.1428571428571</ele><time>2026-03-25T12:35:59Z</time></trkpt><trkpt lat="43.84424208153272" lon="3.2673551234230778"><ele>757.7142857142858</ele><time>2026-03-25T12:36:00Z</time></trkpt><trkpt lat="43.84429461845541" lon="3.2674212382889927"><ele>757.2857142857142</ele><time>2026-03-25T12:36:01Z</time></trkpt><trkpt lat="43.84434101173253" lon="3.267494708874577"><ele>756.8571428571429</ele><time>2026-03-25T12:36:02Z</time></trkpt><trkpt lat="43.844388060939586" lon="3.267562996124548"><ele>756.4285714285714</ele><time>2026-03-25T12:36:03Z</time></trkpt><trkpt lat="43.84443869408329" lon="3.267633642667151"><ele>756.0</ele><time>2026-03-25T12:36:04Z</time></trkpt><trkpt lat="43.84449183420516" lon="3.2677039208333443"><ele>756.0</ele><time>2026-03-25T12:36:05Z</time></trkpt><trkpt lat="43.8445433944019" lon="3.2677742415873103"><ele>756.0</ele><time>2026-03-25T12:36:06Z</time></trkpt><trkpt lat="43.84460199045933" lon="3.2679044539973527"><ele>756.0</ele><time>2026-03-25T12:36:08Z</time></trkpt><trkpt lat="43.84476337886864" lon="3.2679104771757066"><ele>756.0</ele><time>2026-03-25T12:36:10Z</time></trkpt><trkpt lat="43.84483498580499" lon="3.2679248116700075"><ele>756.0</ele><time>2026-03-25T12:36:11Z</time></trkpt><trkpt lat="43.84491355118311" lon="3.267936310179393"><ele>756.0</ele><time>2026-03-25T12:36:12Z</time></trkpt><trkpt lat="43.84499477592556" lon="3.267979276239708"><ele>756.0</ele><time>2026-03-25T12:36:13Z</time></trkpt><trkpt lat="43.84507927397558" lon="3.2680358673151875"><ele>756.0</ele><time>2026-03-25T12:36:14Z</time></trkpt><trkpt lat="43.84516691721643" lon="3.2681042860844776"><ele>756.0</ele><time>2026-03-25T12:36:15Z</time></trkpt><trkpt lat="43.84524204706937" lon="3.2682014603847658"><ele>756.0</ele><time>2026-03-25T12:36:16Z</time></trkpt><trkpt lat="43.84532679572145" lon="3.268293803357458"><ele>755.1999999999999</ele><time>2026-03-25T12:36:17Z</time></trkpt><trkpt lat="43.84540435322484" lon="3.2683990727383345"><ele>754.4</ele><time>2026-03-25T12:36:18Z</time></trkpt><trkpt lat="43.84547785162996" lon="3.268516702835303"><ele>753.6</ele><time>2026-03-25T12:36:19Z</time></trkpt><trkpt lat="43.84554984305929" lon="3.2686281395772356"><ele>752.8</ele><time>2026-03-25T12:36:20Z</time></trkpt><trkpt lat="43.84562034403512" lon="3.2687248550061154"><ele>752.0</ele><time>2026-03-25T12:36:21Z</time></trkpt><trkpt lat="43.845701789549544" lon="3.2687898938031084"><ele>752.0</ele><time>2026-03-25T12:36:22Z</time></trkpt><trkpt lat="43.845774574385864" lon="3.268847312075788"><ele>752.0</ele><time>2026-03-25T12:36:23Z</time></trkpt><trkpt lat="43.84585773798785" lon="3.268886004445257"><ele>752.0</ele><time>2026-03-25T12:36:24Z</time></trkpt><trkpt lat="43.845947366272924" lon="3.268900910788969"><ele>752.0</ele><time>2026-03-25T12:36:25Z</time></trkpt><trkpt lat="43.846043370357684" lon="3.2688981636402223"><ele>752.0</ele><time>2026-03-25T12:36:26Z</time></trkpt><trkpt lat="43.84614489673799" lon="3.268877756639001"><ele>750.8</ele><time>2026-03-25T12:36:27Z</time></trkpt><trkpt lat="43.846249469118845" lon="3.268855566932405"><ele>749.6</ele><time>2026-03-25T12:36:28Z</time></trkpt><trkpt lat="43.846358606063" lon="3.2688215207251536"><ele>748.4</ele><time>2026-03-25T12:36:29Z</time></trkpt><trkpt lat="43.8464709948875" lon="3.268786022512518"><ele>747.1999999999999</ele><time>2026-03-25T12:36:30Z</time></trkpt><trkpt lat="43.846581531292045" lon="3.268740270695904"><ele>746.0</ele><time>2026-03-25T12:36:31Z</time></trkpt><trkpt lat="43.84668849652656" lon="3.268679541232924"><ele>746.0</ele><time>2026-03-25T12:36:32Z</time></trkpt><trkpt lat="43.8467895552494" lon="3.2686062077914597"><ele>746.0</ele><time>2026-03-25T12:36:33Z</time></trkpt><trkpt lat="43.846886805702454" lon="3.2685201260773304"><ele>746.0</ele><time>2026-03-25T12:36:34Z</time></trkpt><trkpt lat="43.84698642658486" lon="3.268421624591792"><ele>746.0</ele><time>2026-03-25T12:36:35Z</time></trkpt><trkpt lat="43.84709108321021" lon="3.2683227654501965"><ele>745.5</ele><time>2026-03-25T12:36:36Z</time></trkpt><trkpt lat="43.847200411389764" lon="3.268214642806193"><ele>745.0</ele><time>2026-03-25T12:36:37Z</time></trkpt><trkpt lat="43.847315099709355" lon="3.2681001676506574"><ele>744.5</ele><time>2026-03-25T12:36:38Z</time></trkpt><trkpt lat="43.847432781088735" lon="3.2679843334017495"><ele>744.0</ele><time>2026-03-25T12:36:39Z</time></trkpt><trkpt lat="43.84754513161205" lon="3.2678732540461772"><ele>742.0</ele><time>2026-03-25T12:36:40Z</time></trkpt><trkpt lat="43.84765373605492" lon="3.2677742185039533"><ele>740.0</ele><time>2026-03-25T12:36:41Z</time></trkpt><trkpt lat="43.847759204239935" lon="3.2676908811485945"><ele>738.0</ele><time>2026-03-25T12:36:42Z</time></trkpt><trkpt lat="43.847864591364235" lon="3.267635623662145"><ele>736.0</ele><time>2026-03-25T12:36:43Z</time></trkpt><trkpt lat="43.84797589826541" lon="3.267596433191618"><ele>736.0</ele><time>2026-03-25T12:36:44Z</time></trkpt><trkpt lat="43.848095934316845" lon="3.2675651723910666"><ele>736.0</ele><time>2026-03-25T12:36:45Z</time></trkpt><trkpt lat="43.84822149111626" lon="3.267539133729983"><ele>736.0</ele><time>2026-03-25T12:36:46Z</time></trkpt><trkpt lat="43.848352109830564" lon="3.267521170903888"><ele>736.0</ele><time>2026-03-25T12:36:47Z</time></trkpt><trkpt lat="43.84848097154304" lon="3.2675075996234444"><ele>735.8</ele><time>2026-03-25T12:36:48Z</time></trkpt><trkpt lat="43.848598507902665" lon="3.2674932720319454"><ele>735.5999999999999</ele><time>2026-03-25T12:36:49Z</time></trkpt><trkpt lat="43.848707642375004" lon="3.2674848881824436"><ele>735.4</ele><time>2026-03-25T12:36:50Z</time></trkpt><trkpt lat="43.84880939634055" lon="3.267490250260974"><ele>735.2</ele><time>2026-03-25T12:36:51Z</time></trkpt><trkpt lat="43.848907616669095" lon="3.267512718333795"><ele>735.0</ele><time>2026-03-25T12:36:52Z</time></trkpt><trkpt lat="43.84900621867585" lon="3.267549434488174"><ele>735.0</ele><time>2026-03-25T12:36:53Z</time></trkpt><trkpt lat="43.84909943472787" lon="3.2675889208724946"><ele>735.0</ele><time>2026-03-25T12:36:54Z</time></trkpt><trkpt lat="43.849192725617335" lon="3.2676166770438613"><ele>735.0</ele><time>2026-03-25T12:36:55Z</time></trkpt><trkpt lat="43.849288511607206" lon="3.2676252330252806"><ele>735.0</ele><time>2026-03-25T12:36:56Z</time></trkpt><trkpt lat="43.84938902980005" lon="3.267608568277581"><ele>735.0</ele><time>2026-03-25T12:36:57Z</time></trkpt><trkpt lat="43.84949500998064" lon="3.2675664003363294"><ele>735.0</ele><time>2026-03-25T12:36:58Z</time></trkpt><trkpt lat="43.84960787726593" lon="3.2675128694508118"><ele>735.0</ele><time>2026-03-25T12:36:59Z</time></trkpt><trkpt lat="43.84972808976079" lon="3.267460910463699"><ele>735.0</ele><time>2026-03-25T12:37:00Z</time></trkpt><trkpt lat="43.84985023992552" lon="3.2674067667222926"><ele>735.0</ele><time>2026-03-25T12:37:01Z</time></trkpt><trkpt lat="43.84997217218177" lon="3.267347680082909"><ele>735.0</ele><time>2026-03-25T12:37:02Z</time></trkpt><trkpt lat="43.850087305142466" lon="3.2673023053807535"><ele>735.0</ele><time>2026-03-25T12:37:03Z</time></trkpt><trkpt lat="43.850192343576985" lon="3.267255922702365"><ele>735.0</ele><time>2026-03-25T12:37:04Z</time></trkpt><trkpt lat="43.85029469075488" lon="3.2672305254187495"><ele>735.0</ele><time>2026-03-25T12:37:05Z</time></trkpt><trkpt lat="43.850405147715904" lon="3.267224331740697"><ele>735.0</ele><time>2026-03-25T12:37:06Z</time></trkpt><trkpt lat="43.850518158674156" lon="3.267225468965186"><ele>734.0</ele><time>2026-03-25T12:37:07Z</time></trkpt><trkpt lat="43.85063756302399" lon="3.267229392644319"><ele>733.0</ele><time>2026-03-25T12:37:08Z</time></trkpt><trkpt lat="43.850760359628985" lon="3.2672331688143506"><ele>732.0</ele><time>2026-03-25T12:37:09Z</time></trkpt><trkpt lat="43.85088623991316" lon="3.267232314316661"><ele>731.0</ele><time>2026-03-25T12:37:10Z</time></trkpt><trkpt lat="43.85101218539522" lon="3.267225171113896"><ele>731.0</ele><time>2026-03-25T12:37:11Z</time></trkpt><trkpt lat="43.85114202398492" lon="3.267210171411102"><ele>731.0</ele><time>2026-03-25T12:37:12Z</time></trkpt><trkpt lat="43.85127225035049" lon="3.2671808551660138"><ele>731.0</ele><time>2026-03-25T12:37:13Z</time></trkpt><trkpt lat="43.85140030249684" lon="3.2671562216435257"><ele>731.0</ele><time>2026-03-25T12:37:14Z</time></trkpt><trkpt lat="43.851525874264986" lon="3.267127150139456"><ele>731.0</ele><time>2026-03-25T12:37:15Z</time></trkpt><trkpt lat="43.85165470471646" lon="3.2670964899826447"><ele>731.0</ele><time>2026-03-25T12:37:16Z</time></trkpt><trkpt lat="43.85178025857629" lon="3.267062142904891"><ele>731.0</ele><time>2026-03-25T12:37:17Z</time></trkpt><trkpt lat="43.85189768804182" lon="3.267032914247622"><ele>731.0</ele><time>2026-03-25T12:37:18Z</time></trkpt><trkpt lat="43.85201006483061" lon="3.267005160718799"><ele>731.0</ele><time>2026-03-25T12:37:19Z</time></trkpt><trkpt lat="43.85210999589439" lon="3.2669787498378033"><ele>731.0</ele><time>2026-03-25T12:37:20Z</time></trkpt><trkpt lat="43.85220402507575" lon="3.266958667531863"><ele>731.0</ele><time>2026-03-25T12:37:21Z</time></trkpt><trkpt lat="43.852289446170346" lon="3.266957226413215"><ele>731.0</ele><time>2026-03-25T12:37:22Z</time></trkpt><trkpt lat="43.852370139249096" lon="3.266987791305697"><ele>731.0</ele><time>2026-03-25T12:37:23Z</time></trkpt><trkpt lat="43.85245687306992" lon="3.267030008413319"><ele>731.0</ele><time>2026-03-25T12:37:24Z</time></trkpt><trkpt lat="43.85254674569359" lon="3.2670951985414813"><ele>731.0</ele><time>2026-03-25T12:37:25Z</time></trkpt><trkpt lat="43.85264367823614" lon="3.2671558312848585"><ele>731.0</ele><time>2026-03-25T12:37:26Z</time></trkpt><trkpt lat="43.85273754344098" lon="3.2672251690554437"><ele>731.0</ele><time>2026-03-25T12:37:27Z</time></trkpt><trkpt lat="43.85282139442431" lon="3.267272568016026"><ele>731.0</ele><time>2026-03-25T12:37:28Z</time></trkpt><trkpt lat="43.85289718014606" lon="3.2672975055790885"><ele>731.0</ele><time>2026-03-25T12:37:29Z</time></trkpt><trkpt lat="43.8529741215473" lon="3.2673019314328093"><ele>731.0</ele><time>2026-03-25T12:37:30Z</time></trkpt><trkpt lat="43.85306090657913" lon="3.2672882114591895"><ele>731.0</ele><time>2026-03-25T12:37:31Z</time></trkpt><trkpt lat="43.8531560510424" lon="3.2672566773211833"><ele>731.0</ele><time>2026-03-25T12:37:32Z</time></trkpt><trkpt lat="43.85326378247303" lon="3.267206944867643"><ele>731.0</ele><time>2026-03-25T12:37:33Z</time></trkpt><trkpt lat="43.85338030363746" lon="3.2671637427315297"><ele>730.75</ele><time>2026-03-25T12:37:34Z</time></trkpt><trkpt lat="43.853502190991186" lon="3.2671211925741326"><ele>730.5</ele><time>2026-03-25T12:37:35Z</time></trkpt><trkpt lat="43.8536349324479" lon="3.2670680767361606"><ele>730.25</ele><time>2026-03-25T12:37:36Z</time></trkpt><trkpt lat="43.85377157978152" lon="3.267019080842357"><ele>730.0</ele><time>2026-03-25T12:37:37Z</time></trkpt><trkpt lat="43.85391098582447" lon="3.266968132017331"><ele>730.0</ele><time>2026-03-25T12:37:38Z</time></trkpt><trkpt lat="43.85405234367145" lon="3.2669166646866805"><ele>730.0</ele><time>2026-03-25T12:37:39Z</time></trkpt><trkpt lat="43.854193152679024" lon="3.266877121552651"><ele>730.0</ele><time>2026-03-25T12:37:40Z</time></trkpt><trkpt lat="43.854324020872355" lon="3.2668468369513244"><ele>730.0</ele><time>2026-03-25T12:37:41Z</time></trkpt><trkpt lat="43.85444154988248" lon="3.266827523721521"><ele>730.4</ele><time>2026-03-25T12:37:42Z</time></trkpt><trkpt lat="43.85455136399636" lon="3.2668155244657378"><ele>730.8</ele><time>2026-03-25T12:37:43Z</time></trkpt><trkpt lat="43.85465116399552" lon="3.266809712427268"><ele>731.2</ele><time>2026-03-25T12:37:44Z</time></trkpt><trkpt lat="43.854743639330266" lon="3.2668006229421107"><ele>731.6</ele><time>2026-03-25T12:37:45Z</time></trkpt><trkpt lat="43.85484799380669" lon="3.266793699347443"><ele>732.0</ele><time>2026-03-25T12:37:46Z</time></trkpt><trkpt lat="43.85495454045959" lon="3.26678432722337"><ele>732.0</ele><time>2026-03-25T12:37:47Z</time></trkpt><trkpt lat="43.85506861591446" lon="3.266768722036883"><ele>732.0</ele><time>2026-03-25T12:37:48Z</time></trkpt><trkpt lat="43.85518374157088" lon="3.266755071645727"><ele>732.0</ele><time>2026-03-25T12:37:49Z</time></trkpt><trkpt lat="43.85530428903917" lon="3.266745864272438"><ele>732.0</ele><time>2026-03-25T12:37:50Z</time></trkpt><trkpt lat="43.855428293500815" lon="3.266735617790808"><ele>732.5</ele><time>2026-03-25T12:37:51Z</time></trkpt><trkpt lat="43.85554795618556" lon="3.2667289271978746"><ele>733.0</ele><time>2026-03-25T12:37:52Z</time></trkpt><trkpt lat="43.85567582874883" lon="3.266718327054185"><ele>733.5</ele><time>2026-03-25T12:37:53Z</time></trkpt><trkpt lat="43.85580344310355" lon="3.2667134584850825"><ele>734.0</ele><time>2026-03-25T12:37:54Z</time></trkpt><trkpt lat="43.855932581556026" lon="3.2667124347490613"><ele>733.75</ele><time>2026-03-25T12:37:55Z</time></trkpt><trkpt lat="43.85606669903176" lon="3.2667089460984022"><ele>733.5</ele><time>2026-03-25T12:37:56Z</time></trkpt><trkpt lat="43.856198829417146" lon="3.2667072540008757"><ele>733.25</ele><time>2026-03-25T12:37:57Z</time></trkpt><trkpt lat="43.8563271369246" lon="3.266697030386549"><ele>733.0</ele><time>2026-03-25T12:37:58Z</time></trkpt><trkpt lat="43.85644529693417" lon="3.2666881965375634"><ele>733.0</ele><time>2026-03-25T12:37:59Z</time></trkpt><trkpt lat="43.85655740011906" lon="3.2666801806496943"><ele>733.0</ele><time>2026-03-25T12:38:00Z</time></trkpt><trkpt lat="43.85666167557952" lon="3.266676533426362"><ele>733.0</ele><time>2026-03-25T12:38:01Z</time></trkpt><trkpt lat="43.85676353472547" lon="3.2666779682601486"><ele>733.0</ele><time>2026-03-25T12:38:02Z</time></trkpt><trkpt lat="43.85686480864926" lon="3.266677440591329"><ele>733.0</ele><time>2026-03-25T12:38:03Z</time></trkpt><trkpt lat="43.856960621653506" lon="3.266680119897965"><ele>733.0</ele><time>2026-03-25T12:38:04Z</time></trkpt><trkpt lat="43.85705987455754" lon="3.266684765512984"><ele>733.0</ele><time>2026-03-25T12:38:05Z</time></trkpt><trkpt lat="43.857158054145174" lon="3.2666937190690053"><ele>733.0</ele><time>2026-03-25T12:38:06Z</time></trkpt><trkpt lat="43.85725804028117" lon="3.2667077571475107"><ele>733.0</ele><time>2026-03-25T12:38:07Z</time></trkpt><trkpt lat="43.85736798529972" lon="3.2667377978497316"><ele>733.0</ele><time>2026-03-25T12:38:08Z</time></trkpt><trkpt lat="43.85747595958476" lon="3.266781667908886"><ele>733.0</ele><time>2026-03-25T12:38:09Z</time></trkpt><trkpt lat="43.857579725227886" lon="3.2668447419313273"><ele>733.0</ele><time>2026-03-25T12:38:10Z</time></trkpt><trkpt lat="43.85769015346356" lon="3.266917371718103"><ele>733.0</ele><time>2026-03-25T12:38:11Z</time></trkpt><trkpt lat="43.85779415826943" lon="3.2669796160724216"><ele>733.0</ele><time>2026-03-25T12:38:12Z</time></trkpt><trkpt lat="43.85788796397171" lon="3.2670400779806426"><ele>732.8</ele><time>2026-03-25T12:38:13Z</time></trkpt><trkpt lat="43.857976589435395" lon="3.2670966727774737"><ele>732.5999999999999</ele><time>2026-03-25T12:38:14Z</time></trkpt><trkpt lat="43.858065561979146" lon="3.2671486249354094"><ele>732.4000000000001</ele><time>2026-03-25T12:38:15Z</time></trkpt><trkpt lat="43.858162042143064" lon="3.267204704713694"><ele>732.2</ele><time>2026-03-25T12:38:16Z</time></trkpt><trkpt lat="43.85827207744366" lon="3.2672680038079602"><ele>732.0</ele><time>2026-03-25T12:38:17Z</time></trkpt><trkpt lat="43.85838381640625" lon="3.2673342195138475"><ele>731.5</ele><time>2026-03-25T12:38:18Z</time></trkpt><trkpt lat="43.858499004426605" lon="3.2674099566677133"><ele>731.0</ele><time>2026-03-25T12:38:19Z</time></trkpt><trkpt lat="43.85862227910958" lon="3.2674816095087644"><ele>730.5</ele><time>2026-03-25T12:38:20Z</time></trkpt><trkpt lat="43.85874325377677" lon="3.2675556383025586"><ele>730.0</ele><time>2026-03-25T12:38:21Z</time></trkpt><trkpt lat="43.85886797121858" lon="3.26762989091683"><ele>730.0</ele><time>2026-03-25T12:38:22Z</time></trkpt><trkpt lat="43.85899064931127" lon="3.2676979391024843"><ele>730.0</ele><time>2026-03-25T12:38:23Z</time></trkpt><trkpt lat="43.85910765551751" lon="3.2677660271645537"><ele>730.0</ele><time>2026-03-25T12:38:24Z</time></trkpt><trkpt lat="43.85921800400969" lon="3.2678271212630765"><ele>730.0</ele><time>2026-03-25T12:38:25Z</time></trkpt><trkpt lat="43.85932495959502" lon="3.2678882033088357"><ele>729.4</ele><time>2026-03-25T12:38:26Z</time></trkpt><trkpt lat="43.859428633269246" lon="3.2679553177846516"><ele>728.8</ele><time>2026-03-25T12:38:27Z</time></trkpt><trkpt lat="43.85952918827195" lon="3.2680152700596716"><ele>728.2</ele><time>2026-03-25T12:38:28Z</time></trkpt><trkpt lat="43.85962262989527" lon="3.268067095770662"><ele>727.6</ele><time>2026-03-25T12:38:29Z</time></trkpt><trkpt lat="43.85971274107416" lon="3.268118962370778"><ele>727.0</ele><time>2026-03-25T12:38:30Z</time></trkpt><trkpt lat="43.85979692923068" lon="3.2681699680256013"><ele>727.0</ele><time>2026-03-25T12:38:31Z</time></trkpt><trkpt lat="43.859877277792755" lon="3.2682184941099015"><ele>727.0</ele><time>2026-03-25T12:38:32Z</time></trkpt><trkpt lat="43.8599550434088" lon="3.268265414287216"><ele>727.0</ele><time>2026-03-25T12:38:33Z</time></trkpt><trkpt lat="43.86003059766578" lon="3.2683096198885444"><ele>727.0</ele><time>2026-03-25T12:38:34Z</time></trkpt><trkpt lat="43.86010226144795" lon="3.2683475995098417"><ele>727.0</ele><time>2026-03-25T12:38:35Z</time></trkpt><trkpt lat="43.86017232738556" lon="3.2683879046834177"><ele>727.0</ele><time>2026-03-25T12:38:36Z</time></trkpt><trkpt lat="43.8602362147835" lon="3.2684307698427197"><ele>727.0</ele><time>2026-03-25T12:38:37Z</time></trkpt><trkpt lat="43.86029863761555" lon="3.268466108160129"><ele>727.0</ele><time>2026-03-25T12:38:38Z</time></trkpt><trkpt lat="43.860406907198616" lon="3.2685270734051133"><ele>727.0</ele><time>2026-03-25T12:38:40Z</time></trkpt><trkpt lat="43.86045252653828" lon="3.2685907303286372"><ele>727.0</ele><time>2026-03-25T12:38:44Z</time></trkpt><trkpt lat="43.86050036039117" lon="3.268652274939612"><ele>727.0</ele><time>2026-03-25T12:39:09Z</time></trkpt></trkseg></trk></gpx>